<?xml version='1.0' encoding='UTF-8'?><gpx version="1.1" creator="JPX - https://github.com/jenetics/jpx" xmlns="http://www.topografix.com/GPX/1/1"><trk><trkseg><trkpt lat="39.7194935" lon="8.6380659"><ele>12.0</ele><time>2026-04-21T07:32:58.362Z</time></trkpt><trkpt lat="39.7195033" lon="8.6379514"><ele>12.0</ele><time>2026-04-21T07:33:04.361Z</time></trkpt><trkpt lat="39.7194353" lon="8.6379189"><ele>12.0</ele><time>2026-04-21T07:33:37.361Z</time></trkpt><trkpt lat="39.719481" lon="8.6380652"><ele>12.0</ele><time>2026-04-21T07:38:04.361Z</time></trkpt><trkpt lat="39.7195189" lon="8.6381464"><ele>12.0</ele><time>2026-04-21T07:38:09.36Z</time></trkpt><trkpt lat="39.7195879" lon="8.6382052"><ele>12.0</ele><time>2026-04-21T07:38:31.361Z</time></trkpt><trkpt lat="39.7196717" lon="8.6382999"><ele>12.0</ele><time>2026-04-21T07:38:33.361Z</time></trkpt><trkpt lat="39.7197515" lon="8.6384253"><ele>12.0</ele><time>2026-04-21T07:38:35.361Z</time></trkpt><trkpt lat="39.7197936" lon="8.6385008"><ele>12.0</ele><time>2026-04-21T07:38:36.361Z</time></trkpt><trkpt lat="39.7198322" lon="8.6385796"><ele>12.0</ele><time>2026-04-21T07:38:37.36Z</time></trkpt><trkpt lat="39.7198901" lon="8.6387068"><ele>12.0</ele><time>2026-04-21T07:38:39.361Z</time></trkpt><trkpt lat="39.719943" lon="8.6388255"><ele>12.399999999999999</ele><time>2026-04-21T07:38:41.36Z</time></trkpt><trkpt lat="39.7200163" lon="8.6389172"><ele>12.799999999999999</ele><time>2026-04-21T07:38:43.361Z</time></trkpt><trkpt lat="39.7200939" lon="8.6389495"><ele>13.2</ele><time>2026-04-21T07:38:45.361Z</time></trkpt><trkpt lat="39.7202083" lon="8.6389483"><ele>13.6</ele><time>2026-04-21T07:38:47.36Z</time></trkpt><trkpt lat="39.7202883" lon="8.638825"><ele>14.0</ele><time>2026-04-21T07:38:49.36Z</time></trkpt><trkpt lat="39.7203233" lon="8.6387567"><ele>13.0</ele><time>2026-04-21T07:38:50.36Z</time></trkpt><trkpt lat="39.7203917" lon="8.63862"><ele>12.0</ele><time>2026-04-21T07:38:52.36Z</time></trkpt><trkpt lat="39.7204267" lon="8.63846"><ele>11.0</ele><time>2026-04-21T07:38:54.36Z</time></trkpt><trkpt lat="39.7204683" lon="8.6383167"><ele>10.0</ele><time>2026-04-21T07:38:56.36Z</time></trkpt><trkpt lat="39.720505" lon="8.6381767"><ele>10.0</ele><time>2026-04-21T07:38:58.361Z</time></trkpt><trkpt lat="39.7205083" lon="8.63809"><ele>10.0</ele><time>2026-04-21T07:38:59.36Z</time></trkpt><trkpt lat="39.720535" lon="8.6379517"><ele>10.0</ele><time>2026-04-21T07:39:01.36Z</time></trkpt><trkpt lat="39.7205617" lon="8.637875"><ele>10.0</ele><time>2026-04-21T07:39:02.361Z</time></trkpt><trkpt lat="39.7206017" lon="8.63773"><ele>10.0</ele><time>2026-04-21T07:39:04.361Z</time></trkpt><trkpt lat="39.7206417" lon="8.6376033"><ele>10.0</ele><time>2026-04-21T07:39:06.361Z</time></trkpt><trkpt lat="39.7206833" lon="8.637495"><ele>10.0</ele><time>2026-04-21T07:39:08.361Z</time></trkpt><trkpt lat="39.720715" lon="8.637395"><ele>10.0</ele><time>2026-04-21T07:39:11.36Z</time></trkpt><trkpt lat="39.7207133" lon="8.6372967"><ele>10.0</ele><time>2026-04-21T07:39:15.36Z</time></trkpt><trkpt lat="39.72075" lon="8.6372233"><ele>10.0</ele><time>2026-04-21T07:39:22.361Z</time></trkpt><trkpt lat="39.7207433" lon="8.6370933"><ele>10.0</ele><time>2026-04-21T07:39:25.36Z</time></trkpt><trkpt lat="39.720675" lon="8.6369983"><ele>10.0</ele><time>2026-04-21T07:39:27.36Z</time></trkpt><trkpt lat="39.7206217" lon="8.6369333"><ele>10.0</ele><time>2026-04-21T07:39:28.36Z</time></trkpt><trkpt lat="39.7205517" lon="8.636855"><ele>10.0</ele><time>2026-04-21T07:39:29.361Z</time></trkpt><trkpt lat="39.7204967" lon="8.6367983"><ele>10.0</ele><time>2026-04-21T07:39:30.361Z</time></trkpt><trkpt lat="39.720405" lon="8.6366967"><ele>10.0</ele><time>2026-04-21T07:39:32.361Z</time></trkpt><trkpt lat="39.7203267" lon="8.6366367"><ele>10.0</ele><time>2026-04-21T07:39:34.36Z</time></trkpt><trkpt lat="39.7202867" lon="8.6365717"><ele>10.0</ele><time>2026-04-21T07:39:36.361Z</time></trkpt><trkpt lat="39.720235" lon="8.6365083"><ele>10.0</ele><time>2026-04-21T07:39:38.36Z</time></trkpt><trkpt lat="39.720165" lon="8.636385"><ele>10.0</ele><time>2026-04-21T07:39:40.36Z</time></trkpt><trkpt lat="39.7200817" lon="8.636275"><ele>10.0</ele><time>2026-04-21T07:39:42.36Z</time></trkpt><trkpt lat="39.72" lon="8.6361783"><ele>10.0</ele><time>2026-04-21T07:39:44.361Z</time></trkpt><trkpt lat="39.7199383" lon="8.6360817"><ele>10.6</ele><time>2026-04-21T07:39:46.36Z</time></trkpt><trkpt lat="39.7198567" lon="8.6359867"><ele>11.2</ele><time>2026-04-21T07:39:48.361Z</time></trkpt><trkpt lat="39.719775" lon="8.6359017"><ele>11.8</ele><time>2026-04-21T07:39:50.36Z</time></trkpt><trkpt lat="39.7197" lon="8.635805"><ele>12.4</ele><time>2026-04-21T07:39:52.361Z</time></trkpt><trkpt lat="39.71963" lon="8.6357117"><ele>13.0</ele><time>2026-04-21T07:39:54.36Z</time></trkpt><trkpt lat="39.719565" lon="8.6356"><ele>13.0</ele><time>2026-04-21T07:39:56.36Z</time></trkpt><trkpt lat="39.7195" lon="8.6355033"><ele>13.0</ele><time>2026-04-21T07:39:58.361Z</time></trkpt><trkpt lat="39.719415" lon="8.6354233"><ele>13.0</ele><time>2026-04-21T07:40:00.36Z</time></trkpt><trkpt lat="39.719365" lon="8.63533"><ele>13.0</ele><time>2026-04-21T07:40:02.36Z</time></trkpt><trkpt lat="39.7192517" lon="8.6350667"><ele>12.999999999999998</ele><time>2026-04-21T07:40:06.36Z</time></trkpt><trkpt lat="39.7191817" lon="8.634925"><ele>13.0</ele><time>2026-04-21T07:40:08.36Z</time></trkpt><trkpt lat="39.7191417" lon="8.634845"><ele>13.0</ele><time>2026-04-21T07:40:09.361Z</time></trkpt><trkpt lat="39.719095" lon="8.63477"><ele>13.0</ele><time>2026-04-21T07:40:10.361Z</time></trkpt><trkpt lat="39.7190417" lon="8.6347033"><ele>12.999999999999998</ele><time>2026-04-21T07:40:11.361Z</time></trkpt><trkpt lat="39.718995" lon="8.63463"><ele>13.0</ele><time>2026-04-21T07:40:12.36Z</time></trkpt><trkpt lat="39.7189533" lon="8.6345567"><ele>12.999999999999998</ele><time>2026-04-21T07:40:13.36Z</time></trkpt><trkpt lat="39.71892" lon="8.6344783"><ele>13.0</ele><time>2026-04-21T07:40:14.36Z</time></trkpt><trkpt lat="39.718885" lon="8.6343967"><ele>13.0</ele><time>2026-04-21T07:40:15.361Z</time></trkpt><trkpt lat="39.7188467" lon="8.63432"><ele>13.0</ele><time>2026-04-21T07:40:16.36Z</time></trkpt><trkpt lat="39.71881" lon="8.634245"><ele>12.999999999999998</ele><time>2026-04-21T07:40:17.36Z</time></trkpt><trkpt lat="39.7187683" lon="8.6341767"><ele>13.0</ele><time>2026-04-21T07:40:18.36Z</time></trkpt><trkpt lat="39.7186867" lon="8.634015"><ele>12.833333333333332</ele><time>2026-04-21T07:40:20.36Z</time></trkpt><trkpt lat="39.7186383" lon="8.6339383"><ele>12.666666666666666</ele><time>2026-04-21T07:40:21.36Z</time></trkpt><trkpt lat="39.7185967" lon="8.6338683"><ele>12.5</ele><time>2026-04-21T07:40:22.361Z</time></trkpt><trkpt lat="39.71854" lon="8.6338167"><ele>12.333333333333332</ele><time>2026-04-21T07:40:23.36Z</time></trkpt><trkpt lat="39.7184633" lon="8.6337783"><ele>12.166666666666666</ele><time>2026-04-21T07:40:24.36Z</time></trkpt><trkpt lat="39.7183833" lon="8.63377"><ele>12.0</ele><time>2026-04-21T07:40:25.36Z</time></trkpt><trkpt lat="39.718295" lon="8.6337833"><ele>12.0</ele><time>2026-04-21T07:40:26.361Z</time></trkpt><trkpt lat="39.7182083" lon="8.6338183"><ele>12.0</ele><time>2026-04-21T07:40:27.361Z</time></trkpt><trkpt lat="39.71812" lon="8.6338533"><ele>12.0</ele><time>2026-04-21T07:40:28.361Z</time></trkpt><trkpt lat="39.7180267" lon="8.633895"><ele>12.0</ele><time>2026-04-21T07:40:29.361Z</time></trkpt><trkpt lat="39.7179383" lon="8.6339317"><ele>12.0</ele><time>2026-04-21T07:40:30.36Z</time></trkpt><trkpt lat="39.7178517" lon="8.633975"><ele>12.0</ele><time>2026-04-21T07:40:31.36Z</time></trkpt><trkpt lat="39.7177683" lon="8.63401"><ele>12.0</ele><time>2026-04-21T07:40:32.36Z</time></trkpt><trkpt lat="39.7176883" lon="8.6340417"><ele>12.0</ele><time>2026-04-21T07:40:33.361Z</time></trkpt><trkpt lat="39.7176117" lon="8.634085"><ele>12.0</ele><time>2026-04-21T07:40:34.361Z</time></trkpt><trkpt lat="39.717525" lon="8.63412"><ele>12.0</ele><time>2026-04-21T07:40:35.36Z</time></trkpt><trkpt lat="39.7174417" lon="8.63416"><ele>12.0</ele><time>2026-04-21T07:40:36.361Z</time></trkpt><trkpt lat="39.7173567" lon="8.6342"><ele>12.0</ele><time>2026-04-21T07:40:37.36Z</time></trkpt><trkpt lat="39.7172667" lon="8.6342333"><ele>12.0</ele><time>2026-04-21T07:40:38.36Z</time></trkpt><trkpt lat="39.71699" lon="8.6343317"><ele>12.0</ele><time>2026-04-21T07:40:41.361Z</time></trkpt><trkpt lat="39.7168933" lon="8.6343733"><ele>11.8</ele><time>2026-04-21T07:40:42.36Z</time></trkpt><trkpt lat="39.7167933" lon="8.63441"><ele>11.6</ele><time>2026-04-21T07:40:43.36Z</time></trkpt><trkpt lat="39.7166967" lon="8.6344517"><ele>11.4</ele><time>2026-04-21T07:40:44.36Z</time></trkpt><trkpt lat="39.7166" lon="8.6344917"><ele>11.200000000000001</ele><time>2026-04-21T07:40:45.361Z</time></trkpt><trkpt lat="39.716495" lon="8.63453"><ele>11.0</ele><time>2026-04-21T07:40:46.36Z</time></trkpt><trkpt lat="39.7163883" lon="8.6345767"><ele>11.0</ele><time>2026-04-21T07:40:47.361Z</time></trkpt><trkpt lat="39.7162867" lon="8.6346167"><ele>11.0</ele><time>2026-04-21T07:40:48.36Z</time></trkpt><trkpt lat="39.7161867" lon="8.6346667"><ele>11.0</ele><time>2026-04-21T07:40:49.36Z</time></trkpt><trkpt lat="39.7160883" lon="8.63471"><ele>11.0</ele><time>2026-04-21T07:40:50.36Z</time></trkpt><trkpt lat="39.71588" lon="8.6347817"><ele>11.0</ele><time>2026-04-21T07:40:52.361Z</time></trkpt><trkpt lat="39.71578" lon="8.6348183"><ele>11.0</ele><time>2026-04-21T07:40:53.361Z</time></trkpt><trkpt lat="39.715685" lon="8.634855"><ele>11.0</ele><time>2026-04-21T07:40:54.36Z</time></trkpt><trkpt lat="39.7155967" lon="8.634895"><ele>11.0</ele><time>2026-04-21T07:40:55.361Z</time></trkpt><trkpt lat="39.7155133" lon="8.6349267"><ele>11.0</ele><time>2026-04-21T07:40:56.36Z</time></trkpt><trkpt lat="39.7154367" lon="8.634955"><ele>11.0</ele><time>2026-04-21T07:40:57.361Z</time></trkpt><trkpt lat="39.7153583" lon="8.6349767"><ele>11.0</ele><time>2026-04-21T07:40:58.361Z</time></trkpt><trkpt lat="39.715285" lon="8.635"><ele>11.0</ele><time>2026-04-21T07:40:59.36Z</time></trkpt><trkpt lat="39.7152183" lon="8.6350133"><ele>11.0</ele><time>2026-04-21T07:41:00.36Z</time></trkpt><trkpt lat="39.71515" lon="8.6349967"><ele>11.0</ele><time>2026-04-21T07:41:01.361Z</time></trkpt><trkpt lat="39.7149467" lon="8.63502"><ele>10.8</ele><time>2026-04-21T07:41:04.361Z</time></trkpt><trkpt lat="39.7148883" lon="8.6350833"><ele>10.600000000000001</ele><time>2026-04-21T07:41:05.36Z</time></trkpt><trkpt lat="39.714825" lon="8.63515"><ele>10.4</ele><time>2026-04-21T07:41:06.361Z</time></trkpt><trkpt lat="39.7147433" lon="8.6352033"><ele>10.2</ele><time>2026-04-21T07:41:07.36Z</time></trkpt><trkpt lat="39.7146533" lon="8.6352483"><ele>10.0</ele><time>2026-04-21T07:41:08.361Z</time></trkpt><trkpt lat="39.7145517" lon="8.6352867"><ele>10.25</ele><time>2026-04-21T07:41:09.361Z</time></trkpt><trkpt lat="39.7144433" lon="8.6353283"><ele>10.5</ele><time>2026-04-21T07:41:10.36Z</time></trkpt><trkpt lat="39.7143283" lon="8.6353583"><ele>10.75</ele><time>2026-04-21T07:41:11.36Z</time></trkpt><trkpt lat="39.714205" lon="8.635405"><ele>11.0</ele><time>2026-04-21T07:41:12.361Z</time></trkpt><trkpt lat="39.7140833" lon="8.6354383"><ele>11.0</ele><time>2026-04-21T07:41:13.361Z</time></trkpt><trkpt lat="39.7137567" lon="8.63556"><ele>11.0</ele><time>2026-04-21T07:41:16.36Z</time></trkpt><trkpt lat="39.713645" lon="8.6355967"><ele>10.75</ele><time>2026-04-21T07:41:17.361Z</time></trkpt><trkpt lat="39.7135217" lon="8.635645"><ele>10.5</ele><time>2026-04-21T07:41:18.36Z</time></trkpt><trkpt lat="39.7133967" lon="8.6356933"><ele>10.25</ele><time>2026-04-21T07:41:19.36Z</time></trkpt><trkpt lat="39.71327" lon="8.6357467"><ele>10.0</ele><time>2026-04-21T07:41:20.361Z</time></trkpt><trkpt lat="39.7131383" lon="8.6358017"><ele>10.0</ele><time>2026-04-21T07:41:21.36Z</time></trkpt><trkpt lat="39.7130033" lon="8.63585"><ele>10.0</ele><time>2026-04-21T07:41:22.361Z</time></trkpt><trkpt lat="39.71287" lon="8.6358983"><ele>10.0</ele><time>2026-04-21T07:41:23.36Z</time></trkpt><trkpt lat="39.7127383" lon="8.6359517"><ele>10.0</ele><time>2026-04-21T07:41:24.36Z</time></trkpt><trkpt lat="39.7126" lon="8.636"><ele>10.0</ele><time>2026-04-21T07:41:25.361Z</time></trkpt><trkpt lat="39.7124583" lon="8.6360533"><ele>10.0</ele><time>2026-04-21T07:41:26.36Z</time></trkpt><trkpt lat="39.7123183" lon="8.636105"><ele>10.0</ele><time>2026-04-21T07:41:27.36Z</time></trkpt><trkpt lat="39.7120267" lon="8.6362117"><ele>10.0</ele><time>2026-04-21T07:41:29.36Z</time></trkpt><trkpt lat="39.7118717" lon="8.6362683"><ele>10.0</ele><time>2026-04-21T07:41:30.36Z</time></trkpt><trkpt lat="39.7117233" lon="8.636325"><ele>10.0</ele><time>2026-04-21T07:41:31.361Z</time></trkpt><trkpt lat="39.71158" lon="8.636385"><ele>10.0</ele><time>2026-04-21T07:41:32.361Z</time></trkpt><trkpt lat="39.7114433" lon="8.63644"><ele>10.0</ele><time>2026-04-21T07:41:33.361Z</time></trkpt><trkpt lat="39.7113067" lon="8.6364933"><ele>10.0</ele><time>2026-04-21T07:41:34.36Z</time></trkpt><trkpt lat="39.7111717" lon="8.6365417"><ele>10.0</ele><time>2026-04-21T07:41:35.361Z</time></trkpt><trkpt lat="39.7110333" lon="8.6365917"><ele>11.0</ele><time>2026-04-21T07:41:36.36Z</time></trkpt><trkpt lat="39.71089" lon="8.6366433"><ele>12.0</ele><time>2026-04-21T07:41:37.36Z</time></trkpt><trkpt lat="39.710445" lon="8.6368083"><ele>12.0</ele><time>2026-04-21T07:41:40.36Z</time></trkpt><trkpt lat="39.7102867" lon="8.6368667"><ele>12.0</ele><time>2026-04-21T07:41:41.361Z</time></trkpt><trkpt lat="39.7101217" lon="8.636925"><ele>12.0</ele><time>2026-04-21T07:41:42.361Z</time></trkpt><trkpt lat="39.7099517" lon="8.6369817"><ele>11.666666666666666</ele><time>2026-04-21T07:41:43.36Z</time></trkpt><trkpt lat="39.7097867" lon="8.63704"><ele>11.333333333333332</ele><time>2026-04-21T07:41:44.36Z</time></trkpt><trkpt lat="39.7096133" lon="8.6370967"><ele>11.0</ele><time>2026-04-21T07:41:45.361Z</time></trkpt><trkpt lat="39.70944" lon="8.6371517"><ele>11.0</ele><time>2026-04-21T07:41:46.361Z</time></trkpt><trkpt lat="39.70927" lon="8.6372067"><ele>11.0</ele><time>2026-04-21T07:41:47.361Z</time></trkpt><trkpt lat="39.7091" lon="8.6372717"><ele>11.0</ele><time>2026-04-21T07:41:48.361Z</time></trkpt><trkpt lat="39.7086167" lon="8.6374633"><ele>11.333333333333332</ele><time>2026-04-21T07:41:51.361Z</time></trkpt><trkpt lat="39.7084533" lon="8.6375317"><ele>11.666666666666666</ele><time>2026-04-21T07:41:52.36Z</time></trkpt><trkpt lat="39.708285" lon="8.6375917"><ele>12.0</ele><time>2026-04-21T07:41:53.361Z</time></trkpt><trkpt lat="39.708115" lon="8.6376583"><ele>12.0</ele><time>2026-04-21T07:41:54.361Z</time></trkpt><trkpt lat="39.7079467" lon="8.6377183"><ele>12.0</ele><time>2026-04-21T07:41:55.36Z</time></trkpt><trkpt lat="39.7076033" lon="8.63785"><ele>11.666666666666666</ele><time>2026-04-21T07:41:57.361Z</time></trkpt><trkpt lat="39.7074333" lon="8.6379217"><ele>11.333333333333332</ele><time>2026-04-21T07:41:58.36Z</time></trkpt><trkpt lat="39.7072683" lon="8.6379967"><ele>11.0</ele><time>2026-04-21T07:41:59.36Z</time></trkpt><trkpt lat="39.7067967" lon="8.6381917"><ele>11.0</ele><time>2026-04-21T07:42:02.361Z</time></trkpt><trkpt lat="39.7066433" lon="8.6382433"><ele>11.0</ele><time>2026-04-21T07:42:03.36Z</time></trkpt><trkpt lat="39.7064883" lon="8.6382983"><ele>11.0</ele><time>2026-04-21T07:42:04.361Z</time></trkpt><trkpt lat="39.70634" lon="8.6383583"><ele>11.0</ele><time>2026-04-21T07:42:05.361Z</time></trkpt><trkpt lat="39.7061883" lon="8.6384167"><ele>11.0</ele><time>2026-04-21T07:42:06.361Z</time></trkpt><trkpt lat="39.7060333" lon="8.6384667"><ele>11.0</ele><time>2026-04-21T07:42:07.36Z</time></trkpt><trkpt lat="39.7058817" lon="8.6385267"><ele>10.666666666666666</ele><time>2026-04-21T07:42:08.361Z</time></trkpt><trkpt lat="39.70573" lon="8.63859"><ele>10.333333333333334</ele><time>2026-04-21T07:42:09.36Z</time></trkpt><trkpt lat="39.7055767" lon="8.6386483"><ele>10.0</ele><time>2026-04-21T07:42:10.36Z</time></trkpt><trkpt lat="39.70528" lon="8.6387683"><ele>10.666666666666668</ele><time>2026-04-21T07:42:12.36Z</time></trkpt><trkpt lat="39.7051183" lon="8.6388183"><ele>11.333333333333334</ele><time>2026-04-21T07:42:13.361Z</time></trkpt><trkpt lat="39.704965" lon="8.6388733"><ele>12.0</ele><time>2026-04-21T07:42:14.361Z</time></trkpt><trkpt lat="39.70481" lon="8.6389333"><ele>12.0</ele><time>2026-04-21T07:42:15.36Z</time></trkpt><trkpt lat="39.70465" lon="8.6389983"><ele>12.0</ele><time>2026-04-21T07:42:16.36Z</time></trkpt><trkpt lat="39.7044933" lon="8.6390617"><ele>12.0</ele><time>2026-04-21T07:42:17.361Z</time></trkpt><trkpt lat="39.704335" lon="8.6391217"><ele>12.0</ele><time>2026-04-21T07:42:18.36Z</time></trkpt><trkpt lat="39.7041733" lon="8.6391833"><ele>12.0</ele><time>2026-04-21T07:42:19.361Z</time></trkpt><trkpt lat="39.7040117" lon="8.6392383"><ele>12.0</ele><time>2026-04-21T07:42:20.36Z</time></trkpt><trkpt lat="39.7038483" lon="8.6393"><ele>13.0</ele><time>2026-04-21T07:42:21.36Z</time></trkpt><trkpt lat="39.7033417" lon="8.639495"><ele>13.0</ele><time>2026-04-21T07:42:24.36Z</time></trkpt><trkpt lat="39.7031683" lon="8.639555"><ele>13.0</ele><time>2026-04-21T07:42:25.36Z</time></trkpt><trkpt lat="39.7029967" lon="8.6396233"><ele>13.0</ele><time>2026-04-21T07:42:26.361Z</time></trkpt><trkpt lat="39.7028183" lon="8.63969"><ele>13.333333333333332</ele><time>2026-04-21T07:42:27.361Z</time></trkpt><trkpt lat="39.7026533" lon="8.6397567"><ele>13.666666666666668</ele><time>2026-04-21T07:42:28.361Z</time></trkpt><trkpt lat="39.7024833" lon="8.6398217"><ele>14.0</ele><time>2026-04-21T07:42:29.361Z</time></trkpt><trkpt lat="39.70232" lon="8.63988"><ele>14.0</ele><time>2026-04-21T07:42:30.361Z</time></trkpt><trkpt lat="39.7021583" lon="8.63994"><ele>14.0</ele><time>2026-04-21T07:42:31.361Z</time></trkpt><trkpt lat="39.7019883" lon="8.640005"><ele>14.0</ele><time>2026-04-21T07:42:32.361Z</time></trkpt><trkpt lat="39.7018217" lon="8.6400733"><ele>13.666666666666668</ele><time>2026-04-21T07:42:33.36Z</time></trkpt><trkpt lat="39.701655" lon="8.640135"><ele>13.333333333333332</ele><time>2026-04-21T07:42:34.361Z</time></trkpt><trkpt lat="39.7014833" lon="8.6401933"><ele>13.0</ele><time>2026-04-21T07:42:35.361Z</time></trkpt><trkpt lat="39.70132" lon="8.6402467"><ele>13.333333333333332</ele><time>2026-04-21T07:42:36.36Z</time></trkpt><trkpt lat="39.7011667" lon="8.6403033"><ele>13.666666666666668</ele><time>2026-04-21T07:42:37.36Z</time></trkpt><trkpt lat="39.70102" lon="8.6403583"><ele>14.0</ele><time>2026-04-21T07:42:38.36Z</time></trkpt><trkpt lat="39.7008717" lon="8.6404133"><ele>14.0</ele><time>2026-04-21T07:42:39.36Z</time></trkpt><trkpt lat="39.7007167" lon="8.6404767"><ele>14.0</ele><time>2026-04-21T07:42:40.36Z</time></trkpt><trkpt lat="39.7003833" lon="8.6405833"><ele>13.666666666666668</ele><time>2026-04-21T07:42:42.361Z</time></trkpt><trkpt lat="39.7002183" lon="8.6406433"><ele>13.333333333333332</ele><time>2026-04-21T07:42:43.361Z</time></trkpt><trkpt lat="39.70006" lon="8.6406967"><ele>13.0</ele><time>2026-04-21T07:42:44.36Z</time></trkpt><trkpt lat="39.6999" lon="8.6407633"><ele>13.0</ele><time>2026-04-21T07:42:45.361Z</time></trkpt><trkpt lat="39.6997367" lon="8.640825"><ele>13.0</ele><time>2026-04-21T07:42:46.36Z</time></trkpt><trkpt lat="39.699565" lon="8.6408833"><ele>13.0</ele><time>2026-04-21T07:42:47.361Z</time></trkpt><trkpt lat="39.6993967" lon="8.640945"><ele>13.0</ele><time>2026-04-21T07:42:48.361Z</time></trkpt><trkpt lat="39.6992217" lon="8.641"><ele>13.0</ele><time>2026-04-21T07:42:49.361Z</time></trkpt><trkpt lat="39.6990467" lon="8.6410683"><ele>13.0</ele><time>2026-04-21T07:42:50.361Z</time></trkpt><trkpt lat="39.6988833" lon="8.641135"><ele>13.0</ele><time>2026-04-21T07:42:51.361Z</time></trkpt><trkpt lat="39.6987217" lon="8.6412067"><ele>13.0</ele><time>2026-04-21T07:42:52.361Z</time></trkpt><trkpt lat="39.6984" lon="8.641315"><ele>13.666666666666666</ele><time>2026-04-21T07:42:54.36Z</time></trkpt><trkpt lat="39.6982433" lon="8.641365"><ele>14.333333333333332</ele><time>2026-04-21T07:42:55.36Z</time></trkpt><trkpt lat="39.6980767" lon="8.6414267"><ele>15.0</ele><time>2026-04-21T07:42:56.36Z</time></trkpt><trkpt lat="39.6979183" lon="8.6414833"><ele>15.0</ele><time>2026-04-21T07:42:57.361Z</time></trkpt><trkpt lat="39.6977567" lon="8.64155"><ele>15.0</ele><time>2026-04-21T07:42:58.361Z</time></trkpt><trkpt lat="39.6975933" lon="8.6416"><ele>15.0</ele><time>2026-04-21T07:42:59.36Z</time></trkpt><trkpt lat="39.6974283" lon="8.6416567"><ele>14.666666666666668</ele><time>2026-04-21T07:43:00.361Z</time></trkpt><trkpt lat="39.69727" lon="8.64172"><ele>14.333333333333334</ele><time>2026-04-21T07:43:01.361Z</time></trkpt><trkpt lat="39.6971117" lon="8.6417817"><ele>14.0</ele><time>2026-04-21T07:43:02.361Z</time></trkpt><trkpt lat="39.69695" lon="8.6418467"><ele>14.0</ele><time>2026-04-21T07:43:03.36Z</time></trkpt><trkpt lat="39.6967867" lon="8.641905"><ele>14.0</ele><time>2026-04-21T07:43:04.361Z</time></trkpt><trkpt lat="39.6966267" lon="8.6419517"><ele>14.0</ele><time>2026-04-21T07:43:05.36Z</time></trkpt><trkpt lat="39.6964683" lon="8.6420083"><ele>14.333333333333334</ele><time>2026-04-21T07:43:06.361Z</time></trkpt><trkpt lat="39.6963033" lon="8.6420533"><ele>14.666666666666668</ele><time>2026-04-21T07:43:07.36Z</time></trkpt><trkpt lat="39.696135" lon="8.642105"><ele>15.0</ele><time>2026-04-21T07:43:08.361Z</time></trkpt><trkpt lat="39.6959667" lon="8.6421583"><ele>15.0</ele><time>2026-04-21T07:43:09.361Z</time></trkpt><trkpt lat="39.695805" lon="8.64221"><ele>15.0</ele><time>2026-04-21T07:43:10.361Z</time></trkpt><trkpt lat="39.6956467" lon="8.64226"><ele>15.0</ele><time>2026-04-21T07:43:11.36Z</time></trkpt><trkpt lat="39.6954917" lon="8.6423183"><ele>15.0</ele><time>2026-04-21T07:43:12.361Z</time></trkpt><trkpt lat="39.6953367" lon="8.6423783"><ele>15.0</ele><time>2026-04-21T07:43:13.361Z</time></trkpt><trkpt lat="39.6951833" lon="8.64244"><ele>15.0</ele><time>2026-04-21T07:43:14.361Z</time></trkpt><trkpt lat="39.695025" lon="8.6424933"><ele>15.0</ele><time>2026-04-21T07:43:15.361Z</time></trkpt><trkpt lat="39.694865" lon="8.64255"><ele>15.0</ele><time>2026-04-21T07:43:16.361Z</time></trkpt><trkpt lat="39.6947" lon="8.64261"><ele>15.0</ele><time>2026-04-21T07:43:17.36Z</time></trkpt><trkpt lat="39.6945367" lon="8.64268"><ele>15.0</ele><time>2026-04-21T07:43:18.36Z</time></trkpt><trkpt lat="39.694375" lon="8.6427333"><ele>15.0</ele><time>2026-04-21T07:43:19.36Z</time></trkpt><trkpt lat="39.6942167" lon="8.642795"><ele>15.0</ele><time>2026-04-21T07:43:20.36Z</time></trkpt><trkpt lat="39.6940433" lon="8.6428533"><ele>15.0</ele><time>2026-04-21T07:43:21.361Z</time></trkpt><trkpt lat="39.693875" lon="8.64291"><ele>15.0</ele><time>2026-04-21T07:43:22.36Z</time></trkpt><trkpt lat="39.6933433" lon="8.6430833"><ele>15.0</ele><time>2026-04-21T07:43:25.36Z</time></trkpt><trkpt lat="39.6929817" lon="8.643215"><ele>15.0</ele><time>2026-04-21T07:43:27.361Z</time></trkpt><trkpt lat="39.6928" lon="8.6432817"><ele>15.0</ele><time>2026-04-21T07:43:28.361Z</time></trkpt><trkpt lat="39.692625" lon="8.6433567"><ele>15.0</ele><time>2026-04-21T07:43:29.361Z</time></trkpt><trkpt lat="39.6922817" lon="8.6434767"><ele>15.0</ele><time>2026-04-21T07:43:31.361Z</time></trkpt><trkpt lat="39.69212" lon="8.6435383"><ele>15.0</ele><time>2026-04-21T07:43:32.36Z</time></trkpt><trkpt lat="39.6916717" lon="8.6436983"><ele>14.5</ele><time>2026-04-21T07:43:35.361Z</time></trkpt><trkpt lat="39.691525" lon="8.6437517"><ele>14.0</ele><time>2026-04-21T07:43:36.361Z</time></trkpt><trkpt lat="39.69122" lon="8.64386"><ele>14.666666666666668</ele><time>2026-04-21T07:43:38.361Z</time></trkpt><trkpt lat="39.6910717" lon="8.64392"><ele>15.333333333333332</ele><time>2026-04-21T07:43:39.36Z</time></trkpt><trkpt lat="39.6909183" lon="8.6439717"><ele>16.0</ele><time>2026-04-21T07:43:40.361Z</time></trkpt><trkpt lat="39.69077" lon="8.644025"><ele>16.0</ele><time>2026-04-21T07:43:41.36Z</time></trkpt><trkpt lat="39.69062" lon="8.6440717"><ele>16.0</ele><time>2026-04-21T07:43:42.361Z</time></trkpt><trkpt lat="39.6904717" lon="8.6441183"><ele>16.0</ele><time>2026-04-21T07:43:43.36Z</time></trkpt><trkpt lat="39.6900517" lon="8.6442683"><ele>16.0</ele><time>2026-04-21T07:43:46.361Z</time></trkpt><trkpt lat="39.6899183" lon="8.6443183"><ele>16.0</ele><time>2026-04-21T07:43:47.36Z</time></trkpt><trkpt lat="39.68964" lon="8.6444267"><ele>16.0</ele><time>2026-04-21T07:43:49.361Z</time></trkpt><trkpt lat="39.68949" lon="8.6444733"><ele>15.75</ele><time>2026-04-21T07:43:50.361Z</time></trkpt><trkpt lat="39.6893467" lon="8.6445283"><ele>15.5</ele><time>2026-04-21T07:43:51.361Z</time></trkpt><trkpt lat="39.6892017" lon="8.6445717"><ele>15.25</ele><time>2026-04-21T07:43:52.361Z</time></trkpt><trkpt lat="39.6890617" lon="8.6446233"><ele>15.0</ele><time>2026-04-21T07:43:53.36Z</time></trkpt><trkpt lat="39.6886417" lon="8.6447783"><ele>15.0</ele><time>2026-04-21T07:43:56.36Z</time></trkpt><trkpt lat="39.6883667" lon="8.6448867"><ele>15.0</ele><time>2026-04-21T07:43:58.36Z</time></trkpt><trkpt lat="39.6880733" lon="8.644975"><ele>15.0</ele><time>2026-04-21T07:44:00.361Z</time></trkpt><trkpt lat="39.687925" lon="8.6450267"><ele>15.0</ele><time>2026-04-21T07:44:01.36Z</time></trkpt><trkpt lat="39.6877833" lon="8.6450817"><ele>15.0</ele><time>2026-04-21T07:44:02.361Z</time></trkpt><trkpt lat="39.6876433" lon="8.6451083"><ele>15.0</ele><time>2026-04-21T07:44:03.36Z</time></trkpt><trkpt lat="39.6875133" lon="8.6451317"><ele>15.0</ele><time>2026-04-21T07:44:04.36Z</time></trkpt><trkpt lat="39.6871483" lon="8.6450933"><ele>15.0</ele><time>2026-04-21T07:44:07.361Z</time></trkpt><trkpt lat="39.687045" lon="8.6450633"><ele>15.0</ele><time>2026-04-21T07:44:08.36Z</time></trkpt><trkpt lat="39.6868467" lon="8.64501"><ele>15.0</ele><time>2026-04-21T07:44:10.361Z</time></trkpt><trkpt lat="39.6867617" lon="8.6449983"><ele>15.0</ele><time>2026-04-21T07:44:11.361Z</time></trkpt><trkpt lat="39.6866833" lon="8.644985"><ele>15.0</ele><time>2026-04-21T07:44:12.36Z</time></trkpt><trkpt lat="39.686605" lon="8.644955"><ele>15.0</ele><time>2026-04-21T07:44:13.361Z</time></trkpt><trkpt lat="39.6865267" lon="8.64491"><ele>15.0</ele><time>2026-04-21T07:44:14.361Z</time></trkpt><trkpt lat="39.686235" lon="8.6448033"><ele>15.0</ele><time>2026-04-21T07:44:17.361Z</time></trkpt><trkpt lat="39.6861317" lon="8.644775"><ele>15.0</ele><time>2026-04-21T07:44:18.361Z</time></trkpt><trkpt lat="39.686025" lon="8.6447467"><ele>14.75</ele><time>2026-04-21T07:44:19.36Z</time></trkpt><trkpt lat="39.6858083" lon="8.6446833"><ele>14.5</ele><time>2026-04-21T07:44:21.361Z</time></trkpt><trkpt lat="39.6856933" lon="8.64466"><ele>14.25</ele><time>2026-04-21T07:44:22.361Z</time></trkpt><trkpt lat="39.685585" lon="8.6446317"><ele>14.0</ele><time>2026-04-21T07:44:23.36Z</time></trkpt><trkpt lat="39.6854783" lon="8.6446233"><ele>14.0</ele><time>2026-04-21T07:44:24.36Z</time></trkpt><trkpt lat="39.6852183" lon="8.6447"><ele>14.0</ele><time>2026-04-21T07:44:27.36Z</time></trkpt><trkpt lat="39.685155" lon="8.6447433"><ele>14.0</ele><time>2026-04-21T07:44:28.36Z</time></trkpt><trkpt lat="39.6850917" lon="8.64478"><ele>14.0</ele><time>2026-04-21T07:44:29.361Z</time></trkpt><trkpt lat="39.6849633" lon="8.644875"><ele>14.0</ele><time>2026-04-21T07:44:32.361Z</time></trkpt><trkpt lat="39.6848833" lon="8.644935"><ele>13.999999999999998</ele><time>2026-04-21T07:44:34.361Z</time></trkpt><trkpt lat="39.6847383" lon="8.64504"><ele>13.999999999999998</ele><time>2026-04-21T07:44:37.361Z</time></trkpt><trkpt lat="39.6846517" lon="8.6451017"><ele>14.0</ele><time>2026-04-21T07:44:39.36Z</time></trkpt><trkpt lat="39.68458" lon="8.64517"><ele>14.0</ele><time>2026-04-21T07:44:41.36Z</time></trkpt><trkpt lat="39.6845183" lon="8.6452217"><ele>14.0</ele><time>2026-04-21T07:44:43.361Z</time></trkpt><trkpt lat="39.6844617" lon="8.645275"><ele>13.999999999999998</ele><time>2026-04-21T07:44:45.36Z</time></trkpt><trkpt lat="39.68437" lon="8.6454233"><ele>13.999999999999998</ele><time>2026-04-21T07:44:48.361Z</time></trkpt><trkpt lat="39.68432" lon="8.64556"><ele>14.0</ele><time>2026-04-21T07:44:50.361Z</time></trkpt><trkpt lat="39.684255" lon="8.6456817"><ele>14.0</ele><time>2026-04-21T07:44:52.36Z</time></trkpt><trkpt lat="39.6841483" lon="8.6458617"><ele>14.0</ele><time>2026-04-21T07:44:55.36Z</time></trkpt><trkpt lat="39.684045" lon="8.6461117"><ele>13.999999999999998</ele><time>2026-04-21T07:44:58.36Z</time></trkpt><trkpt lat="39.6840133" lon="8.6461983"><ele>13.999999999999998</ele><time>2026-04-21T07:44:59.361Z</time></trkpt><trkpt lat="39.6839783" lon="8.646275"><ele>14.0</ele><time>2026-04-21T07:45:00.36Z</time></trkpt><trkpt lat="39.68395" lon="8.6463567"><ele>14.0</ele><time>2026-04-21T07:45:01.361Z</time></trkpt><trkpt lat="39.6839083" lon="8.6464267"><ele>14.666666666666668</ele><time>2026-04-21T07:45:02.36Z</time></trkpt><trkpt lat="39.68381" lon="8.646555"><ele>15.333333333333332</ele><time>2026-04-21T07:45:04.361Z</time></trkpt><trkpt lat="39.6837483" lon="8.6466183"><ele>16.0</ele><time>2026-04-21T07:45:05.36Z</time></trkpt><trkpt lat="39.6835233" lon="8.6468167"><ele>16.0</ele><time>2026-04-21T07:45:08.361Z</time></trkpt><trkpt lat="39.683385" lon="8.646955"><ele>16.0</ele><time>2026-04-21T07:45:10.36Z</time></trkpt><trkpt lat="39.68332" lon="8.6470283"><ele>16.0</ele><time>2026-04-21T07:45:11.361Z</time></trkpt><trkpt lat="39.6832017" lon="8.6471567"><ele>16.0</ele><time>2026-04-21T07:45:13.361Z</time></trkpt><trkpt lat="39.6831367" lon="8.6472333"><ele>16.25</ele><time>2026-04-21T07:45:14.361Z</time></trkpt><trkpt lat="39.6830717" lon="8.64729"><ele>16.5</ele><time>2026-04-21T07:45:15.361Z</time></trkpt><trkpt lat="39.68301" lon="8.64735"><ele>16.75</ele><time>2026-04-21T07:45:16.36Z</time></trkpt><trkpt lat="39.6828117" lon="8.6475633"><ele>17.0</ele><time>2026-04-21T07:45:19.36Z</time></trkpt><trkpt lat="39.6827467" lon="8.647635"><ele>16.8</ele><time>2026-04-21T07:45:20.361Z</time></trkpt><trkpt lat="39.6826783" lon="8.6477067"><ele>16.6</ele><time>2026-04-21T07:45:21.361Z</time></trkpt><trkpt lat="39.6826133" lon="8.64778"><ele>16.400000000000002</ele><time>2026-04-21T07:45:22.36Z</time></trkpt><trkpt lat="39.682475" lon="8.64793"><ele>16.2</ele><time>2026-04-21T07:45:24.361Z</time></trkpt><trkpt lat="39.682405" lon="8.648005"><ele>16.0</ele><time>2026-04-21T07:45:25.361Z</time></trkpt><trkpt lat="39.6823383" lon="8.6480817"><ele>16.0</ele><time>2026-04-21T07:45:26.361Z</time></trkpt><trkpt lat="39.682265" lon="8.648145"><ele>16.0</ele><time>2026-04-21T07:45:27.361Z</time></trkpt><trkpt lat="39.682105" lon="8.6482917"><ele>16.0</ele><time>2026-04-21T07:45:30.361Z</time></trkpt><trkpt lat="39.6820333" lon="8.6483583"><ele>16.0</ele><time>2026-04-21T07:45:32.36Z</time></trkpt><trkpt lat="39.6819733" lon="8.6484183"><ele>16.0</ele><time>2026-04-21T07:45:34.361Z</time></trkpt><trkpt lat="39.6819133" lon="8.6484817"><ele>16.0</ele><time>2026-04-21T07:45:36.361Z</time></trkpt><trkpt lat="39.6818267" lon="8.6485567"><ele>16.0</ele><time>2026-04-21T07:45:39.36Z</time></trkpt><trkpt lat="39.681755" lon="8.648595"><ele>16.0</ele><time>2026-04-21T07:45:43.361Z</time></trkpt><trkpt lat="39.6816833" lon="8.648675"><ele>16.0</ele><time>2026-04-21T07:45:46.36Z</time></trkpt><trkpt lat="39.6816033" lon="8.6487417"><ele>16.0</ele><time>2026-04-21T07:45:48.361Z</time></trkpt><trkpt lat="39.681505" lon="8.6488283"><ele>16.0</ele><time>2026-04-21T07:45:50.36Z</time></trkpt><trkpt lat="39.681455" lon="8.6488917"><ele>16.0</ele><time>2026-04-21T07:45:51.361Z</time></trkpt><trkpt lat="39.6813467" lon="8.64901"><ele>16.0</ele><time>2026-04-21T07:45:53.36Z</time></trkpt><trkpt lat="39.6812833" lon="8.6490717"><ele>16.0</ele><time>2026-04-21T07:45:54.36Z</time></trkpt><trkpt lat="39.681215" lon="8.6491383"><ele>16.0</ele><time>2026-04-21T07:45:55.361Z</time></trkpt><trkpt lat="39.68115" lon="8.6492"><ele>16.0</ele><time>2026-04-21T07:45:56.361Z</time></trkpt><trkpt lat="39.68109" lon="8.6492467"><ele>16.0</ele><time>2026-04-21T07:45:57.36Z</time></trkpt><trkpt lat="39.6809367" lon="8.6493167"><ele>16.0</ele><time>2026-04-21T07:46:00.36Z</time></trkpt><trkpt lat="39.680875" lon="8.6493633"><ele>16.0</ele><time>2026-04-21T07:46:02.36Z</time></trkpt><trkpt lat="39.68081" lon="8.6495267"><ele>16.0</ele><time>2026-04-21T07:49:00.36Z</time></trkpt><trkpt lat="39.680705" lon="8.6495183"><ele>16.0</ele><time>2026-04-21T07:52:50.361Z</time></trkpt><trkpt lat="39.6807333" lon="8.6496083"><ele>16.0</ele><time>2026-04-21T07:52:54.36Z</time></trkpt><trkpt lat="39.6808183" lon="8.6496383"><ele>16.0</ele><time>2026-04-21T07:52:57.361Z</time></trkpt><trkpt lat="39.6808983" lon="8.6495667"><ele>16.0</ele><time>2026-04-21T07:52:59.361Z</time></trkpt><trkpt lat="39.681005" lon="8.6494667"><ele>16.0</ele><time>2026-04-21T07:53:01.361Z</time></trkpt><trkpt lat="39.6810667" lon="8.649405"><ele>15.999999999999998</ele><time>2026-04-21T07:53:02.361Z</time></trkpt><trkpt lat="39.68113" lon="8.6493417"><ele>16.0</ele><time>2026-04-21T07:53:03.361Z</time></trkpt><trkpt lat="39.681195" lon="8.64928"><ele>16.0</ele><time>2026-04-21T07:53:04.361Z</time></trkpt><trkpt lat="39.68126" lon="8.649205"><ele>16.0</ele><time>2026-04-21T07:53:05.361Z</time></trkpt><trkpt lat="39.6813283" lon="8.6491367"><ele>15.999999999999998</ele><time>2026-04-21T07:53:06.36Z</time></trkpt><trkpt lat="39.6813933" lon="8.64906"><ele>16.0</ele><time>2026-04-21T07:53:07.36Z</time></trkpt><trkpt lat="39.68146" lon="8.648975"><ele>16.0</ele><time>2026-04-21T07:53:08.361Z</time></trkpt><trkpt lat="39.68153" lon="8.648905"><ele>16.0</ele><time>2026-04-21T07:53:09.361Z</time></trkpt><trkpt lat="39.6816083" lon="8.6488333"><ele>16.0</ele><time>2026-04-21T07:53:10.361Z</time></trkpt><trkpt lat="39.6816833" lon="8.64876"><ele>16.0</ele><time>2026-04-21T07:53:11.36Z</time></trkpt><trkpt lat="39.6817667" lon="8.6486817"><ele>16.0</ele><time>2026-04-21T07:53:12.36Z</time></trkpt><trkpt lat="39.6818383" lon="8.6486067"><ele>16.0</ele><time>2026-04-21T07:53:13.36Z</time></trkpt><trkpt lat="39.6819183" lon="8.6485333"><ele>16.0</ele><time>2026-04-21T07:53:14.361Z</time></trkpt><trkpt lat="39.681995" lon="8.648465"><ele>16.0</ele><time>2026-04-21T07:53:15.36Z</time></trkpt><trkpt lat="39.6820783" lon="8.6483867"><ele>16.0</ele><time>2026-04-21T07:53:16.36Z</time></trkpt><trkpt lat="39.682155" lon="8.6483083"><ele>16.0</ele><time>2026-04-21T07:53:17.36Z</time></trkpt><trkpt lat="39.6822267" lon="8.6482283"><ele>16.0</ele><time>2026-04-21T07:53:18.361Z</time></trkpt><trkpt lat="39.6823133" lon="8.6481517"><ele>16.0</ele><time>2026-04-21T07:53:19.36Z</time></trkpt><trkpt lat="39.6824017" lon="8.64806"><ele>16.0</ele><time>2026-04-21T07:53:20.361Z</time></trkpt><trkpt lat="39.6824867" lon="8.6479633"><ele>16.0</ele><time>2026-04-21T07:53:21.36Z</time></trkpt><trkpt lat="39.6825767" lon="8.6478833"><ele>16.0</ele><time>2026-04-21T07:53:22.36Z</time></trkpt><trkpt lat="39.682665" lon="8.647795"><ele>15.75</ele><time>2026-04-21T07:53:23.36Z</time></trkpt><trkpt lat="39.6827517" lon="8.6477"><ele>15.5</ele><time>2026-04-21T07:53:24.361Z</time></trkpt><trkpt lat="39.68284" lon="8.6476017"><ele>15.25</ele><time>2026-04-21T07:53:25.361Z</time></trkpt><trkpt lat="39.6829317" lon="8.6475083"><ele>15.0</ele><time>2026-04-21T07:53:26.361Z</time></trkpt><trkpt lat="39.68302" lon="8.6474117"><ele>15.4</ele><time>2026-04-21T07:53:27.361Z</time></trkpt><trkpt lat="39.6831167" lon="8.64732"><ele>15.8</ele><time>2026-04-21T07:53:28.36Z</time></trkpt><trkpt lat="39.683205" lon="8.6472383"><ele>16.2</ele><time>2026-04-21T07:53:29.36Z</time></trkpt><trkpt lat="39.6832933" lon="8.6471483"><ele>16.6</ele><time>2026-04-21T07:53:30.361Z</time></trkpt><trkpt lat="39.68338" lon="8.64707"><ele>17.0</ele><time>2026-04-21T07:53:31.36Z</time></trkpt><trkpt lat="39.6834617" lon="8.6469817"><ele>16.75</ele><time>2026-04-21T07:53:32.36Z</time></trkpt><trkpt lat="39.68354" lon="8.646885"><ele>16.5</ele><time>2026-04-21T07:53:33.361Z</time></trkpt><trkpt lat="39.6836333" lon="8.64679"><ele>16.25</ele><time>2026-04-21T07:53:34.361Z</time></trkpt><trkpt lat="39.6837283" lon="8.6467033"><ele>16.0</ele><time>2026-04-21T07:53:35.36Z</time></trkpt><trkpt lat="39.68382" lon="8.646605"><ele>16.0</ele><time>2026-04-21T07:53:36.361Z</time></trkpt><trkpt lat="39.6839133" lon="8.6465117"><ele>16.0</ele><time>2026-04-21T07:53:37.36Z</time></trkpt><trkpt lat="39.6839983" lon="8.646405"><ele>16.0</ele><time>2026-04-21T07:53:38.36Z</time></trkpt><trkpt lat="39.68407" lon="8.6462733"><ele>16.0</ele><time>2026-04-21T07:53:39.36Z</time></trkpt><trkpt lat="39.684175" lon="8.6459733"><ele>15.333333333333332</ele><time>2026-04-21T07:53:41.361Z</time></trkpt><trkpt lat="39.6842867" lon="8.645685"><ele>14.666666666666668</ele><time>2026-04-21T07:53:43.361Z</time></trkpt><trkpt lat="39.6843367" lon="8.6455567"><ele>14.0</ele><time>2026-04-21T07:53:44.361Z</time></trkpt><trkpt lat="39.6843883" lon="8.6454217"><ele>14.0</ele><time>2026-04-21T07:53:45.361Z</time></trkpt><trkpt lat="39.6844517" lon="8.6453017"><ele>13.999999999999998</ele><time>2026-04-21T07:53:46.361Z</time></trkpt><trkpt lat="39.68452" lon="8.645205"><ele>13.999999999999998</ele><time>2026-04-21T07:53:47.361Z</time></trkpt><trkpt lat="39.6846" lon="8.6451167"><ele>14.0</ele><time>2026-04-21T07:53:48.36Z</time></trkpt><trkpt lat="39.6847083" lon="8.645055"><ele>14.0</ele><time>2026-04-21T07:53:49.36Z</time></trkpt><trkpt lat="39.6848183" lon="8.6449883"><ele>14.0</ele><time>2026-04-21T07:53:50.36Z</time></trkpt><trkpt lat="39.6849417" lon="8.64492"><ele>14.0</ele><time>2026-04-21T07:53:51.36Z</time></trkpt><trkpt lat="39.6850517" lon="8.644845"><ele>14.0</ele><time>2026-04-21T07:53:52.36Z</time></trkpt><trkpt lat="39.6851617" lon="8.6447567"><ele>14.0</ele><time>2026-04-21T07:53:53.361Z</time></trkpt><trkpt lat="39.685285" lon="8.6446933"><ele>14.0</ele><time>2026-04-21T07:53:54.36Z</time></trkpt><trkpt lat="39.6856683" lon="8.6446417"><ele>14.0</ele><time>2026-04-21T07:53:57.361Z</time></trkpt><trkpt lat="39.6857967" lon="8.6446817"><ele>14.0</ele><time>2026-04-21T07:53:58.361Z</time></trkpt><trkpt lat="39.6859267" lon="8.6447283"><ele>13.999999999999998</ele><time>2026-04-21T07:53:59.36Z</time></trkpt><trkpt lat="39.6860383" lon="8.6447683"><ele>13.999999999999998</ele><time>2026-04-21T07:54:00.36Z</time></trkpt><trkpt lat="39.6861417" lon="8.6447967"><ele>14.0</ele><time>2026-04-21T07:54:01.36Z</time></trkpt><trkpt lat="39.6862267" lon="8.6448417"><ele>14.0</ele><time>2026-04-21T07:54:02.361Z</time></trkpt><trkpt lat="39.68633" lon="8.6449933"><ele>14.25</ele><time>2026-04-21T07:54:04.361Z</time></trkpt><trkpt lat="39.6864583" lon="8.6451967"><ele>14.5</ele><time>2026-04-21T07:54:07.36Z</time></trkpt><trkpt lat="39.6865683" lon="8.6451433"><ele>14.75</ele><time>2026-04-21T07:54:09.361Z</time></trkpt><trkpt lat="39.6865983" lon="8.645065"><ele>15.0</ele><time>2026-04-21T07:54:10.36Z</time></trkpt><trkpt lat="39.6865683" lon="8.6449167"><ele>15.0</ele><time>2026-04-21T07:54:12.361Z</time></trkpt><trkpt lat="39.6865117" lon="8.64487"><ele>15.0</ele><time>2026-04-21T07:54:13.361Z</time></trkpt><trkpt lat="39.6864417" lon="8.6448467"><ele>15.0</ele><time>2026-04-21T07:54:14.36Z</time></trkpt><trkpt lat="39.6863683" lon="8.6448217"><ele>15.0</ele><time>2026-04-21T07:54:15.36Z</time></trkpt><trkpt lat="39.6863" lon="8.64478"><ele>15.0</ele><time>2026-04-21T07:54:16.36Z</time></trkpt><trkpt lat="39.6862467" lon="8.6447117"><ele>15.0</ele><time>2026-04-21T07:54:17.361Z</time></trkpt><trkpt lat="39.6862183" lon="8.644625"><ele>15.0</ele><time>2026-04-21T07:54:18.361Z</time></trkpt><trkpt lat="39.6861933" lon="8.6445283"><ele>15.0</ele><time>2026-04-21T07:54:19.361Z</time></trkpt><trkpt lat="39.6861617" lon="8.6444367"><ele>15.0</ele><time>2026-04-21T07:54:20.361Z</time></trkpt><trkpt lat="39.6860833" lon="8.64425"><ele>15.0</ele><time>2026-04-21T07:54:22.361Z</time></trkpt><trkpt lat="39.6860417" lon="8.64416"><ele>15.0</ele><time>2026-04-21T07:54:23.361Z</time></trkpt><trkpt lat="39.6859983" lon="8.64407"><ele>15.0</ele><time>2026-04-21T07:54:24.361Z</time></trkpt><trkpt lat="39.685965" lon="8.6439967"><ele>15.0</ele><time>2026-04-21T07:54:25.36Z</time></trkpt><trkpt lat="39.685935" lon="8.6438717"><ele>15.0</ele><time>2026-04-21T07:54:27.361Z</time></trkpt><trkpt lat="39.68605" lon="8.6437267"><ele>15.0</ele><time>2026-04-21T07:54:30.36Z</time></trkpt><trkpt lat="39.6861067" lon="8.6436733"><ele>15.0</ele><time>2026-04-21T07:54:31.36Z</time></trkpt><trkpt lat="39.6862933" lon="8.6434633"><ele>15.0</ele><time>2026-04-21T07:54:34.361Z</time></trkpt><trkpt lat="39.6863583" lon="8.6434033"><ele>15.0</ele><time>2026-04-21T07:54:35.361Z</time></trkpt><trkpt lat="39.6864167" lon="8.6433483"><ele>15.0</ele><time>2026-04-21T07:54:36.36Z</time></trkpt><trkpt lat="39.6864817" lon="8.6432917"><ele>15.0</ele><time>2026-04-21T07:54:37.36Z</time></trkpt><trkpt lat="39.686555" lon="8.6432483"><ele>15.0</ele><time>2026-04-21T07:54:38.36Z</time></trkpt><trkpt lat="39.6866317" lon="8.6432217"><ele>15.0</ele><time>2026-04-21T07:54:39.36Z</time></trkpt><trkpt lat="39.6867133" lon="8.64319"><ele>15.0</ele><time>2026-04-21T07:54:40.36Z</time></trkpt><trkpt lat="39.6867983" lon="8.6431633"><ele>15.0</ele><time>2026-04-21T07:54:41.36Z</time></trkpt><trkpt lat="39.6868883" lon="8.6431433"><ele>15.0</ele><time>2026-04-21T07:54:42.36Z</time></trkpt><trkpt lat="39.6869717" lon="8.6431383"><ele>15.0</ele><time>2026-04-21T07:54:43.36Z</time></trkpt><trkpt lat="39.68707" lon="8.643125"><ele>15.0</ele><time>2026-04-21T07:54:44.361Z</time></trkpt><trkpt lat="39.6871683" lon="8.6431133"><ele>15.0</ele><time>2026-04-21T07:54:45.36Z</time></trkpt><trkpt lat="39.68727" lon="8.643095"><ele>15.0</ele><time>2026-04-21T07:54:46.36Z</time></trkpt><trkpt lat="39.687365" lon="8.6430683"><ele>15.0</ele><time>2026-04-21T07:54:47.36Z</time></trkpt><trkpt lat="39.6874583" lon="8.643015"><ele>15.0</ele><time>2026-04-21T07:54:48.36Z</time></trkpt><trkpt lat="39.6875467" lon="8.6429517"><ele>15.0</ele><time>2026-04-21T07:54:49.361Z</time></trkpt><trkpt lat="39.6876183" lon="8.6428733"><ele>15.0</ele><time>2026-04-21T07:54:50.361Z</time></trkpt><trkpt lat="39.6876933" lon="8.6427833"><ele>15.0</ele><time>2026-04-21T07:54:51.36Z</time></trkpt><trkpt lat="39.68776" lon="8.6426983"><ele>15.0</ele><time>2026-04-21T07:54:52.361Z</time></trkpt><trkpt lat="39.68782" lon="8.6426217"><ele>15.0</ele><time>2026-04-21T07:54:53.36Z</time></trkpt><trkpt lat="39.687875" lon="8.6425517"><ele>15.0</ele><time>2026-04-21T07:54:54.36Z</time></trkpt><trkpt lat="39.68793" lon="8.6424833"><ele>15.0</ele><time>2026-04-21T07:54:55.36Z</time></trkpt><trkpt lat="39.68799" lon="8.6424117"><ele>14.8</ele><time>2026-04-21T07:54:56.361Z</time></trkpt><trkpt lat="39.6880583" lon="8.642355"><ele>14.6</ele><time>2026-04-21T07:54:57.36Z</time></trkpt><trkpt lat="39.6881417" lon="8.6423133"><ele>14.399999999999999</ele><time>2026-04-21T07:54:58.36Z</time></trkpt><trkpt lat="39.6882367" lon="8.64228"><ele>14.2</ele><time>2026-04-21T07:54:59.361Z</time></trkpt><trkpt lat="39.68834" lon="8.64224"><ele>14.0</ele><time>2026-04-21T07:55:00.361Z</time></trkpt><trkpt lat="39.6884433" lon="8.6422017"><ele>14.0</ele><time>2026-04-21T07:55:01.361Z</time></trkpt><trkpt lat="39.68855" lon="8.6421733"><ele>14.0</ele><time>2026-04-21T07:55:02.361Z</time></trkpt><trkpt lat="39.6886617" lon="8.6421467"><ele>14.0</ele><time>2026-04-21T07:55:03.361Z</time></trkpt><trkpt lat="39.68878" lon="8.6421217"><ele>14.0</ele><time>2026-04-21T07:55:04.36Z</time></trkpt><trkpt lat="39.688895" lon="8.6420933"><ele>14.2</ele><time>2026-04-21T07:55:05.36Z</time></trkpt><trkpt lat="39.6889967" lon="8.64206"><ele>14.399999999999999</ele><time>2026-04-21T07:55:06.36Z</time></trkpt><trkpt lat="39.6890967" lon="8.6420083"><ele>14.6</ele><time>2026-04-21T07:55:07.36Z</time></trkpt><trkpt lat="39.6891917" lon="8.641955"><ele>14.8</ele><time>2026-04-21T07:55:08.361Z</time></trkpt><trkpt lat="39.6892933" lon="8.6419117"><ele>15.0</ele><time>2026-04-21T07:55:09.361Z</time></trkpt><trkpt lat="39.6893933" lon="8.64188"><ele>15.25</ele><time>2026-04-21T07:55:10.361Z</time></trkpt><trkpt lat="39.6895117" lon="8.6418617"><ele>15.5</ele><time>2026-04-21T07:55:11.36Z</time></trkpt><trkpt lat="39.6896267" lon="8.6418383"><ele>15.75</ele><time>2026-04-21T07:55:12.36Z</time></trkpt><trkpt lat="39.6897433" lon="8.6418017"><ele>16.0</ele><time>2026-04-21T07:55:13.361Z</time></trkpt><trkpt lat="39.6898583" lon="8.6417567"><ele>16.0</ele><time>2026-04-21T07:55:14.361Z</time></trkpt><trkpt lat="39.6899667" lon="8.6416967"><ele>16.0</ele><time>2026-04-21T07:55:15.361Z</time></trkpt><trkpt lat="39.690075" lon="8.6416583"><ele>16.0</ele><time>2026-04-21T07:55:16.36Z</time></trkpt><trkpt lat="39.6901883" lon="8.6416167"><ele>16.0</ele><time>2026-04-21T07:55:17.36Z</time></trkpt><trkpt lat="39.6903017" lon="8.6415883"><ele>15.75</ele><time>2026-04-21T07:55:18.361Z</time></trkpt><trkpt lat="39.6904167" lon="8.641565"><ele>15.5</ele><time>2026-04-21T07:55:19.361Z</time></trkpt><trkpt lat="39.690535" lon="8.6415383"><ele>15.25</ele><time>2026-04-21T07:55:20.361Z</time></trkpt><trkpt lat="39.690655" lon="8.6414983"><ele>15.0</ele><time>2026-04-21T07:55:21.36Z</time></trkpt><trkpt lat="39.6907767" lon="8.6414617"><ele>15.0</ele><time>2026-04-21T07:55:22.36Z</time></trkpt><trkpt lat="39.690895" lon="8.6414217"><ele>15.0</ele><time>2026-04-21T07:55:23.36Z</time></trkpt><trkpt lat="39.6910117" lon="8.6413733"><ele>15.0</ele><time>2026-04-21T07:55:24.361Z</time></trkpt><trkpt lat="39.6911233" lon="8.6413167"><ele>15.0</ele><time>2026-04-21T07:55:25.36Z</time></trkpt><trkpt lat="39.6912283" lon="8.6412533"><ele>15.0</ele><time>2026-04-21T07:55:26.361Z</time></trkpt><trkpt lat="39.6913367" lon="8.6411817"><ele>15.0</ele><time>2026-04-21T07:55:27.361Z</time></trkpt><trkpt lat="39.6914417" lon="8.64111"><ele>15.0</ele><time>2026-04-21T07:55:28.361Z</time></trkpt><trkpt lat="39.69154" lon="8.64103"><ele>15.0</ele><time>2026-04-21T07:55:29.36Z</time></trkpt><trkpt lat="39.6916367" lon="8.6409733"><ele>15.0</ele><time>2026-04-21T07:55:30.361Z</time></trkpt><trkpt lat="39.691745" lon="8.64093"><ele>15.0</ele><time>2026-04-21T07:55:31.361Z</time></trkpt><trkpt lat="39.6918617" lon="8.64089"><ele>15.0</ele><time>2026-04-21T07:55:32.361Z</time></trkpt><trkpt lat="39.69197" lon="8.640855"><ele>15.0</ele><time>2026-04-21T07:55:33.36Z</time></trkpt><trkpt lat="39.692075" lon="8.6408117"><ele>15.0</ele><time>2026-04-21T07:55:34.36Z</time></trkpt><trkpt lat="39.692185" lon="8.640755"><ele>15.0</ele><time>2026-04-21T07:55:35.361Z</time></trkpt><trkpt lat="39.6922933" lon="8.6406883"><ele>15.0</ele><time>2026-04-21T07:55:36.359Z</time></trkpt><trkpt lat="39.6924033" lon="8.6406183"><ele>15.0</ele><time>2026-04-21T07:55:37.36Z</time></trkpt><trkpt lat="39.692515" lon="8.640555"><ele>15.0</ele><time>2026-04-21T07:55:38.359Z</time></trkpt><trkpt lat="39.6926217" lon="8.640495"><ele>15.0</ele><time>2026-04-21T07:55:39.36Z</time></trkpt><trkpt lat="39.692715" lon="8.6404367"><ele>15.0</ele><time>2026-04-21T07:55:40.359Z</time></trkpt><trkpt lat="39.6928033" lon="8.64039"><ele>15.0</ele><time>2026-04-21T07:55:41.359Z</time></trkpt><trkpt lat="39.6928817" lon="8.640345"><ele>15.0</ele><time>2026-04-21T07:55:42.36Z</time></trkpt><trkpt lat="39.692945" lon="8.6402883"><ele>14.75</ele><time>2026-04-21T07:55:43.36Z</time></trkpt><trkpt lat="39.693005" lon="8.6402083"><ele>14.5</ele><time>2026-04-21T07:55:44.359Z</time></trkpt><trkpt lat="39.6930667" lon="8.6401183"><ele>14.25</ele><time>2026-04-21T07:55:45.36Z</time></trkpt><trkpt lat="39.6932067" lon="8.6399267"><ele>14.0</ele><time>2026-04-21T07:55:47.359Z</time></trkpt><trkpt lat="39.6932867" lon="8.6398333"><ele>14.0</ele><time>2026-04-21T07:55:48.359Z</time></trkpt><trkpt lat="39.6933767" lon="8.639735"><ele>13.999999999999998</ele><time>2026-04-21T07:55:49.359Z</time></trkpt><trkpt lat="39.6934683" lon="8.6396467"><ele>13.999999999999998</ele><time>2026-04-21T07:55:50.36Z</time></trkpt><trkpt lat="39.6935517" lon="8.6395567"><ele>14.0</ele><time>2026-04-21T07:55:51.359Z</time></trkpt><trkpt lat="39.6936167" lon="8.6394667"><ele>14.0</ele><time>2026-04-21T07:55:52.36Z</time></trkpt><trkpt lat="39.69368" lon="8.63937"><ele>14.0</ele><time>2026-04-21T07:55:53.36Z</time></trkpt><trkpt lat="39.693735" lon="8.6392667"><ele>13.999999999999998</ele><time>2026-04-21T07:55:54.36Z</time></trkpt><trkpt lat="39.69379" lon="8.63916"><ele>13.999999999999998</ele><time>2026-04-21T07:55:55.359Z</time></trkpt><trkpt lat="39.69383" lon="8.63905"><ele>14.0</ele><time>2026-04-21T07:55:56.359Z</time></trkpt><trkpt lat="39.6938567" lon="8.6389383"><ele>14.0</ele><time>2026-04-21T07:55:57.359Z</time></trkpt><trkpt lat="39.6938833" lon="8.6388217"><ele>14.0</ele><time>2026-04-21T07:55:58.359Z</time></trkpt><trkpt lat="39.6939083" lon="8.6387"><ele>13.999999999999998</ele><time>2026-04-21T07:55:59.36Z</time></trkpt><trkpt lat="39.6939367" lon="8.638565"><ele>13.999999999999998</ele><time>2026-04-21T07:56:00.36Z</time></trkpt><trkpt lat="39.6939767" lon="8.6384183"><ele>14.0</ele><time>2026-04-21T07:56:01.36Z</time></trkpt><trkpt lat="39.6940183" lon="8.6382783"><ele>14.0</ele><time>2026-04-21T07:56:02.36Z</time></trkpt><trkpt lat="39.6940567" lon="8.638145"><ele>14.000000000000002</ele><time>2026-04-21T07:56:03.36Z</time></trkpt><trkpt lat="39.6940917" lon="8.6380317"><ele>14.0</ele><time>2026-04-21T07:56:04.359Z</time></trkpt><trkpt lat="39.6941417" lon="8.6379317"><ele>14.0</ele><time>2026-04-21T07:56:05.36Z</time></trkpt><trkpt lat="39.6941967" lon="8.63785"><ele>14.0</ele><time>2026-04-21T07:56:06.359Z</time></trkpt><trkpt lat="39.694265" lon="8.6377867"><ele>14.000000000000002</ele><time>2026-04-21T07:56:07.359Z</time></trkpt><trkpt lat="39.6943483" lon="8.6377333"><ele>14.0</ele><time>2026-04-21T07:56:08.359Z</time></trkpt><trkpt lat="39.69443" lon="8.6376833"><ele>13.500000000000002</ele><time>2026-04-21T07:56:09.359Z</time></trkpt><trkpt lat="39.6945067" lon="8.63764"><ele>13.0</ele><time>2026-04-21T07:56:10.359Z</time></trkpt><trkpt lat="39.6945767" lon="8.6376183"><ele>12.5</ele><time>2026-04-21T07:56:11.359Z</time></trkpt><trkpt lat="39.69464" lon="8.63762"><ele>12.0</ele><time>2026-04-21T07:56:12.359Z</time></trkpt><trkpt lat="39.6947367" lon="8.6377083"><ele>11.5</ele><time>2026-04-21T07:56:14.359Z</time></trkpt><trkpt lat="39.6948283" lon="8.6377817"><ele>11.0</ele><time>2026-04-21T07:56:16.36Z</time></trkpt><trkpt lat="39.6949167" lon="8.63775"><ele>11.0</ele><time>2026-04-21T07:56:18.359Z</time></trkpt><trkpt lat="39.6950033" lon="8.6377083"><ele>11.0</ele><time>2026-04-21T07:56:20.359Z</time></trkpt><trkpt lat="39.6950633" lon="8.63762"><ele>11.0</ele><time>2026-04-21T07:56:29.36Z</time></trkpt><trkpt lat="39.6950617" lon="8.6375133"><ele>11.0</ele><time>2026-04-21T07:56:31.36Z</time></trkpt><trkpt lat="39.695025" lon="8.6374233"><ele>11.0</ele><time>2026-04-21T07:56:33.359Z</time></trkpt><trkpt lat="39.6949733" lon="8.63733"><ele>11.0</ele><time>2026-04-21T07:56:35.359Z</time></trkpt><trkpt lat="39.694905" lon="8.6372583"><ele>11.0</ele><time>2026-04-21T07:56:38.36Z</time></trkpt><trkpt lat="39.69485" lon="8.637205"><ele>11.0</ele><time>2026-04-21T07:56:41.359Z</time></trkpt><trkpt lat="39.6949033" lon="8.6372783"><ele>11.0</ele><time>2026-04-21T07:57:05.36Z</time></trkpt><trkpt lat="39.6949867" lon="8.6373617"><ele>11.0</ele><time>2026-04-21T07:57:07.36Z</time></trkpt><trkpt lat="39.6950433" lon="8.6374583"><ele>11.0</ele><time>2026-04-21T07:57:09.359Z</time></trkpt><trkpt lat="39.695065" lon="8.6375617"><ele>11.0</ele><time>2026-04-21T07:57:11.359Z</time></trkpt><trkpt lat="39.69504" lon="8.63767"><ele>11.0</ele><time>2026-04-21T07:57:14.359Z</time></trkpt><trkpt lat="39.695075" lon="8.637745"><ele>11.0</ele><time>2026-04-21T07:57:18.36Z</time></trkpt><trkpt lat="39.695145" lon="8.6378083"><ele>11.0</ele><time>2026-04-21T07:57:33.36Z</time></trkpt><trkpt lat="39.6952117" lon="8.6378367"><ele>11.0</ele><time>2026-04-21T07:57:35.359Z</time></trkpt><trkpt lat="39.6952767" lon="8.63778"><ele>11.0</ele><time>2026-04-21T07:58:23.36Z</time></trkpt><trkpt lat="39.69536" lon="8.6376967"><ele>11.0</ele><time>2026-04-21T07:58:25.359Z</time></trkpt><trkpt lat="39.6954067" lon="8.6376383"><ele>10.857142857142858</ele><time>2026-04-21T07:58:26.36Z</time></trkpt><trkpt lat="39.695455" lon="8.6375733"><ele>10.714285714285714</ele><time>2026-04-21T07:58:27.359Z</time></trkpt><trkpt lat="39.6955" lon="8.63751"><ele>10.571428571428571</ele><time>2026-04-21T07:58:28.36Z</time></trkpt><trkpt lat="39.6955467" lon="8.6374417"><ele>10.428571428571429</ele><time>2026-04-21T07:58:29.359Z</time></trkpt><trkpt lat="39.69559" lon="8.6373717"><ele>10.285714285714286</ele><time>2026-04-21T07:58:30.36Z</time></trkpt><trkpt lat="39.695635" lon="8.6373"><ele>10.142857142857142</ele><time>2026-04-21T07:58:31.359Z</time></trkpt><trkpt lat="39.6956683" lon="8.637225"><ele>10.0</ele><time>2026-04-21T07:58:32.36Z</time></trkpt><trkpt lat="39.6957233" lon="8.6371217"><ele>10.0</ele><time>2026-04-21T07:58:34.359Z</time></trkpt><trkpt lat="39.6958133" lon="8.6370883"><ele>10.0</ele><time>2026-04-21T07:58:36.36Z</time></trkpt><trkpt lat="39.69591" lon="8.6371233"><ele>10.0</ele><time>2026-04-21T07:58:38.359Z</time></trkpt><trkpt lat="39.6959883" lon="8.6371883"><ele>10.0</ele><time>2026-04-21T07:58:40.36Z</time></trkpt><trkpt lat="39.69606" lon="8.6372517"><ele>10.0</ele><time>2026-04-21T07:58:42.36Z</time></trkpt><trkpt lat="39.6961483" lon="8.6373267"><ele>10.2</ele><time>2026-04-21T07:58:44.36Z</time></trkpt><trkpt lat="39.6962417" lon="8.6373817"><ele>10.4</ele><time>2026-04-21T07:58:46.36Z</time></trkpt><trkpt lat="39.696345" lon="8.6374417"><ele>10.600000000000001</ele><time>2026-04-21T07:58:48.36Z</time></trkpt><trkpt lat="39.6964583" lon="8.6375017"><ele>10.8</ele><time>2026-04-21T07:58:50.359Z</time></trkpt><trkpt lat="39.69656" lon="8.63755"><ele>11.0</ele><time>2026-04-21T07:58:52.359Z</time></trkpt><trkpt lat="39.696665" lon="8.6376233"><ele>11.0</ele><time>2026-04-21T07:58:54.359Z</time></trkpt><trkpt lat="39.69677" lon="8.6377017"><ele>11.0</ele><time>2026-04-21T07:58:56.36Z</time></trkpt><trkpt lat="39.69683" lon="8.63774"><ele>11.0</ele><time>2026-04-21T07:58:57.359Z</time></trkpt><trkpt lat="39.696935" lon="8.6378117"><ele>11.0</ele><time>2026-04-21T07:58:59.36Z</time></trkpt><trkpt lat="39.69703" lon="8.6378417"><ele>11.0</ele><time>2026-04-21T07:59:01.36Z</time></trkpt><trkpt lat="39.697135" lon="8.63786"><ele>11.200000000000001</ele><time>2026-04-21T07:59:03.359Z</time></trkpt><trkpt lat="39.6972433" lon="8.6378533"><ele>11.4</ele><time>2026-04-21T07:59:05.36Z</time></trkpt><trkpt lat="39.6973417" lon="8.6378483"><ele>11.6</ele><time>2026-04-21T07:59:07.36Z</time></trkpt><trkpt lat="39.6974417" lon="8.6378433"><ele>11.8</ele><time>2026-04-21T07:59:09.36Z</time></trkpt><trkpt lat="39.697555" lon="8.6378383"><ele>12.0</ele><time>2026-04-21T07:59:11.36Z</time></trkpt><trkpt lat="39.6976683" lon="8.6378233"><ele>12.0</ele><time>2026-04-21T07:59:13.36Z</time></trkpt><trkpt lat="39.6977817" lon="8.63775"><ele>12.0</ele><time>2026-04-21T07:59:15.359Z</time></trkpt><trkpt lat="39.6978333" lon="8.6377"><ele>12.0</ele><time>2026-04-21T07:59:16.359Z</time></trkpt><trkpt lat="39.6978933" lon="8.6376383"><ele>12.0</ele><time>2026-04-21T07:59:17.36Z</time></trkpt><trkpt lat="39.697945" lon="8.6375783"><ele>12.0</ele><time>2026-04-21T07:59:18.36Z</time></trkpt><trkpt lat="39.698" lon="8.6375183"><ele>12.0</ele><time>2026-04-21T07:59:19.36Z</time></trkpt><trkpt lat="39.69805" lon="8.6374617"><ele>12.0</ele><time>2026-04-21T07:59:20.359Z</time></trkpt><trkpt lat="39.6980983" lon="8.6374033"><ele>12.0</ele><time>2026-04-21T07:59:21.359Z</time></trkpt><trkpt lat="39.6981983" lon="8.6373017"><ele>12.0</ele><time>2026-04-21T07:59:23.36Z</time></trkpt><trkpt lat="39.6982567" lon="8.6372533"><ele>12.0</ele><time>2026-04-21T07:59:24.359Z</time></trkpt><trkpt lat="39.698315" lon="8.6372067"><ele>12.0</ele><time>2026-04-21T07:59:25.359Z</time></trkpt><trkpt lat="39.6983817" lon="8.6371617"><ele>12.0</ele><time>2026-04-21T07:59:26.359Z</time></trkpt><trkpt lat="39.6984533" lon="8.6371133"><ele>12.0</ele><time>2026-04-21T07:59:27.36Z</time></trkpt><trkpt lat="39.6985233" lon="8.6370683"><ele>12.0</ele><time>2026-04-21T07:59:28.36Z</time></trkpt><trkpt lat="39.6985883" lon="8.6370267"><ele>12.0</ele><time>2026-04-21T07:59:29.36Z</time></trkpt><trkpt lat="39.6986567" lon="8.6369933"><ele>12.0</ele><time>2026-04-21T07:59:30.36Z</time></trkpt><trkpt lat="39.6987267" lon="8.63696"><ele>12.0</ele><time>2026-04-21T07:59:31.36Z</time></trkpt><trkpt lat="39.6988083" lon="8.63692"><ele>12.0</ele><time>2026-04-21T07:59:32.359Z</time></trkpt><trkpt lat="39.69889" lon="8.6368833"><ele>12.166666666666666</ele><time>2026-04-21T07:59:33.36Z</time></trkpt><trkpt lat="39.698975" lon="8.6368467"><ele>12.333333333333332</ele><time>2026-04-21T07:59:34.359Z</time></trkpt><trkpt lat="39.6990483" lon="8.6368083"><ele>12.5</ele><time>2026-04-21T07:59:35.36Z</time></trkpt><trkpt lat="39.6991183" lon="8.6367567"><ele>12.666666666666666</ele><time>2026-04-21T07:59:36.359Z</time></trkpt><trkpt lat="39.6991817" lon="8.6366983"><ele>12.833333333333332</ele><time>2026-04-21T07:59:37.36Z</time></trkpt><trkpt lat="39.6992367" lon="8.6366283"><ele>13.0</ele><time>2026-04-21T07:59:38.36Z</time></trkpt><trkpt lat="39.6992833" lon="8.6365533"><ele>12.999999999999998</ele><time>2026-04-21T07:59:39.359Z</time></trkpt><trkpt lat="39.69934" lon="8.63648"><ele>13.0</ele><time>2026-04-21T07:59:40.359Z</time></trkpt><trkpt lat="39.6993967" lon="8.6364167"><ele>13.0</ele><time>2026-04-21T07:59:41.359Z</time></trkpt><trkpt lat="39.6995" lon="8.636355"><ele>13.0</ele><time>2026-04-21T07:59:43.359Z</time></trkpt><trkpt lat="39.6995733" lon="8.6363317"><ele>12.999999999999998</ele><time>2026-04-21T07:59:45.36Z</time></trkpt><trkpt lat="39.6996083" lon="8.63623"><ele>13.0</ele><time>2026-04-21T07:59:47.36Z</time></trkpt><trkpt lat="39.6996" lon="8.6360633"><ele>12.999999999999998</ele><time>2026-04-21T07:59:49.359Z</time></trkpt><trkpt lat="39.6995767" lon="8.6359633"><ele>13.0</ele><time>2026-04-21T07:59:50.359Z</time></trkpt><trkpt lat="39.6995533" lon="8.6358667"><ele>13.0</ele><time>2026-04-21T07:59:51.36Z</time></trkpt><trkpt lat="39.699535" lon="8.6357583"><ele>13.0</ele><time>2026-04-21T07:59:52.36Z</time></trkpt><trkpt lat="39.6995167" lon="8.6356417"><ele>12.999999999999998</ele><time>2026-04-21T07:59:53.36Z</time></trkpt><trkpt lat="39.699505" lon="8.6355267"><ele>13.0</ele><time>2026-04-21T07:59:54.36Z</time></trkpt><trkpt lat="39.6994983" lon="8.6354033"><ele>12.4</ele><time>2026-04-21T07:59:55.36Z</time></trkpt><trkpt lat="39.6994933" lon="8.63527"><ele>11.8</ele><time>2026-04-21T07:59:56.36Z</time></trkpt><trkpt lat="39.699485" lon="8.6351383"><ele>11.2</ele><time>2026-04-21T07:59:57.36Z</time></trkpt><trkpt lat="39.6994833" lon="8.6349967"><ele>10.6</ele><time>2026-04-21T07:59:58.359Z</time></trkpt><trkpt lat="39.6994767" lon="8.634855"><ele>10.0</ele><time>2026-04-21T07:59:59.359Z</time></trkpt><trkpt lat="39.69948" lon="8.634705"><ele>10.0</ele><time>2026-04-21T08:00:00.359Z</time></trkpt><trkpt lat="39.6994883" lon="8.63456"><ele>10.0</ele><time>2026-04-21T08:00:01.359Z</time></trkpt><trkpt lat="39.6995017" lon="8.6344183"><ele>10.0</ele><time>2026-04-21T08:00:02.36Z</time></trkpt><trkpt lat="39.699525" lon="8.634275"><ele>10.0</ele><time>2026-04-21T08:00:03.359Z</time></trkpt><trkpt lat="39.6995517" lon="8.6341233"><ele>10.25</ele><time>2026-04-21T08:00:04.36Z</time></trkpt><trkpt lat="39.6995733" lon="8.6339783"><ele>10.5</ele><time>2026-04-21T08:00:05.359Z</time></trkpt><trkpt lat="39.6995933" lon="8.6338283"><ele>10.75</ele><time>2026-04-21T08:00:06.36Z</time></trkpt><trkpt lat="39.6996183" lon="8.633685"><ele>11.0</ele><time>2026-04-21T08:00:07.36Z</time></trkpt><trkpt lat="39.6996433" lon="8.6335483"><ele>11.0</ele><time>2026-04-21T08:00:08.36Z</time></trkpt><trkpt lat="39.6996733" lon="8.6334167"><ele>11.0</ele><time>2026-04-21T08:00:09.36Z</time></trkpt><trkpt lat="39.6997067" lon="8.6332883"><ele>11.0</ele><time>2026-04-21T08:00:10.36Z</time></trkpt><trkpt lat="39.69974" lon="8.6331583"><ele>11.0</ele><time>2026-04-21T08:00:11.359Z</time></trkpt><trkpt lat="39.6997767" lon="8.6330267"><ele>11.0</ele><time>2026-04-21T08:00:12.36Z</time></trkpt><trkpt lat="39.699815" lon="8.6328967"><ele>11.0</ele><time>2026-04-21T08:00:13.36Z</time></trkpt><trkpt lat="39.6998683" lon="8.6327717"><ele>11.0</ele><time>2026-04-21T08:00:14.36Z</time></trkpt><trkpt lat="39.6999233" lon="8.6326433"><ele>11.0</ele><time>2026-04-21T08:00:15.359Z</time></trkpt><trkpt lat="39.6999733" lon="8.6325183"><ele>11.0</ele><time>2026-04-21T08:00:16.359Z</time></trkpt><trkpt lat="39.7000283" lon="8.6323967"><ele>11.0</ele><time>2026-04-21T08:00:17.359Z</time></trkpt><trkpt lat="39.7000817" lon="8.6322733"><ele>11.0</ele><time>2026-04-21T08:00:18.36Z</time></trkpt><trkpt lat="39.70014" lon="8.6321617"><ele>11.0</ele><time>2026-04-21T08:00:19.359Z</time></trkpt><trkpt lat="39.7001933" lon="8.63206"><ele>11.0</ele><time>2026-04-21T08:00:20.359Z</time></trkpt><trkpt lat="39.7002417" lon="8.6319683"><ele>11.0</ele><time>2026-04-21T08:00:21.36Z</time></trkpt><trkpt lat="39.7003" lon="8.6318783"><ele>11.0</ele><time>2026-04-21T08:00:22.36Z</time></trkpt><trkpt lat="39.7003567" lon="8.631785"><ele>10.8</ele><time>2026-04-21T08:00:23.36Z</time></trkpt><trkpt lat="39.70041" lon="8.6316933"><ele>10.600000000000001</ele><time>2026-04-21T08:00:24.36Z</time></trkpt><trkpt lat="39.7004717" lon="8.6316017"><ele>10.4</ele><time>2026-04-21T08:00:25.359Z</time></trkpt><trkpt lat="39.7005317" lon="8.631505"><ele>10.2</ele><time>2026-04-21T08:00:26.359Z</time></trkpt><trkpt lat="39.7005967" lon="8.6314083"><ele>10.0</ele><time>2026-04-21T08:00:27.359Z</time></trkpt><trkpt lat="39.70066" lon="8.6313167"><ele>10.0</ele><time>2026-04-21T08:00:28.36Z</time></trkpt><trkpt lat="39.70073" lon="8.6312183"><ele>10.0</ele><time>2026-04-21T08:00:29.36Z</time></trkpt><trkpt lat="39.7007983" lon="8.6311333"><ele>10.0</ele><time>2026-04-21T08:00:30.359Z</time></trkpt><trkpt lat="39.7008683" lon="8.63105"><ele>10.0</ele><time>2026-04-21T08:00:31.36Z</time></trkpt><trkpt lat="39.7009417" lon="8.6309533"><ele>10.0</ele><time>2026-04-21T08:00:32.36Z</time></trkpt><trkpt lat="39.70101" lon="8.630865"><ele>10.0</ele><time>2026-04-21T08:00:33.36Z</time></trkpt><trkpt lat="39.7010817" lon="8.6307767"><ele>10.0</ele><time>2026-04-21T08:00:34.36Z</time></trkpt><trkpt lat="39.70116" lon="8.6306817"><ele>10.0</ele><time>2026-04-21T08:00:35.359Z</time></trkpt><trkpt lat="39.70123" lon="8.63059"><ele>10.0</ele><time>2026-04-21T08:00:36.36Z</time></trkpt><trkpt lat="39.7013117" lon="8.6304933"><ele>10.0</ele><time>2026-04-21T08:00:37.359Z</time></trkpt><trkpt lat="39.7013917" lon="8.6303933"><ele>10.2</ele><time>2026-04-21T08:00:38.36Z</time></trkpt><trkpt lat="39.70147" lon="8.630305"><ele>10.4</ele><time>2026-04-21T08:00:39.36Z</time></trkpt><trkpt lat="39.7015433" lon="8.6302017"><ele>10.600000000000001</ele><time>2026-04-21T08:00:40.359Z</time></trkpt><trkpt lat="39.7016167" lon="8.6301"><ele>10.8</ele><time>2026-04-21T08:00:41.36Z</time></trkpt><trkpt lat="39.7016917" lon="8.629995"><ele>11.0</ele><time>2026-04-21T08:00:42.36Z</time></trkpt><trkpt lat="39.7017717" lon="8.629895"><ele>11.0</ele><time>2026-04-21T08:00:43.36Z</time></trkpt><trkpt lat="39.7018567" lon="8.6297817"><ele>11.0</ele><time>2026-04-21T08:00:44.36Z</time></trkpt><trkpt lat="39.7019383" lon="8.6296733"><ele>11.0</ele><time>2026-04-21T08:00:45.36Z</time></trkpt><trkpt lat="39.7020167" lon="8.6295683"><ele>11.0</ele><time>2026-04-21T08:00:46.36Z</time></trkpt><trkpt lat="39.7021067" lon="8.6294683"><ele>11.25</ele><time>2026-04-21T08:00:47.36Z</time></trkpt><trkpt lat="39.7021917" lon="8.629365"><ele>11.5</ele><time>2026-04-21T08:00:48.36Z</time></trkpt><trkpt lat="39.70228" lon="8.62925"><ele>11.75</ele><time>2026-04-21T08:00:49.36Z</time></trkpt><trkpt lat="39.702375" lon="8.6291417"><ele>12.0</ele><time>2026-04-21T08:00:50.36Z</time></trkpt><trkpt lat="39.7024683" lon="8.629025"><ele>12.0</ele><time>2026-04-21T08:00:51.36Z</time></trkpt><trkpt lat="39.70256" lon="8.628905"><ele>12.0</ele><time>2026-04-21T08:00:52.359Z</time></trkpt><trkpt lat="39.70266" lon="8.6287833"><ele>12.0</ele><time>2026-04-21T08:00:53.36Z</time></trkpt><trkpt lat="39.7027533" lon="8.6286683"><ele>12.0</ele><time>2026-04-21T08:00:54.36Z</time></trkpt><trkpt lat="39.702845" lon="8.62855"><ele>11.8</ele><time>2026-04-21T08:00:55.36Z</time></trkpt><trkpt lat="39.7029217" lon="8.628445"><ele>11.6</ele><time>2026-04-21T08:00:56.36Z</time></trkpt><trkpt lat="39.70299" lon="8.628345"><ele>11.4</ele><time>2026-04-21T08:00:57.359Z</time></trkpt><trkpt lat="39.70305" lon="8.6282567"><ele>11.200000000000001</ele><time>2026-04-21T08:00:58.36Z</time></trkpt><trkpt lat="39.7030983" lon="8.628185"><ele>11.0</ele><time>2026-04-21T08:00:59.359Z</time></trkpt><trkpt lat="39.7031667" lon="8.6281133"><ele>11.0</ele><time>2026-04-21T08:01:01.359Z</time></trkpt><trkpt lat="39.70322" lon="8.62805"><ele>11.0</ele><time>2026-04-21T08:01:03.36Z</time></trkpt><trkpt lat="39.7032633" lon="8.62799"><ele>11.0</ele><time>2026-04-21T08:01:04.36Z</time></trkpt><trkpt lat="39.7033067" lon="8.6279217"><ele>11.0</ele><time>2026-04-21T08:01:05.36Z</time></trkpt><trkpt lat="39.7033633" lon="8.6278533"><ele>11.0</ele><time>2026-04-21T08:01:06.359Z</time></trkpt><trkpt lat="39.703425" lon="8.6277833"><ele>11.0</ele><time>2026-04-21T08:01:07.36Z</time></trkpt><trkpt lat="39.7034867" lon="8.62771"><ele>11.0</ele><time>2026-04-21T08:01:08.36Z</time></trkpt><trkpt lat="39.7035533" lon="8.6276267"><ele>10.8</ele><time>2026-04-21T08:01:09.359Z</time></trkpt><trkpt lat="39.703615" lon="8.62754"><ele>10.600000000000001</ele><time>2026-04-21T08:01:10.36Z</time></trkpt><trkpt lat="39.7036817" lon="8.62745"><ele>10.4</ele><time>2026-04-21T08:01:11.359Z</time></trkpt><trkpt lat="39.7037467" lon="8.62736"><ele>10.2</ele><time>2026-04-21T08:01:12.359Z</time></trkpt><trkpt lat="39.7038183" lon="8.627265"><ele>10.0</ele><time>2026-04-21T08:01:13.359Z</time></trkpt><trkpt lat="39.703895" lon="8.627165"><ele>10.0</ele><time>2026-04-21T08:01:14.36Z</time></trkpt><trkpt lat="39.703975" lon="8.6270717"><ele>10.0</ele><time>2026-04-21T08:01:15.36Z</time></trkpt><trkpt lat="39.70405" lon="8.6269783"><ele>10.0</ele><time>2026-04-21T08:01:16.359Z</time></trkpt><trkpt lat="39.7041217" lon="8.6268867"><ele>10.0</ele><time>2026-04-21T08:01:17.359Z</time></trkpt><trkpt lat="39.704195" lon="8.6267917"><ele>10.0</ele><time>2026-04-21T08:01:18.359Z</time></trkpt><trkpt lat="39.7042717" lon="8.6266933"><ele>10.2</ele><time>2026-04-21T08:01:19.36Z</time></trkpt><trkpt lat="39.7043517" lon="8.6265917"><ele>10.4</ele><time>2026-04-21T08:01:20.36Z</time></trkpt><trkpt lat="39.7044233" lon="8.6264967"><ele>10.600000000000001</ele><time>2026-04-21T08:01:21.359Z</time></trkpt><trkpt lat="39.704495" lon="8.6264083"><ele>10.8</ele><time>2026-04-21T08:01:22.36Z</time></trkpt><trkpt lat="39.7045683" lon="8.6263233"><ele>11.0</ele><time>2026-04-21T08:01:23.359Z</time></trkpt><trkpt lat="39.7046383" lon="8.6262317"><ele>10.8</ele><time>2026-04-21T08:01:24.36Z</time></trkpt><trkpt lat="39.7047117" lon="8.6261383"><ele>10.600000000000001</ele><time>2026-04-21T08:01:25.36Z</time></trkpt><trkpt lat="39.7047767" lon="8.6260517"><ele>10.4</ele><time>2026-04-21T08:01:26.36Z</time></trkpt><trkpt lat="39.70485" lon="8.62596"><ele>10.2</ele><time>2026-04-21T08:01:27.36Z</time></trkpt><trkpt lat="39.7049217" lon="8.6258733"><ele>10.0</ele><time>2026-04-21T08:01:28.36Z</time></trkpt><trkpt lat="39.7049967" lon="8.6257817"><ele>10.0</ele><time>2026-04-21T08:01:29.359Z</time></trkpt><trkpt lat="39.7050683" lon="8.6256867"><ele>10.0</ele><time>2026-04-21T08:01:30.36Z</time></trkpt><trkpt lat="39.70514" lon="8.62559"><ele>10.0</ele><time>2026-04-21T08:01:31.36Z</time></trkpt><trkpt lat="39.705215" lon="8.625495"><ele>10.0</ele><time>2026-04-21T08:01:32.36Z</time></trkpt><trkpt lat="39.7052917" lon="8.6254"><ele>10.0</ele><time>2026-04-21T08:01:33.359Z</time></trkpt><trkpt lat="39.7053717" lon="8.6253"><ele>9.8</ele><time>2026-04-21T08:01:34.36Z</time></trkpt><trkpt lat="39.7054433" lon="8.6252"><ele>9.6</ele><time>2026-04-21T08:01:35.36Z</time></trkpt><trkpt lat="39.70552" lon="8.6251083"><ele>9.4</ele><time>2026-04-21T08:01:36.36Z</time></trkpt><trkpt lat="39.7055833" lon="8.625015"><ele>9.2</ele><time>2026-04-21T08:01:37.36Z</time></trkpt><trkpt lat="39.7056483" lon="8.6249233"><ele>9.0</ele><time>2026-04-21T08:01:38.359Z</time></trkpt><trkpt lat="39.70572" lon="8.6248367"><ele>9.0</ele><time>2026-04-21T08:01:39.36Z</time></trkpt><trkpt lat="39.7057967" lon="8.62474"><ele>9.0</ele><time>2026-04-21T08:01:40.359Z</time></trkpt><trkpt lat="39.7058783" lon="8.6246433"><ele>9.0</ele><time>2026-04-21T08:01:41.36Z</time></trkpt><trkpt lat="39.7059467" lon="8.6245517"><ele>9.0</ele><time>2026-04-21T08:01:42.36Z</time></trkpt><trkpt lat="39.7060217" lon="8.6244633"><ele>9.0</ele><time>2026-04-21T08:01:43.36Z</time></trkpt><trkpt lat="39.7061" lon="8.6243783"><ele>9.0</ele><time>2026-04-21T08:01:44.359Z</time></trkpt><trkpt lat="39.7061683" lon="8.6242967"><ele>9.0</ele><time>2026-04-21T08:01:45.359Z</time></trkpt><trkpt lat="39.7062317" lon="8.6242167"><ele>9.0</ele><time>2026-04-21T08:01:46.359Z</time></trkpt><trkpt lat="39.7062883" lon="8.62414"><ele>9.0</ele><time>2026-04-21T08:01:47.359Z</time></trkpt><trkpt lat="39.7063517" lon="8.6240617"><ele>9.0</ele><time>2026-04-21T08:01:48.36Z</time></trkpt><trkpt lat="39.7064117" lon="8.6239833"><ele>9.0</ele><time>2026-04-21T08:01:49.36Z</time></trkpt><trkpt lat="39.7064667" lon="8.6239117"><ele>9.0</ele><time>2026-04-21T08:01:50.36Z</time></trkpt><trkpt lat="39.7065217" lon="8.623835"><ele>9.0</ele><time>2026-04-21T08:01:51.36Z</time></trkpt><trkpt lat="39.7065817" lon="8.6237633"><ele>9.0</ele><time>2026-04-21T08:01:52.36Z</time></trkpt><trkpt lat="39.7066417" lon="8.62369"><ele>9.0</ele><time>2026-04-21T08:01:53.36Z</time></trkpt><trkpt lat="39.7066967" lon="8.6236217"><ele>9.0</ele><time>2026-04-21T08:01:54.36Z</time></trkpt><trkpt lat="39.7067617" lon="8.6235517"><ele>9.0</ele><time>2026-04-21T08:01:55.359Z</time></trkpt><trkpt lat="39.7068167" lon="8.6234817"><ele>9.000000000000002</ele><time>2026-04-21T08:01:56.36Z</time></trkpt><trkpt lat="39.7068717" lon="8.6234117"><ele>9.0</ele><time>2026-04-21T08:01:57.359Z</time></trkpt><trkpt lat="39.7069267" lon="8.623345"><ele>9.0</ele><time>2026-04-21T08:01:58.359Z</time></trkpt><trkpt lat="39.7069767" lon="8.6232817"><ele>9.0</ele><time>2026-04-21T08:01:59.36Z</time></trkpt><trkpt lat="39.70703" lon="8.6232083"><ele>9.0</ele><time>2026-04-21T08:02:00.359Z</time></trkpt><trkpt lat="39.70708" lon="8.6231383"><ele>9.000000000000002</ele><time>2026-04-21T08:02:01.36Z</time></trkpt><trkpt lat="39.7071233" lon="8.623075"><ele>9.0</ele><time>2026-04-21T08:02:02.359Z</time></trkpt><trkpt lat="39.7071717" lon="8.622955"><ele>9.0</ele><time>2026-04-21T08:02:04.36Z</time></trkpt><trkpt lat="39.7071083" lon="8.6228617"><ele>9.0</ele><time>2026-04-21T08:02:07.36Z</time></trkpt><trkpt lat="39.7070067" lon="8.6228"><ele>9.0</ele><time>2026-04-21T08:02:09.359Z</time></trkpt><trkpt lat="39.7069117" lon="8.6227233"><ele>9.0</ele><time>2026-04-21T08:02:11.359Z</time></trkpt><trkpt lat="39.706815" lon="8.6226217"><ele>9.0</ele><time>2026-04-21T08:02:13.36Z</time></trkpt><trkpt lat="39.7067633" lon="8.6225633"><ele>9.428571428571429</ele><time>2026-04-21T08:02:14.359Z</time></trkpt><trkpt lat="39.70671" lon="8.6225083"><ele>9.857142857142858</ele><time>2026-04-21T08:02:15.36Z</time></trkpt><trkpt lat="39.7066517" lon="8.622455"><ele>10.285714285714285</ele><time>2026-04-21T08:02:16.359Z</time></trkpt><trkpt lat="39.7065883" lon="8.6224033"><ele>10.714285714285715</ele><time>2026-04-21T08:02:17.36Z</time></trkpt><trkpt lat="39.7065233" lon="8.62235"><ele>11.142857142857142</ele><time>2026-04-21T08:02:18.359Z</time></trkpt><trkpt lat="39.7064667" lon="8.6223"><ele>11.571428571428571</ele><time>2026-04-21T08:02:19.36Z</time></trkpt><trkpt lat="39.70641" lon="8.6222483"><ele>12.0</ele><time>2026-04-21T08:02:20.359Z</time></trkpt><trkpt lat="39.7063583" lon="8.6222"><ele>12.0</ele><time>2026-04-21T08:02:21.36Z</time></trkpt><trkpt lat="39.7062817" lon="8.6220967"><ele>12.0</ele><time>2026-04-21T08:02:23.36Z</time></trkpt><trkpt lat="39.7062117" lon="8.6219933"><ele>12.0</ele><time>2026-04-21T08:02:25.36Z</time></trkpt><trkpt lat="39.7061533" lon="8.6218667"><ele>12.0</ele><time>2026-04-21T08:02:27.359Z</time></trkpt><trkpt lat="39.70612" lon="8.621795"><ele>12.0</ele><time>2026-04-21T08:02:28.359Z</time></trkpt><trkpt lat="39.7060333" lon="8.62167"><ele>11.833333333333334</ele><time>2026-04-21T08:02:30.36Z</time></trkpt><trkpt lat="39.705975" lon="8.621595"><ele>11.666666666666666</ele><time>2026-04-21T08:02:31.359Z</time></trkpt><trkpt lat="39.7059183" lon="8.6215233"><ele>11.5</ele><time>2026-04-21T08:02:32.359Z</time></trkpt><trkpt lat="39.7058583" lon="8.6214517"><ele>11.333333333333332</ele><time>2026-04-21T08:02:33.36Z</time></trkpt><trkpt lat="39.70581" lon="8.6213817"><ele>11.166666666666666</ele><time>2026-04-21T08:02:34.359Z</time></trkpt><trkpt lat="39.7057617" lon="8.621315"><ele>11.0</ele><time>2026-04-21T08:02:35.359Z</time></trkpt><trkpt lat="39.7057183" lon="8.6212483"><ele>11.0</ele><time>2026-04-21T08:02:36.36Z</time></trkpt><trkpt lat="39.7056733" lon="8.6211867"><ele>11.0</ele><time>2026-04-21T08:02:37.36Z</time></trkpt><trkpt lat="39.7055833" lon="8.6210783"><ele>11.0</ele><time>2026-04-21T08:02:39.36Z</time></trkpt><trkpt lat="39.7055117" lon="8.6209417"><ele>11.0</ele><time>2026-04-21T08:02:41.36Z</time></trkpt><trkpt lat="39.7054417" lon="8.6208267"><ele>11.0</ele><time>2026-04-21T08:02:43.36Z</time></trkpt><trkpt lat="39.7053717" lon="8.6207317"><ele>11.0</ele><time>2026-04-21T08:02:45.359Z</time></trkpt><trkpt lat="39.7053017" lon="8.6206117"><ele>11.0</ele><time>2026-04-21T08:02:47.36Z</time></trkpt><trkpt lat="39.7052183" lon="8.6204767"><ele>11.0</ele><time>2026-04-21T08:02:49.36Z</time></trkpt><trkpt lat="39.705175" lon="8.6204"><ele>11.0</ele><time>2026-04-21T08:02:50.359Z</time></trkpt><trkpt lat="39.7051317" lon="8.6203183"><ele>11.0</ele><time>2026-04-21T08:02:51.359Z</time></trkpt><trkpt lat="39.7050767" lon="8.6202367"><ele>11.0</ele><time>2026-04-21T08:02:52.36Z</time></trkpt><trkpt lat="39.7050283" lon="8.6201583"><ele>11.0</ele><time>2026-04-21T08:02:53.36Z</time></trkpt><trkpt lat="39.7049833" lon="8.6200883"><ele>11.0</ele><time>2026-04-21T08:02:54.36Z</time></trkpt><trkpt lat="39.7048983" lon="8.6199533"><ele>11.0</ele><time>2026-04-21T08:02:56.359Z</time></trkpt><trkpt lat="39.7048217" lon="8.6198433"><ele>11.0</ele><time>2026-04-21T08:02:58.36Z</time></trkpt><trkpt lat="39.7047617" lon="8.6197917"><ele>11.0</ele><time>2026-04-21T08:02:59.359Z</time></trkpt><trkpt lat="39.7047067" lon="8.619725"><ele>11.0</ele><time>2026-04-21T08:03:00.359Z</time></trkpt><trkpt lat="39.7046517" lon="8.6196383"><ele>11.0</ele><time>2026-04-21T08:03:01.359Z</time></trkpt><trkpt lat="39.7046" lon="8.6195483"><ele>11.0</ele><time>2026-04-21T08:03:02.359Z</time></trkpt><trkpt lat="39.7045583" lon="8.619475"><ele>11.0</ele><time>2026-04-21T08:03:03.36Z</time></trkpt><trkpt lat="39.70449" lon="8.619345"><ele>11.0</ele><time>2026-04-21T08:03:05.359Z</time></trkpt><trkpt lat="39.7044233" lon="8.619245"><ele>10.8</ele><time>2026-04-21T08:03:07.36Z</time></trkpt><trkpt lat="39.7043567" lon="8.6191433"><ele>10.600000000000001</ele><time>2026-04-21T08:03:09.359Z</time></trkpt><trkpt lat="39.70429" lon="8.6190317"><ele>10.4</ele><time>2026-04-21T08:03:11.359Z</time></trkpt><trkpt lat="39.7042067" lon="8.6189167"><ele>10.2</ele><time>2026-04-21T08:03:13.359Z</time></trkpt><trkpt lat="39.7041567" lon="8.6188583"><ele>10.0</ele><time>2026-04-21T08:03:14.36Z</time></trkpt><trkpt lat="39.7041067" lon="8.6187967"><ele>10.0</ele><time>2026-04-21T08:03:15.359Z</time></trkpt><trkpt lat="39.7040533" lon="8.6187283"><ele>10.0</ele><time>2026-04-21T08:03:16.36Z</time></trkpt><trkpt lat="39.704" lon="8.618645"><ele>10.0</ele><time>2026-04-21T08:03:17.36Z</time></trkpt><trkpt lat="39.70395" lon="8.6185633"><ele>10.0</ele><time>2026-04-21T08:03:18.359Z</time></trkpt><trkpt lat="39.7039" lon="8.6184817"><ele>10.0</ele><time>2026-04-21T08:03:19.359Z</time></trkpt><trkpt lat="39.7038517" lon="8.6184"><ele>10.0</ele><time>2026-04-21T08:03:20.359Z</time></trkpt><trkpt lat="39.7038017" lon="8.6183017"><ele>10.0</ele><time>2026-04-21T08:03:21.36Z</time></trkpt><trkpt lat="39.7037517" lon="8.6182083"><ele>10.0</ele><time>2026-04-21T08:03:22.359Z</time></trkpt><trkpt lat="39.703705" lon="8.6181233"><ele>10.0</ele><time>2026-04-21T08:03:23.36Z</time></trkpt><trkpt lat="39.70366" lon="8.6180367"><ele>10.0</ele><time>2026-04-21T08:03:24.359Z</time></trkpt><trkpt lat="39.7036117" lon="8.6179533"><ele>10.0</ele><time>2026-04-21T08:03:25.36Z</time></trkpt><trkpt lat="39.7035583" lon="8.61788"><ele>10.0</ele><time>2026-04-21T08:03:26.36Z</time></trkpt><trkpt lat="39.70351" lon="8.6177967"><ele>10.0</ele><time>2026-04-21T08:03:27.36Z</time></trkpt><trkpt lat="39.7034667" lon="8.6177133"><ele>10.0</ele><time>2026-04-21T08:03:28.359Z</time></trkpt><trkpt lat="39.7034267" lon="8.6176333"><ele>10.0</ele><time>2026-04-21T08:03:29.359Z</time></trkpt><trkpt lat="39.7033833" lon="8.6175483"><ele>10.0</ele><time>2026-04-21T08:03:30.359Z</time></trkpt><trkpt lat="39.7033383" lon="8.6174517"><ele>10.0</ele><time>2026-04-21T08:03:31.36Z</time></trkpt><trkpt lat="39.7032967" lon="8.6173583"><ele>10.0</ele><time>2026-04-21T08:03:32.36Z</time></trkpt><trkpt lat="39.7032483" lon="8.6172683"><ele>10.0</ele><time>2026-04-21T08:03:33.359Z</time></trkpt><trkpt lat="39.7031983" lon="8.6171817"><ele>10.0</ele><time>2026-04-21T08:03:34.36Z</time></trkpt><trkpt lat="39.703145" lon="8.6170933"><ele>10.0</ele><time>2026-04-21T08:03:35.359Z</time></trkpt><trkpt lat="39.7030983" lon="8.617015"><ele>10.0</ele><time>2026-04-21T08:03:36.359Z</time></trkpt><trkpt lat="39.7030417" lon="8.6169317"><ele>10.0</ele><time>2026-04-21T08:03:37.36Z</time></trkpt><trkpt lat="39.70298" lon="8.6168517"><ele>10.0</ele><time>2026-04-21T08:03:38.359Z</time></trkpt><trkpt lat="39.7029183" lon="8.6167817"><ele>9.833333333333334</ele><time>2026-04-21T08:03:39.359Z</time></trkpt><trkpt lat="39.7028583" lon="8.61671"><ele>9.666666666666668</ele><time>2026-04-21T08:03:40.36Z</time></trkpt><trkpt lat="39.7028017" lon="8.616635"><ele>9.5</ele><time>2026-04-21T08:03:41.36Z</time></trkpt><trkpt lat="39.70274" lon="8.61657"><ele>9.333333333333334</ele><time>2026-04-21T08:03:42.36Z</time></trkpt><trkpt lat="39.70267" lon="8.6164967"><ele>9.166666666666666</ele><time>2026-04-21T08:03:43.36Z</time></trkpt><trkpt lat="39.7026167" lon="8.616425"><ele>9.0</ele><time>2026-04-21T08:03:44.359Z</time></trkpt><trkpt lat="39.7025383" lon="8.6163067"><ele>9.0</ele><time>2026-04-21T08:03:46.36Z</time></trkpt><trkpt lat="39.7024383" lon="8.6161933"><ele>9.0</ele><time>2026-04-21T08:03:48.36Z</time></trkpt><trkpt lat="39.7023833" lon="8.6161317"><ele>9.0</ele><time>2026-04-21T08:03:49.36Z</time></trkpt><trkpt lat="39.70233" lon="8.6160717"><ele>9.0</ele><time>2026-04-21T08:03:50.36Z</time></trkpt><trkpt lat="39.7022883" lon="8.6160067"><ele>9.0</ele><time>2026-04-21T08:03:51.359Z</time></trkpt><trkpt lat="39.7022167" lon="8.6158867"><ele>9.0</ele><time>2026-04-21T08:03:53.359Z</time></trkpt><trkpt lat="39.7021583" lon="8.6157883"><ele>9.0</ele><time>2026-04-21T08:03:55.36Z</time></trkpt><trkpt lat="39.702105" lon="8.6157067"><ele>9.0</ele><time>2026-04-21T08:03:57.359Z</time></trkpt><trkpt lat="39.7020633" lon="8.6156367"><ele>9.0</ele><time>2026-04-21T08:03:59.359Z</time></trkpt><trkpt lat="39.7020233" lon="8.6155667"><ele>9.0</ele><time>2026-04-21T08:04:01.36Z</time></trkpt><trkpt lat="39.7019417" lon="8.6154783"><ele>9.0</ele><time>2026-04-21T08:04:03.36Z</time></trkpt><trkpt lat="39.7018383" lon="8.615375"><ele>9.166666666666666</ele><time>2026-04-21T08:04:05.36Z</time></trkpt><trkpt lat="39.7017833" lon="8.61532"><ele>9.333333333333334</ele><time>2026-04-21T08:04:06.36Z</time></trkpt><trkpt lat="39.70173" lon="8.615265"><ele>9.5</ele><time>2026-04-21T08:04:07.36Z</time></trkpt><trkpt lat="39.70167" lon="8.6152067"><ele>9.666666666666668</ele><time>2026-04-21T08:04:08.359Z</time></trkpt><trkpt lat="39.7016117" lon="8.615155"><ele>9.833333333333334</ele><time>2026-04-21T08:04:09.36Z</time></trkpt><trkpt lat="39.70152" lon="8.6150683"><ele>10.0</ele><time>2026-04-21T08:04:11.359Z</time></trkpt><trkpt lat="39.7014233" lon="8.61498"><ele>10.0</ele><time>2026-04-21T08:04:13.36Z</time></trkpt><trkpt lat="39.7013717" lon="8.6149283"><ele>10.0</ele><time>2026-04-21T08:04:14.359Z</time></trkpt><trkpt lat="39.7013133" lon="8.6148767"><ele>10.0</ele><time>2026-04-21T08:04:15.36Z</time></trkpt><trkpt lat="39.70126" lon="8.6148233"><ele>10.0</ele><time>2026-04-21T08:04:16.36Z</time></trkpt><trkpt lat="39.7012017" lon="8.6147733"><ele>10.0</ele><time>2026-04-21T08:04:17.359Z</time></trkpt><trkpt lat="39.701145" lon="8.6147217"><ele>10.0</ele><time>2026-04-21T08:04:18.36Z</time></trkpt><trkpt lat="39.701045" lon="8.6146267"><ele>10.0</ele><time>2026-04-21T08:04:20.359Z</time></trkpt><trkpt lat="39.70099" lon="8.6145867"><ele>10.0</ele><time>2026-04-21T08:04:21.359Z</time></trkpt><trkpt lat="39.70088" lon="8.6144933"><ele>10.0</ele><time>2026-04-21T08:04:23.359Z</time></trkpt><trkpt lat="39.7008267" lon="8.6144283"><ele>10.0</ele><time>2026-04-21T08:04:24.359Z</time></trkpt><trkpt lat="39.700775" lon="8.6143567"><ele>10.0</ele><time>2026-04-21T08:04:25.359Z</time></trkpt><trkpt lat="39.7007333" lon="8.6142817"><ele>10.0</ele><time>2026-04-21T08:04:26.36Z</time></trkpt><trkpt lat="39.7006933" lon="8.6142083"><ele>10.0</ele><time>2026-04-21T08:04:27.36Z</time></trkpt><trkpt lat="39.7006283" lon="8.61408"><ele>10.0</ele><time>2026-04-21T08:04:29.36Z</time></trkpt><trkpt lat="39.70057" lon="8.6139717"><ele>10.0</ele><time>2026-04-21T08:04:31.359Z</time></trkpt><trkpt lat="39.7005167" lon="8.6138717"><ele>10.0</ele><time>2026-04-21T08:04:33.36Z</time></trkpt><trkpt lat="39.7004583" lon="8.613745"><ele>10.0</ele><time>2026-04-21T08:04:35.36Z</time></trkpt><trkpt lat="39.7003983" lon="8.6136233"><ele>10.0</ele><time>2026-04-21T08:04:37.359Z</time></trkpt><trkpt lat="39.70035" lon="8.613565"><ele>10.0</ele><time>2026-04-21T08:04:38.359Z</time></trkpt><trkpt lat="39.7003" lon="8.6135067"><ele>10.0</ele><time>2026-04-21T08:04:39.36Z</time></trkpt><trkpt lat="39.7002" lon="8.6134183"><ele>10.0</ele><time>2026-04-21T08:04:41.359Z</time></trkpt><trkpt lat="39.70011" lon="8.613355"><ele>10.0</ele><time>2026-04-21T08:04:43.36Z</time></trkpt><trkpt lat="39.700015" lon="8.6132767"><ele>9.6</ele><time>2026-04-21T08:04:45.36Z</time></trkpt><trkpt lat="39.6999183" lon="8.613205"><ele>9.2</ele><time>2026-04-21T08:04:47.359Z</time></trkpt><trkpt lat="39.69981" lon="8.613115"><ele>8.8</ele><time>2026-04-21T08:04:49.359Z</time></trkpt><trkpt lat="39.6997467" lon="8.6130633"><ele>8.4</ele><time>2026-04-21T08:04:50.359Z</time></trkpt><trkpt lat="39.699685" lon="8.6130117"><ele>8.0</ele><time>2026-04-21T08:04:51.359Z</time></trkpt><trkpt lat="39.6996167" lon="8.6129667"><ele>7.999999999999999</ele><time>2026-04-21T08:04:52.36Z</time></trkpt><trkpt lat="39.6995533" lon="8.6129167"><ele>8.0</ele><time>2026-04-21T08:04:53.359Z</time></trkpt><trkpt lat="39.6994967" lon="8.6128767"><ele>8.0</ele><time>2026-04-21T08:04:54.359Z</time></trkpt><trkpt lat="39.69944" lon="8.6128333"><ele>8.0</ele><time>2026-04-21T08:04:55.359Z</time></trkpt><trkpt lat="39.6993817" lon="8.6127967"><ele>7.999999999999999</ele><time>2026-04-21T08:04:56.36Z</time></trkpt><trkpt lat="39.6992933" lon="8.612725"><ele>8.0</ele><time>2026-04-21T08:04:58.36Z</time></trkpt><trkpt lat="39.6992" lon="8.612695"><ele>7.999999999999999</ele><time>2026-04-21T08:05:00.36Z</time></trkpt><trkpt lat="39.6991183" lon="8.6127583"><ele>8.0</ele><time>2026-04-21T08:05:02.359Z</time></trkpt><trkpt lat="39.6990233" lon="8.6128617"><ele>8.0</ele><time>2026-04-21T08:05:04.36Z</time></trkpt><trkpt lat="39.6989683" lon="8.6129033"><ele>8.0</ele><time>2026-04-21T08:05:05.359Z</time></trkpt><trkpt lat="39.6989083" lon="8.6129317"><ele>7.999999999999999</ele><time>2026-04-21T08:05:06.36Z</time></trkpt><trkpt lat="39.6988433" lon="8.612945"><ele>8.0</ele><time>2026-04-21T08:05:07.36Z</time></trkpt><trkpt lat="39.6987783" lon="8.612945"><ele>7.999999999999999</ele><time>2026-04-21T08:05:08.36Z</time></trkpt><trkpt lat="39.698715" lon="8.6129417"><ele>8.0</ele><time>2026-04-21T08:05:09.36Z</time></trkpt><trkpt lat="39.69865" lon="8.6129417"><ele>8.0</ele><time>2026-04-21T08:05:10.359Z</time></trkpt><trkpt lat="39.6985333" lon="8.6129617"><ele>8.0</ele><time>2026-04-21T08:05:12.36Z</time></trkpt><trkpt lat="39.6984767" lon="8.6130017"><ele>7.999999999999999</ele><time>2026-04-21T08:05:13.36Z</time></trkpt><trkpt lat="39.69838" lon="8.613085"><ele>8.0</ele><time>2026-04-21T08:05:15.36Z</time></trkpt><trkpt lat="39.6982817" lon="8.6131683"><ele>8.200000000000001</ele><time>2026-04-21T08:05:17.359Z</time></trkpt><trkpt lat="39.698165" lon="8.6132117"><ele>8.4</ele><time>2026-04-21T08:05:19.359Z</time></trkpt><trkpt lat="39.698055" lon="8.6131767"><ele>8.600000000000001</ele><time>2026-04-21T08:05:21.359Z</time></trkpt><trkpt lat="39.697945" lon="8.613145"><ele>8.8</ele><time>2026-04-21T08:05:23.359Z</time></trkpt><trkpt lat="39.697855" lon="8.6131233"><ele>9.0</ele><time>2026-04-21T08:05:25.36Z</time></trkpt><trkpt lat="39.697795" lon="8.6130883"><ele>9.166666666666666</ele><time>2026-04-21T08:05:27.36Z</time></trkpt><trkpt lat="39.69768" lon="8.6130433"><ele>9.333333333333334</ele><time>2026-04-21T08:05:57.359Z</time></trkpt><trkpt lat="39.6976117" lon="8.613025"><ele>9.5</ele><time>2026-04-21T08:05:58.36Z</time></trkpt><trkpt lat="39.6975333" lon="8.6130017"><ele>9.666666666666668</ele><time>2026-04-21T08:05:59.36Z</time></trkpt><trkpt lat="39.6974567" lon="8.6129783"><ele>9.833333333333334</ele><time>2026-04-21T08:06:00.36Z</time></trkpt><trkpt lat="39.697385" lon="8.6129633"><ele>10.0</ele><time>2026-04-21T08:06:01.36Z</time></trkpt><trkpt lat="39.69727" lon="8.61295"><ele>10.0</ele><time>2026-04-21T08:06:03.36Z</time></trkpt><trkpt lat="39.6971583" lon="8.612945"><ele>10.0</ele><time>2026-04-21T08:06:05.359Z</time></trkpt><trkpt lat="39.6970933" lon="8.6129483"><ele>10.0</ele><time>2026-04-21T08:06:06.36Z</time></trkpt><trkpt lat="39.6970167" lon="8.612955"><ele>10.0</ele><time>2026-04-21T08:06:07.36Z</time></trkpt><trkpt lat="39.6969433" lon="8.612965"><ele>10.0</ele><time>2026-04-21T08:06:08.36Z</time></trkpt><trkpt lat="39.6968333" lon="8.6129367"><ele>10.0</ele><time>2026-04-21T08:06:10.359Z</time></trkpt><trkpt lat="39.6967317" lon="8.6128583"><ele>9.666666666666668</ele><time>2026-04-21T08:06:12.359Z</time></trkpt><trkpt lat="39.6966767" lon="8.612795"><ele>9.333333333333334</ele><time>2026-04-21T08:06:13.359Z</time></trkpt><trkpt lat="39.6966217" lon="8.61272"><ele>9.0</ele><time>2026-04-21T08:06:14.36Z</time></trkpt><trkpt lat="39.69656" lon="8.61264"><ele>8.666666666666666</ele><time>2026-04-21T08:06:15.359Z</time></trkpt><trkpt lat="39.696495" lon="8.612555"><ele>8.333333333333332</ele><time>2026-04-21T08:06:16.359Z</time></trkpt><trkpt lat="39.6964383" lon="8.612485"><ele>8.0</ele><time>2026-04-21T08:06:17.36Z</time></trkpt><trkpt lat="39.6963833" lon="8.61242"><ele>7.999999999999999</ele><time>2026-04-21T08:06:18.359Z</time></trkpt><trkpt lat="39.696325" lon="8.6123433"><ele>8.0</ele><time>2026-04-21T08:06:19.36Z</time></trkpt><trkpt lat="39.6962633" lon="8.612265"><ele>8.0</ele><time>2026-04-21T08:06:20.359Z</time></trkpt><trkpt lat="39.6962067" lon="8.6121867"><ele>8.0</ele><time>2026-04-21T08:06:21.359Z</time></trkpt><trkpt lat="39.6961417" lon="8.612115"><ele>7.999999999999999</ele><time>2026-04-21T08:06:22.36Z</time></trkpt><trkpt lat="39.696065" lon="8.612035"><ele>8.0</ele><time>2026-04-21T08:06:23.359Z</time></trkpt><trkpt lat="39.6959883" lon="8.6119617"><ele>8.666666666666666</ele><time>2026-04-21T08:06:24.359Z</time></trkpt><trkpt lat="39.6959217" lon="8.611895"><ele>9.333333333333332</ele><time>2026-04-21T08:06:25.36Z</time></trkpt><trkpt lat="39.6958717" lon="8.6118333"><ele>10.0</ele><time>2026-04-21T08:06:26.359Z</time></trkpt><trkpt lat="39.6958267" lon="8.6117733"><ele>10.666666666666666</ele><time>2026-04-21T08:06:27.36Z</time></trkpt><trkpt lat="39.6957817" lon="8.6117033"><ele>11.333333333333334</ele><time>2026-04-21T08:06:28.36Z</time></trkpt><trkpt lat="39.69573" lon="8.6116183"><ele>12.0</ele><time>2026-04-21T08:06:29.359Z</time></trkpt><trkpt lat="39.69567" lon="8.61152"><ele>12.0</ele><time>2026-04-21T08:06:30.359Z</time></trkpt><trkpt lat="39.6955983" lon="8.611415"><ele>12.0</ele><time>2026-04-21T08:06:31.359Z</time></trkpt><trkpt lat="39.6955267" lon="8.6113017"><ele>12.0</ele><time>2026-04-21T08:06:32.36Z</time></trkpt><trkpt lat="39.6954417" lon="8.611185"><ele>12.0</ele><time>2026-04-21T08:06:33.36Z</time></trkpt><trkpt lat="39.695355" lon="8.61107"><ele>12.5</ele><time>2026-04-21T08:06:34.359Z</time></trkpt><trkpt lat="39.69527" lon="8.6109533"><ele>13.0</ele><time>2026-04-21T08:06:35.359Z</time></trkpt><trkpt lat="39.6951783" lon="8.6108417"><ele>13.5</ele><time>2026-04-21T08:06:36.359Z</time></trkpt><trkpt lat="39.6950917" lon="8.610725"><ele>14.0</ele><time>2026-04-21T08:06:37.359Z</time></trkpt><trkpt lat="39.6950117" lon="8.610625"><ele>14.000000000000002</ele><time>2026-04-21T08:06:38.36Z</time></trkpt><trkpt lat="39.6949433" lon="8.6105417"><ele>14.0</ele><time>2026-04-21T08:06:39.36Z</time></trkpt><trkpt lat="39.6948733" lon="8.6104667"><ele>14.0</ele><time>2026-04-21T08:06:40.359Z</time></trkpt><trkpt lat="39.69481" lon="8.6104017"><ele>14.0</ele><time>2026-04-21T08:06:41.36Z</time></trkpt><trkpt lat="39.694745" lon="8.6103283"><ele>14.000000000000002</ele><time>2026-04-21T08:06:42.36Z</time></trkpt><trkpt lat="39.6946867" lon="8.610265"><ele>14.0</ele><time>2026-04-21T08:06:43.359Z</time></trkpt><trkpt lat="39.694635" lon="8.6102117"><ele>13.6</ele><time>2026-04-21T08:06:44.359Z</time></trkpt><trkpt lat="39.6945667" lon="8.6101067"><ele>13.2</ele><time>2026-04-21T08:06:46.359Z</time></trkpt><trkpt lat="39.6945267" lon="8.610035"><ele>12.799999999999999</ele><time>2026-04-21T08:06:48.359Z</time></trkpt><trkpt lat="39.6944483" lon="8.61004"><ele>12.399999999999999</ele><time>2026-04-21T08:06:51.36Z</time></trkpt><trkpt lat="39.69438" lon="8.6101283"><ele>12.0</ele><time>2026-04-21T08:06:53.359Z</time></trkpt><trkpt lat="39.694315" lon="8.61024"><ele>11.6</ele><time>2026-04-21T08:06:55.36Z</time></trkpt><trkpt lat="39.6942167" lon="8.610355"><ele>11.2</ele><time>2026-04-21T08:06:57.36Z</time></trkpt><trkpt lat="39.6941517" lon="8.61042"><ele>10.8</ele><time>2026-04-21T08:06:58.36Z</time></trkpt><trkpt lat="39.6940883" lon="8.61049"><ele>10.4</ele><time>2026-04-21T08:06:59.36Z</time></trkpt><trkpt lat="39.6940233" lon="8.6105633"><ele>10.0</ele><time>2026-04-21T08:07:00.359Z</time></trkpt><trkpt lat="39.6939533" lon="8.6106417"><ele>10.0</ele><time>2026-04-21T08:07:01.36Z</time></trkpt><trkpt lat="39.693885" lon="8.610725"><ele>10.0</ele><time>2026-04-21T08:07:02.359Z</time></trkpt><trkpt lat="39.693825" lon="8.61081"><ele>10.0</ele><time>2026-04-21T08:07:03.359Z</time></trkpt><trkpt lat="39.6937767" lon="8.610895"><ele>10.0</ele><time>2026-04-21T08:07:04.359Z</time></trkpt><trkpt lat="39.69373" lon="8.610985"><ele>10.0</ele><time>2026-04-21T08:07:05.36Z</time></trkpt><trkpt lat="39.6936867" lon="8.6110833"><ele>10.0</ele><time>2026-04-21T08:07:06.36Z</time></trkpt><trkpt lat="39.69364" lon="8.61118"><ele>10.166666666666668</ele><time>2026-04-21T08:07:07.359Z</time></trkpt><trkpt lat="39.693595" lon="8.61128"><ele>10.333333333333334</ele><time>2026-04-21T08:07:08.359Z</time></trkpt><trkpt lat="39.693545" lon="8.61138"><ele>10.5</ele><time>2026-04-21T08:07:09.36Z</time></trkpt><trkpt lat="39.6934967" lon="8.6114817"><ele>10.666666666666666</ele><time>2026-04-21T08:07:10.36Z</time></trkpt><trkpt lat="39.6934467" lon="8.6115783"><ele>10.833333333333332</ele><time>2026-04-21T08:07:11.36Z</time></trkpt><trkpt lat="39.6934067" lon="8.61167"><ele>11.0</ele><time>2026-04-21T08:07:12.359Z</time></trkpt><trkpt lat="39.6933717" lon="8.6117517"><ele>10.666666666666666</ele><time>2026-04-21T08:07:13.359Z</time></trkpt><trkpt lat="39.69334" lon="8.611825"><ele>10.333333333333332</ele><time>2026-04-21T08:07:14.359Z</time></trkpt><trkpt lat="39.6933017" lon="8.6118933"><ele>10.0</ele><time>2026-04-21T08:07:15.36Z</time></trkpt><trkpt lat="39.6932617" lon="8.611965"><ele>9.666666666666666</ele><time>2026-04-21T08:07:16.359Z</time></trkpt><trkpt lat="39.6932267" lon="8.612035"><ele>9.333333333333334</ele><time>2026-04-21T08:07:17.36Z</time></trkpt><trkpt lat="39.6931617" lon="8.6121683"><ele>9.0</ele><time>2026-04-21T08:07:19.359Z</time></trkpt><trkpt lat="39.6931233" lon="8.61224"><ele>9.000000000000002</ele><time>2026-04-21T08:07:20.36Z</time></trkpt><trkpt lat="39.693085" lon="8.612315"><ele>9.0</ele><time>2026-04-21T08:07:21.36Z</time></trkpt><trkpt lat="39.693045" lon="8.61239"><ele>9.0</ele><time>2026-04-21T08:07:22.36Z</time></trkpt><trkpt lat="39.6930117" lon="8.6124683"><ele>9.0</ele><time>2026-04-21T08:07:23.359Z</time></trkpt><trkpt lat="39.69297" lon="8.612555"><ele>9.0</ele><time>2026-04-21T08:07:24.359Z</time></trkpt><trkpt lat="39.69293" lon="8.6126433"><ele>9.000000000000002</ele><time>2026-04-21T08:07:25.359Z</time></trkpt><trkpt lat="39.69289" lon="8.6127317"><ele>9.0</ele><time>2026-04-21T08:07:26.36Z</time></trkpt><trkpt lat="39.692845" lon="8.6128133"><ele>9.0</ele><time>2026-04-21T08:07:27.359Z</time></trkpt><trkpt lat="39.6928083" lon="8.6129017"><ele>9.0</ele><time>2026-04-21T08:07:28.359Z</time></trkpt><trkpt lat="39.6927667" lon="8.6129883"><ele>9.0</ele><time>2026-04-21T08:07:29.36Z</time></trkpt><trkpt lat="39.6927267" lon="8.6130717"><ele>9.0</ele><time>2026-04-21T08:07:30.36Z</time></trkpt><trkpt lat="39.6926867" lon="8.6131517"><ele>9.0</ele><time>2026-04-21T08:07:31.359Z</time></trkpt><trkpt lat="39.6926467" lon="8.61323"><ele>9.0</ele><time>2026-04-21T08:07:32.36Z</time></trkpt><trkpt lat="39.6926" lon="8.61331"><ele>9.166666666666666</ele><time>2026-04-21T08:07:33.359Z</time></trkpt><trkpt lat="39.6925567" lon="8.6133967"><ele>9.333333333333334</ele><time>2026-04-21T08:07:34.359Z</time></trkpt><trkpt lat="39.6925083" lon="8.6134883"><ele>9.5</ele><time>2026-04-21T08:07:35.359Z</time></trkpt><trkpt lat="39.6924633" lon="8.6135783"><ele>9.666666666666668</ele><time>2026-04-21T08:07:36.36Z</time></trkpt><trkpt lat="39.6924133" lon="8.6136683"><ele>9.833333333333334</ele><time>2026-04-21T08:07:37.36Z</time></trkpt><trkpt lat="39.6923683" lon="8.6137567"><ele>10.0</ele><time>2026-04-21T08:07:38.36Z</time></trkpt><trkpt lat="39.6923267" lon="8.6138417"><ele>10.0</ele><time>2026-04-21T08:07:39.36Z</time></trkpt><trkpt lat="39.6922833" lon="8.6139217"><ele>10.0</ele><time>2026-04-21T08:07:40.36Z</time></trkpt><trkpt lat="39.6922167" lon="8.6140217"><ele>10.0</ele><time>2026-04-21T08:07:42.359Z</time></trkpt><trkpt lat="39.6921483" lon="8.6140467"><ele>10.0</ele><time>2026-04-21T08:07:44.359Z</time></trkpt><trkpt lat="39.69206" lon="8.613985"><ele>10.0</ele><time>2026-04-21T08:07:46.359Z</time></trkpt><trkpt lat="39.6920017" lon="8.6139317"><ele>10.0</ele><time>2026-04-21T08:07:47.359Z</time></trkpt><trkpt lat="39.6919367" lon="8.6138783"><ele>9.833333333333334</ele><time>2026-04-21T08:07:48.36Z</time></trkpt><trkpt lat="39.691865" lon="8.6138267"><ele>9.666666666666668</ele><time>2026-04-21T08:07:49.359Z</time></trkpt><trkpt lat="39.6917883" lon="8.61377"><ele>9.5</ele><time>2026-04-21T08:07:50.359Z</time></trkpt><trkpt lat="39.691715" lon="8.6137117"><ele>9.333333333333334</ele><time>2026-04-21T08:07:51.359Z</time></trkpt><trkpt lat="39.6916467" lon="8.6136583"><ele>9.166666666666666</ele><time>2026-04-21T08:07:52.359Z</time></trkpt><trkpt lat="39.691575" lon="8.6136117"><ele>9.0</ele><time>2026-04-21T08:07:53.36Z</time></trkpt><trkpt lat="39.69151" lon="8.61356"><ele>9.000000000000002</ele><time>2026-04-21T08:07:54.36Z</time></trkpt><trkpt lat="39.69144" lon="8.6135183"><ele>9.0</ele><time>2026-04-21T08:07:55.36Z</time></trkpt><trkpt lat="39.6913717" lon="8.613475"><ele>9.0</ele><time>2026-04-21T08:07:56.36Z</time></trkpt><trkpt lat="39.6913017" lon="8.6134367"><ele>9.0</ele><time>2026-04-21T08:07:57.36Z</time></trkpt><trkpt lat="39.6912367" lon="8.6134033"><ele>9.0</ele><time>2026-04-21T08:07:58.36Z</time></trkpt><trkpt lat="39.69117" lon="8.613375"><ele>9.000000000000002</ele><time>2026-04-21T08:07:59.359Z</time></trkpt><trkpt lat="39.6910983" lon="8.6133517"><ele>9.0</ele><time>2026-04-21T08:08:00.359Z</time></trkpt><trkpt lat="39.6910333" lon="8.61333"><ele>9.0</ele><time>2026-04-21T08:08:01.359Z</time></trkpt><trkpt lat="39.690955" lon="8.6133083"><ele>9.0</ele><time>2026-04-21T08:08:02.36Z</time></trkpt><trkpt lat="39.6908817" lon="8.6132917"><ele>9.0</ele><time>2026-04-21T08:08:03.359Z</time></trkpt><trkpt lat="39.6908" lon="8.6132783"><ele>9.0</ele><time>2026-04-21T08:08:04.36Z</time></trkpt><trkpt lat="39.6907133" lon="8.61326"><ele>9.0</ele><time>2026-04-21T08:08:05.359Z</time></trkpt><trkpt lat="39.690615" lon="8.6132283"><ele>9.0</ele><time>2026-04-21T08:08:06.359Z</time></trkpt><trkpt lat="39.6905033" lon="8.6131917"><ele>9.0</ele><time>2026-04-21T08:08:07.359Z</time></trkpt><trkpt lat="39.690395" lon="8.6131433"><ele>9.0</ele><time>2026-04-21T08:08:08.359Z</time></trkpt><trkpt lat="39.6902883" lon="8.6131117"><ele>9.0</ele><time>2026-04-21T08:08:09.359Z</time></trkpt><trkpt lat="39.6901933" lon="8.6130767"><ele>9.0</ele><time>2026-04-21T08:08:10.359Z</time></trkpt><trkpt lat="39.690115" lon="8.6130433"><ele>9.0</ele><time>2026-04-21T08:08:11.36Z</time></trkpt><trkpt lat="39.6900467" lon="8.61301"><ele>8.8</ele><time>2026-04-21T08:08:12.36Z</time></trkpt><trkpt lat="39.6899817" lon="8.6129767"><ele>8.600000000000001</ele><time>2026-04-21T08:08:13.359Z</time></trkpt><trkpt lat="39.68989" lon="8.6129133"><ele>8.4</ele><time>2026-04-21T08:08:15.359Z</time></trkpt><trkpt lat="39.6898067" lon="8.61278"><ele>8.200000000000001</ele><time>2026-04-21T08:08:17.36Z</time></trkpt><trkpt lat="39.68975" lon="8.6127"><ele>8.0</ele><time>2026-04-21T08:08:18.36Z</time></trkpt><trkpt lat="39.6896783" lon="8.6126217"><ele>8.0</ele><time>2026-04-21T08:08:19.36Z</time></trkpt><trkpt lat="39.6895983" lon="8.61254"><ele>8.0</ele><time>2026-04-21T08:08:20.36Z</time></trkpt><trkpt lat="39.68951" lon="8.612465"><ele>8.0</ele><time>2026-04-21T08:08:21.36Z</time></trkpt><trkpt lat="39.6894117" lon="8.6123983"><ele>8.0</ele><time>2026-04-21T08:08:22.359Z</time></trkpt><trkpt lat="39.6893133" lon="8.612325"><ele>8.0</ele><time>2026-04-21T08:08:23.36Z</time></trkpt><trkpt lat="39.689205" lon="8.6122467"><ele>7.75</ele><time>2026-04-21T08:08:24.36Z</time></trkpt><trkpt lat="39.6890917" lon="8.6121733"><ele>7.5</ele><time>2026-04-21T08:08:25.36Z</time></trkpt><trkpt lat="39.6889817" lon="8.6121"><ele>7.25</ele><time>2026-04-21T08:08:26.36Z</time></trkpt><trkpt lat="39.6888683" lon="8.6120317"><ele>7.0</ele><time>2026-04-21T08:08:27.359Z</time></trkpt><trkpt lat="39.6887583" lon="8.6119617"><ele>6.75</ele><time>2026-04-21T08:08:28.359Z</time></trkpt><trkpt lat="39.688655" lon="8.6118917"><ele>6.5</ele><time>2026-04-21T08:08:29.36Z</time></trkpt><trkpt lat="39.6885533" lon="8.611815"><ele>6.25</ele><time>2026-04-21T08:08:30.36Z</time></trkpt><trkpt lat="39.6884617" lon="8.611725"><ele>6.0</ele><time>2026-04-21T08:08:31.359Z</time></trkpt><trkpt lat="39.6883717" lon="8.61164"><ele>5.8</ele><time>2026-04-21T08:08:32.36Z</time></trkpt><trkpt lat="39.6882917" lon="8.6115417"><ele>5.6</ele><time>2026-04-21T08:08:33.36Z</time></trkpt><trkpt lat="39.68822" lon="8.611435"><ele>5.4</ele><time>2026-04-21T08:08:34.36Z</time></trkpt><trkpt lat="39.688145" lon="8.6113267"><ele>5.2</ele><time>2026-04-21T08:08:35.359Z</time></trkpt><trkpt lat="39.6880733" lon="8.611235"><ele>5.0</ele><time>2026-04-21T08:08:36.36Z</time></trkpt><trkpt lat="39.6880067" lon="8.6111583"><ele>5.0</ele><time>2026-04-21T08:08:37.359Z</time></trkpt><trkpt lat="39.6879533" lon="8.61111"><ele>5.0</ele><time>2026-04-21T08:08:38.36Z</time></trkpt><trkpt lat="39.6878683" lon="8.61108"><ele>5.0</ele><time>2026-04-21T08:08:40.359Z</time></trkpt><trkpt lat="39.6878017" lon="8.6110617"><ele>5.0</ele><time>2026-04-21T08:08:42.36Z</time></trkpt><trkpt lat="39.6877583" lon="8.6109833"><ele>5.0</ele><time>2026-04-21T08:08:44.359Z</time></trkpt><trkpt lat="39.6877467" lon="8.6108767"><ele>5.0</ele><time>2026-04-21T08:08:46.36Z</time></trkpt><trkpt lat="39.68776" lon="8.6107317"><ele>5.0</ele><time>2026-04-21T08:08:48.359Z</time></trkpt><trkpt lat="39.687765" lon="8.6106383"><ele>5.0</ele><time>2026-04-21T08:08:49.359Z</time></trkpt><trkpt lat="39.687775" lon="8.6105383"><ele>5.0</ele><time>2026-04-21T08:08:50.36Z</time></trkpt><trkpt lat="39.6877833" lon="8.6104317"><ele>5.0</ele><time>2026-04-21T08:08:51.359Z</time></trkpt><trkpt lat="39.6877933" lon="8.6103217"><ele>5.0</ele><time>2026-04-21T08:08:52.359Z</time></trkpt><trkpt lat="39.6878067" lon="8.610215"><ele>5.0</ele><time>2026-04-21T08:08:53.359Z</time></trkpt><trkpt lat="39.6878217" lon="8.6100967"><ele>5.0</ele><time>2026-04-21T08:08:54.359Z</time></trkpt><trkpt lat="39.6878333" lon="8.6099917"><ele>5.0</ele><time>2026-04-21T08:08:55.359Z</time></trkpt><trkpt lat="39.687835" lon="8.6098967"><ele>5.0</ele><time>2026-04-21T08:08:56.359Z</time></trkpt><trkpt lat="39.6878217" lon="8.609815"><ele>5.0</ele><time>2026-04-21T08:08:57.359Z</time></trkpt><trkpt lat="39.6877567" lon="8.6096967"><ele>5.0</ele><time>2026-04-21T08:08:59.359Z</time></trkpt><trkpt lat="39.6876883" lon="8.60965"><ele>5.0</ele><time>2026-04-21T08:09:01.36Z</time></trkpt><trkpt lat="39.6875867" lon="8.6096083"><ele>4.666666666666667</ele><time>2026-04-21T08:09:03.359Z</time></trkpt><trkpt lat="39.68751" lon="8.6095933"><ele>4.333333333333334</ele><time>2026-04-21T08:09:04.359Z</time></trkpt><trkpt lat="39.6874267" lon="8.6095767"><ele>4.0</ele><time>2026-04-21T08:09:05.359Z</time></trkpt><trkpt lat="39.68735" lon="8.6095617"><ele>3.666666666666667</ele><time>2026-04-21T08:09:06.36Z</time></trkpt><trkpt lat="39.68728" lon="8.609545"><ele>3.3333333333333335</ele><time>2026-04-21T08:09:07.359Z</time></trkpt><trkpt lat="39.6872083" lon="8.6095283"><ele>3.0</ele><time>2026-04-21T08:09:08.36Z</time></trkpt><trkpt lat="39.6871367" lon="8.60951"><ele>3.0</ele><time>2026-04-21T08:09:09.359Z</time></trkpt><trkpt lat="39.6870667" lon="8.609485"><ele>3.0</ele><time>2026-04-21T08:09:10.36Z</time></trkpt><trkpt lat="39.6869867" lon="8.6094667"><ele>3.0</ele><time>2026-04-21T08:09:11.359Z</time></trkpt><trkpt lat="39.6869083" lon="8.6094517"><ele>3.0</ele><time>2026-04-21T08:09:12.36Z</time></trkpt><trkpt lat="39.68682" lon="8.60943"><ele>3.0</ele><time>2026-04-21T08:09:13.359Z</time></trkpt><trkpt lat="39.68673" lon="8.6094067"><ele>3.0</ele><time>2026-04-21T08:09:14.359Z</time></trkpt><trkpt lat="39.686645" lon="8.60939"><ele>3.0</ele><time>2026-04-21T08:09:15.359Z</time></trkpt><trkpt lat="39.6865683" lon="8.6093733"><ele>3.0</ele><time>2026-04-21T08:09:16.36Z</time></trkpt><trkpt lat="39.686505" lon="8.6093633"><ele>3.0</ele><time>2026-04-21T08:09:17.36Z</time></trkpt><trkpt lat="39.6863967" lon="8.60939"><ele>3.0</ele><time>2026-04-21T08:09:19.359Z</time></trkpt><trkpt lat="39.6863117" lon="8.609495"><ele>3.0</ele><time>2026-04-21T08:09:21.359Z</time></trkpt><trkpt lat="39.6862817" lon="8.60958"><ele>3.0</ele><time>2026-04-21T08:09:22.359Z</time></trkpt><trkpt lat="39.6862533" lon="8.6096817"><ele>3.0</ele><time>2026-04-21T08:09:23.359Z</time></trkpt><trkpt lat="39.6862333" lon="8.6097933"><ele>3.0</ele><time>2026-04-21T08:09:24.359Z</time></trkpt><trkpt lat="39.6862083" lon="8.6099117"><ele>3.0</ele><time>2026-04-21T08:09:25.36Z</time></trkpt><trkpt lat="39.6861833" lon="8.6100217"><ele>3.0</ele><time>2026-04-21T08:09:26.36Z</time></trkpt><trkpt lat="39.6861617" lon="8.61011"><ele>3.0</ele><time>2026-04-21T08:09:27.359Z</time></trkpt><trkpt lat="39.6861067" lon="8.610225"><ele>3.0</ele><time>2026-04-21T08:09:29.359Z</time></trkpt><trkpt lat="39.6860117" lon="8.6102467"><ele>3.3333333333333335</ele><time>2026-04-21T08:09:31.36Z</time></trkpt><trkpt lat="39.6859483" lon="8.6102267"><ele>3.666666666666667</ele><time>2026-04-21T08:09:32.36Z</time></trkpt><trkpt lat="39.6858667" lon="8.6101933"><ele>4.0</ele><time>2026-04-21T08:09:33.36Z</time></trkpt><trkpt lat="39.6857717" lon="8.6101633"><ele>4.333333333333334</ele><time>2026-04-21T08:09:34.359Z</time></trkpt><trkpt lat="39.6856783" lon="8.6101383"><ele>4.666666666666667</ele><time>2026-04-21T08:09:35.359Z</time></trkpt><trkpt lat="39.685595" lon="8.6101167"><ele>5.0</ele><time>2026-04-21T08:09:36.359Z</time></trkpt><trkpt lat="39.685515" lon="8.6101033"><ele>5.0</ele><time>2026-04-21T08:09:37.36Z</time></trkpt><trkpt lat="39.6854283" lon="8.6100967"><ele>5.0</ele><time>2026-04-21T08:09:38.36Z</time></trkpt><trkpt lat="39.6853383" lon="8.6100883"><ele>5.0</ele><time>2026-04-21T08:09:39.36Z</time></trkpt><trkpt lat="39.6852367" lon="8.6100783"><ele>5.0</ele><time>2026-04-21T08:09:40.359Z</time></trkpt><trkpt lat="39.6851333" lon="8.6100733"><ele>5.0</ele><time>2026-04-21T08:09:41.36Z</time></trkpt><trkpt lat="39.685035" lon="8.61007"><ele>5.166666666666667</ele><time>2026-04-21T08:09:42.36Z</time></trkpt><trkpt lat="39.6849433" lon="8.6100633"><ele>5.333333333333334</ele><time>2026-04-21T08:09:43.36Z</time></trkpt><trkpt lat="39.684855" lon="8.61005"><ele>5.5</ele><time>2026-04-21T08:09:44.359Z</time></trkpt><trkpt lat="39.684765" lon="8.6100367"><ele>5.666666666666667</ele><time>2026-04-21T08:09:45.36Z</time></trkpt><trkpt lat="39.6846767" lon="8.61003"><ele>5.833333333333333</ele><time>2026-04-21T08:09:46.36Z</time></trkpt><trkpt lat="39.6845883" lon="8.6100183"><ele>6.0</ele><time>2026-04-21T08:09:47.36Z</time></trkpt><trkpt lat="39.684495" lon="8.6100067"><ele>5.833333333333333</ele><time>2026-04-21T08:09:48.36Z</time></trkpt><trkpt lat="39.684405" lon="8.6099983"><ele>5.666666666666667</ele><time>2026-04-21T08:09:49.36Z</time></trkpt><trkpt lat="39.684315" lon="8.6099867"><ele>5.5</ele><time>2026-04-21T08:09:50.359Z</time></trkpt><trkpt lat="39.684225" lon="8.6099783"><ele>5.333333333333334</ele><time>2026-04-21T08:09:51.36Z</time></trkpt><trkpt lat="39.68414" lon="8.6099733"><ele>5.166666666666667</ele><time>2026-04-21T08:09:52.359Z</time></trkpt><trkpt lat="39.6840567" lon="8.6099583"><ele>5.0</ele><time>2026-04-21T08:09:53.36Z</time></trkpt><trkpt lat="39.6839667" lon="8.6099483"><ele>5.0</ele><time>2026-04-21T08:09:54.359Z</time></trkpt><trkpt lat="39.6838817" lon="8.60994"><ele>5.0</ele><time>2026-04-21T08:09:55.359Z</time></trkpt><trkpt lat="39.683795" lon="8.609935"><ele>5.0</ele><time>2026-04-21T08:09:56.359Z</time></trkpt><trkpt lat="39.6837083" lon="8.6099283"><ele>5.0</ele><time>2026-04-21T08:09:57.36Z</time></trkpt><trkpt lat="39.6836317" lon="8.609925"><ele>5.0</ele><time>2026-04-21T08:09:58.359Z</time></trkpt><trkpt lat="39.683565" lon="8.6099183"><ele>5.0</ele><time>2026-04-21T08:09:59.359Z</time></trkpt><trkpt lat="39.683465" lon="8.6098733"><ele>5.0</ele><time>2026-04-21T08:10:01.36Z</time></trkpt><trkpt lat="39.6833983" lon="8.6097917"><ele>5.0</ele><time>2026-04-21T08:10:03.36Z</time></trkpt><trkpt lat="39.6833883" lon="8.6096667"><ele>5.0</ele><time>2026-04-21T08:10:05.359Z</time></trkpt><trkpt lat="39.6833983" lon="8.6095367"><ele>5.0</ele><time>2026-04-21T08:10:07.359Z</time></trkpt><trkpt lat="39.6834133" lon="8.609385"><ele>5.0</ele><time>2026-04-21T08:10:09.36Z</time></trkpt><trkpt lat="39.6833917" lon="8.60925"><ele>5.0</ele><time>2026-04-21T08:10:11.36Z</time></trkpt><trkpt lat="39.6833333" lon="8.6091667"><ele>5.0</ele><time>2026-04-21T08:10:13.359Z</time></trkpt><trkpt lat="39.68323" lon="8.6091233"><ele>5.0</ele><time>2026-04-21T08:10:15.36Z</time></trkpt><trkpt lat="39.6831133" lon="8.609085"><ele>5.0</ele><time>2026-04-21T08:10:17.36Z</time></trkpt><trkpt lat="39.6829817" lon="8.6091033"><ele>5.0</ele><time>2026-04-21T08:10:19.36Z</time></trkpt><trkpt lat="39.6829067" lon="8.60914"><ele>5.0</ele><time>2026-04-21T08:10:20.36Z</time></trkpt><trkpt lat="39.6828283" lon="8.6091967"><ele>5.0</ele><time>2026-04-21T08:10:21.36Z</time></trkpt><trkpt lat="39.6827417" lon="8.6092633"><ele>5.0</ele><time>2026-04-21T08:10:22.36Z</time></trkpt><trkpt lat="39.6826467" lon="8.60934"><ele>5.0</ele><time>2026-04-21T08:10:23.359Z</time></trkpt><trkpt lat="39.6825583" lon="8.60941"><ele>5.0</ele><time>2026-04-21T08:10:24.359Z</time></trkpt><trkpt lat="39.6824783" lon="8.6094767"><ele>5.166666666666667</ele><time>2026-04-21T08:10:25.359Z</time></trkpt><trkpt lat="39.6823967" lon="8.6095233"><ele>5.333333333333334</ele><time>2026-04-21T08:10:26.36Z</time></trkpt><trkpt lat="39.682315" lon="8.60955"><ele>5.5</ele><time>2026-04-21T08:10:27.36Z</time></trkpt><trkpt lat="39.6822267" lon="8.6095633"><ele>5.666666666666667</ele><time>2026-04-21T08:10:28.359Z</time></trkpt><trkpt lat="39.6821367" lon="8.6095683"><ele>5.833333333333333</ele><time>2026-04-21T08:10:29.359Z</time></trkpt><trkpt lat="39.6820417" lon="8.60957"><ele>6.0</ele><time>2026-04-21T08:10:30.36Z</time></trkpt><trkpt lat="39.6819367" lon="8.6095783"><ele>6.199999999999999</ele><time>2026-04-21T08:10:31.36Z</time></trkpt><trkpt lat="39.681825" lon="8.6095917"><ele>6.3999999999999995</ele><time>2026-04-21T08:10:32.36Z</time></trkpt><trkpt lat="39.6817233" lon="8.6096017"><ele>6.6</ele><time>2026-04-21T08:10:33.36Z</time></trkpt><trkpt lat="39.6816283" lon="8.6096167"><ele>6.8</ele><time>2026-04-21T08:10:34.359Z</time></trkpt><trkpt lat="39.6815417" lon="8.609625"><ele>7.0</ele><time>2026-04-21T08:10:35.359Z</time></trkpt><trkpt lat="39.6814667" lon="8.6096417"><ele>7.0</ele><time>2026-04-21T08:10:36.359Z</time></trkpt><trkpt lat="39.6813867" lon="8.6096533"><ele>6.999999999999999</ele><time>2026-04-21T08:10:37.36Z</time></trkpt><trkpt lat="39.6812917" lon="8.6096817"><ele>6.999999999999999</ele><time>2026-04-21T08:10:38.36Z</time></trkpt><trkpt lat="39.6811933" lon="8.6097067"><ele>7.0</ele><time>2026-04-21T08:10:39.36Z</time></trkpt><trkpt lat="39.6810917" lon="8.6097333"><ele>7.0</ele><time>2026-04-21T08:10:40.36Z</time></trkpt><trkpt lat="39.6809867" lon="8.60977"><ele>7.199999999999999</ele><time>2026-04-21T08:10:41.36Z</time></trkpt><trkpt lat="39.6808833" lon="8.609815"><ele>7.3999999999999995</ele><time>2026-04-21T08:10:42.359Z</time></trkpt><trkpt lat="39.6807767" lon="8.6098517"><ele>7.6000000000000005</ele><time>2026-04-21T08:10:43.359Z</time></trkpt><trkpt lat="39.6806783" lon="8.60988"><ele>7.800000000000001</ele><time>2026-04-21T08:10:44.36Z</time></trkpt><trkpt lat="39.6805833" lon="8.6099083"><ele>8.0</ele><time>2026-04-21T08:10:45.36Z</time></trkpt><trkpt lat="39.6804917" lon="8.6099367"><ele>7.999999999999999</ele><time>2026-04-21T08:10:46.359Z</time></trkpt><trkpt lat="39.6804017" lon="8.6099683"><ele>8.0</ele><time>2026-04-21T08:10:47.36Z</time></trkpt><trkpt lat="39.680315" lon="8.6100067"><ele>8.0</ele><time>2026-04-21T08:10:48.36Z</time></trkpt><trkpt lat="39.6802333" lon="8.6100583"><ele>8.0</ele><time>2026-04-21T08:10:49.36Z</time></trkpt><trkpt lat="39.6801567" lon="8.6101017"><ele>7.999999999999999</ele><time>2026-04-21T08:10:50.36Z</time></trkpt><trkpt lat="39.6800767" lon="8.6101467"><ele>8.0</ele><time>2026-04-21T08:10:51.359Z</time></trkpt><trkpt lat="39.6799917" lon="8.610175"><ele>7.800000000000001</ele><time>2026-04-21T08:10:52.36Z</time></trkpt><trkpt lat="39.6798967" lon="8.610195"><ele>7.6000000000000005</ele><time>2026-04-21T08:10:53.36Z</time></trkpt><trkpt lat="39.6797883" lon="8.6102167"><ele>7.3999999999999995</ele><time>2026-04-21T08:10:54.36Z</time></trkpt><trkpt lat="39.6796783" lon="8.6102333"><ele>7.199999999999999</ele><time>2026-04-21T08:10:55.359Z</time></trkpt><trkpt lat="39.6795667" lon="8.610255"><ele>7.0</ele><time>2026-04-21T08:10:56.359Z</time></trkpt><trkpt lat="39.6794633" lon="8.6102817"><ele>7.166666666666667</ele><time>2026-04-21T08:10:57.359Z</time></trkpt><trkpt lat="39.6793767" lon="8.6103133"><ele>7.333333333333334</ele><time>2026-04-21T08:10:58.358Z</time></trkpt><trkpt lat="39.6792967" lon="8.6103483"><ele>7.5</ele><time>2026-04-21T08:10:59.359Z</time></trkpt><trkpt lat="39.67923" lon="8.6103783"><ele>7.666666666666666</ele><time>2026-04-21T08:11:00.359Z</time></trkpt><trkpt lat="39.67917" lon="8.610405"><ele>7.833333333333333</ele><time>2026-04-21T08:11:01.359Z</time></trkpt><trkpt lat="39.67911" lon="8.6104333"><ele>8.0</ele><time>2026-04-21T08:11:02.358Z</time></trkpt><trkpt lat="39.6789917" lon="8.6104833"><ele>8.0</ele><time>2026-04-21T08:11:04.358Z</time></trkpt><trkpt lat="39.67893" lon="8.6105083"><ele>8.0</ele><time>2026-04-21T08:11:05.358Z</time></trkpt><trkpt lat="39.6788183" lon="8.6105683"><ele>8.0</ele><time>2026-04-21T08:11:07.359Z</time></trkpt><trkpt lat="39.6787267" lon="8.61061"><ele>8.0</ele><time>2026-04-21T08:11:09.359Z</time></trkpt><trkpt lat="39.67862" lon="8.610675"><ele>8.0</ele><time>2026-04-21T08:11:11.358Z</time></trkpt><trkpt lat="39.6785283" lon="8.6107117"><ele>7.999999999999999</ele><time>2026-04-21T08:11:13.358Z</time></trkpt><trkpt lat="39.678435" lon="8.6107367"><ele>8.0</ele><time>2026-04-21T08:11:15.358Z</time></trkpt><trkpt lat="39.678355" lon="8.61075"><ele>8.0</ele><time>2026-04-21T08:11:18.358Z</time></trkpt><trkpt lat="39.67828" lon="8.61076"><ele>8.0</ele><time>2026-04-21T08:11:21.359Z</time></trkpt><trkpt lat="39.6782" lon="8.6107517"><ele>7.999999999999999</ele><time>2026-04-21T08:11:24.359Z</time></trkpt><trkpt lat="39.6781133" lon="8.6107567"><ele>8.0</ele><time>2026-04-21T08:11:27.359Z</time></trkpt><trkpt lat="39.6780333" lon="8.6107817"><ele>7.999999999999999</ele><time>2026-04-21T08:11:30.358Z</time></trkpt><trkpt lat="39.67795" lon="8.6108083"><ele>8.0</ele><time>2026-04-21T08:11:33.358Z</time></trkpt><trkpt lat="39.6778633" lon="8.6108317"><ele>8.0</ele><time>2026-04-21T08:11:36.359Z</time></trkpt><trkpt lat="39.677775" lon="8.610855"><ele>8.0</ele><time>2026-04-21T08:11:39.359Z</time></trkpt><trkpt lat="39.6777067" lon="8.61088"><ele>7.999999999999999</ele><time>2026-04-21T08:11:41.359Z</time></trkpt><trkpt lat="39.6776133" lon="8.61091"><ele>8.0</ele><time>2026-04-21T08:11:44.358Z</time></trkpt><trkpt lat="39.6775283" lon="8.6109467"><ele>8.0</ele><time>2026-04-21T08:11:47.359Z</time></trkpt><trkpt lat="39.6774667" lon="8.6109733"><ele>7.999999999999999</ele><time>2026-04-21T08:11:49.358Z</time></trkpt><trkpt lat="39.6774033" lon="8.611005"><ele>8.0</ele><time>2026-04-21T08:11:51.359Z</time></trkpt><trkpt lat="39.6773383" lon="8.6110417"><ele>8.0</ele><time>2026-04-21T08:11:53.358Z</time></trkpt><trkpt lat="39.677275" lon="8.6110617"><ele>7.999999999999999</ele><time>2026-04-21T08:11:55.359Z</time></trkpt><trkpt lat="39.677185" lon="8.6110767"><ele>8.0</ele><time>2026-04-21T08:11:58.359Z</time></trkpt><trkpt lat="39.6771183" lon="8.6111017"><ele>8.0</ele><time>2026-04-21T08:12:00.359Z</time></trkpt><trkpt lat="39.6770317" lon="8.6111317"><ele>7.999999999999999</ele><time>2026-04-21T08:12:03.359Z</time></trkpt><trkpt lat="39.67697" lon="8.6111567"><ele>8.0</ele><time>2026-04-21T08:12:05.359Z</time></trkpt><trkpt lat="39.6768983" lon="8.6112017"><ele>8.0</ele><time>2026-04-21T08:12:08.359Z</time></trkpt><trkpt lat="39.67683" lon="8.6112567"><ele>8.0</ele><time>2026-04-21T08:12:11.358Z</time></trkpt><trkpt lat="39.6767433" lon="8.6113117"><ele>7.999999999999999</ele><time>2026-04-21T08:12:14.359Z</time></trkpt><trkpt lat="39.6766383" lon="8.6113417"><ele>8.0</ele><time>2026-04-21T08:12:16.358Z</time></trkpt><trkpt lat="39.6765783" lon="8.6113717"><ele>8.0</ele><time>2026-04-21T08:12:17.359Z</time></trkpt><trkpt lat="39.67651" lon="8.61141"><ele>8.0</ele><time>2026-04-21T08:12:18.359Z</time></trkpt><trkpt lat="39.67643" lon="8.6114667"><ele>8.0</ele><time>2026-04-21T08:12:19.358Z</time></trkpt><trkpt lat="39.676345" lon="8.61153"><ele>8.0</ele><time>2026-04-21T08:12:20.359Z</time></trkpt><trkpt lat="39.6762617" lon="8.6116067"><ele>8.0</ele><time>2026-04-21T08:12:21.358Z</time></trkpt><trkpt lat="39.6761817" lon="8.6116917"><ele>8.0</ele><time>2026-04-21T08:12:22.359Z</time></trkpt><trkpt lat="39.6761" lon="8.6117867"><ele>8.0</ele><time>2026-04-21T08:12:23.358Z</time></trkpt><trkpt lat="39.6760117" lon="8.61188"><ele>8.0</ele><time>2026-04-21T08:12:24.359Z</time></trkpt><trkpt lat="39.6759067" lon="8.6119733"><ele>8.0</ele><time>2026-04-21T08:12:25.359Z</time></trkpt><trkpt lat="39.6757967" lon="8.6120733"><ele>8.0</ele><time>2026-04-21T08:12:26.358Z</time></trkpt><trkpt lat="39.6756867" lon="8.6121783"><ele>8.0</ele><time>2026-04-21T08:12:27.359Z</time></trkpt><trkpt lat="39.6755783" lon="8.6122883"><ele>8.0</ele><time>2026-04-21T08:12:28.358Z</time></trkpt><trkpt lat="39.6754683" lon="8.6123917"><ele>8.0</ele><time>2026-04-21T08:12:29.359Z</time></trkpt><trkpt lat="39.675365" lon="8.612495"><ele>8.0</ele><time>2026-04-21T08:12:30.359Z</time></trkpt><trkpt lat="39.67527" lon="8.6126"><ele>8.0</ele><time>2026-04-21T08:12:31.359Z</time></trkpt><trkpt lat="39.6751833" lon="8.612695"><ele>8.0</ele><time>2026-04-21T08:12:32.358Z</time></trkpt><trkpt lat="39.6750933" lon="8.6127817"><ele>8.0</ele><time>2026-04-21T08:12:33.359Z</time></trkpt><trkpt lat="39.6750117" lon="8.612845"><ele>8.0</ele><time>2026-04-21T08:12:34.359Z</time></trkpt><trkpt lat="39.6749183" lon="8.6128917"><ele>8.0</ele><time>2026-04-21T08:12:35.358Z</time></trkpt><trkpt lat="39.67482" lon="8.6129217"><ele>8.0</ele><time>2026-04-21T08:12:36.359Z</time></trkpt><trkpt lat="39.6747233" lon="8.6129633"><ele>8.0</ele><time>2026-04-21T08:12:37.359Z</time></trkpt><trkpt lat="39.674635" lon="8.6130183"><ele>8.0</ele><time>2026-04-21T08:12:38.359Z</time></trkpt><trkpt lat="39.6745567" lon="8.6130867"><ele>8.0</ele><time>2026-04-21T08:12:39.359Z</time></trkpt><trkpt lat="39.6745017" lon="8.613165"><ele>8.0</ele><time>2026-04-21T08:12:40.359Z</time></trkpt><trkpt lat="39.6744483" lon="8.61325"><ele>8.0</ele><time>2026-04-21T08:12:41.359Z</time></trkpt><trkpt lat="39.6743983" lon="8.6133183"><ele>8.0</ele><time>2026-04-21T08:12:42.359Z</time></trkpt><trkpt lat="39.6743283" lon="8.6133933"><ele>8.0</ele><time>2026-04-21T08:12:44.358Z</time></trkpt><trkpt lat="39.6743017" lon="8.613295"><ele>8.0</ele><time>2026-04-21T08:12:48.358Z</time></trkpt><trkpt lat="39.6742667" lon="8.6131067"><ele>8.4</ele><time>2026-04-21T08:12:50.359Z</time></trkpt><trkpt lat="39.6742367" lon="8.61299"><ele>8.8</ele><time>2026-04-21T08:12:51.358Z</time></trkpt><trkpt lat="39.674185" lon="8.6128783"><ele>9.2</ele><time>2026-04-21T08:12:52.359Z</time></trkpt><trkpt lat="39.6741133" lon="8.6127633"><ele>9.6</ele><time>2026-04-21T08:12:53.358Z</time></trkpt><trkpt lat="39.6740117" lon="8.6126483"><ele>10.0</ele><time>2026-04-21T08:12:54.359Z</time></trkpt><trkpt lat="39.6738933" lon="8.6125383"><ele>10.0</ele><time>2026-04-21T08:12:55.359Z</time></trkpt><trkpt lat="39.6737667" lon="8.6124217"><ele>10.0</ele><time>2026-04-21T08:12:56.359Z</time></trkpt><trkpt lat="39.6736333" lon="8.61231"><ele>10.0</ele><time>2026-04-21T08:12:57.359Z</time></trkpt><trkpt lat="39.6735" lon="8.6121933"><ele>10.0</ele><time>2026-04-21T08:12:58.359Z</time></trkpt><trkpt lat="39.673375" lon="8.6120783"><ele>10.0</ele><time>2026-04-21T08:12:59.358Z</time></trkpt><trkpt lat="39.67325" lon="8.6119517"><ele>10.0</ele><time>2026-04-21T08:13:00.359Z</time></trkpt><trkpt lat="39.673125" lon="8.6118367"><ele>10.0</ele><time>2026-04-21T08:13:01.359Z</time></trkpt><trkpt lat="39.673" lon="8.6117183"><ele>10.0</ele><time>2026-04-21T08:13:02.358Z</time></trkpt><trkpt lat="39.6728783" lon="8.6116017"><ele>10.0</ele><time>2026-04-21T08:13:03.358Z</time></trkpt><trkpt lat="39.6727667" lon="8.61149"><ele>10.0</ele><time>2026-04-21T08:13:04.359Z</time></trkpt><trkpt lat="39.672655" lon="8.6113967"><ele>10.25</ele><time>2026-04-21T08:13:05.359Z</time></trkpt><trkpt lat="39.6725567" lon="8.611305"><ele>10.5</ele><time>2026-04-21T08:13:06.358Z</time></trkpt><trkpt lat="39.672465" lon="8.6112217"><ele>10.75</ele><time>2026-04-21T08:13:07.359Z</time></trkpt><trkpt lat="39.6723767" lon="8.61114"><ele>11.0</ele><time>2026-04-21T08:13:08.358Z</time></trkpt><trkpt lat="39.672275" lon="8.611045"><ele>11.0</ele><time>2026-04-21T08:13:09.358Z</time></trkpt><trkpt lat="39.6721667" lon="8.6109383"><ele>11.0</ele><time>2026-04-21T08:13:10.359Z</time></trkpt><trkpt lat="39.6720567" lon="8.6108283"><ele>11.0</ele><time>2026-04-21T08:13:11.359Z</time></trkpt><trkpt lat="39.671935" lon="8.6107117"><ele>11.0</ele><time>2026-04-21T08:13:12.359Z</time></trkpt><trkpt lat="39.6718117" lon="8.6105833"><ele>12.0</ele><time>2026-04-21T08:13:13.359Z</time></trkpt><trkpt lat="39.671685" lon="8.6104433"><ele>13.0</ele><time>2026-04-21T08:13:14.358Z</time></trkpt><trkpt lat="39.6715533" lon="8.6102967"><ele>14.0</ele><time>2026-04-21T08:13:15.359Z</time></trkpt><trkpt lat="39.671415" lon="8.610145"><ele>14.0</ele><time>2026-04-21T08:13:16.359Z</time></trkpt><trkpt lat="39.671285" lon="8.6099867"><ele>14.0</ele><time>2026-04-21T08:13:17.359Z</time></trkpt><trkpt lat="39.67115" lon="8.6098267"><ele>14.0</ele><time>2026-04-21T08:13:18.358Z</time></trkpt><trkpt lat="39.6710183" lon="8.6096917"><ele>15.0</ele><time>2026-04-21T08:13:19.359Z</time></trkpt><trkpt lat="39.6708983" lon="8.6095517"><ele>16.0</ele><time>2026-04-21T08:13:20.358Z</time></trkpt><trkpt lat="39.6707833" lon="8.609405"><ele>17.0</ele><time>2026-04-21T08:13:21.359Z</time></trkpt><trkpt lat="39.6706683" lon="8.60926"><ele>17.25</ele><time>2026-04-21T08:13:22.359Z</time></trkpt><trkpt lat="39.670565" lon="8.6091117"><ele>17.5</ele><time>2026-04-21T08:13:23.359Z</time></trkpt><trkpt lat="39.6704767" lon="8.60898"><ele>17.75</ele><time>2026-04-21T08:13:24.359Z</time></trkpt><trkpt lat="39.6704183" lon="8.608865"><ele>18.0</ele><time>2026-04-21T08:13:25.358Z</time></trkpt><trkpt lat="39.6703867" lon="8.6087733"><ele>18.0</ele><time>2026-04-21T08:13:26.359Z</time></trkpt><trkpt lat="39.6703617" lon="8.608665"><ele>18.0</ele><time>2026-04-21T08:13:28.359Z</time></trkpt><trkpt lat="39.6703833" lon="8.6087667"><ele>18.0</ele><time>2026-04-21T08:13:40.358Z</time></trkpt><trkpt lat="39.6703983" lon="8.6088617"><ele>18.0</ele><time>2026-04-21T08:13:43.359Z</time></trkpt><trkpt lat="39.6703033" lon="8.608855"><ele>18.0</ele><time>2026-04-21T08:13:46.358Z</time></trkpt><trkpt lat="39.6702067" lon="8.608795"><ele>18.0</ele><time>2026-04-21T08:13:48.359Z</time></trkpt><trkpt lat="39.6701" lon="8.6087317"><ele>17.8</ele><time>2026-04-21T08:13:50.358Z</time></trkpt><trkpt lat="39.6699933" lon="8.608655"><ele>17.6</ele><time>2026-04-21T08:13:52.358Z</time></trkpt><trkpt lat="39.6698967" lon="8.6085733"><ele>17.4</ele><time>2026-04-21T08:13:54.359Z</time></trkpt><trkpt lat="39.6698333" lon="8.6085133"><ele>17.2</ele><time>2026-04-21T08:13:56.358Z</time></trkpt><trkpt lat="39.6697817" lon="8.6084483"><ele>17.0</ele><time>2026-04-21T08:13:58.359Z</time></trkpt><trkpt lat="39.6696983" lon="8.6083433"><ele>17.0</ele><time>2026-04-21T08:14:00.358Z</time></trkpt><trkpt lat="39.6696383" lon="8.6082767"><ele>17.0</ele><time>2026-04-21T08:14:01.358Z</time></trkpt><trkpt lat="39.669575" lon="8.6081933"><ele>17.0</ele><time>2026-04-21T08:14:02.359Z</time></trkpt><trkpt lat="39.6695067" lon="8.6080883"><ele>17.0</ele><time>2026-04-21T08:14:03.358Z</time></trkpt><trkpt lat="39.6694333" lon="8.6079817"><ele>17.0</ele><time>2026-04-21T08:14:04.359Z</time></trkpt><trkpt lat="39.66935" lon="8.6078833"><ele>17.25</ele><time>2026-04-21T08:14:05.359Z</time></trkpt><trkpt lat="39.6692583" lon="8.60778"><ele>17.5</ele><time>2026-04-21T08:14:06.359Z</time></trkpt><trkpt lat="39.66917" lon="8.607685"><ele>17.75</ele><time>2026-04-21T08:14:07.358Z</time></trkpt><trkpt lat="39.6690767" lon="8.6076017"><ele>18.0</ele><time>2026-04-21T08:14:08.358Z</time></trkpt><trkpt lat="39.6689833" lon="8.6075317"><ele>18.0</ele><time>2026-04-21T08:14:09.358Z</time></trkpt><trkpt lat="39.6688867" lon="8.6074717"><ele>18.0</ele><time>2026-04-21T08:14:10.359Z</time></trkpt><trkpt lat="39.6687933" lon="8.60741"><ele>18.0</ele><time>2026-04-21T08:14:11.359Z</time></trkpt><trkpt lat="39.6686983" lon="8.6073417"><ele>18.0</ele><time>2026-04-21T08:14:12.358Z</time></trkpt><trkpt lat="39.6686" lon="8.6072517"><ele>18.0</ele><time>2026-04-21T08:14:13.358Z</time></trkpt><trkpt lat="39.6685117" lon="8.6071533"><ele>18.2</ele><time>2026-04-21T08:14:14.359Z</time></trkpt><trkpt lat="39.668425" lon="8.6070583"><ele>18.4</ele><time>2026-04-21T08:14:15.359Z</time></trkpt><trkpt lat="39.6683433" lon="8.606965"><ele>18.599999999999998</ele><time>2026-04-21T08:14:16.358Z</time></trkpt><trkpt lat="39.6682667" lon="8.60687"><ele>18.8</ele><time>2026-04-21T08:14:17.358Z</time></trkpt><trkpt lat="39.6682" lon="8.6067783"><ele>19.0</ele><time>2026-04-21T08:14:18.359Z</time></trkpt><trkpt lat="39.6681283" lon="8.6066767"><ele>19.2</ele><time>2026-04-21T08:14:19.359Z</time></trkpt><trkpt lat="39.66805" lon="8.6065717"><ele>19.4</ele><time>2026-04-21T08:14:20.359Z</time></trkpt><trkpt lat="39.6679683" lon="8.6064683"><ele>19.6</ele><time>2026-04-21T08:14:21.358Z</time></trkpt><trkpt lat="39.667885" lon="8.6063867"><ele>19.8</ele><time>2026-04-21T08:14:22.359Z</time></trkpt><trkpt lat="39.66779" lon="8.6063167"><ele>20.0</ele><time>2026-04-21T08:14:23.358Z</time></trkpt><trkpt lat="39.6676883" lon="8.6062567"><ele>20.0</ele><time>2026-04-21T08:14:24.358Z</time></trkpt><trkpt lat="39.66759" lon="8.6062"><ele>20.0</ele><time>2026-04-21T08:14:25.359Z</time></trkpt><trkpt lat="39.667495" lon="8.6061433"><ele>20.0</ele><time>2026-04-21T08:14:26.359Z</time></trkpt><trkpt lat="39.6674083" lon="8.606095"><ele>20.0</ele><time>2026-04-21T08:14:27.358Z</time></trkpt><trkpt lat="39.6673283" lon="8.606055"><ele>20.0</ele><time>2026-04-21T08:14:28.358Z</time></trkpt><trkpt lat="39.66726" lon="8.6059983"><ele>20.0</ele><time>2026-04-21T08:14:29.359Z</time></trkpt><trkpt lat="39.6671967" lon="8.60591"><ele>20.0</ele><time>2026-04-21T08:14:30.358Z</time></trkpt><trkpt lat="39.6671467" lon="8.6058"><ele>20.0</ele><time>2026-04-21T08:14:31.358Z</time></trkpt><trkpt lat="39.667085" lon="8.6056767"><ele>20.0</ele><time>2026-04-21T08:14:32.358Z</time></trkpt><trkpt lat="39.6670167" lon="8.6055483"><ele>20.0</ele><time>2026-04-21T08:14:33.358Z</time></trkpt><trkpt lat="39.66695" lon="8.6054083"><ele>20.75</ele><time>2026-04-21T08:14:34.359Z</time></trkpt><trkpt lat="39.6668933" lon="8.60527"><ele>21.5</ele><time>2026-04-21T08:14:35.358Z</time></trkpt><trkpt lat="39.666825" lon="8.6051417"><ele>22.25</ele><time>2026-04-21T08:14:36.358Z</time></trkpt><trkpt lat="39.6667633" lon="8.6050217"><ele>23.0</ele><time>2026-04-21T08:14:37.358Z</time></trkpt><trkpt lat="39.666695" lon="8.6049167"><ele>23.0</ele><time>2026-04-21T08:14:38.359Z</time></trkpt><trkpt lat="39.6666333" lon="8.604815"><ele>23.0</ele><time>2026-04-21T08:14:39.358Z</time></trkpt><trkpt lat="39.6665633" lon="8.6047267"><ele>23.0</ele><time>2026-04-21T08:14:40.358Z</time></trkpt><trkpt lat="39.6664867" lon="8.6046533"><ele>23.0</ele><time>2026-04-21T08:14:41.359Z</time></trkpt><trkpt lat="39.66641" lon="8.6045833"><ele>23.0</ele><time>2026-04-21T08:14:42.359Z</time></trkpt><trkpt lat="39.6663283" lon="8.60453"><ele>22.799999999999997</ele><time>2026-04-21T08:14:43.358Z</time></trkpt><trkpt lat="39.6662283" lon="8.6044917"><ele>22.6</ele><time>2026-04-21T08:14:44.359Z</time></trkpt><trkpt lat="39.6661233" lon="8.6044667"><ele>22.4</ele><time>2026-04-21T08:14:45.359Z</time></trkpt><trkpt lat="39.6660283" lon="8.6044333"><ele>22.200000000000003</ele><time>2026-04-21T08:14:46.358Z</time></trkpt><trkpt lat="39.665945" lon="8.6044017"><ele>22.0</ele><time>2026-04-21T08:14:47.359Z</time></trkpt><trkpt lat="39.6658617" lon="8.6043667"><ele>22.333333333333332</ele><time>2026-04-21T08:14:48.358Z</time></trkpt><trkpt lat="39.6657867" lon="8.604325"><ele>22.666666666666664</ele><time>2026-04-21T08:14:49.358Z</time></trkpt><trkpt lat="39.6657133" lon="8.6042817"><ele>23.0</ele><time>2026-04-21T08:14:50.358Z</time></trkpt><trkpt lat="39.665635" lon="8.60424"><ele>23.333333333333332</ele><time>2026-04-21T08:14:51.359Z</time></trkpt><trkpt lat="39.6655483" lon="8.6041917"><ele>23.666666666666668</ele><time>2026-04-21T08:14:52.359Z</time></trkpt><trkpt lat="39.6654517" lon="8.6041367"><ele>24.0</ele><time>2026-04-21T08:14:53.358Z</time></trkpt><trkpt lat="39.6653467" lon="8.6040733"><ele>24.0</ele><time>2026-04-21T08:14:54.358Z</time></trkpt><trkpt lat="39.66524" lon="8.603995"><ele>24.0</ele><time>2026-04-21T08:14:55.359Z</time></trkpt><trkpt lat="39.6651317" lon="8.60392"><ele>24.0</ele><time>2026-04-21T08:14:56.358Z</time></trkpt><trkpt lat="39.6650133" lon="8.6038417"><ele>24.0</ele><time>2026-04-21T08:14:57.358Z</time></trkpt><trkpt lat="39.6649033" lon="8.6037733"><ele>24.0</ele><time>2026-04-21T08:14:58.358Z</time></trkpt><trkpt lat="39.6648" lon="8.6037033"><ele>24.0</ele><time>2026-04-21T08:14:59.358Z</time></trkpt><trkpt lat="39.6647067" lon="8.603635"><ele>24.0</ele><time>2026-04-21T08:15:00.358Z</time></trkpt><trkpt lat="39.6646283" lon="8.6035633"><ele>24.0</ele><time>2026-04-21T08:15:01.359Z</time></trkpt><trkpt lat="39.6645483" lon="8.6034817"><ele>24.0</ele><time>2026-04-21T08:15:02.359Z</time></trkpt><trkpt lat="39.66447" lon="8.6033917"><ele>24.25</ele><time>2026-04-21T08:15:03.359Z</time></trkpt><trkpt lat="39.6643817" lon="8.6032917"><ele>24.5</ele><time>2026-04-21T08:15:04.358Z</time></trkpt><trkpt lat="39.6642883" lon="8.6031883"><ele>24.75</ele><time>2026-04-21T08:15:05.359Z</time></trkpt><trkpt lat="39.66419" lon="8.6030867"><ele>25.0</ele><time>2026-04-21T08:15:06.359Z</time></trkpt><trkpt lat="39.6640833" lon="8.6029917"><ele>25.0</ele><time>2026-04-21T08:15:07.359Z</time></trkpt><trkpt lat="39.66397" lon="8.6029083"><ele>25.0</ele><time>2026-04-21T08:15:08.359Z</time></trkpt><trkpt lat="39.66385" lon="8.6028333"><ele>25.0</ele><time>2026-04-21T08:15:09.359Z</time></trkpt><trkpt lat="39.6637417" lon="8.6027617"><ele>25.0</ele><time>2026-04-21T08:15:10.359Z</time></trkpt><trkpt lat="39.66365" lon="8.602685"><ele>25.0</ele><time>2026-04-21T08:15:11.359Z</time></trkpt><trkpt lat="39.6635567" lon="8.6026267"><ele>25.0</ele><time>2026-04-21T08:15:12.358Z</time></trkpt><trkpt lat="39.66347" lon="8.6025733"><ele>25.0</ele><time>2026-04-21T08:15:13.359Z</time></trkpt><trkpt lat="39.6633933" lon="8.6025233"><ele>25.0</ele><time>2026-04-21T08:15:14.358Z</time></trkpt><trkpt lat="39.66331" lon="8.6024733"><ele>25.0</ele><time>2026-04-21T08:15:15.358Z</time></trkpt><trkpt lat="39.6632217" lon="8.6024233"><ele>25.0</ele><time>2026-04-21T08:15:16.359Z</time></trkpt><trkpt lat="39.6631167" lon="8.6023617"><ele>25.0</ele><time>2026-04-21T08:15:17.358Z</time></trkpt><trkpt lat="39.6630067" lon="8.602295"><ele>25.0</ele><time>2026-04-21T08:15:18.358Z</time></trkpt><trkpt lat="39.6628867" lon="8.6022267"><ele>25.0</ele><time>2026-04-21T08:15:19.359Z</time></trkpt><trkpt lat="39.66277" lon="8.602155"><ele>25.0</ele><time>2026-04-21T08:15:20.359Z</time></trkpt><trkpt lat="39.6626567" lon="8.6020817"><ele>25.0</ele><time>2026-04-21T08:15:21.359Z</time></trkpt><trkpt lat="39.662555" lon="8.6020083"><ele>25.0</ele><time>2026-04-21T08:15:22.359Z</time></trkpt><trkpt lat="39.6624617" lon="8.60193"><ele>25.0</ele><time>2026-04-21T08:15:23.359Z</time></trkpt><trkpt lat="39.6623667" lon="8.6018483"><ele>25.4</ele><time>2026-04-21T08:15:24.358Z</time></trkpt><trkpt lat="39.6622717" lon="8.6017633"><ele>25.8</ele><time>2026-04-21T08:15:25.358Z</time></trkpt><trkpt lat="39.6621867" lon="8.6016883"><ele>26.200000000000003</ele><time>2026-04-21T08:15:26.358Z</time></trkpt><trkpt lat="39.6621117" lon="8.60162"><ele>26.6</ele><time>2026-04-21T08:15:27.358Z</time></trkpt><trkpt lat="39.6620433" lon="8.6015683"><ele>27.0</ele><time>2026-04-21T08:15:28.358Z</time></trkpt><trkpt lat="39.66194" lon="8.60151"><ele>27.0</ele><time>2026-04-21T08:15:30.358Z</time></trkpt><trkpt lat="39.6618817" lon="8.6014633"><ele>27.0</ele><time>2026-04-21T08:15:32.359Z</time></trkpt><trkpt lat="39.6618917" lon="8.60138"><ele>27.0</ele><time>2026-04-21T08:15:34.359Z</time></trkpt><trkpt lat="39.66197" lon="8.6012583"><ele>27.0</ele><time>2026-04-21T08:15:36.358Z</time></trkpt><trkpt lat="39.6620183" lon="8.6011833"><ele>27.0</ele><time>2026-04-21T08:15:37.358Z</time></trkpt><trkpt lat="39.662065" lon="8.6011117"><ele>27.0</ele><time>2026-04-21T08:15:38.358Z</time></trkpt><trkpt lat="39.662115" lon="8.6010383"><ele>26.6</ele><time>2026-04-21T08:15:39.358Z</time></trkpt><trkpt lat="39.6621517" lon="8.60097"><ele>26.200000000000003</ele><time>2026-04-21T08:15:40.359Z</time></trkpt><trkpt lat="39.6622367" lon="8.6008467"><ele>25.8</ele><time>2026-04-21T08:15:42.359Z</time></trkpt><trkpt lat="39.6622767" lon="8.6007717"><ele>25.4</ele><time>2026-04-21T08:15:43.358Z</time></trkpt><trkpt lat="39.6623267" lon="8.6006317"><ele>25.0</ele><time>2026-04-21T08:15:45.358Z</time></trkpt><trkpt lat="39.66238" lon="8.6005167"><ele>25.000000000000004</ele><time>2026-04-21T08:15:47.358Z</time></trkpt><trkpt lat="39.662405" lon="8.6003967"><ele>25.0</ele><time>2026-04-21T08:15:49.358Z</time></trkpt><trkpt lat="39.662375" lon="8.6002733"><ele>25.0</ele><time>2026-04-21T08:15:51.359Z</time></trkpt><trkpt lat="39.6623283" lon="8.6002117"><ele>25.0</ele><time>2026-04-21T08:15:52.359Z</time></trkpt><trkpt lat="39.6622683" lon="8.6001583"><ele>25.000000000000004</ele><time>2026-04-21T08:15:53.358Z</time></trkpt><trkpt lat="39.6622033" lon="8.6001083"><ele>25.0</ele><time>2026-04-21T08:15:54.359Z</time></trkpt><trkpt lat="39.66213" lon="8.6000567"><ele>25.000000000000004</ele><time>2026-04-21T08:15:55.358Z</time></trkpt><trkpt lat="39.662065" lon="8.59999"><ele>25.0</ele><time>2026-04-21T08:15:56.359Z</time></trkpt><trkpt lat="39.6620083" lon="8.5999183"><ele>25.0</ele><time>2026-04-21T08:15:57.359Z</time></trkpt><trkpt lat="39.6619517" lon="8.5998483"><ele>25.0</ele><time>2026-04-21T08:15:58.359Z</time></trkpt><trkpt lat="39.66189" lon="8.5997683"><ele>25.000000000000004</ele><time>2026-04-21T08:15:59.358Z</time></trkpt><trkpt lat="39.6618317" lon="8.5996933"><ele>25.0</ele><time>2026-04-21T08:16:00.358Z</time></trkpt><trkpt lat="39.66178" lon="8.5996133"><ele>25.4</ele><time>2026-04-21T08:16:01.359Z</time></trkpt><trkpt lat="39.661725" lon="8.5995233"><ele>25.8</ele><time>2026-04-21T08:16:02.359Z</time></trkpt><trkpt lat="39.6616667" lon="8.599425"><ele>26.200000000000003</ele><time>2026-04-21T08:16:03.359Z</time></trkpt><trkpt lat="39.6616083" lon="8.59932"><ele>26.6</ele><time>2026-04-21T08:16:04.359Z</time></trkpt><trkpt lat="39.6615567" lon="8.59922"><ele>27.0</ele><time>2026-04-21T08:16:05.358Z</time></trkpt><trkpt lat="39.6615033" lon="8.5991167"><ele>27.200000000000003</ele><time>2026-04-21T08:16:06.358Z</time></trkpt><trkpt lat="39.6614467" lon="8.599"><ele>27.400000000000002</ele><time>2026-04-21T08:16:07.358Z</time></trkpt><trkpt lat="39.661385" lon="8.5988733"><ele>27.599999999999998</ele><time>2026-04-21T08:16:08.359Z</time></trkpt><trkpt lat="39.6613283" lon="8.59876"><ele>27.799999999999997</ele><time>2026-04-21T08:16:09.359Z</time></trkpt><trkpt lat="39.6612767" lon="8.598645"><ele>28.0</ele><time>2026-04-21T08:16:10.358Z</time></trkpt><trkpt lat="39.6612233" lon="8.59852"><ele>28.4</ele><time>2026-04-21T08:16:11.359Z</time></trkpt><trkpt lat="39.6611717" lon="8.5984067"><ele>28.799999999999997</ele><time>2026-04-21T08:16:12.358Z</time></trkpt><trkpt lat="39.6611133" lon="8.598295"><ele>29.2</ele><time>2026-04-21T08:16:13.359Z</time></trkpt><trkpt lat="39.6610567" lon="8.59818"><ele>29.6</ele><time>2026-04-21T08:16:14.358Z</time></trkpt><trkpt lat="39.66099" lon="8.5980483"><ele>30.0</ele><time>2026-04-21T08:16:15.359Z</time></trkpt><trkpt lat="39.66093" lon="8.5979283"><ele>30.4</ele><time>2026-04-21T08:16:16.358Z</time></trkpt><trkpt lat="39.6608667" lon="8.597805"><ele>30.8</ele><time>2026-04-21T08:16:17.359Z</time></trkpt><trkpt lat="39.6608117" lon="8.5976933"><ele>31.200000000000003</ele><time>2026-04-21T08:16:18.359Z</time></trkpt><trkpt lat="39.6607517" lon="8.5975917"><ele>31.6</ele><time>2026-04-21T08:16:19.359Z</time></trkpt><trkpt lat="39.6606967" lon="8.5974983"><ele>32.0</ele><time>2026-04-21T08:16:20.359Z</time></trkpt><trkpt lat="39.6606383" lon="8.5974117"><ele>32.0</ele><time>2026-04-21T08:16:21.359Z</time></trkpt><trkpt lat="39.660585" lon="8.59732"><ele>32.0</ele><time>2026-04-21T08:16:22.358Z</time></trkpt><trkpt lat="39.660525" lon="8.5972167"><ele>32.0</ele><time>2026-04-21T08:16:23.358Z</time></trkpt><trkpt lat="39.6604667" lon="8.597105"><ele>32.0</ele><time>2026-04-21T08:16:24.358Z</time></trkpt><trkpt lat="39.6604067" lon="8.59697"><ele>32.0</ele><time>2026-04-21T08:16:25.358Z</time></trkpt><trkpt lat="39.6603467" lon="8.5968233"><ele>32.25</ele><time>2026-04-21T08:16:26.359Z</time></trkpt><trkpt lat="39.66029" lon="8.5966717"><ele>32.5</ele><time>2026-04-21T08:16:27.358Z</time></trkpt><trkpt lat="39.660225" lon="8.5965067"><ele>32.75</ele><time>2026-04-21T08:16:28.358Z</time></trkpt><trkpt lat="39.6601567" lon="8.596325"><ele>33.0</ele><time>2026-04-21T08:16:29.358Z</time></trkpt><trkpt lat="39.6600817" lon="8.5961417"><ele>33.25</ele><time>2026-04-21T08:16:30.359Z</time></trkpt><trkpt lat="39.6600233" lon="8.5959717"><ele>33.5</ele><time>2026-04-21T08:16:31.358Z</time></trkpt><trkpt lat="39.6599617" lon="8.5958"><ele>33.75</ele><time>2026-04-21T08:16:32.359Z</time></trkpt><trkpt lat="39.6599083" lon="8.5956317"><ele>34.0</ele><time>2026-04-21T08:16:33.359Z</time></trkpt><trkpt lat="39.6598467" lon="8.595475"><ele>34.5</ele><time>2026-04-21T08:16:34.359Z</time></trkpt><trkpt lat="39.6597933" lon="8.5953217"><ele>35.0</ele><time>2026-04-21T08:16:35.358Z</time></trkpt><trkpt lat="39.6597317" lon="8.5951617"><ele>35.5</ele><time>2026-04-21T08:16:36.359Z</time></trkpt><trkpt lat="39.659675" lon="8.595"><ele>36.0</ele><time>2026-04-21T08:16:37.359Z</time></trkpt><trkpt lat="39.6596167" lon="8.5948533"><ele>36.0</ele><time>2026-04-21T08:16:38.358Z</time></trkpt><trkpt lat="39.659555" lon="8.5947"><ele>36.0</ele><time>2026-04-21T08:16:39.359Z</time></trkpt><trkpt lat="39.6594883" lon="8.5945483"><ele>36.0</ele><time>2026-04-21T08:16:40.359Z</time></trkpt><trkpt lat="39.6594317" lon="8.5944083"><ele>36.0</ele><time>2026-04-21T08:16:41.359Z</time></trkpt><trkpt lat="39.65939" lon="8.59427"><ele>36.4</ele><time>2026-04-21T08:16:42.358Z</time></trkpt><trkpt lat="39.659345" lon="8.5941417"><ele>36.8</ele><time>2026-04-21T08:16:43.359Z</time></trkpt><trkpt lat="39.6592983" lon="8.5940083"><ele>37.199999999999996</ele><time>2026-04-21T08:16:44.358Z</time></trkpt><trkpt lat="39.6592567" lon="8.5938983"><ele>37.6</ele><time>2026-04-21T08:16:45.358Z</time></trkpt><trkpt lat="39.6592167" lon="8.5938"><ele>38.0</ele><time>2026-04-21T08:16:46.359Z</time></trkpt><trkpt lat="39.6591833" lon="8.5937083"><ele>38.166666666666664</ele><time>2026-04-21T08:16:47.359Z</time></trkpt><trkpt lat="39.6591567" lon="8.593615"><ele>38.33333333333333</ele><time>2026-04-21T08:16:48.358Z</time></trkpt><trkpt lat="39.6591333" lon="8.5934883"><ele>38.5</ele><time>2026-04-21T08:16:50.359Z</time></trkpt><trkpt lat="39.6591083" lon="8.5933717"><ele>38.666666666666664</ele><time>2026-04-21T08:16:52.359Z</time></trkpt><trkpt lat="39.6590883" lon="8.5932783"><ele>38.833333333333336</ele><time>2026-04-21T08:16:53.359Z</time></trkpt><trkpt lat="39.6590633" lon="8.593175"><ele>39.0</ele><time>2026-04-21T08:16:54.358Z</time></trkpt><trkpt lat="39.6590283" lon="8.5930617"><ele>39.0</ele><time>2026-04-21T08:16:55.359Z</time></trkpt><trkpt lat="39.65899" lon="8.5929333"><ele>39.0</ele><time>2026-04-21T08:16:56.359Z</time></trkpt><trkpt lat="39.65895" lon="8.5927983"><ele>39.0</ele><time>2026-04-21T08:16:57.359Z</time></trkpt><trkpt lat="39.6589033" lon="8.592665"><ele>39.0</ele><time>2026-04-21T08:16:58.359Z</time></trkpt><trkpt lat="39.6588633" lon="8.59252"><ele>39.0</ele><time>2026-04-21T08:16:59.359Z</time></trkpt><trkpt lat="39.65882" lon="8.59237"><ele>39.25</ele><time>2026-04-21T08:17:00.358Z</time></trkpt><trkpt lat="39.6587717" lon="8.5922167"><ele>39.5</ele><time>2026-04-21T08:17:01.358Z</time></trkpt><trkpt lat="39.658725" lon="8.592065"><ele>39.75</ele><time>2026-04-21T08:17:02.358Z</time></trkpt><trkpt lat="39.65868" lon="8.591925"><ele>40.0</ele><time>2026-04-21T08:17:03.359Z</time></trkpt><trkpt lat="39.6586383" lon="8.591795"><ele>39.75</ele><time>2026-04-21T08:17:04.359Z</time></trkpt><trkpt lat="39.6585933" lon="8.591665"><ele>39.5</ele><time>2026-04-21T08:17:05.359Z</time></trkpt><trkpt lat="39.658545" lon="8.5915317"><ele>39.25</ele><time>2026-04-21T08:17:06.358Z</time></trkpt><trkpt lat="39.6585" lon="8.5913917"><ele>39.0</ele><time>2026-04-21T08:17:07.358Z</time></trkpt><trkpt lat="39.6584583" lon="8.59125"><ele>39.5</ele><time>2026-04-21T08:17:08.359Z</time></trkpt><trkpt lat="39.6584067" lon="8.5910967"><ele>40.0</ele><time>2026-04-21T08:17:09.358Z</time></trkpt><trkpt lat="39.658355" lon="8.5909333"><ele>40.5</ele><time>2026-04-21T08:17:10.359Z</time></trkpt><trkpt lat="39.6583" lon="8.590765"><ele>41.0</ele><time>2026-04-21T08:17:11.358Z</time></trkpt><trkpt lat="39.6582483" lon="8.5905833"><ele>41.0</ele><time>2026-04-21T08:17:12.358Z</time></trkpt><trkpt lat="39.6581983" lon="8.5903867"><ele>41.0</ele><time>2026-04-21T08:17:13.359Z</time></trkpt><trkpt lat="39.6581467" lon="8.5901833"><ele>41.0</ele><time>2026-04-21T08:17:14.359Z</time></trkpt><trkpt lat="39.6580983" lon="8.5899683"><ele>41.33333333333333</ele><time>2026-04-21T08:17:15.359Z</time></trkpt><trkpt lat="39.6580467" lon="8.5897433"><ele>41.666666666666664</ele><time>2026-04-21T08:17:16.358Z</time></trkpt><trkpt lat="39.6579867" lon="8.5895067"><ele>42.0</ele><time>2026-04-21T08:17:17.359Z</time></trkpt><trkpt lat="39.6579283" lon="8.5892683"><ele>42.333333333333336</ele><time>2026-04-21T08:17:18.359Z</time></trkpt><trkpt lat="39.6578683" lon="8.5890317"><ele>42.66666666666667</ele><time>2026-04-21T08:17:19.359Z</time></trkpt><trkpt lat="39.65781" lon="8.588805"><ele>43.0</ele><time>2026-04-21T08:17:20.358Z</time></trkpt><trkpt lat="39.6577517" lon="8.58857"><ele>42.333333333333336</ele><time>2026-04-21T08:17:21.359Z</time></trkpt><trkpt lat="39.6576917" lon="8.5883267"><ele>41.666666666666664</ele><time>2026-04-21T08:17:22.359Z</time></trkpt><trkpt lat="39.6576383" lon="8.5881"><ele>41.0</ele><time>2026-04-21T08:17:23.358Z</time></trkpt><trkpt lat="39.6575783" lon="8.5878867"><ele>41.5</ele><time>2026-04-21T08:17:24.358Z</time></trkpt><trkpt lat="39.65751" lon="8.587705"><ele>42.0</ele><time>2026-04-21T08:17:25.358Z</time></trkpt><trkpt lat="39.6574567" lon="8.587545"><ele>42.5</ele><time>2026-04-21T08:17:26.358Z</time></trkpt><trkpt lat="39.6574017" lon="8.58739"><ele>43.0</ele><time>2026-04-21T08:17:27.358Z</time></trkpt><trkpt lat="39.6573467" lon="8.5872433"><ele>43.0</ele><time>2026-04-21T08:17:28.359Z</time></trkpt><trkpt lat="39.65729" lon="8.5870817"><ele>43.0</ele><time>2026-04-21T08:17:29.359Z</time></trkpt><trkpt lat="39.6572333" lon="8.586915"><ele>43.0</ele><time>2026-04-21T08:17:30.359Z</time></trkpt><trkpt lat="39.6571767" lon="8.586755"><ele>43.0</ele><time>2026-04-21T08:17:31.359Z</time></trkpt><trkpt lat="39.6571267" lon="8.5866"><ele>43.25</ele><time>2026-04-21T08:17:32.359Z</time></trkpt><trkpt lat="39.6570967" lon="8.58643"><ele>43.5</ele><time>2026-04-21T08:17:33.358Z</time></trkpt><trkpt lat="39.6570867" lon="8.586235"><ele>43.75</ele><time>2026-04-21T08:17:34.359Z</time></trkpt><trkpt lat="39.6570817" lon="8.5860317"><ele>44.0</ele><time>2026-04-21T08:17:35.359Z</time></trkpt><trkpt lat="39.6570783" lon="8.5858217"><ele>44.666666666666664</ele><time>2026-04-21T08:17:36.358Z</time></trkpt><trkpt lat="39.6570717" lon="8.5856117"><ele>45.333333333333336</ele><time>2026-04-21T08:17:37.359Z</time></trkpt><trkpt lat="39.657055" lon="8.58539"><ele>46.0</ele><time>2026-04-21T08:17:38.358Z</time></trkpt><trkpt lat="39.6570483" lon="8.585165"><ele>46.0</ele><time>2026-04-21T08:17:39.359Z</time></trkpt><trkpt lat="39.6570433" lon="8.5849533"><ele>46.0</ele><time>2026-04-21T08:17:40.358Z</time></trkpt><trkpt lat="39.6570383" lon="8.5847567"><ele>46.0</ele><time>2026-04-21T08:17:41.359Z</time></trkpt><trkpt lat="39.65703" lon="8.58458"><ele>46.199999999999996</ele><time>2026-04-21T08:17:42.359Z</time></trkpt><trkpt lat="39.6570167" lon="8.5844267"><ele>46.4</ele><time>2026-04-21T08:17:43.359Z</time></trkpt><trkpt lat="39.6569833" lon="8.5843"><ele>46.6</ele><time>2026-04-21T08:17:44.359Z</time></trkpt><trkpt lat="39.6569283" lon="8.584195"><ele>46.8</ele><time>2026-04-21T08:17:45.358Z</time></trkpt><trkpt lat="39.6568567" lon="8.5840933"><ele>47.0</ele><time>2026-04-21T08:17:46.358Z</time></trkpt><trkpt lat="39.65679" lon="8.58399"><ele>47.0</ele><time>2026-04-21T08:17:47.359Z</time></trkpt><trkpt lat="39.65674" lon="8.5838767"><ele>47.0</ele><time>2026-04-21T08:17:48.358Z</time></trkpt><trkpt lat="39.6567167" lon="8.5837583"><ele>47.0</ele><time>2026-04-21T08:17:49.358Z</time></trkpt><trkpt lat="39.6567083" lon="8.5836167"><ele>47.0</ele><time>2026-04-21T08:17:50.359Z</time></trkpt><trkpt lat="39.6567117" lon="8.58348"><ele>47.0</ele><time>2026-04-21T08:17:51.358Z</time></trkpt><trkpt lat="39.656715" lon="8.5833517"><ele>47.0</ele><time>2026-04-21T08:17:52.358Z</time></trkpt><trkpt lat="39.6567017" lon="8.583245"><ele>47.0</ele><time>2026-04-21T08:17:53.358Z</time></trkpt><trkpt lat="39.6566867" lon="8.5831517"><ele>47.0</ele><time>2026-04-21T08:17:54.359Z</time></trkpt><trkpt lat="39.6566467" lon="8.5830717"><ele>47.0</ele><time>2026-04-21T08:17:55.359Z</time></trkpt><trkpt lat="39.6565967" lon="8.58301"><ele>47.0</ele><time>2026-04-21T08:17:56.359Z</time></trkpt><trkpt lat="39.6565183" lon="8.5829117"><ele>47.0</ele><time>2026-04-21T08:17:58.359Z</time></trkpt><trkpt lat="39.6564633" lon="8.582845"><ele>47.5</ele><time>2026-04-21T08:18:00.359Z</time></trkpt><trkpt lat="39.6564117" lon="8.58277"><ele>48.0</ele><time>2026-04-21T08:18:02.359Z</time></trkpt><trkpt lat="39.65634" lon="8.5826733"><ele>48.5</ele><time>2026-04-21T08:18:04.358Z</time></trkpt><trkpt lat="39.6562933" lon="8.5826133"><ele>49.0</ele><time>2026-04-21T08:18:05.359Z</time></trkpt><trkpt lat="39.6562433" lon="8.5825467"><ele>49.50000000000001</ele><time>2026-04-21T08:18:06.359Z</time></trkpt><trkpt lat="39.6561933" lon="8.5824783"><ele>50.0</ele><time>2026-04-21T08:18:07.359Z</time></trkpt><trkpt lat="39.6561433" lon="8.5824133"><ele>49.833333333333336</ele><time>2026-04-21T08:18:08.359Z</time></trkpt><trkpt lat="39.6560917" lon="8.5823417"><ele>49.66666666666667</ele><time>2026-04-21T08:18:09.359Z</time></trkpt><trkpt lat="39.6560317" lon="8.582265"><ele>49.5</ele><time>2026-04-21T08:18:10.359Z</time></trkpt><trkpt lat="39.655975" lon="8.5821883"><ele>49.33333333333333</ele><time>2026-04-21T08:18:11.358Z</time></trkpt><trkpt lat="39.65592" lon="8.5821017"><ele>49.166666666666664</ele><time>2026-04-21T08:18:12.358Z</time></trkpt><trkpt lat="39.6558583" lon="8.5820067"><ele>49.0</ele><time>2026-04-21T08:18:13.359Z</time></trkpt><trkpt lat="39.6558017" lon="8.581905"><ele>49.0</ele><time>2026-04-21T08:18:14.359Z</time></trkpt><trkpt lat="39.65575" lon="8.5817883"><ele>49.0</ele><time>2026-04-21T08:18:15.358Z</time></trkpt><trkpt lat="39.6557033" lon="8.5816617"><ele>49.0</ele><time>2026-04-21T08:18:16.358Z</time></trkpt><trkpt lat="39.6556583" lon="8.58153"><ele>49.0</ele><time>2026-04-21T08:18:17.358Z</time></trkpt><trkpt lat="39.6556233" lon="8.581415"><ele>49.0</ele><time>2026-04-21T08:18:18.358Z</time></trkpt><trkpt lat="39.6555883" lon="8.5813133"><ele>48.99999999999999</ele><time>2026-04-21T08:18:19.359Z</time></trkpt><trkpt lat="39.6555617" lon="8.5812267"><ele>49.0</ele><time>2026-04-21T08:18:20.358Z</time></trkpt><trkpt lat="39.6555333" lon="8.5811483"><ele>49.0</ele><time>2026-04-21T08:18:21.359Z</time></trkpt><trkpt lat="39.655515" lon="8.58106"><ele>49.0</ele><time>2026-04-21T08:18:22.359Z</time></trkpt><trkpt lat="39.6555033" lon="8.5809583"><ele>48.99999999999999</ele><time>2026-04-21T08:18:23.358Z</time></trkpt><trkpt lat="39.6554983" lon="8.5808517"><ele>49.0</ele><time>2026-04-21T08:18:24.358Z</time></trkpt><trkpt lat="39.6554933" lon="8.5807467"><ele>49.49999999999999</ele><time>2026-04-21T08:18:25.359Z</time></trkpt><trkpt lat="39.6554983" lon="8.5806367"><ele>50.0</ele><time>2026-04-21T08:18:26.359Z</time></trkpt><trkpt lat="39.6554883" lon="8.58053"><ele>50.5</ele><time>2026-04-21T08:18:27.359Z</time></trkpt><trkpt lat="39.6554883" lon="8.58042"><ele>51.0</ele><time>2026-04-21T08:18:28.358Z</time></trkpt><trkpt lat="39.6554833" lon="8.580295"><ele>51.49999999999999</ele><time>2026-04-21T08:18:29.359Z</time></trkpt><trkpt lat="39.6554783" lon="8.5801717"><ele>52.0</ele><time>2026-04-21T08:18:30.358Z</time></trkpt><trkpt lat="39.6554733" lon="8.5800367"><ele>52.2</ele><time>2026-04-21T08:18:31.358Z</time></trkpt><trkpt lat="39.6554683" lon="8.5798967"><ele>52.400000000000006</ele><time>2026-04-21T08:18:32.359Z</time></trkpt><trkpt lat="39.65546" lon="8.5797667"><ele>52.599999999999994</ele><time>2026-04-21T08:18:33.359Z</time></trkpt><trkpt lat="39.6554367" lon="8.5796433"><ele>52.8</ele><time>2026-04-21T08:18:34.359Z</time></trkpt><trkpt lat="39.655395" lon="8.5795267"><ele>53.0</ele><time>2026-04-21T08:18:35.359Z</time></trkpt><trkpt lat="39.65534" lon="8.579405"><ele>53.0</ele><time>2026-04-21T08:18:36.359Z</time></trkpt><trkpt lat="39.6552817" lon="8.5792967"><ele>53.0</ele><time>2026-04-21T08:18:37.358Z</time></trkpt><trkpt lat="39.65523" lon="8.579185"><ele>53.0</ele><time>2026-04-21T08:18:38.358Z</time></trkpt><trkpt lat="39.6551783" lon="8.579075"><ele>53.0</ele><time>2026-04-21T08:18:39.359Z</time></trkpt><trkpt lat="39.6551267" lon="8.578965"><ele>53.0</ele><time>2026-04-21T08:18:40.358Z</time></trkpt><trkpt lat="39.6550683" lon="8.5788483"><ele>53.0</ele><time>2026-04-21T08:18:41.359Z</time></trkpt><trkpt lat="39.6550117" lon="8.5787167"><ele>53.0</ele><time>2026-04-21T08:18:42.359Z</time></trkpt><trkpt lat="39.6549483" lon="8.578575"><ele>53.0</ele><time>2026-04-21T08:18:43.358Z</time></trkpt><trkpt lat="39.654875" lon="8.578435"><ele>53.0</ele><time>2026-04-21T08:18:44.358Z</time></trkpt><trkpt lat="39.6547933" lon="8.5782983"><ele>54.0</ele><time>2026-04-21T08:18:45.359Z</time></trkpt><trkpt lat="39.6546983" lon="8.5781633"><ele>55.0</ele><time>2026-04-21T08:18:46.358Z</time></trkpt><trkpt lat="39.6545883" lon="8.5780233"><ele>56.0</ele><time>2026-04-21T08:18:47.358Z</time></trkpt><trkpt lat="39.65448" lon="8.5778767"><ele>56.0</ele><time>2026-04-21T08:18:48.358Z</time></trkpt><trkpt lat="39.6543617" lon="8.5777333"><ele>56.0</ele><time>2026-04-21T08:18:49.359Z</time></trkpt><trkpt lat="39.6542517" lon="8.57759"><ele>56.0</ele><time>2026-04-21T08:18:50.359Z</time></trkpt><trkpt lat="39.6541333" lon="8.5774333"><ele>56.0</ele><time>2026-04-21T08:18:51.359Z</time></trkpt><trkpt lat="39.6540233" lon="8.5772867"><ele>56.0</ele><time>2026-04-21T08:18:52.359Z</time></trkpt><trkpt lat="39.6539117" lon="8.5771417"><ele>56.0</ele><time>2026-04-21T08:18:53.358Z</time></trkpt><trkpt lat="39.6537983" lon="8.577005"><ele>56.5</ele><time>2026-04-21T08:18:54.359Z</time></trkpt><trkpt lat="39.6537" lon="8.5768767"><ele>57.0</ele><time>2026-04-21T08:18:55.358Z</time></trkpt><trkpt lat="39.6536117" lon="8.57677"><ele>57.5</ele><time>2026-04-21T08:18:56.358Z</time></trkpt><trkpt lat="39.6535333" lon="8.5766767"><ele>58.0</ele><time>2026-04-21T08:18:57.359Z</time></trkpt><trkpt lat="39.65346" lon="8.5766083"><ele>58.0</ele><time>2026-04-21T08:18:58.359Z</time></trkpt><trkpt lat="39.6533783" lon="8.57656"><ele>58.0</ele><time>2026-04-21T08:18:59.358Z</time></trkpt><trkpt lat="39.653285" lon="8.5765233"><ele>58.0</ele><time>2026-04-21T08:19:00.359Z</time></trkpt><trkpt lat="39.6531883" lon="8.5764883"><ele>58.0</ele><time>2026-04-21T08:19:01.358Z</time></trkpt><trkpt lat="39.6530917" lon="8.5764233"><ele>58.0</ele><time>2026-04-21T08:19:02.358Z</time></trkpt><trkpt lat="39.6530017" lon="8.5763367"><ele>58.0</ele><time>2026-04-21T08:19:03.358Z</time></trkpt><trkpt lat="39.6529283" lon="8.5762433"><ele>58.0</ele><time>2026-04-21T08:19:04.358Z</time></trkpt><trkpt lat="39.6528667" lon="8.5761333"><ele>58.0</ele><time>2026-04-21T08:19:05.359Z</time></trkpt><trkpt lat="39.6528083" lon="8.5760133"><ele>58.0</ele><time>2026-04-21T08:19:06.358Z</time></trkpt><trkpt lat="39.6527517" lon="8.5758783"><ele>58.0</ele><time>2026-04-21T08:19:07.358Z</time></trkpt><trkpt lat="39.6527" lon="8.5757283"><ele>58.5</ele><time>2026-04-21T08:19:08.359Z</time></trkpt><trkpt lat="39.6526433" lon="8.5755633"><ele>59.0</ele><time>2026-04-21T08:19:09.358Z</time></trkpt><trkpt lat="39.6525867" lon="8.5753933"><ele>59.5</ele><time>2026-04-21T08:19:10.358Z</time></trkpt><trkpt lat="39.6525267" lon="8.575235"><ele>60.0</ele><time>2026-04-21T08:19:11.358Z</time></trkpt><trkpt lat="39.6524717" lon="8.5750733"><ele>60.2</ele><time>2026-04-21T08:19:12.359Z</time></trkpt><trkpt lat="39.6524183" lon="8.57494"><ele>60.4</ele><time>2026-04-21T08:19:13.358Z</time></trkpt><trkpt lat="39.6523717" lon="8.5748067"><ele>60.599999999999994</ele><time>2026-04-21T08:19:14.358Z</time></trkpt><trkpt lat="39.6523317" lon="8.574685"><ele>60.8</ele><time>2026-04-21T08:19:15.358Z</time></trkpt><trkpt lat="39.6522933" lon="8.5745833"><ele>61.0</ele><time>2026-04-21T08:19:16.358Z</time></trkpt><trkpt lat="39.6522517" lon="8.57449"><ele>61.166666666666664</ele><time>2026-04-21T08:19:17.359Z</time></trkpt><trkpt lat="39.6522117" lon="8.5743917"><ele>61.33333333333333</ele><time>2026-04-21T08:19:18.359Z</time></trkpt><trkpt lat="39.652175" lon="8.574295"><ele>61.5</ele><time>2026-04-21T08:19:19.359Z</time></trkpt><trkpt lat="39.652135" lon="8.5741983"><ele>61.66666666666667</ele><time>2026-04-21T08:19:20.359Z</time></trkpt><trkpt lat="39.6521" lon="8.5740983"><ele>61.833333333333336</ele><time>2026-04-21T08:19:21.358Z</time></trkpt><trkpt lat="39.6520633" lon="8.57399"><ele>62.0</ele><time>2026-04-21T08:19:22.359Z</time></trkpt><trkpt lat="39.6520317" lon="8.5738883"><ele>62.00000000000001</ele><time>2026-04-21T08:19:23.358Z</time></trkpt><trkpt lat="39.652" lon="8.5738033"><ele>62.0</ele><time>2026-04-21T08:19:24.359Z</time></trkpt><trkpt lat="39.651965" lon="8.5737117"><ele>62.0</ele><time>2026-04-21T08:19:25.358Z</time></trkpt><trkpt lat="39.6519333" lon="8.573605"><ele>62.0</ele><time>2026-04-21T08:19:26.359Z</time></trkpt><trkpt lat="39.651905" lon="8.5734867"><ele>62.00000000000001</ele><time>2026-04-21T08:19:27.359Z</time></trkpt><trkpt lat="39.6518817" lon="8.573355"><ele>62.0</ele><time>2026-04-21T08:19:28.359Z</time></trkpt><trkpt lat="39.6518633" lon="8.57322"><ele>62.6</ele><time>2026-04-21T08:19:29.359Z</time></trkpt><trkpt lat="39.6518517" lon="8.5730933"><ele>63.2</ele><time>2026-04-21T08:19:30.358Z</time></trkpt><trkpt lat="39.6518467" lon="8.572965"><ele>63.8</ele><time>2026-04-21T08:19:31.359Z</time></trkpt><trkpt lat="39.6518417" lon="8.5728383"><ele>64.4</ele><time>2026-04-21T08:19:32.358Z</time></trkpt><trkpt lat="39.65184" lon="8.57272"><ele>65.0</ele><time>2026-04-21T08:19:33.359Z</time></trkpt><trkpt lat="39.65184" lon="8.5726183"><ele>65.00000000000001</ele><time>2026-04-21T08:19:34.358Z</time></trkpt><trkpt lat="39.6518383" lon="8.5725283"><ele>65.0</ele><time>2026-04-21T08:19:35.359Z</time></trkpt><trkpt lat="39.65184" lon="8.5724417"><ele>65.0</ele><time>2026-04-21T08:19:36.359Z</time></trkpt><trkpt lat="39.65185" lon="8.5723533"><ele>65.0</ele><time>2026-04-21T08:19:37.359Z</time></trkpt><trkpt lat="39.6518583" lon="8.5722667"><ele>65.0</ele><time>2026-04-21T08:19:38.359Z</time></trkpt><trkpt lat="39.6518583" lon="8.5721717"><ele>65.00000000000001</ele><time>2026-04-21T08:19:39.358Z</time></trkpt><trkpt lat="39.6518583" lon="8.572075"><ele>65.0</ele><time>2026-04-21T08:19:40.359Z</time></trkpt><trkpt lat="39.65185" lon="8.57197"><ele>65.33333333333334</ele><time>2026-04-21T08:19:41.359Z</time></trkpt><trkpt lat="39.6518383" lon="8.5718667"><ele>65.66666666666667</ele><time>2026-04-21T08:19:42.359Z</time></trkpt><trkpt lat="39.6518167" lon="8.571765"><ele>66.0</ele><time>2026-04-21T08:19:43.358Z</time></trkpt><trkpt lat="39.651785" lon="8.571665"><ele>66.33333333333333</ele><time>2026-04-21T08:19:44.359Z</time></trkpt><trkpt lat="39.6517533" lon="8.5715583"><ele>66.66666666666666</ele><time>2026-04-21T08:19:45.358Z</time></trkpt><trkpt lat="39.6517117" lon="8.5714733"><ele>67.0</ele><time>2026-04-21T08:19:46.358Z</time></trkpt><trkpt lat="39.6516733" lon="8.5713867"><ele>67.0</ele><time>2026-04-21T08:19:47.359Z</time></trkpt><trkpt lat="39.6516383" lon="8.5712967"><ele>67.0</ele><time>2026-04-21T08:19:48.358Z</time></trkpt><trkpt lat="39.6516017" lon="8.571215"><ele>67.0</ele><time>2026-04-21T08:19:49.359Z</time></trkpt><trkpt lat="39.651565" lon="8.57113"><ele>67.0</ele><time>2026-04-21T08:19:50.359Z</time></trkpt><trkpt lat="39.6515283" lon="8.5710467"><ele>67.0</ele><time>2026-04-21T08:19:51.358Z</time></trkpt><trkpt lat="39.6514917" lon="8.5709733"><ele>67.0</ele><time>2026-04-21T08:19:52.358Z</time></trkpt><trkpt lat="39.6514583" lon="8.570895"><ele>67.0</ele><time>2026-04-21T08:19:53.359Z</time></trkpt><trkpt lat="39.6514267" lon="8.5708217"><ele>67.33333333333333</ele><time>2026-04-21T08:19:54.359Z</time></trkpt><trkpt lat="39.6513917" lon="8.57073"><ele>67.66666666666666</ele><time>2026-04-21T08:19:55.359Z</time></trkpt><trkpt lat="39.65135" lon="8.5706417"><ele>68.0</ele><time>2026-04-21T08:19:56.358Z</time></trkpt><trkpt lat="39.651315" lon="8.5705567"><ele>68.33333333333333</ele><time>2026-04-21T08:19:57.359Z</time></trkpt><trkpt lat="39.6512867" lon="8.5704783"><ele>68.66666666666667</ele><time>2026-04-21T08:19:58.358Z</time></trkpt><trkpt lat="39.6512483" lon="8.570345"><ele>69.0</ele><time>2026-04-21T08:20:00.359Z</time></trkpt><trkpt lat="39.6512117" lon="8.5702533"><ele>69.4</ele><time>2026-04-21T08:20:02.358Z</time></trkpt><trkpt lat="39.6511867" lon="8.5701617"><ele>69.80000000000001</ele><time>2026-04-21T08:20:28.359Z</time></trkpt><trkpt lat="39.6511783" lon="8.5699867"><ele>70.19999999999999</ele><time>2026-04-21T08:20:30.358Z</time></trkpt><trkpt lat="39.6511767" lon="8.5698783"><ele>70.6</ele><time>2026-04-21T08:20:31.358Z</time></trkpt><trkpt lat="39.6511717" lon="8.56975"><ele>71.0</ele><time>2026-04-21T08:20:32.358Z</time></trkpt><trkpt lat="39.65116" lon="8.56961"><ele>71.2</ele><time>2026-04-21T08:20:33.358Z</time></trkpt><trkpt lat="39.6511567" lon="8.5694583"><ele>71.39999999999999</ele><time>2026-04-21T08:20:34.358Z</time></trkpt><trkpt lat="39.6511633" lon="8.5693117"><ele>71.6</ele><time>2026-04-21T08:20:35.359Z</time></trkpt><trkpt lat="39.6511783" lon="8.569165"><ele>71.8</ele><time>2026-04-21T08:20:36.358Z</time></trkpt><trkpt lat="39.6511833" lon="8.5690383"><ele>72.0</ele><time>2026-04-21T08:20:37.359Z</time></trkpt><trkpt lat="39.6511767" lon="8.568915"><ele>72.0</ele><time>2026-04-21T08:20:38.359Z</time></trkpt><trkpt lat="39.6511467" lon="8.5688"><ele>72.0</ele><time>2026-04-21T08:20:39.358Z</time></trkpt><trkpt lat="39.6511067" lon="8.56869"><ele>72.0</ele><time>2026-04-21T08:20:40.359Z</time></trkpt><trkpt lat="39.6510567" lon="8.5685867"><ele>72.0</ele><time>2026-04-21T08:20:41.359Z</time></trkpt><trkpt lat="39.6510033" lon="8.5684717"><ele>72.0</ele><time>2026-04-21T08:20:42.358Z</time></trkpt><trkpt lat="39.6509533" lon="8.5683467"><ele>73.25</ele><time>2026-04-21T08:20:43.359Z</time></trkpt><trkpt lat="39.6508967" lon="8.5682083"><ele>74.5</ele><time>2026-04-21T08:20:44.358Z</time></trkpt><trkpt lat="39.6508383" lon="8.5680583"><ele>75.75</ele><time>2026-04-21T08:20:45.359Z</time></trkpt><trkpt lat="39.6507733" lon="8.5678983"><ele>77.0</ele><time>2026-04-21T08:20:46.359Z</time></trkpt><trkpt lat="39.6507" lon="8.5677283"><ele>78.0</ele><time>2026-04-21T08:20:47.359Z</time></trkpt><trkpt lat="39.6506317" lon="8.567555"><ele>79.0</ele><time>2026-04-21T08:20:48.359Z</time></trkpt><trkpt lat="39.6505617" lon="8.5673833"><ele>80.0</ele><time>2026-04-21T08:20:49.359Z</time></trkpt><trkpt lat="39.6504883" lon="8.5672033"><ele>81.33333333333334</ele><time>2026-04-21T08:20:50.358Z</time></trkpt><trkpt lat="39.65041" lon="8.5670167"><ele>82.66666666666667</ele><time>2026-04-21T08:20:51.359Z</time></trkpt><trkpt lat="39.6503283" lon="8.5668233"><ele>84.0</ele><time>2026-04-21T08:20:52.359Z</time></trkpt><trkpt lat="39.6502433" lon="8.566635"><ele>84.25</ele><time>2026-04-21T08:20:53.359Z</time></trkpt><trkpt lat="39.65017" lon="8.5664683"><ele>84.5</ele><time>2026-04-21T08:20:54.358Z</time></trkpt><trkpt lat="39.650105" lon="8.5663117"><ele>84.75</ele><time>2026-04-21T08:20:55.359Z</time></trkpt><trkpt lat="39.6500367" lon="8.566155"><ele>85.0</ele><time>2026-04-21T08:20:56.358Z</time></trkpt><trkpt lat="39.6499717" lon="8.5660067"><ele>85.75</ele><time>2026-04-21T08:20:57.358Z</time></trkpt><trkpt lat="39.6499" lon="8.56585"><ele>86.5</ele><time>2026-04-21T08:20:58.358Z</time></trkpt><trkpt lat="39.64984" lon="8.5657017"><ele>87.25</ele><time>2026-04-21T08:20:59.358Z</time></trkpt><trkpt lat="39.64978" lon="8.56556"><ele>88.0</ele><time>2026-04-21T08:21:00.358Z</time></trkpt><trkpt lat="39.64972" lon="8.5654283"><ele>88.75</ele><time>2026-04-21T08:21:01.359Z</time></trkpt><trkpt lat="39.64966" lon="8.565295"><ele>89.5</ele><time>2026-04-21T08:21:02.359Z</time></trkpt><trkpt lat="39.6495983" lon="8.5651517"><ele>90.25</ele><time>2026-04-21T08:21:03.358Z</time></trkpt><trkpt lat="39.64954" lon="8.5650183"><ele>91.0</ele><time>2026-04-21T08:21:04.359Z</time></trkpt><trkpt lat="39.6494783" lon="8.5648817"><ele>91.25</ele><time>2026-04-21T08:21:05.359Z</time></trkpt><trkpt lat="39.6494117" lon="8.564725"><ele>91.5</ele><time>2026-04-21T08:21:06.358Z</time></trkpt><trkpt lat="39.64935" lon="8.5645717"><ele>91.75</ele><time>2026-04-21T08:21:07.359Z</time></trkpt><trkpt lat="39.6492883" lon="8.564415"><ele>92.0</ele><time>2026-04-21T08:21:08.358Z</time></trkpt><trkpt lat="39.64923" lon="8.56425"><ele>92.75</ele><time>2026-04-21T08:21:09.359Z</time></trkpt><trkpt lat="39.6491717" lon="8.5640783"><ele>93.5</ele><time>2026-04-21T08:21:10.359Z</time></trkpt><trkpt lat="39.6491217" lon="8.5639133"><ele>94.25</ele><time>2026-04-21T08:21:11.359Z</time></trkpt><trkpt lat="39.6490717" lon="8.5637483"><ele>95.0</ele><time>2026-04-21T08:21:12.358Z</time></trkpt><trkpt lat="39.64902" lon="8.5635867"><ele>95.5</ele><time>2026-04-21T08:21:13.358Z</time></trkpt><trkpt lat="39.648965" lon="8.5634267"><ele>96.0</ele><time>2026-04-21T08:21:14.359Z</time></trkpt><trkpt lat="39.6488983" lon="8.5632617"><ele>96.5</ele><time>2026-04-21T08:21:15.358Z</time></trkpt><trkpt lat="39.648845" lon="8.5630817"><ele>97.0</ele><time>2026-04-21T08:21:16.359Z</time></trkpt><trkpt lat="39.648775" lon="8.562905"><ele>97.66666666666667</ele><time>2026-04-21T08:21:17.358Z</time></trkpt><trkpt lat="39.6487033" lon="8.562735"><ele>98.33333333333334</ele><time>2026-04-21T08:21:18.359Z</time></trkpt><trkpt lat="39.6486117" lon="8.56255"><ele>99.0</ele><time>2026-04-21T08:21:19.359Z</time></trkpt><trkpt lat="39.6485167" lon="8.5623717"><ele>99.0</ele><time>2026-04-21T08:21:20.358Z</time></trkpt><trkpt lat="39.648425" lon="8.56219"><ele>99.0</ele><time>2026-04-21T08:21:21.358Z</time></trkpt><trkpt lat="39.6483433" lon="8.5620117"><ele>99.0</ele><time>2026-04-21T08:21:22.359Z</time></trkpt><trkpt lat="39.6482733" lon="8.5618433"><ele>99.25</ele><time>2026-04-21T08:21:23.358Z</time></trkpt><trkpt lat="39.6482083" lon="8.56169"><ele>99.5</ele><time>2026-04-21T08:21:24.359Z</time></trkpt><trkpt lat="39.6481383" lon="8.5615383"><ele>99.75</ele><time>2026-04-21T08:21:25.359Z</time></trkpt><trkpt lat="39.6480633" lon="8.5614033"><ele>100.0</ele><time>2026-04-21T08:21:26.358Z</time></trkpt><trkpt lat="39.6479917" lon="8.5612767"><ele>101.5</ele><time>2026-04-21T08:21:27.358Z</time></trkpt><trkpt lat="39.6479317" lon="8.56115"><ele>103.0</ele><time>2026-04-21T08:21:28.359Z</time></trkpt><trkpt lat="39.6478783" lon="8.5610267"><ele>104.5</ele><time>2026-04-21T08:21:29.358Z</time></trkpt><trkpt lat="39.6478217" lon="8.5608917"><ele>106.0</ele><time>2026-04-21T08:21:30.359Z</time></trkpt><trkpt lat="39.6477583" lon="8.5607583"><ele>106.25</ele><time>2026-04-21T08:21:31.359Z</time></trkpt><trkpt lat="39.6476867" lon="8.56062"><ele>106.5</ele><time>2026-04-21T08:21:32.359Z</time></trkpt><trkpt lat="39.647625" lon="8.560485"><ele>106.75</ele><time>2026-04-21T08:21:33.358Z</time></trkpt><trkpt lat="39.6475633" lon="8.5603517"><ele>107.0</ele><time>2026-04-21T08:21:34.359Z</time></trkpt><trkpt lat="39.6475083" lon="8.5602433"><ele>107.66666666666666</ele><time>2026-04-21T08:21:35.359Z</time></trkpt><trkpt lat="39.647465" lon="8.560155"><ele>108.33333333333333</ele><time>2026-04-21T08:21:36.358Z</time></trkpt><trkpt lat="39.647405" lon="8.5600417"><ele>109.0</ele><time>2026-04-21T08:21:38.359Z</time></trkpt><trkpt lat="39.64732" lon="8.5600383"><ele>109.66666666666666</ele><time>2026-04-21T08:21:40.359Z</time></trkpt><trkpt lat="39.6472483" lon="8.5600633"><ele>110.33333333333333</ele><time>2026-04-21T08:21:42.358Z</time></trkpt><trkpt lat="39.6471733" lon="8.56009"><ele>111.0</ele><time>2026-04-21T08:33:27.356Z</time></trkpt><trkpt lat="39.6471083" lon="8.560035"><ele>111.0</ele><time>2026-04-21T08:33:29.357Z</time></trkpt><trkpt lat="39.647055" lon="8.559935"><ele>111.0</ele><time>2026-04-21T08:33:31.357Z</time></trkpt><trkpt lat="39.6469867" lon="8.5598033"><ele>111.0</ele><time>2026-04-21T08:33:33.356Z</time></trkpt><trkpt lat="39.646925" lon="8.5596683"><ele>111.0</ele><time>2026-04-21T08:33:35.357Z</time></trkpt><trkpt lat="39.6468933" lon="8.55959"><ele>111.0</ele><time>2026-04-21T08:33:36.356Z</time></trkpt><trkpt lat="39.6468567" lon="8.55951"><ele>113.16666666666667</ele><time>2026-04-21T08:33:37.357Z</time></trkpt><trkpt lat="39.6468267" lon="8.5594267"><ele>115.33333333333334</ele><time>2026-04-21T08:33:38.357Z</time></trkpt><trkpt lat="39.6467933" lon="8.559335"><ele>117.5</ele><time>2026-04-21T08:33:39.357Z</time></trkpt><trkpt lat="39.646765" lon="8.5592417"><ele>119.66666666666667</ele><time>2026-04-21T08:33:40.357Z</time></trkpt><trkpt lat="39.6467433" lon="8.5591533"><ele>121.83333333333334</ele><time>2026-04-21T08:33:41.357Z</time></trkpt><trkpt lat="39.6466733" lon="8.5590583"><ele>124.0</ele><time>2026-04-21T08:33:43.356Z</time></trkpt><trkpt lat="39.646565" lon="8.5590533"><ele>124.0</ele><time>2026-04-21T08:33:45.356Z</time></trkpt><trkpt lat="39.64646" lon="8.5591367"><ele>124.0</ele><time>2026-04-21T08:33:47.356Z</time></trkpt><trkpt lat="39.646425" lon="8.5592833"><ele>124.0</ele><time>2026-04-21T08:33:49.356Z</time></trkpt><trkpt lat="39.6464333" lon="8.5593767"><ele>124.0</ele><time>2026-04-21T08:33:50.356Z</time></trkpt><trkpt lat="39.646455" lon="8.5594867"><ele>124.0</ele><time>2026-04-21T08:33:51.356Z</time></trkpt><trkpt lat="39.6464783" lon="8.559595"><ele>124.16666666666667</ele><time>2026-04-21T08:33:52.356Z</time></trkpt><trkpt lat="39.6465033" lon="8.5597"><ele>124.33333333333334</ele><time>2026-04-21T08:33:53.356Z</time></trkpt><trkpt lat="39.6465167" lon="8.5598067"><ele>124.5</ele><time>2026-04-21T08:33:54.355Z</time></trkpt><trkpt lat="39.6465217" lon="8.5599067"><ele>124.66666666666666</ele><time>2026-04-21T08:33:55.356Z</time></trkpt><trkpt lat="39.646535" lon="8.5600233"><ele>124.83333333333333</ele><time>2026-04-21T08:33:56.356Z</time></trkpt><trkpt lat="39.646545" lon="8.5601467"><ele>125.0</ele><time>2026-04-21T08:33:57.356Z</time></trkpt><trkpt lat="39.6465483" lon="8.560275"><ele>125.6</ele><time>2026-04-21T08:33:58.355Z</time></trkpt><trkpt lat="39.6465533" lon="8.560405"><ele>126.2</ele><time>2026-04-21T08:33:59.356Z</time></trkpt><trkpt lat="39.6465467" lon="8.5605317"><ele>126.80000000000001</ele><time>2026-04-21T08:34:00.355Z</time></trkpt><trkpt lat="39.64654" lon="8.5606583"><ele>127.4</ele><time>2026-04-21T08:34:01.355Z</time></trkpt><trkpt lat="39.6465383" lon="8.5607783"><ele>128.0</ele><time>2026-04-21T08:34:02.356Z</time></trkpt><trkpt lat="39.64654" lon="8.560885"><ele>127.99999999999999</ele><time>2026-04-21T08:34:03.356Z</time></trkpt><trkpt lat="39.6465417" lon="8.5609817"><ele>128.0</ele><time>2026-04-21T08:34:04.356Z</time></trkpt><trkpt lat="39.6465267" lon="8.5610633"><ele>128.0</ele><time>2026-04-21T08:34:05.355Z</time></trkpt><trkpt lat="39.646485" lon="8.5611933"><ele>128.0</ele><time>2026-04-21T08:34:07.356Z</time></trkpt><trkpt lat="39.64641" lon="8.5612733"><ele>127.99999999999999</ele><time>2026-04-21T08:34:09.355Z</time></trkpt><trkpt lat="39.646315" lon="8.56127"><ele>128.0</ele><time>2026-04-21T08:34:11.356Z</time></trkpt><trkpt lat="39.6462517" lon="8.5611783"><ele>128.0</ele><time>2026-04-21T08:34:13.355Z</time></trkpt><trkpt lat="39.6462317" lon="8.561095"><ele>127.99999999999999</ele><time>2026-04-21T08:34:14.356Z</time></trkpt><trkpt lat="39.6462167" lon="8.561005"><ele>128.0</ele><time>2026-04-21T08:34:15.356Z</time></trkpt><trkpt lat="39.6462083" lon="8.5609183"><ele>128.0</ele><time>2026-04-21T08:34:16.356Z</time></trkpt><trkpt lat="39.6462167" lon="8.5608233"><ele>127.99999999999999</ele><time>2026-04-21T08:34:17.355Z</time></trkpt><trkpt lat="39.64623" lon="8.56073"><ele>128.0</ele><time>2026-04-21T08:34:18.356Z</time></trkpt><trkpt lat="39.6462383" lon="8.5606333"><ele>128.0</ele><time>2026-04-21T08:34:19.355Z</time></trkpt><trkpt lat="39.6462517" lon="8.5605283"><ele>128.0</ele><time>2026-04-21T08:34:20.355Z</time></trkpt><trkpt lat="39.64625" lon="8.5604083"><ele>128.0</ele><time>2026-04-21T08:34:21.355Z</time></trkpt><trkpt lat="39.64624" lon="8.560285"><ele>128.0</ele><time>2026-04-21T08:34:22.356Z</time></trkpt><trkpt lat="39.646225" lon="8.56018"><ele>128.0</ele><time>2026-04-21T08:34:23.355Z</time></trkpt><trkpt lat="39.6461867" lon="8.560045"><ele>128.0</ele><time>2026-04-21T08:34:25.356Z</time></trkpt><trkpt lat="39.6461383" lon="8.5599483"><ele>132.5</ele><time>2026-04-21T08:34:27.355Z</time></trkpt><trkpt lat="39.64608" lon="8.5598533"><ele>137.0</ele><time>2026-04-21T08:34:29.355Z</time></trkpt><trkpt lat="39.646035" lon="8.5597133"><ele>141.5</ele><time>2026-04-21T08:34:31.355Z</time></trkpt><trkpt lat="39.6460167" lon="8.5596283"><ele>146.0</ele><time>2026-04-21T08:34:32.355Z</time></trkpt><trkpt lat="39.646005" lon="8.5595383"><ele>150.5</ele><time>2026-04-21T08:34:33.356Z</time></trkpt><trkpt lat="39.6459933" lon="8.559455"><ele>155.0</ele><time>2026-04-21T08:34:34.355Z</time></trkpt><trkpt lat="39.6459667" lon="8.5593"><ele>155.0</ele><time>2026-04-21T08:34:36.355Z</time></trkpt><trkpt lat="39.6459417" lon="8.5592217"><ele>155.0</ele><time>2026-04-21T08:34:37.355Z</time></trkpt><trkpt lat="39.6459083" lon="8.5591433"><ele>155.0</ele><time>2026-04-21T08:34:38.356Z</time></trkpt><trkpt lat="39.645865" lon="8.5590567"><ele>155.0</ele><time>2026-04-21T08:34:39.355Z</time></trkpt><trkpt lat="39.6458217" lon="8.5589717"><ele>155.0</ele><time>2026-04-21T08:34:40.356Z</time></trkpt><trkpt lat="39.645775" lon="8.5588883"><ele>155.0</ele><time>2026-04-21T08:34:41.355Z</time></trkpt><trkpt lat="39.6457317" lon="8.5588233"><ele>155.0</ele><time>2026-04-21T08:34:42.355Z</time></trkpt><trkpt lat="39.64565" lon="8.5587433"><ele>153.6</ele><time>2026-04-21T08:34:44.355Z</time></trkpt><trkpt lat="39.6455417" lon="8.5586767"><ele>152.2</ele><time>2026-04-21T08:34:46.356Z</time></trkpt><trkpt lat="39.6454717" lon="8.558645"><ele>150.8</ele><time>2026-04-21T08:34:47.355Z</time></trkpt><trkpt lat="39.6454033" lon="8.55862"><ele>149.4</ele><time>2026-04-21T08:34:48.355Z</time></trkpt><trkpt lat="39.6453417" lon="8.5585883"><ele>148.0</ele><time>2026-04-21T08:34:49.355Z</time></trkpt><trkpt lat="39.6452517" lon="8.5584867"><ele>153.16666666666669</ele><time>2026-04-21T08:34:51.355Z</time></trkpt><trkpt lat="39.6452233" lon="8.5584067"><ele>158.33333333333334</ele><time>2026-04-21T08:34:52.355Z</time></trkpt><trkpt lat="39.645195" lon="8.5583067"><ele>163.5</ele><time>2026-04-21T08:34:53.356Z</time></trkpt><trkpt lat="39.6451683" lon="8.55821"><ele>168.66666666666666</ele><time>2026-04-21T08:34:54.355Z</time></trkpt><trkpt lat="39.6451383" lon="8.5581117"><ele>173.83333333333331</ele><time>2026-04-21T08:34:55.355Z</time></trkpt><trkpt lat="39.6451" lon="8.5580217"><ele>179.0</ele><time>2026-04-21T08:34:56.356Z</time></trkpt><trkpt lat="39.6450533" lon="8.55794"><ele>178.16666666666666</ele><time>2026-04-21T08:34:57.355Z</time></trkpt><trkpt lat="39.6449933" lon="8.55786"><ele>177.33333333333331</ele><time>2026-04-21T08:34:58.356Z</time></trkpt><trkpt lat="39.64493" lon="8.55778"><ele>176.5</ele><time>2026-04-21T08:34:59.356Z</time></trkpt><trkpt lat="39.6448717" lon="8.5577"><ele>175.66666666666666</ele><time>2026-04-21T08:35:00.355Z</time></trkpt><trkpt lat="39.6448183" lon="8.5576333"><ele>174.83333333333334</ele><time>2026-04-21T08:35:01.355Z</time></trkpt><trkpt lat="39.6447767" lon="8.5575717"><ele>174.0</ele><time>2026-04-21T08:35:02.355Z</time></trkpt><trkpt lat="39.644725" lon="8.557445"><ele>174.0</ele><time>2026-04-21T08:35:04.355Z</time></trkpt><trkpt lat="39.6447083" lon="8.5573617"><ele>174.0</ele><time>2026-04-21T08:35:05.355Z</time></trkpt><trkpt lat="39.644705" lon="8.55727"><ele>174.0</ele><time>2026-04-21T08:35:06.355Z</time></trkpt><trkpt lat="39.6446983" lon="8.5571683"><ele>174.0</ele><time>2026-04-21T08:35:07.355Z</time></trkpt><trkpt lat="39.6446867" lon="8.5570683"><ele>174.0</ele><time>2026-04-21T08:35:08.356Z</time></trkpt><trkpt lat="39.6446683" lon="8.556975"><ele>174.0</ele><time>2026-04-21T08:35:09.356Z</time></trkpt><trkpt lat="39.644645" lon="8.556885"><ele>174.0</ele><time>2026-04-21T08:35:10.355Z</time></trkpt><trkpt lat="39.6446167" lon="8.5568117"><ele>173.16666666666666</ele><time>2026-04-21T08:35:11.356Z</time></trkpt><trkpt lat="39.644575" lon="8.55675"><ele>172.33333333333334</ele><time>2026-04-21T08:35:12.355Z</time></trkpt><trkpt lat="39.6445233" lon="8.556695"><ele>171.5</ele><time>2026-04-21T08:35:13.356Z</time></trkpt><trkpt lat="39.6444617" lon="8.556635"><ele>170.66666666666669</ele><time>2026-04-21T08:35:14.356Z</time></trkpt><trkpt lat="39.6443933" lon="8.5565717"><ele>169.83333333333334</ele><time>2026-04-21T08:35:15.356Z</time></trkpt><trkpt lat="39.64433" lon="8.556505"><ele>169.0</ele><time>2026-04-21T08:35:16.355Z</time></trkpt><trkpt lat="39.6442583" lon="8.5564433"><ele>171.83333333333334</ele><time>2026-04-21T08:35:17.355Z</time></trkpt><trkpt lat="39.6441817" lon="8.55638"><ele>174.66666666666669</ele><time>2026-04-21T08:35:18.355Z</time></trkpt><trkpt lat="39.644105" lon="8.5563183"><ele>177.5</ele><time>2026-04-21T08:35:19.355Z</time></trkpt><trkpt lat="39.6440217" lon="8.5562583"><ele>180.33333333333334</ele><time>2026-04-21T08:35:20.356Z</time></trkpt><trkpt lat="39.6439467" lon="8.5562"><ele>183.16666666666666</ele><time>2026-04-21T08:35:21.355Z</time></trkpt><trkpt lat="39.6438733" lon="8.5561517"><ele>186.0</ele><time>2026-04-21T08:35:22.355Z</time></trkpt><trkpt lat="39.64381" lon="8.5561033"><ele>186.0</ele><time>2026-04-21T08:35:23.356Z</time></trkpt><trkpt lat="39.64375" lon="8.5560517"><ele>186.0</ele><time>2026-04-21T08:35:24.356Z</time></trkpt><trkpt lat="39.6437" lon="8.5559933"><ele>186.0</ele><time>2026-04-21T08:35:25.355Z</time></trkpt><trkpt lat="39.6436467" lon="8.5559267"><ele>186.0</ele><time>2026-04-21T08:35:26.356Z</time></trkpt><trkpt lat="39.6435917" lon="8.5558083"><ele>186.0</ele><time>2026-04-21T08:35:28.356Z</time></trkpt><trkpt lat="39.6435733" lon="8.5556783"><ele>186.0</ele><time>2026-04-21T08:35:30.356Z</time></trkpt><trkpt lat="39.64362" lon="8.5555367"><ele>186.0</ele><time>2026-04-21T08:35:32.355Z</time></trkpt><trkpt lat="39.6436633" lon="8.555465"><ele>186.0</ele><time>2026-04-21T08:35:33.356Z</time></trkpt><trkpt lat="39.6437183" lon="8.5553967"><ele>186.0</ele><time>2026-04-21T08:35:34.355Z</time></trkpt><trkpt lat="39.64377" lon="8.5553333"><ele>186.0</ele><time>2026-04-21T08:35:35.356Z</time></trkpt><trkpt lat="39.643825" lon="8.55526"><ele>186.0</ele><time>2026-04-21T08:35:36.356Z</time></trkpt><trkpt lat="39.64387" lon="8.5551733"><ele>186.0</ele><time>2026-04-21T08:35:37.355Z</time></trkpt><trkpt lat="39.6439083" lon="8.55508"><ele>187.33333333333334</ele><time>2026-04-21T08:35:38.355Z</time></trkpt><trkpt lat="39.6439417" lon="8.55498"><ele>188.66666666666669</ele><time>2026-04-21T08:35:39.356Z</time></trkpt><trkpt lat="39.6439617" lon="8.5548683"><ele>190.0</ele><time>2026-04-21T08:35:40.356Z</time></trkpt><trkpt lat="39.6439683" lon="8.554755"><ele>191.33333333333334</ele><time>2026-04-21T08:35:41.356Z</time></trkpt><trkpt lat="39.6439667" lon="8.5546417"><ele>192.66666666666669</ele><time>2026-04-21T08:35:42.356Z</time></trkpt><trkpt lat="39.6439567" lon="8.554525"><ele>194.0</ele><time>2026-04-21T08:35:43.356Z</time></trkpt><trkpt lat="39.643945" lon="8.554405"><ele>195.6</ele><time>2026-04-21T08:35:44.356Z</time></trkpt><trkpt lat="39.6439367" lon="8.5542767"><ele>197.2</ele><time>2026-04-21T08:35:45.355Z</time></trkpt><trkpt lat="39.64393" lon="8.55415"><ele>198.79999999999998</ele><time>2026-04-21T08:35:46.356Z</time></trkpt><trkpt lat="39.6439183" lon="8.554025"><ele>200.39999999999998</ele><time>2026-04-21T08:35:47.355Z</time></trkpt><trkpt lat="39.643905" lon="8.5539067"><ele>202.0</ele><time>2026-04-21T08:35:48.356Z</time></trkpt><trkpt lat="39.6439017" lon="8.55378"><ele>202.0</ele><time>2026-04-21T08:35:49.355Z</time></trkpt><trkpt lat="39.6438867" lon="8.5536633"><ele>202.0</ele><time>2026-04-21T08:35:50.355Z</time></trkpt><trkpt lat="39.6438617" lon="8.5535517"><ele>202.0</ele><time>2026-04-21T08:35:51.355Z</time></trkpt><trkpt lat="39.6438333" lon="8.55344"><ele>202.0</ele><time>2026-04-21T08:35:52.356Z</time></trkpt><trkpt lat="39.6437933" lon="8.5533317"><ele>202.0</ele><time>2026-04-21T08:35:53.356Z</time></trkpt><trkpt lat="39.6437533" lon="8.5532317"><ele>201.99999999999997</ele><time>2026-04-21T08:35:54.355Z</time></trkpt><trkpt lat="39.6437033" lon="8.5531383"><ele>202.0</ele><time>2026-04-21T08:35:55.356Z</time></trkpt><trkpt lat="39.643665" lon="8.5530533"><ele>202.0</ele><time>2026-04-21T08:35:56.356Z</time></trkpt><trkpt lat="39.6436283" lon="8.55296"><ele>202.0</ele><time>2026-04-21T08:35:57.356Z</time></trkpt><trkpt lat="39.64361" lon="8.552875"><ele>201.99999999999997</ele><time>2026-04-21T08:35:58.356Z</time></trkpt><trkpt lat="39.6436033" lon="8.552785"><ele>202.0</ele><time>2026-04-21T08:35:59.356Z</time></trkpt><trkpt lat="39.6436033" lon="8.55269"><ele>207.66666666666666</ele><time>2026-04-21T08:36:00.356Z</time></trkpt><trkpt lat="39.6435967" lon="8.5525867"><ele>213.33333333333331</ele><time>2026-04-21T08:36:01.356Z</time></trkpt><trkpt lat="39.6435833" lon="8.5524867"><ele>219.0</ele><time>2026-04-21T08:36:02.355Z</time></trkpt><trkpt lat="39.643565" lon="8.5523933"><ele>224.66666666666669</ele><time>2026-04-21T08:36:03.355Z</time></trkpt><trkpt lat="39.6435433" lon="8.552315"><ele>230.33333333333334</ele><time>2026-04-21T08:36:04.355Z</time></trkpt><trkpt lat="39.643525" lon="8.5522367"><ele>236.0</ele><time>2026-04-21T08:36:05.355Z</time></trkpt><trkpt lat="39.64356" lon="8.5520833"><ele>237.66666666666669</ele><time>2026-04-21T08:36:07.355Z</time></trkpt><trkpt lat="39.6436033" lon="8.5520017"><ele>239.33333333333334</ele><time>2026-04-21T08:36:08.356Z</time></trkpt><trkpt lat="39.6436567" lon="8.551915"><ele>241.0</ele><time>2026-04-21T08:36:09.356Z</time></trkpt><trkpt lat="39.6437133" lon="8.5518383"><ele>242.66666666666669</ele><time>2026-04-21T08:36:10.355Z</time></trkpt><trkpt lat="39.6437667" lon="8.5517583"><ele>244.33333333333334</ele><time>2026-04-21T08:36:11.356Z</time></trkpt><trkpt lat="39.64381" lon="8.551665"><ele>246.0</ele><time>2026-04-21T08:36:12.355Z</time></trkpt><trkpt lat="39.64383" lon="8.55156"><ele>244.66666666666666</ele><time>2026-04-21T08:36:13.355Z</time></trkpt><trkpt lat="39.64384" lon="8.5514567"><ele>243.33333333333331</ele><time>2026-04-21T08:36:14.356Z</time></trkpt><trkpt lat="39.64384" lon="8.55135"><ele>242.0</ele><time>2026-04-21T08:36:15.355Z</time></trkpt><trkpt lat="39.6438283" lon="8.5512467"><ele>240.66666666666666</ele><time>2026-04-21T08:36:16.355Z</time></trkpt><trkpt lat="39.643815" lon="8.5511517"><ele>239.33333333333331</ele><time>2026-04-21T08:36:17.356Z</time></trkpt><trkpt lat="39.6438017" lon="8.551065"><ele>238.0</ele><time>2026-04-21T08:36:18.355Z</time></trkpt><trkpt lat="39.6438017" lon="8.55091"><ele>237.99999999999997</ele><time>2026-04-21T08:36:20.356Z</time></trkpt><trkpt lat="39.6438267" lon="8.5508333"><ele>238.0</ele><time>2026-04-21T08:36:21.356Z</time></trkpt><trkpt lat="39.6438667" lon="8.5507483"><ele>238.0</ele><time>2026-04-21T08:36:22.356Z</time></trkpt><trkpt lat="39.6439133" lon="8.550665"><ele>238.0</ele><time>2026-04-21T08:36:23.356Z</time></trkpt><trkpt lat="39.6439617" lon="8.5505767"><ele>237.99999999999997</ele><time>2026-04-21T08:36:24.355Z</time></trkpt><trkpt lat="39.6440133" lon="8.55049"><ele>238.0</ele><time>2026-04-21T08:36:25.355Z</time></trkpt><trkpt lat="39.6440717" lon="8.5504"><ele>240.16666666666666</ele><time>2026-04-21T08:36:26.356Z</time></trkpt><trkpt lat="39.6441333" lon="8.5503067"><ele>242.33333333333331</ele><time>2026-04-21T08:36:27.356Z</time></trkpt><trkpt lat="39.6441833" lon="8.5502183"><ele>244.5</ele><time>2026-04-21T08:36:28.356Z</time></trkpt><trkpt lat="39.6442317" lon="8.5501433"><ele>246.66666666666669</ele><time>2026-04-21T08:36:29.356Z</time></trkpt><trkpt lat="39.6442817" lon="8.5500617"><ele>248.83333333333334</ele><time>2026-04-21T08:36:30.356Z</time></trkpt><trkpt lat="39.6443267" lon="8.5499767"><ele>251.0</ele><time>2026-04-21T08:36:31.356Z</time></trkpt><trkpt lat="39.6443733" lon="8.549895"><ele>251.0</ele><time>2026-04-21T08:36:32.356Z</time></trkpt><trkpt lat="39.6444033" lon="8.54982"><ele>251.00000000000003</ele><time>2026-04-21T08:36:33.356Z</time></trkpt><trkpt lat="39.6444367" lon="8.5496817"><ele>251.00000000000003</ele><time>2026-04-21T08:36:35.355Z</time></trkpt><trkpt lat="39.6444433" lon="8.549495"><ele>251.0</ele><time>2026-04-21T08:36:37.356Z</time></trkpt><trkpt lat="39.644435" lon="8.5493767"><ele>251.0</ele><time>2026-04-21T08:36:38.355Z</time></trkpt><trkpt lat="39.6444233" lon="8.54925"><ele>253.75</ele><time>2026-04-21T08:36:39.356Z</time></trkpt><trkpt lat="39.6444117" lon="8.54911"><ele>256.5</ele><time>2026-04-21T08:36:40.355Z</time></trkpt><trkpt lat="39.64441" lon="8.5489583"><ele>259.25</ele><time>2026-04-21T08:36:41.356Z</time></trkpt><trkpt lat="39.644415" lon="8.5488067"><ele>262.0</ele><time>2026-04-21T08:36:42.356Z</time></trkpt><trkpt lat="39.64441" lon="8.548665"><ele>262.2</ele><time>2026-04-21T08:36:43.356Z</time></trkpt><trkpt lat="39.6444117" lon="8.5485233"><ele>262.4</ele><time>2026-04-21T08:36:44.355Z</time></trkpt><trkpt lat="39.6444083" lon="8.5483933"><ele>262.6</ele><time>2026-04-21T08:36:45.355Z</time></trkpt><trkpt lat="39.6444067" lon="8.5482667"><ele>262.8</ele><time>2026-04-21T08:36:46.355Z</time></trkpt><trkpt lat="39.6444117" lon="8.5481383"><ele>263.0</ele><time>2026-04-21T08:36:47.356Z</time></trkpt><trkpt lat="39.64442" lon="8.5480083"><ele>263.0</ele><time>2026-04-21T08:36:48.356Z</time></trkpt><trkpt lat="39.6444167" lon="8.5478867"><ele>263.0</ele><time>2026-04-21T08:36:49.356Z</time></trkpt><trkpt lat="39.6444017" lon="8.5477667"><ele>263.0</ele><time>2026-04-21T08:36:50.355Z</time></trkpt><trkpt lat="39.6443833" lon="8.5476633"><ele>263.0</ele><time>2026-04-21T08:36:51.356Z</time></trkpt><trkpt lat="39.6443433" lon="8.54757"><ele>263.0</ele><time>2026-04-21T08:36:52.356Z</time></trkpt><trkpt lat="39.6442883" lon="8.5475017"><ele>263.0</ele><time>2026-04-21T08:36:53.355Z</time></trkpt><trkpt lat="39.644225" lon="8.5474417"><ele>261.5</ele><time>2026-04-21T08:36:54.355Z</time></trkpt><trkpt lat="39.6441517" lon="8.5473933"><ele>260.0</ele><time>2026-04-21T08:36:55.356Z</time></trkpt><trkpt lat="39.6440833" lon="8.54735"><ele>258.5</ele><time>2026-04-21T08:36:56.356Z</time></trkpt><trkpt lat="39.644015" lon="8.547325"><ele>257.0</ele><time>2026-04-21T08:36:57.356Z</time></trkpt><trkpt lat="39.6439517" lon="8.547295"><ele>255.50000000000003</ele><time>2026-04-21T08:36:58.356Z</time></trkpt><trkpt lat="39.6438417" lon="8.54723"><ele>254.0</ele><time>2026-04-21T08:37:00.356Z</time></trkpt><trkpt lat="39.6437633" lon="8.547125"><ele>252.33333333333334</ele><time>2026-04-21T08:37:02.356Z</time></trkpt><trkpt lat="39.643745" lon="8.5470417"><ele>250.66666666666669</ele><time>2026-04-21T08:37:03.356Z</time></trkpt><trkpt lat="39.643755" lon="8.5469483"><ele>249.0</ele><time>2026-04-21T08:37:04.355Z</time></trkpt><trkpt lat="39.6437767" lon="8.5468483"><ele>247.33333333333331</ele><time>2026-04-21T08:37:05.356Z</time></trkpt><trkpt lat="39.64383" lon="8.54675"><ele>245.66666666666666</ele><time>2026-04-21T08:37:06.356Z</time></trkpt><trkpt lat="39.6438933" lon="8.5466633"><ele>244.0</ele><time>2026-04-21T08:37:07.356Z</time></trkpt><trkpt lat="39.6439583" lon="8.5465683"><ele>243.99999999999997</ele><time>2026-04-21T08:37:08.355Z</time></trkpt><trkpt lat="39.6439983" lon="8.5464717"><ele>244.0</ele><time>2026-04-21T08:37:09.355Z</time></trkpt><trkpt lat="39.6440067" lon="8.5463633"><ele>244.0</ele><time>2026-04-21T08:37:10.356Z</time></trkpt><trkpt lat="39.6439917" lon="8.5462533"><ele>244.0</ele><time>2026-04-21T08:37:11.356Z</time></trkpt><trkpt lat="39.6439533" lon="8.54615"><ele>243.99999999999997</ele><time>2026-04-21T08:37:12.356Z</time></trkpt><trkpt lat="39.6439033" lon="8.54605"><ele>244.0</ele><time>2026-04-21T08:37:13.355Z</time></trkpt><trkpt lat="39.6438433" lon="8.5459633"><ele>243.83333333333331</ele><time>2026-04-21T08:37:14.356Z</time></trkpt><trkpt lat="39.64378" lon="8.545885"><ele>243.66666666666666</ele><time>2026-04-21T08:37:15.355Z</time></trkpt><trkpt lat="39.6437267" lon="8.5458167"><ele>243.5</ele><time>2026-04-21T08:37:16.356Z</time></trkpt><trkpt lat="39.6436867" lon="8.5457517"><ele>243.33333333333331</ele><time>2026-04-21T08:37:17.355Z</time></trkpt><trkpt lat="39.6436367" lon="8.5456417"><ele>243.16666666666666</ele><time>2026-04-21T08:37:19.356Z</time></trkpt><trkpt lat="39.6436717" lon="8.5455217"><ele>243.0</ele><time>2026-04-21T08:37:21.355Z</time></trkpt><trkpt lat="39.6437817" lon="8.545445"><ele>243.0</ele><time>2026-04-21T08:37:23.356Z</time></trkpt><trkpt lat="39.6438683" lon="8.5454133"><ele>243.0</ele><time>2026-04-21T08:37:24.356Z</time></trkpt><trkpt lat="39.6439517" lon="8.54538"><ele>243.0</ele><time>2026-04-21T08:37:25.355Z</time></trkpt><trkpt lat="39.6440267" lon="8.5453317"><ele>243.0</ele><time>2026-04-21T08:37:26.356Z</time></trkpt><trkpt lat="39.6440867" lon="8.5452767"><ele>243.0</ele><time>2026-04-21T08:37:27.355Z</time></trkpt><trkpt lat="39.6441367" lon="8.5451967"><ele>243.0</ele><time>2026-04-21T08:37:28.356Z</time></trkpt><trkpt lat="39.6441633" lon="8.54511"><ele>245.0</ele><time>2026-04-21T08:37:29.356Z</time></trkpt><trkpt lat="39.64417" lon="8.545015"><ele>247.0</ele><time>2026-04-21T08:37:30.356Z</time></trkpt><trkpt lat="39.6441517" lon="8.5449133"><ele>249.0</ele><time>2026-04-21T08:37:31.355Z</time></trkpt><trkpt lat="39.6441267" lon="8.5448217"><ele>251.0</ele><time>2026-04-21T08:37:32.355Z</time></trkpt><trkpt lat="39.6441067" lon="8.5447333"><ele>253.0</ele><time>2026-04-21T08:37:33.356Z</time></trkpt><trkpt lat="39.644145" lon="8.5446083"><ele>255.0</ele><time>2026-04-21T08:37:35.356Z</time></trkpt><trkpt lat="39.64428" lon="8.5445867"><ele>255.0</ele><time>2026-04-21T08:37:37.356Z</time></trkpt><trkpt lat="39.6443767" lon="8.5446167"><ele>255.0</ele><time>2026-04-21T08:37:38.355Z</time></trkpt><trkpt lat="39.6444867" lon="8.5446567"><ele>255.0</ele><time>2026-04-21T08:37:39.355Z</time></trkpt><trkpt lat="39.6445817" lon="8.54468"><ele>255.0</ele><time>2026-04-21T08:37:40.355Z</time></trkpt><trkpt lat="39.644665" lon="8.544685"><ele>255.0</ele><time>2026-04-21T08:37:41.355Z</time></trkpt><trkpt lat="39.6447333" lon="8.5446667"><ele>255.5</ele><time>2026-04-21T08:37:42.356Z</time></trkpt><trkpt lat="39.6448" lon="8.5446333"><ele>256.0</ele><time>2026-04-21T08:37:43.355Z</time></trkpt><trkpt lat="39.644865" lon="8.5445833"><ele>256.5</ele><time>2026-04-21T08:37:44.355Z</time></trkpt><trkpt lat="39.6449267" lon="8.5445183"><ele>257.0</ele><time>2026-04-21T08:37:45.356Z</time></trkpt><trkpt lat="39.6449767" lon="8.5444467"><ele>257.5</ele><time>2026-04-21T08:37:46.355Z</time></trkpt><trkpt lat="39.6450217" lon="8.54436"><ele>258.0</ele><time>2026-04-21T08:37:47.356Z</time></trkpt><trkpt lat="39.6450617" lon="8.5442617"><ele>258.0</ele><time>2026-04-21T08:37:48.355Z</time></trkpt><trkpt lat="39.6450967" lon="8.5441483"><ele>258.0</ele><time>2026-04-21T08:37:49.355Z</time></trkpt><trkpt lat="39.6451417" lon="8.5440317"><ele>258.0</ele><time>2026-04-21T08:37:50.356Z</time></trkpt><trkpt lat="39.6451783" lon="8.5439133"><ele>258.0</ele><time>2026-04-21T08:37:51.356Z</time></trkpt><trkpt lat="39.6452183" lon="8.5437917"><ele>258.0</ele><time>2026-04-21T08:37:52.355Z</time></trkpt><trkpt lat="39.64525" lon="8.543675"><ele>255.8</ele><time>2026-04-21T08:37:53.356Z</time></trkpt><trkpt lat="39.645275" lon="8.5435517"><ele>253.60000000000002</ele><time>2026-04-21T08:37:54.355Z</time></trkpt><trkpt lat="39.6452967" lon="8.54342"><ele>251.39999999999998</ele><time>2026-04-21T08:37:55.356Z</time></trkpt><trkpt lat="39.6453133" lon="8.5432917"><ele>249.2</ele><time>2026-04-21T08:37:56.355Z</time></trkpt><trkpt lat="39.6453367" lon="8.5431733"><ele>247.0</ele><time>2026-04-21T08:37:57.356Z</time></trkpt><trkpt lat="39.645365" lon="8.543065"><ele>246.99999999999997</ele><time>2026-04-21T08:37:58.356Z</time></trkpt><trkpt lat="39.6453967" lon="8.5429667"><ele>247.0</ele><time>2026-04-21T08:37:59.355Z</time></trkpt><trkpt lat="39.645435" lon="8.542875"><ele>247.0</ele><time>2026-04-21T08:38:00.356Z</time></trkpt><trkpt lat="39.64548" lon="8.5427733"><ele>247.0</ele><time>2026-04-21T08:38:01.355Z</time></trkpt><trkpt lat="39.645525" lon="8.54266"><ele>246.99999999999997</ele><time>2026-04-21T08:38:02.356Z</time></trkpt><trkpt lat="39.6455717" lon="8.54255"><ele>247.0</ele><time>2026-04-21T08:38:03.355Z</time></trkpt><trkpt lat="39.64562" lon="8.5424517"><ele>249.66666666666666</ele><time>2026-04-21T08:38:04.356Z</time></trkpt><trkpt lat="39.6456733" lon="8.54239"><ele>252.33333333333331</ele><time>2026-04-21T08:38:05.355Z</time></trkpt><trkpt lat="39.6457367" lon="8.54234"><ele>255.0</ele><time>2026-04-21T08:38:06.356Z</time></trkpt><trkpt lat="39.6457933" lon="8.5422933"><ele>257.6666666666667</ele><time>2026-04-21T08:38:07.355Z</time></trkpt><trkpt lat="39.6459083" lon="8.5422733"><ele>260.33333333333337</ele><time>2026-04-21T08:38:09.356Z</time></trkpt><trkpt lat="39.646" lon="8.5423233"><ele>263.0</ele><time>2026-04-21T08:38:11.356Z</time></trkpt><trkpt lat="39.6460317" lon="8.542465"><ele>263.0</ele><time>2026-04-21T08:38:13.355Z</time></trkpt><trkpt lat="39.6460333" lon="8.5425733"><ele>263.0</ele><time>2026-04-21T08:38:14.356Z</time></trkpt><trkpt lat="39.6460383" lon="8.5426917"><ele>263.0</ele><time>2026-04-21T08:38:15.356Z</time></trkpt><trkpt lat="39.6460483" lon="8.5428167"><ele>263.0</ele><time>2026-04-21T08:38:16.355Z</time></trkpt><trkpt lat="39.6460633" lon="8.5429417"><ele>263.0</ele><time>2026-04-21T08:38:17.355Z</time></trkpt><trkpt lat="39.6460833" lon="8.5430567"><ele>259.8</ele><time>2026-04-21T08:38:18.355Z</time></trkpt><trkpt lat="39.64611" lon="8.543165"><ele>256.6</ele><time>2026-04-21T08:38:19.355Z</time></trkpt><trkpt lat="39.6461533" lon="8.5432667"><ele>253.39999999999998</ele><time>2026-04-21T08:38:20.355Z</time></trkpt><trkpt lat="39.6462" lon="8.5433667"><ele>250.2</ele><time>2026-04-21T08:38:21.355Z</time></trkpt><trkpt lat="39.64625" lon="8.54347"><ele>247.0</ele><time>2026-04-21T08:38:22.354Z</time></trkpt><trkpt lat="39.6462933" lon="8.5435817"><ele>248.33333333333331</ele><time>2026-04-21T08:38:23.354Z</time></trkpt><trkpt lat="39.6463467" lon="8.5436917"><ele>249.66666666666666</ele><time>2026-04-21T08:38:24.354Z</time></trkpt><trkpt lat="39.6464017" lon="8.5438017"><ele>251.0</ele><time>2026-04-21T08:38:25.354Z</time></trkpt><trkpt lat="39.6464467" lon="8.5438883"><ele>252.33333333333331</ele><time>2026-04-21T08:38:26.355Z</time></trkpt><trkpt lat="39.646485" lon="8.5439733"><ele>253.66666666666666</ele><time>2026-04-21T08:38:27.354Z</time></trkpt><trkpt lat="39.6465183" lon="8.5440533"><ele>255.0</ele><time>2026-04-21T08:38:28.354Z</time></trkpt><trkpt lat="39.6465567" lon="8.5441283"><ele>255.0</ele><time>2026-04-21T08:38:29.354Z</time></trkpt><trkpt lat="39.6466" lon="8.5442017"><ele>255.00000000000003</ele><time>2026-04-21T08:38:30.354Z</time></trkpt><trkpt lat="39.64665" lon="8.544265"><ele>255.0</ele><time>2026-04-21T08:38:31.354Z</time></trkpt><trkpt lat="39.6467117" lon="8.5443183"><ele>255.0</ele><time>2026-04-21T08:38:32.355Z</time></trkpt><trkpt lat="39.6467817" lon="8.5443533"><ele>255.00000000000003</ele><time>2026-04-21T08:38:33.354Z</time></trkpt><trkpt lat="39.6468567" lon="8.5443817"><ele>255.0</ele><time>2026-04-21T08:38:34.354Z</time></trkpt><trkpt lat="39.646935" lon="8.544395"><ele>255.0</ele><time>2026-04-21T08:38:35.355Z</time></trkpt><trkpt lat="39.6470183" lon="8.544395"><ele>255.5</ele><time>2026-04-21T08:38:36.354Z</time></trkpt><trkpt lat="39.647105" lon="8.5443817"><ele>256.0</ele><time>2026-04-21T08:38:37.355Z</time></trkpt><trkpt lat="39.6471883" lon="8.5443817"><ele>256.5</ele><time>2026-04-21T08:38:38.354Z</time></trkpt><trkpt lat="39.647265" lon="8.5443967"><ele>257.0</ele><time>2026-04-21T08:38:39.355Z</time></trkpt><trkpt lat="39.6473217" lon="8.5444467"><ele>257.5</ele><time>2026-04-21T08:38:40.355Z</time></trkpt><trkpt lat="39.6473667" lon="8.5445217"><ele>258.0</ele><time>2026-04-21T08:38:41.354Z</time></trkpt><trkpt lat="39.647405" lon="8.5446217"><ele>258.0</ele><time>2026-04-21T08:38:42.354Z</time></trkpt><trkpt lat="39.6474433" lon="8.54474"><ele>258.0</ele><time>2026-04-21T08:38:43.355Z</time></trkpt><trkpt lat="39.6474817" lon="8.544865"><ele>258.0</ele><time>2026-04-21T08:38:44.355Z</time></trkpt><trkpt lat="39.6475217" lon="8.544985"><ele>258.0</ele><time>2026-04-21T08:38:45.355Z</time></trkpt><trkpt lat="39.64755" lon="8.5450917"><ele>258.0</ele><time>2026-04-21T08:38:46.355Z</time></trkpt><trkpt lat="39.6475667" lon="8.5451967"><ele>258.0</ele><time>2026-04-21T08:38:47.354Z</time></trkpt><trkpt lat="39.64757" lon="8.5453"><ele>258.0</ele><time>2026-04-21T08:38:48.355Z</time></trkpt><trkpt lat="39.6475567" lon="8.545405"><ele>258.0</ele><time>2026-04-21T08:38:49.354Z</time></trkpt><trkpt lat="39.6475417" lon="8.5455083"><ele>258.0</ele><time>2026-04-21T08:38:50.355Z</time></trkpt><trkpt lat="39.6475417" lon="8.5456183"><ele>258.0</ele><time>2026-04-21T08:38:51.355Z</time></trkpt><trkpt lat="39.647555" lon="8.5457217"><ele>258.0</ele><time>2026-04-21T08:38:52.355Z</time></trkpt><trkpt lat="39.6475867" lon="8.5458233"><ele>256.6</ele><time>2026-04-21T08:38:53.354Z</time></trkpt><trkpt lat="39.6476367" lon="8.54592"><ele>255.20000000000002</ele><time>2026-04-21T08:38:54.355Z</time></trkpt><trkpt lat="39.6476933" lon="8.546015"><ele>253.8</ele><time>2026-04-21T08:38:55.354Z</time></trkpt><trkpt lat="39.6477533" lon="8.546125"><ele>252.4</ele><time>2026-04-21T08:38:56.354Z</time></trkpt><trkpt lat="39.6478133" lon="8.5462433"><ele>251.0</ele><time>2026-04-21T08:38:57.355Z</time></trkpt><trkpt lat="39.64787" lon="8.54635"><ele>251.00000000000003</ele><time>2026-04-21T08:38:58.354Z</time></trkpt><trkpt lat="39.6479183" lon="8.54645"><ele>251.0</ele><time>2026-04-21T08:38:59.355Z</time></trkpt><trkpt lat="39.6479633" lon="8.5465433"><ele>251.0</ele><time>2026-04-21T08:39:00.355Z</time></trkpt><trkpt lat="39.6480067" lon="8.546625"><ele>251.0</ele><time>2026-04-21T08:39:01.355Z</time></trkpt><trkpt lat="39.6480567" lon="8.54669"><ele>251.00000000000003</ele><time>2026-04-21T08:39:02.355Z</time></trkpt><trkpt lat="39.6481133" lon="8.5467417"><ele>251.0</ele><time>2026-04-21T08:39:03.354Z</time></trkpt><trkpt lat="39.64818" lon="8.5467733"><ele>251.0</ele><time>2026-04-21T08:39:04.355Z</time></trkpt><trkpt lat="39.6482633" lon="8.5467867"><ele>251.00000000000003</ele><time>2026-04-21T08:39:05.354Z</time></trkpt><trkpt lat="39.64835" lon="8.546785"><ele>251.00000000000003</ele><time>2026-04-21T08:39:06.355Z</time></trkpt><trkpt lat="39.6484483" lon="8.5467683"><ele>251.0</ele><time>2026-04-21T08:39:07.354Z</time></trkpt><trkpt lat="39.648545" lon="8.5467417"><ele>251.0</ele><time>2026-04-21T08:39:08.355Z</time></trkpt><trkpt lat="39.6486333" lon="8.54672"><ele>252.00000000000003</ele><time>2026-04-21T08:39:09.354Z</time></trkpt><trkpt lat="39.6487217" lon="8.5467017"><ele>253.0</ele><time>2026-04-21T08:39:10.355Z</time></trkpt><trkpt lat="39.6488033" lon="8.5466983"><ele>254.0</ele><time>2026-04-21T08:39:11.355Z</time></trkpt><trkpt lat="39.6488833" lon="8.5467083"><ele>255.0</ele><time>2026-04-21T08:39:12.355Z</time></trkpt><trkpt lat="39.6489667" lon="8.5467267"><ele>256.0</ele><time>2026-04-21T08:39:13.355Z</time></trkpt><trkpt lat="39.6490683" lon="8.546745"><ele>257.0</ele><time>2026-04-21T08:39:14.355Z</time></trkpt><trkpt lat="39.6491683" lon="8.546755"><ele>257.0</ele><time>2026-04-21T08:39:15.355Z</time></trkpt><trkpt lat="39.6492633" lon="8.5467483"><ele>257.0</ele><time>2026-04-21T08:39:16.354Z</time></trkpt><trkpt lat="39.64937" lon="8.54673"><ele>257.0</ele><time>2026-04-21T08:39:17.355Z</time></trkpt><trkpt lat="39.6494817" lon="8.5467133"><ele>257.0</ele><time>2026-04-21T08:39:18.355Z</time></trkpt><trkpt lat="39.6496033" lon="8.5467017"><ele>257.0</ele><time>2026-04-21T08:39:19.355Z</time></trkpt><trkpt lat="39.64971" lon="8.546685"><ele>256.2</ele><time>2026-04-21T08:39:20.354Z</time></trkpt><trkpt lat="39.6498167" lon="8.5466617"><ele>255.39999999999998</ele><time>2026-04-21T08:39:21.355Z</time></trkpt><trkpt lat="39.6499183" lon="8.54662"><ele>254.60000000000002</ele><time>2026-04-21T08:39:22.355Z</time></trkpt><trkpt lat="39.6500183" lon="8.546585"><ele>253.8</ele><time>2026-04-21T08:39:23.355Z</time></trkpt><trkpt lat="39.6501017" lon="8.5465533"><ele>253.0</ele><time>2026-04-21T08:39:24.354Z</time></trkpt><trkpt lat="39.6501717" lon="8.5465283"><ele>253.0</ele><time>2026-04-21T08:39:25.355Z</time></trkpt><trkpt lat="39.6502483" lon="8.5465233"><ele>253.0</ele><time>2026-04-21T08:39:26.354Z</time></trkpt><trkpt lat="39.6503367" lon="8.5466333"><ele>253.0</ele><time>2026-04-21T08:39:28.355Z</time></trkpt><trkpt lat="39.6503717" lon="8.546735"><ele>253.0</ele><time>2026-04-21T08:39:29.354Z</time></trkpt><trkpt lat="39.650415" lon="8.5468333"><ele>253.0</ele><time>2026-04-21T08:39:30.354Z</time></trkpt><trkpt lat="39.650475" lon="8.54691"><ele>254.00000000000003</ele><time>2026-04-21T08:39:31.355Z</time></trkpt><trkpt lat="39.650535" lon="8.5469583"><ele>255.0</ele><time>2026-04-21T08:39:32.355Z</time></trkpt><trkpt lat="39.6505967" lon="8.546985"><ele>256.0</ele><time>2026-04-21T08:39:33.354Z</time></trkpt><trkpt lat="39.6506617" lon="8.5469867"><ele>257.0</ele><time>2026-04-21T08:39:34.355Z</time></trkpt><trkpt lat="39.6507317" lon="8.5469667"><ele>258.0</ele><time>2026-04-21T08:39:35.354Z</time></trkpt><trkpt lat="39.6508067" lon="8.5469367"><ele>259.00000000000006</ele><time>2026-04-21T08:39:36.354Z</time></trkpt><trkpt lat="39.6508933" lon="8.54691"><ele>260.0</ele><time>2026-04-21T08:39:37.354Z</time></trkpt><trkpt lat="39.6509867" lon="8.5468967"><ele>260.0</ele><time>2026-04-21T08:39:38.354Z</time></trkpt><trkpt lat="39.6510783" lon="8.5468983"><ele>260.0</ele><time>2026-04-21T08:39:39.354Z</time></trkpt><trkpt lat="39.65116" lon="8.546925"><ele>260.0</ele><time>2026-04-21T08:39:40.355Z</time></trkpt><trkpt lat="39.6512317" lon="8.5469683"><ele>260.0</ele><time>2026-04-21T08:39:41.355Z</time></trkpt><trkpt lat="39.65129" lon="8.547035"><ele>260.0</ele><time>2026-04-21T08:39:42.355Z</time></trkpt><trkpt lat="39.651345" lon="8.547115"><ele>260.0</ele><time>2026-04-21T08:39:43.354Z</time></trkpt><trkpt lat="39.6513867" lon="8.547205"><ele>256.83333333333337</ele><time>2026-04-21T08:39:44.355Z</time></trkpt><trkpt lat="39.6514383" lon="8.5472717"><ele>253.66666666666669</ele><time>2026-04-21T08:39:45.354Z</time></trkpt><trkpt lat="39.6515017" lon="8.5473183"><ele>250.5</ele><time>2026-04-21T08:39:46.354Z</time></trkpt><trkpt lat="39.651575" lon="8.5473517"><ele>247.33333333333331</ele><time>2026-04-21T08:39:47.355Z</time></trkpt><trkpt lat="39.6516433" lon="8.5473683"><ele>244.16666666666666</ele><time>2026-04-21T08:39:48.354Z</time></trkpt><trkpt lat="39.6517333" lon="8.5473683"><ele>241.0</ele><time>2026-04-21T08:39:49.355Z</time></trkpt><trkpt lat="39.6518283" lon="8.5473617"><ele>241.0</ele><time>2026-04-21T08:39:50.354Z</time></trkpt><trkpt lat="39.651925" lon="8.5473467"><ele>241.00000000000003</ele><time>2026-04-21T08:39:51.355Z</time></trkpt><trkpt lat="39.652025" lon="8.547335"><ele>241.00000000000003</ele><time>2026-04-21T08:39:52.355Z</time></trkpt><trkpt lat="39.6521267" lon="8.547315"><ele>241.0</ele><time>2026-04-21T08:39:53.354Z</time></trkpt><trkpt lat="39.6522267" lon="8.5473017"><ele>241.0</ele><time>2026-04-21T08:39:54.354Z</time></trkpt><trkpt lat="39.6523267" lon="8.5472733"><ele>240.33333333333331</ele><time>2026-04-21T08:39:55.355Z</time></trkpt><trkpt lat="39.6524217" lon="8.5472417"><ele>239.66666666666666</ele><time>2026-04-21T08:39:56.354Z</time></trkpt><trkpt lat="39.6525033" lon="8.5472133"><ele>239.0</ele><time>2026-04-21T08:39:57.355Z</time></trkpt><trkpt lat="39.6525783" lon="8.54717"><ele>238.33333333333331</ele><time>2026-04-21T08:39:58.354Z</time></trkpt><trkpt lat="39.652645" lon="8.54712"><ele>237.66666666666666</ele><time>2026-04-21T08:39:59.355Z</time></trkpt><trkpt lat="39.65271" lon="8.5470533"><ele>237.0</ele><time>2026-04-21T08:40:00.355Z</time></trkpt><trkpt lat="39.65277" lon="8.5469817"><ele>238.8</ele><time>2026-04-21T08:40:01.354Z</time></trkpt><trkpt lat="39.6528367" lon="8.5468933"><ele>240.6</ele><time>2026-04-21T08:40:02.355Z</time></trkpt><trkpt lat="39.6529" lon="8.5468033"><ele>242.40000000000003</ele><time>2026-04-21T08:40:03.355Z</time></trkpt><trkpt lat="39.652965" lon="8.5467083"><ele>244.20000000000002</ele><time>2026-04-21T08:40:04.354Z</time></trkpt><trkpt lat="39.6530233" lon="8.5466183"><ele>246.0</ele><time>2026-04-21T08:40:05.355Z</time></trkpt><trkpt lat="39.653065" lon="8.5465283"><ele>246.0</ele><time>2026-04-21T08:40:06.354Z</time></trkpt><trkpt lat="39.6531033" lon="8.54644"><ele>246.0</ele><time>2026-04-21T08:40:07.354Z</time></trkpt><trkpt lat="39.6531233" lon="8.5463483"><ele>246.0</ele><time>2026-04-21T08:40:08.354Z</time></trkpt><trkpt lat="39.6531317" lon="8.5462617"><ele>246.0</ele><time>2026-04-21T08:40:09.354Z</time></trkpt><trkpt lat="39.65314" lon="8.5461733"><ele>246.0</ele><time>2026-04-21T08:40:10.354Z</time></trkpt><trkpt lat="39.6531867" lon="8.5460583"><ele>246.0</ele><time>2026-04-21T08:40:12.355Z</time></trkpt><trkpt lat="39.6532783" lon="8.5460433"><ele>246.0</ele><time>2026-04-21T08:40:14.355Z</time></trkpt><trkpt lat="39.65337" lon="8.54615"><ele>246.00000000000003</ele><time>2026-04-21T08:40:16.355Z</time></trkpt><trkpt lat="39.6534083" lon="8.5462433"><ele>246.00000000000003</ele><time>2026-04-21T08:40:17.354Z</time></trkpt><trkpt lat="39.653435" lon="8.5463467"><ele>246.0</ele><time>2026-04-21T08:40:18.355Z</time></trkpt><trkpt lat="39.65345" lon="8.5464533"><ele>246.0</ele><time>2026-04-21T08:40:19.354Z</time></trkpt><trkpt lat="39.6534533" lon="8.5465583"><ele>246.0</ele><time>2026-04-21T08:40:20.355Z</time></trkpt><trkpt lat="39.65345" lon="8.5466667"><ele>246.0</ele><time>2026-04-21T08:40:21.354Z</time></trkpt><trkpt lat="39.6534417" lon="8.546775"><ele>246.0</ele><time>2026-04-21T08:40:22.355Z</time></trkpt><trkpt lat="39.6534367" lon="8.5468983"><ele>246.0</ele><time>2026-04-21T08:40:23.354Z</time></trkpt><trkpt lat="39.6534333" lon="8.5470133"><ele>246.0</ele><time>2026-04-21T08:40:24.355Z</time></trkpt><trkpt lat="39.6534333" lon="8.5471217"><ele>246.0</ele><time>2026-04-21T08:40:25.354Z</time></trkpt><trkpt lat="39.6534417" lon="8.5472183"><ele>245.16666666666666</ele><time>2026-04-21T08:40:26.355Z</time></trkpt><trkpt lat="39.6534467" lon="8.54732"><ele>244.33333333333331</ele><time>2026-04-21T08:40:27.355Z</time></trkpt><trkpt lat="39.6534467" lon="8.5474283"><ele>243.5</ele><time>2026-04-21T08:40:28.355Z</time></trkpt><trkpt lat="39.65344" lon="8.5475367"><ele>242.66666666666666</ele><time>2026-04-21T08:40:29.354Z</time></trkpt><trkpt lat="39.65343" lon="8.5476567"><ele>241.83333333333331</ele><time>2026-04-21T08:40:30.355Z</time></trkpt><trkpt lat="39.65341" lon="8.547775"><ele>241.0</ele><time>2026-04-21T08:40:31.355Z</time></trkpt><trkpt lat="39.65338" lon="8.5478917"><ele>240.83333333333331</ele><time>2026-04-21T08:40:32.354Z</time></trkpt><trkpt lat="39.65335" lon="8.548005"><ele>240.66666666666666</ele><time>2026-04-21T08:40:33.355Z</time></trkpt><trkpt lat="39.6533233" lon="8.5481067"><ele>240.5</ele><time>2026-04-21T08:40:34.354Z</time></trkpt><trkpt lat="39.6533083" lon="8.5481917"><ele>240.33333333333331</ele><time>2026-04-21T08:40:35.354Z</time></trkpt><trkpt lat="39.6533367" lon="8.548305"><ele>240.16666666666666</ele><time>2026-04-21T08:40:37.354Z</time></trkpt><trkpt lat="39.6534217" lon="8.5483217"><ele>240.0</ele><time>2026-04-21T08:40:39.355Z</time></trkpt><trkpt lat="39.6535317" lon="8.5482517"><ele>240.0</ele><time>2026-04-21T08:40:41.354Z</time></trkpt><trkpt lat="39.65359" lon="8.5481983"><ele>240.0</ele><time>2026-04-21T08:40:42.355Z</time></trkpt><trkpt lat="39.65364" lon="8.5481367"><ele>240.0</ele><time>2026-04-21T08:40:43.354Z</time></trkpt><trkpt lat="39.6536917" lon="8.5480667"><ele>240.0</ele><time>2026-04-21T08:40:44.355Z</time></trkpt><trkpt lat="39.6537517" lon="8.5479867"><ele>240.0</ele><time>2026-04-21T08:40:45.354Z</time></trkpt><trkpt lat="39.653815" lon="8.5479117"><ele>240.0</ele><time>2026-04-21T08:40:46.354Z</time></trkpt><trkpt lat="39.6538883" lon="8.5478433"><ele>242.0</ele><time>2026-04-21T08:40:47.354Z</time></trkpt><trkpt lat="39.6539683" lon="8.5477833"><ele>244.0</ele><time>2026-04-21T08:40:48.355Z</time></trkpt><trkpt lat="39.6540583" lon="8.547735"><ele>246.0</ele><time>2026-04-21T08:40:49.355Z</time></trkpt><trkpt lat="39.6541483" lon="8.5477067"><ele>248.0</ele><time>2026-04-21T08:40:50.354Z</time></trkpt><trkpt lat="39.6542467" lon="8.5476883"><ele>250.0</ele><time>2026-04-21T08:40:51.354Z</time></trkpt><trkpt lat="39.6543417" lon="8.5476733"><ele>250.0</ele><time>2026-04-21T08:40:52.354Z</time></trkpt><trkpt lat="39.6544383" lon="8.5476733"><ele>250.0</ele><time>2026-04-21T08:40:53.355Z</time></trkpt><trkpt lat="39.654545" lon="8.54766"><ele>250.0</ele><time>2026-04-21T08:40:54.354Z</time></trkpt><trkpt lat="39.6546583" lon="8.5476533"><ele>250.0</ele><time>2026-04-21T08:40:55.355Z</time></trkpt><trkpt lat="39.6548483" lon="8.547655"><ele>249.49999999999997</ele><time>2026-04-21T08:40:57.354Z</time></trkpt><trkpt lat="39.65494" lon="8.547665"><ele>249.0</ele><time>2026-04-21T08:40:58.355Z</time></trkpt><trkpt lat="39.6550267" lon="8.5476733"><ele>248.5</ele><time>2026-04-21T08:40:59.355Z</time></trkpt><trkpt lat="39.6551133" lon="8.54768"><ele>248.0</ele><time>2026-04-21T08:41:00.354Z</time></trkpt><trkpt lat="39.6551983" lon="8.5476767"><ele>247.49999999999997</ele><time>2026-04-21T08:41:01.355Z</time></trkpt><trkpt lat="39.6552833" lon="8.5476567"><ele>247.0</ele><time>2026-04-21T08:41:02.355Z</time></trkpt><trkpt lat="39.65536" lon="8.5476333"><ele>243.16666666666666</ele><time>2026-04-21T08:41:03.354Z</time></trkpt><trkpt lat="39.6554367" lon="8.547595"><ele>239.33333333333331</ele><time>2026-04-21T08:41:04.355Z</time></trkpt><trkpt lat="39.6555033" lon="8.5475533"><ele>235.5</ele><time>2026-04-21T08:41:05.355Z</time></trkpt><trkpt lat="39.6555733" lon="8.5474983"><ele>231.66666666666669</ele><time>2026-04-21T08:41:06.355Z</time></trkpt><trkpt lat="39.655635" lon="8.5474217"><ele>227.83333333333334</ele><time>2026-04-21T08:41:07.354Z</time></trkpt><trkpt lat="39.655685" lon="8.5473283"><ele>224.0</ele><time>2026-04-21T08:41:08.354Z</time></trkpt><trkpt lat="39.6557267" lon="8.5472217"><ele>224.0</ele><time>2026-04-21T08:41:09.355Z</time></trkpt><trkpt lat="39.655765" lon="8.5471083"><ele>223.99999999999997</ele><time>2026-04-21T08:41:10.354Z</time></trkpt><trkpt lat="39.6558033" lon="8.54699"><ele>223.99999999999997</ele><time>2026-04-21T08:41:11.355Z</time></trkpt><trkpt lat="39.6558467" lon="8.546875"><ele>224.0</ele><time>2026-04-21T08:41:12.354Z</time></trkpt><trkpt lat="39.65589" lon="8.5467667"><ele>224.0</ele><time>2026-04-21T08:41:13.355Z</time></trkpt><trkpt lat="39.6559367" lon="8.5466767"><ele>222.66666666666669</ele><time>2026-04-21T08:41:14.355Z</time></trkpt><trkpt lat="39.6559933" lon="8.5465967"><ele>221.33333333333334</ele><time>2026-04-21T08:41:15.354Z</time></trkpt><trkpt lat="39.6560583" lon="8.5465267"><ele>220.0</ele><time>2026-04-21T08:41:16.354Z</time></trkpt><trkpt lat="39.6561467" lon="8.54646"><ele>218.66666666666669</ele><time>2026-04-21T08:41:17.355Z</time></trkpt><trkpt lat="39.6562283" lon="8.5464"><ele>217.33333333333334</ele><time>2026-04-21T08:41:18.354Z</time></trkpt><trkpt lat="39.6562983" lon="8.5463417"><ele>216.0</ele><time>2026-04-21T08:41:19.355Z</time></trkpt><trkpt lat="39.656365" lon="8.5462717"><ele>218.0</ele><time>2026-04-21T08:41:20.355Z</time></trkpt><trkpt lat="39.6564267" lon="8.5461867"><ele>220.00000000000003</ele><time>2026-04-21T08:41:21.354Z</time></trkpt><trkpt lat="39.65648" lon="8.54609"><ele>222.00000000000003</ele><time>2026-04-21T08:41:22.355Z</time></trkpt><trkpt lat="39.656525" lon="8.54598"><ele>224.0</ele><time>2026-04-21T08:41:23.355Z</time></trkpt><trkpt lat="39.6565667" lon="8.5458833"><ele>226.0</ele><time>2026-04-21T08:41:24.355Z</time></trkpt><trkpt lat="39.65661" lon="8.54578"><ele>225.99999999999997</ele><time>2026-04-21T08:41:25.354Z</time></trkpt><trkpt lat="39.6566533" lon="8.5456817"><ele>226.0</ele><time>2026-04-21T08:41:26.355Z</time></trkpt><trkpt lat="39.65669" lon="8.5455933"><ele>226.0</ele><time>2026-04-21T08:41:27.354Z</time></trkpt><trkpt lat="39.6567233" lon="8.54552"><ele>226.0</ele><time>2026-04-21T08:41:28.354Z</time></trkpt><trkpt lat="39.6568033" lon="8.5454233"><ele>225.99999999999997</ele><time>2026-04-21T08:41:30.355Z</time></trkpt><trkpt lat="39.6568983" lon="8.5454183"><ele>226.0</ele><time>2026-04-21T08:41:32.355Z</time></trkpt><trkpt lat="39.6569983" lon="8.5455217"><ele>224.33333333333331</ele><time>2026-04-21T08:41:34.354Z</time></trkpt><trkpt lat="39.6570533" lon="8.5455983"><ele>222.66666666666666</ele><time>2026-04-21T08:41:35.354Z</time></trkpt><trkpt lat="39.6571033" lon="8.5456617"><ele>221.0</ele><time>2026-04-21T08:41:36.355Z</time></trkpt><trkpt lat="39.657215" lon="8.5457217"><ele>219.33333333333331</ele><time>2026-04-21T08:41:38.355Z</time></trkpt><trkpt lat="39.6573233" lon="8.5456867"><ele>217.66666666666666</ele><time>2026-04-21T08:41:40.355Z</time></trkpt><trkpt lat="39.6573767" lon="8.5456367"><ele>216.0</ele><time>2026-04-21T08:41:41.354Z</time></trkpt><trkpt lat="39.6574233" lon="8.54557"><ele>216.0</ele><time>2026-04-21T08:41:42.355Z</time></trkpt><trkpt lat="39.6574767" lon="8.5454883"><ele>216.00000000000003</ele><time>2026-04-21T08:41:43.355Z</time></trkpt><trkpt lat="39.65753" lon="8.5453967"><ele>216.00000000000003</ele><time>2026-04-21T08:41:44.354Z</time></trkpt><trkpt lat="39.6575917" lon="8.5453"><ele>216.0</ele><time>2026-04-21T08:41:45.355Z</time></trkpt><trkpt lat="39.65767" lon="8.54521"><ele>216.0</ele><time>2026-04-21T08:41:46.354Z</time></trkpt><trkpt lat="39.6577467" lon="8.545125"><ele>215.42857142857142</ele><time>2026-04-21T08:41:47.355Z</time></trkpt><trkpt lat="39.657805" lon="8.54504"><ele>214.85714285714283</ele><time>2026-04-21T08:41:48.355Z</time></trkpt><trkpt lat="39.65785" lon="8.54497"><ele>214.28571428571428</ele><time>2026-04-21T08:41:49.354Z</time></trkpt><trkpt lat="39.6578833" lon="8.5449"><ele>213.71428571428572</ele><time>2026-04-21T08:41:50.354Z</time></trkpt><trkpt lat="39.657915" lon="8.54482"><ele>213.14285714285714</ele><time>2026-04-21T08:41:51.355Z</time></trkpt><trkpt lat="39.65794" lon="8.5447317"><ele>212.57142857142858</ele><time>2026-04-21T08:41:52.354Z</time></trkpt><trkpt lat="39.6579567" lon="8.5446383"><ele>212.0</ele><time>2026-04-21T08:41:53.354Z</time></trkpt><trkpt lat="39.6579617" lon="8.544535"><ele>212.0</ele><time>2026-04-21T08:41:54.354Z</time></trkpt><trkpt lat="39.65795" lon="8.5444183"><ele>212.0</ele><time>2026-04-21T08:41:55.354Z</time></trkpt><trkpt lat="39.6579333" lon="8.544305"><ele>212.0</ele><time>2026-04-21T08:41:56.354Z</time></trkpt><trkpt lat="39.6579183" lon="8.5441883"><ele>212.0</ele><time>2026-04-21T08:41:57.354Z</time></trkpt><trkpt lat="39.6579233" lon="8.5440717"><ele>212.0</ele><time>2026-04-21T08:41:58.354Z</time></trkpt><trkpt lat="39.6579333" lon="8.543955"><ele>212.00000000000003</ele><time>2026-04-21T08:41:59.355Z</time></trkpt><trkpt lat="39.6579517" lon="8.54384"><ele>212.0</ele><time>2026-04-21T08:42:00.355Z</time></trkpt><trkpt lat="39.6579433" lon="8.5437333"><ele>212.0</ele><time>2026-04-21T08:42:01.354Z</time></trkpt><trkpt lat="39.65791" lon="8.5436417"><ele>212.0</ele><time>2026-04-21T08:42:02.355Z</time></trkpt><trkpt lat="39.6578717" lon="8.543555"><ele>212.00000000000003</ele><time>2026-04-21T08:42:03.355Z</time></trkpt><trkpt lat="39.6578333" lon="8.543475"><ele>212.0</ele><time>2026-04-21T08:42:04.354Z</time></trkpt><trkpt lat="39.6578017" lon="8.5434"><ele>212.2</ele><time>2026-04-21T08:42:05.354Z</time></trkpt><trkpt lat="39.6578067" lon="8.5432633"><ele>212.39999999999998</ele><time>2026-04-21T08:42:07.355Z</time></trkpt><trkpt lat="39.657855" lon="8.543195"><ele>212.60000000000002</ele><time>2026-04-21T08:42:08.355Z</time></trkpt><trkpt lat="39.6579333" lon="8.54313"><ele>212.8</ele><time>2026-04-21T08:42:09.354Z</time></trkpt><trkpt lat="39.6580067" lon="8.543055"><ele>213.0</ele><time>2026-04-21T08:42:10.355Z</time></trkpt><trkpt lat="39.658075" lon="8.54298"><ele>213.0</ele><time>2026-04-21T08:42:11.355Z</time></trkpt><trkpt lat="39.65813" lon="8.5429033"><ele>213.0</ele><time>2026-04-21T08:42:12.354Z</time></trkpt><trkpt lat="39.6581783" lon="8.5428233"><ele>213.0</ele><time>2026-04-21T08:42:13.355Z</time></trkpt><trkpt lat="39.6582167" lon="8.5427317"><ele>213.0</ele><time>2026-04-21T08:42:14.354Z</time></trkpt><trkpt lat="39.6582433" lon="8.5426367"><ele>213.0</ele><time>2026-04-21T08:42:15.355Z</time></trkpt><trkpt lat="39.6582617" lon="8.54253"><ele>213.0</ele><time>2026-04-21T08:42:16.355Z</time></trkpt><trkpt lat="39.6582633" lon="8.54242"><ele>214.16666666666666</ele><time>2026-04-21T08:42:17.354Z</time></trkpt><trkpt lat="39.6582483" lon="8.5423133"><ele>215.33333333333331</ele><time>2026-04-21T08:42:18.354Z</time></trkpt><trkpt lat="39.6582233" lon="8.5422017"><ele>216.5</ele><time>2026-04-21T08:42:19.354Z</time></trkpt><trkpt lat="39.6581983" lon="8.542095"><ele>217.66666666666666</ele><time>2026-04-21T08:42:20.355Z</time></trkpt><trkpt lat="39.6581733" lon="8.541995"><ele>218.83333333333331</ele><time>2026-04-21T08:42:21.354Z</time></trkpt><trkpt lat="39.6581633" lon="8.5418633"><ele>220.0</ele><time>2026-04-21T08:42:23.354Z</time></trkpt><trkpt lat="39.658215" lon="8.54178"><ele>219.66666666666666</ele><time>2026-04-21T08:42:25.355Z</time></trkpt><trkpt lat="39.6583133" lon="8.5417717"><ele>219.33333333333331</ele><time>2026-04-21T08:42:27.355Z</time></trkpt><trkpt lat="39.6583817" lon="8.54181"><ele>219.0</ele><time>2026-04-21T08:42:28.354Z</time></trkpt><trkpt lat="39.658455" lon="8.541865"><ele>218.66666666666669</ele><time>2026-04-21T08:42:29.355Z</time></trkpt><trkpt lat="39.65853" lon="8.5419283"><ele>218.33333333333334</ele><time>2026-04-21T08:42:30.355Z</time></trkpt><trkpt lat="39.6586083" lon="8.541995"><ele>218.0</ele><time>2026-04-21T08:42:31.354Z</time></trkpt><trkpt lat="39.65869" lon="8.5420583"><ele>218.0</ele><time>2026-04-21T08:42:32.355Z</time></trkpt><trkpt lat="39.6587783" lon="8.5421117"><ele>218.0</ele><time>2026-04-21T08:42:33.354Z</time></trkpt><trkpt lat="39.658855" lon="8.542175"><ele>218.0</ele><time>2026-04-21T08:42:34.355Z</time></trkpt><trkpt lat="39.6589283" lon="8.5422517"><ele>218.0</ele><time>2026-04-21T08:42:35.355Z</time></trkpt><trkpt lat="39.6589933" lon="8.5423333"><ele>218.0</ele><time>2026-04-21T08:42:36.355Z</time></trkpt><trkpt lat="39.65904" lon="8.5424167"><ele>218.00000000000003</ele><time>2026-04-21T08:42:37.354Z</time></trkpt><trkpt lat="39.65909" lon="8.542505"><ele>218.0</ele><time>2026-04-21T08:42:38.355Z</time></trkpt><trkpt lat="39.6591383" lon="8.5426"><ele>218.0</ele><time>2026-04-21T08:42:39.354Z</time></trkpt><trkpt lat="39.6591833" lon="8.5426967"><ele>218.0</ele><time>2026-04-21T08:42:40.355Z</time></trkpt><trkpt lat="39.6592333" lon="8.54278"><ele>218.00000000000003</ele><time>2026-04-21T08:42:41.355Z</time></trkpt><trkpt lat="39.659285" lon="8.5428583"><ele>218.0</ele><time>2026-04-21T08:42:42.354Z</time></trkpt><trkpt lat="39.6593517" lon="8.542915"><ele>214.83333333333334</ele><time>2026-04-21T08:42:43.355Z</time></trkpt><trkpt lat="39.659425" lon="8.54294"><ele>211.66666666666669</ele><time>2026-04-21T08:42:44.354Z</time></trkpt><trkpt lat="39.659505" lon="8.54296"><ele>208.5</ele><time>2026-04-21T08:42:45.355Z</time></trkpt><trkpt lat="39.6595933" lon="8.54296"><ele>205.33333333333331</ele><time>2026-04-21T08:42:46.354Z</time></trkpt><trkpt lat="39.6596717" lon="8.542955"><ele>202.16666666666666</ele><time>2026-04-21T08:42:47.354Z</time></trkpt><trkpt lat="39.6597467" lon="8.5429417"><ele>199.0</ele><time>2026-04-21T08:42:48.355Z</time></trkpt><trkpt lat="39.659865" lon="8.542905"><ele>201.66666666666666</ele><time>2026-04-21T08:42:50.355Z</time></trkpt><trkpt lat="39.6599233" lon="8.54287"><ele>204.33333333333331</ele><time>2026-04-21T08:42:51.354Z</time></trkpt><trkpt lat="39.6599817" lon="8.542825"><ele>207.0</ele><time>2026-04-21T08:42:52.355Z</time></trkpt><trkpt lat="39.6600417" lon="8.54276"><ele>209.66666666666669</ele><time>2026-04-21T08:42:53.354Z</time></trkpt><trkpt lat="39.6601133" lon="8.54268"><ele>212.33333333333334</ele><time>2026-04-21T08:42:54.354Z</time></trkpt><trkpt lat="39.6601883" lon="8.542595"><ele>215.0</ele><time>2026-04-21T08:42:55.355Z</time></trkpt><trkpt lat="39.660265" lon="8.542515"><ele>214.0</ele><time>2026-04-21T08:42:56.355Z</time></trkpt><trkpt lat="39.66034" lon="8.54245"><ele>213.0</ele><time>2026-04-21T08:42:57.354Z</time></trkpt><trkpt lat="39.6604083" lon="8.5423983"><ele>212.0</ele><time>2026-04-21T08:42:58.355Z</time></trkpt><trkpt lat="39.6604767" lon="8.5423683"><ele>211.0</ele><time>2026-04-21T08:42:59.355Z</time></trkpt><trkpt lat="39.66059" lon="8.5423717"><ele>210.0</ele><time>2026-04-21T08:43:01.355Z</time></trkpt><trkpt lat="39.66067" lon="8.542465"><ele>210.0</ele><time>2026-04-21T08:43:03.355Z</time></trkpt><trkpt lat="39.6606867" lon="8.5425467"><ele>210.0</ele><time>2026-04-21T08:43:04.355Z</time></trkpt><trkpt lat="39.660695" lon="8.542645"><ele>210.0</ele><time>2026-04-21T08:43:05.355Z</time></trkpt><trkpt lat="39.6607133" lon="8.5427333"><ele>210.0</ele><time>2026-04-21T08:43:06.355Z</time></trkpt><trkpt lat="39.660745" lon="8.5428083"><ele>210.0</ele><time>2026-04-21T08:43:07.355Z</time></trkpt><trkpt lat="39.6607967" lon="8.5428683"><ele>210.0</ele><time>2026-04-21T08:43:08.354Z</time></trkpt><trkpt lat="39.6608567" lon="8.5429167"><ele>210.0</ele><time>2026-04-21T08:43:09.354Z</time></trkpt><trkpt lat="39.6609283" lon="8.54295"><ele>206.6</ele><time>2026-04-21T08:43:10.354Z</time></trkpt><trkpt lat="39.6610067" lon="8.5429733"><ele>203.2</ele><time>2026-04-21T08:43:11.354Z</time></trkpt><trkpt lat="39.66109" lon="8.5429917"><ele>199.8</ele><time>2026-04-21T08:43:12.354Z</time></trkpt><trkpt lat="39.6611883" lon="8.5430117"><ele>196.4</ele><time>2026-04-21T08:43:13.354Z</time></trkpt><trkpt lat="39.6612933" lon="8.5430267"><ele>193.0</ele><time>2026-04-21T08:43:14.354Z</time></trkpt><trkpt lat="39.661385" lon="8.5430417"><ele>192.83333333333331</ele><time>2026-04-21T08:43:15.355Z</time></trkpt><trkpt lat="39.6614717" lon="8.5430517"><ele>192.66666666666666</ele><time>2026-04-21T08:43:16.354Z</time></trkpt><trkpt lat="39.661555" lon="8.5430517"><ele>192.5</ele><time>2026-04-21T08:43:17.355Z</time></trkpt><trkpt lat="39.6616317" lon="8.5430417"><ele>192.33333333333331</ele><time>2026-04-21T08:43:18.355Z</time></trkpt><trkpt lat="39.6616983" lon="8.543015"><ele>192.16666666666666</ele><time>2026-04-21T08:43:19.355Z</time></trkpt><trkpt lat="39.66177" lon="8.5429783"><ele>192.0</ele><time>2026-04-21T08:43:20.354Z</time></trkpt><trkpt lat="39.6618383" lon="8.5429367"><ele>192.0</ele><time>2026-04-21T08:43:21.355Z</time></trkpt><trkpt lat="39.661915" lon="8.542905"><ele>192.0</ele><time>2026-04-21T08:43:22.355Z</time></trkpt><trkpt lat="39.662" lon="8.5428833"><ele>192.0</ele><time>2026-04-21T08:43:23.355Z</time></trkpt><trkpt lat="39.66209" lon="8.5428617"><ele>192.0</ele><time>2026-04-21T08:43:24.354Z</time></trkpt><trkpt lat="39.66217" lon="8.5428433"><ele>192.0</ele><time>2026-04-21T08:43:25.354Z</time></trkpt><trkpt lat="39.662245" lon="8.5428033"><ele>192.0</ele><time>2026-04-21T08:43:26.355Z</time></trkpt><trkpt lat="39.66231" lon="8.5427733"><ele>193.16666666666666</ele><time>2026-04-21T08:43:27.355Z</time></trkpt><trkpt lat="39.66237" lon="8.5427433"><ele>194.33333333333331</ele><time>2026-04-21T08:43:28.354Z</time></trkpt><trkpt lat="39.66246" lon="8.5426733"><ele>195.5</ele><time>2026-04-21T08:43:30.355Z</time></trkpt><trkpt lat="39.6625017" lon="8.5425917"><ele>196.66666666666666</ele><time>2026-04-21T08:43:33.355Z</time></trkpt><trkpt lat="39.6625533" lon="8.542525"><ele>197.83333333333331</ele><time>2026-04-21T08:43:35.354Z</time></trkpt><trkpt lat="39.6626583" lon="8.542455"><ele>199.0</ele><time>2026-04-21T08:43:37.355Z</time></trkpt><trkpt lat="39.6627683" lon="8.5423767"><ele>199.2</ele><time>2026-04-21T08:43:39.354Z</time></trkpt><trkpt lat="39.662865" lon="8.5422817"><ele>199.39999999999998</ele><time>2026-04-21T08:43:41.354Z</time></trkpt><trkpt lat="39.662945" lon="8.5421533"><ele>199.6</ele><time>2026-04-21T08:43:43.354Z</time></trkpt><trkpt lat="39.66299" lon="8.54208"><ele>199.8</ele><time>2026-04-21T08:43:44.354Z</time></trkpt><trkpt lat="39.6630333" lon="8.542005"><ele>200.0</ele><time>2026-04-21T08:43:45.355Z</time></trkpt><trkpt lat="39.663075" lon="8.5419333"><ele>198.50000000000003</ele><time>2026-04-21T08:43:46.355Z</time></trkpt><trkpt lat="39.66312" lon="8.5418617"><ele>197.0</ele><time>2026-04-21T08:43:47.355Z</time></trkpt><trkpt lat="39.6631667" lon="8.5417917"><ele>195.5</ele><time>2026-04-21T08:43:48.355Z</time></trkpt><trkpt lat="39.6632133" lon="8.5417233"><ele>194.0</ele><time>2026-04-21T08:43:49.355Z</time></trkpt><trkpt lat="39.6632533" lon="8.5416583"><ele>192.5</ele><time>2026-04-21T08:43:50.355Z</time></trkpt><trkpt lat="39.663345" lon="8.5415467"><ele>191.0</ele><time>2026-04-21T08:43:52.354Z</time></trkpt><trkpt lat="39.663395" lon="8.5414917"><ele>191.0</ele><time>2026-04-21T08:43:53.355Z</time></trkpt><trkpt lat="39.6634833" lon="8.5413883"><ele>191.0</ele><time>2026-04-21T08:43:55.355Z</time></trkpt><trkpt lat="39.66358" lon="8.5412883"><ele>191.0</ele><time>2026-04-21T08:43:57.354Z</time></trkpt><trkpt lat="39.663665" lon="8.5412017"><ele>191.0</ele><time>2026-04-21T08:43:59.355Z</time></trkpt><trkpt lat="39.6637667" lon="8.5411117"><ele>187.4</ele><time>2026-04-21T08:44:01.355Z</time></trkpt><trkpt lat="39.6638683" lon="8.5410083"><ele>183.8</ele><time>2026-04-21T08:44:03.355Z</time></trkpt><trkpt lat="39.66397" lon="8.5409"><ele>180.20000000000002</ele><time>2026-04-21T08:44:05.354Z</time></trkpt><trkpt lat="39.66402" lon="8.540835"><ele>176.60000000000002</ele><time>2026-04-21T08:44:06.355Z</time></trkpt><trkpt lat="39.6640683" lon="8.540765"><ele>173.0</ele><time>2026-04-21T08:44:07.355Z</time></trkpt><trkpt lat="39.6641033" lon="8.540695"><ele>173.0</ele><time>2026-04-21T08:44:08.354Z</time></trkpt><trkpt lat="39.6641383" lon="8.54062"><ele>173.0</ele><time>2026-04-21T08:44:09.355Z</time></trkpt><trkpt lat="39.6641783" lon="8.54054"><ele>173.0</ele><time>2026-04-21T08:44:10.355Z</time></trkpt><trkpt lat="39.6642067" lon="8.5404567"><ele>173.0</ele><time>2026-04-21T08:44:11.355Z</time></trkpt><trkpt lat="39.6642317" lon="8.54038"><ele>173.0</ele><time>2026-04-21T08:44:12.354Z</time></trkpt><trkpt lat="39.6642583" lon="8.5402717"><ele>173.0</ele><time>2026-04-21T08:44:14.355Z</time></trkpt><trkpt lat="39.6642733" lon="8.5401833"><ele>173.0</ele><time>2026-04-21T08:44:16.354Z</time></trkpt><trkpt lat="39.6643033" lon="8.5400883"><ele>172.5</ele><time>2026-04-21T08:44:20.355Z</time></trkpt><trkpt lat="39.66434" lon="8.5400183"><ele>172.0</ele><time>2026-04-21T08:44:22.355Z</time></trkpt><trkpt lat="39.66441" lon="8.5399383"><ele>171.5</ele><time>2026-04-21T08:44:24.355Z</time></trkpt><trkpt lat="39.6644867" lon="8.53982"><ele>171.0</ele><time>2026-04-21T08:44:26.354Z</time></trkpt><trkpt lat="39.664535" lon="8.5397633"><ele>170.5</ele><time>2026-04-21T08:44:27.354Z</time></trkpt><trkpt lat="39.6645883" lon="8.5397017"><ele>170.0</ele><time>2026-04-21T08:44:28.355Z</time></trkpt><trkpt lat="39.6646367" lon="8.5396483"><ele>168.33333333333331</ele><time>2026-04-21T08:44:29.355Z</time></trkpt><trkpt lat="39.66475" lon="8.53959"><ele>166.66666666666666</ele><time>2026-04-21T08:44:31.354Z</time></trkpt><trkpt lat="39.6648083" lon="8.53955"><ele>165.0</ele><time>2026-04-21T08:44:32.354Z</time></trkpt><trkpt lat="39.66486" lon="8.53948"><ele>163.33333333333334</ele><time>2026-04-21T08:44:33.355Z</time></trkpt><trkpt lat="39.6649017" lon="8.5393917"><ele>161.66666666666669</ele><time>2026-04-21T08:44:34.355Z</time></trkpt><trkpt lat="39.6649383" lon="8.5393033"><ele>160.0</ele><time>2026-04-21T08:44:35.354Z</time></trkpt><trkpt lat="39.6649633" lon="8.5392217"><ele>159.5</ele><time>2026-04-21T08:44:36.355Z</time></trkpt><trkpt lat="39.665015" lon="8.5391083"><ele>159.0</ele><time>2026-04-21T08:44:38.354Z</time></trkpt><trkpt lat="39.6651067" lon="8.5390483"><ele>158.5</ele><time>2026-04-21T08:44:40.355Z</time></trkpt><trkpt lat="39.6651717" lon="8.53903"><ele>158.0</ele><time>2026-04-21T08:44:41.354Z</time></trkpt><trkpt lat="39.665235" lon="8.5390083"><ele>157.5</ele><time>2026-04-21T08:44:42.355Z</time></trkpt><trkpt lat="39.6652967" lon="8.538955"><ele>157.0</ele><time>2026-04-21T08:44:43.354Z</time></trkpt><trkpt lat="39.66535" lon="8.5388817"><ele>155.0</ele><time>2026-04-21T08:44:44.354Z</time></trkpt><trkpt lat="39.6653967" lon="8.5387983"><ele>153.0</ele><time>2026-04-21T08:44:45.354Z</time></trkpt><trkpt lat="39.66545" lon="8.5387133"><ele>151.0</ele><time>2026-04-21T08:44:46.355Z</time></trkpt><trkpt lat="39.6655133" lon="8.5386367"><ele>149.0</ele><time>2026-04-21T08:44:47.354Z</time></trkpt><trkpt lat="39.6655767" lon="8.5385683"><ele>147.0</ele><time>2026-04-21T08:44:48.354Z</time></trkpt><trkpt lat="39.6656383" lon="8.5385017"><ele>145.0</ele><time>2026-04-21T08:44:49.354Z</time></trkpt><trkpt lat="39.6657167" lon="8.5384583"><ele>145.0</ele><time>2026-04-21T08:44:50.355Z</time></trkpt><trkpt lat="39.6657917" lon="8.53843"><ele>145.0</ele><time>2026-04-21T08:44:51.354Z</time></trkpt><trkpt lat="39.6658683" lon="8.538415"><ele>145.0</ele><time>2026-04-21T08:44:52.355Z</time></trkpt><trkpt lat="39.6659383" lon="8.5384183"><ele>145.0</ele><time>2026-04-21T08:44:53.355Z</time></trkpt><trkpt lat="39.666055" lon="8.5384283"><ele>145.0</ele><time>2026-04-21T08:44:55.355Z</time></trkpt><trkpt lat="39.6661633" lon="8.5383483"><ele>142.5</ele><time>2026-04-21T08:44:57.355Z</time></trkpt><trkpt lat="39.6662133" lon="8.538285"><ele>140.0</ele><time>2026-04-21T08:44:58.354Z</time></trkpt><trkpt lat="39.6662617" lon="8.5382233"><ele>137.5</ele><time>2026-04-21T08:44:59.354Z</time></trkpt><trkpt lat="39.6663033" lon="8.5381567"><ele>135.0</ele><time>2026-04-21T08:45:00.354Z</time></trkpt><trkpt lat="39.6663383" lon="8.5380883"><ele>132.5</ele><time>2026-04-21T08:45:01.354Z</time></trkpt><trkpt lat="39.666405" lon="8.53797"><ele>130.0</ele><time>2026-04-21T08:45:03.354Z</time></trkpt><trkpt lat="39.666495" lon="8.5378567"><ele>129.83333333333334</ele><time>2026-04-21T08:45:05.354Z</time></trkpt><trkpt lat="39.6665467" lon="8.537785"><ele>129.66666666666669</ele><time>2026-04-21T08:45:06.355Z</time></trkpt><trkpt lat="39.6666017" lon="8.53772"><ele>129.5</ele><time>2026-04-21T08:45:07.355Z</time></trkpt><trkpt lat="39.6666533" lon="8.5376483"><ele>129.33333333333334</ele><time>2026-04-21T08:45:08.355Z</time></trkpt><trkpt lat="39.6667167" lon="8.5375633"><ele>129.16666666666666</ele><time>2026-04-21T08:45:09.355Z</time></trkpt><trkpt lat="39.6667817" lon="8.5374717"><ele>129.0</ele><time>2026-04-21T08:45:10.354Z</time></trkpt><trkpt lat="39.666845" lon="8.5373883"><ele>129.0</ele><time>2026-04-21T08:45:11.355Z</time></trkpt><trkpt lat="39.6668933" lon="8.5373167"><ele>129.0</ele><time>2026-04-21T08:45:12.354Z</time></trkpt><trkpt lat="39.6669467" lon="8.5372433"><ele>129.0</ele><time>2026-04-21T08:45:13.354Z</time></trkpt><trkpt lat="39.6669883" lon="8.53717"><ele>129.0</ele><time>2026-04-21T08:45:14.354Z</time></trkpt><trkpt lat="39.66703" lon="8.5371033"><ele>129.0</ele><time>2026-04-21T08:45:15.355Z</time></trkpt><trkpt lat="39.6670817" lon="8.5370367"><ele>129.0</ele><time>2026-04-21T08:45:16.355Z</time></trkpt><trkpt lat="39.667155" lon="8.5369667"><ele>127.66666666666667</ele><time>2026-04-21T08:45:17.355Z</time></trkpt><trkpt lat="39.6672283" lon="8.5368867"><ele>126.33333333333334</ele><time>2026-04-21T08:45:18.354Z</time></trkpt><trkpt lat="39.6673" lon="8.5368117"><ele>125.0</ele><time>2026-04-21T08:45:19.354Z</time></trkpt><trkpt lat="39.66736" lon="8.5367467"><ele>123.66666666666667</ele><time>2026-04-21T08:45:20.354Z</time></trkpt><trkpt lat="39.66741" lon="8.53667"><ele>122.33333333333334</ele><time>2026-04-21T08:45:21.355Z</time></trkpt><trkpt lat="39.66745" lon="8.5365817"><ele>121.0</ele><time>2026-04-21T08:45:22.354Z</time></trkpt><trkpt lat="39.6674983" lon="8.536475"><ele>121.0</ele><time>2026-04-21T08:45:23.354Z</time></trkpt><trkpt lat="39.6675533" lon="8.5363633"><ele>121.0</ele><time>2026-04-21T08:45:24.355Z</time></trkpt><trkpt lat="39.6676133" lon="8.536255"><ele>121.0</ele><time>2026-04-21T08:45:25.354Z</time></trkpt><trkpt lat="39.66768" lon="8.536155"><ele>121.0</ele><time>2026-04-21T08:45:26.355Z</time></trkpt><trkpt lat="39.66775" lon="8.5360567"><ele>121.0</ele><time>2026-04-21T08:45:27.355Z</time></trkpt><trkpt lat="39.6678233" lon="8.5359517"><ele>120.19999999999999</ele><time>2026-04-21T08:45:28.355Z</time></trkpt><trkpt lat="39.6678917" lon="8.5358633"><ele>119.39999999999999</ele><time>2026-04-21T08:45:29.355Z</time></trkpt><trkpt lat="39.667965" lon="8.5357783"><ele>118.6</ele><time>2026-04-21T08:45:30.354Z</time></trkpt><trkpt lat="39.6680417" lon="8.5356983"><ele>117.8</ele><time>2026-04-21T08:45:31.355Z</time></trkpt><trkpt lat="39.66812" lon="8.5356267"><ele>117.0</ele><time>2026-04-21T08:45:32.354Z</time></trkpt><trkpt lat="39.66819" lon="8.53556"><ele>117.0</ele><time>2026-04-21T08:45:33.354Z</time></trkpt><trkpt lat="39.66825" lon="8.5354917"><ele>117.0</ele><time>2026-04-21T08:45:34.354Z</time></trkpt><trkpt lat="39.6683117" lon="8.5354267"><ele>117.0</ele><time>2026-04-21T08:45:35.355Z</time></trkpt><trkpt lat="39.6683717" lon="8.5353567"><ele>117.0</ele><time>2026-04-21T08:45:36.355Z</time></trkpt><trkpt lat="39.6684433" lon="8.5352817"><ele>117.0</ele><time>2026-04-21T08:45:37.355Z</time></trkpt><trkpt lat="39.6685217" lon="8.5352183"><ele>117.0</ele><time>2026-04-21T08:45:38.354Z</time></trkpt><trkpt lat="39.6686033" lon="8.5351517"><ele>114.6</ele><time>2026-04-21T08:45:39.355Z</time></trkpt><trkpt lat="39.6686967" lon="8.5350883"><ele>112.19999999999999</ele><time>2026-04-21T08:45:40.355Z</time></trkpt><trkpt lat="39.6687833" lon="8.5350233"><ele>109.8</ele><time>2026-04-21T08:45:41.355Z</time></trkpt><trkpt lat="39.6688617" lon="8.5349633"><ele>107.4</ele><time>2026-04-21T08:45:42.354Z</time></trkpt><trkpt lat="39.668925" lon="8.5349033"><ele>105.0</ele><time>2026-04-21T08:45:43.354Z</time></trkpt><trkpt lat="39.668985" lon="8.5348383"><ele>105.0</ele><time>2026-04-21T08:45:44.354Z</time></trkpt><trkpt lat="39.66905" lon="8.5347583"><ele>105.0</ele><time>2026-04-21T08:45:45.354Z</time></trkpt><trkpt lat="39.6691233" lon="8.5346783"><ele>105.0</ele><time>2026-04-21T08:45:46.355Z</time></trkpt><trkpt lat="39.6692117" lon="8.5346017"><ele>105.0</ele><time>2026-04-21T08:45:47.355Z</time></trkpt><trkpt lat="39.66929" lon="8.5345283"><ele>105.0</ele><time>2026-04-21T08:45:48.354Z</time></trkpt><trkpt lat="39.66936" lon="8.5344667"><ele>105.0</ele><time>2026-04-21T08:45:49.355Z</time></trkpt><trkpt lat="39.6694317" lon="8.53441"><ele>105.0</ele><time>2026-04-21T08:45:50.354Z</time></trkpt><trkpt lat="39.669505" lon="8.5343617"><ele>105.0</ele><time>2026-04-21T08:45:51.354Z</time></trkpt><trkpt lat="39.66958" lon="8.5343133"><ele>105.0</ele><time>2026-04-21T08:45:52.355Z</time></trkpt><trkpt lat="39.6696583" lon="8.534265"><ele>105.0</ele><time>2026-04-21T08:45:53.355Z</time></trkpt><trkpt lat="39.6697233" lon="8.5342"><ele>105.0</ele><time>2026-04-21T08:45:54.354Z</time></trkpt><trkpt lat="39.6697833" lon="8.5341267"><ele>104.66666666666667</ele><time>2026-04-21T08:45:55.355Z</time></trkpt><trkpt lat="39.6698317" lon="8.5340517"><ele>104.33333333333334</ele><time>2026-04-21T08:45:56.355Z</time></trkpt><trkpt lat="39.66988" lon="8.5339833"><ele>104.0</ele><time>2026-04-21T08:45:57.355Z</time></trkpt><trkpt lat="39.6699617" lon="8.5338683"><ele>103.66666666666667</ele><time>2026-04-21T08:45:59.354Z</time></trkpt><trkpt lat="39.6700283" lon="8.533815"><ele>103.33333333333334</ele><time>2026-04-21T08:46:00.353Z</time></trkpt><trkpt lat="39.6700983" lon="8.533765"><ele>103.0</ele><time>2026-04-21T08:46:01.354Z</time></trkpt><trkpt lat="39.6701767" lon="8.5337317"><ele>102.50000000000001</ele><time>2026-04-21T08:46:02.353Z</time></trkpt><trkpt lat="39.6702567" lon="8.5337033"><ele>102.0</ele><time>2026-04-21T08:46:03.353Z</time></trkpt><trkpt lat="39.6703367" lon="8.5336767"><ele>101.5</ele><time>2026-04-21T08:46:04.354Z</time></trkpt><trkpt lat="39.67041" lon="8.5336383"><ele>101.0</ele><time>2026-04-21T08:46:05.354Z</time></trkpt><trkpt lat="39.670495" lon="8.5335933"><ele>100.50000000000001</ele><time>2026-04-21T08:46:06.353Z</time></trkpt><trkpt lat="39.6705883" lon="8.5335417"><ele>100.0</ele><time>2026-04-21T08:46:07.353Z</time></trkpt><trkpt lat="39.670665" lon="8.5334883"><ele>99.42857142857143</ele><time>2026-04-21T08:46:08.354Z</time></trkpt><trkpt lat="39.6707317" lon="8.5334417"><ele>98.85714285714286</ele><time>2026-04-21T08:46:09.354Z</time></trkpt><trkpt lat="39.6707883" lon="8.5333933"><ele>98.28571428571428</ele><time>2026-04-21T08:46:10.353Z</time></trkpt><trkpt lat="39.67084" lon="8.533345"><ele>97.71428571428572</ele><time>2026-04-21T08:46:11.354Z</time></trkpt><trkpt lat="39.67089" lon="8.5332833"><ele>97.14285714285714</ele><time>2026-04-21T08:46:12.353Z</time></trkpt><trkpt lat="39.6709417" lon="8.5332117"><ele>96.57142857142857</ele><time>2026-04-21T08:46:13.354Z</time></trkpt><trkpt lat="39.67098" lon="8.5331283"><ele>96.0</ele><time>2026-04-21T08:46:14.353Z</time></trkpt><trkpt lat="39.6710167" lon="8.53305"><ele>96.0</ele><time>2026-04-21T08:46:15.354Z</time></trkpt><trkpt lat="39.6710483" lon="8.5329767"><ele>96.0</ele><time>2026-04-21T08:46:16.353Z</time></trkpt><trkpt lat="39.6711217" lon="8.532845"><ele>96.0</ele><time>2026-04-21T08:46:18.354Z</time></trkpt><trkpt lat="39.67116" lon="8.5327717"><ele>96.0</ele><time>2026-04-21T08:46:19.354Z</time></trkpt><trkpt lat="39.6711917" lon="8.5327"><ele>96.0</ele><time>2026-04-21T08:46:20.353Z</time></trkpt><trkpt lat="39.671225" lon="8.5326267"><ele>96.0</ele><time>2026-04-21T08:46:21.354Z</time></trkpt><trkpt lat="39.6712567" lon="8.532545"><ele>95.33333333333333</ele><time>2026-04-21T08:46:22.354Z</time></trkpt><trkpt lat="39.67129" lon="8.532475"><ele>94.66666666666667</ele><time>2026-04-21T08:46:23.353Z</time></trkpt><trkpt lat="39.6713533" lon="8.5323583"><ele>94.0</ele><time>2026-04-21T08:46:25.354Z</time></trkpt><trkpt lat="39.6713983" lon="8.5323"><ele>93.33333333333334</ele><time>2026-04-21T08:46:26.353Z</time></trkpt><trkpt lat="39.671495" lon="8.5322183"><ele>92.66666666666667</ele><time>2026-04-21T08:46:28.354Z</time></trkpt><trkpt lat="39.6715683" lon="8.532165"><ele>92.0</ele><time>2026-04-21T08:46:30.353Z</time></trkpt><trkpt lat="39.6716267" lon="8.5320867"><ele>90.39999999999999</ele><time>2026-04-21T08:48:02.354Z</time></trkpt><trkpt lat="39.6716933" lon="8.53201"><ele>88.8</ele><time>2026-04-21T08:48:04.353Z</time></trkpt><trkpt lat="39.6717933" lon="8.53191"><ele>87.2</ele><time>2026-04-21T08:48:06.354Z</time></trkpt><trkpt lat="39.6718467" lon="8.53184"><ele>85.6</ele><time>2026-04-21T08:48:07.354Z</time></trkpt><trkpt lat="39.6718967" lon="8.53175"><ele>84.0</ele><time>2026-04-21T08:48:08.354Z</time></trkpt><trkpt lat="39.6719383" lon="8.5316533"><ele>84.0</ele><time>2026-04-21T08:48:09.354Z</time></trkpt><trkpt lat="39.67197" lon="8.531555"><ele>84.0</ele><time>2026-04-21T08:48:10.354Z</time></trkpt><trkpt lat="39.67201" lon="8.5314567"><ele>84.0</ele><time>2026-04-21T08:48:11.353Z</time></trkpt><trkpt lat="39.6720533" lon="8.5313617"><ele>84.0</ele><time>2026-04-21T08:48:12.354Z</time></trkpt><trkpt lat="39.6721067" lon="8.531265"><ele>84.0</ele><time>2026-04-21T08:48:13.353Z</time></trkpt><trkpt lat="39.6721667" lon="8.531165"><ele>84.0</ele><time>2026-04-21T08:48:14.353Z</time></trkpt><trkpt lat="39.67223" lon="8.531055"><ele>83.0</ele><time>2026-04-21T08:48:15.353Z</time></trkpt><trkpt lat="39.67229" lon="8.53095"><ele>82.0</ele><time>2026-04-21T08:48:16.354Z</time></trkpt><trkpt lat="39.672345" lon="8.53086"><ele>81.0</ele><time>2026-04-21T08:48:17.354Z</time></trkpt><trkpt lat="39.6723917" lon="8.5307783"><ele>80.0</ele><time>2026-04-21T08:48:18.354Z</time></trkpt><trkpt lat="39.6724333" lon="8.5307067"><ele>79.0</ele><time>2026-04-21T08:48:19.354Z</time></trkpt><trkpt lat="39.6724867" lon="8.5306317"><ele>78.0</ele><time>2026-04-21T08:48:20.354Z</time></trkpt><trkpt lat="39.672545" lon="8.5305617"><ele>78.0</ele><time>2026-04-21T08:48:21.354Z</time></trkpt><trkpt lat="39.6726267" lon="8.53049"><ele>78.0</ele><time>2026-04-21T08:48:22.354Z</time></trkpt><trkpt lat="39.6727217" lon="8.53041"><ele>78.0</ele><time>2026-04-21T08:48:23.353Z</time></trkpt><trkpt lat="39.6728233" lon="8.53032"><ele>78.0</ele><time>2026-04-21T08:48:24.353Z</time></trkpt><trkpt lat="39.6729417" lon="8.5302183"><ele>76.25</ele><time>2026-04-21T08:48:25.354Z</time></trkpt><trkpt lat="39.6730483" lon="8.5301117"><ele>74.5</ele><time>2026-04-21T08:48:26.353Z</time></trkpt><trkpt lat="39.6731633" lon="8.5300017"><ele>72.75</ele><time>2026-04-21T08:48:27.354Z</time></trkpt><trkpt lat="39.67328" lon="8.5298967"><ele>71.0</ele><time>2026-04-21T08:48:28.354Z</time></trkpt><trkpt lat="39.6733867" lon="8.5298133"><ele>71.0</ele><time>2026-04-21T08:48:29.354Z</time></trkpt><trkpt lat="39.673485" lon="8.52972"><ele>71.0</ele><time>2026-04-21T08:48:30.353Z</time></trkpt><trkpt lat="39.6735983" lon="8.5296167"><ele>71.0</ele><time>2026-04-21T08:48:31.354Z</time></trkpt><trkpt lat="39.6737217" lon="8.5295217"><ele>71.0</ele><time>2026-04-21T08:48:32.353Z</time></trkpt><trkpt lat="39.673865" lon="8.529425"><ele>70.5</ele><time>2026-04-21T08:48:33.353Z</time></trkpt><trkpt lat="39.674" lon="8.5293533"><ele>70.0</ele><time>2026-04-21T08:48:34.354Z</time></trkpt><trkpt lat="39.6741183" lon="8.529285"><ele>69.5</ele><time>2026-04-21T08:48:35.353Z</time></trkpt><trkpt lat="39.6742417" lon="8.52922"><ele>69.0</ele><time>2026-04-21T08:48:36.353Z</time></trkpt><trkpt lat="39.67436" lon="8.5291533"><ele>68.60000000000001</ele><time>2026-04-21T08:48:37.353Z</time></trkpt><trkpt lat="39.67447" lon="8.52909"><ele>68.2</ele><time>2026-04-21T08:48:38.354Z</time></trkpt><trkpt lat="39.67457" lon="8.5290383"><ele>67.80000000000001</ele><time>2026-04-21T08:48:39.353Z</time></trkpt><trkpt lat="39.6746733" lon="8.5290067"><ele>67.4</ele><time>2026-04-21T08:48:40.353Z</time></trkpt><trkpt lat="39.6747617" lon="8.5289917"><ele>67.0</ele><time>2026-04-21T08:48:41.353Z</time></trkpt><trkpt lat="39.67485" lon="8.5289667"><ele>67.0</ele><time>2026-04-21T08:48:42.353Z</time></trkpt><trkpt lat="39.6749367" lon="8.5289333"><ele>67.0</ele><time>2026-04-21T08:48:43.354Z</time></trkpt><trkpt lat="39.675025" lon="8.5288767"><ele>67.0</ele><time>2026-04-21T08:48:44.354Z</time></trkpt><trkpt lat="39.6751083" lon="8.5288283"><ele>67.0</ele><time>2026-04-21T08:48:45.354Z</time></trkpt><trkpt lat="39.6751917" lon="8.5287767"><ele>67.0</ele><time>2026-04-21T08:48:46.354Z</time></trkpt><trkpt lat="39.6752767" lon="8.528715"><ele>67.0</ele><time>2026-04-21T08:48:47.354Z</time></trkpt><trkpt lat="39.675365" lon="8.5286383"><ele>67.0</ele><time>2026-04-21T08:48:48.354Z</time></trkpt><trkpt lat="39.67545" lon="8.5285583"><ele>67.0</ele><time>2026-04-21T08:48:49.354Z</time></trkpt><trkpt lat="39.6755183" lon="8.5284867"><ele>67.0</ele><time>2026-04-21T08:48:50.354Z</time></trkpt><trkpt lat="39.6755883" lon="8.5284283"><ele>67.0</ele><time>2026-04-21T08:48:51.353Z</time></trkpt><trkpt lat="39.6756617" lon="8.5283917"><ele>67.0</ele><time>2026-04-21T08:48:52.353Z</time></trkpt><trkpt lat="39.67574" lon="8.5283683"><ele>67.0</ele><time>2026-04-21T08:48:53.354Z</time></trkpt><trkpt lat="39.6758183" lon="8.5283567"><ele>67.0</ele><time>2026-04-21T08:48:54.354Z</time></trkpt><trkpt lat="39.6758917" lon="8.52834"><ele>67.0</ele><time>2026-04-21T08:48:55.354Z</time></trkpt><trkpt lat="39.67596" lon="8.52833"><ele>67.0</ele><time>2026-04-21T08:48:56.353Z</time></trkpt><trkpt lat="39.676025" lon="8.5283167"><ele>67.0</ele><time>2026-04-21T08:48:57.354Z</time></trkpt><trkpt lat="39.676145" lon="8.5283267"><ele>66.71428571428572</ele><time>2026-04-21T08:48:59.354Z</time></trkpt><trkpt lat="39.6762067" lon="8.528345"><ele>66.42857142857143</ele><time>2026-04-21T08:49:00.354Z</time></trkpt><trkpt lat="39.676265" lon="8.5283917"><ele>66.14285714285714</ele><time>2026-04-21T08:49:01.354Z</time></trkpt><trkpt lat="39.6763233" lon="8.52845"><ele>65.85714285714286</ele><time>2026-04-21T08:49:02.354Z</time></trkpt><trkpt lat="39.676385" lon="8.52852"><ele>65.57142857142857</ele><time>2026-04-21T08:49:03.353Z</time></trkpt><trkpt lat="39.676445" lon="8.528595"><ele>65.28571428571429</ele><time>2026-04-21T08:49:04.354Z</time></trkpt><trkpt lat="39.6765" lon="8.5286633"><ele>65.0</ele><time>2026-04-21T08:49:05.354Z</time></trkpt><trkpt lat="39.6765617" lon="8.52872"><ele>64.83333333333334</ele><time>2026-04-21T08:49:06.354Z</time></trkpt><trkpt lat="39.6766283" lon="8.5287717"><ele>64.66666666666667</ele><time>2026-04-21T08:49:07.354Z</time></trkpt><trkpt lat="39.67669" lon="8.5288233"><ele>64.5</ele><time>2026-04-21T08:49:08.353Z</time></trkpt><trkpt lat="39.6767433" lon="8.5288733"><ele>64.33333333333333</ele><time>2026-04-21T08:49:09.353Z</time></trkpt><trkpt lat="39.6768017" lon="8.528985"><ele>64.16666666666666</ele><time>2026-04-21T08:49:11.354Z</time></trkpt><trkpt lat="39.6768533" lon="8.5291167"><ele>64.0</ele><time>2026-04-21T08:49:13.354Z</time></trkpt><trkpt lat="39.6769033" lon="8.52928"><ele>64.0</ele><time>2026-04-21T08:49:15.353Z</time></trkpt><trkpt lat="39.6769333" lon="8.5293683"><ele>63.99999999999999</ele><time>2026-04-21T08:49:16.353Z</time></trkpt><trkpt lat="39.6769683" lon="8.52945"><ele>64.0</ele><time>2026-04-21T08:49:17.353Z</time></trkpt><trkpt lat="39.6770117" lon="8.529515"><ele>64.0</ele><time>2026-04-21T08:49:18.354Z</time></trkpt><trkpt lat="39.677075" lon="8.5295617"><ele>63.99999999999999</ele><time>2026-04-21T08:49:19.354Z</time></trkpt><trkpt lat="39.6771367" lon="8.52959"><ele>64.0</ele><time>2026-04-21T08:49:20.353Z</time></trkpt><trkpt lat="39.6772067" lon="8.5296133"><ele>64.0</ele><time>2026-04-21T08:49:21.353Z</time></trkpt><trkpt lat="39.6772833" lon="8.5296433"><ele>63.33333333333333</ele><time>2026-04-21T08:49:22.354Z</time></trkpt><trkpt lat="39.6773667" lon="8.5296767"><ele>62.666666666666664</ele><time>2026-04-21T08:49:23.354Z</time></trkpt><trkpt lat="39.6774533" lon="8.5297133"><ele>62.0</ele><time>2026-04-21T08:49:24.353Z</time></trkpt><trkpt lat="39.67754" lon="8.52975"><ele>61.33333333333333</ele><time>2026-04-21T08:49:25.353Z</time></trkpt><trkpt lat="39.6776233" lon="8.5297833"><ele>60.666666666666664</ele><time>2026-04-21T08:49:26.353Z</time></trkpt><trkpt lat="39.6777067" lon="8.529815"><ele>60.0</ele><time>2026-04-21T08:49:27.353Z</time></trkpt><trkpt lat="39.677785" lon="8.5298533"><ele>59.6</ele><time>2026-04-21T08:49:28.354Z</time></trkpt><trkpt lat="39.677875" lon="8.5298917"><ele>59.2</ele><time>2026-04-21T08:49:29.353Z</time></trkpt><trkpt lat="39.6779717" lon="8.5299367"><ele>58.8</ele><time>2026-04-21T08:49:30.354Z</time></trkpt><trkpt lat="39.6780783" lon="8.5299833"><ele>58.4</ele><time>2026-04-21T08:49:31.353Z</time></trkpt><trkpt lat="39.6781717" lon="8.530045"><ele>58.0</ele><time>2026-04-21T08:49:32.354Z</time></trkpt><trkpt lat="39.678265" lon="8.5301067"><ele>58.0</ele><time>2026-04-21T08:49:33.353Z</time></trkpt><trkpt lat="39.678355" lon="8.5301717"><ele>58.0</ele><time>2026-04-21T08:49:34.354Z</time></trkpt><trkpt lat="39.6784417" lon="8.5302533"><ele>58.0</ele><time>2026-04-21T08:49:35.354Z</time></trkpt><trkpt lat="39.67853" lon="8.5303583"><ele>58.0</ele><time>2026-04-21T08:49:36.353Z</time></trkpt><trkpt lat="39.6786033" lon="8.5304567"><ele>58.0</ele><time>2026-04-21T08:49:37.353Z</time></trkpt><trkpt lat="39.6786767" lon="8.5305583"><ele>57.33333333333333</ele><time>2026-04-21T08:49:38.354Z</time></trkpt><trkpt lat="39.678745" lon="8.53065"><ele>56.666666666666664</ele><time>2026-04-21T08:49:39.354Z</time></trkpt><trkpt lat="39.678805" lon="8.530725"><ele>56.0</ele><time>2026-04-21T08:49:40.353Z</time></trkpt><trkpt lat="39.6788517" lon="8.5307833"><ele>55.33333333333333</ele><time>2026-04-21T08:49:41.353Z</time></trkpt><trkpt lat="39.6789483" lon="8.53086"><ele>54.666666666666664</ele><time>2026-04-21T08:49:43.354Z</time></trkpt><trkpt lat="39.67903" lon="8.5308817"><ele>54.0</ele><time>2026-04-21T08:49:45.353Z</time></trkpt><trkpt lat="39.6790983" lon="8.53079"><ele>54.0</ele><time>2026-04-21T08:49:48.354Z</time></trkpt><trkpt lat="39.6791067" lon="8.5306317"><ele>54.00000000000001</ele><time>2026-04-21T08:49:50.354Z</time></trkpt><trkpt lat="39.679105" lon="8.5305433"><ele>54.00000000000001</ele><time>2026-04-21T08:49:51.353Z</time></trkpt><trkpt lat="39.6791" lon="8.5304433"><ele>54.0</ele><time>2026-04-21T08:49:52.353Z</time></trkpt><trkpt lat="39.679095" lon="8.5303283"><ele>54.0</ele><time>2026-04-21T08:49:53.353Z</time></trkpt><trkpt lat="39.679095" lon="8.5302017"><ele>54.2</ele><time>2026-04-21T08:49:54.353Z</time></trkpt><trkpt lat="39.6790883" lon="8.5300683"><ele>54.400000000000006</ele><time>2026-04-21T08:49:55.354Z</time></trkpt><trkpt lat="39.679095" lon="8.52995"><ele>54.6</ele><time>2026-04-21T08:49:56.353Z</time></trkpt><trkpt lat="39.679095" lon="8.5298267"><ele>54.8</ele><time>2026-04-21T08:49:57.354Z</time></trkpt><trkpt lat="39.6790917" lon="8.529695"><ele>55.0</ele><time>2026-04-21T08:49:58.353Z</time></trkpt><trkpt lat="39.6790883" lon="8.52955"><ele>55.2</ele><time>2026-04-21T08:49:59.353Z</time></trkpt><trkpt lat="39.6790883" lon="8.5294067"><ele>55.4</ele><time>2026-04-21T08:50:00.353Z</time></trkpt><trkpt lat="39.6790867" lon="8.529265"><ele>55.599999999999994</ele><time>2026-04-21T08:50:01.354Z</time></trkpt><trkpt lat="39.6791" lon="8.52912"><ele>55.8</ele><time>2026-04-21T08:50:02.354Z</time></trkpt><trkpt lat="39.6791133" lon="8.52897"><ele>56.0</ele><time>2026-04-21T08:50:03.354Z</time></trkpt><trkpt lat="39.6791333" lon="8.5288117"><ele>55.599999999999994</ele><time>2026-04-21T08:50:04.353Z</time></trkpt><trkpt lat="39.6791483" lon="8.528665"><ele>55.199999999999996</ele><time>2026-04-21T08:50:05.354Z</time></trkpt><trkpt lat="39.6791533" lon="8.528525"><ele>54.800000000000004</ele><time>2026-04-21T08:50:06.354Z</time></trkpt><trkpt lat="39.6791567" lon="8.5283883"><ele>54.400000000000006</ele><time>2026-04-21T08:50:07.354Z</time></trkpt><trkpt lat="39.6791617" lon="8.5282667"><ele>54.0</ele><time>2026-04-21T08:50:08.354Z</time></trkpt><trkpt lat="39.6791583" lon="8.5281567"><ele>54.0</ele><time>2026-04-21T08:50:09.353Z</time></trkpt><trkpt lat="39.679145" lon="8.5280467"><ele>54.0</ele><time>2026-04-21T08:50:10.353Z</time></trkpt><trkpt lat="39.6791333" lon="8.527945"><ele>54.0</ele><time>2026-04-21T08:50:11.354Z</time></trkpt><trkpt lat="39.679105" lon="8.5278533"><ele>54.0</ele><time>2026-04-21T08:50:12.353Z</time></trkpt><trkpt lat="39.67908" lon="8.527765"><ele>54.0</ele><time>2026-04-21T08:50:13.353Z</time></trkpt><trkpt lat="39.6790567" lon="8.5276683"><ele>54.0</ele><time>2026-04-21T08:50:14.354Z</time></trkpt><trkpt lat="39.6790467" lon="8.527565"><ele>53.333333333333336</ele><time>2026-04-21T08:50:15.354Z</time></trkpt><trkpt lat="39.6790383" lon="8.52746"><ele>52.66666666666667</ele><time>2026-04-21T08:50:16.354Z</time></trkpt><trkpt lat="39.679035" lon="8.52734"><ele>52.0</ele><time>2026-04-21T08:50:17.353Z</time></trkpt><trkpt lat="39.6790333" lon="8.5272217"><ele>51.333333333333336</ele><time>2026-04-21T08:50:18.353Z</time></trkpt><trkpt lat="39.679025" lon="8.5271033"><ele>50.66666666666667</ele><time>2026-04-21T08:50:19.353Z</time></trkpt><trkpt lat="39.67901" lon="8.5269933"><ele>50.0</ele><time>2026-04-21T08:50:20.353Z</time></trkpt><trkpt lat="39.6789983" lon="8.526895"><ele>49.6</ele><time>2026-04-21T08:50:21.354Z</time></trkpt><trkpt lat="39.67899" lon="8.526805"><ele>49.2</ele><time>2026-04-21T08:50:22.353Z</time></trkpt><trkpt lat="39.6789933" lon="8.52672"><ele>48.8</ele><time>2026-04-21T08:50:23.353Z</time></trkpt><trkpt lat="39.6790517" lon="8.526575"><ele>48.4</ele><time>2026-04-21T08:50:25.353Z</time></trkpt><trkpt lat="39.6791017" lon="8.5265217"><ele>48.0</ele><time>2026-04-21T08:50:26.353Z</time></trkpt><trkpt lat="39.6792267" lon="8.5264717"><ele>48.0</ele><time>2026-04-21T08:50:28.354Z</time></trkpt><trkpt lat="39.6793117" lon="8.5264767"><ele>48.0</ele><time>2026-04-21T08:50:29.353Z</time></trkpt><trkpt lat="39.6793967" lon="8.526485"><ele>48.0</ele><time>2026-04-21T08:50:30.354Z</time></trkpt><trkpt lat="39.6794717" lon="8.5264883"><ele>48.0</ele><time>2026-04-21T08:50:31.353Z</time></trkpt><trkpt lat="39.6795417" lon="8.5264783"><ele>48.0</ele><time>2026-04-21T08:50:32.354Z</time></trkpt><trkpt lat="39.6796067" lon="8.5264717"><ele>48.0</ele><time>2026-04-21T08:50:33.354Z</time></trkpt><trkpt lat="39.6796817" lon="8.52647"><ele>47.666666666666664</ele><time>2026-04-21T08:50:34.354Z</time></trkpt><trkpt lat="39.6797583" lon="8.52646"><ele>47.333333333333336</ele><time>2026-04-21T08:50:35.354Z</time></trkpt><trkpt lat="39.6798333" lon="8.5264417"><ele>47.0</ele><time>2026-04-21T08:50:36.353Z</time></trkpt><trkpt lat="39.6799033" lon="8.5264083"><ele>46.66666666666667</ele><time>2026-04-21T08:50:37.353Z</time></trkpt><trkpt lat="39.679965" lon="8.5263683"><ele>46.333333333333336</ele><time>2026-04-21T08:50:38.354Z</time></trkpt><trkpt lat="39.6800217" lon="8.526295"><ele>46.0</ele><time>2026-04-21T08:50:39.354Z</time></trkpt><trkpt lat="39.68008" lon="8.5262033"><ele>45.5</ele><time>2026-04-21T08:50:40.353Z</time></trkpt><trkpt lat="39.6801433" lon="8.52611"><ele>45.0</ele><time>2026-04-21T08:50:41.354Z</time></trkpt><trkpt lat="39.6802133" lon="8.52604"><ele>44.5</ele><time>2026-04-21T08:50:42.354Z</time></trkpt><trkpt lat="39.6802867" lon="8.525985"><ele>44.0</ele><time>2026-04-21T08:50:43.353Z</time></trkpt><trkpt lat="39.6803633" lon="8.5259433"><ele>43.5</ele><time>2026-04-21T08:50:44.354Z</time></trkpt><trkpt lat="39.680445" lon="8.5259083"><ele>43.0</ele><time>2026-04-21T08:50:45.354Z</time></trkpt><trkpt lat="39.6805367" lon="8.5258667"><ele>42.599999999999994</ele><time>2026-04-21T08:50:46.354Z</time></trkpt><trkpt lat="39.680635" lon="8.52581"><ele>42.199999999999996</ele><time>2026-04-21T08:50:47.353Z</time></trkpt><trkpt lat="39.6807317" lon="8.5257517"><ele>41.8</ele><time>2026-04-21T08:50:48.354Z</time></trkpt><trkpt lat="39.6808217" lon="8.52568"><ele>41.4</ele><time>2026-04-21T08:50:49.354Z</time></trkpt><trkpt lat="39.6809017" lon="8.5256067"><ele>41.0</ele><time>2026-04-21T08:50:50.354Z</time></trkpt><trkpt lat="39.680985" lon="8.525535"><ele>41.0</ele><time>2026-04-21T08:50:51.353Z</time></trkpt><trkpt lat="39.6810617" lon="8.5254617"><ele>41.0</ele><time>2026-04-21T08:50:52.354Z</time></trkpt><trkpt lat="39.6811417" lon="8.52539"><ele>41.0</ele><time>2026-04-21T08:50:53.354Z</time></trkpt><trkpt lat="39.6812317" lon="8.5253317"><ele>41.0</ele><time>2026-04-21T08:50:54.353Z</time></trkpt><trkpt lat="39.6813283" lon="8.5252767"><ele>41.0</ele><time>2026-04-21T08:50:55.354Z</time></trkpt><trkpt lat="39.68143" lon="8.52522"><ele>39.0</ele><time>2026-04-21T08:50:56.354Z</time></trkpt><trkpt lat="39.6815333" lon="8.525155"><ele>37.0</ele><time>2026-04-21T08:50:57.353Z</time></trkpt><trkpt lat="39.6816283" lon="8.5250833"><ele>35.0</ele><time>2026-04-21T08:50:58.353Z</time></trkpt><trkpt lat="39.6817317" lon="8.5250083"><ele>33.0</ele><time>2026-04-21T08:50:59.353Z</time></trkpt><trkpt lat="39.6818267" lon="8.5249283"><ele>33.0</ele><time>2026-04-21T08:51:00.354Z</time></trkpt><trkpt lat="39.6819317" lon="8.5248633"><ele>33.0</ele><time>2026-04-21T08:51:01.353Z</time></trkpt><trkpt lat="39.68204" lon="8.5248033"><ele>33.0</ele><time>2026-04-21T08:51:02.354Z</time></trkpt><trkpt lat="39.6821383" lon="8.5247417"><ele>33.0</ele><time>2026-04-21T08:51:03.353Z</time></trkpt><trkpt lat="39.6822417" lon="8.5246683"><ele>32.0</ele><time>2026-04-21T08:51:04.354Z</time></trkpt><trkpt lat="39.6823367" lon="8.524585"><ele>30.999999999999996</ele><time>2026-04-21T08:51:05.353Z</time></trkpt><trkpt lat="39.68242" lon="8.5245017"><ele>29.999999999999996</ele><time>2026-04-21T08:51:06.354Z</time></trkpt><trkpt lat="39.6824983" lon="8.524435"><ele>29.0</ele><time>2026-04-21T08:51:07.353Z</time></trkpt><trkpt lat="39.6825933" lon="8.5243817"><ele>28.0</ele><time>2026-04-21T08:51:08.353Z</time></trkpt><trkpt lat="39.6826883" lon="8.5243583"><ele>27.75</ele><time>2026-04-21T08:51:09.354Z</time></trkpt><trkpt lat="39.6827933" lon="8.5243333"><ele>27.5</ele><time>2026-04-21T08:51:10.353Z</time></trkpt><trkpt lat="39.6829067" lon="8.5242883"><ele>27.25</ele><time>2026-04-21T08:51:11.353Z</time></trkpt><trkpt lat="39.6830233" lon="8.5242317"><ele>27.0</ele><time>2026-04-21T08:51:12.353Z</time></trkpt><trkpt lat="39.683145" lon="8.5241683"><ele>27.0</ele><time>2026-04-21T08:51:13.353Z</time></trkpt><trkpt lat="39.683245" lon="8.5241017"><ele>27.000000000000004</ele><time>2026-04-21T08:51:14.354Z</time></trkpt><trkpt lat="39.683335" lon="8.5240383"><ele>27.000000000000004</ele><time>2026-04-21T08:51:15.354Z</time></trkpt><trkpt lat="39.683435" lon="8.523975"><ele>27.0</ele><time>2026-04-21T08:51:16.353Z</time></trkpt><trkpt lat="39.6835433" lon="8.5239133"><ele>27.0</ele><time>2026-04-21T08:51:17.353Z</time></trkpt><trkpt lat="39.6836633" lon="8.5238667"><ele>27.5</ele><time>2026-04-21T08:51:18.353Z</time></trkpt><trkpt lat="39.6837967" lon="8.5238283"><ele>28.0</ele><time>2026-04-21T08:51:19.354Z</time></trkpt><trkpt lat="39.6839317" lon="8.523795"><ele>28.5</ele><time>2026-04-21T08:51:20.354Z</time></trkpt><trkpt lat="39.68406" lon="8.523765"><ele>29.0</ele><time>2026-04-21T08:51:21.353Z</time></trkpt><trkpt lat="39.684185" lon="8.5237383"><ele>29.0</ele><time>2026-04-21T08:51:22.354Z</time></trkpt><trkpt lat="39.68431" lon="8.5237"><ele>29.0</ele><time>2026-04-21T08:51:23.353Z</time></trkpt><trkpt lat="39.6844417" lon="8.52366"><ele>29.0</ele><time>2026-04-21T08:51:24.353Z</time></trkpt><trkpt lat="39.6845767" lon="8.5236033"><ele>29.0</ele><time>2026-04-21T08:51:25.353Z</time></trkpt><trkpt lat="39.6847117" lon="8.523535"><ele>29.0</ele><time>2026-04-21T08:51:26.354Z</time></trkpt><trkpt lat="39.684835" lon="8.52348"><ele>29.0</ele><time>2026-04-21T08:51:27.354Z</time></trkpt><trkpt lat="39.68496" lon="8.523425"><ele>29.0</ele><time>2026-04-21T08:51:28.354Z</time></trkpt><trkpt lat="39.68507" lon="8.5233817"><ele>29.0</ele><time>2026-04-21T08:51:29.354Z</time></trkpt><trkpt lat="39.6851767" lon="8.5233433"><ele>28.25</ele><time>2026-04-21T08:51:30.353Z</time></trkpt><trkpt lat="39.6852767" lon="8.52332"><ele>27.5</ele><time>2026-04-21T08:51:31.353Z</time></trkpt><trkpt lat="39.68539" lon="8.5233217"><ele>26.75</ele><time>2026-04-21T08:51:32.354Z</time></trkpt><trkpt lat="39.6855183" lon="8.52333"><ele>26.0</ele><time>2026-04-21T08:51:33.354Z</time></trkpt><trkpt lat="39.6856467" lon="8.5233567"><ele>26.0</ele><time>2026-04-21T08:51:34.353Z</time></trkpt><trkpt lat="39.6857833" lon="8.5233883"><ele>26.0</ele><time>2026-04-21T08:51:35.354Z</time></trkpt><trkpt lat="39.68592" lon="8.5234267"><ele>26.0</ele><time>2026-04-21T08:51:36.353Z</time></trkpt><trkpt lat="39.68605" lon="8.5234583"><ele>26.0</ele><time>2026-04-21T08:51:37.353Z</time></trkpt><trkpt lat="39.6861767" lon="8.5234933"><ele>26.0</ele><time>2026-04-21T08:51:38.354Z</time></trkpt><trkpt lat="39.6862983" lon="8.5235283"><ele>26.0</ele><time>2026-04-21T08:51:39.353Z</time></trkpt><trkpt lat="39.6864217" lon="8.5235617"><ele>26.0</ele><time>2026-04-21T08:51:40.354Z</time></trkpt><trkpt lat="39.6865383" lon="8.5235817"><ele>26.0</ele><time>2026-04-21T08:51:41.353Z</time></trkpt><trkpt lat="39.6866517" lon="8.5235983"><ele>26.0</ele><time>2026-04-21T08:51:42.354Z</time></trkpt><trkpt lat="39.686755" lon="8.523615"><ele>26.0</ele><time>2026-04-21T08:51:43.353Z</time></trkpt><trkpt lat="39.6868633" lon="8.5236317"><ele>26.0</ele><time>2026-04-21T08:51:44.353Z</time></trkpt><trkpt lat="39.6869667" lon="8.5236433"><ele>26.0</ele><time>2026-04-21T08:51:45.353Z</time></trkpt><trkpt lat="39.68707" lon="8.523645"><ele>26.0</ele><time>2026-04-21T08:51:46.354Z</time></trkpt><trkpt lat="39.6871617" lon="8.52364"><ele>25.8</ele><time>2026-04-21T08:51:47.354Z</time></trkpt><trkpt lat="39.6872533" lon="8.5236367"><ele>25.6</ele><time>2026-04-21T08:51:48.353Z</time></trkpt><trkpt lat="39.68735" lon="8.5236233"><ele>25.4</ele><time>2026-04-21T08:51:49.354Z</time></trkpt><trkpt lat="39.6874567" lon="8.5236067"><ele>25.2</ele><time>2026-04-21T08:51:50.354Z</time></trkpt><trkpt lat="39.6875667" lon="8.5235833"><ele>25.0</ele><time>2026-04-21T08:51:51.354Z</time></trkpt><trkpt lat="39.6876767" lon="8.5235633"><ele>24.0</ele><time>2026-04-21T08:51:52.353Z</time></trkpt><trkpt lat="39.6877917" lon="8.5235217"><ele>23.0</ele><time>2026-04-21T08:51:53.354Z</time></trkpt><trkpt lat="39.6879133" lon="8.52347"><ele>22.0</ele><time>2026-04-21T08:51:54.354Z</time></trkpt><trkpt lat="39.6880283" lon="8.5234233"><ele>21.0</ele><time>2026-04-21T08:51:55.354Z</time></trkpt><trkpt lat="39.68816" lon="8.5233717"><ele>21.0</ele><time>2026-04-21T08:51:56.354Z</time></trkpt><trkpt lat="39.68829" lon="8.523315"><ele>21.0</ele><time>2026-04-21T08:51:57.354Z</time></trkpt><trkpt lat="39.6884167" lon="8.5232667"><ele>21.0</ele><time>2026-04-21T08:51:58.353Z</time></trkpt><trkpt lat="39.6885483" lon="8.52322"><ele>21.0</ele><time>2026-04-21T08:51:59.353Z</time></trkpt><trkpt lat="39.6886783" lon="8.5231717"><ele>20.0</ele><time>2026-04-21T08:52:00.353Z</time></trkpt><trkpt lat="39.6888067" lon="8.5231233"><ele>19.0</ele><time>2026-04-21T08:52:01.353Z</time></trkpt><trkpt lat="39.6889367" lon="8.523075"><ele>18.0</ele><time>2026-04-21T08:52:02.353Z</time></trkpt><trkpt lat="39.689055" lon="8.523025"><ele>17.0</ele><time>2026-04-21T08:52:03.353Z</time></trkpt><trkpt lat="39.6891783" lon="8.5229667"><ele>17.0</ele><time>2026-04-21T08:52:04.353Z</time></trkpt><trkpt lat="39.689295" lon="8.5229233"><ele>17.0</ele><time>2026-04-21T08:52:05.353Z</time></trkpt><trkpt lat="39.689415" lon="8.5228733"><ele>17.0</ele><time>2026-04-21T08:52:06.354Z</time></trkpt><trkpt lat="39.689535" lon="8.52283"><ele>17.0</ele><time>2026-04-21T08:52:07.354Z</time></trkpt><trkpt lat="39.6896417" lon="8.52279"><ele>17.2</ele><time>2026-04-21T08:52:08.353Z</time></trkpt><trkpt lat="39.6897467" lon="8.5227483"><ele>17.4</ele><time>2026-04-21T08:52:09.353Z</time></trkpt><trkpt lat="39.6898483" lon="8.5227217"><ele>17.6</ele><time>2026-04-21T08:52:10.353Z</time></trkpt><trkpt lat="39.6899367" lon="8.5227033"><ele>17.8</ele><time>2026-04-21T08:52:11.353Z</time></trkpt><trkpt lat="39.6900233" lon="8.52269"><ele>18.0</ele><time>2026-04-21T08:52:12.354Z</time></trkpt><trkpt lat="39.6901017" lon="8.5226867"><ele>18.000000000000004</ele><time>2026-04-21T08:52:13.354Z</time></trkpt><trkpt lat="39.6901733" lon="8.5227183"><ele>18.0</ele><time>2026-04-21T08:52:14.354Z</time></trkpt><trkpt lat="39.69025" lon="8.5227667"><ele>18.0</ele><time>2026-04-21T08:52:15.354Z</time></trkpt><trkpt lat="39.690315" lon="8.5228283"><ele>18.0</ele><time>2026-04-21T08:52:16.354Z</time></trkpt><trkpt lat="39.6903717" lon="8.5228717"><ele>18.0</ele><time>2026-04-21T08:52:17.353Z</time></trkpt><trkpt lat="39.69044" lon="8.5228883"><ele>18.000000000000004</ele><time>2026-04-21T08:52:18.354Z</time></trkpt><trkpt lat="39.6905117" lon="8.5229033"><ele>18.0</ele><time>2026-04-21T08:52:19.353Z</time></trkpt><trkpt lat="39.6906033" lon="8.5229167"><ele>18.166666666666668</ele><time>2026-04-21T08:52:20.354Z</time></trkpt><trkpt lat="39.6906933" lon="8.52293"><ele>18.333333333333332</ele><time>2026-04-21T08:52:21.354Z</time></trkpt><trkpt lat="39.69077" lon="8.52294"><ele>18.5</ele><time>2026-04-21T08:52:22.354Z</time></trkpt><trkpt lat="39.6908467" lon="8.5229317"><ele>18.666666666666664</ele><time>2026-04-21T08:52:23.354Z</time></trkpt><trkpt lat="39.69092" lon="8.5229067"><ele>18.833333333333332</ele><time>2026-04-21T08:52:24.353Z</time></trkpt><trkpt lat="39.6909833" lon="8.5228667"><ele>19.0</ele><time>2026-04-21T08:52:25.353Z</time></trkpt><trkpt lat="39.6910383" lon="8.5228267"><ele>18.5</ele><time>2026-04-21T08:52:26.354Z</time></trkpt><trkpt lat="39.6911533" lon="8.522835"><ele>18.0</ele><time>2026-04-21T08:52:28.353Z</time></trkpt><trkpt lat="39.6912067" lon="8.52288"><ele>17.5</ele><time>2026-04-21T08:52:29.354Z</time></trkpt><trkpt lat="39.691255" lon="8.5229467"><ele>17.0</ele><time>2026-04-21T08:52:30.353Z</time></trkpt><trkpt lat="39.6912983" lon="8.5230233"><ele>16.5</ele><time>2026-04-21T08:52:31.354Z</time></trkpt><trkpt lat="39.6913333" lon="8.52311"><ele>16.0</ele><time>2026-04-21T08:52:32.353Z</time></trkpt><trkpt lat="39.69137" lon="8.523195"><ele>15.333333333333332</ele><time>2026-04-21T08:52:33.353Z</time></trkpt><trkpt lat="39.6914083" lon="8.523275"><ele>14.666666666666666</ele><time>2026-04-21T08:52:34.353Z</time></trkpt><trkpt lat="39.69147" lon="8.5233983"><ele>14.0</ele><time>2026-04-21T08:52:36.354Z</time></trkpt><trkpt lat="39.69151" lon="8.52348"><ele>13.333333333333332</ele><time>2026-04-21T08:52:38.353Z</time></trkpt><trkpt lat="39.691575" lon="8.5234883"><ele>12.666666666666666</ele><time>2026-04-21T08:52:41.354Z</time></trkpt><trkpt lat="39.6916" lon="8.5233917"><ele>12.0</ele><time>2026-04-21T08:52:43.354Z</time></trkpt><trkpt lat="39.6915983" lon="8.523305"><ele>12.0</ele><time>2026-04-21T08:52:44.353Z</time></trkpt><trkpt lat="39.6915967" lon="8.5231983"><ele>12.0</ele><time>2026-04-21T08:52:45.354Z</time></trkpt><trkpt lat="39.6916" lon="8.52307"><ele>12.0</ele><time>2026-04-21T08:52:46.354Z</time></trkpt><trkpt lat="39.6915967" lon="8.5229133"><ele>12.0</ele><time>2026-04-21T08:52:47.354Z</time></trkpt><trkpt lat="39.6915883" lon="8.5227367"><ele>12.0</ele><time>2026-04-21T08:52:48.353Z</time></trkpt><trkpt lat="39.6915817" lon="8.52254"><ele>11.333333333333334</ele><time>2026-04-21T08:52:49.353Z</time></trkpt><trkpt lat="39.6915833" lon="8.5223167"><ele>10.666666666666668</ele><time>2026-04-21T08:52:50.354Z</time></trkpt><trkpt lat="39.6915983" lon="8.5220933"><ele>10.0</ele><time>2026-04-21T08:52:51.354Z</time></trkpt><trkpt lat="39.6916167" lon="8.5218883"><ele>10.0</ele><time>2026-04-21T08:52:52.353Z</time></trkpt><trkpt lat="39.6916483" lon="8.5216883"><ele>10.0</ele><time>2026-04-21T08:52:53.354Z</time></trkpt><trkpt lat="39.691685" lon="8.5215"><ele>10.0</ele><time>2026-04-21T08:52:54.353Z</time></trkpt><trkpt lat="39.6917233" lon="8.52132"><ele>7.0</ele><time>2026-04-21T08:52:55.353Z</time></trkpt><trkpt lat="39.6917683" lon="8.52114"><ele>4.0</ele><time>2026-04-21T08:52:56.353Z</time></trkpt><trkpt lat="39.6918283" lon="8.52095"><ele>1.0</ele><time>2026-04-21T08:52:57.353Z</time></trkpt><trkpt lat="39.6918917" lon="8.5207417"><ele>1.0</ele><time>2026-04-21T08:52:58.353Z</time></trkpt><trkpt lat="39.6919583" lon="8.520525"><ele>1.0</ele><time>2026-04-21T08:52:59.353Z</time></trkpt><trkpt lat="39.6920217" lon="8.5203017"><ele>1.0</ele><time>2026-04-21T08:53:00.354Z</time></trkpt><trkpt lat="39.692085" lon="8.52008"><ele>1.0</ele><time>2026-04-21T08:53:01.353Z</time></trkpt><trkpt lat="39.6921467" lon="8.5198433"><ele>1.0</ele><time>2026-04-21T08:53:02.354Z</time></trkpt><trkpt lat="39.6922083" lon="8.519595"><ele>1.0</ele><time>2026-04-21T08:53:03.353Z</time></trkpt><trkpt lat="39.69228" lon="8.5193433"><ele>1.6666666666666665</ele><time>2026-04-21T08:53:04.354Z</time></trkpt><trkpt lat="39.6923517" lon="8.5190817"><ele>2.3333333333333335</ele><time>2026-04-21T08:53:05.353Z</time></trkpt><trkpt lat="39.6924333" lon="8.518815"><ele>3.0</ele><time>2026-04-21T08:53:06.354Z</time></trkpt><trkpt lat="39.69251" lon="8.5185367"><ele>3.5</ele><time>2026-04-21T08:53:07.354Z</time></trkpt><trkpt lat="39.6925933" lon="8.51826"><ele>4.0</ele><time>2026-04-21T08:53:08.354Z</time></trkpt><trkpt lat="39.69267" lon="8.51799"><ele>3.333333333333333</ele><time>2026-04-21T08:53:09.353Z</time></trkpt><trkpt lat="39.6927483" lon="8.5177533"><ele>2.6666666666666665</ele><time>2026-04-21T08:53:10.353Z</time></trkpt><trkpt lat="39.6928183" lon="8.5175233"><ele>2.0</ele><time>2026-04-21T08:53:11.353Z</time></trkpt><trkpt lat="39.6928917" lon="8.5172933"><ele>2.0</ele><time>2026-04-21T08:53:12.354Z</time></trkpt><trkpt lat="39.69297" lon="8.5170783"><ele>2.0</ele><time>2026-04-21T08:53:13.353Z</time></trkpt><trkpt lat="39.6930567" lon="8.516885"><ele>2.0</ele><time>2026-04-21T08:53:14.353Z</time></trkpt><trkpt lat="39.6931367" lon="8.516735"><ele>2.4000000000000004</ele><time>2026-04-21T08:53:15.353Z</time></trkpt><trkpt lat="39.6932117" lon="8.516625"><ele>2.8000000000000003</ele><time>2026-04-21T08:53:16.354Z</time></trkpt><trkpt lat="39.69327" lon="8.5165467"><ele>3.2</ele><time>2026-04-21T08:53:17.353Z</time></trkpt><trkpt lat="39.6933067" lon="8.5163917"><ele>3.6</ele><time>2026-04-21T08:53:19.353Z</time></trkpt><trkpt lat="39.6932833" lon="8.5162833"><ele>4.0</ele><time>2026-04-21T08:53:21.354Z</time></trkpt><trkpt lat="39.69327" lon="8.5161733"><ele>4.6</ele><time>2026-04-21T08:53:36.353Z</time></trkpt><trkpt lat="39.6932717" lon="8.5160667"><ele>5.2</ele><time>2026-04-21T08:53:39.354Z</time></trkpt><trkpt lat="39.6932967" lon="8.51596"><ele>5.799999999999999</ele><time>2026-04-21T08:53:42.353Z</time></trkpt><trkpt lat="39.6933233" lon="8.51587"><ele>6.3999999999999995</ele><time>2026-04-21T08:53:44.354Z</time></trkpt><trkpt lat="39.69336" lon="8.5157317"><ele>7.0</ele><time>2026-04-21T08:53:46.353Z</time></trkpt><trkpt lat="39.693395" lon="8.5155917"><ele>7.0</ele><time>2026-04-21T08:53:48.353Z</time></trkpt><trkpt lat="39.6934433" lon="8.51545"><ele>6.999999999999999</ele><time>2026-04-21T08:53:50.353Z</time></trkpt><trkpt lat="39.69347" lon="8.5153617"><ele>6.999999999999999</ele><time>2026-04-21T08:53:51.354Z</time></trkpt><trkpt lat="39.6935" lon="8.51526"><ele>7.0</ele><time>2026-04-21T08:53:52.354Z</time></trkpt><trkpt lat="39.6935317" lon="8.51515"><ele>7.0</ele><time>2026-04-21T08:53:53.354Z</time></trkpt><trkpt lat="39.6935683" lon="8.5150333"><ele>7.0</ele><time>2026-04-21T08:53:54.354Z</time></trkpt><trkpt lat="39.6936067" lon="8.5149067"><ele>6.999999999999999</ele><time>2026-04-21T08:53:55.354Z</time></trkpt><trkpt lat="39.69365" lon="8.514775"><ele>6.999999999999999</ele><time>2026-04-21T08:53:56.354Z</time></trkpt><trkpt lat="39.6936967" lon="8.51464"><ele>7.0</ele><time>2026-04-21T08:53:57.353Z</time></trkpt><trkpt lat="39.6937467" lon="8.514505"><ele>7.0</ele><time>2026-04-21T08:53:58.354Z</time></trkpt><trkpt lat="39.6938" lon="8.5143667"><ele>7.0</ele><time>2026-04-21T08:53:59.353Z</time></trkpt><trkpt lat="39.6938633" lon="8.5142217"><ele>7.0</ele><time>2026-04-21T08:54:00.353Z</time></trkpt><trkpt lat="39.69393" lon="8.51407"><ele>7.0</ele><time>2026-04-21T08:54:01.354Z</time></trkpt><trkpt lat="39.6940017" lon="8.513915"><ele>7.0</ele><time>2026-04-21T08:54:02.354Z</time></trkpt><trkpt lat="39.69407" lon="8.5137617"><ele>7.5</ele><time>2026-04-21T08:54:03.353Z</time></trkpt><trkpt lat="39.6941383" lon="8.5136083"><ele>8.0</ele><time>2026-04-21T08:54:04.353Z</time></trkpt><trkpt lat="39.69421" lon="8.5134517"><ele>8.5</ele><time>2026-04-21T08:54:05.354Z</time></trkpt><trkpt lat="39.6942783" lon="8.5132933"><ele>9.0</ele><time>2026-04-21T08:54:06.354Z</time></trkpt><trkpt lat="39.6943433" lon="8.5131417"><ele>9.0</ele><time>2026-04-21T08:54:07.353Z</time></trkpt><trkpt lat="39.6944133" lon="8.5129783"><ele>9.0</ele><time>2026-04-21T08:54:08.353Z</time></trkpt><trkpt lat="39.6944783" lon="8.5128033"><ele>9.0</ele><time>2026-04-21T08:54:09.353Z</time></trkpt><trkpt lat="39.6945417" lon="8.5126333"><ele>9.0</ele><time>2026-04-21T08:54:10.354Z</time></trkpt><trkpt lat="39.6946017" lon="8.5124633"><ele>9.0</ele><time>2026-04-21T08:54:11.354Z</time></trkpt><trkpt lat="39.6946517" lon="8.51229"><ele>9.0</ele><time>2026-04-21T08:54:12.354Z</time></trkpt><trkpt lat="39.6947067" lon="8.5121133"><ele>9.0</ele><time>2026-04-21T08:54:13.353Z</time></trkpt><trkpt lat="39.6947583" lon="8.5119383"><ele>9.0</ele><time>2026-04-21T08:54:14.353Z</time></trkpt><trkpt lat="39.6948183" lon="8.5117617"><ele>9.0</ele><time>2026-04-21T08:54:15.354Z</time></trkpt><trkpt lat="39.694875" lon="8.5115867"><ele>9.0</ele><time>2026-04-21T08:54:16.354Z</time></trkpt><trkpt lat="39.6949317" lon="8.51141"><ele>9.0</ele><time>2026-04-21T08:54:17.354Z</time></trkpt><trkpt lat="39.6949867" lon="8.5112317"><ele>9.0</ele><time>2026-04-21T08:54:18.353Z</time></trkpt><trkpt lat="39.695045" lon="8.5110567"><ele>9.75</ele><time>2026-04-21T08:54:19.353Z</time></trkpt><trkpt lat="39.6951083" lon="8.51088"><ele>10.5</ele><time>2026-04-21T08:54:20.354Z</time></trkpt><trkpt lat="39.6951633" lon="8.51071"><ele>11.25</ele><time>2026-04-21T08:54:21.354Z</time></trkpt><trkpt lat="39.6952233" lon="8.5105367"><ele>12.0</ele><time>2026-04-21T08:54:22.353Z</time></trkpt><trkpt lat="39.69528" lon="8.5103717"><ele>12.25</ele><time>2026-04-21T08:54:23.354Z</time></trkpt><trkpt lat="39.6953267" lon="8.5102083"><ele>12.5</ele><time>2026-04-21T08:54:24.353Z</time></trkpt><trkpt lat="39.6953617" lon="8.5100433"><ele>12.75</ele><time>2026-04-21T08:54:25.353Z</time></trkpt><trkpt lat="39.6953883" lon="8.5098733"><ele>13.0</ele><time>2026-04-21T08:54:26.354Z</time></trkpt><trkpt lat="39.6954" lon="8.5096967"><ele>13.25</ele><time>2026-04-21T08:54:27.353Z</time></trkpt><trkpt lat="39.6954067" lon="8.50952"><ele>13.5</ele><time>2026-04-21T08:54:28.353Z</time></trkpt><trkpt lat="39.695405" lon="8.5093383"><ele>13.75</ele><time>2026-04-21T08:54:29.354Z</time></trkpt><trkpt lat="39.6953917" lon="8.5091617"><ele>14.0</ele><time>2026-04-21T08:54:30.354Z</time></trkpt><trkpt lat="39.695365" lon="8.5089933"><ele>14.0</ele><time>2026-04-21T08:54:31.354Z</time></trkpt><trkpt lat="39.695345" lon="8.5088333"><ele>13.999999999999998</ele><time>2026-04-21T08:54:32.354Z</time></trkpt><trkpt lat="39.6953267" lon="8.5086867"><ele>13.999999999999998</ele><time>2026-04-21T08:54:33.353Z</time></trkpt><trkpt lat="39.69532" lon="8.5085467"><ele>14.0</ele><time>2026-04-21T08:54:34.354Z</time></trkpt><trkpt lat="39.69534" lon="8.50842"><ele>14.0</ele><time>2026-04-21T08:54:35.354Z</time></trkpt><trkpt lat="39.69537" lon="8.5082933"><ele>14.0</ele><time>2026-04-21T08:54:36.354Z</time></trkpt><trkpt lat="39.6954033" lon="8.50814"><ele>14.0</ele><time>2026-04-21T08:54:37.354Z</time></trkpt><trkpt lat="39.695425" lon="8.5079717"><ele>14.0</ele><time>2026-04-21T08:54:38.354Z</time></trkpt><trkpt lat="39.69544" lon="8.5077983"><ele>14.0</ele><time>2026-04-21T08:54:39.354Z</time></trkpt><trkpt lat="39.6954283" lon="8.5076183"><ele>14.25</ele><time>2026-04-21T08:54:40.354Z</time></trkpt><trkpt lat="39.69541" lon="8.5074283"><ele>14.5</ele><time>2026-04-21T08:54:41.353Z</time></trkpt><trkpt lat="39.69538" lon="8.5072667"><ele>14.75</ele><time>2026-04-21T08:54:42.353Z</time></trkpt><trkpt lat="39.6953417" lon="8.5071133"><ele>15.0</ele><time>2026-04-21T08:54:43.354Z</time></trkpt><trkpt lat="39.695285" lon="8.5069683"><ele>16.0</ele><time>2026-04-21T08:54:44.354Z</time></trkpt><trkpt lat="39.6952117" lon="8.506815"><ele>17.0</ele><time>2026-04-21T08:54:45.353Z</time></trkpt><trkpt lat="39.69513" lon="8.5066617"><ele>18.0</ele><time>2026-04-21T08:54:46.354Z</time></trkpt><trkpt lat="39.695045" lon="8.5065083"><ele>19.0</ele><time>2026-04-21T08:54:47.354Z</time></trkpt><trkpt lat="39.6949783" lon="8.5063517"><ele>18.75</ele><time>2026-04-21T08:54:48.353Z</time></trkpt><trkpt lat="39.69492" lon="8.5061967"><ele>18.5</ele><time>2026-04-21T08:54:49.354Z</time></trkpt><trkpt lat="39.6948583" lon="8.50605"><ele>18.25</ele><time>2026-04-21T08:54:50.354Z</time></trkpt><trkpt lat="39.6947767" lon="8.505905"><ele>18.0</ele><time>2026-04-21T08:54:51.353Z</time></trkpt><trkpt lat="39.6946767" lon="8.505775"><ele>18.0</ele><time>2026-04-21T08:54:52.354Z</time></trkpt><trkpt lat="39.6945633" lon="8.505655"><ele>18.0</ele><time>2026-04-21T08:54:53.353Z</time></trkpt><trkpt lat="39.69445" lon="8.5055467"><ele>18.0</ele><time>2026-04-21T08:54:54.353Z</time></trkpt><trkpt lat="39.69434" lon="8.5054483"><ele>18.0</ele><time>2026-04-21T08:54:55.354Z</time></trkpt><trkpt lat="39.694235" lon="8.5053517"><ele>18.0</ele><time>2026-04-21T08:54:56.354Z</time></trkpt><trkpt lat="39.6941283" lon="8.5052717"><ele>18.0</ele><time>2026-04-21T08:54:57.354Z</time></trkpt><trkpt lat="39.6940267" lon="8.505195"><ele>18.0</ele><time>2026-04-21T08:54:58.353Z</time></trkpt><trkpt lat="39.6939283" lon="8.5051417"><ele>18.0</ele><time>2026-04-21T08:54:59.354Z</time></trkpt><trkpt lat="39.69384" lon="8.505085"><ele>18.0</ele><time>2026-04-21T08:55:00.353Z</time></trkpt><trkpt lat="39.693755" lon="8.505025"><ele>18.0</ele><time>2026-04-21T08:55:01.353Z</time></trkpt><trkpt lat="39.6936783" lon="8.504955"><ele>18.0</ele><time>2026-04-21T08:55:02.353Z</time></trkpt><trkpt lat="39.6936" lon="8.5048683"><ele>18.0</ele><time>2026-04-21T08:55:03.354Z</time></trkpt><trkpt lat="39.693535" lon="8.5047583"><ele>18.0</ele><time>2026-04-21T08:55:04.354Z</time></trkpt><trkpt lat="39.6934667" lon="8.5046433"><ele>18.0</ele><time>2026-04-21T08:55:05.354Z</time></trkpt><trkpt lat="39.693405" lon="8.5045183"><ele>18.6</ele><time>2026-04-21T08:55:06.354Z</time></trkpt><trkpt lat="39.693345" lon="8.5044083"><ele>19.200000000000003</ele><time>2026-04-21T08:55:07.353Z</time></trkpt><trkpt lat="39.6932817" lon="8.5043083"><ele>19.8</ele><time>2026-04-21T08:55:08.353Z</time></trkpt><trkpt lat="39.6932117" lon="8.5042233"><ele>20.400000000000002</ele><time>2026-04-21T08:55:09.354Z</time></trkpt><trkpt lat="39.6931333" lon="8.504145"><ele>21.0</ele><time>2026-04-21T08:55:10.354Z</time></trkpt><trkpt lat="39.6930583" lon="8.5040717"><ele>21.0</ele><time>2026-04-21T08:55:11.354Z</time></trkpt><trkpt lat="39.6929833" lon="8.5039983"><ele>21.0</ele><time>2026-04-21T08:55:12.354Z</time></trkpt><trkpt lat="39.6929017" lon="8.5039283"><ele>21.0</ele><time>2026-04-21T08:55:13.353Z</time></trkpt><trkpt lat="39.6928217" lon="8.50386"><ele>21.0</ele><time>2026-04-21T08:55:14.353Z</time></trkpt><trkpt lat="39.6927433" lon="8.5037983"><ele>21.0</ele><time>2026-04-21T08:55:15.353Z</time></trkpt><trkpt lat="39.6926783" lon="8.5037567"><ele>21.166666666666668</ele><time>2026-04-21T08:55:16.353Z</time></trkpt><trkpt lat="39.6925783" lon="8.5037267"><ele>21.333333333333332</ele><time>2026-04-21T08:55:18.354Z</time></trkpt><trkpt lat="39.6925133" lon="8.5037483"><ele>21.5</ele><time>2026-04-21T08:55:19.354Z</time></trkpt><trkpt lat="39.6924083" lon="8.5038183"><ele>21.666666666666664</ele><time>2026-04-21T08:55:21.354Z</time></trkpt><trkpt lat="39.6923517" lon="8.5038583"><ele>21.833333333333332</ele><time>2026-04-21T08:55:22.353Z</time></trkpt><trkpt lat="39.6922867" lon="8.5038967"><ele>22.0</ele><time>2026-04-21T08:55:23.353Z</time></trkpt><trkpt lat="39.6922167" lon="8.5039283"><ele>22.0</ele><time>2026-04-21T08:55:24.354Z</time></trkpt><trkpt lat="39.6921367" lon="8.5039517"><ele>22.0</ele><time>2026-04-21T08:55:25.354Z</time></trkpt><trkpt lat="39.69206" lon="8.5039667"><ele>22.0</ele><time>2026-04-21T08:55:26.353Z</time></trkpt><trkpt lat="39.69199" lon="8.503965"><ele>22.0</ele><time>2026-04-21T08:55:27.353Z</time></trkpt><trkpt lat="39.6919133" lon="8.50393"><ele>22.0</ele><time>2026-04-21T08:55:28.354Z</time></trkpt><trkpt lat="39.69183" lon="8.5038817"><ele>22.0</ele><time>2026-04-21T08:55:29.354Z</time></trkpt><trkpt lat="39.6917433" lon="8.5038283"><ele>22.6</ele><time>2026-04-21T08:55:30.354Z</time></trkpt><trkpt lat="39.6916517" lon="8.5037717"><ele>23.200000000000003</ele><time>2026-04-21T08:55:31.353Z</time></trkpt><trkpt lat="39.6915533" lon="8.503715"><ele>23.8</ele><time>2026-04-21T08:55:32.354Z</time></trkpt><trkpt lat="39.6914517" lon="8.5036767"><ele>24.4</ele><time>2026-04-21T08:55:33.353Z</time></trkpt><trkpt lat="39.6913533" lon="8.5036283"><ele>25.0</ele><time>2026-04-21T08:55:34.353Z</time></trkpt><trkpt lat="39.6912483" lon="8.50357"><ele>25.0</ele><time>2026-04-21T08:55:35.354Z</time></trkpt><trkpt lat="39.69114" lon="8.50351"><ele>25.0</ele><time>2026-04-21T08:55:36.354Z</time></trkpt><trkpt lat="39.6910383" lon="8.503455"><ele>25.0</ele><time>2026-04-21T08:55:37.353Z</time></trkpt><trkpt lat="39.69094" lon="8.5034083"><ele>25.0</ele><time>2026-04-21T08:55:38.353Z</time></trkpt><trkpt lat="39.6908417" lon="8.5033717"><ele>25.0</ele><time>2026-04-21T08:55:39.353Z</time></trkpt><trkpt lat="39.69075" lon="8.5033317"><ele>25.8</ele><time>2026-04-21T08:55:40.354Z</time></trkpt><trkpt lat="39.6906633" lon="8.5033033"><ele>26.6</ele><time>2026-04-21T08:55:41.354Z</time></trkpt><trkpt lat="39.690575" lon="8.5032817"><ele>27.4</ele><time>2026-04-21T08:55:42.354Z</time></trkpt><trkpt lat="39.6904817" lon="8.50327"><ele>28.2</ele><time>2026-04-21T08:55:43.353Z</time></trkpt><trkpt lat="39.690385" lon="8.5032633"><ele>29.0</ele><time>2026-04-21T08:55:44.353Z</time></trkpt><trkpt lat="39.690295" lon="8.5032533"><ele>30.2</ele><time>2026-04-21T08:55:45.354Z</time></trkpt><trkpt lat="39.6902017" lon="8.5032467"><ele>31.4</ele><time>2026-04-21T08:55:46.353Z</time></trkpt><trkpt lat="39.6901117" lon="8.50322"><ele>32.6</ele><time>2026-04-21T08:55:47.354Z</time></trkpt><trkpt lat="39.6900233" lon="8.50317"><ele>33.8</ele><time>2026-04-21T08:55:48.354Z</time></trkpt><trkpt lat="39.6899367" lon="8.50312"><ele>35.0</ele><time>2026-04-21T08:55:49.354Z</time></trkpt><trkpt lat="39.6898567" lon="8.5030817"><ele>35.0</ele><time>2026-04-21T08:55:50.354Z</time></trkpt><trkpt lat="39.6897833" lon="8.5030333"><ele>35.0</ele><time>2026-04-21T08:55:51.353Z</time></trkpt><trkpt lat="39.6897183" lon="8.5029833"><ele>35.0</ele><time>2026-04-21T08:55:52.354Z</time></trkpt><trkpt lat="39.6896417" lon="8.5029417"><ele>35.0</ele><time>2026-04-21T08:55:53.353Z</time></trkpt><trkpt lat="39.6895617" lon="8.50289"><ele>35.0</ele><time>2026-04-21T08:55:54.353Z</time></trkpt><trkpt lat="39.6894883" lon="8.5028417"><ele>35.0</ele><time>2026-04-21T08:55:55.354Z</time></trkpt><trkpt lat="39.6894233" lon="8.5027983"><ele>34.6</ele><time>2026-04-21T08:55:56.354Z</time></trkpt><trkpt lat="39.6892967" lon="8.502745"><ele>34.2</ele><time>2026-04-21T08:55:58.353Z</time></trkpt><trkpt lat="39.6892317" lon="8.5027367"><ele>33.8</ele><time>2026-04-21T08:55:59.354Z</time></trkpt><trkpt lat="39.6891617" lon="8.5027267"><ele>33.4</ele><time>2026-04-21T08:56:00.353Z</time></trkpt><trkpt lat="39.6890417" lon="8.5027533"><ele>33.0</ele><time>2026-04-21T08:56:02.353Z</time></trkpt><trkpt lat="39.68893" lon="8.5028567"><ele>33.8</ele><time>2026-04-21T08:56:04.354Z</time></trkpt><trkpt lat="39.6888583" lon="8.5029283"><ele>34.599999999999994</ele><time>2026-04-21T08:56:05.353Z</time></trkpt><trkpt lat="39.6887833" lon="8.5030117"><ele>35.400000000000006</ele><time>2026-04-21T08:56:06.353Z</time></trkpt><trkpt lat="39.688705" lon="8.503095"><ele>36.2</ele><time>2026-04-21T08:56:07.354Z</time></trkpt><trkpt lat="39.688635" lon="8.50317"><ele>37.0</ele><time>2026-04-21T08:56:08.354Z</time></trkpt><trkpt lat="39.6885717" lon="8.5032467"><ele>37.6</ele><time>2026-04-21T08:56:09.354Z</time></trkpt><trkpt lat="39.68851" lon="8.50333"><ele>38.2</ele><time>2026-04-21T08:56:10.354Z</time></trkpt><trkpt lat="39.6884517" lon="8.5034167"><ele>38.8</ele><time>2026-04-21T08:56:11.353Z</time></trkpt><trkpt lat="39.68839" lon="8.5034983"><ele>39.4</ele><time>2026-04-21T08:56:12.354Z</time></trkpt><trkpt lat="39.6883383" lon="8.50357"><ele>40.0</ele><time>2026-04-21T08:56:13.353Z</time></trkpt><trkpt lat="39.6882583" lon="8.5036867"><ele>39.66666666666667</ele><time>2026-04-21T08:56:15.353Z</time></trkpt><trkpt lat="39.6881533" lon="8.5037717"><ele>39.333333333333336</ele><time>2026-04-21T08:56:17.353Z</time></trkpt><trkpt lat="39.6880983" lon="8.5038133"><ele>39.0</ele><time>2026-04-21T08:56:18.353Z</time></trkpt><trkpt lat="39.6880033" lon="8.503885"><ele>38.666666666666664</ele><time>2026-04-21T08:56:20.354Z</time></trkpt><trkpt lat="39.6879183" lon="8.503915"><ele>38.33333333333333</ele><time>2026-04-21T08:56:45.354Z</time></trkpt><trkpt lat="39.6878567" lon="8.503935"><ele>38.0</ele><time>2026-04-21T08:56:47.353Z</time></trkpt><trkpt lat="39.6877833" lon="8.5039733"><ele>38.166666666666664</ele><time>2026-04-21T09:01:27.353Z</time></trkpt><trkpt lat="39.6877133" lon="8.503965"><ele>38.33333333333333</ele><time>2026-04-21T09:01:31.352Z</time></trkpt><trkpt lat="39.6876483" lon="8.5039667"><ele>38.5</ele><time>2026-04-21T09:01:34.353Z</time></trkpt><trkpt lat="39.6875783" lon="8.5039717"><ele>38.666666666666664</ele><time>2026-04-21T09:01:39.353Z</time></trkpt><trkpt lat="39.687505" lon="8.5039633"><ele>38.833333333333336</ele><time>2026-04-21T09:01:54.353Z</time></trkpt><trkpt lat="39.687435" lon="8.5039483"><ele>39.0</ele><time>2026-04-21T09:02:00.353Z</time></trkpt><trkpt lat="39.6873433" lon="8.50389"><ele>39.0</ele><time>2026-04-21T09:02:27.353Z</time></trkpt><trkpt lat="39.6872633" lon="8.503845"><ele>39.0</ele><time>2026-04-21T09:02:39.353Z</time></trkpt><trkpt lat="39.6871983" lon="8.5038"><ele>39.0</ele><time>2026-04-21T09:02:42.353Z</time></trkpt><trkpt lat="39.6871333" lon="8.5037433"><ele>39.0</ele><time>2026-04-21T09:02:45.353Z</time></trkpt><trkpt lat="39.68709" lon="8.5036767"><ele>39.0</ele><time>2026-04-21T09:02:47.352Z</time></trkpt><trkpt lat="39.687055" lon="8.503585"><ele>39.0</ele><time>2026-04-21T09:02:49.352Z</time></trkpt><trkpt lat="39.686995" lon="8.5034717"><ele>40.2</ele><time>2026-04-21T09:02:51.353Z</time></trkpt><trkpt lat="39.686925" lon="8.5033267"><ele>41.4</ele><time>2026-04-21T09:02:53.353Z</time></trkpt><trkpt lat="39.686885" lon="8.503255"><ele>42.6</ele><time>2026-04-21T09:02:54.353Z</time></trkpt><trkpt lat="39.686805" lon="8.5031517"><ele>43.8</ele><time>2026-04-21T09:02:56.353Z</time></trkpt><trkpt lat="39.6867167" lon="8.5030633"><ele>45.0</ele><time>2026-04-21T09:02:58.353Z</time></trkpt><trkpt lat="39.6866517" lon="8.503005"><ele>45.0</ele><time>2026-04-21T09:03:00.353Z</time></trkpt><trkpt lat="39.6865883" lon="8.5029617"><ele>45.0</ele><time>2026-04-21T09:03:03.353Z</time></trkpt><trkpt lat="39.6864867" lon="8.5029283"><ele>45.0</ele><time>2026-04-21T09:03:16.352Z</time></trkpt><trkpt lat="39.686425" lon="8.50291"><ele>45.0</ele><time>2026-04-21T09:03:22.352Z</time></trkpt><trkpt lat="39.6863583" lon="8.5028867"><ele>45.0</ele><time>2026-04-21T09:03:27.353Z</time></trkpt><trkpt lat="39.6862933" lon="8.502855"><ele>45.0</ele><time>2026-04-21T09:03:33.352Z</time></trkpt><trkpt lat="39.686215" lon="8.5028283"><ele>45.714285714285715</ele><time>2026-04-21T09:03:52.353Z</time></trkpt><trkpt lat="39.6861417" lon="8.5028017"><ele>46.42857142857143</ele><time>2026-04-21T09:03:57.352Z</time></trkpt><trkpt lat="39.68608" lon="8.502775"><ele>47.142857142857146</ele><time>2026-04-21T09:04:01.351Z</time></trkpt><trkpt lat="39.68601" lon="8.50276"><ele>47.85714285714286</ele><time>2026-04-21T09:04:07.352Z</time></trkpt><trkpt lat="39.685945" lon="8.502765"><ele>48.57142857142857</ele><time>2026-04-21T09:04:12.352Z</time></trkpt><trkpt lat="39.68588" lon="8.5028083"><ele>49.28571428571429</ele><time>2026-04-21T09:06:23.351Z</time></trkpt><trkpt lat="39.6858283" lon="8.5028967"><ele>50.0</ele><time>2026-04-21T09:06:25.352Z</time></trkpt><trkpt lat="39.6857867" lon="8.5029883"><ele>50.00000000000001</ele><time>2026-04-21T09:06:27.352Z</time></trkpt><trkpt lat="39.6857483" lon="8.5030767"><ele>50.0</ele><time>2026-04-21T09:06:29.351Z</time></trkpt><trkpt lat="39.6857117" lon="8.5031717"><ele>50.0</ele><time>2026-04-21T09:06:31.352Z</time></trkpt><trkpt lat="39.6856667" lon="8.5032517"><ele>50.0</ele><time>2026-04-21T09:06:33.352Z</time></trkpt><trkpt lat="39.6856117" lon="8.5033333"><ele>50.00000000000001</ele><time>2026-04-21T09:06:35.352Z</time></trkpt><trkpt lat="39.685575" lon="8.5034083"><ele>50.0</ele><time>2026-04-21T09:06:37.351Z</time></trkpt><trkpt lat="39.68553" lon="8.5034683"><ele>50.00000000000001</ele><time>2026-04-21T09:06:40.352Z</time></trkpt><trkpt lat="39.6854667" lon="8.5035417"><ele>50.0</ele><time>2026-04-21T09:06:43.352Z</time></trkpt><trkpt lat="39.685395" lon="8.5036167"><ele>50.0</ele><time>2026-04-21T09:06:47.351Z</time></trkpt><trkpt lat="39.6853283" lon="8.503635"><ele>50.0</ele><time>2026-04-21T09:06:51.352Z</time></trkpt><trkpt lat="39.6852633" lon="8.503635"><ele>50.00000000000001</ele><time>2026-04-21T09:06:56.352Z</time></trkpt><trkpt lat="39.68519" lon="8.5036283"><ele>50.0</ele><time>2026-04-21T09:07:00.351Z</time></trkpt><trkpt lat="39.6851217" lon="8.5036283"><ele>50.66666666666667</ele><time>2026-04-21T09:07:06.351Z</time></trkpt><trkpt lat="39.685055" lon="8.503645"><ele>51.333333333333336</ele><time>2026-04-21T09:07:11.352Z</time></trkpt><trkpt lat="39.6849567" lon="8.50366"><ele>52.0</ele><time>2026-04-21T09:07:21.352Z</time></trkpt><trkpt lat="39.6848833" lon="8.50368"><ele>52.66666666666667</ele><time>2026-04-21T09:07:26.351Z</time></trkpt><trkpt lat="39.6848017" lon="8.5037133"><ele>53.333333333333336</ele><time>2026-04-21T09:07:29.351Z</time></trkpt><trkpt lat="39.6847367" lon="8.5037117"><ele>54.0</ele><time>2026-04-21T09:07:31.352Z</time></trkpt><trkpt lat="39.684665" lon="8.5037233"><ele>54.6</ele><time>2026-04-21T09:07:33.352Z</time></trkpt><trkpt lat="39.6845883" lon="8.5037533"><ele>55.2</ele><time>2026-04-21T09:07:36.352Z</time></trkpt><trkpt lat="39.6844933" lon="8.503775"><ele>55.800000000000004</ele><time>2026-04-21T09:07:40.352Z</time></trkpt><trkpt lat="39.6843817" lon="8.5038283"><ele>56.400000000000006</ele><time>2026-04-21T09:07:44.352Z</time></trkpt><trkpt lat="39.68431" lon="8.50385"><ele>57.0</ele><time>2026-04-21T09:07:47.351Z</time></trkpt><trkpt lat="39.6842117" lon="8.5038433"><ele>57.0</ele><time>2026-04-21T09:08:45.351Z</time></trkpt><trkpt lat="39.684145" lon="8.503845"><ele>57.0</ele><time>2026-04-21T09:08:47.351Z</time></trkpt><trkpt lat="39.6840833" lon="8.5038683"><ele>57.0</ele><time>2026-04-21T09:08:49.352Z</time></trkpt><trkpt lat="39.68402" lon="8.50389"><ele>57.0</ele><time>2026-04-21T09:10:08.35Z</time></trkpt><trkpt lat="39.6839367" lon="8.5039633"><ele>57.0</ele><time>2026-04-21T09:10:10.351Z</time></trkpt><trkpt lat="39.6838567" lon="8.5040417"><ele>57.0</ele><time>2026-04-21T09:10:12.351Z</time></trkpt><trkpt lat="39.6837783" lon="8.5040633"><ele>57.0</ele><time>2026-04-21T09:10:14.351Z</time></trkpt><trkpt lat="39.6837133" lon="8.5040117"><ele>57.0</ele><time>2026-04-21T09:10:17.35Z</time></trkpt><trkpt lat="39.6837083" lon="8.5039283"><ele>57.0</ele><time>2026-04-21T09:10:20.351Z</time></trkpt><trkpt lat="39.683685" lon="8.503815"><ele>57.0</ele><time>2026-04-21T09:10:23.35Z</time></trkpt><trkpt lat="39.6835883" lon="8.5037817"><ele>57.0</ele><time>2026-04-21T09:10:28.351Z</time></trkpt><trkpt lat="39.6834783" lon="8.5038417"><ele>56.833333333333336</ele><time>2026-04-21T09:10:42.35Z</time></trkpt><trkpt lat="39.6834033" lon="8.5038367"><ele>56.66666666666667</ele><time>2026-04-21T09:10:45.351Z</time></trkpt><trkpt lat="39.6833283" lon="8.5038217"><ele>56.5</ele><time>2026-04-21T09:11:13.351Z</time></trkpt><trkpt lat="39.6832667" lon="8.503765"><ele>56.333333333333336</ele><time>2026-04-21T09:11:16.351Z</time></trkpt><trkpt lat="39.6832033" lon="8.503725"><ele>56.16666666666667</ele><time>2026-04-21T09:11:19.351Z</time></trkpt><trkpt lat="39.6831367" lon="8.5036633"><ele>56.0</ele><time>2026-04-21T09:11:25.35Z</time></trkpt><trkpt lat="39.683085" lon="8.5035767"><ele>56.66666666666667</ele><time>2026-04-21T09:12:17.351Z</time></trkpt><trkpt lat="39.68304" lon="8.50349"><ele>57.333333333333336</ele><time>2026-04-21T09:12:21.351Z</time></trkpt><trkpt lat="39.68298" lon="8.5034017"><ele>58.0</ele><time>2026-04-21T09:12:24.35Z</time></trkpt><trkpt lat="39.6829083" lon="8.5033517"><ele>58.66666666666667</ele><time>2026-04-21T09:12:27.35Z</time></trkpt><trkpt lat="39.6828517" lon="8.5033033"><ele>59.333333333333336</ele><time>2026-04-21T09:12:32.35Z</time></trkpt><trkpt lat="39.6828617" lon="8.5032017"><ele>60.0</ele><time>2026-04-21T09:13:07.35Z</time></trkpt><trkpt lat="39.6829067" lon="8.50311"><ele>60.0</ele><time>2026-04-21T09:13:11.35Z</time></trkpt><trkpt lat="39.6829467" lon="8.50304"><ele>60.0</ele><time>2026-04-21T09:13:14.351Z</time></trkpt><trkpt lat="39.6830167" lon="8.50301"><ele>60.0</ele><time>2026-04-21T09:13:18.351Z</time></trkpt><trkpt lat="39.683075" lon="8.5030483"><ele>60.0</ele><time>2026-04-21T09:14:10.35Z</time></trkpt><trkpt lat="39.6831633" lon="8.5031017"><ele>60.0</ele><time>2026-04-21T09:14:31.35Z</time></trkpt><trkpt lat="39.683235" lon="8.5030633"><ele>60.0</ele><time>2026-04-21T09:14:33.35Z</time></trkpt><trkpt lat="39.6832983" lon="8.5030233"><ele>60.0</ele><time>2026-04-21T09:14:35.35Z</time></trkpt><trkpt lat="39.683365" lon="8.502945"><ele>60.0</ele><time>2026-04-21T09:14:38.349Z</time></trkpt><trkpt lat="39.6834233" lon="8.5028667"><ele>60.0</ele><time>2026-04-21T09:14:40.35Z</time></trkpt><trkpt lat="39.683485" lon="8.502795"><ele>60.0</ele><time>2026-04-21T09:14:42.349Z</time></trkpt><trkpt lat="39.6835367" lon="8.502735"><ele>60.0</ele><time>2026-04-21T09:14:44.349Z</time></trkpt><trkpt lat="39.6835833" lon="8.502675"><ele>60.0</ele><time>2026-04-21T09:14:46.349Z</time></trkpt><trkpt lat="39.6836367" lon="8.5026283"><ele>60.5</ele><time>2026-04-21T09:14:48.35Z</time></trkpt><trkpt lat="39.6836833" lon="8.502545"><ele>61.0</ele><time>2026-04-21T09:14:59.349Z</time></trkpt><trkpt lat="39.6837267" lon="8.5024533"><ele>61.5</ele><time>2026-04-21T09:15:02.349Z</time></trkpt><trkpt lat="39.6837617" lon="8.5023633"><ele>62.0</ele><time>2026-04-21T09:15:04.349Z</time></trkpt><trkpt lat="39.6837817" lon="8.5022683"><ele>62.5</ele><time>2026-04-21T09:15:06.35Z</time></trkpt><trkpt lat="39.6837767" lon="8.5021583"><ele>63.0</ele><time>2026-04-21T09:15:08.349Z</time></trkpt><trkpt lat="39.6837633" lon="8.502055"><ele>61.833333333333336</ele><time>2026-04-21T09:15:10.35Z</time></trkpt><trkpt lat="39.6837483" lon="8.5019567"><ele>60.66666666666667</ele><time>2026-04-21T09:15:12.349Z</time></trkpt><trkpt lat="39.68375" lon="8.5018383"><ele>59.5</ele><time>2026-04-21T09:15:15.35Z</time></trkpt><trkpt lat="39.6837833" lon="8.5017667"><ele>58.333333333333336</ele><time>2026-04-21T09:15:18.35Z</time></trkpt><trkpt lat="39.6837983" lon="8.501655"><ele>57.16666666666667</ele><time>2026-04-21T09:15:21.349Z</time></trkpt><trkpt lat="39.6837883" lon="8.5015667"><ele>56.0</ele><time>2026-04-21T09:15:23.349Z</time></trkpt><trkpt lat="39.6837783" lon="8.5014717"><ele>56.00000000000001</ele><time>2026-04-21T09:15:25.349Z</time></trkpt><trkpt lat="39.6837633" lon="8.5013917"><ele>56.0</ele><time>2026-04-21T09:15:28.35Z</time></trkpt><trkpt lat="39.683735" lon="8.5013033"><ele>56.0</ele><time>2026-04-21T09:15:32.349Z</time></trkpt><trkpt lat="39.68367" lon="8.50128"><ele>56.0</ele><time>2026-04-21T09:15:35.349Z</time></trkpt><trkpt lat="39.6835283" lon="8.5012217"><ele>56.00000000000001</ele><time>2026-04-21T09:15:38.35Z</time></trkpt><trkpt lat="39.6834733" lon="8.501175"><ele>56.0</ele><time>2026-04-21T09:15:39.35Z</time></trkpt><trkpt lat="39.6834167" lon="8.5011233"><ele>56.599999999999994</ele><time>2026-04-21T09:15:40.349Z</time></trkpt><trkpt lat="39.683365" lon="8.5010683"><ele>57.199999999999996</ele><time>2026-04-21T09:15:41.349Z</time></trkpt><trkpt lat="39.6832867" lon="8.5009767"><ele>57.800000000000004</ele><time>2026-04-21T09:15:43.35Z</time></trkpt><trkpt lat="39.6832233" lon="8.5009067"><ele>58.400000000000006</ele><time>2026-04-21T09:15:45.35Z</time></trkpt><trkpt lat="39.6831517" lon="8.5008217"><ele>59.0</ele><time>2026-04-21T09:15:47.35Z</time></trkpt><trkpt lat="39.6830583" lon="8.5007083"><ele>59.0</ele><time>2026-04-21T09:15:49.35Z</time></trkpt><trkpt lat="39.6830083" lon="8.5006183"><ele>59.0</ele><time>2026-04-21T09:15:51.35Z</time></trkpt><trkpt lat="39.68301" lon="8.500535"><ele>59.0</ele><time>2026-04-21T09:15:54.349Z</time></trkpt><trkpt lat="39.68302" lon="8.500445"><ele>59.0</ele><time>2026-04-21T09:15:57.349Z</time></trkpt><trkpt lat="39.6830183" lon="8.500345"><ele>59.0</ele><time>2026-04-21T09:16:01.35Z</time></trkpt><trkpt lat="39.6830367" lon="8.5002433"><ele>59.0</ele><time>2026-04-21T09:18:40.349Z</time></trkpt><trkpt lat="39.683035" lon="8.5001583"><ele>59.0</ele><time>2026-04-21T09:19:27.349Z</time></trkpt><trkpt lat="39.68306" lon="8.5000583"><ele>59.66666666666667</ele><time>2026-04-21T09:19:31.348Z</time></trkpt><trkpt lat="39.6830867" lon="8.49996"><ele>60.333333333333336</ele><time>2026-04-21T09:19:33.349Z</time></trkpt><trkpt lat="39.68311" lon="8.4998483"><ele>61.0</ele><time>2026-04-21T09:19:35.348Z</time></trkpt><trkpt lat="39.6830883" lon="8.4997517"><ele>61.66666666666667</ele><time>2026-04-21T09:19:37.349Z</time></trkpt><trkpt lat="39.6830633" lon="8.49965"><ele>62.333333333333336</ele><time>2026-04-21T09:19:40.349Z</time></trkpt><trkpt lat="39.6830667" lon="8.499565"><ele>63.0</ele><time>2026-04-21T09:19:42.348Z</time></trkpt><trkpt lat="39.68309" lon="8.49944"><ele>63.166666666666664</ele><time>2026-04-21T09:19:44.348Z</time></trkpt><trkpt lat="39.6831083" lon="8.4993617"><ele>63.33333333333333</ele><time>2026-04-21T09:19:45.349Z</time></trkpt><trkpt lat="39.6831267" lon="8.4992833"><ele>63.5</ele><time>2026-04-21T09:19:46.349Z</time></trkpt><trkpt lat="39.68313" lon="8.4991167"><ele>63.666666666666664</ele><time>2026-04-21T09:19:48.349Z</time></trkpt><trkpt lat="39.6831267" lon="8.4990167"><ele>63.83333333333333</ele><time>2026-04-21T09:19:49.348Z</time></trkpt><trkpt lat="39.6831267" lon="8.498905"><ele>64.0</ele><time>2026-04-21T09:19:50.348Z</time></trkpt><trkpt lat="39.6831333" lon="8.498785"><ele>64.85714285714286</ele><time>2026-04-21T09:19:51.349Z</time></trkpt><trkpt lat="39.6831383" lon="8.49869"><ele>65.71428571428571</ele><time>2026-04-21T09:19:52.348Z</time></trkpt><trkpt lat="39.6831383" lon="8.4985967"><ele>66.57142857142857</ele><time>2026-04-21T09:19:53.348Z</time></trkpt><trkpt lat="39.6831317" lon="8.49851"><ele>67.42857142857143</ele><time>2026-04-21T09:19:54.349Z</time></trkpt><trkpt lat="39.6831267" lon="8.4984267"><ele>68.28571428571428</ele><time>2026-04-21T09:19:55.349Z</time></trkpt><trkpt lat="39.6831183" lon="8.4983417"><ele>69.14285714285714</ele><time>2026-04-21T09:19:56.349Z</time></trkpt><trkpt lat="39.6831233" lon="8.49826"><ele>70.0</ele><time>2026-04-21T09:19:57.349Z</time></trkpt><trkpt lat="39.6831433" lon="8.498175"><ele>70.0</ele><time>2026-04-21T09:19:58.349Z</time></trkpt><trkpt lat="39.683165" lon="8.498085"><ele>70.0</ele><time>2026-04-21T09:19:59.348Z</time></trkpt><trkpt lat="39.6831833" lon="8.4979983"><ele>70.0</ele><time>2026-04-21T09:20:00.348Z</time></trkpt><trkpt lat="39.6831933" lon="8.4979133"><ele>70.0</ele><time>2026-04-21T09:20:01.349Z</time></trkpt><trkpt lat="39.6831983" lon="8.49777"><ele>70.0</ele><time>2026-04-21T09:20:03.349Z</time></trkpt><trkpt lat="39.6831517" lon="8.4976283"><ele>70.0</ele><time>2026-04-21T09:20:05.349Z</time></trkpt><trkpt lat="39.6830683" lon="8.4975133"><ele>69.83333333333333</ele><time>2026-04-21T09:20:07.349Z</time></trkpt><trkpt lat="39.6829817" lon="8.497425"><ele>69.66666666666666</ele><time>2026-04-21T09:20:09.348Z</time></trkpt><trkpt lat="39.6829317" lon="8.4973517"><ele>69.5</ele><time>2026-04-21T09:20:11.349Z</time></trkpt><trkpt lat="39.682865" lon="8.4972817"><ele>69.33333333333333</ele><time>2026-04-21T09:39:25.343Z</time></trkpt><trkpt lat="39.6828017" lon="8.4972817"><ele>69.16666666666667</ele><time>2026-04-21T09:39:27.343Z</time></trkpt><trkpt lat="39.6827383" lon="8.4972767"><ele>69.0</ele><time>2026-04-21T09:39:29.343Z</time></trkpt><trkpt lat="39.6826717" lon="8.4973"><ele>68.0</ele><time>2026-04-21T09:39:32.343Z</time></trkpt><trkpt lat="39.68258" lon="8.4973517"><ele>67.0</ele><time>2026-04-21T09:39:34.343Z</time></trkpt><trkpt lat="39.682475" lon="8.4974283"><ele>66.0</ele><time>2026-04-21T09:39:36.343Z</time></trkpt><trkpt lat="39.682385" lon="8.4974983"><ele>65.0</ele><time>2026-04-21T09:39:38.343Z</time></trkpt><trkpt lat="39.6823133" lon="8.4975517"><ele>64.0</ele><time>2026-04-21T09:39:40.343Z</time></trkpt><trkpt lat="39.682245" lon="8.4975817"><ele>63.99999999999999</ele><time>2026-04-21T09:39:42.342Z</time></trkpt><trkpt lat="39.6821667" lon="8.4975767"><ele>64.0</ele><time>2026-04-21T09:39:44.343Z</time></trkpt><trkpt lat="39.6820933" lon="8.49756"><ele>64.0</ele><time>2026-04-21T09:39:46.342Z</time></trkpt><trkpt lat="39.682005" lon="8.497565"><ele>64.0</ele><time>2026-04-21T09:39:48.342Z</time></trkpt><trkpt lat="39.6819117" lon="8.497595"><ele>63.99999999999999</ele><time>2026-04-21T09:39:50.343Z</time></trkpt><trkpt lat="39.6818283" lon="8.4976517"><ele>64.0</ele><time>2026-04-21T09:39:52.343Z</time></trkpt><trkpt lat="39.681755" lon="8.497705"><ele>65.2</ele><time>2026-04-21T09:39:54.342Z</time></trkpt><trkpt lat="39.681665" lon="8.4977383"><ele>66.4</ele><time>2026-04-21T09:39:57.342Z</time></trkpt><trkpt lat="39.6815717" lon="8.4977367"><ele>67.6</ele><time>2026-04-21T09:39:59.342Z</time></trkpt><trkpt lat="39.6814517" lon="8.4977633"><ele>68.8</ele><time>2026-04-21T09:40:01.343Z</time></trkpt><trkpt lat="39.6813867" lon="8.49779"><ele>70.0</ele><time>2026-04-21T09:40:02.343Z</time></trkpt><trkpt lat="39.68128" lon="8.4978417"><ele>70.0</ele><time>2026-04-21T09:40:04.343Z</time></trkpt><trkpt lat="39.6811933" lon="8.4978783"><ele>70.0</ele><time>2026-04-21T09:40:06.343Z</time></trkpt><trkpt lat="39.6811233" lon="8.49792"><ele>70.0</ele><time>2026-04-21T09:40:08.342Z</time></trkpt><trkpt lat="39.6810483" lon="8.497965"><ele>70.0</ele><time>2026-04-21T09:40:10.343Z</time></trkpt><trkpt lat="39.6809917" lon="8.4980367"><ele>70.0</ele><time>2026-04-21T09:40:12.343Z</time></trkpt><trkpt lat="39.6809267" lon="8.4980883"><ele>70.0</ele><time>2026-04-21T09:40:14.343Z</time></trkpt><trkpt lat="39.6808483" lon="8.498125"><ele>70.8</ele><time>2026-04-21T09:40:16.343Z</time></trkpt><trkpt lat="39.6807517" lon="8.4981533"><ele>71.6</ele><time>2026-04-21T09:40:18.343Z</time></trkpt><trkpt lat="39.6806617" lon="8.498165"><ele>72.4</ele><time>2026-04-21T09:40:20.343Z</time></trkpt><trkpt lat="39.6805617" lon="8.4981733"><ele>73.2</ele><time>2026-04-21T09:40:22.342Z</time></trkpt><trkpt lat="39.6804833" lon="8.498195"><ele>74.0</ele><time>2026-04-21T09:40:24.343Z</time></trkpt><trkpt lat="39.6804083" lon="8.4982317"><ele>74.0</ele><time>2026-04-21T09:40:26.342Z</time></trkpt><trkpt lat="39.6803267" lon="8.4982733"><ele>74.0</ele><time>2026-04-21T09:40:28.342Z</time></trkpt><trkpt lat="39.680255" lon="8.4983283"><ele>74.0</ele><time>2026-04-21T09:40:30.343Z</time></trkpt><trkpt lat="39.6801933" lon="8.4983567"><ele>74.0</ele><time>2026-04-21T09:40:32.343Z</time></trkpt><trkpt lat="39.6801267" lon="8.498385"><ele>74.0</ele><time>2026-04-21T09:40:34.343Z</time></trkpt><trkpt lat="39.6800417" lon="8.4984267"><ele>74.0</ele><time>2026-04-21T09:40:36.343Z</time></trkpt><trkpt lat="39.6799517" lon="8.4984683"><ele>75.0</ele><time>2026-04-21T09:40:38.342Z</time></trkpt><trkpt lat="39.6798583" lon="8.49849"><ele>76.0</ele><time>2026-04-21T09:40:40.343Z</time></trkpt><trkpt lat="39.6797867" lon="8.4984467"><ele>77.0</ele><time>2026-04-21T09:40:42.343Z</time></trkpt><trkpt lat="39.679735" lon="8.4983683"><ele>78.0</ele><time>2026-04-21T09:40:44.343Z</time></trkpt><trkpt lat="39.679685" lon="8.4982717"><ele>79.0</ele><time>2026-04-21T09:40:46.343Z</time></trkpt><trkpt lat="39.67962" lon="8.4982017"><ele>80.0</ele><time>2026-04-21T09:40:48.343Z</time></trkpt><trkpt lat="39.6795583" lon="8.49817"><ele>80.0</ele><time>2026-04-21T09:40:50.343Z</time></trkpt><trkpt lat="39.6794833" lon="8.49818"><ele>80.0</ele><time>2026-04-21T09:40:52.343Z</time></trkpt><trkpt lat="39.6794167" lon="8.4982033"><ele>80.0</ele><time>2026-04-21T09:41:04.342Z</time></trkpt><trkpt lat="39.6793567" lon="8.498275"><ele>80.0</ele><time>2026-04-21T09:41:06.343Z</time></trkpt><trkpt lat="39.6792867" lon="8.49833"><ele>80.0</ele><time>2026-04-21T09:41:08.342Z</time></trkpt><trkpt lat="39.6792167" lon="8.4983517"><ele>80.0</ele><time>2026-04-21T09:41:10.343Z</time></trkpt><trkpt lat="39.6791467" lon="8.4983383"><ele>81.0</ele><time>2026-04-21T09:41:12.343Z</time></trkpt><trkpt lat="39.6791" lon="8.498265"><ele>82.0</ele><time>2026-04-21T09:41:14.342Z</time></trkpt><trkpt lat="39.6790617" lon="8.4981783"><ele>83.0</ele><time>2026-04-21T09:41:16.342Z</time></trkpt><trkpt lat="39.67902" lon="8.4980817"><ele>84.0</ele><time>2026-04-21T09:41:18.342Z</time></trkpt><trkpt lat="39.6789717" lon="8.4980033"><ele>85.0</ele><time>2026-04-21T09:41:20.343Z</time></trkpt><trkpt lat="39.6789033" lon="8.4979467"><ele>86.0</ele><time>2026-04-21T09:41:22.343Z</time></trkpt><trkpt lat="39.6788167" lon="8.49788"><ele>87.33333333333334</ele><time>2026-04-21T09:41:24.343Z</time></trkpt><trkpt lat="39.6787267" lon="8.4977983"><ele>88.66666666666667</ele><time>2026-04-21T09:41:26.342Z</time></trkpt><trkpt lat="39.6786733" lon="8.4977517"><ele>90.0</ele><time>2026-04-21T09:41:27.343Z</time></trkpt><trkpt lat="39.6785817" lon="8.4976733"><ele>91.33333333333333</ele><time>2026-04-21T09:41:29.343Z</time></trkpt><trkpt lat="39.6785167" lon="8.49762"><ele>92.66666666666666</ele><time>2026-04-21T09:41:31.343Z</time></trkpt><trkpt lat="39.6784583" lon="8.4975667"><ele>94.0</ele><time>2026-04-21T09:41:33.343Z</time></trkpt><trkpt lat="39.6783883" lon="8.4974917"><ele>94.2</ele><time>2026-04-21T09:41:35.342Z</time></trkpt><trkpt lat="39.6783183" lon="8.497405"><ele>94.4</ele><time>2026-04-21T09:41:37.342Z</time></trkpt><trkpt lat="39.6782583" lon="8.497315"><ele>94.6</ele><time>2026-04-21T09:41:39.343Z</time></trkpt><trkpt lat="39.6781867" lon="8.4972567"><ele>94.8</ele><time>2026-04-21T09:41:41.342Z</time></trkpt><trkpt lat="39.6780883" lon="8.4972033"><ele>95.0</ele><time>2026-04-21T09:41:43.342Z</time></trkpt><trkpt lat="39.677985" lon="8.49715"><ele>95.0</ele><time>2026-04-21T09:41:45.343Z</time></trkpt><trkpt lat="39.6778883" lon="8.4971217"><ele>95.0</ele><time>2026-04-21T09:41:47.342Z</time></trkpt><trkpt lat="39.6777983" lon="8.4971083"><ele>95.0</ele><time>2026-04-21T09:41:49.343Z</time></trkpt><trkpt lat="39.67773" lon="8.4970767"><ele>95.0</ele><time>2026-04-21T09:41:51.343Z</time></trkpt><trkpt lat="39.6776783" lon="8.4969867"><ele>95.0</ele><time>2026-04-21T09:41:53.342Z</time></trkpt><trkpt lat="39.677635" lon="8.4968867"><ele>95.0</ele><time>2026-04-21T09:41:55.342Z</time></trkpt><trkpt lat="39.6775683" lon="8.496775"><ele>96.33333333333334</ele><time>2026-04-21T09:41:57.343Z</time></trkpt><trkpt lat="39.677515" lon="8.496705"><ele>97.66666666666667</ele><time>2026-04-21T09:41:59.342Z</time></trkpt><trkpt lat="39.6774467" lon="8.4966883"><ele>99.0</ele><time>2026-04-21T09:42:01.342Z</time></trkpt><trkpt lat="39.6773733" lon="8.4966483"><ele>100.33333333333334</ele><time>2026-04-21T09:42:03.342Z</time></trkpt><trkpt lat="39.6772817" lon="8.4965883"><ele>101.66666666666667</ele><time>2026-04-21T09:42:05.343Z</time></trkpt><trkpt lat="39.6771767" lon="8.4965283"><ele>103.0</ele><time>2026-04-21T09:42:07.343Z</time></trkpt><trkpt lat="39.677125" lon="8.4964783"><ele>103.00000000000001</ele><time>2026-04-21T09:42:08.341Z</time></trkpt><trkpt lat="39.6770167" lon="8.4964033"><ele>103.0</ele><time>2026-04-21T09:42:10.342Z</time></trkpt><trkpt lat="39.6769017" lon="8.4963367"><ele>103.0</ele><time>2026-04-21T09:42:12.341Z</time></trkpt><trkpt lat="39.6768417" lon="8.496305"><ele>103.0</ele><time>2026-04-21T09:42:13.341Z</time></trkpt><trkpt lat="39.67678" lon="8.4962733"><ele>103.00000000000001</ele><time>2026-04-21T09:42:14.342Z</time></trkpt><trkpt lat="39.67672" lon="8.4962317"><ele>103.0</ele><time>2026-04-21T09:42:15.341Z</time></trkpt><trkpt lat="39.6766417" lon="8.4961733"><ele>105.50000000000001</ele><time>2026-04-21T09:42:17.341Z</time></trkpt><trkpt lat="39.67657" lon="8.4961233"><ele>108.0</ele><time>2026-04-21T09:42:20.342Z</time></trkpt><trkpt lat="39.676505" lon="8.4960933"><ele>110.5</ele><time>2026-04-21T09:42:22.341Z</time></trkpt><trkpt lat="39.6764133" lon="8.4960467"><ele>113.0</ele><time>2026-04-21T09:42:24.342Z</time></trkpt><trkpt lat="39.6763283" lon="8.496015"><ele>115.50000000000001</ele><time>2026-04-21T09:42:26.342Z</time></trkpt><trkpt lat="39.6762233" lon="8.4959767"><ele>118.0</ele><time>2026-04-21T09:42:28.342Z</time></trkpt><trkpt lat="39.67613" lon="8.4959333"><ele>118.0</ele><time>2026-04-21T09:42:30.342Z</time></trkpt><trkpt lat="39.6760717" lon="8.495845"><ele>118.00000000000001</ele><time>2026-04-21T09:42:33.341Z</time></trkpt><trkpt lat="39.6761" lon="8.4957317"><ele>118.00000000000001</ele><time>2026-04-21T09:42:35.341Z</time></trkpt><trkpt lat="39.6761617" lon="8.4956117"><ele>118.0</ele><time>2026-04-21T09:42:37.341Z</time></trkpt><trkpt lat="39.6762033" lon="8.4955033"><ele>118.0</ele><time>2026-04-21T09:42:39.342Z</time></trkpt><trkpt lat="39.67623" lon="8.4953733"><ele>122.4</ele><time>2026-04-21T09:42:41.342Z</time></trkpt><trkpt lat="39.6762583" lon="8.4952367"><ele>126.80000000000001</ele><time>2026-04-21T09:42:43.342Z</time></trkpt><trkpt lat="39.6762783" lon="8.495115"><ele>131.2</ele><time>2026-04-21T09:42:45.341Z</time></trkpt><trkpt lat="39.6763167" lon="8.4949833"><ele>135.6</ele><time>2026-04-21T09:42:47.342Z</time></trkpt><trkpt lat="39.6763267" lon="8.4948683"><ele>140.0</ele><time>2026-04-21T09:42:49.341Z</time></trkpt><trkpt lat="39.6762817" lon="8.49477"><ele>140.0</ele><time>2026-04-21T09:42:51.341Z</time></trkpt><trkpt lat="39.6762067" lon="8.4946833"><ele>140.0</ele><time>2026-04-21T09:42:53.341Z</time></trkpt><trkpt lat="39.676125" lon="8.4946883"><ele>140.0</ele><time>2026-04-21T09:42:55.341Z</time></trkpt><trkpt lat="39.67607" lon="8.4947883"><ele>140.0</ele><time>2026-04-21T09:42:57.342Z</time></trkpt><trkpt lat="39.6760733" lon="8.4949283"><ele>140.0</ele><time>2026-04-21T09:42:59.342Z</time></trkpt><trkpt lat="39.6760767" lon="8.495025"><ele>140.66666666666666</ele><time>2026-04-21T09:43:01.342Z</time></trkpt><trkpt lat="39.6760383" lon="8.4950933"><ele>141.33333333333331</ele><time>2026-04-21T09:43:04.341Z</time></trkpt><trkpt lat="39.6759783" lon="8.4951233"><ele>142.0</ele><time>2026-04-21T09:43:06.342Z</time></trkpt><trkpt lat="39.6758917" lon="8.495165"><ele>142.66666666666666</ele><time>2026-04-21T09:43:08.342Z</time></trkpt><trkpt lat="39.6757917" lon="8.4952"><ele>143.33333333333334</ele><time>2026-04-21T09:43:10.342Z</time></trkpt><trkpt lat="39.6756867" lon="8.495235"><ele>144.0</ele><time>2026-04-21T09:43:12.342Z</time></trkpt><trkpt lat="39.6755833" lon="8.4952633"><ele>144.0</ele><time>2026-04-21T09:43:14.342Z</time></trkpt><trkpt lat="39.67552" lon="8.4952767"><ele>144.0</ele><time>2026-04-21T09:43:15.342Z</time></trkpt><trkpt lat="39.6754583" lon="8.4952933"><ele>144.0</ele><time>2026-04-21T09:43:16.342Z</time></trkpt><trkpt lat="39.67535" lon="8.4953217"><ele>144.0</ele><time>2026-04-21T09:43:18.342Z</time></trkpt><trkpt lat="39.675255" lon="8.4953583"><ele>144.0</ele><time>2026-04-21T09:43:20.341Z</time></trkpt><trkpt lat="39.6751783" lon="8.4954433"><ele>144.0</ele><time>2026-04-21T09:43:22.342Z</time></trkpt><trkpt lat="39.6751467" lon="8.4955483"><ele>148.0</ele><time>2026-04-21T09:43:24.342Z</time></trkpt><trkpt lat="39.6750783" lon="8.4955917"><ele>152.0</ele><time>2026-04-21T09:43:27.342Z</time></trkpt><trkpt lat="39.675045" lon="8.49549"><ele>156.0</ele><time>2026-04-21T09:43:30.341Z</time></trkpt><trkpt lat="39.6750667" lon="8.4954083"><ele>160.0</ele><time>2026-04-21T09:43:32.341Z</time></trkpt><trkpt lat="39.6751367" lon="8.4952933"><ele>164.0</ele><time>2026-04-21T09:43:34.341Z</time></trkpt><trkpt lat="39.6751883" lon="8.495235"><ele>168.0</ele><time>2026-04-21T09:43:35.341Z</time></trkpt><trkpt lat="39.67525" lon="8.4951733"><ele>163.20000000000002</ele><time>2026-04-21T09:43:36.342Z</time></trkpt><trkpt lat="39.6753183" lon="8.4951133"><ele>158.4</ele><time>2026-04-21T09:43:37.342Z</time></trkpt><trkpt lat="39.675375" lon="8.495055"><ele>153.60000000000002</ele><time>2026-04-21T09:43:38.341Z</time></trkpt><trkpt lat="39.6754683" lon="8.4949583"><ele>148.8</ele><time>2026-04-21T09:43:40.342Z</time></trkpt><trkpt lat="39.675535" lon="8.4948717"><ele>144.0</ele><time>2026-04-21T09:43:42.341Z</time></trkpt><trkpt lat="39.67554" lon="8.4947517"><ele>144.0</ele><time>2026-04-21T09:43:44.341Z</time></trkpt><trkpt lat="39.6754983" lon="8.4946017"><ele>144.0</ele><time>2026-04-21T09:43:46.341Z</time></trkpt><trkpt lat="39.6754783" lon="8.494515"><ele>144.0</ele><time>2026-04-21T09:43:47.342Z</time></trkpt><trkpt lat="39.67546" lon="8.49442"><ele>144.0</ele><time>2026-04-21T09:43:48.342Z</time></trkpt><trkpt lat="39.6754483" lon="8.49433"><ele>144.0</ele><time>2026-04-21T09:43:49.342Z</time></trkpt><trkpt lat="39.67543" lon="8.4942467"><ele>144.0</ele><time>2026-04-21T09:43:50.342Z</time></trkpt><trkpt lat="39.6754017" lon="8.494115"><ele>147.4</ele><time>2026-04-21T09:43:52.341Z</time></trkpt><trkpt lat="39.6754083" lon="8.4939933"><ele>150.8</ele><time>2026-04-21T09:43:54.341Z</time></trkpt><trkpt lat="39.675415" lon="8.4938517"><ele>154.20000000000002</ele><time>2026-04-21T09:43:56.341Z</time></trkpt><trkpt lat="39.67545" lon="8.4937383"><ele>157.60000000000002</ele><time>2026-04-21T09:43:58.341Z</time></trkpt><trkpt lat="39.6755367" lon="8.4936467"><ele>161.0</ele><time>2026-04-21T09:44:00.341Z</time></trkpt><trkpt lat="39.6756317" lon="8.4935633"><ele>162.8</ele><time>2026-04-21T09:44:02.342Z</time></trkpt><trkpt lat="39.6756983" lon="8.493465"><ele>164.60000000000002</ele><time>2026-04-21T09:44:04.341Z</time></trkpt><trkpt lat="39.675785" lon="8.4933717"><ele>166.4</ele><time>2026-04-21T09:44:06.341Z</time></trkpt><trkpt lat="39.67588" lon="8.4932983"><ele>168.2</ele><time>2026-04-21T09:44:08.341Z</time></trkpt><trkpt lat="39.6759533" lon="8.493265"><ele>170.0</ele><time>2026-04-21T09:44:10.341Z</time></trkpt><trkpt lat="39.67602" lon="8.4932183"><ele>170.0</ele><time>2026-04-21T09:44:12.342Z</time></trkpt><trkpt lat="39.6760883" lon="8.493145"><ele>170.0</ele><time>2026-04-21T09:44:14.342Z</time></trkpt><trkpt lat="39.6761667" lon="8.4930683"><ele>170.0</ele><time>2026-04-21T09:44:16.342Z</time></trkpt><trkpt lat="39.67624" lon="8.49299"><ele>170.0</ele><time>2026-04-21T09:44:18.342Z</time></trkpt><trkpt lat="39.6762767" lon="8.4928883"><ele>170.0</ele><time>2026-04-21T09:44:20.341Z</time></trkpt><trkpt lat="39.6762983" lon="8.49279"><ele>170.0</ele><time>2026-04-21T09:44:22.341Z</time></trkpt><trkpt lat="39.6762883" lon="8.4926867"><ele>169.6</ele><time>2026-04-21T09:44:25.342Z</time></trkpt><trkpt lat="39.6761983" lon="8.4926817"><ele>169.2</ele><time>2026-04-21T09:44:28.341Z</time></trkpt><trkpt lat="39.6760867" lon="8.4926483"><ele>168.8</ele><time>2026-04-21T09:44:36.342Z</time></trkpt><trkpt lat="39.6759967" lon="8.4925683"><ele>168.4</ele><time>2026-04-21T09:44:38.342Z</time></trkpt><trkpt lat="39.6759267" lon="8.49253"><ele>168.0</ele><time>2026-04-21T09:44:39.341Z</time></trkpt><trkpt lat="39.6758583" lon="8.492495"><ele>168.0</ele><time>2026-04-21T09:44:40.341Z</time></trkpt><trkpt lat="39.6757883" lon="8.49246"><ele>168.0</ele><time>2026-04-21T09:44:41.341Z</time></trkpt><trkpt lat="39.6757133" lon="8.492425"><ele>168.0</ele><time>2026-04-21T09:44:42.341Z</time></trkpt><trkpt lat="39.6756417" lon="8.4923867"><ele>168.0</ele><time>2026-04-21T09:44:43.342Z</time></trkpt><trkpt lat="39.6755817" lon="8.4923533"><ele>168.0</ele><time>2026-04-21T09:44:44.342Z</time></trkpt><trkpt lat="39.6755233" lon="8.4923217"><ele>168.0</ele><time>2026-04-21T09:44:45.342Z</time></trkpt><trkpt lat="39.6754533" lon="8.492315"><ele>168.0</ele><time>2026-04-21T09:44:46.342Z</time></trkpt><trkpt lat="39.67538" lon="8.4923133"><ele>168.0</ele><time>2026-04-21T09:44:47.342Z</time></trkpt><trkpt lat="39.675295" lon="8.49231"><ele>168.0</ele><time>2026-04-21T09:44:48.341Z</time></trkpt><trkpt lat="39.6752083" lon="8.4923017"><ele>168.0</ele><time>2026-04-21T09:44:49.342Z</time></trkpt><trkpt lat="39.6751333" lon="8.49228"><ele>168.0</ele><time>2026-04-21T09:44:50.342Z</time></trkpt><trkpt lat="39.6750517" lon="8.4922433"><ele>168.0</ele><time>2026-04-21T09:44:51.342Z</time></trkpt><trkpt lat="39.67496" lon="8.4922067"><ele>168.0</ele><time>2026-04-21T09:44:52.341Z</time></trkpt><trkpt lat="39.674885" lon="8.492165"><ele>168.0</ele><time>2026-04-21T09:44:53.342Z</time></trkpt><trkpt lat="39.6748233" lon="8.49212"><ele>168.0</ele><time>2026-04-21T09:44:54.342Z</time></trkpt><trkpt lat="39.6747583" lon="8.4920667"><ele>168.0</ele><time>2026-04-21T09:44:55.341Z</time></trkpt><trkpt lat="39.6747067" lon="8.4919983"><ele>168.0</ele><time>2026-04-21T09:44:56.342Z</time></trkpt><trkpt lat="39.67465" lon="8.49194"><ele>168.0</ele><time>2026-04-21T09:44:57.342Z</time></trkpt><trkpt lat="39.6745933" lon="8.4919017"><ele>168.0</ele><time>2026-04-21T09:44:58.342Z</time></trkpt><trkpt lat="39.6745183" lon="8.4918817"><ele>168.0</ele><time>2026-04-21T09:44:59.342Z</time></trkpt><trkpt lat="39.6744333" lon="8.4918567"><ele>168.0</ele><time>2026-04-21T09:45:00.341Z</time></trkpt><trkpt lat="39.6743483" lon="8.491825"><ele>168.0</ele><time>2026-04-21T09:45:01.341Z</time></trkpt><trkpt lat="39.67427" lon="8.4918"><ele>168.0</ele><time>2026-04-21T09:45:02.341Z</time></trkpt><trkpt lat="39.6741967" lon="8.4917717"><ele>168.0</ele><time>2026-04-21T09:45:03.341Z</time></trkpt><trkpt lat="39.674125" lon="8.491735"><ele>168.0</ele><time>2026-04-21T09:45:04.341Z</time></trkpt><trkpt lat="39.6740533" lon="8.491695"><ele>168.0</ele><time>2026-04-21T09:45:05.341Z</time></trkpt><trkpt lat="39.673995" lon="8.491655"><ele>168.0</ele><time>2026-04-21T09:45:06.341Z</time></trkpt><trkpt lat="39.6739133" lon="8.49162"><ele>168.0</ele><time>2026-04-21T09:45:08.341Z</time></trkpt><trkpt lat="39.67383" lon="8.491645"><ele>168.0</ele><time>2026-04-21T09:45:11.341Z</time></trkpt><trkpt lat="39.6737767" lon="8.4917183"><ele>168.0</ele><time>2026-04-21T09:45:13.342Z</time></trkpt><trkpt lat="39.673705" lon="8.4918417"><ele>168.0</ele><time>2026-04-21T09:45:15.341Z</time></trkpt><trkpt lat="39.6736183" lon="8.491965"><ele>169.16666666666666</ele><time>2026-04-21T09:45:17.342Z</time></trkpt><trkpt lat="39.6735683" lon="8.4920417"><ele>170.33333333333334</ele><time>2026-04-21T09:45:18.342Z</time></trkpt><trkpt lat="39.6735217" lon="8.4921367"><ele>171.5</ele><time>2026-04-21T09:45:19.342Z</time></trkpt><trkpt lat="39.673475" lon="8.49223"><ele>172.66666666666669</ele><time>2026-04-21T09:45:20.341Z</time></trkpt><trkpt lat="39.6734217" lon="8.49233"><ele>173.83333333333334</ele><time>2026-04-21T09:45:21.341Z</time></trkpt><trkpt lat="39.673365" lon="8.4924367"><ele>175.0</ele><time>2026-04-21T09:45:22.341Z</time></trkpt><trkpt lat="39.6733133" lon="8.4925333"><ele>175.71428571428572</ele><time>2026-04-21T09:45:23.342Z</time></trkpt><trkpt lat="39.673265" lon="8.49261"><ele>176.42857142857144</ele><time>2026-04-21T09:45:24.34Z</time></trkpt><trkpt lat="39.6732283" lon="8.4926767"><ele>177.14285714285714</ele><time>2026-04-21T09:45:25.34Z</time></trkpt><trkpt lat="39.673175" lon="8.4927333"><ele>177.85714285714286</ele><time>2026-04-21T09:45:26.341Z</time></trkpt><trkpt lat="39.6731133" lon="8.4927867"><ele>178.57142857142858</ele><time>2026-04-21T09:45:27.34Z</time></trkpt><trkpt lat="39.6730517" lon="8.492845"><ele>179.28571428571428</ele><time>2026-04-21T09:45:28.34Z</time></trkpt><trkpt lat="39.67298" lon="8.4929067"><ele>180.0</ele><time>2026-04-21T09:45:29.34Z</time></trkpt><trkpt lat="39.6729067" lon="8.4929717"><ele>180.83333333333334</ele><time>2026-04-21T09:45:30.34Z</time></trkpt><trkpt lat="39.6728467" lon="8.4930283"><ele>181.66666666666666</ele><time>2026-04-21T09:45:31.341Z</time></trkpt><trkpt lat="39.6727917" lon="8.4930917"><ele>182.5</ele><time>2026-04-21T09:45:32.341Z</time></trkpt><trkpt lat="39.672745" lon="8.49316"><ele>183.33333333333331</ele><time>2026-04-21T09:45:33.341Z</time></trkpt><trkpt lat="39.6726933" lon="8.49324"><ele>184.16666666666666</ele><time>2026-04-21T09:45:34.341Z</time></trkpt><trkpt lat="39.67263" lon="8.4933183"><ele>185.0</ele><time>2026-04-21T09:45:35.34Z</time></trkpt><trkpt lat="39.6725667" lon="8.4933983"><ele>185.0</ele><time>2026-04-21T09:45:36.341Z</time></trkpt><trkpt lat="39.6725083" lon="8.4934717"><ele>185.0</ele><time>2026-04-21T09:45:37.341Z</time></trkpt><trkpt lat="39.6724567" lon="8.49353"><ele>185.0</ele><time>2026-04-21T09:45:38.341Z</time></trkpt><trkpt lat="39.67239" lon="8.49364"><ele>185.0</ele><time>2026-04-21T09:45:40.34Z</time></trkpt><trkpt lat="39.67236" lon="8.4937583"><ele>185.0</ele><time>2026-04-21T09:45:42.341Z</time></trkpt><trkpt lat="39.6723283" lon="8.4938583"><ele>185.0</ele><time>2026-04-21T09:45:44.34Z</time></trkpt><trkpt lat="39.6722933" lon="8.4939667"><ele>185.33333333333331</ele><time>2026-04-21T09:45:46.341Z</time></trkpt><trkpt lat="39.6722533" lon="8.49409"><ele>185.66666666666666</ele><time>2026-04-21T09:45:48.341Z</time></trkpt><trkpt lat="39.672205" lon="8.4942417"><ele>186.0</ele><time>2026-04-21T09:45:50.34Z</time></trkpt><trkpt lat="39.6721817" lon="8.4943217"><ele>186.33333333333334</ele><time>2026-04-21T09:45:51.341Z</time></trkpt><trkpt lat="39.672155" lon="8.4944"><ele>186.66666666666669</ele><time>2026-04-21T09:45:52.341Z</time></trkpt><trkpt lat="39.6721217" lon="8.494485"><ele>187.0</ele><time>2026-04-21T09:45:53.341Z</time></trkpt><trkpt lat="39.6720833" lon="8.494575"><ele>186.66666666666669</ele><time>2026-04-21T09:45:54.341Z</time></trkpt><trkpt lat="39.672035" lon="8.4946567"><ele>186.33333333333334</ele><time>2026-04-21T09:45:55.34Z</time></trkpt><trkpt lat="39.67198" lon="8.4947417"><ele>186.0</ele><time>2026-04-21T09:45:56.341Z</time></trkpt><trkpt lat="39.6719117" lon="8.4948217"><ele>185.66666666666666</ele><time>2026-04-21T09:45:57.34Z</time></trkpt><trkpt lat="39.6718433" lon="8.4949"><ele>185.33333333333331</ele><time>2026-04-21T09:45:58.341Z</time></trkpt><trkpt lat="39.6717883" lon="8.49497"><ele>185.0</ele><time>2026-04-21T09:45:59.341Z</time></trkpt><trkpt lat="39.6716983" lon="8.49506"><ele>185.0</ele><time>2026-04-21T09:46:01.341Z</time></trkpt><trkpt lat="39.6716167" lon="8.4951283"><ele>185.0</ele><time>2026-04-21T09:46:03.341Z</time></trkpt><trkpt lat="39.6714967" lon="8.4952"><ele>185.0</ele><time>2026-04-21T09:46:05.34Z</time></trkpt><trkpt lat="39.6714217" lon="8.49523"><ele>185.0</ele><time>2026-04-21T09:46:06.34Z</time></trkpt><trkpt lat="39.6713517" lon="8.495265"><ele>185.0</ele><time>2026-04-21T09:46:07.34Z</time></trkpt><trkpt lat="39.671285" lon="8.49529"><ele>185.0</ele><time>2026-04-21T09:46:08.341Z</time></trkpt><trkpt lat="39.671215" lon="8.49532"><ele>185.0</ele><time>2026-04-21T09:46:09.341Z</time></trkpt><trkpt lat="39.6711433" lon="8.4953567"><ele>185.0</ele><time>2026-04-21T09:46:10.341Z</time></trkpt><trkpt lat="39.6710683" lon="8.495375"><ele>185.0</ele><time>2026-04-21T09:46:11.34Z</time></trkpt><trkpt lat="39.6709817" lon="8.495385"><ele>185.0</ele><time>2026-04-21T09:46:12.341Z</time></trkpt><trkpt lat="39.6708983" lon="8.4953867"><ele>185.0</ele><time>2026-04-21T09:46:13.34Z</time></trkpt><trkpt lat="39.6708167" lon="8.4953967"><ele>184.7142857142857</ele><time>2026-04-21T09:46:14.34Z</time></trkpt><trkpt lat="39.67074" lon="8.49542"><ele>184.42857142857142</ele><time>2026-04-21T09:46:15.341Z</time></trkpt><trkpt lat="39.67067" lon="8.49543"><ele>184.14285714285714</ele><time>2026-04-21T09:46:16.341Z</time></trkpt><trkpt lat="39.6706" lon="8.49544"><ele>183.85714285714283</ele><time>2026-04-21T09:46:17.341Z</time></trkpt><trkpt lat="39.670525" lon="8.4954283"><ele>183.57142857142858</ele><time>2026-04-21T09:46:18.341Z</time></trkpt><trkpt lat="39.67046" lon="8.495395"><ele>183.28571428571428</ele><time>2026-04-21T09:46:19.341Z</time></trkpt><trkpt lat="39.6703983" lon="8.49534"><ele>183.0</ele><time>2026-04-21T09:46:20.341Z</time></trkpt><trkpt lat="39.670335" lon="8.4952783"><ele>182.16666666666666</ele><time>2026-04-21T09:46:21.341Z</time></trkpt><trkpt lat="39.670275" lon="8.4952217"><ele>181.33333333333334</ele><time>2026-04-21T09:46:22.341Z</time></trkpt><trkpt lat="39.6702133" lon="8.4951683"><ele>180.5</ele><time>2026-04-21T09:46:23.341Z</time></trkpt><trkpt lat="39.6701433" lon="8.495125"><ele>179.66666666666669</ele><time>2026-04-21T09:46:24.34Z</time></trkpt><trkpt lat="39.67007" lon="8.495085"><ele>178.83333333333334</ele><time>2026-04-21T09:46:25.34Z</time></trkpt><trkpt lat="39.6699983" lon="8.495025"><ele>178.0</ele><time>2026-04-21T09:46:26.341Z</time></trkpt><trkpt lat="39.6699383" lon="8.4949483"><ele>177.16666666666669</ele><time>2026-04-21T09:46:27.34Z</time></trkpt><trkpt lat="39.6698783" lon="8.4948867"><ele>176.33333333333334</ele><time>2026-04-21T09:46:28.34Z</time></trkpt><trkpt lat="39.6698133" lon="8.4948233"><ele>175.5</ele><time>2026-04-21T09:46:29.341Z</time></trkpt><trkpt lat="39.6697517" lon="8.494765"><ele>174.66666666666666</ele><time>2026-04-21T09:46:30.341Z</time></trkpt><trkpt lat="39.6696967" lon="8.4947133"><ele>173.83333333333331</ele><time>2026-04-21T09:46:31.34Z</time></trkpt><trkpt lat="39.6696217" lon="8.4946667"><ele>173.0</ele><time>2026-04-21T09:46:32.34Z</time></trkpt><trkpt lat="39.6695467" lon="8.4946083"><ele>172.16666666666666</ele><time>2026-04-21T09:46:33.34Z</time></trkpt><trkpt lat="39.669475" lon="8.4945467"><ele>171.33333333333331</ele><time>2026-04-21T09:46:34.34Z</time></trkpt><trkpt lat="39.6694083" lon="8.4944717"><ele>170.5</ele><time>2026-04-21T09:46:35.34Z</time></trkpt><trkpt lat="39.669345" lon="8.4943933"><ele>169.66666666666666</ele><time>2026-04-21T09:46:36.341Z</time></trkpt><trkpt lat="39.6692733" lon="8.4943167"><ele>168.83333333333334</ele><time>2026-04-21T09:46:37.34Z</time></trkpt><trkpt lat="39.6692017" lon="8.4942617"><ele>168.0</ele><time>2026-04-21T09:46:38.34Z</time></trkpt><trkpt lat="39.6691267" lon="8.494215"><ele>168.0</ele><time>2026-04-21T09:46:39.34Z</time></trkpt><trkpt lat="39.6690467" lon="8.49417"><ele>168.0</ele><time>2026-04-21T09:46:40.341Z</time></trkpt><trkpt lat="39.6689667" lon="8.4941167"><ele>168.0</ele><time>2026-04-21T09:46:41.34Z</time></trkpt><trkpt lat="39.6688933" lon="8.4940517"><ele>168.0</ele><time>2026-04-21T09:46:42.341Z</time></trkpt><trkpt lat="39.66882" lon="8.4939933"><ele>168.0</ele><time>2026-04-21T09:46:43.341Z</time></trkpt><trkpt lat="39.668755" lon="8.4939383"><ele>168.0</ele><time>2026-04-21T09:46:44.34Z</time></trkpt><trkpt lat="39.6686583" lon="8.493855"><ele>168.16666666666666</ele><time>2026-04-21T09:46:46.341Z</time></trkpt><trkpt lat="39.6685783" lon="8.49381"><ele>168.33333333333334</ele><time>2026-04-21T09:46:48.341Z</time></trkpt><trkpt lat="39.668515" lon="8.4937883"><ele>168.5</ele><time>2026-04-21T09:46:50.341Z</time></trkpt><trkpt lat="39.6683833" lon="8.4937217"><ele>168.66666666666669</ele><time>2026-04-21T09:46:54.341Z</time></trkpt><trkpt lat="39.6683183" lon="8.493715"><ele>168.83333333333334</ele><time>2026-04-21T09:46:56.34Z</time></trkpt><trkpt lat="39.6682433" lon="8.4937167"><ele>169.0</ele><time>2026-04-21T09:46:58.341Z</time></trkpt><trkpt lat="39.66817" lon="8.4937433"><ele>169.0</ele><time>2026-04-21T09:47:00.34Z</time></trkpt><trkpt lat="39.66811" lon="8.4938067"><ele>169.0</ele><time>2026-04-21T09:47:02.341Z</time></trkpt><trkpt lat="39.6680317" lon="8.4938867"><ele>169.0</ele><time>2026-04-21T09:47:04.341Z</time></trkpt><trkpt lat="39.6678533" lon="8.4940883"><ele>169.0</ele><time>2026-04-21T09:47:08.34Z</time></trkpt><trkpt lat="39.6677583" lon="8.4942217"><ele>165.2</ele><time>2026-04-21T09:47:10.341Z</time></trkpt><trkpt lat="39.6677017" lon="8.494355"><ele>161.39999999999998</ele><time>2026-04-21T09:47:12.34Z</time></trkpt><trkpt lat="39.6676467" lon="8.494485"><ele>157.6</ele><time>2026-04-21T09:47:14.34Z</time></trkpt><trkpt lat="39.6675933" lon="8.494605"><ele>153.8</ele><time>2026-04-21T09:47:16.341Z</time></trkpt><trkpt lat="39.6675583" lon="8.4947367"><ele>150.0</ele><time>2026-04-21T09:47:18.34Z</time></trkpt><trkpt lat="39.6675167" lon="8.4949633"><ele>149.5</ele><time>2026-04-21T09:47:21.341Z</time></trkpt><trkpt lat="39.6675133" lon="8.495105"><ele>149.0</ele><time>2026-04-21T09:47:23.341Z</time></trkpt><trkpt lat="39.66759" lon="8.495225"><ele>148.5</ele><time>2026-04-21T09:47:25.34Z</time></trkpt><trkpt lat="39.66773" lon="8.4953217"><ele>148.0</ele><time>2026-04-21T09:47:27.34Z</time></trkpt><trkpt lat="39.6678033" lon="8.4953717"><ele>148.6</ele><time>2026-04-21T09:47:28.341Z</time></trkpt><trkpt lat="39.667865" lon="8.4954167"><ele>149.20000000000002</ele><time>2026-04-21T09:47:29.341Z</time></trkpt><trkpt lat="39.6679267" lon="8.4954483"><ele>149.8</ele><time>2026-04-21T09:47:30.34Z</time></trkpt><trkpt lat="39.6680517" lon="8.4955833"><ele>150.4</ele><time>2026-04-21T09:47:34.341Z</time></trkpt><trkpt lat="39.668" lon="8.495635"><ele>151.0</ele><time>2026-04-21T09:47:36.34Z</time></trkpt><trkpt lat="39.66788" lon="8.49559"><ele>151.0</ele><time>2026-04-21T09:47:38.34Z</time></trkpt><trkpt lat="39.6678117" lon="8.4955317"><ele>151.0</ele><time>2026-04-21T09:47:39.34Z</time></trkpt><trkpt lat="39.6677417" lon="8.4954917"><ele>151.0</ele><time>2026-04-21T09:47:40.34Z</time></trkpt><trkpt lat="39.66767" lon="8.4954583"><ele>151.0</ele><time>2026-04-21T09:47:41.34Z</time></trkpt><trkpt lat="39.6676083" lon="8.495435"><ele>151.0</ele><time>2026-04-21T09:47:42.34Z</time></trkpt><trkpt lat="39.6674983" lon="8.4954167"><ele>151.0</ele><time>2026-04-21T09:47:44.34Z</time></trkpt><trkpt lat="39.6674" lon="8.4953983"><ele>150.4</ele><time>2026-04-21T09:47:46.341Z</time></trkpt><trkpt lat="39.6673117" lon="8.4953433"><ele>149.8</ele><time>2026-04-21T09:47:48.341Z</time></trkpt><trkpt lat="39.6672567" lon="8.4952367"><ele>149.20000000000002</ele><time>2026-04-21T09:47:50.34Z</time></trkpt><trkpt lat="39.6672233" lon="8.4950733"><ele>148.6</ele><time>2026-04-21T09:47:52.341Z</time></trkpt><trkpt lat="39.6672067" lon="8.494965"><ele>148.0</ele><time>2026-04-21T09:47:53.341Z</time></trkpt><trkpt lat="39.66719" lon="8.4948433"><ele>148.0</ele><time>2026-04-21T09:47:54.341Z</time></trkpt><trkpt lat="39.66717" lon="8.4947117"><ele>148.0</ele><time>2026-04-21T09:47:55.34Z</time></trkpt><trkpt lat="39.667145" lon="8.4945783"><ele>148.0</ele><time>2026-04-21T09:47:56.34Z</time></trkpt><trkpt lat="39.6671167" lon="8.4944417"><ele>148.0</ele><time>2026-04-21T09:47:57.34Z</time></trkpt><trkpt lat="39.667095" lon="8.49431"><ele>148.0</ele><time>2026-04-21T09:47:58.34Z</time></trkpt><trkpt lat="39.66706" lon="8.4941867"><ele>148.4</ele><time>2026-04-21T09:47:59.341Z</time></trkpt><trkpt lat="39.66702" lon="8.49406"><ele>148.8</ele><time>2026-04-21T09:48:00.341Z</time></trkpt><trkpt lat="39.6669833" lon="8.4939417"><ele>149.2</ele><time>2026-04-21T09:48:01.34Z</time></trkpt><trkpt lat="39.6669483" lon="8.4938367"><ele>149.6</ele><time>2026-04-21T09:48:02.34Z</time></trkpt><trkpt lat="39.6669133" lon="8.4937333"><ele>150.0</ele><time>2026-04-21T09:48:03.341Z</time></trkpt><trkpt lat="39.6668883" lon="8.4936317"><ele>148.16666666666666</ele><time>2026-04-21T09:48:04.34Z</time></trkpt><trkpt lat="39.6668683" lon="8.49352"><ele>146.33333333333334</ele><time>2026-04-21T09:48:05.34Z</time></trkpt><trkpt lat="39.6668567" lon="8.49341"><ele>144.5</ele><time>2026-04-21T09:48:06.341Z</time></trkpt><trkpt lat="39.66685" lon="8.49329"><ele>142.66666666666669</ele><time>2026-04-21T09:48:07.341Z</time></trkpt><trkpt lat="39.6668467" lon="8.49318"><ele>140.83333333333334</ele><time>2026-04-21T09:48:08.341Z</time></trkpt><trkpt lat="39.66684" lon="8.4930767"><ele>139.0</ele><time>2026-04-21T09:48:09.341Z</time></trkpt><trkpt lat="39.6668217" lon="8.4929867"><ele>138.16666666666669</ele><time>2026-04-21T09:48:10.34Z</time></trkpt><trkpt lat="39.6667867" lon="8.4929033"><ele>137.33333333333334</ele><time>2026-04-21T09:48:11.341Z</time></trkpt><trkpt lat="39.6667283" lon="8.4928283"><ele>136.5</ele><time>2026-04-21T09:48:12.34Z</time></trkpt><trkpt lat="39.6666717" lon="8.4927567"><ele>135.66666666666666</ele><time>2026-04-21T09:48:13.341Z</time></trkpt><trkpt lat="39.66661" lon="8.4926733"><ele>134.83333333333331</ele><time>2026-04-21T09:48:14.341Z</time></trkpt><trkpt lat="39.6665517" lon="8.4925883"><ele>134.0</ele><time>2026-04-21T09:48:15.34Z</time></trkpt><trkpt lat="39.6664917" lon="8.4924967"><ele>134.0</ele><time>2026-04-21T09:48:16.341Z</time></trkpt><trkpt lat="39.66643" lon="8.4924033"><ele>134.0</ele><time>2026-04-21T09:48:17.341Z</time></trkpt><trkpt lat="39.6663733" lon="8.49231"><ele>134.0</ele><time>2026-04-21T09:48:18.34Z</time></trkpt><trkpt lat="39.6663317" lon="8.4922067"><ele>134.0</ele><time>2026-04-21T09:48:19.34Z</time></trkpt><trkpt lat="39.6662967" lon="8.4920917"><ele>134.0</ele><time>2026-04-21T09:48:20.341Z</time></trkpt><trkpt lat="39.6662583" lon="8.4919733"><ele>134.0</ele><time>2026-04-21T09:48:21.341Z</time></trkpt><trkpt lat="39.6662233" lon="8.4918583"><ele>134.0</ele><time>2026-04-21T09:48:22.34Z</time></trkpt><trkpt lat="39.66619" lon="8.4917517"><ele>134.0</ele><time>2026-04-21T09:48:23.34Z</time></trkpt><trkpt lat="39.6661567" lon="8.4916367"><ele>134.0</ele><time>2026-04-21T09:48:24.34Z</time></trkpt><trkpt lat="39.666115" lon="8.4915267"><ele>134.0</ele><time>2026-04-21T09:48:25.34Z</time></trkpt><trkpt lat="39.666075" lon="8.4914183"><ele>135.0</ele><time>2026-04-21T09:48:26.341Z</time></trkpt><trkpt lat="39.6660217" lon="8.49131"><ele>136.0</ele><time>2026-04-21T09:48:27.34Z</time></trkpt><trkpt lat="39.6659683" lon="8.4911983"><ele>137.0</ele><time>2026-04-21T09:48:28.34Z</time></trkpt><trkpt lat="39.6659133" lon="8.4910967"><ele>138.0</ele><time>2026-04-21T09:48:29.34Z</time></trkpt><trkpt lat="39.6658533" lon="8.4910033"><ele>139.0</ele><time>2026-04-21T09:48:30.341Z</time></trkpt><trkpt lat="39.6657983" lon="8.4909233"><ele>139.0</ele><time>2026-04-21T09:48:31.341Z</time></trkpt><trkpt lat="39.665745" lon="8.490855"><ele>139.0</ele><time>2026-04-21T09:48:32.341Z</time></trkpt><trkpt lat="39.6656967" lon="8.4907833"><ele>139.0</ele><time>2026-04-21T09:48:33.34Z</time></trkpt><trkpt lat="39.6656617" lon="8.490705"><ele>139.0</ele><time>2026-04-21T09:48:34.34Z</time></trkpt><trkpt lat="39.6656417" lon="8.4906183"><ele>139.0</ele><time>2026-04-21T09:48:35.341Z</time></trkpt><trkpt lat="39.66566" lon="8.4904583"><ele>139.0</ele><time>2026-04-21T09:48:37.34Z</time></trkpt><trkpt lat="39.6656833" lon="8.4903817"><ele>139.33333333333334</ele><time>2026-04-21T09:48:38.341Z</time></trkpt><trkpt lat="39.6657183" lon="8.4902867"><ele>139.66666666666669</ele><time>2026-04-21T09:48:39.34Z</time></trkpt><trkpt lat="39.66574" lon="8.4901983"><ele>140.0</ele><time>2026-04-21T09:48:40.341Z</time></trkpt><trkpt lat="39.6657583" lon="8.4901117"><ele>140.33333333333334</ele><time>2026-04-21T09:48:41.341Z</time></trkpt><trkpt lat="39.6657683" lon="8.48998"><ele>140.66666666666666</ele><time>2026-04-21T09:48:43.34Z</time></trkpt><trkpt lat="39.6657567" lon="8.4898667"><ele>141.0</ele><time>2026-04-21T09:48:45.341Z</time></trkpt><trkpt lat="39.665695" lon="8.4898067"><ele>141.0</ele><time>2026-04-21T09:48:47.34Z</time></trkpt><trkpt lat="39.665595" lon="8.4897683"><ele>141.0</ele><time>2026-04-21T09:48:49.341Z</time></trkpt><trkpt lat="39.665535" lon="8.48971"><ele>141.0</ele><time>2026-04-21T09:48:51.341Z</time></trkpt><trkpt lat="39.6655067" lon="8.4896"><ele>141.0</ele><time>2026-04-21T09:48:53.341Z</time></trkpt><trkpt lat="39.665465" lon="8.4894933"><ele>141.0</ele><time>2026-04-21T09:48:55.341Z</time></trkpt><trkpt lat="39.6654083" lon="8.4894"><ele>141.5</ele><time>2026-04-21T09:48:57.341Z</time></trkpt><trkpt lat="39.6653617" lon="8.4892683"><ele>142.0</ele><time>2026-04-21T09:48:59.341Z</time></trkpt><trkpt lat="39.6653483" lon="8.489175"><ele>142.5</ele><time>2026-04-21T09:49:00.341Z</time></trkpt><trkpt lat="39.6653367" lon="8.489075"><ele>143.0</ele><time>2026-04-21T09:49:01.341Z</time></trkpt><trkpt lat="39.665325" lon="8.4889683"><ele>143.5</ele><time>2026-04-21T09:49:02.341Z</time></trkpt><trkpt lat="39.6653233" lon="8.4888583"><ele>144.0</ele><time>2026-04-21T09:49:03.34Z</time></trkpt><trkpt lat="39.66532" lon="8.4887583"><ele>142.83333333333334</ele><time>2026-04-21T09:49:04.34Z</time></trkpt><trkpt lat="39.665325" lon="8.4886583"><ele>141.66666666666666</ele><time>2026-04-21T09:49:05.341Z</time></trkpt><trkpt lat="39.665345" lon="8.48856"><ele>140.5</ele><time>2026-04-21T09:49:06.341Z</time></trkpt><trkpt lat="39.6653783" lon="8.4884683"><ele>139.33333333333331</ele><time>2026-04-21T09:49:07.341Z</time></trkpt><trkpt lat="39.6654233" lon="8.4883767"><ele>138.16666666666666</ele><time>2026-04-21T09:49:08.341Z</time></trkpt><trkpt lat="39.6654717" lon="8.4882817"><ele>137.0</ele><time>2026-04-21T09:49:09.34Z</time></trkpt><trkpt lat="39.66552" lon="8.4881883"><ele>137.0</ele><time>2026-04-21T09:49:10.341Z</time></trkpt><trkpt lat="39.6655683" lon="8.488105"><ele>137.0</ele><time>2026-04-21T09:49:11.34Z</time></trkpt><trkpt lat="39.665605" lon="8.4880283"><ele>137.0</ele><time>2026-04-21T09:49:12.339Z</time></trkpt><trkpt lat="39.665665" lon="8.4879133"><ele>137.0</ele><time>2026-04-21T09:49:14.339Z</time></trkpt><trkpt lat="39.6657367" lon="8.4878267"><ele>137.0</ele><time>2026-04-21T09:49:16.34Z</time></trkpt><trkpt lat="39.6657817" lon="8.4877233"><ele>137.0</ele><time>2026-04-21T09:49:18.339Z</time></trkpt><trkpt lat="39.6657667" lon="8.487585"><ele>135.5</ele><time>2026-04-21T09:49:20.34Z</time></trkpt><trkpt lat="39.6657533" lon="8.4875"><ele>134.0</ele><time>2026-04-21T09:49:21.34Z</time></trkpt><trkpt lat="39.6657383" lon="8.4874067"><ele>132.5</ele><time>2026-04-21T09:49:22.34Z</time></trkpt><trkpt lat="39.66573" lon="8.4873"><ele>131.0</ele><time>2026-04-21T09:49:23.34Z</time></trkpt><trkpt lat="39.6657233" lon="8.4871917"><ele>129.5</ele><time>2026-04-21T09:49:24.339Z</time></trkpt><trkpt lat="39.665725" lon="8.48709"><ele>128.0</ele><time>2026-04-21T09:49:25.339Z</time></trkpt><trkpt lat="39.6657233" lon="8.4869783"><ele>126.33333333333333</ele><time>2026-04-21T09:49:26.34Z</time></trkpt><trkpt lat="39.66572" lon="8.4868683"><ele>124.66666666666666</ele><time>2026-04-21T09:49:27.34Z</time></trkpt><trkpt lat="39.665725" lon="8.4867533"><ele>123.0</ele><time>2026-04-21T09:49:28.34Z</time></trkpt><trkpt lat="39.66574" lon="8.4866333"><ele>121.33333333333334</ele><time>2026-04-21T09:49:29.339Z</time></trkpt><trkpt lat="39.6657583" lon="8.4865183"><ele>119.66666666666667</ele><time>2026-04-21T09:49:30.34Z</time></trkpt><trkpt lat="39.665785" lon="8.48641"><ele>118.0</ele><time>2026-04-21T09:49:31.339Z</time></trkpt><trkpt lat="39.66582" lon="8.48632"><ele>117.83333333333334</ele><time>2026-04-21T09:49:32.339Z</time></trkpt><trkpt lat="39.6658767" lon="8.4862467"><ele>117.66666666666667</ele><time>2026-04-21T09:49:33.339Z</time></trkpt><trkpt lat="39.66594" lon="8.4861833"><ele>117.5</ele><time>2026-04-21T09:49:34.34Z</time></trkpt><trkpt lat="39.6660017" lon="8.4861217"><ele>117.33333333333334</ele><time>2026-04-21T09:49:35.34Z</time></trkpt><trkpt lat="39.66606" lon="8.4860583"><ele>117.16666666666667</ele><time>2026-04-21T09:49:36.339Z</time></trkpt><trkpt lat="39.6660967" lon="8.4859783"><ele>117.0</ele><time>2026-04-21T09:49:37.339Z</time></trkpt><trkpt lat="39.6661267" lon="8.4858783"><ele>118.39999999999999</ele><time>2026-04-21T09:49:38.339Z</time></trkpt><trkpt lat="39.6661367" lon="8.48576"><ele>119.79999999999998</ele><time>2026-04-21T09:49:39.34Z</time></trkpt><trkpt lat="39.666135" lon="8.48564"><ele>121.2</ele><time>2026-04-21T09:49:40.34Z</time></trkpt><trkpt lat="39.666125" lon="8.485515"><ele>122.6</ele><time>2026-04-21T09:49:41.34Z</time></trkpt><trkpt lat="39.66611" lon="8.4853817"><ele>124.0</ele><time>2026-04-21T09:49:42.34Z</time></trkpt><trkpt lat="39.66609" lon="8.4852467"><ele>124.0</ele><time>2026-04-21T09:49:43.339Z</time></trkpt><trkpt lat="39.66608" lon="8.4851117"><ele>124.0</ele><time>2026-04-21T09:49:44.339Z</time></trkpt><trkpt lat="39.6660767" lon="8.4849767"><ele>124.0</ele><time>2026-04-21T09:49:45.34Z</time></trkpt><trkpt lat="39.6660767" lon="8.48485"><ele>124.0</ele><time>2026-04-21T09:49:46.34Z</time></trkpt><trkpt lat="39.6660733" lon="8.484735"><ele>124.0</ele><time>2026-04-21T09:49:47.339Z</time></trkpt><trkpt lat="39.6660717" lon="8.4846283"><ele>123.80000000000001</ele><time>2026-04-21T09:49:48.34Z</time></trkpt><trkpt lat="39.6660583" lon="8.4845217"><ele>123.60000000000001</ele><time>2026-04-21T09:49:49.34Z</time></trkpt><trkpt lat="39.6660467" lon="8.4844083"><ele>123.4</ele><time>2026-04-21T09:49:50.34Z</time></trkpt><trkpt lat="39.6660417" lon="8.4842917"><ele>123.2</ele><time>2026-04-21T09:49:51.34Z</time></trkpt><trkpt lat="39.6660467" lon="8.4841683"><ele>123.0</ele><time>2026-04-21T09:49:52.34Z</time></trkpt><trkpt lat="39.6660533" lon="8.4840383"><ele>123.0</ele><time>2026-04-21T09:49:53.339Z</time></trkpt><trkpt lat="39.666065" lon="8.4839133"><ele>123.00000000000001</ele><time>2026-04-21T09:49:54.339Z</time></trkpt><trkpt lat="39.666085" lon="8.4837783"><ele>123.00000000000001</ele><time>2026-04-21T09:49:55.339Z</time></trkpt><trkpt lat="39.6661167" lon="8.4836367"><ele>123.0</ele><time>2026-04-21T09:49:56.339Z</time></trkpt><trkpt lat="39.6661533" lon="8.48349"><ele>123.0</ele><time>2026-04-21T09:49:57.34Z</time></trkpt><trkpt lat="39.6661833" lon="8.4833633"><ele>117.25</ele><time>2026-04-21T09:49:58.34Z</time></trkpt><trkpt lat="39.6662033" lon="8.483225"><ele>111.5</ele><time>2026-04-21T09:49:59.339Z</time></trkpt><trkpt lat="39.6662033" lon="8.4830767"><ele>105.75</ele><time>2026-04-21T09:50:00.339Z</time></trkpt><trkpt lat="39.6661983" lon="8.4829133"><ele>100.0</ele><time>2026-04-21T09:50:01.339Z</time></trkpt><trkpt lat="39.6661867" lon="8.48275"><ele>100.0</ele><time>2026-04-21T09:50:02.339Z</time></trkpt><trkpt lat="39.666175" lon="8.4825967"><ele>100.0</ele><time>2026-04-21T09:50:03.339Z</time></trkpt><trkpt lat="39.666155" lon="8.48243"><ele>100.0</ele><time>2026-04-21T09:50:04.339Z</time></trkpt><trkpt lat="39.6661217" lon="8.4822667"><ele>100.0</ele><time>2026-04-21T09:50:05.339Z</time></trkpt><trkpt lat="39.6660967" lon="8.4821133"><ele>102.33333333333334</ele><time>2026-04-21T09:50:06.34Z</time></trkpt><trkpt lat="39.66607" lon="8.481975"><ele>104.66666666666667</ele><time>2026-04-21T09:50:07.339Z</time></trkpt><trkpt lat="39.66605" lon="8.4818583"><ele>107.0</ele><time>2026-04-21T09:50:08.34Z</time></trkpt><trkpt lat="39.66604" lon="8.4817583"><ele>109.33333333333334</ele><time>2026-04-21T09:50:09.339Z</time></trkpt><trkpt lat="39.66604" lon="8.48166"><ele>111.66666666666667</ele><time>2026-04-21T09:50:10.34Z</time></trkpt><trkpt lat="39.666045" lon="8.48157"><ele>114.0</ele><time>2026-04-21T09:50:11.34Z</time></trkpt><trkpt lat="39.666045" lon="8.4814817"><ele>114.0</ele><time>2026-04-21T09:50:12.339Z</time></trkpt><trkpt lat="39.6660483" lon="8.48139"><ele>114.0</ele><time>2026-04-21T09:50:13.34Z</time></trkpt><trkpt lat="39.666055" lon="8.4812833"><ele>114.0</ele><time>2026-04-21T09:50:14.339Z</time></trkpt><trkpt lat="39.66606" lon="8.48116"><ele>114.0</ele><time>2026-04-21T09:50:15.339Z</time></trkpt><trkpt lat="39.66607" lon="8.481025"><ele>114.0</ele><time>2026-04-21T09:50:16.34Z</time></trkpt><trkpt lat="39.666075" lon="8.480875"><ele>113.25</ele><time>2026-04-21T09:50:17.34Z</time></trkpt><trkpt lat="39.6660683" lon="8.4807233"><ele>112.5</ele><time>2026-04-21T09:50:18.34Z</time></trkpt><trkpt lat="39.6660567" lon="8.4805733"><ele>111.75</ele><time>2026-04-21T09:50:19.34Z</time></trkpt><trkpt lat="39.666045" lon="8.4804117"><ele>111.0</ele><time>2026-04-21T09:50:20.339Z</time></trkpt><trkpt lat="39.666035" lon="8.4802533"><ele>110.0</ele><time>2026-04-21T09:50:21.34Z</time></trkpt><trkpt lat="39.66602" lon="8.4800983"><ele>109.0</ele><time>2026-04-21T09:50:22.34Z</time></trkpt><trkpt lat="39.66601" lon="8.4799533"><ele>108.0</ele><time>2026-04-21T09:50:23.34Z</time></trkpt><trkpt lat="39.6660033" lon="8.4798067"><ele>107.0</ele><time>2026-04-21T09:50:24.34Z</time></trkpt><trkpt lat="39.6660033" lon="8.4796683"><ele>106.8</ele><time>2026-04-21T09:50:25.339Z</time></trkpt><trkpt lat="39.6660033" lon="8.47953"><ele>106.6</ele><time>2026-04-21T09:50:26.34Z</time></trkpt><trkpt lat="39.666005" lon="8.4793983"><ele>106.39999999999999</ele><time>2026-04-21T09:50:27.34Z</time></trkpt><trkpt lat="39.6660017" lon="8.479275"><ele>106.19999999999999</ele><time>2026-04-21T09:50:28.34Z</time></trkpt><trkpt lat="39.666005" lon="8.4791483"><ele>106.0</ele><time>2026-04-21T09:50:29.339Z</time></trkpt><trkpt lat="39.666005" lon="8.4790317"><ele>106.0</ele><time>2026-04-21T09:50:30.339Z</time></trkpt><trkpt lat="39.6660067" lon="8.4789283"><ele>106.0</ele><time>2026-04-21T09:50:31.34Z</time></trkpt><trkpt lat="39.6660067" lon="8.4788317"><ele>106.0</ele><time>2026-04-21T09:50:32.339Z</time></trkpt><trkpt lat="39.6660117" lon="8.4787467"><ele>106.0</ele><time>2026-04-21T09:50:33.34Z</time></trkpt><trkpt lat="39.6660217" lon="8.4786633"><ele>106.0</ele><time>2026-04-21T09:50:34.34Z</time></trkpt><trkpt lat="39.6660367" lon="8.47858"><ele>106.0</ele><time>2026-04-21T09:50:35.339Z</time></trkpt><trkpt lat="39.6660633" lon="8.478495"><ele>106.0</ele><time>2026-04-21T09:50:36.34Z</time></trkpt><trkpt lat="39.6661" lon="8.4784033"><ele>102.50000000000001</ele><time>2026-04-21T09:50:37.339Z</time></trkpt><trkpt lat="39.6661333" lon="8.47831"><ele>99.0</ele><time>2026-04-21T09:50:38.339Z</time></trkpt><trkpt lat="39.6661633" lon="8.478215"><ele>95.5</ele><time>2026-04-21T09:50:39.34Z</time></trkpt><trkpt lat="39.6661867" lon="8.4781167"><ele>92.0</ele><time>2026-04-21T09:50:40.339Z</time></trkpt><trkpt lat="39.666205" lon="8.47801"><ele>88.5</ele><time>2026-04-21T09:50:41.339Z</time></trkpt><trkpt lat="39.6662217" lon="8.4779033"><ele>85.0</ele><time>2026-04-21T09:50:42.339Z</time></trkpt><trkpt lat="39.66624" lon="8.4778017"><ele>84.42857142857143</ele><time>2026-04-21T09:50:43.339Z</time></trkpt><trkpt lat="39.6662517" lon="8.4777183"><ele>83.85714285714285</ele><time>2026-04-21T09:50:44.339Z</time></trkpt><trkpt lat="39.6662667" lon="8.4776283"><ele>83.28571428571428</ele><time>2026-04-21T09:50:45.339Z</time></trkpt><trkpt lat="39.66628" lon="8.477535"><ele>82.71428571428572</ele><time>2026-04-21T09:50:46.34Z</time></trkpt><trkpt lat="39.6662767" lon="8.4774383"><ele>82.14285714285714</ele><time>2026-04-21T09:50:47.34Z</time></trkpt><trkpt lat="39.6662817" lon="8.47734"><ele>81.57142857142857</ele><time>2026-04-21T09:50:48.34Z</time></trkpt><trkpt lat="39.6662783" lon="8.4772483"><ele>81.0</ele><time>2026-04-21T09:50:49.34Z</time></trkpt><trkpt lat="39.6662867" lon="8.4771583"><ele>80.0</ele><time>2026-04-21T09:50:50.339Z</time></trkpt><trkpt lat="39.6663033" lon="8.477055"><ele>79.0</ele><time>2026-04-21T09:50:51.34Z</time></trkpt><trkpt lat="39.666335" lon="8.4769467"><ele>78.0</ele><time>2026-04-21T09:50:52.34Z</time></trkpt><trkpt lat="39.6663733" lon="8.4768433"><ele>77.0</ele><time>2026-04-21T09:50:53.34Z</time></trkpt><trkpt lat="39.6664133" lon="8.4767267"><ele>76.0</ele><time>2026-04-21T09:50:54.339Z</time></trkpt><trkpt lat="39.666445" lon="8.4766167"><ele>75.0</ele><time>2026-04-21T09:50:55.339Z</time></trkpt><trkpt lat="39.66647" lon="8.4765133"><ele>75.0</ele><time>2026-04-21T09:50:56.34Z</time></trkpt><trkpt lat="39.66649" lon="8.4764033"><ele>75.0</ele><time>2026-04-21T09:50:57.34Z</time></trkpt><trkpt lat="39.6665133" lon="8.4762817"><ele>75.0</ele><time>2026-04-21T09:50:58.34Z</time></trkpt><trkpt lat="39.66654" lon="8.47617"><ele>75.0</ele><time>2026-04-21T09:50:59.34Z</time></trkpt><trkpt lat="39.66657" lon="8.476065"><ele>75.0</ele><time>2026-04-21T09:51:00.34Z</time></trkpt><trkpt lat="39.6666083" lon="8.4759617"><ele>75.0</ele><time>2026-04-21T09:51:01.34Z</time></trkpt><trkpt lat="39.6666483" lon="8.4758483"><ele>73.8</ele><time>2026-04-21T09:51:02.34Z</time></trkpt><trkpt lat="39.6666883" lon="8.4757183"><ele>72.6</ele><time>2026-04-21T09:51:03.34Z</time></trkpt><trkpt lat="39.666735" lon="8.4755783"><ele>71.4</ele><time>2026-04-21T09:51:04.339Z</time></trkpt><trkpt lat="39.6667683" lon="8.4754467"><ele>70.2</ele><time>2026-04-21T09:51:05.339Z</time></trkpt><trkpt lat="39.66679" lon="8.4753333"><ele>69.0</ele><time>2026-04-21T09:51:06.339Z</time></trkpt><trkpt lat="39.6668233" lon="8.4752233"><ele>68.4</ele><time>2026-04-21T09:51:07.339Z</time></trkpt><trkpt lat="39.6668583" lon="8.475115"><ele>67.80000000000001</ele><time>2026-04-21T09:51:08.339Z</time></trkpt><trkpt lat="39.666895" lon="8.475"><ele>67.19999999999999</ele><time>2026-04-21T09:51:09.34Z</time></trkpt><trkpt lat="39.6669267" lon="8.47488"><ele>66.6</ele><time>2026-04-21T09:51:10.339Z</time></trkpt><trkpt lat="39.6669467" lon="8.47477"><ele>66.0</ele><time>2026-04-21T09:51:11.339Z</time></trkpt><trkpt lat="39.6669683" lon="8.4746683"><ele>65.66666666666667</ele><time>2026-04-21T09:51:12.34Z</time></trkpt><trkpt lat="39.66698" lon="8.4745733"><ele>65.33333333333333</ele><time>2026-04-21T09:51:13.34Z</time></trkpt><trkpt lat="39.6669733" lon="8.47447"><ele>65.0</ele><time>2026-04-21T09:51:14.339Z</time></trkpt><trkpt lat="39.6669567" lon="8.4743567"><ele>64.66666666666666</ele><time>2026-04-21T09:51:15.34Z</time></trkpt><trkpt lat="39.6669433" lon="8.47425"><ele>64.33333333333333</ele><time>2026-04-21T09:51:16.339Z</time></trkpt><trkpt lat="39.66693" lon="8.4741467"><ele>64.0</ele><time>2026-04-21T09:51:17.339Z</time></trkpt><trkpt lat="39.6669283" lon="8.4740533"><ele>64.0</ele><time>2026-04-21T09:51:18.34Z</time></trkpt><trkpt lat="39.6669283" lon="8.4739533"><ele>64.0</ele><time>2026-04-21T09:51:19.339Z</time></trkpt><trkpt lat="39.6669367" lon="8.473845"><ele>64.0</ele><time>2026-04-21T09:51:20.339Z</time></trkpt><trkpt lat="39.6669517" lon="8.4737517"><ele>64.0</ele><time>2026-04-21T09:51:21.339Z</time></trkpt><trkpt lat="39.6669717" lon="8.4736067"><ele>64.0</ele><time>2026-04-21T09:51:23.34Z</time></trkpt><trkpt lat="39.6669383" lon="8.4734617"><ele>62.83333333333333</ele><time>2026-04-21T09:51:25.339Z</time></trkpt><trkpt lat="39.6669217" lon="8.473375"><ele>61.666666666666664</ele><time>2026-04-21T09:51:26.34Z</time></trkpt><trkpt lat="39.6669067" lon="8.473295"><ele>60.5</ele><time>2026-04-21T09:51:27.339Z</time></trkpt><trkpt lat="39.6669" lon="8.47321"><ele>59.33333333333333</ele><time>2026-04-21T09:51:28.339Z</time></trkpt><trkpt lat="39.666885" lon="8.4730567"><ele>58.166666666666664</ele><time>2026-04-21T09:51:30.34Z</time></trkpt><trkpt lat="39.66689" lon="8.4729233"><ele>57.0</ele><time>2026-04-21T09:51:32.34Z</time></trkpt><trkpt lat="39.666925" lon="8.4727933"><ele>54.6</ele><time>2026-04-21T09:51:34.339Z</time></trkpt><trkpt lat="39.6669883" lon="8.472675"><ele>52.2</ele><time>2026-04-21T09:51:36.34Z</time></trkpt><trkpt lat="39.6670567" lon="8.4725633"><ele>49.8</ele><time>2026-04-21T09:51:38.34Z</time></trkpt><trkpt lat="39.6671283" lon="8.4724683"><ele>47.4</ele><time>2026-04-21T09:51:40.34Z</time></trkpt><trkpt lat="39.6672033" lon="8.4724083"><ele>45.0</ele><time>2026-04-21T09:51:42.339Z</time></trkpt><trkpt lat="39.6672933" lon="8.4723833"><ele>45.0</ele><time>2026-04-21T09:51:44.34Z</time></trkpt><trkpt lat="39.6673683" lon="8.4723983"><ele>45.0</ele><time>2026-04-21T09:51:46.34Z</time></trkpt><trkpt lat="39.667425" lon="8.472335"><ele>45.0</ele><time>2026-04-21T09:51:49.34Z</time></trkpt><trkpt lat="39.667395" lon="8.4722617"><ele>45.0</ele><time>2026-04-21T09:51:51.34Z</time></trkpt><trkpt lat="39.6673267" lon="8.4722033"><ele>45.0</ele><time>2026-04-21T09:51:53.339Z</time></trkpt><trkpt lat="39.66725" lon="8.472155"><ele>45.0</ele><time>2026-04-21T09:51:55.339Z</time></trkpt><trkpt lat="39.6671667" lon="8.472105"><ele>43.5</ele><time>2026-04-21T09:51:57.339Z</time></trkpt><trkpt lat="39.6670917" lon="8.4720717"><ele>42.0</ele><time>2026-04-21T09:51:59.34Z</time></trkpt><trkpt lat="39.6670417" lon="8.4719817"><ele>40.5</ele><time>2026-04-21T09:52:02.34Z</time></trkpt><trkpt lat="39.6670533" lon="8.4718733"><ele>39.0</ele><time>2026-04-21T09:52:04.339Z</time></trkpt><trkpt lat="39.6670617" lon="8.4717517"><ele>37.5</ele><time>2026-04-21T09:52:06.34Z</time></trkpt><trkpt lat="39.66711" lon="8.4716417"><ele>36.0</ele><time>2026-04-21T09:52:08.34Z</time></trkpt><trkpt lat="39.6671833" lon="8.4715367"><ele>36.0</ele><time>2026-04-21T09:52:10.339Z</time></trkpt><trkpt lat="39.66725" lon="8.4714467"><ele>36.0</ele><time>2026-04-21T09:52:12.339Z</time></trkpt><trkpt lat="39.66732" lon="8.4713817"><ele>36.0</ele><time>2026-04-21T09:52:14.339Z</time></trkpt><trkpt lat="39.6673983" lon="8.4713567"><ele>36.0</ele><time>2026-04-21T09:52:16.34Z</time></trkpt><trkpt lat="39.6674617" lon="8.4712967"><ele>36.0</ele><time>2026-04-21T09:52:18.34Z</time></trkpt><trkpt lat="39.667515" lon="8.4711717"><ele>35.6</ele><time>2026-04-21T09:52:20.339Z</time></trkpt><trkpt lat="39.6675967" lon="8.4710583"><ele>35.2</ele><time>2026-04-21T09:52:22.34Z</time></trkpt><trkpt lat="39.6676917" lon="8.4709717"><ele>34.8</ele><time>2026-04-21T09:52:24.339Z</time></trkpt><trkpt lat="39.6677967" lon="8.4709583"><ele>34.4</ele><time>2026-04-21T09:52:26.339Z</time></trkpt><trkpt lat="39.6678983" lon="8.4709783"><ele>34.0</ele><time>2026-04-21T09:52:28.34Z</time></trkpt><trkpt lat="39.6679867" lon="8.4709533"><ele>34.8</ele><time>2026-04-21T09:52:30.34Z</time></trkpt><trkpt lat="39.66805" lon="8.4708583"><ele>35.599999999999994</ele><time>2026-04-21T09:52:32.34Z</time></trkpt><trkpt lat="39.6681033" lon="8.4707217"><ele>36.4</ele><time>2026-04-21T09:52:34.34Z</time></trkpt><trkpt lat="39.6681333" lon="8.470645"><ele>37.199999999999996</ele><time>2026-04-21T09:52:35.339Z</time></trkpt><trkpt lat="39.668165" lon="8.4705733"><ele>38.0</ele><time>2026-04-21T09:52:36.34Z</time></trkpt><trkpt lat="39.6682183" lon="8.47043"><ele>38.0</ele><time>2026-04-21T09:52:38.34Z</time></trkpt><trkpt lat="39.6682717" lon="8.470275"><ele>38.0</ele><time>2026-04-21T09:52:40.339Z</time></trkpt><trkpt lat="39.6683117" lon="8.4701917"><ele>38.0</ele><time>2026-04-21T09:52:41.34Z</time></trkpt><trkpt lat="39.6683617" lon="8.4701067"><ele>38.0</ele><time>2026-04-21T09:52:42.34Z</time></trkpt><trkpt lat="39.66842" lon="8.4700067"><ele>38.0</ele><time>2026-04-21T09:52:43.339Z</time></trkpt><trkpt lat="39.66849" lon="8.4698983"><ele>38.0</ele><time>2026-04-21T09:52:44.339Z</time></trkpt><trkpt lat="39.668555" lon="8.4698017"><ele>38.0</ele><time>2026-04-21T09:52:45.339Z</time></trkpt><trkpt lat="39.6686183" lon="8.4697133"><ele>38.0</ele><time>2026-04-21T09:52:46.339Z</time></trkpt><trkpt lat="39.6686867" lon="8.469625"><ele>38.0</ele><time>2026-04-21T09:52:47.34Z</time></trkpt><trkpt lat="39.66876" lon="8.4695383"><ele>38.0</ele><time>2026-04-21T09:52:48.34Z</time></trkpt><trkpt lat="39.6688383" lon="8.469445"><ele>38.33333333333333</ele><time>2026-04-21T09:52:49.339Z</time></trkpt><trkpt lat="39.6689017" lon="8.469365"><ele>38.666666666666664</ele><time>2026-04-21T09:52:50.34Z</time></trkpt><trkpt lat="39.6689583" lon="8.469275"><ele>39.0</ele><time>2026-04-21T09:52:51.339Z</time></trkpt><trkpt lat="39.669015" lon="8.46919"><ele>39.333333333333336</ele><time>2026-04-21T09:52:52.34Z</time></trkpt><trkpt lat="39.669075" lon="8.4691067"><ele>39.66666666666667</ele><time>2026-04-21T09:52:53.339Z</time></trkpt><trkpt lat="39.669135" lon="8.4690317"><ele>40.0</ele><time>2026-04-21T09:52:54.339Z</time></trkpt><trkpt lat="39.6691967" lon="8.4689583"><ele>40.0</ele><time>2026-04-21T09:52:55.339Z</time></trkpt><trkpt lat="39.6692633" lon="8.46889"><ele>40.0</ele><time>2026-04-21T09:52:56.34Z</time></trkpt><trkpt lat="39.66933" lon="8.4688217"><ele>40.0</ele><time>2026-04-21T09:52:57.34Z</time></trkpt><trkpt lat="39.669395" lon="8.468745"><ele>40.0</ele><time>2026-04-21T09:52:58.339Z</time></trkpt><trkpt lat="39.66945" lon="8.4686717"><ele>40.0</ele><time>2026-04-21T09:52:59.339Z</time></trkpt><trkpt lat="39.6695133" lon="8.4686067"><ele>40.0</ele><time>2026-04-21T09:53:00.34Z</time></trkpt><trkpt lat="39.66957" lon="8.4685483"><ele>39.5</ele><time>2026-04-21T09:53:01.34Z</time></trkpt><trkpt lat="39.66964" lon="8.4685033"><ele>39.0</ele><time>2026-04-21T09:53:02.339Z</time></trkpt><trkpt lat="39.6697167" lon="8.4684733"><ele>38.5</ele><time>2026-04-21T09:53:03.34Z</time></trkpt><trkpt lat="39.6697917" lon="8.4684583"><ele>38.0</ele><time>2026-04-21T09:53:04.339Z</time></trkpt><trkpt lat="39.6698633" lon="8.4684433"><ele>37.5</ele><time>2026-04-21T09:53:05.34Z</time></trkpt><trkpt lat="39.6699617" lon="8.4683783"><ele>37.0</ele><time>2026-04-21T09:53:07.339Z</time></trkpt><trkpt lat="39.670015" lon="8.4682167"><ele>37.0</ele><time>2026-04-21T09:53:09.34Z</time></trkpt><trkpt lat="39.67004" lon="8.468125"><ele>37.0</ele><time>2026-04-21T09:53:10.339Z</time></trkpt><trkpt lat="39.6700767" lon="8.4680233"><ele>37.0</ele><time>2026-04-21T09:53:11.34Z</time></trkpt><trkpt lat="39.670125" lon="8.46793"><ele>37.0</ele><time>2026-04-21T09:53:12.34Z</time></trkpt><trkpt lat="39.6701717" lon="8.4678533"><ele>37.0</ele><time>2026-04-21T09:53:13.339Z</time></trkpt><trkpt lat="39.6702133" lon="8.4677833"><ele>37.0</ele><time>2026-04-21T09:53:14.34Z</time></trkpt><trkpt lat="39.670275" lon="8.46768"><ele>37.0</ele><time>2026-04-21T09:53:16.34Z</time></trkpt><trkpt lat="39.670285" lon="8.467585"><ele>37.0</ele><time>2026-04-21T09:53:18.34Z</time></trkpt><trkpt lat="39.67019" lon="8.46749"><ele>37.0</ele><time>2026-04-21T09:53:20.34Z</time></trkpt><trkpt lat="39.670125" lon="8.4674533"><ele>37.0</ele><time>2026-04-21T09:53:21.339Z</time></trkpt><trkpt lat="39.6700633" lon="8.4674117"><ele>37.0</ele><time>2026-04-21T09:53:22.34Z</time></trkpt><trkpt lat="39.670005" lon="8.467375"><ele>37.0</ele><time>2026-04-21T09:53:23.339Z</time></trkpt><trkpt lat="39.6699467" lon="8.4673283"><ele>37.0</ele><time>2026-04-21T09:53:24.34Z</time></trkpt><trkpt lat="39.6698867" lon="8.4672767"><ele>37.0</ele><time>2026-04-21T09:53:25.34Z</time></trkpt><trkpt lat="39.6698183" lon="8.467225"><ele>37.0</ele><time>2026-04-21T09:53:26.339Z</time></trkpt><trkpt lat="39.66974" lon="8.46718"><ele>37.0</ele><time>2026-04-21T09:53:27.339Z</time></trkpt><trkpt lat="39.6696683" lon="8.4671483"><ele>37.0</ele><time>2026-04-21T09:53:28.34Z</time></trkpt><trkpt lat="39.669595" lon="8.467115"><ele>37.0</ele><time>2026-04-21T09:53:29.339Z</time></trkpt><trkpt lat="39.669525" lon="8.4670883"><ele>36.57142857142857</ele><time>2026-04-21T09:53:30.339Z</time></trkpt><trkpt lat="39.66946" lon="8.467055"><ele>36.14285714285714</ele><time>2026-04-21T09:53:31.34Z</time></trkpt><trkpt lat="39.6693967" lon="8.4670283"><ele>35.71428571428571</ele><time>2026-04-21T09:53:32.339Z</time></trkpt><trkpt lat="39.6693283" lon="8.467"><ele>35.285714285714285</ele><time>2026-04-21T09:53:33.339Z</time></trkpt><trkpt lat="39.669255" lon="8.4669633"><ele>34.857142857142854</ele><time>2026-04-21T09:53:34.34Z</time></trkpt><trkpt lat="39.66919" lon="8.466925"><ele>34.42857142857142</ele><time>2026-04-21T09:53:35.34Z</time></trkpt><trkpt lat="39.6691267" lon="8.4668767"><ele>34.0</ele><time>2026-04-21T09:53:36.34Z</time></trkpt><trkpt lat="39.6690733" lon="8.4668133"><ele>32.8</ele><time>2026-04-21T09:53:37.34Z</time></trkpt><trkpt lat="39.6690283" lon="8.4667467"><ele>31.599999999999998</ele><time>2026-04-21T09:53:38.339Z</time></trkpt><trkpt lat="39.6689483" lon="8.46662"><ele>30.4</ele><time>2026-04-21T09:53:40.34Z</time></trkpt><trkpt lat="39.6688917" lon="8.4664783"><ele>29.2</ele><time>2026-04-21T09:53:42.34Z</time></trkpt><trkpt lat="39.668875" lon="8.466385"><ele>28.0</ele><time>2026-04-21T09:53:43.34Z</time></trkpt><trkpt lat="39.6688583" lon="8.466275"><ele>28.000000000000004</ele><time>2026-04-21T09:53:44.339Z</time></trkpt><trkpt lat="39.6688383" lon="8.4661633"><ele>28.0</ele><time>2026-04-21T09:53:45.34Z</time></trkpt><trkpt lat="39.66883" lon="8.466055"><ele>28.0</ele><time>2026-04-21T09:53:46.34Z</time></trkpt><trkpt lat="39.6688217" lon="8.4659467"><ele>28.0</ele><time>2026-04-21T09:53:47.339Z</time></trkpt><trkpt lat="39.6688133" lon="8.4658517"><ele>28.000000000000004</ele><time>2026-04-21T09:53:48.338Z</time></trkpt><trkpt lat="39.6687917" lon="8.46577"><ele>28.0</ele><time>2026-04-21T09:53:49.339Z</time></trkpt><trkpt lat="39.668765" lon="8.4656233"><ele>28.000000000000004</ele><time>2026-04-21T09:53:51.339Z</time></trkpt><trkpt lat="39.6687717" lon="8.4655017"><ele>28.0</ele><time>2026-04-21T09:53:53.338Z</time></trkpt><trkpt lat="39.66875" lon="8.4653983"><ele>28.0</ele><time>2026-04-21T09:53:56.339Z</time></trkpt><trkpt lat="39.668645" lon="8.4653733"><ele>28.0</ele><time>2026-04-21T09:53:58.338Z</time></trkpt><trkpt lat="39.66858" lon="8.465355"><ele>28.000000000000004</ele><time>2026-04-21T09:53:59.339Z</time></trkpt><trkpt lat="39.66851" lon="8.46531"><ele>28.0</ele><time>2026-04-21T09:54:00.338Z</time></trkpt><trkpt lat="39.6684417" lon="8.4652483"><ele>27.2</ele><time>2026-04-21T09:54:01.338Z</time></trkpt><trkpt lat="39.668385" lon="8.4651533"><ele>26.4</ele><time>2026-04-21T09:54:02.339Z</time></trkpt><trkpt lat="39.6683467" lon="8.465035"><ele>25.599999999999998</ele><time>2026-04-21T09:54:03.339Z</time></trkpt><trkpt lat="39.66833" lon="8.4649083"><ele>24.799999999999997</ele><time>2026-04-21T09:54:04.339Z</time></trkpt><trkpt lat="39.6683333" lon="8.464775"><ele>24.0</ele><time>2026-04-21T09:54:05.339Z</time></trkpt><trkpt lat="39.66835" lon="8.4646317"><ele>24.75</ele><time>2026-04-21T09:54:06.338Z</time></trkpt><trkpt lat="39.66838" lon="8.4644767"><ele>25.5</ele><time>2026-04-21T09:54:07.339Z</time></trkpt><trkpt lat="39.6684167" lon="8.4643133"><ele>26.25</ele><time>2026-04-21T09:54:08.338Z</time></trkpt><trkpt lat="39.6684583" lon="8.4641417"><ele>27.0</ele><time>2026-04-21T09:54:09.339Z</time></trkpt><trkpt lat="39.6684983" lon="8.4639617"><ele>29.333333333333336</ele><time>2026-04-21T09:54:10.339Z</time></trkpt><trkpt lat="39.6685433" lon="8.4637733"><ele>31.666666666666668</ele><time>2026-04-21T09:54:11.339Z</time></trkpt><trkpt lat="39.66859" lon="8.4635717"><ele>34.0</ele><time>2026-04-21T09:54:12.338Z</time></trkpt><trkpt lat="39.668635" lon="8.463365"><ele>29.0</ele><time>2026-04-21T09:54:13.339Z</time></trkpt><trkpt lat="39.6686817" lon="8.46315"><ele>24.0</ele><time>2026-04-21T09:54:14.338Z</time></trkpt><trkpt lat="39.6687283" lon="8.4629317"><ele>19.0</ele><time>2026-04-21T09:54:15.339Z</time></trkpt><trkpt lat="39.668765" lon="8.4627233"><ele>19.0</ele><time>2026-04-21T09:54:16.339Z</time></trkpt><trkpt lat="39.6687967" lon="8.4625283"><ele>19.0</ele><time>2026-04-21T09:54:17.338Z</time></trkpt><trkpt lat="39.6688167" lon="8.46235"><ele>19.0</ele><time>2026-04-21T09:54:18.339Z</time></trkpt><trkpt lat="39.668825" lon="8.4621917"><ele>19.0</ele><time>2026-04-21T09:54:19.339Z</time></trkpt><trkpt lat="39.6688283" lon="8.4620483"><ele>18.4</ele><time>2026-04-21T09:54:20.339Z</time></trkpt><trkpt lat="39.6688117" lon="8.4619117"><ele>17.799999999999997</ele><time>2026-04-21T09:54:21.339Z</time></trkpt><trkpt lat="39.6687783" lon="8.4617883"><ele>17.200000000000003</ele><time>2026-04-21T09:54:22.338Z</time></trkpt><trkpt lat="39.6687317" lon="8.46166"><ele>16.6</ele><time>2026-04-21T09:54:23.339Z</time></trkpt><trkpt lat="39.6686717" lon="8.4615333"><ele>16.0</ele><time>2026-04-21T09:54:24.339Z</time></trkpt><trkpt lat="39.66859" lon="8.4614133"><ele>16.75</ele><time>2026-04-21T09:54:25.338Z</time></trkpt><trkpt lat="39.6684867" lon="8.4613017"><ele>17.5</ele><time>2026-04-21T09:54:26.339Z</time></trkpt><trkpt lat="39.66838" lon="8.4611933"><ele>18.25</ele><time>2026-04-21T09:54:27.338Z</time></trkpt><trkpt lat="39.6682783" lon="8.4610917"><ele>19.0</ele><time>2026-04-21T09:54:28.338Z</time></trkpt><trkpt lat="39.668175" lon="8.460995"><ele>19.0</ele><time>2026-04-21T09:54:29.338Z</time></trkpt><trkpt lat="39.6680783" lon="8.460905"><ele>19.0</ele><time>2026-04-21T09:54:30.339Z</time></trkpt><trkpt lat="39.6679917" lon="8.4608367"><ele>19.0</ele><time>2026-04-21T09:54:31.338Z</time></trkpt><trkpt lat="39.6679033" lon="8.4607983"><ele>19.0</ele><time>2026-04-21T09:54:32.339Z</time></trkpt><trkpt lat="39.6678033" lon="8.460785"><ele>19.0</ele><time>2026-04-21T09:54:33.339Z</time></trkpt><trkpt lat="39.667715" lon="8.4607983"><ele>21.2</ele><time>2026-04-21T09:54:34.339Z</time></trkpt><trkpt lat="39.66763" lon="8.4608483"><ele>23.4</ele><time>2026-04-21T09:54:35.339Z</time></trkpt><trkpt lat="39.6675517" lon="8.4609317"><ele>25.6</ele><time>2026-04-21T09:54:36.338Z</time></trkpt><trkpt lat="39.667485" lon="8.4610367"><ele>27.8</ele><time>2026-04-21T09:54:37.338Z</time></trkpt><trkpt lat="39.6674183" lon="8.46115"><ele>30.0</ele><time>2026-04-21T09:54:38.338Z</time></trkpt><trkpt lat="39.6673583" lon="8.461285"><ele>34.5</ele><time>2026-04-21T09:54:39.338Z</time></trkpt><trkpt lat="39.6673167" lon="8.461435"><ele>39.0</ele><time>2026-04-21T09:54:40.339Z</time></trkpt><trkpt lat="39.6672933" lon="8.461595"><ele>43.5</ele><time>2026-04-21T09:54:41.339Z</time></trkpt><trkpt lat="39.66728" lon="8.46176"><ele>48.0</ele><time>2026-04-21T09:54:42.339Z</time></trkpt><trkpt lat="39.66729" lon="8.4619167"><ele>48.0</ele><time>2026-04-21T09:54:43.339Z</time></trkpt><trkpt lat="39.667305" lon="8.462065"><ele>48.0</ele><time>2026-04-21T09:54:44.339Z</time></trkpt><trkpt lat="39.6673217" lon="8.462215"><ele>48.0</ele><time>2026-04-21T09:54:45.338Z</time></trkpt><trkpt lat="39.6673383" lon="8.4623733"><ele>48.0</ele><time>2026-04-21T09:54:46.338Z</time></trkpt><trkpt lat="39.6673533" lon="8.46254"><ele>48.75</ele><time>2026-04-21T09:54:47.338Z</time></trkpt><trkpt lat="39.6673667" lon="8.4627117"><ele>49.5</ele><time>2026-04-21T09:54:48.338Z</time></trkpt><trkpt lat="39.6673833" lon="8.4628917"><ele>50.25</ele><time>2026-04-21T09:54:49.339Z</time></trkpt><trkpt lat="39.6674017" lon="8.4630683"><ele>51.0</ele><time>2026-04-21T09:54:50.339Z</time></trkpt><trkpt lat="39.6674167" lon="8.4632517"><ele>51.25</ele><time>2026-04-21T09:54:51.339Z</time></trkpt><trkpt lat="39.6674333" lon="8.463435"><ele>51.5</ele><time>2026-04-21T09:54:52.339Z</time></trkpt><trkpt lat="39.667445" lon="8.4636167"><ele>51.75</ele><time>2026-04-21T09:54:53.339Z</time></trkpt><trkpt lat="39.667465" lon="8.463805"><ele>52.0</ele><time>2026-04-21T09:54:54.339Z</time></trkpt><trkpt lat="39.6674783" lon="8.4639967"><ele>52.25</ele><time>2026-04-21T09:54:55.338Z</time></trkpt><trkpt lat="39.667485" lon="8.4641883"><ele>52.5</ele><time>2026-04-21T09:54:56.338Z</time></trkpt><trkpt lat="39.6674767" lon="8.4643733"><ele>52.75</ele><time>2026-04-21T09:54:57.338Z</time></trkpt><trkpt lat="39.667445" lon="8.4645483"><ele>53.0</ele><time>2026-04-21T09:54:58.338Z</time></trkpt><trkpt lat="39.6673917" lon="8.4647117"><ele>52.333333333333336</ele><time>2026-04-21T09:54:59.339Z</time></trkpt><trkpt lat="39.6673117" lon="8.4648683"><ele>51.66666666666667</ele><time>2026-04-21T09:55:00.338Z</time></trkpt><trkpt lat="39.6672033" lon="8.4650183"><ele>51.0</ele><time>2026-04-21T09:55:01.339Z</time></trkpt><trkpt lat="39.6670933" lon="8.4651717"><ele>51.0</ele><time>2026-04-21T09:55:02.339Z</time></trkpt><trkpt lat="39.666985" lon="8.4653317"><ele>51.0</ele><time>2026-04-21T09:55:03.338Z</time></trkpt><trkpt lat="39.666875" lon="8.4654983"><ele>51.0</ele><time>2026-04-21T09:55:04.339Z</time></trkpt><trkpt lat="39.6667583" lon="8.4656667"><ele>59.66666666666667</ele><time>2026-04-21T09:55:05.338Z</time></trkpt><trkpt lat="39.6666367" lon="8.46583"><ele>68.33333333333334</ele><time>2026-04-21T09:55:06.339Z</time></trkpt><trkpt lat="39.66652" lon="8.4660117"><ele>77.0</ele><time>2026-04-21T09:55:07.339Z</time></trkpt><trkpt lat="39.6663967" lon="8.4661867"><ele>80.0</ele><time>2026-04-21T09:55:08.339Z</time></trkpt><trkpt lat="39.6662717" lon="8.4663633"><ele>83.0</ele><time>2026-04-21T09:55:09.338Z</time></trkpt><trkpt lat="39.6661467" lon="8.4665433"><ele>86.0</ele><time>2026-04-21T09:55:10.338Z</time></trkpt><trkpt lat="39.666015" lon="8.466725"><ele>86.0</ele><time>2026-04-21T09:55:11.339Z</time></trkpt><trkpt lat="39.6658883" lon="8.46691"><ele>86.0</ele><time>2026-04-21T09:55:12.338Z</time></trkpt><trkpt lat="39.6657617" lon="8.4670933"><ele>86.0</ele><time>2026-04-21T09:55:13.339Z</time></trkpt><trkpt lat="39.6656417" lon="8.4672733"><ele>89.66666666666667</ele><time>2026-04-21T09:55:14.339Z</time></trkpt><trkpt lat="39.66552" lon="8.4674567"><ele>93.33333333333334</ele><time>2026-04-21T09:55:15.338Z</time></trkpt><trkpt lat="39.6653883" lon="8.4676317"><ele>97.0</ele><time>2026-04-21T09:55:16.339Z</time></trkpt><trkpt lat="39.6652533" lon="8.46779"><ele>93.33333333333334</ele><time>2026-04-21T09:55:17.338Z</time></trkpt><trkpt lat="39.665115" lon="8.4679467"><ele>89.66666666666667</ele><time>2026-04-21T09:55:18.339Z</time></trkpt><trkpt lat="39.664985" lon="8.4681033"><ele>86.0</ele><time>2026-04-21T09:55:19.338Z</time></trkpt><trkpt lat="39.6648583" lon="8.4682733"><ele>86.0</ele><time>2026-04-21T09:55:20.339Z</time></trkpt><trkpt lat="39.664745" lon="8.4684583"><ele>86.0</ele><time>2026-04-21T09:55:21.339Z</time></trkpt><trkpt lat="39.6646317" lon="8.46865"><ele>86.0</ele><time>2026-04-21T09:55:22.339Z</time></trkpt><trkpt lat="39.6645183" lon="8.4688417"><ele>92.66666666666667</ele><time>2026-04-21T09:55:23.339Z</time></trkpt><trkpt lat="39.66441" lon="8.469035"><ele>99.33333333333334</ele><time>2026-04-21T09:55:24.338Z</time></trkpt><trkpt lat="39.6643133" lon="8.46921"><ele>106.0</ele><time>2026-04-21T09:55:25.339Z</time></trkpt><trkpt lat="39.66422" lon="8.469365"><ele>106.0</ele><time>2026-04-21T09:55:26.338Z</time></trkpt><trkpt lat="39.664135" lon="8.4695"><ele>106.0</ele><time>2026-04-21T09:55:27.339Z</time></trkpt><trkpt lat="39.6640683" lon="8.469655"><ele>106.0</ele><time>2026-04-21T09:55:28.338Z</time></trkpt><trkpt lat="39.6640283" lon="8.46982"><ele>106.0</ele><time>2026-04-21T09:55:29.338Z</time></trkpt><trkpt lat="39.66401" lon="8.4699967"><ele>106.25</ele><time>2026-04-21T09:55:30.338Z</time></trkpt><trkpt lat="39.66401" lon="8.470175"><ele>106.5</ele><time>2026-04-21T09:55:31.339Z</time></trkpt><trkpt lat="39.664045" lon="8.4703517"><ele>106.75</ele><time>2026-04-21T09:55:32.338Z</time></trkpt><trkpt lat="39.66409" lon="8.4705233"><ele>107.0</ele><time>2026-04-21T09:55:33.339Z</time></trkpt><trkpt lat="39.66414" lon="8.4706933"><ele>108.0</ele><time>2026-04-21T09:55:34.338Z</time></trkpt><trkpt lat="39.66418" lon="8.4708417"><ele>109.0</ele><time>2026-04-21T09:55:35.339Z</time></trkpt><trkpt lat="39.6641933" lon="8.471"><ele>110.0</ele><time>2026-04-21T09:55:36.339Z</time></trkpt><trkpt lat="39.6641767" lon="8.4711617"><ele>111.0</ele><time>2026-04-21T09:55:37.338Z</time></trkpt><trkpt lat="39.664135" lon="8.4713217"><ele>111.5</ele><time>2026-04-21T09:55:38.339Z</time></trkpt><trkpt lat="39.6640817" lon="8.4714983"><ele>112.0</ele><time>2026-04-21T09:55:39.339Z</time></trkpt><trkpt lat="39.664035" lon="8.4716683"><ele>112.5</ele><time>2026-04-21T09:55:40.339Z</time></trkpt><trkpt lat="39.66401" lon="8.4718367"><ele>113.0</ele><time>2026-04-21T09:55:41.338Z</time></trkpt><trkpt lat="39.664015" lon="8.47201"><ele>113.5</ele><time>2026-04-21T09:55:42.338Z</time></trkpt><trkpt lat="39.6640417" lon="8.4721817"><ele>114.0</ele><time>2026-04-21T09:55:43.338Z</time></trkpt><trkpt lat="39.6640817" lon="8.472345"><ele>114.5</ele><time>2026-04-21T09:55:44.339Z</time></trkpt><trkpt lat="39.6641" lon="8.4725017"><ele>115.0</ele><time>2026-04-21T09:55:45.338Z</time></trkpt><trkpt lat="39.6640883" lon="8.4726467"><ele>115.0</ele><time>2026-04-21T09:55:46.338Z</time></trkpt><trkpt lat="39.6640367" lon="8.4727717"><ele>115.0</ele><time>2026-04-21T09:55:47.338Z</time></trkpt><trkpt lat="39.6639567" lon="8.4728733"><ele>115.0</ele><time>2026-04-21T09:55:48.338Z</time></trkpt><trkpt lat="39.6638533" lon="8.4729567"><ele>115.0</ele><time>2026-04-21T09:55:49.338Z</time></trkpt><trkpt lat="39.663725" lon="8.4730083"><ele>118.5</ele><time>2026-04-21T09:55:50.338Z</time></trkpt><trkpt lat="39.6635883" lon="8.473045"><ele>122.0</ele><time>2026-04-21T09:55:51.338Z</time></trkpt><trkpt lat="39.6634433" lon="8.4730683"><ele>125.5</ele><time>2026-04-21T09:55:52.339Z</time></trkpt><trkpt lat="39.6632917" lon="8.4731067"><ele>129.0</ele><time>2026-04-21T09:55:53.338Z</time></trkpt><trkpt lat="39.6631333" lon="8.4731483"><ele>129.0</ele><time>2026-04-21T09:55:54.339Z</time></trkpt><trkpt lat="39.6629683" lon="8.4731983"><ele>129.0</ele><time>2026-04-21T09:55:55.339Z</time></trkpt><trkpt lat="39.6627983" lon="8.47325"><ele>129.0</ele><time>2026-04-21T09:55:56.339Z</time></trkpt><trkpt lat="39.6626217" lon="8.47332"><ele>131.33333333333334</ele><time>2026-04-21T09:55:57.338Z</time></trkpt><trkpt lat="39.6624483" lon="8.47341"><ele>133.66666666666669</ele><time>2026-04-21T09:55:58.339Z</time></trkpt><trkpt lat="39.6622617" lon="8.4735067"><ele>136.0</ele><time>2026-04-21T09:55:59.338Z</time></trkpt><trkpt lat="39.6620683" lon="8.4735933"><ele>136.33333333333334</ele><time>2026-04-21T09:56:00.339Z</time></trkpt><trkpt lat="39.6618917" lon="8.4736767"><ele>136.66666666666666</ele><time>2026-04-21T09:56:01.338Z</time></trkpt><trkpt lat="39.6617117" lon="8.4737617"><ele>137.0</ele><time>2026-04-21T09:56:02.339Z</time></trkpt><trkpt lat="39.6615233" lon="8.4738567"><ele>134.0</ele><time>2026-04-21T09:56:03.338Z</time></trkpt><trkpt lat="39.6613233" lon="8.4739533"><ele>131.0</ele><time>2026-04-21T09:56:04.338Z</time></trkpt><trkpt lat="39.6611217" lon="8.4740567"><ele>128.0</ele><time>2026-04-21T09:56:05.339Z</time></trkpt><trkpt lat="39.6609067" lon="8.47415"><ele>125.0</ele><time>2026-04-21T09:56:06.338Z</time></trkpt><trkpt lat="39.6606917" lon="8.4742517"><ele>122.0</ele><time>2026-04-21T09:56:07.339Z</time></trkpt><trkpt lat="39.660475" lon="8.47435"><ele>119.0</ele><time>2026-04-21T09:56:08.339Z</time></trkpt><trkpt lat="39.6602583" lon="8.4744517"><ele>116.0</ele><time>2026-04-21T09:56:09.338Z</time></trkpt><trkpt lat="39.660035" lon="8.47456"><ele>120.0</ele><time>2026-04-21T09:56:10.339Z</time></trkpt><trkpt lat="39.6598117" lon="8.4746633"><ele>124.0</ele><time>2026-04-21T09:56:11.339Z</time></trkpt><trkpt lat="39.6595817" lon="8.4747783"><ele>123.0</ele><time>2026-04-21T09:56:12.338Z</time></trkpt><trkpt lat="39.659355" lon="8.47489"><ele>122.0</ele><time>2026-04-21T09:56:13.338Z</time></trkpt><trkpt lat="39.659125" lon="8.4749967"><ele>122.0</ele><time>2026-04-21T09:56:14.339Z</time></trkpt><trkpt lat="39.658905" lon="8.4750983"><ele>122.0</ele><time>2026-04-21T09:56:15.339Z</time></trkpt><trkpt lat="39.6587" lon="8.4751967"><ele>122.33333333333333</ele><time>2026-04-21T09:56:16.339Z</time></trkpt><trkpt lat="39.658515" lon="8.475285"><ele>122.66666666666666</ele><time>2026-04-21T09:56:17.338Z</time></trkpt><trkpt lat="39.6583383" lon="8.4753717"><ele>123.0</ele><time>2026-04-21T09:56:18.338Z</time></trkpt><trkpt lat="39.6581667" lon="8.475455"><ele>123.0</ele><time>2026-04-21T09:56:19.339Z</time></trkpt><trkpt lat="39.6579833" lon="8.4755417"><ele>123.0</ele><time>2026-04-21T09:56:20.338Z</time></trkpt><trkpt lat="39.6578017" lon="8.475625"><ele>123.0</ele><time>2026-04-21T09:56:21.338Z</time></trkpt><trkpt lat="39.6576233" lon="8.4757017"><ele>127.33333333333334</ele><time>2026-04-21T09:56:22.339Z</time></trkpt><trkpt lat="39.6574417" lon="8.475785"><ele>131.66666666666669</ele><time>2026-04-21T09:56:23.339Z</time></trkpt><trkpt lat="39.6572667" lon="8.4758917"><ele>136.0</ele><time>2026-04-21T09:56:24.339Z</time></trkpt><trkpt lat="39.6570983" lon="8.4760183"><ele>134.33333333333334</ele><time>2026-04-21T09:56:25.339Z</time></trkpt><trkpt lat="39.6569433" lon="8.47614"><ele>132.66666666666666</ele><time>2026-04-21T09:56:26.339Z</time></trkpt><trkpt lat="39.6568083" lon="8.4762517"><ele>131.0</ele><time>2026-04-21T09:56:27.339Z</time></trkpt><trkpt lat="39.6566883" lon="8.476345"><ele>134.0</ele><time>2026-04-21T09:56:28.339Z</time></trkpt><trkpt lat="39.6565883" lon="8.4764217"><ele>137.0</ele><time>2026-04-21T09:56:29.338Z</time></trkpt><trkpt lat="39.656475" lon="8.4764683"><ele>140.0</ele><time>2026-04-21T09:56:30.339Z</time></trkpt><trkpt lat="39.656355" lon="8.4764733"><ele>143.0</ele><time>2026-04-21T09:56:31.339Z</time></trkpt><trkpt lat="39.65625" lon="8.4764183"><ele>143.0</ele><time>2026-04-21T09:56:32.339Z</time></trkpt><trkpt lat="39.6561467" lon="8.4763233"><ele>143.0</ele><time>2026-04-21T09:56:33.338Z</time></trkpt><trkpt lat="39.6560583" lon="8.476195"><ele>143.0</ele><time>2026-04-21T09:56:34.339Z</time></trkpt><trkpt lat="39.6559867" lon="8.47603"><ele>143.0</ele><time>2026-04-21T09:56:35.338Z</time></trkpt><trkpt lat="39.6559217" lon="8.47586"><ele>141.75</ele><time>2026-04-21T09:56:36.338Z</time></trkpt><trkpt lat="39.6558567" lon="8.4756917"><ele>140.5</ele><time>2026-04-21T09:56:37.339Z</time></trkpt><trkpt lat="39.6557883" lon="8.475535"><ele>139.25</ele><time>2026-04-21T09:56:38.339Z</time></trkpt><trkpt lat="39.65571" lon="8.475405"><ele>138.0</ele><time>2026-04-21T09:56:39.338Z</time></trkpt><trkpt lat="39.6556167" lon="8.4753167"><ele>135.75</ele><time>2026-04-21T09:56:40.338Z</time></trkpt><trkpt lat="39.6554917" lon="8.475275"><ele>133.5</ele><time>2026-04-21T09:56:41.338Z</time></trkpt><trkpt lat="39.6553683" lon="8.4752817"><ele>131.25</ele><time>2026-04-21T09:56:42.338Z</time></trkpt><trkpt lat="39.6552383" lon="8.4753333"><ele>129.0</ele><time>2026-04-21T09:56:43.339Z</time></trkpt><trkpt lat="39.6551" lon="8.47541"><ele>132.5</ele><time>2026-04-21T09:56:44.339Z</time></trkpt><trkpt lat="39.6549733" lon="8.4754883"><ele>136.0</ele><time>2026-04-21T09:56:45.339Z</time></trkpt><trkpt lat="39.65486" lon="8.47556"><ele>139.5</ele><time>2026-04-21T09:56:46.338Z</time></trkpt><trkpt lat="39.654755" lon="8.4756767"><ele>143.0</ele><time>2026-04-21T09:56:47.338Z</time></trkpt><trkpt lat="39.6546667" lon="8.4758383"><ele>143.0</ele><time>2026-04-21T09:56:48.338Z</time></trkpt><trkpt lat="39.6545783" lon="8.4760183"><ele>143.0</ele><time>2026-04-21T09:56:49.339Z</time></trkpt><trkpt lat="39.654495" lon="8.4762133"><ele>143.0</ele><time>2026-04-21T09:56:50.338Z</time></trkpt><trkpt lat="39.6544167" lon="8.47639"><ele>140.0</ele><time>2026-04-21T09:56:51.339Z</time></trkpt><trkpt lat="39.654345" lon="8.4765667"><ele>137.0</ele><time>2026-04-21T09:56:52.339Z</time></trkpt><trkpt lat="39.65429" lon="8.4767633"><ele>134.0</ele><time>2026-04-21T09:56:53.339Z</time></trkpt><trkpt lat="39.6542517" lon="8.4769783"><ele>136.0</ele><time>2026-04-21T09:56:54.338Z</time></trkpt><trkpt lat="39.654225" lon="8.4771933"><ele>138.0</ele><time>2026-04-21T09:56:55.338Z</time></trkpt><trkpt lat="39.6541967" lon="8.4773983"><ele>140.0</ele><time>2026-04-21T09:56:56.338Z</time></trkpt><trkpt lat="39.654175" lon="8.4775867"><ele>140.0</ele><time>2026-04-21T09:56:57.339Z</time></trkpt><trkpt lat="39.6541433" lon="8.4777517"><ele>140.0</ele><time>2026-04-21T09:56:58.338Z</time></trkpt><trkpt lat="39.6540983" lon="8.4778967"><ele>140.0</ele><time>2026-04-21T09:56:59.339Z</time></trkpt><trkpt lat="39.6540367" lon="8.4780233"><ele>140.0</ele><time>2026-04-21T09:57:00.339Z</time></trkpt><trkpt lat="39.653965" lon="8.4781317"><ele>142.2</ele><time>2026-04-21T09:57:01.339Z</time></trkpt><trkpt lat="39.65387" lon="8.4782067"><ele>144.4</ele><time>2026-04-21T09:57:02.339Z</time></trkpt><trkpt lat="39.653765" lon="8.4782367"><ele>146.6</ele><time>2026-04-21T09:57:03.339Z</time></trkpt><trkpt lat="39.6536567" lon="8.47822"><ele>148.8</ele><time>2026-04-21T09:57:04.339Z</time></trkpt><trkpt lat="39.65355" lon="8.47815"><ele>151.0</ele><time>2026-04-21T09:57:05.338Z</time></trkpt><trkpt lat="39.653455" lon="8.47805"><ele>147.66666666666669</ele><time>2026-04-21T09:57:06.338Z</time></trkpt><trkpt lat="39.65338" lon="8.4778983"><ele>144.33333333333334</ele><time>2026-04-21T09:57:07.338Z</time></trkpt><trkpt lat="39.6533367" lon="8.4777117"><ele>141.0</ele><time>2026-04-21T09:57:08.339Z</time></trkpt><trkpt lat="39.6533233" lon="8.4775033"><ele>141.0</ele><time>2026-04-21T09:57:09.339Z</time></trkpt><trkpt lat="39.6532983" lon="8.4773067"><ele>141.0</ele><time>2026-04-21T09:57:10.339Z</time></trkpt><trkpt lat="39.6532383" lon="8.4771333"><ele>141.0</ele><time>2026-04-21T09:57:11.339Z</time></trkpt><trkpt lat="39.65315" lon="8.4769633"><ele>136.33333333333334</ele><time>2026-04-21T09:57:12.339Z</time></trkpt><trkpt lat="39.6530417" lon="8.4767983"><ele>131.66666666666669</ele><time>2026-04-21T09:57:13.338Z</time></trkpt><trkpt lat="39.6529383" lon="8.476655"><ele>127.0</ele><time>2026-04-21T09:57:14.339Z</time></trkpt><trkpt lat="39.6528367" lon="8.47653"><ele>130.5</ele><time>2026-04-21T09:57:15.338Z</time></trkpt><trkpt lat="39.6527267" lon="8.476435"><ele>134.0</ele><time>2026-04-21T09:57:16.339Z</time></trkpt><trkpt lat="39.6526017" lon="8.4763833"><ele>137.5</ele><time>2026-04-21T09:57:17.338Z</time></trkpt><trkpt lat="39.6524717" lon="8.47637"><ele>141.0</ele><time>2026-04-21T09:57:18.339Z</time></trkpt><trkpt lat="39.6523533" lon="8.4763933"><ele>141.0</ele><time>2026-04-21T09:57:19.338Z</time></trkpt><trkpt lat="39.6522417" lon="8.4764667"><ele>141.0</ele><time>2026-04-21T09:57:20.339Z</time></trkpt><trkpt lat="39.65213" lon="8.4765783"><ele>141.0</ele><time>2026-04-21T09:57:21.339Z</time></trkpt><trkpt lat="39.6520333" lon="8.4767083"><ele>141.0</ele><time>2026-04-21T09:57:22.339Z</time></trkpt><trkpt lat="39.6519517" lon="8.47688"><ele>141.0</ele><time>2026-04-21T09:57:23.338Z</time></trkpt><trkpt lat="39.6519" lon="8.4770517"><ele>141.0</ele><time>2026-04-21T09:57:24.338Z</time></trkpt><trkpt lat="39.651875" lon="8.4772083"><ele>141.0</ele><time>2026-04-21T09:57:25.339Z</time></trkpt><trkpt lat="39.6518467" lon="8.477335"><ele>141.0</ele><time>2026-04-21T09:57:26.338Z</time></trkpt><trkpt lat="39.6517917" lon="8.4774433"><ele>141.0</ele><time>2026-04-21T09:57:27.338Z</time></trkpt><trkpt lat="39.651715" lon="8.4775333"><ele>141.0</ele><time>2026-04-21T09:57:28.339Z</time></trkpt><trkpt lat="39.65162" lon="8.4775633"><ele>141.0</ele><time>2026-04-21T09:57:29.338Z</time></trkpt><trkpt lat="39.6515183" lon="8.477555"><ele>141.0</ele><time>2026-04-21T09:57:30.339Z</time></trkpt><trkpt lat="39.651415" lon="8.477495"><ele>141.0</ele><time>2026-04-21T09:57:31.338Z</time></trkpt><trkpt lat="39.6513183" lon="8.4773917"><ele>141.0</ele><time>2026-04-21T09:57:32.339Z</time></trkpt><trkpt lat="39.6512583" lon="8.4772467"><ele>141.0</ele><time>2026-04-21T09:57:33.339Z</time></trkpt><trkpt lat="39.6512533" lon="8.477045"><ele>141.0</ele><time>2026-04-21T09:57:34.339Z</time></trkpt><trkpt lat="39.65127" lon="8.476825"><ele>138.75</ele><time>2026-04-21T09:57:35.339Z</time></trkpt><trkpt lat="39.65129" lon="8.4766083"><ele>136.5</ele><time>2026-04-21T09:57:36.339Z</time></trkpt><trkpt lat="39.6512983" lon="8.4764183"><ele>134.25</ele><time>2026-04-21T09:57:37.338Z</time></trkpt><trkpt lat="39.6513033" lon="8.4762433"><ele>132.0</ele><time>2026-04-21T09:57:38.339Z</time></trkpt><trkpt lat="39.6513133" lon="8.47608"><ele>132.0</ele><time>2026-04-21T09:57:39.338Z</time></trkpt><trkpt lat="39.6513417" lon="8.4759117"><ele>132.0</ele><time>2026-04-21T09:57:40.338Z</time></trkpt><trkpt lat="39.6513983" lon="8.475735"><ele>132.0</ele><time>2026-04-21T09:57:41.339Z</time></trkpt><trkpt lat="39.6514667" lon="8.4755617"><ele>132.0</ele><time>2026-04-21T09:57:42.339Z</time></trkpt><trkpt lat="39.6515317" lon="8.4754117"><ele>132.0</ele><time>2026-04-21T09:57:43.339Z</time></trkpt><trkpt lat="39.651575" lon="8.4752767"><ele>132.0</ele><time>2026-04-21T09:57:44.339Z</time></trkpt><trkpt lat="39.6515767" lon="8.4751367"><ele>132.0</ele><time>2026-04-21T09:57:45.339Z</time></trkpt><trkpt lat="39.6515383" lon="8.4749967"><ele>132.0</ele><time>2026-04-21T09:57:46.339Z</time></trkpt><trkpt lat="39.6514683" lon="8.47488"><ele>132.0</ele><time>2026-04-21T09:57:47.339Z</time></trkpt><trkpt lat="39.651365" lon="8.4748"><ele>132.0</ele><time>2026-04-21T09:57:48.338Z</time></trkpt><trkpt lat="39.6512367" lon="8.4747717"><ele>132.0</ele><time>2026-04-21T09:57:49.338Z</time></trkpt><trkpt lat="39.6510933" lon="8.4747883"><ele>132.0</ele><time>2026-04-21T09:57:50.339Z</time></trkpt><trkpt lat="39.6509483" lon="8.4748483"><ele>132.0</ele><time>2026-04-21T09:57:51.338Z</time></trkpt><trkpt lat="39.6507983" lon="8.4749367"><ele>131.0</ele><time>2026-04-21T09:57:52.339Z</time></trkpt><trkpt lat="39.6506567" lon="8.4750233"><ele>130.0</ele><time>2026-04-21T09:57:53.338Z</time></trkpt><trkpt lat="39.6505217" lon="8.4751033"><ele>129.0</ele><time>2026-04-21T09:57:54.338Z</time></trkpt><trkpt lat="39.6503717" lon="8.4751433"><ele>126.33333333333334</ele><time>2026-04-21T09:57:55.339Z</time></trkpt><trkpt lat="39.6502083" lon="8.47514"><ele>123.66666666666667</ele><time>2026-04-21T09:57:56.339Z</time></trkpt><trkpt lat="39.6500433" lon="8.4750933"><ele>121.0</ele><time>2026-04-21T09:57:57.339Z</time></trkpt><trkpt lat="39.6498783" lon="8.4750267"><ele>121.0</ele><time>2026-04-21T09:57:58.338Z</time></trkpt><trkpt lat="39.6497133" lon="8.4749667"><ele>121.0</ele><time>2026-04-21T09:57:59.339Z</time></trkpt><trkpt lat="39.6495683" lon="8.4749183"><ele>121.0</ele><time>2026-04-21T09:58:00.339Z</time></trkpt><trkpt lat="39.6494483" lon="8.47487"><ele>121.0</ele><time>2026-04-21T09:58:01.339Z</time></trkpt><trkpt lat="39.6493267" lon="8.474845"><ele>119.6</ele><time>2026-04-21T09:58:02.339Z</time></trkpt><trkpt lat="39.649215" lon="8.4748483"><ele>118.19999999999999</ele><time>2026-04-21T09:58:03.339Z</time></trkpt><trkpt lat="39.649115" lon="8.4748883"><ele>116.80000000000001</ele><time>2026-04-21T09:58:04.338Z</time></trkpt><trkpt lat="39.649025" lon="8.47497"><ele>115.4</ele><time>2026-04-21T09:58:05.338Z</time></trkpt><trkpt lat="39.6489583" lon="8.4751017"><ele>114.0</ele><time>2026-04-21T09:58:06.338Z</time></trkpt><trkpt lat="39.6489217" lon="8.475275"><ele>117.25</ele><time>2026-04-21T09:58:07.339Z</time></trkpt><trkpt lat="39.64891" lon="8.4754433"><ele>120.5</ele><time>2026-04-21T09:58:08.338Z</time></trkpt><trkpt lat="39.6488767" lon="8.4755833"><ele>123.75</ele><time>2026-04-21T09:58:09.338Z</time></trkpt><trkpt lat="39.6488183" lon="8.4757183"><ele>127.0</ele><time>2026-04-21T09:58:10.338Z</time></trkpt><trkpt lat="39.648725" lon="8.4758233"><ele>119.33333333333334</ele><time>2026-04-21T09:58:11.339Z</time></trkpt><trkpt lat="39.648595" lon="8.4759067"><ele>111.66666666666666</ele><time>2026-04-21T09:58:12.338Z</time></trkpt><trkpt lat="39.648435" lon="8.475955"><ele>104.0</ele><time>2026-04-21T09:58:13.338Z</time></trkpt><trkpt lat="39.6482533" lon="8.4759783"><ele>104.0</ele><time>2026-04-21T09:58:14.339Z</time></trkpt><trkpt lat="39.64806" lon="8.476"><ele>104.0</ele><time>2026-04-21T09:58:15.339Z</time></trkpt><trkpt lat="39.6478767" lon="8.4760283"><ele>104.0</ele><time>2026-04-21T09:58:16.339Z</time></trkpt><trkpt lat="39.647705" lon="8.47605"><ele>101.25</ele><time>2026-04-21T09:58:17.339Z</time></trkpt><trkpt lat="39.6475467" lon="8.4760817"><ele>98.5</ele><time>2026-04-21T09:58:18.339Z</time></trkpt><trkpt lat="39.6474017" lon="8.47611"><ele>95.75</ele><time>2026-04-21T09:58:19.339Z</time></trkpt><trkpt lat="39.6472667" lon="8.4761067"><ele>93.0</ele><time>2026-04-21T09:58:20.338Z</time></trkpt><trkpt lat="39.6471383" lon="8.476065"><ele>93.0</ele><time>2026-04-21T09:58:21.339Z</time></trkpt><trkpt lat="39.6470183" lon="8.475965"><ele>93.0</ele><time>2026-04-21T09:58:22.338Z</time></trkpt><trkpt lat="39.6469217" lon="8.4758283"><ele>93.0</ele><time>2026-04-21T09:58:23.339Z</time></trkpt><trkpt lat="39.6468317" lon="8.4756467"><ele>93.66666666666667</ele><time>2026-04-21T09:58:24.338Z</time></trkpt><trkpt lat="39.6467333" lon="8.47545"><ele>94.33333333333334</ele><time>2026-04-21T09:58:25.339Z</time></trkpt><trkpt lat="39.6466267" lon="8.4752617"><ele>95.0</ele><time>2026-04-21T09:58:26.339Z</time></trkpt><trkpt lat="39.6465333" lon="8.4750833"><ele>96.0</ele><time>2026-04-21T09:58:27.338Z</time></trkpt><trkpt lat="39.6464383" lon="8.4749267"><ele>97.0</ele><time>2026-04-21T09:58:28.338Z</time></trkpt><trkpt lat="39.646325" lon="8.4747867"><ele>98.0</ele><time>2026-04-21T09:58:29.339Z</time></trkpt><trkpt lat="39.6461833" lon="8.4746983"><ele>98.33333333333333</ele><time>2026-04-21T09:58:30.339Z</time></trkpt><trkpt lat="39.6460183" lon="8.4746333"><ele>98.66666666666666</ele><time>2026-04-21T09:58:31.338Z</time></trkpt><trkpt lat="39.6458433" lon="8.4745933"><ele>99.0</ele><time>2026-04-21T09:58:32.339Z</time></trkpt><trkpt lat="39.645655" lon="8.4745567"><ele>103.66666666666666</ele><time>2026-04-21T09:58:33.339Z</time></trkpt><trkpt lat="39.645465" lon="8.4745233"><ele>108.33333333333333</ele><time>2026-04-21T09:58:34.339Z</time></trkpt><trkpt lat="39.6452683" lon="8.4744917"><ele>113.0</ele><time>2026-04-21T09:58:35.339Z</time></trkpt><trkpt lat="39.6450733" lon="8.4744517"><ele>114.33333333333333</ele><time>2026-04-21T09:58:36.339Z</time></trkpt><trkpt lat="39.6448933" lon="8.4744067"><ele>115.66666666666666</ele><time>2026-04-21T09:58:37.338Z</time></trkpt><trkpt lat="39.6447317" lon="8.474345"><ele>117.0</ele><time>2026-04-21T09:58:38.339Z</time></trkpt><trkpt lat="39.6445867" lon="8.4742367"><ele>117.0</ele><time>2026-04-21T09:58:39.338Z</time></trkpt><trkpt lat="39.6444767" lon="8.4741217"><ele>117.0</ele><time>2026-04-21T09:58:40.339Z</time></trkpt><trkpt lat="39.6443533" lon="8.4740483"><ele>117.0</ele><time>2026-04-21T09:58:41.339Z</time></trkpt><trkpt lat="39.6442233" lon="8.4740183"><ele>117.0</ele><time>2026-04-21T09:58:42.339Z</time></trkpt><trkpt lat="39.6440867" lon="8.4740333"><ele>117.25</ele><time>2026-04-21T09:58:43.339Z</time></trkpt><trkpt lat="39.6439383" lon="8.4740933"><ele>117.5</ele><time>2026-04-21T09:58:44.338Z</time></trkpt><trkpt lat="39.6438" lon="8.4741767"><ele>117.75</ele><time>2026-04-21T09:58:45.339Z</time></trkpt><trkpt lat="39.6436733" lon="8.4742483"><ele>118.0</ele><time>2026-04-21T09:58:46.339Z</time></trkpt><trkpt lat="39.6435433" lon="8.4742933"><ele>120.75</ele><time>2026-04-21T09:58:47.339Z</time></trkpt><trkpt lat="39.6434033" lon="8.4742983"><ele>123.5</ele><time>2026-04-21T09:58:48.339Z</time></trkpt><trkpt lat="39.6432583" lon="8.4742667"><ele>126.25</ele><time>2026-04-21T09:58:49.338Z</time></trkpt><trkpt lat="39.6431017" lon="8.4742183"><ele>129.0</ele><time>2026-04-21T09:58:50.338Z</time></trkpt><trkpt lat="39.642935" lon="8.4742033"><ele>130.66666666666666</ele><time>2026-04-21T09:58:51.339Z</time></trkpt><trkpt lat="39.642765" lon="8.4742283"><ele>132.33333333333331</ele><time>2026-04-21T09:58:52.339Z</time></trkpt><trkpt lat="39.642605" lon="8.4743017"><ele>134.0</ele><time>2026-04-21T09:58:53.339Z</time></trkpt><trkpt lat="39.642455" lon="8.4743683"><ele>134.0</ele><time>2026-04-21T09:58:54.339Z</time></trkpt><trkpt lat="39.6422933" lon="8.4744083"><ele>134.0</ele><time>2026-04-21T09:58:55.336Z</time></trkpt><trkpt lat="39.6421233" lon="8.4744083"><ele>134.0</ele><time>2026-04-21T09:58:56.339Z</time></trkpt><trkpt lat="39.6419417" lon="8.4744033"><ele>135.66666666666666</ele><time>2026-04-21T09:58:57.339Z</time></trkpt><trkpt lat="39.64175" lon="8.474395"><ele>137.33333333333334</ele><time>2026-04-21T09:58:58.339Z</time></trkpt><trkpt lat="39.64156" lon="8.474385"><ele>139.0</ele><time>2026-04-21T09:58:59.338Z</time></trkpt><trkpt lat="39.6413883" lon="8.4743667"><ele>139.0</ele><time>2026-04-21T09:59:00.339Z</time></trkpt><trkpt lat="39.6412317" lon="8.4743533"><ele>139.0</ele><time>2026-04-21T09:59:01.338Z</time></trkpt><trkpt lat="39.6410783" lon="8.4743483"><ele>139.0</ele><time>2026-04-21T09:59:02.339Z</time></trkpt><trkpt lat="39.6409367" lon="8.4743617"><ele>138.75</ele><time>2026-04-21T09:59:03.339Z</time></trkpt><trkpt lat="39.6407967" lon="8.4743917"><ele>138.5</ele><time>2026-04-21T09:59:04.338Z</time></trkpt><trkpt lat="39.6406633" lon="8.474445"><ele>138.25</ele><time>2026-04-21T09:59:05.339Z</time></trkpt><trkpt lat="39.640535" lon="8.47453"><ele>138.0</ele><time>2026-04-21T09:59:06.339Z</time></trkpt><trkpt lat="39.6404167" lon="8.47464"><ele>139.0</ele><time>2026-04-21T09:59:07.338Z</time></trkpt><trkpt lat="39.64031" lon="8.4747717"><ele>140.0</ele><time>2026-04-21T09:59:08.338Z</time></trkpt><trkpt lat="39.6402233" lon="8.4749333"><ele>141.0</ele><time>2026-04-21T09:59:09.339Z</time></trkpt><trkpt lat="39.6401317" lon="8.4751033"><ele>142.0</ele><time>2026-04-21T09:59:10.339Z</time></trkpt><trkpt lat="39.640035" lon="8.4752783"><ele>143.0</ele><time>2026-04-21T09:59:11.338Z</time></trkpt><trkpt lat="39.6399283" lon="8.4754633"><ele>144.0</ele><time>2026-04-21T09:59:12.338Z</time></trkpt><trkpt lat="39.6398233" lon="8.4756433"><ele>145.33333333333334</ele><time>2026-04-21T09:59:13.339Z</time></trkpt><trkpt lat="39.639715" lon="8.4758167"><ele>146.66666666666669</ele><time>2026-04-21T09:59:14.339Z</time></trkpt><trkpt lat="39.6396233" lon="8.4759733"><ele>148.0</ele><time>2026-04-21T09:59:15.338Z</time></trkpt><trkpt lat="39.6395433" lon="8.4761083"><ele>148.25</ele><time>2026-04-21T09:59:16.339Z</time></trkpt><trkpt lat="39.6394667" lon="8.476235"><ele>148.5</ele><time>2026-04-21T09:59:17.339Z</time></trkpt><trkpt lat="39.6393817" lon="8.4763433"><ele>148.75</ele><time>2026-04-21T09:59:18.339Z</time></trkpt><trkpt lat="39.63927" lon="8.47642"><ele>149.0</ele><time>2026-04-21T09:59:19.339Z</time></trkpt><trkpt lat="39.6391383" lon="8.4764533"><ele>149.0</ele><time>2026-04-21T09:59:20.338Z</time></trkpt><trkpt lat="39.6389967" lon="8.4764633"><ele>149.0</ele><time>2026-04-21T09:59:21.338Z</time></trkpt><trkpt lat="39.638845" lon="8.4764633"><ele>149.0</ele><time>2026-04-21T09:59:22.339Z</time></trkpt><trkpt lat="39.6386933" lon="8.4764567"><ele>149.0</ele><time>2026-04-21T09:59:23.338Z</time></trkpt><trkpt lat="39.6385367" lon="8.4764883"><ele>149.66666666666666</ele><time>2026-04-21T09:59:24.339Z</time></trkpt><trkpt lat="39.63838" lon="8.47656"><ele>150.33333333333334</ele><time>2026-04-21T09:59:25.339Z</time></trkpt><trkpt lat="39.6382267" lon="8.4766667"><ele>151.0</ele><time>2026-04-21T09:59:26.338Z</time></trkpt><trkpt lat="39.6380667" lon="8.4767933"><ele>151.0</ele><time>2026-04-21T09:59:27.338Z</time></trkpt><trkpt lat="39.637905" lon="8.47693"><ele>151.0</ele><time>2026-04-21T09:59:28.338Z</time></trkpt><trkpt lat="39.6377417" lon="8.4770717"><ele>151.0</ele><time>2026-04-21T09:59:29.339Z</time></trkpt><trkpt lat="39.6375717" lon="8.4772183"><ele>151.66666666666669</ele><time>2026-04-21T09:59:30.338Z</time></trkpt><trkpt lat="39.6374" lon="8.4773567"><ele>152.33333333333334</ele><time>2026-04-21T09:59:31.339Z</time></trkpt><trkpt lat="39.6372317" lon="8.47749"><ele>153.0</ele><time>2026-04-21T09:59:32.339Z</time></trkpt><trkpt lat="39.6370817" lon="8.4776133"><ele>153.66666666666666</ele><time>2026-04-21T09:59:33.339Z</time></trkpt><trkpt lat="39.636945" lon="8.4777333"><ele>154.33333333333331</ele><time>2026-04-21T09:59:34.339Z</time></trkpt><trkpt lat="39.636805" lon="8.477845"><ele>155.0</ele><time>2026-04-21T09:59:35.338Z</time></trkpt><trkpt lat="39.6366667" lon="8.477985"><ele>155.0</ele><time>2026-04-21T09:59:36.338Z</time></trkpt><trkpt lat="39.63654" lon="8.478145"><ele>155.0</ele><time>2026-04-21T09:59:37.338Z</time></trkpt><trkpt lat="39.6364267" lon="8.478315"><ele>155.0</ele><time>2026-04-21T09:59:38.338Z</time></trkpt><trkpt lat="39.6363283" lon="8.4784817"><ele>155.0</ele><time>2026-04-21T09:59:39.338Z</time></trkpt><trkpt lat="39.636235" lon="8.4786367"><ele>155.0</ele><time>2026-04-21T09:59:40.339Z</time></trkpt><trkpt lat="39.63616" lon="8.4787717"><ele>155.0</ele><time>2026-04-21T09:59:41.339Z</time></trkpt><trkpt lat="39.6360883" lon="8.4788933"><ele>155.0</ele><time>2026-04-21T09:59:42.339Z</time></trkpt><trkpt lat="39.6360233" lon="8.479005"><ele>153.6</ele><time>2026-04-21T09:59:43.337Z</time></trkpt><trkpt lat="39.635955" lon="8.4791017"><ele>152.2</ele><time>2026-04-21T09:59:44.337Z</time></trkpt><trkpt lat="39.6358883" lon="8.4791833"><ele>150.8</ele><time>2026-04-21T09:59:45.337Z</time></trkpt><trkpt lat="39.635835" lon="8.479265"><ele>149.4</ele><time>2026-04-21T09:59:46.337Z</time></trkpt><trkpt lat="39.6358033" lon="8.4793383"><ele>148.0</ele><time>2026-04-21T09:59:47.337Z</time></trkpt><trkpt lat="39.6357283" lon="8.4794533"><ele>148.0</ele><time>2026-04-21T09:59:49.338Z</time></trkpt><trkpt lat="39.6356367" lon="8.479525"><ele>148.0</ele><time>2026-04-21T09:59:51.337Z</time></trkpt><trkpt lat="39.635525" lon="8.4795483"><ele>148.0</ele><time>2026-04-21T09:59:53.338Z</time></trkpt><trkpt lat="39.63546" lon="8.47957"><ele>148.0</ele><time>2026-04-21T09:59:54.337Z</time></trkpt><trkpt lat="39.635395" lon="8.4796083"><ele>148.0</ele><time>2026-04-21T09:59:55.338Z</time></trkpt><trkpt lat="39.6353283" lon="8.4796667"><ele>148.0</ele><time>2026-04-21T09:59:56.338Z</time></trkpt><trkpt lat="39.6352567" lon="8.47974"><ele>149.0</ele><time>2026-04-21T09:59:57.337Z</time></trkpt><trkpt lat="39.6351767" lon="8.4798183"><ele>150.0</ele><time>2026-04-21T09:59:58.337Z</time></trkpt><trkpt lat="39.6350817" lon="8.4799083"><ele>151.0</ele><time>2026-04-21T09:59:59.338Z</time></trkpt><trkpt lat="39.6349733" lon="8.4800033"><ele>152.0</ele><time>2026-04-21T10:00:00.337Z</time></trkpt><trkpt lat="39.634875" lon="8.4800817"><ele>152.0</ele><time>2026-04-21T10:00:01.338Z</time></trkpt><trkpt lat="39.6347783" lon="8.4801633"><ele>152.0</ele><time>2026-04-21T10:00:02.337Z</time></trkpt><trkpt lat="39.6346917" lon="8.4802533"><ele>152.0</ele><time>2026-04-21T10:00:03.337Z</time></trkpt><trkpt lat="39.6346117" lon="8.4803383"><ele>152.0</ele><time>2026-04-21T10:00:04.338Z</time></trkpt><trkpt lat="39.6345583" lon="8.4804133"><ele>152.0</ele><time>2026-04-21T10:00:05.338Z</time></trkpt><trkpt lat="39.6345233" lon="8.4804883"><ele>150.66666666666666</ele><time>2026-04-21T10:00:06.338Z</time></trkpt><trkpt lat="39.6345067" lon="8.48057"><ele>149.33333333333331</ele><time>2026-04-21T10:00:07.337Z</time></trkpt><trkpt lat="39.6344933" lon="8.4806583"><ele>148.0</ele><time>2026-04-21T10:00:08.337Z</time></trkpt><trkpt lat="39.63448" lon="8.4807517"><ele>146.66666666666666</ele><time>2026-04-21T10:00:09.337Z</time></trkpt><trkpt lat="39.6344517" lon="8.4808467"><ele>145.33333333333334</ele><time>2026-04-21T10:00:10.337Z</time></trkpt><trkpt lat="39.6344117" lon="8.4809417"><ele>144.0</ele><time>2026-04-21T10:00:11.338Z</time></trkpt><trkpt lat="39.6343583" lon="8.48105"><ele>145.4</ele><time>2026-04-21T10:00:12.338Z</time></trkpt><trkpt lat="39.6343067" lon="8.4811533"><ele>146.8</ele><time>2026-04-21T10:00:13.337Z</time></trkpt><trkpt lat="39.6342517" lon="8.4812567"><ele>148.2</ele><time>2026-04-21T10:00:14.338Z</time></trkpt><trkpt lat="39.6341933" lon="8.4813683"><ele>149.6</ele><time>2026-04-21T10:00:15.338Z</time></trkpt><trkpt lat="39.6341367" lon="8.4814717"><ele>151.0</ele><time>2026-04-21T10:00:16.337Z</time></trkpt><trkpt lat="39.6340833" lon="8.48157"><ele>151.0</ele><time>2026-04-21T10:00:17.338Z</time></trkpt><trkpt lat="39.63403" lon="8.4816717"><ele>151.0</ele><time>2026-04-21T10:00:18.338Z</time></trkpt><trkpt lat="39.6339833" lon="8.4817717"><ele>151.0</ele><time>2026-04-21T10:00:19.338Z</time></trkpt><trkpt lat="39.63393" lon="8.4818567"><ele>151.0</ele><time>2026-04-21T10:00:20.337Z</time></trkpt><trkpt lat="39.6338783" lon="8.4819383"><ele>151.0</ele><time>2026-04-21T10:00:21.338Z</time></trkpt><trkpt lat="39.6338233" lon="8.4820183"><ele>151.0</ele><time>2026-04-21T10:00:22.338Z</time></trkpt><trkpt lat="39.6337533" lon="8.4820783"><ele>152.33333333333334</ele><time>2026-04-21T10:00:23.338Z</time></trkpt><trkpt lat="39.63369" lon="8.48214"><ele>153.66666666666669</ele><time>2026-04-21T10:00:24.338Z</time></trkpt><trkpt lat="39.6336283" lon="8.4821867"><ele>155.0</ele><time>2026-04-21T10:00:25.337Z</time></trkpt><trkpt lat="39.6335633" lon="8.4822317"><ele>156.33333333333334</ele><time>2026-04-21T10:00:26.338Z</time></trkpt><trkpt lat="39.6335017" lon="8.4822517"><ele>157.66666666666666</ele><time>2026-04-21T10:00:27.338Z</time></trkpt><trkpt lat="39.6334033" lon="8.48232"><ele>159.0</ele><time>2026-04-21T10:00:29.338Z</time></trkpt><trkpt lat="39.6333667" lon="8.48239"><ele>159.0</ele><time>2026-04-21T10:00:30.337Z</time></trkpt><trkpt lat="39.633345" lon="8.4824867"><ele>159.0</ele><time>2026-04-21T10:00:31.338Z</time></trkpt><trkpt lat="39.6333233" lon="8.4825883"><ele>159.0</ele><time>2026-04-21T10:00:32.337Z</time></trkpt><trkpt lat="39.633295" lon="8.4826783"><ele>159.0</ele><time>2026-04-21T10:00:33.337Z</time></trkpt><trkpt lat="39.6332717" lon="8.48276"><ele>159.0</ele><time>2026-04-21T10:00:34.338Z</time></trkpt><trkpt lat="39.6332467" lon="8.4828533"><ele>159.0</ele><time>2026-04-21T10:00:35.338Z</time></trkpt><trkpt lat="39.6332333" lon="8.4829533"><ele>158.2</ele><time>2026-04-21T10:00:36.338Z</time></trkpt><trkpt lat="39.6332283" lon="8.4830567"><ele>157.4</ele><time>2026-04-21T10:00:37.338Z</time></trkpt><trkpt lat="39.633235" lon="8.4831667"><ele>156.6</ele><time>2026-04-21T10:00:38.337Z</time></trkpt><trkpt lat="39.6332467" lon="8.4832817"><ele>155.8</ele><time>2026-04-21T10:00:39.337Z</time></trkpt><trkpt lat="39.6332717" lon="8.4834033"><ele>155.0</ele><time>2026-04-21T10:00:40.337Z</time></trkpt><trkpt lat="39.63331" lon="8.4835433"><ele>155.0</ele><time>2026-04-21T10:00:41.338Z</time></trkpt><trkpt lat="39.633345" lon="8.4836933"><ele>155.0</ele><time>2026-04-21T10:00:42.338Z</time></trkpt><trkpt lat="39.6333783" lon="8.4838217"><ele>155.0</ele><time>2026-04-21T10:00:43.337Z</time></trkpt><trkpt lat="39.63342" lon="8.4839417"><ele>155.0</ele><time>2026-04-21T10:00:44.337Z</time></trkpt><trkpt lat="39.6334517" lon="8.4840467"><ele>155.0</ele><time>2026-04-21T10:00:45.338Z</time></trkpt><trkpt lat="39.6334817" lon="8.4841517"><ele>155.66666666666666</ele><time>2026-04-21T10:00:46.337Z</time></trkpt><trkpt lat="39.6335017" lon="8.484245"><ele>156.33333333333331</ele><time>2026-04-21T10:00:47.337Z</time></trkpt><trkpt lat="39.6335233" lon="8.48434"><ele>157.0</ele><time>2026-04-21T10:00:48.338Z</time></trkpt><trkpt lat="39.6335417" lon="8.484425"><ele>157.66666666666666</ele><time>2026-04-21T10:00:49.338Z</time></trkpt><trkpt lat="39.6335633" lon="8.4845183"><ele>158.33333333333334</ele><time>2026-04-21T10:00:50.338Z</time></trkpt><trkpt lat="39.6335767" lon="8.4846283"><ele>159.0</ele><time>2026-04-21T10:00:51.338Z</time></trkpt><trkpt lat="39.6335817" lon="8.48476"><ele>160.0</ele><time>2026-04-21T10:00:52.338Z</time></trkpt><trkpt lat="39.63359" lon="8.4849017"><ele>161.0</ele><time>2026-04-21T10:00:53.338Z</time></trkpt><trkpt lat="39.633605" lon="8.4850433"><ele>162.0</ele><time>2026-04-21T10:00:54.338Z</time></trkpt><trkpt lat="39.6336217" lon="8.4851767"><ele>163.0</ele><time>2026-04-21T10:00:55.338Z</time></trkpt><trkpt lat="39.633635" lon="8.4852967"><ele>164.0</ele><time>2026-04-21T10:00:56.338Z</time></trkpt><trkpt lat="39.6336483" lon="8.4854017"><ele>162.57142857142856</ele><time>2026-04-21T10:00:57.337Z</time></trkpt><trkpt lat="39.63366" lon="8.4854917"><ele>161.14285714285714</ele><time>2026-04-21T10:00:58.337Z</time></trkpt><trkpt lat="39.633675" lon="8.4855817"><ele>159.71428571428572</ele><time>2026-04-21T10:00:59.338Z</time></trkpt><trkpt lat="39.633675" lon="8.4856717"><ele>158.28571428571428</ele><time>2026-04-21T10:01:00.338Z</time></trkpt><trkpt lat="39.6336683" lon="8.4857617"><ele>156.85714285714286</ele><time>2026-04-21T10:01:01.338Z</time></trkpt><trkpt lat="39.6336633" lon="8.4858533"><ele>155.42857142857142</ele><time>2026-04-21T10:01:02.337Z</time></trkpt><trkpt lat="39.6336683" lon="8.4859483"><ele>154.0</ele><time>2026-04-21T10:01:03.338Z</time></trkpt><trkpt lat="39.6336733" lon="8.4860517"><ele>154.0</ele><time>2026-04-21T10:01:04.338Z</time></trkpt><trkpt lat="39.63368" lon="8.4861683"><ele>154.0</ele><time>2026-04-21T10:01:05.338Z</time></trkpt><trkpt lat="39.6336883" lon="8.4863083"><ele>154.0</ele><time>2026-04-21T10:01:06.338Z</time></trkpt><trkpt lat="39.6336933" lon="8.486455"><ele>154.0</ele><time>2026-04-21T10:01:07.338Z</time></trkpt><trkpt lat="39.6336933" lon="8.4865917"><ele>154.0</ele><time>2026-04-21T10:01:08.338Z</time></trkpt><trkpt lat="39.6336933" lon="8.4867367"><ele>155.0</ele><time>2026-04-21T10:01:09.338Z</time></trkpt><trkpt lat="39.6336967" lon="8.4868767"><ele>156.0</ele><time>2026-04-21T10:01:10.337Z</time></trkpt><trkpt lat="39.6336967" lon="8.4870233"><ele>157.0</ele><time>2026-04-21T10:01:11.337Z</time></trkpt><trkpt lat="39.6337" lon="8.4871817"><ele>158.0</ele><time>2026-04-21T10:01:12.337Z</time></trkpt><trkpt lat="39.633705" lon="8.4873167"><ele>159.0</ele><time>2026-04-21T10:01:13.338Z</time></trkpt><trkpt lat="39.633705" lon="8.4874467"><ele>159.8</ele><time>2026-04-21T10:01:14.337Z</time></trkpt><trkpt lat="39.6337083" lon="8.4875733"><ele>160.60000000000002</ele><time>2026-04-21T10:01:15.338Z</time></trkpt><trkpt lat="39.6337183" lon="8.487705"><ele>161.4</ele><time>2026-04-21T10:01:16.338Z</time></trkpt><trkpt lat="39.633735" lon="8.487835"><ele>162.20000000000002</ele><time>2026-04-21T10:01:17.338Z</time></trkpt><trkpt lat="39.6337533" lon="8.4879683"><ele>163.0</ele><time>2026-04-21T10:01:18.338Z</time></trkpt><trkpt lat="39.633765" lon="8.488105"><ele>163.5</ele><time>2026-04-21T10:01:19.338Z</time></trkpt><trkpt lat="39.6337767" lon="8.4882217"><ele>164.0</ele><time>2026-04-21T10:01:20.337Z</time></trkpt><trkpt lat="39.6337933" lon="8.4883133"><ele>164.5</ele><time>2026-04-21T10:01:21.337Z</time></trkpt><trkpt lat="39.6338083" lon="8.4884"><ele>165.0</ele><time>2026-04-21T10:01:22.338Z</time></trkpt><trkpt lat="39.633835" lon="8.4884767"><ele>165.5</ele><time>2026-04-21T10:01:23.338Z</time></trkpt><trkpt lat="39.6338733" lon="8.4885567"><ele>166.0</ele><time>2026-04-21T10:01:24.337Z</time></trkpt><trkpt lat="39.6339217" lon="8.4886433"><ele>166.0</ele><time>2026-04-21T10:01:25.337Z</time></trkpt><trkpt lat="39.63397" lon="8.4887333"><ele>166.0</ele><time>2026-04-21T10:01:26.338Z</time></trkpt><trkpt lat="39.6340083" lon="8.4888333"><ele>166.0</ele><time>2026-04-21T10:01:27.338Z</time></trkpt><trkpt lat="39.6340417" lon="8.48894"><ele>166.0</ele><time>2026-04-21T10:01:28.338Z</time></trkpt><trkpt lat="39.6340717" lon="8.4890367"><ele>166.0</ele><time>2026-04-21T10:01:29.337Z</time></trkpt><trkpt lat="39.634105" lon="8.4891317"><ele>166.0</ele><time>2026-04-21T10:01:30.337Z</time></trkpt><trkpt lat="39.6341417" lon="8.4892083"><ele>166.0</ele><time>2026-04-21T10:01:31.338Z</time></trkpt><trkpt lat="39.6341833" lon="8.4892767"><ele>166.0</ele><time>2026-04-21T10:01:32.338Z</time></trkpt><trkpt lat="39.6342383" lon="8.48933"><ele>166.0</ele><time>2026-04-21T10:01:33.338Z</time></trkpt><trkpt lat="39.6342983" lon="8.4893717"><ele>166.0</ele><time>2026-04-21T10:01:34.338Z</time></trkpt><trkpt lat="39.63436" lon="8.4894033"><ele>166.0</ele><time>2026-04-21T10:01:35.337Z</time></trkpt><trkpt lat="39.634465" lon="8.4894783"><ele>166.0</ele><time>2026-04-21T10:01:37.337Z</time></trkpt><trkpt lat="39.6345317" lon="8.4895917"><ele>167.0</ele><time>2026-04-21T10:01:39.338Z</time></trkpt><trkpt lat="39.6346033" lon="8.4897"><ele>168.0</ele><time>2026-04-21T10:01:41.338Z</time></trkpt><trkpt lat="39.63472" lon="8.489755"><ele>169.0</ele><time>2026-04-21T10:01:43.337Z</time></trkpt><trkpt lat="39.63479" lon="8.489755"><ele>170.0</ele><time>2026-04-21T10:01:44.337Z</time></trkpt><trkpt lat="39.6348567" lon="8.4897567"><ele>171.0</ele><time>2026-04-21T10:01:45.337Z</time></trkpt><trkpt lat="39.63497" lon="8.489785"><ele>171.0</ele><time>2026-04-21T10:01:47.338Z</time></trkpt><trkpt lat="39.63509" lon="8.489855"><ele>171.0</ele><time>2026-04-21T10:01:49.337Z</time></trkpt><trkpt lat="39.6351517" lon="8.489915"><ele>171.0</ele><time>2026-04-21T10:01:50.338Z</time></trkpt><trkpt lat="39.635205" lon="8.48998"><ele>171.0</ele><time>2026-04-21T10:01:51.338Z</time></trkpt><trkpt lat="39.6352533" lon="8.4900517"><ele>171.0</ele><time>2026-04-21T10:01:52.338Z</time></trkpt><trkpt lat="39.635295" lon="8.4901283"><ele>171.0</ele><time>2026-04-21T10:01:53.337Z</time></trkpt><trkpt lat="39.635325" lon="8.4902133"><ele>172.0</ele><time>2026-04-21T10:01:54.338Z</time></trkpt><trkpt lat="39.6353483" lon="8.4903017"><ele>173.0</ele><time>2026-04-21T10:01:55.337Z</time></trkpt><trkpt lat="39.6353667" lon="8.4903817"><ele>174.0</ele><time>2026-04-21T10:01:56.338Z</time></trkpt><trkpt lat="39.6354083" lon="8.4905433"><ele>175.0</ele><time>2026-04-21T10:01:58.337Z</time></trkpt><trkpt lat="39.6354417" lon="8.49062"><ele>176.0</ele><time>2026-04-21T10:01:59.338Z</time></trkpt><trkpt lat="39.6354867" lon="8.4906867"><ele>177.0</ele><time>2026-04-21T10:02:00.338Z</time></trkpt><trkpt lat="39.6355433" lon="8.4907383"><ele>177.0</ele><time>2026-04-21T10:02:01.338Z</time></trkpt><trkpt lat="39.635595" lon="8.4907933"><ele>177.0</ele><time>2026-04-21T10:02:02.338Z</time></trkpt><trkpt lat="39.6356367" lon="8.4908583"><ele>177.0</ele><time>2026-04-21T10:02:03.338Z</time></trkpt><trkpt lat="39.6356617" lon="8.4909383"><ele>177.0</ele><time>2026-04-21T10:02:04.337Z</time></trkpt><trkpt lat="39.635685" lon="8.4910217"><ele>177.0</ele><time>2026-04-21T10:02:05.337Z</time></trkpt><trkpt lat="39.6357017" lon="8.4911083"><ele>177.0</ele><time>2026-04-21T10:02:06.337Z</time></trkpt><trkpt lat="39.6357133" lon="8.491195"><ele>177.0</ele><time>2026-04-21T10:02:07.338Z</time></trkpt><trkpt lat="39.6357267" lon="8.4912917"><ele>178.5</ele><time>2026-04-21T10:02:08.337Z</time></trkpt><trkpt lat="39.6357333" lon="8.4913817"><ele>180.0</ele><time>2026-04-21T10:02:09.337Z</time></trkpt><trkpt lat="39.635735" lon="8.4914817"><ele>181.5</ele><time>2026-04-21T10:02:10.338Z</time></trkpt><trkpt lat="39.6357367" lon="8.4915883"><ele>183.0</ele><time>2026-04-21T10:02:11.338Z</time></trkpt><trkpt lat="39.63573" lon="8.49169"><ele>184.5</ele><time>2026-04-21T10:02:12.337Z</time></trkpt><trkpt lat="39.635715" lon="8.4918"><ele>186.0</ele><time>2026-04-21T10:02:13.338Z</time></trkpt><trkpt lat="39.6356917" lon="8.49191"><ele>186.0</ele><time>2026-04-21T10:02:14.338Z</time></trkpt><trkpt lat="39.6356617" lon="8.492015"><ele>186.0</ele><time>2026-04-21T10:02:15.337Z</time></trkpt><trkpt lat="39.635625" lon="8.4921183"><ele>186.0</ele><time>2026-04-21T10:02:16.338Z</time></trkpt><trkpt lat="39.6355833" lon="8.492225"><ele>186.0</ele><time>2026-04-21T10:02:17.337Z</time></trkpt><trkpt lat="39.6355383" lon="8.492315"><ele>186.0</ele><time>2026-04-21T10:02:18.338Z</time></trkpt><trkpt lat="39.6354883" lon="8.4923883"><ele>186.0</ele><time>2026-04-21T10:02:19.337Z</time></trkpt><trkpt lat="39.6354333" lon="8.4924467"><ele>187.0</ele><time>2026-04-21T10:02:20.337Z</time></trkpt><trkpt lat="39.6353633" lon="8.4925517"><ele>188.0</ele><time>2026-04-21T10:02:22.337Z</time></trkpt><trkpt lat="39.6353417" lon="8.4926333"><ele>189.0</ele><time>2026-04-21T10:02:24.338Z</time></trkpt><trkpt lat="39.6353167" lon="8.4927533"><ele>190.0</ele><time>2026-04-21T10:02:27.338Z</time></trkpt><trkpt lat="39.6352733" lon="8.4928617"><ele>191.0</ele><time>2026-04-21T10:02:29.337Z</time></trkpt><trkpt lat="39.63525" lon="8.4929533"><ele>192.0</ele><time>2026-04-21T10:02:31.338Z</time></trkpt><trkpt lat="39.6352333" lon="8.4930483"><ele>193.16666666666666</ele><time>2026-04-21T10:02:34.337Z</time></trkpt><trkpt lat="39.6352267" lon="8.4931667"><ele>194.33333333333331</ele><time>2026-04-21T10:02:36.337Z</time></trkpt><trkpt lat="39.6352567" lon="8.4933083"><ele>195.5</ele><time>2026-04-21T10:02:38.338Z</time></trkpt><trkpt lat="39.6352733" lon="8.4934033"><ele>196.66666666666666</ele><time>2026-04-21T10:02:39.338Z</time></trkpt><trkpt lat="39.635285" lon="8.4935017"><ele>197.83333333333331</ele><time>2026-04-21T10:02:40.337Z</time></trkpt><trkpt lat="39.6352817" lon="8.4935967"><ele>199.0</ele><time>2026-04-21T10:02:41.337Z</time></trkpt><trkpt lat="39.63527" lon="8.4937033"><ele>200.33333333333331</ele><time>2026-04-21T10:02:42.338Z</time></trkpt><trkpt lat="39.6352567" lon="8.4938167"><ele>201.66666666666666</ele><time>2026-04-21T10:02:43.338Z</time></trkpt><trkpt lat="39.6352333" lon="8.4939217"><ele>203.0</ele><time>2026-04-21T10:02:44.337Z</time></trkpt><trkpt lat="39.6352083" lon="8.4940083"><ele>204.33333333333331</ele><time>2026-04-21T10:02:45.338Z</time></trkpt><trkpt lat="39.6351383" lon="8.4941467"><ele>205.66666666666666</ele><time>2026-04-21T10:02:47.337Z</time></trkpt><trkpt lat="39.6351017" lon="8.494235"><ele>207.0</ele><time>2026-04-21T10:02:48.338Z</time></trkpt><trkpt lat="39.635065" lon="8.4943317"><ele>207.00000000000003</ele><time>2026-04-21T10:02:49.337Z</time></trkpt><trkpt lat="39.63503" lon="8.4944217"><ele>207.0</ele><time>2026-04-21T10:02:50.337Z</time></trkpt><trkpt lat="39.6349983" lon="8.4944983"><ele>207.0</ele><time>2026-04-21T10:02:51.337Z</time></trkpt><trkpt lat="39.6349733" lon="8.4945783"><ele>207.0</ele><time>2026-04-21T10:02:52.337Z</time></trkpt><trkpt lat="39.6349633" lon="8.4946667"><ele>207.0</ele><time>2026-04-21T10:02:53.338Z</time></trkpt><trkpt lat="39.63496" lon="8.49477"><ele>207.00000000000003</ele><time>2026-04-21T10:02:54.338Z</time></trkpt><trkpt lat="39.634955" lon="8.4948717"><ele>207.0</ele><time>2026-04-21T10:02:55.338Z</time></trkpt><trkpt lat="39.63495" lon="8.4949617"><ele>207.8</ele><time>2026-04-21T10:02:56.338Z</time></trkpt><trkpt lat="39.6349433" lon="8.4951083"><ele>208.6</ele><time>2026-04-21T10:02:58.338Z</time></trkpt><trkpt lat="39.6349433" lon="8.4952283"><ele>209.4</ele><time>2026-04-21T10:03:01.338Z</time></trkpt><trkpt lat="39.6349567" lon="8.495355"><ele>210.20000000000002</ele><time>2026-04-21T10:03:03.338Z</time></trkpt><trkpt lat="39.6349717" lon="8.4954967"><ele>211.0</ele><time>2026-04-21T10:03:05.337Z</time></trkpt><trkpt lat="39.634985" lon="8.4956383"><ele>213.4</ele><time>2026-04-21T10:03:07.338Z</time></trkpt><trkpt lat="39.6350133" lon="8.4957733"><ele>215.8</ele><time>2026-04-21T10:03:09.338Z</time></trkpt><trkpt lat="39.6350783" lon="8.49585"><ele>218.20000000000002</ele><time>2026-04-21T10:03:11.337Z</time></trkpt><trkpt lat="39.6351567" lon="8.4959333"><ele>220.60000000000002</ele><time>2026-04-21T10:03:13.338Z</time></trkpt><trkpt lat="39.63523" lon="8.4960433"><ele>223.0</ele><time>2026-04-21T10:03:15.338Z</time></trkpt><trkpt lat="39.6352967" lon="8.49612"><ele>224.60000000000002</ele><time>2026-04-21T10:03:17.337Z</time></trkpt><trkpt lat="39.6353367" lon="8.4962"><ele>226.20000000000002</ele><time>2026-04-21T10:03:19.338Z</time></trkpt><trkpt lat="39.6353467" lon="8.4963283"><ele>227.8</ele><time>2026-04-21T10:03:21.337Z</time></trkpt><trkpt lat="39.6353117" lon="8.4964433"><ele>229.4</ele><time>2026-04-21T10:03:23.338Z</time></trkpt><trkpt lat="39.6352317" lon="8.496535"><ele>231.0</ele><time>2026-04-21T10:03:25.338Z</time></trkpt><trkpt lat="39.6351967" lon="8.4966333"><ele>231.0</ele><time>2026-04-21T10:03:27.338Z</time></trkpt><trkpt lat="39.635225" lon="8.4967267"><ele>231.0</ele><time>2026-04-21T10:03:29.337Z</time></trkpt><trkpt lat="39.635285" lon="8.496795"><ele>231.0</ele><time>2026-04-21T10:03:31.338Z</time></trkpt><trkpt lat="39.6353467" lon="8.496865"><ele>231.0</ele><time>2026-04-21T10:03:33.338Z</time></trkpt><trkpt lat="39.63537" lon="8.4969917"><ele>231.0</ele><time>2026-04-21T10:03:35.337Z</time></trkpt><trkpt lat="39.635435" lon="8.4971033"><ele>231.0</ele><time>2026-04-21T10:03:37.338Z</time></trkpt><trkpt lat="39.6354867" lon="8.4971933"><ele>233.60000000000002</ele><time>2026-04-21T10:03:39.338Z</time></trkpt><trkpt lat="39.63552" lon="8.4972833"><ele>236.20000000000002</ele><time>2026-04-21T10:03:41.337Z</time></trkpt><trkpt lat="39.6355383" lon="8.49738"><ele>238.79999999999998</ele><time>2026-04-21T10:03:43.337Z</time></trkpt><trkpt lat="39.6355483" lon="8.4975117"><ele>241.39999999999998</ele><time>2026-04-21T10:03:45.337Z</time></trkpt><trkpt lat="39.6355367" lon="8.49765"><ele>244.0</ele><time>2026-04-21T10:03:47.338Z</time></trkpt><trkpt lat="39.6354683" lon="8.49778"><ele>244.0</ele><time>2026-04-21T10:03:49.338Z</time></trkpt><trkpt lat="39.635375" lon="8.49786"><ele>243.99999999999997</ele><time>2026-04-21T10:03:51.337Z</time></trkpt><trkpt lat="39.6353167" lon="8.4979267"><ele>243.99999999999997</ele><time>2026-04-21T10:03:53.337Z</time></trkpt><trkpt lat="39.6353367" lon="8.4980333"><ele>244.0</ele><time>2026-04-21T10:03:55.337Z</time></trkpt><trkpt lat="39.6354033" lon="8.4981033"><ele>244.0</ele><time>2026-04-21T10:03:57.337Z</time></trkpt><trkpt lat="39.635485" lon="8.4981533"><ele>247.0</ele><time>2026-04-21T10:03:59.338Z</time></trkpt><trkpt lat="39.6355067" lon="8.498255"><ele>249.99999999999997</ele><time>2026-04-21T10:04:01.337Z</time></trkpt><trkpt lat="39.6354483" lon="8.498365"><ele>252.99999999999997</ele><time>2026-04-21T10:04:03.337Z</time></trkpt><trkpt lat="39.6353483" lon="8.4984417"><ele>256.0</ele><time>2026-04-21T10:04:05.337Z</time></trkpt><trkpt lat="39.6352517" lon="8.4985317"><ele>259.0</ele><time>2026-04-21T10:04:07.338Z</time></trkpt><trkpt lat="39.6351867" lon="8.4986167"><ele>259.0</ele><time>2026-04-21T10:04:09.338Z</time></trkpt><trkpt lat="39.6351383" lon="8.4987083"><ele>259.0</ele><time>2026-04-21T10:04:11.337Z</time></trkpt><trkpt lat="39.6351067" lon="8.4987867"><ele>259.0</ele><time>2026-04-21T10:04:13.337Z</time></trkpt><trkpt lat="39.6351133" lon="8.4988933"><ele>259.0</ele><time>2026-04-21T10:04:15.338Z</time></trkpt><trkpt lat="39.6351617" lon="8.49899"><ele>259.0</ele><time>2026-04-21T10:04:17.337Z</time></trkpt><trkpt lat="39.635205" lon="8.499115"><ele>259.0</ele><time>2026-04-21T10:04:19.338Z</time></trkpt><trkpt lat="39.6352233" lon="8.4992733"><ele>261.2</ele><time>2026-04-21T10:04:21.338Z</time></trkpt><trkpt lat="39.63526" lon="8.4994"><ele>263.4</ele><time>2026-04-21T10:04:23.338Z</time></trkpt><trkpt lat="39.635325" lon="8.49949"><ele>265.6</ele><time>2026-04-21T10:04:25.337Z</time></trkpt><trkpt lat="39.6353783" lon="8.4996167"><ele>267.8</ele><time>2026-04-21T10:04:27.337Z</time></trkpt><trkpt lat="39.6354067" lon="8.4996933"><ele>270.0</ele><time>2026-04-21T10:04:28.337Z</time></trkpt><trkpt lat="39.63544" lon="8.4997917"><ele>273.8</ele><time>2026-04-21T10:04:29.337Z</time></trkpt><trkpt lat="39.6354767" lon="8.4998917"><ele>277.6</ele><time>2026-04-21T10:04:30.337Z</time></trkpt><trkpt lat="39.63551" lon="8.499985"><ele>281.4</ele><time>2026-04-21T10:04:31.337Z</time></trkpt><trkpt lat="39.6355467" lon="8.5000617"><ele>285.2</ele><time>2026-04-21T10:04:32.338Z</time></trkpt><trkpt lat="39.6356" lon="8.5002067"><ele>289.0</ele><time>2026-04-21T10:04:34.337Z</time></trkpt><trkpt lat="39.635645" lon="8.500345"><ele>289.0</ele><time>2026-04-21T10:04:36.338Z</time></trkpt><trkpt lat="39.6356417" lon="8.50043"><ele>289.0</ele><time>2026-04-21T10:04:37.337Z</time></trkpt><trkpt lat="39.635625" lon="8.5005217"><ele>289.0</ele><time>2026-04-21T10:04:38.338Z</time></trkpt><trkpt lat="39.6356083" lon="8.5006133"><ele>289.0</ele><time>2026-04-21T10:04:39.338Z</time></trkpt><trkpt lat="39.635575" lon="8.5007017"><ele>289.0</ele><time>2026-04-21T10:04:40.338Z</time></trkpt><trkpt lat="39.6355367" lon="8.5007917"><ele>289.0</ele><time>2026-04-21T10:04:41.338Z</time></trkpt><trkpt lat="39.63548" lon="8.5008717"><ele>289.0</ele><time>2026-04-21T10:04:42.338Z</time></trkpt><trkpt lat="39.6354183" lon="8.5009467"><ele>289.0</ele><time>2026-04-21T10:04:43.338Z</time></trkpt><trkpt lat="39.6353467" lon="8.501005"><ele>289.0</ele><time>2026-04-21T10:04:44.338Z</time></trkpt><trkpt lat="39.6352867" lon="8.50105"><ele>289.0</ele><time>2026-04-21T10:04:45.338Z</time></trkpt><trkpt lat="39.63523" lon="8.5011"><ele>289.0</ele><time>2026-04-21T10:04:46.337Z</time></trkpt><trkpt lat="39.6351817" lon="8.501165"><ele>289.0</ele><time>2026-04-21T10:04:47.338Z</time></trkpt><trkpt lat="39.63514" lon="8.501245"><ele>289.0</ele><time>2026-04-21T10:04:48.337Z</time></trkpt><trkpt lat="39.6351067" lon="8.5013367"><ele>289.0</ele><time>2026-04-21T10:04:49.338Z</time></trkpt><trkpt lat="39.6350783" lon="8.501425"><ele>291.59999999999997</ele><time>2026-04-21T10:04:50.337Z</time></trkpt><trkpt lat="39.6350517" lon="8.5015133"><ele>294.2</ele><time>2026-04-21T10:04:51.338Z</time></trkpt><trkpt lat="39.6350483" lon="8.501675"><ele>296.79999999999995</ele><time>2026-04-21T10:04:53.338Z</time></trkpt><trkpt lat="39.63505" lon="8.501805"><ele>299.4</ele><time>2026-04-21T10:04:55.338Z</time></trkpt><trkpt lat="39.634985" lon="8.5018817"><ele>302.0</ele><time>2026-04-21T10:04:57.337Z</time></trkpt><trkpt lat="39.6349267" lon="8.5019183"><ele>302.0</ele><time>2026-04-21T10:04:58.338Z</time></trkpt><trkpt lat="39.6348633" lon="8.5019683"><ele>302.0</ele><time>2026-04-21T10:04:59.337Z</time></trkpt><trkpt lat="39.6348" lon="8.502035"><ele>302.0</ele><time>2026-04-21T10:05:00.338Z</time></trkpt><trkpt lat="39.6347383" lon="8.50209"><ele>302.0</ele><time>2026-04-21T10:05:01.338Z</time></trkpt><trkpt lat="39.6346783" lon="8.50214"><ele>302.0</ele><time>2026-04-21T10:05:02.337Z</time></trkpt><trkpt lat="39.6346217" lon="8.5022067"><ele>302.0</ele><time>2026-04-21T10:05:03.338Z</time></trkpt><trkpt lat="39.6345633" lon="8.5022817"><ele>301.83333333333337</ele><time>2026-04-21T10:05:04.338Z</time></trkpt><trkpt lat="39.634505" lon="8.5023683"><ele>301.6666666666667</ele><time>2026-04-21T10:05:05.337Z</time></trkpt><trkpt lat="39.6344533" lon="8.5024567"><ele>301.5</ele><time>2026-04-21T10:05:06.337Z</time></trkpt><trkpt lat="39.634405" lon="8.50255"><ele>301.3333333333333</ele><time>2026-04-21T10:05:07.337Z</time></trkpt><trkpt lat="39.6343567" lon="8.5026383"><ele>301.16666666666663</ele><time>2026-04-21T10:05:08.338Z</time></trkpt><trkpt lat="39.6342933" lon="8.5027117"><ele>301.0</ele><time>2026-04-21T10:05:09.337Z</time></trkpt><trkpt lat="39.63423" lon="8.5027933"><ele>301.0</ele><time>2026-04-21T10:05:10.338Z</time></trkpt><trkpt lat="39.63417" lon="8.5028783"><ele>301.0</ele><time>2026-04-21T10:05:11.338Z</time></trkpt><trkpt lat="39.6341117" lon="8.502965"><ele>301.0</ele><time>2026-04-21T10:05:12.337Z</time></trkpt><trkpt lat="39.63405" lon="8.50304"><ele>301.0</ele><time>2026-04-21T10:05:13.338Z</time></trkpt><trkpt lat="39.6339883" lon="8.5030967"><ele>301.0</ele><time>2026-04-21T10:05:14.337Z</time></trkpt><trkpt lat="39.6339317" lon="8.50314"><ele>301.0</ele><time>2026-04-21T10:05:15.338Z</time></trkpt><trkpt lat="39.6338633" lon="8.50321"><ele>300.16666666666663</ele><time>2026-04-21T10:05:17.337Z</time></trkpt><trkpt lat="39.6338067" lon="8.5032817"><ele>299.3333333333333</ele><time>2026-04-21T10:05:19.338Z</time></trkpt><trkpt lat="39.6337233" lon="8.50335"><ele>298.5</ele><time>2026-04-21T10:05:21.337Z</time></trkpt><trkpt lat="39.633665" lon="8.503385"><ele>297.6666666666667</ele><time>2026-04-21T10:05:22.338Z</time></trkpt><trkpt lat="39.6336017" lon="8.503415"><ele>296.83333333333337</ele><time>2026-04-21T10:05:23.338Z</time></trkpt><trkpt lat="39.633535" lon="8.5034467"><ele>296.0</ele><time>2026-04-21T10:05:24.338Z</time></trkpt><trkpt lat="39.6334617" lon="8.5034783"><ele>296.0</ele><time>2026-04-21T10:05:25.338Z</time></trkpt><trkpt lat="39.6333967" lon="8.5035017"><ele>296.0</ele><time>2026-04-21T10:05:26.337Z</time></trkpt><trkpt lat="39.6332933" lon="8.5035333"><ele>296.0</ele><time>2026-04-21T10:05:28.337Z</time></trkpt><trkpt lat="39.63323" lon="8.503555"><ele>296.0</ele><time>2026-04-21T10:05:29.337Z</time></trkpt><trkpt lat="39.63316" lon="8.503575"><ele>296.0</ele><time>2026-04-21T10:05:30.337Z</time></trkpt><trkpt lat="39.6330833" lon="8.5035883"><ele>296.0</ele><time>2026-04-21T10:05:31.338Z</time></trkpt><trkpt lat="39.6330083" lon="8.503605"><ele>296.0</ele><time>2026-04-21T10:05:32.337Z</time></trkpt><trkpt lat="39.6329367" lon="8.5036267"><ele>296.0</ele><time>2026-04-21T10:05:33.337Z</time></trkpt><trkpt lat="39.632875" lon="8.50365"><ele>296.0</ele><time>2026-04-21T10:05:34.337Z</time></trkpt><trkpt lat="39.63282" lon="8.5036933"><ele>296.0</ele><time>2026-04-21T10:05:35.338Z</time></trkpt><trkpt lat="39.63276" lon="8.5037517"><ele>296.0</ele><time>2026-04-21T10:05:36.338Z</time></trkpt><trkpt lat="39.6326933" lon="8.5038067"><ele>296.0</ele><time>2026-04-21T10:05:37.338Z</time></trkpt><trkpt lat="39.63261" lon="8.50386"><ele>296.0</ele><time>2026-04-21T10:05:38.337Z</time></trkpt><trkpt lat="39.6325133" lon="8.5039233"><ele>297.8</ele><time>2026-04-21T10:05:39.337Z</time></trkpt><trkpt lat="39.63242" lon="8.503985"><ele>299.6</ele><time>2026-04-21T10:05:40.338Z</time></trkpt><trkpt lat="39.6323283" lon="8.50405"><ele>301.4</ele><time>2026-04-21T10:05:41.337Z</time></trkpt><trkpt lat="39.6322433" lon="8.50411"><ele>303.2</ele><time>2026-04-21T10:05:42.337Z</time></trkpt><trkpt lat="39.6321617" lon="8.5041683"><ele>305.0</ele><time>2026-04-21T10:05:43.338Z</time></trkpt><trkpt lat="39.63208" lon="8.5042183"><ele>305.0</ele><time>2026-04-21T10:05:44.338Z</time></trkpt><trkpt lat="39.631995" lon="8.5042683"><ele>305.0</ele><time>2026-04-21T10:05:45.338Z</time></trkpt><trkpt lat="39.6319033" lon="8.5043233"><ele>305.0</ele><time>2026-04-21T10:05:46.337Z</time></trkpt><trkpt lat="39.631815" lon="8.5043667"><ele>305.0</ele><time>2026-04-21T10:05:47.338Z</time></trkpt><trkpt lat="39.6317283" lon="8.5044067"><ele>305.0</ele><time>2026-04-21T10:05:48.338Z</time></trkpt><trkpt lat="39.6316383" lon="8.5044533"><ele>304.5</ele><time>2026-04-21T10:05:49.338Z</time></trkpt><trkpt lat="39.63155" lon="8.5045133"><ele>304.0</ele><time>2026-04-21T10:05:50.338Z</time></trkpt><trkpt lat="39.6314717" lon="8.5045883"><ele>303.5</ele><time>2026-04-21T10:05:51.337Z</time></trkpt><trkpt lat="39.6314017" lon="8.50464"><ele>303.0</ele><time>2026-04-21T10:05:52.337Z</time></trkpt><trkpt lat="39.631335" lon="8.5046767"><ele>302.5</ele><time>2026-04-21T10:05:53.338Z</time></trkpt><trkpt lat="39.6312633" lon="8.50471"><ele>302.0</ele><time>2026-04-21T10:05:54.337Z</time></trkpt><trkpt lat="39.631195" lon="8.5047583"><ele>303.28571428571433</ele><time>2026-04-21T10:05:55.337Z</time></trkpt><trkpt lat="39.6311367" lon="8.5048217"><ele>304.57142857142856</ele><time>2026-04-21T10:05:56.338Z</time></trkpt><trkpt lat="39.6310867" lon="8.5048833"><ele>305.8571428571429</ele><time>2026-04-21T10:05:57.338Z</time></trkpt><trkpt lat="39.63103" lon="8.5049283"><ele>307.14285714285717</ele><time>2026-04-21T10:05:58.337Z</time></trkpt><trkpt lat="39.6309617" lon="8.5049533"><ele>308.42857142857144</ele><time>2026-04-21T10:05:59.338Z</time></trkpt><trkpt lat="39.630895" lon="8.50496"><ele>309.7142857142857</ele><time>2026-04-21T10:06:00.337Z</time></trkpt><trkpt lat="39.630825" lon="8.5049683"><ele>311.0</ele><time>2026-04-21T10:06:01.338Z</time></trkpt><trkpt lat="39.630755" lon="8.5049817"><ele>311.0</ele><time>2026-04-21T10:06:02.337Z</time></trkpt><trkpt lat="39.630685" lon="8.5050083"><ele>311.0</ele><time>2026-04-21T10:06:03.337Z</time></trkpt><trkpt lat="39.63062" lon="8.5050417"><ele>311.0</ele><time>2026-04-21T10:06:04.338Z</time></trkpt><trkpt lat="39.6305067" lon="8.5051083"><ele>311.0</ele><time>2026-04-21T10:06:06.337Z</time></trkpt><trkpt lat="39.63044" lon="8.50513"><ele>311.0</ele><time>2026-04-21T10:06:07.338Z</time></trkpt><trkpt lat="39.6303717" lon="8.505145"><ele>311.0</ele><time>2026-04-21T10:06:08.337Z</time></trkpt><trkpt lat="39.63031" lon="8.5051717"><ele>311.5</ele><time>2026-04-21T10:06:09.336Z</time></trkpt><trkpt lat="39.630245" lon="8.5052133"><ele>312.0</ele><time>2026-04-21T10:06:10.336Z</time></trkpt><trkpt lat="39.63017" lon="8.5052683"><ele>312.5</ele><time>2026-04-21T10:06:11.336Z</time></trkpt><trkpt lat="39.630095" lon="8.50533"><ele>313.0</ele><time>2026-04-21T10:06:12.337Z</time></trkpt><trkpt lat="39.6300283" lon="8.5053967"><ele>313.5</ele><time>2026-04-21T10:06:13.337Z</time></trkpt><trkpt lat="39.6299617" lon="8.5054733"><ele>314.0</ele><time>2026-04-21T10:06:14.337Z</time></trkpt><trkpt lat="39.629895" lon="8.5055333"><ele>314.0</ele><time>2026-04-21T10:06:15.337Z</time></trkpt><trkpt lat="39.6298367" lon="8.5055883"><ele>314.0</ele><time>2026-04-21T10:06:16.336Z</time></trkpt><trkpt lat="39.6297583" lon="8.50569"><ele>314.0</ele><time>2026-04-21T10:06:18.337Z</time></trkpt><trkpt lat="39.6297217" lon="8.5057567"><ele>314.0</ele><time>2026-04-21T10:06:19.336Z</time></trkpt><trkpt lat="39.62969" lon="8.505835"><ele>314.0</ele><time>2026-04-21T10:06:20.336Z</time></trkpt><trkpt lat="39.62965" lon="8.5059233"><ele>314.0</ele><time>2026-04-21T10:06:21.336Z</time></trkpt><trkpt lat="39.6296083" lon="8.5059933"><ele>314.0</ele><time>2026-04-21T10:06:22.336Z</time></trkpt><trkpt lat="39.6295333" lon="8.5061017"><ele>314.0</ele><time>2026-04-21T10:06:24.337Z</time></trkpt><trkpt lat="39.6294483" lon="8.5062133"><ele>314.0</ele><time>2026-04-21T10:06:26.337Z</time></trkpt><trkpt lat="39.629405" lon="8.5062733"><ele>314.0</ele><time>2026-04-21T10:06:27.337Z</time></trkpt><trkpt lat="39.6293233" lon="8.5063733"><ele>314.0</ele><time>2026-04-21T10:06:29.337Z</time></trkpt><trkpt lat="39.6292617" lon="8.5065317"><ele>312.1666666666667</ele><time>2026-04-21T10:06:31.336Z</time></trkpt><trkpt lat="39.6292267" lon="8.50664"><ele>310.33333333333337</ele><time>2026-04-21T10:06:32.337Z</time></trkpt><trkpt lat="39.6291983" lon="8.5067533"><ele>308.5</ele><time>2026-04-21T10:06:33.336Z</time></trkpt><trkpt lat="39.629175" lon="8.5068533"><ele>306.6666666666667</ele><time>2026-04-21T10:06:34.337Z</time></trkpt><trkpt lat="39.629155" lon="8.5069467"><ele>304.8333333333333</ele><time>2026-04-21T10:06:35.336Z</time></trkpt><trkpt lat="39.6291517" lon="8.5070483"><ele>303.0</ele><time>2026-04-21T10:06:36.337Z</time></trkpt><trkpt lat="39.62916" lon="8.5071617"><ele>303.0</ele><time>2026-04-21T10:06:37.337Z</time></trkpt><trkpt lat="39.6291733" lon="8.5072867"><ele>303.0</ele><time>2026-04-21T10:06:38.337Z</time></trkpt><trkpt lat="39.62918" lon="8.5074133"><ele>303.0</ele><time>2026-04-21T10:06:39.337Z</time></trkpt><trkpt lat="39.6291917" lon="8.5075383"><ele>303.0</ele><time>2026-04-21T10:06:40.336Z</time></trkpt><trkpt lat="39.6292067" lon="8.5076617"><ele>303.0</ele><time>2026-04-21T10:06:41.337Z</time></trkpt><trkpt lat="39.6292183" lon="8.507785"><ele>303.0</ele><time>2026-04-21T10:06:42.337Z</time></trkpt><trkpt lat="39.6292217" lon="8.5078883"><ele>303.0</ele><time>2026-04-21T10:06:43.336Z</time></trkpt><trkpt lat="39.6292083" lon="8.5080383"><ele>303.0</ele><time>2026-04-21T10:06:45.336Z</time></trkpt><trkpt lat="39.6291333" lon="8.50815"><ele>303.0</ele><time>2026-04-21T10:06:47.337Z</time></trkpt><trkpt lat="39.629075" lon="8.5081867"><ele>303.0</ele><time>2026-04-21T10:06:48.337Z</time></trkpt><trkpt lat="39.6290067" lon="8.5082167"><ele>303.0</ele><time>2026-04-21T10:06:49.336Z</time></trkpt><trkpt lat="39.6289333" lon="8.5082467"><ele>303.1666666666667</ele><time>2026-04-21T10:06:50.337Z</time></trkpt><trkpt lat="39.6288783" lon="8.5082883"><ele>303.3333333333333</ele><time>2026-04-21T10:06:51.337Z</time></trkpt><trkpt lat="39.6288017" lon="8.5083833"><ele>303.5</ele><time>2026-04-21T10:06:53.336Z</time></trkpt><trkpt lat="39.6287283" lon="8.5084333"><ele>303.66666666666663</ele><time>2026-04-21T10:06:55.337Z</time></trkpt><trkpt lat="39.6286317" lon="8.50843"><ele>303.8333333333333</ele><time>2026-04-21T10:06:58.337Z</time></trkpt><trkpt lat="39.6285667" lon="8.50845"><ele>304.0</ele><time>2026-04-21T10:07:00.336Z</time></trkpt><trkpt lat="39.628505" lon="8.5085017"><ele>304.0</ele><time>2026-04-21T10:07:02.337Z</time></trkpt><trkpt lat="39.62845" lon="8.5085633"><ele>304.0</ele><time>2026-04-21T10:07:04.336Z</time></trkpt><trkpt lat="39.6284133" lon="8.5086517"><ele>304.0</ele><time>2026-04-21T10:07:06.337Z</time></trkpt><trkpt lat="39.6283517" lon="8.5087267"><ele>304.0</ele><time>2026-04-21T10:07:19.336Z</time></trkpt><trkpt lat="39.6283317" lon="8.508845"><ele>304.0</ele><time>2026-04-21T10:26:35.333Z</time></trkpt><trkpt lat="39.6282767" lon="8.508925"><ele>304.0</ele><time>2026-04-21T10:26:37.334Z</time></trkpt><trkpt lat="39.6282" lon="8.5089667"><ele>304.0</ele><time>2026-04-21T10:26:39.334Z</time></trkpt><trkpt lat="39.6281117" lon="8.5089567"><ele>304.0</ele><time>2026-04-21T10:26:41.333Z</time></trkpt><trkpt lat="39.6280317" lon="8.5089283"><ele>304.0</ele><time>2026-04-21T10:26:43.334Z</time></trkpt><trkpt lat="39.6279633" lon="8.5088483"><ele>304.0</ele><time>2026-04-21T10:26:45.334Z</time></trkpt><trkpt lat="39.627905" lon="8.5086933"><ele>304.0</ele><time>2026-04-21T10:26:47.334Z</time></trkpt><trkpt lat="39.6278633" lon="8.5085667"><ele>303.0</ele><time>2026-04-21T10:26:49.334Z</time></trkpt><trkpt lat="39.627805" lon="8.5085167"><ele>302.0</ele><time>2026-04-21T10:26:51.334Z</time></trkpt><trkpt lat="39.62773" lon="8.5085217"><ele>301.0</ele><time>2026-04-21T10:26:53.333Z</time></trkpt><trkpt lat="39.6276467" lon="8.5085883"><ele>300.0</ele><time>2026-04-21T10:26:55.333Z</time></trkpt><trkpt lat="39.6275867" lon="8.5086767"><ele>299.0</ele><time>2026-04-21T10:26:57.334Z</time></trkpt><trkpt lat="39.62755" lon="8.50877"><ele>298.0</ele><time>2026-04-21T10:26:59.333Z</time></trkpt><trkpt lat="39.6275183" lon="8.5088683"><ele>298.0</ele><time>2026-04-21T10:27:01.334Z</time></trkpt><trkpt lat="39.6274917" lon="8.5089717"><ele>298.0</ele><time>2026-04-21T10:27:03.334Z</time></trkpt><trkpt lat="39.6274417" lon="8.5090667"><ele>298.0</ele><time>2026-04-21T10:27:05.334Z</time></trkpt><trkpt lat="39.627355" lon="8.5091267"><ele>298.0</ele><time>2026-04-21T10:27:07.334Z</time></trkpt><trkpt lat="39.6272633" lon="8.5092033"><ele>298.0</ele><time>2026-04-21T10:27:09.334Z</time></trkpt><trkpt lat="39.627185" lon="8.5092867"><ele>298.0</ele><time>2026-04-21T10:27:11.333Z</time></trkpt><trkpt lat="39.6270967" lon="8.509355"><ele>298.0</ele><time>2026-04-21T10:27:13.333Z</time></trkpt><trkpt lat="39.6269833" lon="8.50937"><ele>298.0</ele><time>2026-04-21T10:27:15.334Z</time></trkpt><trkpt lat="39.6268733" lon="8.5093433"><ele>298.0</ele><time>2026-04-21T10:27:17.334Z</time></trkpt><trkpt lat="39.626745" lon="8.5093"><ele>296.8</ele><time>2026-04-21T10:27:19.334Z</time></trkpt><trkpt lat="39.6266683" lon="8.5092767"><ele>295.6</ele><time>2026-04-21T10:27:20.334Z</time></trkpt><trkpt lat="39.6265767" lon="8.5092633"><ele>294.4</ele><time>2026-04-21T10:27:21.333Z</time></trkpt><trkpt lat="39.62647" lon="8.5092633"><ele>293.2</ele><time>2026-04-21T10:27:22.333Z</time></trkpt><trkpt lat="39.6263533" lon="8.50928"><ele>292.0</ele><time>2026-04-21T10:27:23.333Z</time></trkpt><trkpt lat="39.626245" lon="8.5093167"><ele>290.6</ele><time>2026-04-21T10:27:24.334Z</time></trkpt><trkpt lat="39.6261417" lon="8.50935"><ele>289.2</ele><time>2026-04-21T10:27:25.333Z</time></trkpt><trkpt lat="39.6260483" lon="8.5093883"><ele>287.8</ele><time>2026-04-21T10:27:26.334Z</time></trkpt><trkpt lat="39.6259533" lon="8.50942"><ele>286.4</ele><time>2026-04-21T10:27:27.334Z</time></trkpt><trkpt lat="39.6258633" lon="8.50945"><ele>285.0</ele><time>2026-04-21T10:27:28.333Z</time></trkpt><trkpt lat="39.6257733" lon="8.5094833"><ele>285.0</ele><time>2026-04-21T10:27:29.334Z</time></trkpt><trkpt lat="39.6256883" lon="8.50952"><ele>285.0</ele><time>2026-04-21T10:27:30.334Z</time></trkpt><trkpt lat="39.6256083" lon="8.5095817"><ele>285.0</ele><time>2026-04-21T10:27:31.334Z</time></trkpt><trkpt lat="39.6255383" lon="8.5096517"><ele>285.0</ele><time>2026-04-21T10:27:32.334Z</time></trkpt><trkpt lat="39.62548" lon="8.5097333"><ele>285.0</ele><time>2026-04-21T10:27:33.334Z</time></trkpt><trkpt lat="39.6254317" lon="8.5098317"><ele>285.0</ele><time>2026-04-21T10:27:34.333Z</time></trkpt><trkpt lat="39.6253917" lon="8.509935"><ele>285.3333333333333</ele><time>2026-04-21T10:27:35.333Z</time></trkpt><trkpt lat="39.6253483" lon="8.5100317"><ele>285.6666666666667</ele><time>2026-04-21T10:27:36.334Z</time></trkpt><trkpt lat="39.625305" lon="8.510125"><ele>286.0</ele><time>2026-04-21T10:27:37.333Z</time></trkpt><trkpt lat="39.6252533" lon="8.5102133"><ele>286.33333333333337</ele><time>2026-04-21T10:27:38.333Z</time></trkpt><trkpt lat="39.62519" lon="8.510285"><ele>286.6666666666667</ele><time>2026-04-21T10:27:39.333Z</time></trkpt><trkpt lat="39.6251183" lon="8.5103383"><ele>287.0</ele><time>2026-04-21T10:27:40.333Z</time></trkpt><trkpt lat="39.6250367" lon="8.510395"><ele>285.6</ele><time>2026-04-21T10:27:41.334Z</time></trkpt><trkpt lat="39.624955" lon="8.5104583"><ele>284.2</ele><time>2026-04-21T10:27:42.333Z</time></trkpt><trkpt lat="39.6248717" lon="8.5105283"><ele>282.8</ele><time>2026-04-21T10:27:43.333Z</time></trkpt><trkpt lat="39.624795" lon="8.510605"><ele>281.4</ele><time>2026-04-21T10:27:44.334Z</time></trkpt><trkpt lat="39.6247233" lon="8.5106883"><ele>280.0</ele><time>2026-04-21T10:27:45.333Z</time></trkpt><trkpt lat="39.6246567" lon="8.51078"><ele>280.0</ele><time>2026-04-21T10:27:46.334Z</time></trkpt><trkpt lat="39.6246" lon="8.5108833"><ele>280.0</ele><time>2026-04-21T10:27:47.334Z</time></trkpt><trkpt lat="39.6245483" lon="8.5109983"><ele>280.0</ele><time>2026-04-21T10:27:48.333Z</time></trkpt><trkpt lat="39.624505" lon="8.511115"><ele>280.0</ele><time>2026-04-21T10:27:49.334Z</time></trkpt><trkpt lat="39.6244667" lon="8.5112283"><ele>280.0</ele><time>2026-04-21T10:27:50.334Z</time></trkpt><trkpt lat="39.6244383" lon="8.5113433"><ele>277.16666666666663</ele><time>2026-04-21T10:27:51.334Z</time></trkpt><trkpt lat="39.6244133" lon="8.5114467"><ele>274.3333333333333</ele><time>2026-04-21T10:27:52.334Z</time></trkpt><trkpt lat="39.62438" lon="8.5115417"><ele>271.5</ele><time>2026-04-21T10:27:53.334Z</time></trkpt><trkpt lat="39.6243367" lon="8.5116217"><ele>268.6666666666667</ele><time>2026-04-21T10:27:54.333Z</time></trkpt><trkpt lat="39.6242783" lon="8.5116633"><ele>265.83333333333337</ele><time>2026-04-21T10:27:55.334Z</time></trkpt><trkpt lat="39.6242133" lon="8.5116833"><ele>263.0</ele><time>2026-04-21T10:27:56.334Z</time></trkpt><trkpt lat="39.6241267" lon="8.5116817"><ele>263.0</ele><time>2026-04-21T10:27:57.334Z</time></trkpt><trkpt lat="39.624045" lon="8.511685"><ele>263.0</ele><time>2026-04-21T10:27:58.334Z</time></trkpt><trkpt lat="39.6239783" lon="8.5116967"><ele>263.0</ele><time>2026-04-21T10:27:59.333Z</time></trkpt><trkpt lat="39.6238783" lon="8.5116817"><ele>263.0</ele><time>2026-04-21T10:28:01.333Z</time></trkpt><trkpt lat="39.623855" lon="8.5115533"><ele>263.0</ele><time>2026-04-21T10:28:03.334Z</time></trkpt><trkpt lat="39.6238817" lon="8.5114433"><ele>263.0</ele><time>2026-04-21T10:28:04.333Z</time></trkpt><trkpt lat="39.6239017" lon="8.51132"><ele>261.6666666666667</ele><time>2026-04-21T10:28:05.333Z</time></trkpt><trkpt lat="39.62391" lon="8.5112"><ele>260.33333333333337</ele><time>2026-04-21T10:28:06.333Z</time></trkpt><trkpt lat="39.6239183" lon="8.511085"><ele>259.0</ele><time>2026-04-21T10:28:07.334Z</time></trkpt><trkpt lat="39.6239283" lon="8.51097"><ele>257.6666666666667</ele><time>2026-04-21T10:28:08.333Z</time></trkpt><trkpt lat="39.623945" lon="8.5108717"><ele>256.3333333333333</ele><time>2026-04-21T10:28:09.334Z</time></trkpt><trkpt lat="39.6239533" lon="8.5107867"><ele>255.0</ele><time>2026-04-21T10:28:10.334Z</time></trkpt><trkpt lat="39.6239383" lon="8.5106783"><ele>255.0</ele><time>2026-04-21T10:28:12.334Z</time></trkpt><trkpt lat="39.623865" lon="8.5107017"><ele>255.0</ele><time>2026-04-21T10:28:14.333Z</time></trkpt><trkpt lat="39.6238183" lon="8.5107717"><ele>255.0</ele><time>2026-04-21T10:28:15.334Z</time></trkpt><trkpt lat="39.6237767" lon="8.5108533"><ele>255.0</ele><time>2026-04-21T10:28:16.334Z</time></trkpt><trkpt lat="39.623725" lon="8.51094"><ele>255.0</ele><time>2026-04-21T10:28:17.333Z</time></trkpt><trkpt lat="39.6236683" lon="8.5110217"><ele>255.0</ele><time>2026-04-21T10:28:18.334Z</time></trkpt><trkpt lat="39.6235983" lon="8.51109"><ele>253.8</ele><time>2026-04-21T10:28:19.334Z</time></trkpt><trkpt lat="39.62353" lon="8.5111383"><ele>252.6</ele><time>2026-04-21T10:28:20.334Z</time></trkpt><trkpt lat="39.62345" lon="8.51119"><ele>251.39999999999998</ele><time>2026-04-21T10:28:21.333Z</time></trkpt><trkpt lat="39.6233567" lon="8.51124"><ele>250.2</ele><time>2026-04-21T10:28:22.334Z</time></trkpt><trkpt lat="39.623255" lon="8.51129"><ele>249.0</ele><time>2026-04-21T10:28:23.333Z</time></trkpt><trkpt lat="39.62316" lon="8.511335"><ele>249.0</ele><time>2026-04-21T10:28:24.334Z</time></trkpt><trkpt lat="39.623065" lon="8.5113733"><ele>248.99999999999997</ele><time>2026-04-21T10:28:25.334Z</time></trkpt><trkpt lat="39.622975" lon="8.5114117"><ele>248.99999999999997</ele><time>2026-04-21T10:28:26.333Z</time></trkpt><trkpt lat="39.6228867" lon="8.51145"><ele>249.0</ele><time>2026-04-21T10:28:27.334Z</time></trkpt><trkpt lat="39.6228017" lon="8.511495"><ele>249.0</ele><time>2026-04-21T10:28:28.334Z</time></trkpt><trkpt lat="39.6227217" lon="8.5115517"><ele>244.39999999999998</ele><time>2026-04-21T10:28:29.333Z</time></trkpt><trkpt lat="39.6226433" lon="8.5116167"><ele>239.79999999999998</ele><time>2026-04-21T10:28:30.334Z</time></trkpt><trkpt lat="39.6225717" lon="8.51169"><ele>235.20000000000002</ele><time>2026-04-21T10:28:31.333Z</time></trkpt><trkpt lat="39.6225033" lon="8.5117683"><ele>230.60000000000002</ele><time>2026-04-21T10:28:32.333Z</time></trkpt><trkpt lat="39.6224333" lon="8.5118333"><ele>226.0</ele><time>2026-04-21T10:28:33.334Z</time></trkpt><trkpt lat="39.6223583" lon="8.5119033"><ele>226.0</ele><time>2026-04-21T10:28:34.334Z</time></trkpt><trkpt lat="39.622285" lon="8.5119733"><ele>226.00000000000003</ele><time>2026-04-21T10:28:35.334Z</time></trkpt><trkpt lat="39.6222217" lon="8.51206"><ele>226.00000000000003</ele><time>2026-04-21T10:28:36.334Z</time></trkpt><trkpt lat="39.6221683" lon="8.512165"><ele>226.0</ele><time>2026-04-21T10:28:37.333Z</time></trkpt><trkpt lat="39.6221167" lon="8.5122733"><ele>226.0</ele><time>2026-04-21T10:28:38.333Z</time></trkpt><trkpt lat="39.622065" lon="8.512385"><ele>224.60000000000002</ele><time>2026-04-21T10:28:39.334Z</time></trkpt><trkpt lat="39.6220133" lon="8.512495"><ele>223.20000000000002</ele><time>2026-04-21T10:28:40.333Z</time></trkpt><trkpt lat="39.6219633" lon="8.5126"><ele>221.79999999999998</ele><time>2026-04-21T10:28:41.334Z</time></trkpt><trkpt lat="39.6219067" lon="8.5126967"><ele>220.39999999999998</ele><time>2026-04-21T10:28:42.333Z</time></trkpt><trkpt lat="39.6218617" lon="8.5128033"><ele>219.0</ele><time>2026-04-21T10:28:43.333Z</time></trkpt><trkpt lat="39.621815" lon="8.5129117"><ele>219.0</ele><time>2026-04-21T10:28:44.333Z</time></trkpt><trkpt lat="39.621765" lon="8.5130183"><ele>218.99999999999997</ele><time>2026-04-21T10:28:45.334Z</time></trkpt><trkpt lat="39.62171" lon="8.51312"><ele>218.99999999999997</ele><time>2026-04-21T10:28:46.334Z</time></trkpt><trkpt lat="39.6216433" lon="8.513205"><ele>219.0</ele><time>2026-04-21T10:28:47.333Z</time></trkpt><trkpt lat="39.6215783" lon="8.5132833"><ele>219.0</ele><time>2026-04-21T10:28:48.333Z</time></trkpt><trkpt lat="39.62151" lon="8.513365"><ele>219.0</ele><time>2026-04-21T10:28:49.333Z</time></trkpt><trkpt lat="39.6214467" lon="8.51345"><ele>218.99999999999997</ele><time>2026-04-21T10:28:50.334Z</time></trkpt><trkpt lat="39.6213867" lon="8.5135383"><ele>218.99999999999997</ele><time>2026-04-21T10:28:51.333Z</time></trkpt><trkpt lat="39.6213367" lon="8.513635"><ele>219.0</ele><time>2026-04-21T10:28:52.334Z</time></trkpt><trkpt lat="39.62129" lon="8.5137383"><ele>219.0</ele><time>2026-04-21T10:28:53.334Z</time></trkpt><trkpt lat="39.6212417" lon="8.513835"><ele>218.5</ele><time>2026-04-21T10:28:54.334Z</time></trkpt><trkpt lat="39.6211917" lon="8.5139183"><ele>218.0</ele><time>2026-04-21T10:28:55.334Z</time></trkpt><trkpt lat="39.62115" lon="8.513995"><ele>217.5</ele><time>2026-04-21T10:28:56.334Z</time></trkpt><trkpt lat="39.6210717" lon="8.5140817"><ele>217.0</ele><time>2026-04-21T10:28:58.334Z</time></trkpt><trkpt lat="39.621" lon="8.5140583"><ele>216.5</ele><time>2026-04-21T10:29:00.334Z</time></trkpt><trkpt lat="39.62096" lon="8.5139433"><ele>216.0</ele><time>2026-04-21T10:29:02.333Z</time></trkpt><trkpt lat="39.6209417" lon="8.5137667"><ele>215.60000000000002</ele><time>2026-04-21T10:29:04.333Z</time></trkpt><trkpt lat="39.6209283" lon="8.51365"><ele>215.20000000000002</ele><time>2026-04-21T10:29:05.333Z</time></trkpt><trkpt lat="39.6209083" lon="8.513525"><ele>214.79999999999998</ele><time>2026-04-21T10:29:06.333Z</time></trkpt><trkpt lat="39.6208917" lon="8.5134033"><ele>214.39999999999998</ele><time>2026-04-21T10:29:07.333Z</time></trkpt><trkpt lat="39.62087" lon="8.51329"><ele>214.0</ele><time>2026-04-21T10:29:08.332Z</time></trkpt><trkpt lat="39.6208383" lon="8.5131933"><ele>213.99999999999997</ele><time>2026-04-21T10:29:09.333Z</time></trkpt><trkpt lat="39.6208" lon="8.5131"><ele>214.0</ele><time>2026-04-21T10:29:10.333Z</time></trkpt><trkpt lat="39.620745" lon="8.5130083"><ele>214.0</ele><time>2026-04-21T10:29:11.333Z</time></trkpt><trkpt lat="39.6206833" lon="8.5129183"><ele>214.0</ele><time>2026-04-21T10:29:12.333Z</time></trkpt><trkpt lat="39.6206283" lon="8.5128217"><ele>213.99999999999997</ele><time>2026-04-21T10:29:13.333Z</time></trkpt><trkpt lat="39.620575" lon="8.512725"><ele>214.0</ele><time>2026-04-21T10:29:14.332Z</time></trkpt><trkpt lat="39.620535" lon="8.5126267"><ele>212.2</ele><time>2026-04-21T10:29:15.333Z</time></trkpt><trkpt lat="39.6204967" lon="8.51252"><ele>210.39999999999998</ele><time>2026-04-21T10:29:16.332Z</time></trkpt><trkpt lat="39.62046" lon="8.5124033"><ele>208.6</ele><time>2026-04-21T10:29:17.332Z</time></trkpt><trkpt lat="39.6204267" lon="8.5122783"><ele>206.8</ele><time>2026-04-21T10:29:18.332Z</time></trkpt><trkpt lat="39.6203933" lon="8.512155"><ele>205.0</ele><time>2026-04-21T10:29:19.333Z</time></trkpt><trkpt lat="39.6203633" lon="8.51203"><ele>204.8</ele><time>2026-04-21T10:29:20.333Z</time></trkpt><trkpt lat="39.6203367" lon="8.5119"><ele>204.6</ele><time>2026-04-21T10:29:21.332Z</time></trkpt><trkpt lat="39.6203117" lon="8.511765"><ele>204.39999999999998</ele><time>2026-04-21T10:29:22.333Z</time></trkpt><trkpt lat="39.6202833" lon="8.511635"><ele>204.2</ele><time>2026-04-21T10:29:23.332Z</time></trkpt><trkpt lat="39.6202467" lon="8.5115133"><ele>204.0</ele><time>2026-04-21T10:29:24.333Z</time></trkpt><trkpt lat="39.620215" lon="8.5113983"><ele>207.83333333333334</ele><time>2026-04-21T10:29:25.333Z</time></trkpt><trkpt lat="39.620175" lon="8.511295"><ele>211.66666666666669</ele><time>2026-04-21T10:29:26.332Z</time></trkpt><trkpt lat="39.620135" lon="8.5111917"><ele>215.5</ele><time>2026-04-21T10:29:27.333Z</time></trkpt><trkpt lat="39.6200917" lon="8.5111067"><ele>219.33333333333334</ele><time>2026-04-21T10:29:28.333Z</time></trkpt><trkpt lat="39.6200617" lon="8.5110217"><ele>223.16666666666669</ele><time>2026-04-21T10:29:29.333Z</time></trkpt><trkpt lat="39.6200417" lon="8.5109433"><ele>227.0</ele><time>2026-04-21T10:29:30.332Z</time></trkpt><trkpt lat="39.620015" lon="8.51082"><ele>227.00000000000003</ele><time>2026-04-21T10:29:32.332Z</time></trkpt><trkpt lat="39.6199533" lon="8.510785"><ele>227.0</ele><time>2026-04-21T10:29:34.332Z</time></trkpt><trkpt lat="39.619905" lon="8.510865"><ele>227.0</ele><time>2026-04-21T10:29:36.332Z</time></trkpt><trkpt lat="39.61993" lon="8.5110133"><ele>227.0</ele><time>2026-04-21T10:29:38.333Z</time></trkpt><trkpt lat="39.61995" lon="8.511105"><ele>227.00000000000003</ele><time>2026-04-21T10:29:39.332Z</time></trkpt><trkpt lat="39.6199683" lon="8.5112"><ele>227.0</ele><time>2026-04-21T10:29:40.333Z</time></trkpt><trkpt lat="39.6199883" lon="8.5113083"><ele>228.33333333333334</ele><time>2026-04-21T10:29:41.333Z</time></trkpt><trkpt lat="39.6200017" lon="8.5114267"><ele>229.66666666666669</ele><time>2026-04-21T10:29:42.332Z</time></trkpt><trkpt lat="39.620015" lon="8.5115483"><ele>231.0</ele><time>2026-04-21T10:29:43.333Z</time></trkpt><trkpt lat="39.62002" lon="8.5116517"><ele>232.33333333333331</ele><time>2026-04-21T10:29:44.332Z</time></trkpt><trkpt lat="39.6200217" lon="8.5117483"><ele>233.66666666666666</ele><time>2026-04-21T10:29:45.332Z</time></trkpt><trkpt lat="39.620015" lon="8.5118333"><ele>235.0</ele><time>2026-04-21T10:29:46.332Z</time></trkpt><trkpt lat="39.62" lon="8.511925"><ele>234.99999999999997</ele><time>2026-04-21T10:29:47.333Z</time></trkpt><trkpt lat="39.619975" lon="8.5120167"><ele>235.0</ele><time>2026-04-21T10:29:48.333Z</time></trkpt><trkpt lat="39.6199467" lon="8.5121167"><ele>235.0</ele><time>2026-04-21T10:29:49.332Z</time></trkpt><trkpt lat="39.619915" lon="8.512225"><ele>235.0</ele><time>2026-04-21T10:29:50.333Z</time></trkpt><trkpt lat="39.6198783" lon="8.512335"><ele>234.99999999999997</ele><time>2026-04-21T10:29:51.332Z</time></trkpt><trkpt lat="39.619845" lon="8.5124417"><ele>235.0</ele><time>2026-04-21T10:29:52.333Z</time></trkpt><trkpt lat="39.61982" lon="8.5125483"><ele>234.99999999999997</ele><time>2026-04-21T10:29:53.333Z</time></trkpt><trkpt lat="39.6197983" lon="8.512665"><ele>235.0</ele><time>2026-04-21T10:29:54.332Z</time></trkpt><trkpt lat="39.6197883" lon="8.5127767"><ele>235.0</ele><time>2026-04-21T10:29:55.333Z</time></trkpt><trkpt lat="39.6197883" lon="8.5128883"><ele>235.0</ele><time>2026-04-21T10:29:56.333Z</time></trkpt><trkpt lat="39.6197983" lon="8.5130033"><ele>234.99999999999997</ele><time>2026-04-21T10:29:57.332Z</time></trkpt><trkpt lat="39.619815" lon="8.513105"><ele>235.0</ele><time>2026-04-21T10:29:58.332Z</time></trkpt><trkpt lat="39.619835" lon="8.5132"><ele>235.0</ele><time>2026-04-21T10:29:59.332Z</time></trkpt><trkpt lat="39.6198317" lon="8.5133467"><ele>235.0</ele><time>2026-04-21T10:30:01.333Z</time></trkpt><trkpt lat="39.6197667" lon="8.51345"><ele>235.0</ele><time>2026-04-21T10:30:03.333Z</time></trkpt><trkpt lat="39.6196833" lon="8.5134183"><ele>235.0</ele><time>2026-04-21T10:30:05.332Z</time></trkpt><trkpt lat="39.619645" lon="8.5132583"><ele>235.0</ele><time>2026-04-21T10:30:07.333Z</time></trkpt><trkpt lat="39.61964" lon="8.513155"><ele>234.99999999999997</ele><time>2026-04-21T10:30:08.332Z</time></trkpt><trkpt lat="39.6196333" lon="8.5130467"><ele>235.0</ele><time>2026-04-21T10:30:09.333Z</time></trkpt><trkpt lat="39.61962" lon="8.5129367"><ele>235.0</ele><time>2026-04-21T10:30:10.333Z</time></trkpt><trkpt lat="39.6196017" lon="8.512825"><ele>235.0</ele><time>2026-04-21T10:30:11.332Z</time></trkpt><trkpt lat="39.6195783" lon="8.51271"><ele>234.99999999999997</ele><time>2026-04-21T10:30:12.333Z</time></trkpt><trkpt lat="39.6195583" lon="8.5126"><ele>235.0</ele><time>2026-04-21T10:30:13.333Z</time></trkpt><trkpt lat="39.61955" lon="8.5124933"><ele>234.99999999999997</ele><time>2026-04-21T10:30:14.332Z</time></trkpt><trkpt lat="39.6195483" lon="8.5123933"><ele>235.0</ele><time>2026-04-21T10:30:15.332Z</time></trkpt><trkpt lat="39.6195567" lon="8.5122917"><ele>235.0</ele><time>2026-04-21T10:30:16.332Z</time></trkpt><trkpt lat="39.61957" lon="8.5121933"><ele>235.0</ele><time>2026-04-21T10:30:17.333Z</time></trkpt><trkpt lat="39.619585" lon="8.5120983"><ele>234.99999999999997</ele><time>2026-04-21T10:30:18.333Z</time></trkpt><trkpt lat="39.6196017" lon="8.5119983"><ele>235.0</ele><time>2026-04-21T10:30:19.333Z</time></trkpt><trkpt lat="39.6196083" lon="8.5118967"><ele>234.99999999999997</ele><time>2026-04-21T10:30:20.332Z</time></trkpt><trkpt lat="39.6196" lon="8.511795"><ele>235.0</ele><time>2026-04-21T10:30:21.333Z</time></trkpt><trkpt lat="39.6195767" lon="8.5116933"><ele>235.0</ele><time>2026-04-21T10:30:22.333Z</time></trkpt><trkpt lat="39.6195433" lon="8.511585"><ele>235.0</ele><time>2026-04-21T10:30:23.333Z</time></trkpt><trkpt lat="39.61951" lon="8.511475"><ele>234.99999999999997</ele><time>2026-04-21T10:30:24.332Z</time></trkpt><trkpt lat="39.6194717" lon="8.5113683"><ele>235.0</ele><time>2026-04-21T10:30:25.332Z</time></trkpt><trkpt lat="39.6194283" lon="8.511275"><ele>237.49999999999997</ele><time>2026-04-21T10:30:26.332Z</time></trkpt><trkpt lat="39.61937" lon="8.511195"><ele>240.0</ele><time>2026-04-21T10:30:27.333Z</time></trkpt><trkpt lat="39.6193083" lon="8.5111367"><ele>242.5</ele><time>2026-04-21T10:30:28.333Z</time></trkpt><trkpt lat="39.619245" lon="8.5110983"><ele>245.0</ele><time>2026-04-21T10:30:29.332Z</time></trkpt><trkpt lat="39.6191717" lon="8.5110833"><ele>247.49999999999997</ele><time>2026-04-21T10:30:30.332Z</time></trkpt><trkpt lat="39.6191017" lon="8.511095"><ele>250.0</ele><time>2026-04-21T10:30:31.332Z</time></trkpt><trkpt lat="39.6190267" lon="8.5111233"><ele>249.99999999999997</ele><time>2026-04-21T10:30:32.332Z</time></trkpt><trkpt lat="39.6189533" lon="8.511165"><ele>250.0</ele><time>2026-04-21T10:30:33.333Z</time></trkpt><trkpt lat="39.6188717" lon="8.5112033"><ele>250.0</ele><time>2026-04-21T10:30:34.332Z</time></trkpt><trkpt lat="39.6187917" lon="8.5112317"><ele>250.0</ele><time>2026-04-21T10:30:35.332Z</time></trkpt><trkpt lat="39.6187083" lon="8.5112483"><ele>249.99999999999997</ele><time>2026-04-21T10:30:36.333Z</time></trkpt><trkpt lat="39.6186283" lon="8.5112517"><ele>250.0</ele><time>2026-04-21T10:30:37.332Z</time></trkpt><trkpt lat="39.6185433" lon="8.511255"><ele>254.2</ele><time>2026-04-21T10:30:38.332Z</time></trkpt><trkpt lat="39.6184567" lon="8.5112617"><ele>258.4</ele><time>2026-04-21T10:30:39.333Z</time></trkpt><trkpt lat="39.6183667" lon="8.5112767"><ele>262.6</ele><time>2026-04-21T10:30:40.333Z</time></trkpt><trkpt lat="39.61827" lon="8.5113"><ele>266.8</ele><time>2026-04-21T10:30:41.332Z</time></trkpt><trkpt lat="39.6181733" lon="8.5113283"><ele>271.0</ele><time>2026-04-21T10:30:42.333Z</time></trkpt><trkpt lat="39.6180717" lon="8.5113567"><ele>271.0</ele><time>2026-04-21T10:30:43.332Z</time></trkpt><trkpt lat="39.6179733" lon="8.5113833"><ele>271.0</ele><time>2026-04-21T10:30:44.333Z</time></trkpt><trkpt lat="39.617875" lon="8.5114133"><ele>271.0</ele><time>2026-04-21T10:30:45.332Z</time></trkpt><trkpt lat="39.61777" lon="8.5114533"><ele>271.0</ele><time>2026-04-21T10:30:46.332Z</time></trkpt><trkpt lat="39.61767" lon="8.5114917"><ele>271.0</ele><time>2026-04-21T10:30:47.333Z</time></trkpt><trkpt lat="39.6175717" lon="8.5115383"><ele>271.2</ele><time>2026-04-21T10:30:48.333Z</time></trkpt><trkpt lat="39.61748" lon="8.5115933"><ele>271.40000000000003</ele><time>2026-04-21T10:30:49.333Z</time></trkpt><trkpt lat="39.617385" lon="8.5116383"><ele>271.6</ele><time>2026-04-21T10:30:50.333Z</time></trkpt><trkpt lat="39.6172917" lon="8.511665"><ele>271.8</ele><time>2026-04-21T10:30:51.333Z</time></trkpt><trkpt lat="39.6172067" lon="8.5116783"><ele>272.0</ele><time>2026-04-21T10:30:52.332Z</time></trkpt><trkpt lat="39.6171167" lon="8.5116983"><ele>272.0</ele><time>2026-04-21T10:30:53.333Z</time></trkpt><trkpt lat="39.6170367" lon="8.511725"><ele>272.0</ele><time>2026-04-21T10:30:54.332Z</time></trkpt><trkpt lat="39.6169633" lon="8.5117617"><ele>272.0</ele><time>2026-04-21T10:30:55.332Z</time></trkpt><trkpt lat="39.6168867" lon="8.5118083"><ele>272.0</ele><time>2026-04-21T10:30:56.332Z</time></trkpt><trkpt lat="39.616805" lon="8.511865"><ele>272.0</ele><time>2026-04-21T10:30:57.332Z</time></trkpt><trkpt lat="39.6167283" lon="8.5119233"><ele>272.0</ele><time>2026-04-21T10:30:58.333Z</time></trkpt><trkpt lat="39.61666" lon="8.5119883"><ele>271.33333333333337</ele><time>2026-04-21T10:30:59.333Z</time></trkpt><trkpt lat="39.6165967" lon="8.5120583"><ele>270.6666666666667</ele><time>2026-04-21T10:31:00.333Z</time></trkpt><trkpt lat="39.6165367" lon="8.5121333"><ele>270.0</ele><time>2026-04-21T10:31:01.332Z</time></trkpt><trkpt lat="39.616475" lon="8.5122033"><ele>269.3333333333333</ele><time>2026-04-21T10:31:02.332Z</time></trkpt><trkpt lat="39.6164083" lon="8.512255"><ele>268.66666666666663</ele><time>2026-04-21T10:31:03.333Z</time></trkpt><trkpt lat="39.6163433" lon="8.5122933"><ele>268.0</ele><time>2026-04-21T10:31:04.333Z</time></trkpt><trkpt lat="39.6162767" lon="8.512315"><ele>272.3333333333333</ele><time>2026-04-21T10:31:05.333Z</time></trkpt><trkpt lat="39.6162067" lon="8.51231"><ele>276.66666666666663</ele><time>2026-04-21T10:31:06.332Z</time></trkpt><trkpt lat="39.616135" lon="8.5122883"><ele>281.0</ele><time>2026-04-21T10:31:07.333Z</time></trkpt><trkpt lat="39.6160517" lon="8.51226"><ele>285.3333333333333</ele><time>2026-04-21T10:31:08.332Z</time></trkpt><trkpt lat="39.615965" lon="8.51223"><ele>289.6666666666667</ele><time>2026-04-21T10:31:09.333Z</time></trkpt><trkpt lat="39.6158783" lon="8.512195"><ele>294.0</ele><time>2026-04-21T10:31:10.333Z</time></trkpt><trkpt lat="39.6157883" lon="8.5121667"><ele>294.0</ele><time>2026-04-21T10:31:11.333Z</time></trkpt><trkpt lat="39.6156967" lon="8.5121483"><ele>294.0</ele><time>2026-04-21T10:31:12.333Z</time></trkpt><trkpt lat="39.6155983" lon="8.512135"><ele>294.0</ele><time>2026-04-21T10:31:13.332Z</time></trkpt><trkpt lat="39.6154883" lon="8.5121267"><ele>294.0</ele><time>2026-04-21T10:31:14.333Z</time></trkpt><trkpt lat="39.6153717" lon="8.5121283"><ele>294.0</ele><time>2026-04-21T10:31:15.333Z</time></trkpt><trkpt lat="39.615255" lon="8.512125"><ele>295.8</ele><time>2026-04-21T10:31:16.333Z</time></trkpt><trkpt lat="39.6151433" lon="8.5121333"><ele>297.59999999999997</ele><time>2026-04-21T10:31:17.332Z</time></trkpt><trkpt lat="39.6150317" lon="8.512145"><ele>299.4</ele><time>2026-04-21T10:31:18.332Z</time></trkpt><trkpt lat="39.6149233" lon="8.5121667"><ele>301.2</ele><time>2026-04-21T10:31:19.332Z</time></trkpt><trkpt lat="39.6148233" lon="8.5121917"><ele>303.0</ele><time>2026-04-21T10:31:20.333Z</time></trkpt><trkpt lat="39.6147133" lon="8.5122267"><ele>303.0</ele><time>2026-04-21T10:31:21.333Z</time></trkpt><trkpt lat="39.61461" lon="8.51225"><ele>303.0</ele><time>2026-04-21T10:31:22.332Z</time></trkpt><trkpt lat="39.6145117" lon="8.5122833"><ele>303.0</ele><time>2026-04-21T10:31:23.333Z</time></trkpt><trkpt lat="39.6144283" lon="8.5123267"><ele>303.0</ele><time>2026-04-21T10:31:24.332Z</time></trkpt><trkpt lat="39.6143483" lon="8.5123833"><ele>303.0</ele><time>2026-04-21T10:31:25.333Z</time></trkpt><trkpt lat="39.6142767" lon="8.5124533"><ele>302.2</ele><time>2026-04-21T10:31:26.333Z</time></trkpt><trkpt lat="39.614205" lon="8.5125433"><ele>301.4</ele><time>2026-04-21T10:31:27.332Z</time></trkpt><trkpt lat="39.6141383" lon="8.5126367"><ele>300.59999999999997</ele><time>2026-04-21T10:31:28.332Z</time></trkpt><trkpt lat="39.6140733" lon="8.5127383"><ele>299.8</ele><time>2026-04-21T10:31:29.332Z</time></trkpt><trkpt lat="39.6140133" lon="8.5128367"><ele>299.0</ele><time>2026-04-21T10:31:30.332Z</time></trkpt><trkpt lat="39.613955" lon="8.512925"><ele>301.0</ele><time>2026-04-21T10:31:31.333Z</time></trkpt><trkpt lat="39.61389" lon="8.5129967"><ele>303.0</ele><time>2026-04-21T10:31:32.333Z</time></trkpt><trkpt lat="39.6138283" lon="8.51305"><ele>305.0</ele><time>2026-04-21T10:31:33.333Z</time></trkpt><trkpt lat="39.6137617" lon="8.5130833"><ele>307.0</ele><time>2026-04-21T10:31:34.333Z</time></trkpt><trkpt lat="39.6136967" lon="8.513085"><ele>309.0</ele><time>2026-04-21T10:31:35.333Z</time></trkpt><trkpt lat="39.6136283" lon="8.513065"><ele>311.0</ele><time>2026-04-21T10:31:36.333Z</time></trkpt><trkpt lat="39.61355" lon="8.5130367"><ele>313.0</ele><time>2026-04-21T10:31:37.333Z</time></trkpt><trkpt lat="39.6134783" lon="8.5130183"><ele>313.0</ele><time>2026-04-21T10:31:38.332Z</time></trkpt><trkpt lat="39.6134133" lon="8.5129983"><ele>313.0</ele><time>2026-04-21T10:31:39.332Z</time></trkpt><trkpt lat="39.6132917" lon="8.51298"><ele>313.0</ele><time>2026-04-21T10:31:41.333Z</time></trkpt><trkpt lat="39.6132217" lon="8.512975"><ele>313.0</ele><time>2026-04-21T10:31:42.333Z</time></trkpt><trkpt lat="39.6131483" lon="8.5129567"><ele>313.0</ele><time>2026-04-21T10:31:43.332Z</time></trkpt><trkpt lat="39.6130767" lon="8.512945"><ele>313.0</ele><time>2026-04-21T10:31:44.332Z</time></trkpt><trkpt lat="39.6130117" lon="8.51294"><ele>313.0</ele><time>2026-04-21T10:31:45.332Z</time></trkpt><trkpt lat="39.6129483" lon="8.5129383"><ele>313.0</ele><time>2026-04-21T10:31:46.332Z</time></trkpt><trkpt lat="39.612885" lon="8.5129433"><ele>313.0</ele><time>2026-04-21T10:31:47.332Z</time></trkpt><trkpt lat="39.6128217" lon="8.51296"><ele>313.0</ele><time>2026-04-21T10:31:48.332Z</time></trkpt><trkpt lat="39.61276" lon="8.512985"><ele>313.0</ele><time>2026-04-21T10:31:49.332Z</time></trkpt><trkpt lat="39.6126517" lon="8.513065"><ele>313.0</ele><time>2026-04-21T10:31:51.332Z</time></trkpt><trkpt lat="39.6126017" lon="8.5131283"><ele>312.0</ele><time>2026-04-21T10:31:52.333Z</time></trkpt><trkpt lat="39.6125433" lon="8.5132017"><ele>311.0</ele><time>2026-04-21T10:31:53.332Z</time></trkpt><trkpt lat="39.6124783" lon="8.5132867"><ele>310.0</ele><time>2026-04-21T10:31:54.333Z</time></trkpt><trkpt lat="39.6124083" lon="8.5133883"><ele>309.0</ele><time>2026-04-21T10:31:55.333Z</time></trkpt><trkpt lat="39.6123383" lon="8.5134883"><ele>308.0</ele><time>2026-04-21T10:31:56.332Z</time></trkpt><trkpt lat="39.6122667" lon="8.5135933"><ele>308.0</ele><time>2026-04-21T10:31:57.332Z</time></trkpt><trkpt lat="39.61219" lon="8.5136983"><ele>308.0</ele><time>2026-04-21T10:31:58.332Z</time></trkpt><trkpt lat="39.6121183" lon="8.5138"><ele>308.0</ele><time>2026-04-21T10:31:59.332Z</time></trkpt><trkpt lat="39.6120483" lon="8.5139033"><ele>308.0</ele><time>2026-04-21T10:32:00.332Z</time></trkpt><trkpt lat="39.6119733" lon="8.51399"><ele>308.0</ele><time>2026-04-21T10:32:01.332Z</time></trkpt><trkpt lat="39.61191" lon="8.514075"><ele>307.6666666666667</ele><time>2026-04-21T10:32:02.333Z</time></trkpt><trkpt lat="39.6118433" lon="8.5141567"><ele>307.33333333333337</ele><time>2026-04-21T10:32:03.333Z</time></trkpt><trkpt lat="39.6117783" lon="8.5142267"><ele>307.0</ele><time>2026-04-21T10:32:04.332Z</time></trkpt><trkpt lat="39.6117083" lon="8.5142867"><ele>306.6666666666667</ele><time>2026-04-21T10:32:05.333Z</time></trkpt><trkpt lat="39.6116267" lon="8.5143333"><ele>306.3333333333333</ele><time>2026-04-21T10:32:06.332Z</time></trkpt><trkpt lat="39.6115417" lon="8.51439"><ele>306.0</ele><time>2026-04-21T10:32:07.332Z</time></trkpt><trkpt lat="39.6114567" lon="8.51444"><ele>306.0</ele><time>2026-04-21T10:32:08.333Z</time></trkpt><trkpt lat="39.6113817" lon="8.5144833"><ele>306.0</ele><time>2026-04-21T10:32:09.332Z</time></trkpt><trkpt lat="39.6113067" lon="8.5145333"><ele>306.0</ele><time>2026-04-21T10:32:10.332Z</time></trkpt><trkpt lat="39.611225" lon="8.5145783"><ele>306.0</ele><time>2026-04-21T10:32:11.332Z</time></trkpt><trkpt lat="39.61114" lon="8.51462"><ele>306.0</ele><time>2026-04-21T10:32:12.332Z</time></trkpt><trkpt lat="39.6110533" lon="8.5146717"><ele>306.0</ele><time>2026-04-21T10:32:13.332Z</time></trkpt><trkpt lat="39.6109783" lon="8.5147317"><ele>304.2</ele><time>2026-04-21T10:32:14.333Z</time></trkpt><trkpt lat="39.6109017" lon="8.5147983"><ele>302.40000000000003</ele><time>2026-04-21T10:32:15.333Z</time></trkpt><trkpt lat="39.6108267" lon="8.5148767"><ele>300.6</ele><time>2026-04-21T10:32:16.332Z</time></trkpt><trkpt lat="39.61075" lon="8.5149517"><ele>298.8</ele><time>2026-04-21T10:32:17.332Z</time></trkpt><trkpt lat="39.6106767" lon="8.5150267"><ele>297.0</ele><time>2026-04-21T10:32:18.333Z</time></trkpt><trkpt lat="39.610605" lon="8.5150883"><ele>297.0</ele><time>2026-04-21T10:32:19.332Z</time></trkpt><trkpt lat="39.6105333" lon="8.5151433"><ele>297.0</ele><time>2026-04-21T10:32:20.333Z</time></trkpt><trkpt lat="39.6104683" lon="8.5152017"><ele>297.0</ele><time>2026-04-21T10:32:21.333Z</time></trkpt><trkpt lat="39.6104017" lon="8.5152633"><ele>297.0</ele><time>2026-04-21T10:32:22.333Z</time></trkpt><trkpt lat="39.61033" lon="8.5153317"><ele>297.0</ele><time>2026-04-21T10:32:23.332Z</time></trkpt><trkpt lat="39.61027" lon="8.5153883"><ele>297.0</ele><time>2026-04-21T10:32:24.332Z</time></trkpt><trkpt lat="39.610205" lon="8.5154417"><ele>294.6</ele><time>2026-04-21T10:32:25.333Z</time></trkpt><trkpt lat="39.6101183" lon="8.5155233"><ele>292.2</ele><time>2026-04-21T10:32:27.333Z</time></trkpt><trkpt lat="39.610055" lon="8.51562"><ele>289.8</ele><time>2026-04-21T10:32:29.333Z</time></trkpt><trkpt lat="39.6100567" lon="8.515745"><ele>287.4</ele><time>2026-04-21T10:32:32.332Z</time></trkpt><trkpt lat="39.6101367" lon="8.5158517"><ele>285.0</ele><time>2026-04-21T10:32:34.333Z</time></trkpt><trkpt lat="39.6101883" lon="8.5159183"><ele>285.0</ele><time>2026-04-21T10:32:35.332Z</time></trkpt><trkpt lat="39.610225" lon="8.516"><ele>285.0</ele><time>2026-04-21T10:32:36.332Z</time></trkpt><trkpt lat="39.61026" lon="8.5161183"><ele>285.0</ele><time>2026-04-21T10:32:37.333Z</time></trkpt><trkpt lat="39.61028" lon="8.5162633"><ele>285.0</ele><time>2026-04-21T10:32:38.332Z</time></trkpt><trkpt lat="39.6102633" lon="8.51643"><ele>285.0</ele><time>2026-04-21T10:32:39.333Z</time></trkpt><trkpt lat="39.610235" lon="8.51661"><ele>283.75</ele><time>2026-04-21T10:32:40.333Z</time></trkpt><trkpt lat="39.6102033" lon="8.5168"><ele>282.5</ele><time>2026-04-21T10:32:41.332Z</time></trkpt><trkpt lat="39.6101733" lon="8.516985"><ele>281.25</ele><time>2026-04-21T10:32:42.333Z</time></trkpt><trkpt lat="39.61014" lon="8.517165"><ele>280.0</ele><time>2026-04-21T10:32:43.332Z</time></trkpt><trkpt lat="39.6100833" lon="8.5173333"><ele>280.0</ele><time>2026-04-21T10:32:44.332Z</time></trkpt><trkpt lat="39.6100017" lon="8.51748"><ele>280.0</ele><time>2026-04-21T10:32:45.333Z</time></trkpt><trkpt lat="39.60992" lon="8.517645"><ele>280.0</ele><time>2026-04-21T10:32:46.333Z</time></trkpt><trkpt lat="39.6098467" lon="8.5178283"><ele>281.25</ele><time>2026-04-21T10:32:47.333Z</time></trkpt><trkpt lat="39.60979" lon="8.5180133"><ele>282.5</ele><time>2026-04-21T10:32:48.333Z</time></trkpt><trkpt lat="39.6097533" lon="8.5181833"><ele>283.75</ele><time>2026-04-21T10:32:49.333Z</time></trkpt><trkpt lat="39.6097267" lon="8.5183417"><ele>285.0</ele><time>2026-04-21T10:32:50.333Z</time></trkpt><trkpt lat="39.6097167" lon="8.51851"><ele>285.0</ele><time>2026-04-21T10:32:51.333Z</time></trkpt><trkpt lat="39.6097383" lon="8.518695"><ele>285.0</ele><time>2026-04-21T10:32:52.333Z</time></trkpt><trkpt lat="39.6097867" lon="8.518885"><ele>285.0</ele><time>2026-04-21T10:32:53.333Z</time></trkpt><trkpt lat="39.6098483" lon="8.51908"><ele>283.3333333333333</ele><time>2026-04-21T10:32:54.333Z</time></trkpt><trkpt lat="39.60991" lon="8.519285"><ele>281.66666666666663</ele><time>2026-04-21T10:32:55.333Z</time></trkpt><trkpt lat="39.6099783" lon="8.5195"><ele>280.0</ele><time>2026-04-21T10:32:56.332Z</time></trkpt><trkpt lat="39.6100633" lon="8.5197217"><ele>277.0</ele><time>2026-04-21T10:32:57.332Z</time></trkpt><trkpt lat="39.6101533" lon="8.5199367"><ele>274.0</ele><time>2026-04-21T10:32:58.333Z</time></trkpt><trkpt lat="39.6102433" lon="8.5201417"><ele>271.0</ele><time>2026-04-21T10:32:59.332Z</time></trkpt><trkpt lat="39.6103183" lon="8.5203233"><ele>274.5</ele><time>2026-04-21T10:33:00.332Z</time></trkpt><trkpt lat="39.610385" lon="8.520485"><ele>278.0</ele><time>2026-04-21T10:33:01.333Z</time></trkpt><trkpt lat="39.6104483" lon="8.5206283"><ele>281.5</ele><time>2026-04-21T10:33:02.332Z</time></trkpt><trkpt lat="39.6105" lon="8.5207533"><ele>285.0</ele><time>2026-04-21T10:33:03.333Z</time></trkpt><trkpt lat="39.6105317" lon="8.5208667"><ele>285.0</ele><time>2026-04-21T10:33:04.333Z</time></trkpt><trkpt lat="39.6105317" lon="8.5209817"><ele>285.0</ele><time>2026-04-21T10:33:05.333Z</time></trkpt><trkpt lat="39.6104933" lon="8.521085"><ele>285.0</ele><time>2026-04-21T10:33:06.333Z</time></trkpt><trkpt lat="39.6104267" lon="8.521185"><ele>285.0</ele><time>2026-04-21T10:33:07.332Z</time></trkpt><trkpt lat="39.6103283" lon="8.5212767"><ele>285.0</ele><time>2026-04-21T10:33:08.333Z</time></trkpt><trkpt lat="39.6101867" lon="8.521365"><ele>283.5</ele><time>2026-04-21T10:33:09.332Z</time></trkpt><trkpt lat="39.6100567" lon="8.5214667"><ele>282.0</ele><time>2026-04-21T10:33:10.333Z</time></trkpt><trkpt lat="39.6099517" lon="8.521555"><ele>280.5</ele><time>2026-04-21T10:33:11.332Z</time></trkpt><trkpt lat="39.6098617" lon="8.521635"><ele>279.0</ele><time>2026-04-21T10:33:12.332Z</time></trkpt><trkpt lat="39.6097917" lon="8.52173"><ele>279.0</ele><time>2026-04-21T10:33:13.333Z</time></trkpt><trkpt lat="39.609735" lon="8.5218483"><ele>279.0</ele><time>2026-04-21T10:33:14.333Z</time></trkpt><trkpt lat="39.60969" lon="8.5219733"><ele>279.0</ele><time>2026-04-21T10:33:15.332Z</time></trkpt><trkpt lat="39.609645" lon="8.5220933"><ele>279.0</ele><time>2026-04-21T10:33:16.333Z</time></trkpt><trkpt lat="39.6095833" lon="8.5221733"><ele>279.0</ele><time>2026-04-21T10:33:17.332Z</time></trkpt><trkpt lat="39.609495" lon="8.522215"><ele>277.5</ele><time>2026-04-21T10:33:18.332Z</time></trkpt><trkpt lat="39.6093967" lon="8.522215"><ele>276.0</ele><time>2026-04-21T10:33:19.333Z</time></trkpt><trkpt lat="39.609295" lon="8.522165"><ele>274.5</ele><time>2026-04-21T10:33:20.332Z</time></trkpt><trkpt lat="39.6091883" lon="8.5220583"><ele>273.0</ele><time>2026-04-21T10:33:21.333Z</time></trkpt><trkpt lat="39.6090833" lon="8.5218967"><ele>273.0</ele><time>2026-04-21T10:33:22.333Z</time></trkpt><trkpt lat="39.6089733" lon="8.5217333"><ele>273.0</ele><time>2026-04-21T10:33:23.332Z</time></trkpt><trkpt lat="39.608865" lon="8.5215767"><ele>273.0</ele><time>2026-04-21T10:33:24.333Z</time></trkpt><trkpt lat="39.608745" lon="8.52142"><ele>271.6666666666667</ele><time>2026-04-21T10:33:25.332Z</time></trkpt><trkpt lat="39.608615" lon="8.5212733"><ele>270.33333333333337</ele><time>2026-04-21T10:33:26.332Z</time></trkpt><trkpt lat="39.60848" lon="8.521145"><ele>269.0</ele><time>2026-04-21T10:33:27.332Z</time></trkpt><trkpt lat="39.60834" lon="8.52104"><ele>269.0</ele><time>2026-04-21T10:33:28.333Z</time></trkpt><trkpt lat="39.60821" lon="8.5209583"><ele>269.0</ele><time>2026-04-21T10:33:29.333Z</time></trkpt><trkpt lat="39.6080917" lon="8.520885"><ele>269.0</ele><time>2026-04-21T10:33:30.333Z</time></trkpt><trkpt lat="39.607965" lon="8.5208433"><ele>269.0</ele><time>2026-04-21T10:33:31.333Z</time></trkpt><trkpt lat="39.6078183" lon="8.5208483"><ele>270.0</ele><time>2026-04-21T10:33:32.333Z</time></trkpt><trkpt lat="39.6076617" lon="8.5208883"><ele>271.0</ele><time>2026-04-21T10:33:33.333Z</time></trkpt><trkpt lat="39.6075" lon="8.520945"><ele>272.0</ele><time>2026-04-21T10:33:34.333Z</time></trkpt><trkpt lat="39.60734" lon="8.52102"><ele>272.0</ele><time>2026-04-21T10:33:35.333Z</time></trkpt><trkpt lat="39.6071833" lon="8.5211"><ele>272.0</ele><time>2026-04-21T10:33:36.333Z</time></trkpt><trkpt lat="39.6070483" lon="8.521195"><ele>272.0</ele><time>2026-04-21T10:33:37.333Z</time></trkpt><trkpt lat="39.6069183" lon="8.5212733"><ele>273.75</ele><time>2026-04-21T10:33:38.333Z</time></trkpt><trkpt lat="39.6068" lon="8.521365"><ele>275.5</ele><time>2026-04-21T10:33:39.333Z</time></trkpt><trkpt lat="39.6066967" lon="8.5214767"><ele>277.25</ele><time>2026-04-21T10:33:40.332Z</time></trkpt><trkpt lat="39.6066133" lon="8.5215917"><ele>279.0</ele><time>2026-04-21T10:33:41.333Z</time></trkpt><trkpt lat="39.60655" lon="8.521715"><ele>279.0</ele><time>2026-04-21T10:33:42.333Z</time></trkpt><trkpt lat="39.6065117" lon="8.5218667"><ele>279.0</ele><time>2026-04-21T10:33:43.333Z</time></trkpt><trkpt lat="39.6064883" lon="8.5220217"><ele>279.0</ele><time>2026-04-21T10:33:44.333Z</time></trkpt><trkpt lat="39.6064817" lon="8.5221833"><ele>279.0</ele><time>2026-04-21T10:33:45.332Z</time></trkpt><trkpt lat="39.60646" lon="8.52234"><ele>278.5</ele><time>2026-04-21T10:33:46.333Z</time></trkpt><trkpt lat="39.60641" lon="8.5224617"><ele>278.0</ele><time>2026-04-21T10:33:47.333Z</time></trkpt><trkpt lat="39.6063317" lon="8.522565"><ele>277.5</ele><time>2026-04-21T10:33:48.333Z</time></trkpt><trkpt lat="39.6062267" lon="8.5226367"><ele>277.0</ele><time>2026-04-21T10:33:49.333Z</time></trkpt><trkpt lat="39.6061017" lon="8.5226583"><ele>277.0</ele><time>2026-04-21T10:33:50.332Z</time></trkpt><trkpt lat="39.6059517" lon="8.5226533"><ele>277.0</ele><time>2026-04-21T10:33:51.333Z</time></trkpt><trkpt lat="39.6057933" lon="8.522645"><ele>277.0</ele><time>2026-04-21T10:33:52.333Z</time></trkpt><trkpt lat="39.6056583" lon="8.52264"><ele>277.0</ele><time>2026-04-21T10:33:53.333Z</time></trkpt><trkpt lat="39.6055467" lon="8.5226417"><ele>277.0</ele><time>2026-04-21T10:33:54.333Z</time></trkpt><trkpt lat="39.605445" lon="8.5226783"><ele>277.0</ele><time>2026-04-21T10:33:55.333Z</time></trkpt><trkpt lat="39.6053417" lon="8.5227567"><ele>277.0</ele><time>2026-04-21T10:33:56.332Z</time></trkpt><trkpt lat="39.6052317" lon="8.5228733"><ele>277.0</ele><time>2026-04-21T10:33:57.332Z</time></trkpt><trkpt lat="39.605125" lon="8.523005"><ele>280.66666666666663</ele><time>2026-04-21T10:33:58.333Z</time></trkpt><trkpt lat="39.6050133" lon="8.52315"><ele>284.3333333333333</ele><time>2026-04-21T10:33:59.332Z</time></trkpt><trkpt lat="39.6049" lon="8.52329"><ele>288.0</ele><time>2026-04-21T10:34:00.333Z</time></trkpt><trkpt lat="39.6047917" lon="8.52343"><ele>288.0</ele><time>2026-04-21T10:34:01.333Z</time></trkpt><trkpt lat="39.6046883" lon="8.5235617"><ele>288.0</ele><time>2026-04-21T10:34:02.333Z</time></trkpt><trkpt lat="39.604575" lon="8.5237"><ele>288.0</ele><time>2026-04-21T10:34:03.332Z</time></trkpt><trkpt lat="39.6044917" lon="8.52385"><ele>288.0</ele><time>2026-04-21T10:34:04.333Z</time></trkpt><trkpt lat="39.6044383" lon="8.5239917"><ele>288.25</ele><time>2026-04-21T10:34:05.332Z</time></trkpt><trkpt lat="39.6044067" lon="8.52414"><ele>288.5</ele><time>2026-04-21T10:34:06.332Z</time></trkpt><trkpt lat="39.6044083" lon="8.5242933"><ele>288.75</ele><time>2026-04-21T10:34:07.332Z</time></trkpt><trkpt lat="39.6044317" lon="8.52445"><ele>289.0</ele><time>2026-04-21T10:34:08.333Z</time></trkpt><trkpt lat="39.6044483" lon="8.52461"><ele>289.0</ele><time>2026-04-21T10:34:09.332Z</time></trkpt><trkpt lat="39.6044483" lon="8.5247467"><ele>289.0</ele><time>2026-04-21T10:34:10.332Z</time></trkpt><trkpt lat="39.6044083" lon="8.5248767"><ele>289.0</ele><time>2026-04-21T10:34:11.333Z</time></trkpt><trkpt lat="39.6043233" lon="8.5249767"><ele>289.0</ele><time>2026-04-21T10:34:12.332Z</time></trkpt><trkpt lat="39.6042217" lon="8.5250633"><ele>289.0</ele><time>2026-04-21T10:34:13.332Z</time></trkpt><trkpt lat="39.604115" lon="8.5251483"><ele>289.0</ele><time>2026-04-21T10:34:14.332Z</time></trkpt><trkpt lat="39.604025" lon="8.525245"><ele>289.0</ele><time>2026-04-21T10:34:15.332Z</time></trkpt><trkpt lat="39.6039533" lon="8.5253617"><ele>289.0</ele><time>2026-04-21T10:34:16.332Z</time></trkpt><trkpt lat="39.6038967" lon="8.52551"><ele>289.0</ele><time>2026-04-21T10:34:17.333Z</time></trkpt><trkpt lat="39.6038517" lon="8.5256767"><ele>291.75</ele><time>2026-04-21T10:34:18.333Z</time></trkpt><trkpt lat="39.6038167" lon="8.5258417"><ele>294.5</ele><time>2026-04-21T10:34:19.333Z</time></trkpt><trkpt lat="39.6037883" lon="8.5260017"><ele>297.25</ele><time>2026-04-21T10:34:20.332Z</time></trkpt><trkpt lat="39.603775" lon="8.526165"><ele>300.0</ele><time>2026-04-21T10:34:21.332Z</time></trkpt><trkpt lat="39.6037867" lon="8.5263183"><ele>300.3333333333333</ele><time>2026-04-21T10:34:22.332Z</time></trkpt><trkpt lat="39.6038083" lon="8.52645"><ele>300.6666666666667</ele><time>2026-04-21T10:34:23.332Z</time></trkpt><trkpt lat="39.6038183" lon="8.52656"><ele>301.0</ele><time>2026-04-21T10:34:24.332Z</time></trkpt><trkpt lat="39.6038083" lon="8.526655"><ele>301.33333333333337</ele><time>2026-04-21T10:34:25.332Z</time></trkpt><trkpt lat="39.6037767" lon="8.526745"><ele>301.6666666666667</ele><time>2026-04-21T10:34:26.332Z</time></trkpt><trkpt lat="39.6037183" lon="8.52679"><ele>302.0</ele><time>2026-04-21T10:34:27.333Z</time></trkpt><trkpt lat="39.603655" lon="8.5267867"><ele>302.0</ele><time>2026-04-21T10:34:28.333Z</time></trkpt><trkpt lat="39.60355" lon="8.5267183"><ele>302.0</ele><time>2026-04-21T10:34:29.332Z</time></trkpt><trkpt lat="39.6034233" lon="8.5266233"><ele>302.0</ele><time>2026-04-21T10:34:30.332Z</time></trkpt><trkpt lat="39.6032817" lon="8.5265333"><ele>302.0</ele><time>2026-04-21T10:34:31.333Z</time></trkpt><trkpt lat="39.6031417" lon="8.5264867"><ele>302.0</ele><time>2026-04-21T10:34:32.332Z</time></trkpt><trkpt lat="39.6030117" lon="8.5264467"><ele>302.0</ele><time>2026-04-21T10:34:33.333Z</time></trkpt><trkpt lat="39.6028967" lon="8.5264267"><ele>302.0</ele><time>2026-04-21T10:34:34.332Z</time></trkpt><trkpt lat="39.602775" lon="8.5264483"><ele>302.0</ele><time>2026-04-21T10:34:35.333Z</time></trkpt><trkpt lat="39.6026517" lon="8.5265"><ele>301.75</ele><time>2026-04-21T10:34:36.332Z</time></trkpt><trkpt lat="39.6025233" lon="8.526565"><ele>301.5</ele><time>2026-04-21T10:34:37.333Z</time></trkpt><trkpt lat="39.6023917" lon="8.526635"><ele>301.25</ele><time>2026-04-21T10:34:38.333Z</time></trkpt><trkpt lat="39.6022683" lon="8.5267067"><ele>301.0</ele><time>2026-04-21T10:34:39.332Z</time></trkpt><trkpt lat="39.602145" lon="8.526765"><ele>301.0</ele><time>2026-04-21T10:34:40.333Z</time></trkpt><trkpt lat="39.6020217" lon="8.5268367"><ele>301.0</ele><time>2026-04-21T10:34:41.332Z</time></trkpt><trkpt lat="39.6019" lon="8.5269067"><ele>301.0</ele><time>2026-04-21T10:34:42.332Z</time></trkpt><trkpt lat="39.6017867" lon="8.5269633"><ele>301.0</ele><time>2026-04-21T10:34:43.333Z</time></trkpt><trkpt lat="39.601685" lon="8.5270333"><ele>302.5</ele><time>2026-04-21T10:34:44.332Z</time></trkpt><trkpt lat="39.6015967" lon="8.527135"><ele>304.0</ele><time>2026-04-21T10:34:45.332Z</time></trkpt><trkpt lat="39.60153" lon="8.52727"><ele>305.5</ele><time>2026-04-21T10:34:46.333Z</time></trkpt><trkpt lat="39.6014783" lon="8.52743"><ele>307.0</ele><time>2026-04-21T10:34:47.333Z</time></trkpt><trkpt lat="39.60142" lon="8.5275967"><ele>307.0</ele><time>2026-04-21T10:34:48.332Z</time></trkpt><trkpt lat="39.60137" lon="8.5277567"><ele>307.0</ele><time>2026-04-21T10:34:49.333Z</time></trkpt><trkpt lat="39.6013133" lon="8.52789"><ele>307.0</ele><time>2026-04-21T10:34:50.332Z</time></trkpt><trkpt lat="39.6012467" lon="8.52802"><ele>307.0</ele><time>2026-04-21T10:34:51.332Z</time></trkpt><trkpt lat="39.6011517" lon="8.52814"><ele>306.5</ele><time>2026-04-21T10:34:52.333Z</time></trkpt><trkpt lat="39.6010367" lon="8.5282617"><ele>306.0</ele><time>2026-04-21T10:34:53.332Z</time></trkpt><trkpt lat="39.6009133" lon="8.5283733"><ele>305.5</ele><time>2026-04-21T10:34:54.333Z</time></trkpt><trkpt lat="39.600785" lon="8.5284733"><ele>305.0</ele><time>2026-04-21T10:34:55.333Z</time></trkpt><trkpt lat="39.6006517" lon="8.5285633"><ele>305.0</ele><time>2026-04-21T10:34:56.333Z</time></trkpt><trkpt lat="39.6005333" lon="8.5286317"><ele>305.0</ele><time>2026-04-21T10:34:57.333Z</time></trkpt><trkpt lat="39.60044" lon="8.5287117"><ele>305.0</ele><time>2026-04-21T10:34:58.331Z</time></trkpt><trkpt lat="39.6003683" lon="8.5288067"><ele>305.0</ele><time>2026-04-21T10:34:59.332Z</time></trkpt><trkpt lat="39.6003117" lon="8.5289317"><ele>304.0</ele><time>2026-04-21T10:35:00.332Z</time></trkpt><trkpt lat="39.6002683" lon="8.5290917"><ele>303.0</ele><time>2026-04-21T10:35:01.332Z</time></trkpt><trkpt lat="39.600235" lon="8.529265"><ele>302.0</ele><time>2026-04-21T10:35:02.331Z</time></trkpt><trkpt lat="39.6001967" lon="8.52947"><ele>301.0</ele><time>2026-04-21T10:35:03.332Z</time></trkpt><trkpt lat="39.6001533" lon="8.5296883"><ele>301.0</ele><time>2026-04-21T10:35:04.331Z</time></trkpt><trkpt lat="39.6000917" lon="8.5299083"><ele>301.0</ele><time>2026-04-21T10:35:05.331Z</time></trkpt><trkpt lat="39.6000317" lon="8.5301317"><ele>301.0</ele><time>2026-04-21T10:35:06.332Z</time></trkpt><trkpt lat="39.5999667" lon="8.530355"><ele>302.66666666666663</ele><time>2026-04-21T10:35:07.332Z</time></trkpt><trkpt lat="39.5999117" lon="8.53058"><ele>304.3333333333333</ele><time>2026-04-21T10:35:08.332Z</time></trkpt><trkpt lat="39.5998517" lon="8.5307817"><ele>306.0</ele><time>2026-04-21T10:35:09.332Z</time></trkpt><trkpt lat="39.599805" lon="8.5309733"><ele>306.0</ele><time>2026-04-21T10:35:10.331Z</time></trkpt><trkpt lat="39.59976" lon="8.5311417"><ele>306.0</ele><time>2026-04-21T10:35:11.331Z</time></trkpt><trkpt lat="39.5997133" lon="8.5312883"><ele>306.0</ele><time>2026-04-21T10:35:12.332Z</time></trkpt><trkpt lat="39.5996467" lon="8.5314133"><ele>306.0</ele><time>2026-04-21T10:35:13.332Z</time></trkpt><trkpt lat="39.59955" lon="8.5315017"><ele>306.0</ele><time>2026-04-21T10:35:14.332Z</time></trkpt><trkpt lat="39.59942" lon="8.5315483"><ele>306.0</ele><time>2026-04-21T10:35:15.332Z</time></trkpt><trkpt lat="39.599265" lon="8.5315867"><ele>306.0</ele><time>2026-04-21T10:35:16.332Z</time></trkpt><trkpt lat="39.59911" lon="8.5316183"><ele>306.0</ele><time>2026-04-21T10:35:17.331Z</time></trkpt><trkpt lat="39.5989717" lon="8.5316617"><ele>306.0</ele><time>2026-04-21T10:35:18.331Z</time></trkpt><trkpt lat="39.598845" lon="8.5317067"><ele>306.0</ele><time>2026-04-21T10:35:19.331Z</time></trkpt><trkpt lat="39.5987283" lon="8.5317483"><ele>306.0</ele><time>2026-04-21T10:35:20.332Z</time></trkpt><trkpt lat="39.598615" lon="8.5317867"><ele>305.0</ele><time>2026-04-21T10:35:21.331Z</time></trkpt><trkpt lat="39.5985117" lon="8.5318283"><ele>304.0</ele><time>2026-04-21T10:35:22.331Z</time></trkpt><trkpt lat="39.5984183" lon="8.5318867"><ele>303.0</ele><time>2026-04-21T10:35:23.332Z</time></trkpt><trkpt lat="39.5983183" lon="8.5319833"><ele>302.0</ele><time>2026-04-21T10:35:24.331Z</time></trkpt><trkpt lat="39.5982167" lon="8.5321033"><ele>305.75</ele><time>2026-04-21T10:35:25.332Z</time></trkpt><trkpt lat="39.5981183" lon="8.5322283"><ele>309.5</ele><time>2026-04-21T10:35:26.332Z</time></trkpt><trkpt lat="39.5980267" lon="8.5323517"><ele>313.25</ele><time>2026-04-21T10:35:27.332Z</time></trkpt><trkpt lat="39.597955" lon="8.53247"><ele>317.0</ele><time>2026-04-21T10:35:28.331Z</time></trkpt><trkpt lat="39.597875" lon="8.5325717"><ele>315.0</ele><time>2026-04-21T10:35:29.332Z</time></trkpt><trkpt lat="39.5977917" lon="8.5326583"><ele>313.0</ele><time>2026-04-21T10:35:30.332Z</time></trkpt><trkpt lat="39.5977017" lon="8.532705"><ele>311.0</ele><time>2026-04-21T10:35:31.332Z</time></trkpt><trkpt lat="39.5976117" lon="8.5326967"><ele>309.0</ele><time>2026-04-21T10:35:32.331Z</time></trkpt><trkpt lat="39.5975267" lon="8.5326633"><ele>307.0</ele><time>2026-04-21T10:35:33.331Z</time></trkpt><trkpt lat="39.5974483" lon="8.5325783"><ele>307.0</ele><time>2026-04-21T10:35:34.332Z</time></trkpt><trkpt lat="39.5973883" lon="8.532455"><ele>307.0</ele><time>2026-04-21T10:35:35.331Z</time></trkpt><trkpt lat="39.5973383" lon="8.53229"><ele>307.0</ele><time>2026-04-21T10:35:36.331Z</time></trkpt><trkpt lat="39.5972667" lon="8.532125"><ele>307.0</ele><time>2026-04-21T10:35:37.332Z</time></trkpt><trkpt lat="39.5971683" lon="8.5319933"><ele>307.25</ele><time>2026-04-21T10:35:38.332Z</time></trkpt><trkpt lat="39.597055" lon="8.5318817"><ele>307.5</ele><time>2026-04-21T10:35:39.332Z</time></trkpt><trkpt lat="39.5969517" lon="8.53177"><ele>307.75</ele><time>2026-04-21T10:35:40.331Z</time></trkpt><trkpt lat="39.596875" lon="8.5316383"><ele>308.0</ele><time>2026-04-21T10:35:41.332Z</time></trkpt><trkpt lat="39.5967967" lon="8.5314917"><ele>308.0</ele><time>2026-04-21T10:35:42.332Z</time></trkpt><trkpt lat="39.5967033" lon="8.531365"><ele>308.0</ele><time>2026-04-21T10:35:43.332Z</time></trkpt><trkpt lat="39.5965983" lon="8.5312467"><ele>308.0</ele><time>2026-04-21T10:35:44.331Z</time></trkpt><trkpt lat="39.5964867" lon="8.53114"><ele>308.0</ele><time>2026-04-21T10:35:45.331Z</time></trkpt><trkpt lat="39.5963717" lon="8.5310517"><ele>306.2</ele><time>2026-04-21T10:35:46.332Z</time></trkpt><trkpt lat="39.596265" lon="8.53097"><ele>304.4</ele><time>2026-04-21T10:35:47.331Z</time></trkpt><trkpt lat="39.596175" lon="8.5308967"><ele>302.59999999999997</ele><time>2026-04-21T10:35:48.332Z</time></trkpt><trkpt lat="39.5960883" lon="8.5308367"><ele>300.8</ele><time>2026-04-21T10:35:49.332Z</time></trkpt><trkpt lat="39.5959917" lon="8.5308217"><ele>299.0</ele><time>2026-04-21T10:35:50.332Z</time></trkpt><trkpt lat="39.5958817" lon="8.5308367"><ele>299.0</ele><time>2026-04-21T10:35:51.331Z</time></trkpt><trkpt lat="39.595765" lon="8.5308667"><ele>299.0</ele><time>2026-04-21T10:35:52.331Z</time></trkpt><trkpt lat="39.5956367" lon="8.5309217"><ele>299.0</ele><time>2026-04-21T10:35:53.332Z</time></trkpt><trkpt lat="39.5955017" lon="8.5309667"><ele>299.0</ele><time>2026-04-21T10:35:54.332Z</time></trkpt><trkpt lat="39.5953667" lon="8.531015"><ele>301.0</ele><time>2026-04-21T10:35:55.332Z</time></trkpt><trkpt lat="39.595235" lon="8.53108"><ele>303.0</ele><time>2026-04-21T10:35:56.332Z</time></trkpt><trkpt lat="39.595105" lon="8.5311567"><ele>305.0</ele><time>2026-04-21T10:35:57.331Z</time></trkpt><trkpt lat="39.5949817" lon="8.531255"><ele>307.0</ele><time>2026-04-21T10:35:58.332Z</time></trkpt><trkpt lat="39.5948617" lon="8.5313817"><ele>307.0</ele><time>2026-04-21T10:35:59.332Z</time></trkpt><trkpt lat="39.5947417" lon="8.5315433"><ele>307.0</ele><time>2026-04-21T10:36:00.332Z</time></trkpt><trkpt lat="39.5946467" lon="8.531725"><ele>307.0</ele><time>2026-04-21T10:36:01.332Z</time></trkpt><trkpt lat="39.5945533" lon="8.5319067"><ele>305.5</ele><time>2026-04-21T10:36:02.332Z</time></trkpt><trkpt lat="39.594465" lon="8.53207"><ele>304.0</ele><time>2026-04-21T10:36:03.332Z</time></trkpt><trkpt lat="39.5943867" lon="8.53222"><ele>302.5</ele><time>2026-04-21T10:36:04.332Z</time></trkpt><trkpt lat="39.5943183" lon="8.5323367"><ele>301.0</ele><time>2026-04-21T10:36:05.332Z</time></trkpt><trkpt lat="39.5942433" lon="8.5324283"><ele>301.0</ele><time>2026-04-21T10:36:06.332Z</time></trkpt><trkpt lat="39.5941617" lon="8.53247"><ele>301.0</ele><time>2026-04-21T10:36:07.331Z</time></trkpt><trkpt lat="39.5940733" lon="8.5324917"><ele>301.0</ele><time>2026-04-21T10:36:08.332Z</time></trkpt><trkpt lat="39.5939967" lon="8.53247"><ele>301.0</ele><time>2026-04-21T10:36:09.331Z</time></trkpt><trkpt lat="39.5939267" lon="8.5323933"><ele>301.0</ele><time>2026-04-21T10:36:10.332Z</time></trkpt><trkpt lat="39.5938633" lon="8.532245"><ele>301.0</ele><time>2026-04-21T10:36:11.332Z</time></trkpt><trkpt lat="39.5937967" lon="8.5320583"><ele>301.0</ele><time>2026-04-21T10:36:12.332Z</time></trkpt><trkpt lat="39.5937283" lon="8.5318733"><ele>301.0</ele><time>2026-04-21T10:36:13.331Z</time></trkpt><trkpt lat="39.5936533" lon="8.5316933"><ele>302.3333333333333</ele><time>2026-04-21T10:36:14.332Z</time></trkpt><trkpt lat="39.5935733" lon="8.5315033"><ele>303.6666666666667</ele><time>2026-04-21T10:36:15.332Z</time></trkpt><trkpt lat="39.5935183" lon="8.5313017"><ele>305.0</ele><time>2026-04-21T10:36:16.332Z</time></trkpt><trkpt lat="39.5934817" lon="8.5310983"><ele>302.33333333333337</ele><time>2026-04-21T10:36:17.332Z</time></trkpt><trkpt lat="39.59343" lon="8.5309083"><ele>299.6666666666667</ele><time>2026-04-21T10:36:18.332Z</time></trkpt><trkpt lat="39.59336" lon="8.530735"><ele>297.0</ele><time>2026-04-21T10:36:19.332Z</time></trkpt><trkpt lat="39.5932817" lon="8.5305733"><ele>297.0</ele><time>2026-04-21T10:36:20.331Z</time></trkpt><trkpt lat="39.5931967" lon="8.5304333"><ele>297.0</ele><time>2026-04-21T10:36:21.332Z</time></trkpt><trkpt lat="39.5931333" lon="8.5302833"><ele>297.0</ele><time>2026-04-21T10:36:22.331Z</time></trkpt><trkpt lat="39.59311" lon="8.5301133"><ele>297.0</ele><time>2026-04-21T10:36:23.332Z</time></trkpt><trkpt lat="39.5930983" lon="8.529935"><ele>295.0</ele><time>2026-04-21T10:36:24.331Z</time></trkpt><trkpt lat="39.5930733" lon="8.5297683"><ele>293.0</ele><time>2026-04-21T10:36:25.331Z</time></trkpt><trkpt lat="39.5930317" lon="8.529605"><ele>291.0</ele><time>2026-04-21T10:36:26.331Z</time></trkpt><trkpt lat="39.5929467" lon="8.529435"><ele>289.0</ele><time>2026-04-21T10:36:27.332Z</time></trkpt><trkpt lat="39.5928583" lon="8.5292683"><ele>292.75</ele><time>2026-04-21T10:36:28.331Z</time></trkpt><trkpt lat="39.5927667" lon="8.5291167"><ele>296.5</ele><time>2026-04-21T10:36:29.332Z</time></trkpt><trkpt lat="39.5926767" lon="8.5289767"><ele>300.25</ele><time>2026-04-21T10:36:30.331Z</time></trkpt><trkpt lat="39.59258" lon="8.528875"><ele>304.0</ele><time>2026-04-21T10:36:31.332Z</time></trkpt><trkpt lat="39.5924733" lon="8.5288083"><ele>304.0</ele><time>2026-04-21T10:36:32.332Z</time></trkpt><trkpt lat="39.59236" lon="8.5287733"><ele>304.0</ele><time>2026-04-21T10:36:33.331Z</time></trkpt><trkpt lat="39.5922283" lon="8.52878"><ele>304.0</ele><time>2026-04-21T10:36:34.332Z</time></trkpt><trkpt lat="39.5920933" lon="8.5288083"><ele>304.0</ele><time>2026-04-21T10:36:35.331Z</time></trkpt><trkpt lat="39.5919383" lon="8.5288367"><ele>305.0</ele><time>2026-04-21T10:36:36.332Z</time></trkpt><trkpt lat="39.591775" lon="8.5288683"><ele>306.0</ele><time>2026-04-21T10:36:37.331Z</time></trkpt><trkpt lat="39.5916067" lon="8.5289"><ele>307.0</ele><time>2026-04-21T10:36:38.332Z</time></trkpt><trkpt lat="39.5914367" lon="8.5289217"><ele>307.0</ele><time>2026-04-21T10:36:39.332Z</time></trkpt><trkpt lat="39.5912883" lon="8.5289433"><ele>307.0</ele><time>2026-04-21T10:36:40.332Z</time></trkpt><trkpt lat="39.59115" lon="8.5289567"><ele>307.0</ele><time>2026-04-21T10:36:41.331Z</time></trkpt><trkpt lat="39.5910083" lon="8.5289467"><ele>307.0</ele><time>2026-04-21T10:36:42.332Z</time></trkpt><trkpt lat="39.5908867" lon="8.5289183"><ele>307.2</ele><time>2026-04-21T10:36:43.332Z</time></trkpt><trkpt lat="39.5907767" lon="8.5288917"><ele>307.4</ele><time>2026-04-21T10:36:44.332Z</time></trkpt><trkpt lat="39.59068" lon="8.5288667"><ele>307.6</ele><time>2026-04-21T10:36:45.331Z</time></trkpt><trkpt lat="39.590575" lon="8.5288683"><ele>307.8</ele><time>2026-04-21T10:36:46.332Z</time></trkpt><trkpt lat="39.59046" lon="8.5288983"><ele>308.0</ele><time>2026-04-21T10:36:47.332Z</time></trkpt><trkpt lat="39.5903367" lon="8.5289533"><ele>308.0</ele><time>2026-04-21T10:36:48.331Z</time></trkpt><trkpt lat="39.5901967" lon="8.5290233"><ele>308.0</ele><time>2026-04-21T10:36:49.332Z</time></trkpt><trkpt lat="39.5900533" lon="8.5291117"><ele>308.0</ele><time>2026-04-21T10:36:50.331Z</time></trkpt><trkpt lat="39.5899117" lon="8.5291983"><ele>308.0</ele><time>2026-04-21T10:36:51.332Z</time></trkpt><trkpt lat="39.58979" lon="8.5292883"><ele>308.0</ele><time>2026-04-21T10:36:52.332Z</time></trkpt><trkpt lat="39.589685" lon="8.529365"><ele>308.0</ele><time>2026-04-21T10:36:53.332Z</time></trkpt><trkpt lat="39.5895817" lon="8.5294533"><ele>308.0</ele><time>2026-04-21T10:36:54.332Z</time></trkpt><trkpt lat="39.5894867" lon="8.5295183"><ele>307.83333333333337</ele><time>2026-04-21T10:36:55.331Z</time></trkpt><trkpt lat="39.5894067" lon="8.5295683"><ele>307.6666666666667</ele><time>2026-04-21T10:36:56.331Z</time></trkpt><trkpt lat="39.5893367" lon="8.529605"><ele>307.5</ele><time>2026-04-21T10:36:57.331Z</time></trkpt><trkpt lat="39.5892733" lon="8.529645"><ele>307.3333333333333</ele><time>2026-04-21T10:36:58.331Z</time></trkpt><trkpt lat="39.5891867" lon="8.52969"><ele>307.16666666666663</ele><time>2026-04-21T10:37:00.331Z</time></trkpt><trkpt lat="39.5891083" lon="8.5296683"><ele>307.0</ele><time>2026-04-21T10:37:02.331Z</time></trkpt><trkpt lat="39.589025" lon="8.5295817"><ele>307.1428571428571</ele><time>2026-04-21T10:37:04.332Z</time></trkpt><trkpt lat="39.5889767" lon="8.5295217"><ele>307.2857142857143</ele><time>2026-04-21T10:37:05.332Z</time></trkpt><trkpt lat="39.588915" lon="8.529465"><ele>307.42857142857144</ele><time>2026-04-21T10:37:06.332Z</time></trkpt><trkpt lat="39.5888567" lon="8.52941"><ele>307.57142857142856</ele><time>2026-04-21T10:37:07.331Z</time></trkpt><trkpt lat="39.588795" lon="8.5293533"><ele>307.7142857142857</ele><time>2026-04-21T10:37:08.331Z</time></trkpt><trkpt lat="39.58873" lon="8.5292983"><ele>307.85714285714283</ele><time>2026-04-21T10:37:09.332Z</time></trkpt><trkpt lat="39.5886817" lon="8.5292383"><ele>308.0</ele><time>2026-04-21T10:37:10.331Z</time></trkpt><trkpt lat="39.5886417" lon="8.5291617"><ele>308.0</ele><time>2026-04-21T10:37:11.332Z</time></trkpt><trkpt lat="39.5886217" lon="8.5290567"><ele>308.0</ele><time>2026-04-21T10:37:12.332Z</time></trkpt><trkpt lat="39.5886017" lon="8.528935"><ele>308.0</ele><time>2026-04-21T10:37:13.332Z</time></trkpt><trkpt lat="39.58858" lon="8.5288017"><ele>308.0</ele><time>2026-04-21T10:37:14.332Z</time></trkpt><trkpt lat="39.58855" lon="8.5286733"><ele>308.0</ele><time>2026-04-21T10:37:15.331Z</time></trkpt><trkpt lat="39.588505" lon="8.5285633"><ele>307.33333333333337</ele><time>2026-04-21T10:37:16.332Z</time></trkpt><trkpt lat="39.5884583" lon="8.5284817"><ele>306.6666666666667</ele><time>2026-04-21T10:37:17.332Z</time></trkpt><trkpt lat="39.588395" lon="8.5284033"><ele>306.0</ele><time>2026-04-21T10:37:18.332Z</time></trkpt><trkpt lat="39.5883167" lon="8.5283417"><ele>305.3333333333333</ele><time>2026-04-21T10:37:19.331Z</time></trkpt><trkpt lat="39.5882367" lon="8.5282867"><ele>304.66666666666663</ele><time>2026-04-21T10:37:20.331Z</time></trkpt><trkpt lat="39.588155" lon="8.52824"><ele>304.0</ele><time>2026-04-21T10:37:21.332Z</time></trkpt><trkpt lat="39.5880733" lon="8.5282083"><ele>304.0</ele><time>2026-04-21T10:37:22.331Z</time></trkpt><trkpt lat="39.5879933" lon="8.52818"><ele>304.0</ele><time>2026-04-21T10:37:23.332Z</time></trkpt><trkpt lat="39.587925" lon="8.5281483"><ele>304.0</ele><time>2026-04-21T10:37:24.332Z</time></trkpt><trkpt lat="39.5878633" lon="8.52811"><ele>304.0</ele><time>2026-04-21T10:37:25.332Z</time></trkpt><trkpt lat="39.5877833" lon="8.5279933"><ele>304.0</ele><time>2026-04-21T10:37:27.332Z</time></trkpt><trkpt lat="39.5877783" lon="8.5279033"><ele>304.0</ele><time>2026-04-21T10:37:28.332Z</time></trkpt><trkpt lat="39.5878033" lon="8.5278"><ele>303.2</ele><time>2026-04-21T10:37:29.331Z</time></trkpt><trkpt lat="39.5878517" lon="8.5276917"><ele>302.4</ele><time>2026-04-21T10:37:30.332Z</time></trkpt><trkpt lat="39.5879133" lon="8.5275767"><ele>301.6</ele><time>2026-04-21T10:37:31.331Z</time></trkpt><trkpt lat="39.5879683" lon="8.5274567"><ele>300.8</ele><time>2026-04-21T10:37:32.332Z</time></trkpt><trkpt lat="39.588005" lon="8.5273267"><ele>300.0</ele><time>2026-04-21T10:37:33.332Z</time></trkpt><trkpt lat="39.58805" lon="8.527195"><ele>300.0</ele><time>2026-04-21T10:37:34.332Z</time></trkpt><trkpt lat="39.588095" lon="8.527065"><ele>300.0</ele><time>2026-04-21T10:37:35.332Z</time></trkpt><trkpt lat="39.5881467" lon="8.5269383"><ele>300.0</ele><time>2026-04-21T10:37:36.332Z</time></trkpt><trkpt lat="39.5882067" lon="8.5268067"><ele>300.0</ele><time>2026-04-21T10:37:37.332Z</time></trkpt><trkpt lat="39.5882667" lon="8.526685"><ele>300.0</ele><time>2026-04-21T10:37:38.332Z</time></trkpt><trkpt lat="39.5883333" lon="8.5265717"><ele>302.4</ele><time>2026-04-21T10:37:39.332Z</time></trkpt><trkpt lat="39.5883983" lon="8.5264667"><ele>304.8</ele><time>2026-04-21T10:37:40.331Z</time></trkpt><trkpt lat="39.5884567" lon="8.5263633"><ele>307.2</ele><time>2026-04-21T10:37:41.332Z</time></trkpt><trkpt lat="39.5885067" lon="8.5262583"><ele>309.6</ele><time>2026-04-21T10:37:42.331Z</time></trkpt><trkpt lat="39.5885367" lon="8.5261617"><ele>312.0</ele><time>2026-04-21T10:37:43.331Z</time></trkpt><trkpt lat="39.5885617" lon="8.5260683"><ele>312.2</ele><time>2026-04-21T10:37:44.332Z</time></trkpt><trkpt lat="39.58857" lon="8.5259417"><ele>312.4</ele><time>2026-04-21T10:37:46.331Z</time></trkpt><trkpt lat="39.5885217" lon="8.52585"><ele>312.6</ele><time>2026-04-21T10:37:48.331Z</time></trkpt><trkpt lat="39.588395" lon="8.5257783"><ele>312.8</ele><time>2026-04-21T10:37:50.331Z</time></trkpt><trkpt lat="39.5883167" lon="8.5257483"><ele>313.0</ele><time>2026-04-21T10:37:51.331Z</time></trkpt><trkpt lat="39.588235" lon="8.5257217"><ele>313.0</ele><time>2026-04-21T10:37:52.331Z</time></trkpt><trkpt lat="39.5881683" lon="8.5256967"><ele>313.0</ele><time>2026-04-21T10:37:53.331Z</time></trkpt><trkpt lat="39.5881033" lon="8.5256667"><ele>313.0</ele><time>2026-04-21T10:37:54.331Z</time></trkpt><trkpt lat="39.5880333" lon="8.525565"><ele>313.0</ele><time>2026-04-21T10:37:56.332Z</time></trkpt><trkpt lat="39.5880483" lon="8.52539"><ele>313.0</ele><time>2026-04-21T10:37:58.332Z</time></trkpt><trkpt lat="39.5880767" lon="8.5252783"><ele>311.8</ele><time>2026-04-21T10:37:59.332Z</time></trkpt><trkpt lat="39.5881133" lon="8.5251633"><ele>310.6</ele><time>2026-04-21T10:38:00.331Z</time></trkpt><trkpt lat="39.5881533" lon="8.5250417"><ele>309.4</ele><time>2026-04-21T10:38:01.332Z</time></trkpt><trkpt lat="39.5881867" lon="8.5249117"><ele>308.2</ele><time>2026-04-21T10:38:02.332Z</time></trkpt><trkpt lat="39.5882167" lon="8.52479"><ele>307.0</ele><time>2026-04-21T10:38:03.331Z</time></trkpt><trkpt lat="39.58824" lon="8.52468"><ele>307.0</ele><time>2026-04-21T10:38:04.332Z</time></trkpt><trkpt lat="39.5882733" lon="8.5245933"><ele>307.0</ele><time>2026-04-21T10:38:05.332Z</time></trkpt><trkpt lat="39.58835" lon="8.52449"><ele>307.0</ele><time>2026-04-21T10:38:07.331Z</time></trkpt><trkpt lat="39.5884417" lon="8.5243867"><ele>307.0</ele><time>2026-04-21T10:38:09.331Z</time></trkpt><trkpt lat="39.5884717" lon="8.524295"><ele>307.0</ele><time>2026-04-21T10:38:10.332Z</time></trkpt><trkpt lat="39.5884883" lon="8.5241867"><ele>308.2857142857143</ele><time>2026-04-21T10:38:11.331Z</time></trkpt><trkpt lat="39.588505" lon="8.52408"><ele>309.57142857142856</ele><time>2026-04-21T10:38:12.331Z</time></trkpt><trkpt lat="39.58853" lon="8.5240033"><ele>310.8571428571429</ele><time>2026-04-21T10:38:13.331Z</time></trkpt><trkpt lat="39.5885767" lon="8.5239333"><ele>312.1428571428571</ele><time>2026-04-21T10:38:14.331Z</time></trkpt><trkpt lat="39.588635" lon="8.5238883"><ele>313.42857142857144</ele><time>2026-04-21T10:38:15.332Z</time></trkpt><trkpt lat="39.5887017" lon="8.5238617"><ele>314.7142857142857</ele><time>2026-04-21T10:38:16.331Z</time></trkpt><trkpt lat="39.5887667" lon="8.52381"><ele>316.0</ele><time>2026-04-21T10:38:17.332Z</time></trkpt><trkpt lat="39.588825" lon="8.5237317"><ele>314.2</ele><time>2026-04-21T10:38:18.331Z</time></trkpt><trkpt lat="39.5888783" lon="8.5236267"><ele>312.40000000000003</ele><time>2026-04-21T10:38:19.332Z</time></trkpt><trkpt lat="39.5889267" lon="8.523515"><ele>310.6</ele><time>2026-04-21T10:38:20.332Z</time></trkpt><trkpt lat="39.5889733" lon="8.5233933"><ele>308.8</ele><time>2026-04-21T10:38:21.332Z</time></trkpt><trkpt lat="39.58903" lon="8.5232533"><ele>307.0</ele><time>2026-04-21T10:38:22.332Z</time></trkpt><trkpt lat="39.5890817" lon="8.5231167"><ele>307.0</ele><time>2026-04-21T10:38:23.332Z</time></trkpt><trkpt lat="39.5891267" lon="8.5229967"><ele>307.0</ele><time>2026-04-21T10:38:24.331Z</time></trkpt><trkpt lat="39.58916" lon="8.5228967"><ele>307.0</ele><time>2026-04-21T10:38:25.331Z</time></trkpt><trkpt lat="39.5891833" lon="8.5227917"><ele>307.0</ele><time>2026-04-21T10:38:26.332Z</time></trkpt><trkpt lat="39.5892083" lon="8.5226917"><ele>307.0</ele><time>2026-04-21T10:38:27.331Z</time></trkpt><trkpt lat="39.5892233" lon="8.5226117"><ele>307.0</ele><time>2026-04-21T10:38:28.331Z</time></trkpt><trkpt lat="39.5892233" lon="8.52247"><ele>310.0</ele><time>2026-04-21T10:38:30.331Z</time></trkpt><trkpt lat="39.5891883" lon="8.5223233"><ele>313.0</ele><time>2026-04-21T10:38:32.332Z</time></trkpt><trkpt lat="39.58917" lon="8.5222433"><ele>316.0</ele><time>2026-04-21T10:38:33.332Z</time></trkpt><trkpt lat="39.58909" lon="8.5221017"><ele>319.0</ele><time>2026-04-21T10:38:35.332Z</time></trkpt><trkpt lat="39.58903" lon="8.5220383"><ele>322.0</ele><time>2026-04-21T10:38:36.332Z</time></trkpt><trkpt lat="39.5889667" lon="8.52197"><ele>322.66666666666663</ele><time>2026-04-21T10:38:37.332Z</time></trkpt><trkpt lat="39.5889067" lon="8.521895"><ele>323.3333333333333</ele><time>2026-04-21T10:38:38.332Z</time></trkpt><trkpt lat="39.58885" lon="8.5218217"><ele>324.0</ele><time>2026-04-21T10:38:39.332Z</time></trkpt><trkpt lat="39.588795" lon="8.5217567"><ele>324.6666666666667</ele><time>2026-04-21T10:38:40.331Z</time></trkpt><trkpt lat="39.588745" lon="8.521695"><ele>325.33333333333337</ele><time>2026-04-21T10:38:41.331Z</time></trkpt><trkpt lat="39.5886517" lon="8.5216317"><ele>326.0</ele><time>2026-04-21T10:38:43.331Z</time></trkpt><trkpt lat="39.5885383" lon="8.5216633"><ele>327.1666666666667</ele><time>2026-04-21T10:38:45.331Z</time></trkpt><trkpt lat="39.5884833" lon="8.521735"><ele>328.33333333333337</ele><time>2026-04-21T10:38:46.332Z</time></trkpt><trkpt lat="39.5884333" lon="8.521835"><ele>329.5</ele><time>2026-04-21T10:38:47.331Z</time></trkpt><trkpt lat="39.5883817" lon="8.521935"><ele>330.6666666666667</ele><time>2026-04-21T10:38:48.331Z</time></trkpt><trkpt lat="39.5883233" lon="8.522025"><ele>331.8333333333333</ele><time>2026-04-21T10:38:49.331Z</time></trkpt><trkpt lat="39.5882583" lon="8.522115"><ele>333.0</ele><time>2026-04-21T10:38:50.331Z</time></trkpt><trkpt lat="39.5881933" lon="8.5221933"><ele>334.42857142857144</ele><time>2026-04-21T10:38:51.331Z</time></trkpt><trkpt lat="39.5881333" lon="8.5222683"><ele>335.85714285714283</ele><time>2026-04-21T10:38:52.332Z</time></trkpt><trkpt lat="39.5880733" lon="8.522325"><ele>337.2857142857143</ele><time>2026-04-21T10:38:53.332Z</time></trkpt><trkpt lat="39.588015" lon="8.522365"><ele>338.7142857142857</ele><time>2026-04-21T10:38:54.331Z</time></trkpt><trkpt lat="39.5879517" lon="8.5223817"><ele>340.1428571428571</ele><time>2026-04-21T10:38:55.331Z</time></trkpt><trkpt lat="39.5878817" lon="8.5223817"><ele>341.57142857142856</ele><time>2026-04-21T10:38:56.332Z</time></trkpt><trkpt lat="39.587805" lon="8.52237"><ele>343.0</ele><time>2026-04-21T10:38:57.331Z</time></trkpt><trkpt lat="39.5877183" lon="8.522355"><ele>344.16666666666663</ele><time>2026-04-21T10:38:58.332Z</time></trkpt><trkpt lat="39.5876317" lon="8.52234"><ele>345.3333333333333</ele><time>2026-04-21T10:38:59.332Z</time></trkpt><trkpt lat="39.587545" lon="8.5223267"><ele>346.5</ele><time>2026-04-21T10:39:00.331Z</time></trkpt><trkpt lat="39.5874617" lon="8.5223183"><ele>347.6666666666667</ele><time>2026-04-21T10:39:01.332Z</time></trkpt><trkpt lat="39.58738" lon="8.5223317"><ele>348.83333333333337</ele><time>2026-04-21T10:39:02.332Z</time></trkpt><trkpt lat="39.58731" lon="8.5223617"><ele>350.0</ele><time>2026-04-21T10:39:03.332Z</time></trkpt><trkpt lat="39.5872333" lon="8.5224133"><ele>350.0</ele><time>2026-04-21T10:39:04.332Z</time></trkpt><trkpt lat="39.5871583" lon="8.522485"><ele>350.0</ele><time>2026-04-21T10:39:05.332Z</time></trkpt><trkpt lat="39.587085" lon="8.522565"><ele>350.0</ele><time>2026-04-21T10:39:06.332Z</time></trkpt><trkpt lat="39.5870117" lon="8.52265"><ele>350.0</ele><time>2026-04-21T10:39:07.332Z</time></trkpt><trkpt lat="39.5869383" lon="8.5227283"><ele>350.0</ele><time>2026-04-21T10:39:08.332Z</time></trkpt><trkpt lat="39.5868633" lon="8.5227933"><ele>352.0</ele><time>2026-04-21T10:39:09.331Z</time></trkpt><trkpt lat="39.58679" lon="8.5228483"><ele>354.0</ele><time>2026-04-21T10:39:10.332Z</time></trkpt><trkpt lat="39.5867283" lon="8.5228883"><ele>356.0</ele><time>2026-04-21T10:39:11.332Z</time></trkpt><trkpt lat="39.5866483" lon="8.52293"><ele>358.0</ele><time>2026-04-21T10:39:13.332Z</time></trkpt><trkpt lat="39.5865817" lon="8.5228917"><ele>360.0</ele><time>2026-04-21T10:39:15.331Z</time></trkpt><trkpt lat="39.5865433" lon="8.5227667"><ele>362.0</ele><time>2026-04-21T10:39:17.331Z</time></trkpt><trkpt lat="39.5865483" lon="8.5226733"><ele>362.0</ele><time>2026-04-21T10:39:18.332Z</time></trkpt><trkpt lat="39.5865517" lon="8.5225767"><ele>362.0</ele><time>2026-04-21T10:39:19.332Z</time></trkpt><trkpt lat="39.586535" lon="8.5224683"><ele>362.0</ele><time>2026-04-21T10:39:20.332Z</time></trkpt><trkpt lat="39.5865083" lon="8.5223617"><ele>362.0</ele><time>2026-04-21T10:39:21.332Z</time></trkpt><trkpt lat="39.5864717" lon="8.5222583"><ele>362.0</ele><time>2026-04-21T10:39:22.332Z</time></trkpt><trkpt lat="39.5864133" lon="8.522155"><ele>362.0</ele><time>2026-04-21T10:39:23.331Z</time></trkpt><trkpt lat="39.586355" lon="8.5220567"><ele>361.6</ele><time>2026-04-21T10:39:24.331Z</time></trkpt><trkpt lat="39.5862933" lon="8.5219583"><ele>361.20000000000005</ele><time>2026-04-21T10:39:25.332Z</time></trkpt><trkpt lat="39.5862283" lon="8.5218667"><ele>360.8</ele><time>2026-04-21T10:39:26.331Z</time></trkpt><trkpt lat="39.5861567" lon="8.52178"><ele>360.4</ele><time>2026-04-21T10:39:27.332Z</time></trkpt><trkpt lat="39.5860883" lon="8.5216933"><ele>360.0</ele><time>2026-04-21T10:39:28.331Z</time></trkpt><trkpt lat="39.5860233" lon="8.5216183"><ele>364.2</ele><time>2026-04-21T10:39:29.331Z</time></trkpt><trkpt lat="39.5859483" lon="8.5215583"><ele>368.4</ele><time>2026-04-21T10:39:30.332Z</time></trkpt><trkpt lat="39.58587" lon="8.521515"><ele>372.6</ele><time>2026-04-21T10:39:31.331Z</time></trkpt><trkpt lat="39.5858067" lon="8.5214717"><ele>376.8</ele><time>2026-04-21T10:39:32.331Z</time></trkpt><trkpt lat="39.5857217" lon="8.52139"><ele>381.0</ele><time>2026-04-21T10:39:34.332Z</time></trkpt><trkpt lat="39.5857517" lon="8.5212467"><ele>380.8333333333333</ele><time>2026-04-21T10:39:36.331Z</time></trkpt><trkpt lat="39.5857967" lon="8.5211617"><ele>380.6666666666667</ele><time>2026-04-21T10:39:37.331Z</time></trkpt><trkpt lat="39.5858267" lon="8.5210633"><ele>380.5</ele><time>2026-04-21T10:39:38.332Z</time></trkpt><trkpt lat="39.5858383" lon="8.520965"><ele>380.33333333333337</ele><time>2026-04-21T10:39:39.331Z</time></trkpt><trkpt lat="39.5858383" lon="8.52087"><ele>380.1666666666667</ele><time>2026-04-21T10:39:40.332Z</time></trkpt><trkpt lat="39.5858183" lon="8.5207817"><ele>380.0</ele><time>2026-04-21T10:39:41.331Z</time></trkpt><trkpt lat="39.58578" lon="8.52069"><ele>380.0</ele><time>2026-04-21T10:39:42.331Z</time></trkpt><trkpt lat="39.58573" lon="8.5206033"><ele>380.0</ele><time>2026-04-21T10:39:43.332Z</time></trkpt><trkpt lat="39.5856617" lon="8.5205233"><ele>380.0</ele><time>2026-04-21T10:39:44.332Z</time></trkpt><trkpt lat="39.585605" lon="8.5204583"><ele>380.0</ele><time>2026-04-21T10:39:45.332Z</time></trkpt><trkpt lat="39.5855533" lon="8.5203433"><ele>380.0</ele><time>2026-04-21T10:39:47.332Z</time></trkpt><trkpt lat="39.5856" lon="8.520205"><ele>381.6666666666667</ele><time>2026-04-21T10:39:49.331Z</time></trkpt><trkpt lat="39.58565" lon="8.5201383"><ele>383.33333333333337</ele><time>2026-04-21T10:39:50.332Z</time></trkpt><trkpt lat="39.58572" lon="8.5200817"><ele>385.0</ele><time>2026-04-21T10:39:51.332Z</time></trkpt><trkpt lat="39.585795" lon="8.5200333"><ele>386.6666666666667</ele><time>2026-04-21T10:39:52.331Z</time></trkpt><trkpt lat="39.5858767" lon="8.5199767"><ele>388.3333333333333</ele><time>2026-04-21T10:39:53.332Z</time></trkpt><trkpt lat="39.5859567" lon="8.5198933"><ele>390.0</ele><time>2026-04-21T10:39:54.331Z</time></trkpt><trkpt lat="39.58603" lon="8.5197983"><ele>390.0</ele><time>2026-04-21T10:39:55.332Z</time></trkpt><trkpt lat="39.5860983" lon="8.5197033"><ele>390.0</ele><time>2026-04-21T10:39:56.331Z</time></trkpt><trkpt lat="39.5861517" lon="8.5196283"><ele>390.0</ele><time>2026-04-21T10:39:57.332Z</time></trkpt><trkpt lat="39.586205" lon="8.5195567"><ele>390.0</ele><time>2026-04-21T10:39:58.332Z</time></trkpt><trkpt lat="39.5862667" lon="8.5194783"><ele>390.0</ele><time>2026-04-21T10:39:59.332Z</time></trkpt><trkpt lat="39.58633" lon="8.5193983"><ele>390.0</ele><time>2026-04-21T10:40:00.332Z</time></trkpt><trkpt lat="39.5864033" lon="8.519315"><ele>389.3333333333333</ele><time>2026-04-21T10:40:01.332Z</time></trkpt><trkpt lat="39.586465" lon="8.5192367"><ele>388.66666666666663</ele><time>2026-04-21T10:40:02.331Z</time></trkpt><trkpt lat="39.5865083" lon="8.5191717"><ele>388.0</ele><time>2026-04-21T10:40:03.332Z</time></trkpt><trkpt lat="39.586565" lon="8.5190683"><ele>387.3333333333333</ele><time>2026-04-21T10:40:05.332Z</time></trkpt><trkpt lat="39.5865517" lon="8.5189667"><ele>386.66666666666663</ele><time>2026-04-21T10:40:07.332Z</time></trkpt><trkpt lat="39.5864983" lon="8.5188617"><ele>386.0</ele><time>2026-04-21T10:40:09.332Z</time></trkpt><trkpt lat="39.5864433" lon="8.5188217"><ele>385.99999999999994</ele><time>2026-04-21T10:40:10.332Z</time></trkpt><trkpt lat="39.58637" lon="8.5187967"><ele>386.0</ele><time>2026-04-21T10:40:11.331Z</time></trkpt><trkpt lat="39.586295" lon="8.518795"><ele>386.0</ele><time>2026-04-21T10:40:12.332Z</time></trkpt><trkpt lat="39.586215" lon="8.5188"><ele>386.0</ele><time>2026-04-21T10:40:13.332Z</time></trkpt><trkpt lat="39.5861333" lon="8.518795"><ele>385.99999999999994</ele><time>2026-04-21T10:40:14.331Z</time></trkpt><trkpt lat="39.5860483" lon="8.51878"><ele>386.0</ele><time>2026-04-21T10:40:15.332Z</time></trkpt><trkpt lat="39.5859583" lon="8.5187517"><ele>388.0</ele><time>2026-04-21T10:40:16.331Z</time></trkpt><trkpt lat="39.5858617" lon="8.5187217"><ele>390.0</ele><time>2026-04-21T10:40:17.332Z</time></trkpt><trkpt lat="39.5857683" lon="8.5186917"><ele>392.0</ele><time>2026-04-21T10:40:18.331Z</time></trkpt><trkpt lat="39.5856667" lon="8.518675"><ele>394.0</ele><time>2026-04-21T10:40:19.331Z</time></trkpt><trkpt lat="39.5855567" lon="8.51867"><ele>396.0</ele><time>2026-04-21T10:40:20.332Z</time></trkpt><trkpt lat="39.5854533" lon="8.5186667"><ele>396.0</ele><time>2026-04-21T10:40:21.332Z</time></trkpt><trkpt lat="39.5853583" lon="8.518645"><ele>396.0</ele><time>2026-04-21T10:40:22.332Z</time></trkpt><trkpt lat="39.5852633" lon="8.5185933"><ele>396.0</ele><time>2026-04-21T10:40:23.332Z</time></trkpt><trkpt lat="39.585155" lon="8.5185167"><ele>396.0</ele><time>2026-04-21T10:40:24.332Z</time></trkpt><trkpt lat="39.58505" lon="8.5184283"><ele>396.0</ele><time>2026-04-21T10:40:25.332Z</time></trkpt><trkpt lat="39.584945" lon="8.518345"><ele>398.6</ele><time>2026-04-21T10:40:26.332Z</time></trkpt><trkpt lat="39.5848533" lon="8.518255"><ele>401.20000000000005</ele><time>2026-04-21T10:40:27.332Z</time></trkpt><trkpt lat="39.5847783" lon="8.51817"><ele>403.79999999999995</ele><time>2026-04-21T10:40:28.331Z</time></trkpt><trkpt lat="39.5847067" lon="8.51809"><ele>406.4</ele><time>2026-04-21T10:40:29.331Z</time></trkpt><trkpt lat="39.584645" lon="8.518025"><ele>409.0</ele><time>2026-04-21T10:40:30.332Z</time></trkpt><trkpt lat="39.58459" lon="8.5179683"><ele>408.33333333333337</ele><time>2026-04-21T10:40:31.331Z</time></trkpt><trkpt lat="39.584495" lon="8.517905"><ele>407.6666666666667</ele><time>2026-04-21T10:40:33.331Z</time></trkpt><trkpt lat="39.584425" lon="8.5178433"><ele>407.0</ele><time>2026-04-21T10:40:35.331Z</time></trkpt><trkpt lat="39.5843733" lon="8.5177783"><ele>406.33333333333337</ele><time>2026-04-21T10:40:38.331Z</time></trkpt><trkpt lat="39.58434" lon="8.5177"><ele>405.6666666666667</ele><time>2026-04-21T10:40:43.332Z</time></trkpt><trkpt lat="39.5843283" lon="8.5176167"><ele>405.0</ele><time>2026-04-21T10:40:45.331Z</time></trkpt><trkpt lat="39.5843133" lon="8.517475"><ele>405.0</ele><time>2026-04-21T10:40:47.332Z</time></trkpt><trkpt lat="39.584295" lon="8.5173183"><ele>405.0</ele><time>2026-04-21T10:40:49.331Z</time></trkpt><trkpt lat="39.5842867" lon="8.5172367"><ele>405.0</ele><time>2026-04-21T10:40:50.331Z</time></trkpt><trkpt lat="39.5842683" lon="8.51708"><ele>405.0</ele><time>2026-04-21T10:40:52.332Z</time></trkpt><trkpt lat="39.5842517" lon="8.516995"><ele>405.0</ele><time>2026-04-21T10:40:53.331Z</time></trkpt><trkpt lat="39.5842383" lon="8.516905"><ele>405.0</ele><time>2026-04-21T10:40:54.332Z</time></trkpt><trkpt lat="39.5842283" lon="8.51681"><ele>404.85714285714283</ele><time>2026-04-21T10:40:55.332Z</time></trkpt><trkpt lat="39.5842217" lon="8.5167167"><ele>404.7142857142857</ele><time>2026-04-21T10:40:56.332Z</time></trkpt><trkpt lat="39.5842233" lon="8.516625"><ele>404.57142857142856</ele><time>2026-04-21T10:40:57.332Z</time></trkpt><trkpt lat="39.5842317" lon="8.5165317"><ele>404.42857142857144</ele><time>2026-04-21T10:40:58.332Z</time></trkpt><trkpt lat="39.5842367" lon="8.5164317"><ele>404.2857142857143</ele><time>2026-04-21T10:40:59.332Z</time></trkpt><trkpt lat="39.5842433" lon="8.51633"><ele>404.1428571428571</ele><time>2026-04-21T10:41:00.331Z</time></trkpt><trkpt lat="39.5842367" lon="8.5162367"><ele>404.0</ele><time>2026-04-21T10:41:01.331Z</time></trkpt><trkpt lat="39.5842333" lon="8.5161383"><ele>402.66666666666663</ele><time>2026-04-21T10:41:02.332Z</time></trkpt><trkpt lat="39.5842283" lon="8.5160433"><ele>401.3333333333333</ele><time>2026-04-21T10:41:03.332Z</time></trkpt><trkpt lat="39.5842217" lon="8.5159517"><ele>400.0</ele><time>2026-04-21T10:41:04.332Z</time></trkpt><trkpt lat="39.5842167" lon="8.5158567"><ele>398.66666666666663</ele><time>2026-04-21T10:41:05.331Z</time></trkpt><trkpt lat="39.584205" lon="8.51575"><ele>397.3333333333333</ele><time>2026-04-21T10:41:06.331Z</time></trkpt><trkpt lat="39.5841917" lon="8.5156467"><ele>396.0</ele><time>2026-04-21T10:41:07.331Z</time></trkpt><trkpt lat="39.5841733" lon="8.515545"><ele>396.0</ele><time>2026-04-21T10:41:08.331Z</time></trkpt><trkpt lat="39.58415" lon="8.515445"><ele>396.0</ele><time>2026-04-21T10:41:09.332Z</time></trkpt><trkpt lat="39.5841267" lon="8.515345"><ele>396.0</ele><time>2026-04-21T10:41:10.332Z</time></trkpt><trkpt lat="39.5841017" lon="8.5152583"><ele>396.0</ele><time>2026-04-21T10:41:11.332Z</time></trkpt><trkpt lat="39.58408" lon="8.5151717"><ele>396.0</ele><time>2026-04-21T10:41:12.331Z</time></trkpt><trkpt lat="39.5840567" lon="8.5150917"><ele>396.0</ele><time>2026-04-21T10:41:13.331Z</time></trkpt><trkpt lat="39.5840217" lon="8.5149417"><ele>393.8</ele><time>2026-04-21T10:41:15.332Z</time></trkpt><trkpt lat="39.584" lon="8.5148117"><ele>391.6</ele><time>2026-04-21T10:41:17.332Z</time></trkpt><trkpt lat="39.5839683" lon="8.51472"><ele>389.4</ele><time>2026-04-21T10:41:19.332Z</time></trkpt><trkpt lat="39.5839117" lon="8.5146417"><ele>387.2</ele><time>2026-04-21T10:41:22.332Z</time></trkpt><trkpt lat="39.58385" lon="8.5147083"><ele>385.0</ele><time>2026-04-21T10:41:25.331Z</time></trkpt><trkpt lat="39.5837917" lon="8.514835"><ele>385.0</ele><time>2026-04-21T10:41:27.331Z</time></trkpt><trkpt lat="39.583715" lon="8.5149583"><ele>385.0</ele><time>2026-04-21T10:41:29.332Z</time></trkpt><trkpt lat="39.583675" lon="8.5150217"><ele>385.0</ele><time>2026-04-21T10:41:30.331Z</time></trkpt><trkpt lat="39.5836083" lon="8.5151333"><ele>385.0</ele><time>2026-04-21T10:41:32.332Z</time></trkpt><trkpt lat="39.5835683" lon="8.515285"><ele>385.0</ele><time>2026-04-21T10:41:34.332Z</time></trkpt><trkpt lat="39.5835517" lon="8.515445"><ele>386.00000000000006</ele><time>2026-04-21T10:41:36.331Z</time></trkpt><trkpt lat="39.5835367" lon="8.5155667"><ele>387.0</ele><time>2026-04-21T10:41:38.33Z</time></trkpt><trkpt lat="39.5835017" lon="8.5154533"><ele>388.0</ele><time>2026-04-21T10:41:43.33Z</time></trkpt><trkpt lat="39.5835233" lon="8.5153483"><ele>389.0</ele><time>2026-04-21T10:41:45.331Z</time></trkpt><trkpt lat="39.58353" lon="8.5152633"><ele>390.00000000000006</ele><time>2026-04-21T10:41:47.33Z</time></trkpt><trkpt lat="39.5835333" lon="8.51518"><ele>391.0</ele><time>2026-04-21T10:41:50.331Z</time></trkpt><trkpt lat="39.5835467" lon="8.5150767"><ele>390.00000000000006</ele><time>2026-04-21T10:41:52.331Z</time></trkpt><trkpt lat="39.5835867" lon="8.5149533"><ele>389.0</ele><time>2026-04-21T10:41:54.331Z</time></trkpt><trkpt lat="39.5836133" lon="8.51487"><ele>388.0</ele><time>2026-04-21T10:41:55.33Z</time></trkpt><trkpt lat="39.5836517" lon="8.514785"><ele>387.0</ele><time>2026-04-21T10:41:56.331Z</time></trkpt><trkpt lat="39.58369" lon="8.5147033"><ele>386.00000000000006</ele><time>2026-04-21T10:41:57.331Z</time></trkpt><trkpt lat="39.5837183" lon="8.514625"><ele>385.0</ele><time>2026-04-21T10:41:58.331Z</time></trkpt><trkpt lat="39.5837433" lon="8.5145467"><ele>383.83333333333337</ele><time>2026-04-21T10:41:59.331Z</time></trkpt><trkpt lat="39.5837783" lon="8.5143933"><ele>382.6666666666667</ele><time>2026-04-21T10:42:01.331Z</time></trkpt><trkpt lat="39.5837933" lon="8.5143067"><ele>381.5</ele><time>2026-04-21T10:42:02.331Z</time></trkpt><trkpt lat="39.5838117" lon="8.5142233"><ele>380.33333333333337</ele><time>2026-04-21T10:42:03.33Z</time></trkpt><trkpt lat="39.5838267" lon="8.5141417"><ele>379.1666666666667</ele><time>2026-04-21T10:42:04.331Z</time></trkpt><trkpt lat="39.5838383" lon="8.5140567"><ele>378.0</ele><time>2026-04-21T10:42:05.331Z</time></trkpt><trkpt lat="39.583855" lon="8.51397"><ele>378.0</ele><time>2026-04-21T10:42:06.331Z</time></trkpt><trkpt lat="39.5838783" lon="8.51382"><ele>378.0</ele><time>2026-04-21T10:42:08.331Z</time></trkpt><trkpt lat="39.58389" lon="8.5137383"><ele>378.0</ele><time>2026-04-21T10:42:09.331Z</time></trkpt><trkpt lat="39.5839217" lon="8.5135883"><ele>378.0</ele><time>2026-04-21T10:42:11.331Z</time></trkpt><trkpt lat="39.583955" lon="8.5135067"><ele>378.0</ele><time>2026-04-21T10:42:12.33Z</time></trkpt><trkpt lat="39.5839983" lon="8.513415"><ele>377.5</ele><time>2026-04-21T10:42:13.331Z</time></trkpt><trkpt lat="39.5840433" lon="8.51333"><ele>377.0</ele><time>2026-04-21T10:42:14.331Z</time></trkpt><trkpt lat="39.5840733" lon="8.5132433"><ele>376.5</ele><time>2026-04-21T10:42:15.331Z</time></trkpt><trkpt lat="39.584095" lon="8.5131633"><ele>376.0</ele><time>2026-04-21T10:42:16.33Z</time></trkpt><trkpt lat="39.5840867" lon="8.5130033"><ele>375.5</ele><time>2026-04-21T10:42:18.33Z</time></trkpt><trkpt lat="39.5840683" lon="8.512925"><ele>375.0</ele><time>2026-04-21T10:42:19.33Z</time></trkpt><trkpt lat="39.58405" lon="8.5127833"><ele>375.0</ele><time>2026-04-21T10:42:21.33Z</time></trkpt><trkpt lat="39.58405" lon="8.5126367"><ele>375.0</ele><time>2026-04-21T10:42:23.331Z</time></trkpt><trkpt lat="39.584025" lon="8.51251"><ele>375.0</ele><time>2026-04-21T10:42:25.331Z</time></trkpt><trkpt lat="39.5839867" lon="8.51238"><ele>375.0</ele><time>2026-04-21T10:42:27.33Z</time></trkpt><trkpt lat="39.5839283" lon="8.5123317"><ele>375.0</ele><time>2026-04-21T10:42:29.331Z</time></trkpt><trkpt lat="39.5838233" lon="8.5123983"><ele>375.0</ele><time>2026-04-21T10:42:31.331Z</time></trkpt><trkpt lat="39.5837717" lon="8.51245"><ele>375.0</ele><time>2026-04-21T10:42:32.33Z</time></trkpt><trkpt lat="39.5836583" lon="8.5125"><ele>375.0</ele><time>2026-04-21T10:42:34.33Z</time></trkpt><trkpt lat="39.583545" lon="8.51258"><ele>375.0</ele><time>2026-04-21T10:42:36.331Z</time></trkpt><trkpt lat="39.5834883" lon="8.5126183"><ele>375.0</ele><time>2026-04-21T10:42:37.331Z</time></trkpt><trkpt lat="39.5833733" lon="8.5126867"><ele>372.4</ele><time>2026-04-21T10:42:39.331Z</time></trkpt><trkpt lat="39.58331" lon="8.5127117"><ele>369.8</ele><time>2026-04-21T10:42:40.33Z</time></trkpt><trkpt lat="39.58318" lon="8.5127267"><ele>367.20000000000005</ele><time>2026-04-21T10:42:42.33Z</time></trkpt><trkpt lat="39.5831167" lon="8.51272"><ele>364.6</ele><time>2026-04-21T10:42:43.331Z</time></trkpt><trkpt lat="39.5830017" lon="8.5126583"><ele>362.0</ele><time>2026-04-21T10:42:45.331Z</time></trkpt><trkpt lat="39.5829217" lon="8.5125567"><ele>362.0</ele><time>2026-04-21T10:42:47.331Z</time></trkpt><trkpt lat="39.5828683" lon="8.5124283"><ele>362.0</ele><time>2026-04-21T10:42:49.33Z</time></trkpt><trkpt lat="39.58279" lon="8.5123933"><ele>362.0</ele><time>2026-04-21T10:42:51.33Z</time></trkpt><trkpt lat="39.582745" lon="8.5124617"><ele>362.0</ele><time>2026-04-21T10:42:53.331Z</time></trkpt><trkpt lat="39.5827917" lon="8.5125917"><ele>362.0</ele><time>2026-04-21T10:42:55.33Z</time></trkpt><trkpt lat="39.5828383" lon="8.5126817"><ele>362.0</ele><time>2026-04-21T10:42:56.33Z</time></trkpt><trkpt lat="39.5828883" lon="8.51278"><ele>362.0</ele><time>2026-04-21T10:42:57.331Z</time></trkpt><trkpt lat="39.582945" lon="8.512865"><ele>362.0</ele><time>2026-04-21T10:42:58.33Z</time></trkpt><trkpt lat="39.58301" lon="8.5129217"><ele>362.0</ele><time>2026-04-21T10:42:59.33Z</time></trkpt><trkpt lat="39.5830867" lon="8.5129567"><ele>362.0</ele><time>2026-04-21T10:43:00.33Z</time></trkpt><trkpt lat="39.5831717" lon="8.5129717"><ele>362.0</ele><time>2026-04-21T10:43:01.331Z</time></trkpt><trkpt lat="39.5832533" lon="8.5129917"><ele>359.20000000000005</ele><time>2026-04-21T10:43:02.331Z</time></trkpt><trkpt lat="39.5833283" lon="8.5130033"><ele>356.4</ele><time>2026-04-21T10:43:03.33Z</time></trkpt><trkpt lat="39.5834317" lon="8.51306"><ele>353.6</ele><time>2026-04-21T10:43:05.331Z</time></trkpt><trkpt lat="39.5834583" lon="8.5131717"><ele>350.79999999999995</ele><time>2026-04-21T10:43:07.33Z</time></trkpt><trkpt lat="39.583405" lon="8.5132917"><ele>348.0</ele><time>2026-04-21T10:43:09.331Z</time></trkpt><trkpt lat="39.58336" lon="8.51336"><ele>348.0</ele><time>2026-04-21T10:43:10.33Z</time></trkpt><trkpt lat="39.5833083" lon="8.5134417"><ele>348.0</ele><time>2026-04-21T10:43:11.33Z</time></trkpt><trkpt lat="39.5832567" lon="8.5135333"><ele>348.0</ele><time>2026-04-21T10:43:12.33Z</time></trkpt><trkpt lat="39.583205" lon="8.5136417"><ele>348.0</ele><time>2026-04-21T10:43:13.331Z</time></trkpt><trkpt lat="39.5831517" lon="8.51375"><ele>348.0</ele><time>2026-04-21T10:43:14.331Z</time></trkpt><trkpt lat="39.5830983" lon="8.5138483"><ele>349.0</ele><time>2026-04-21T10:43:15.33Z</time></trkpt><trkpt lat="39.5830433" lon="8.5139383"><ele>350.0</ele><time>2026-04-21T10:43:16.331Z</time></trkpt><trkpt lat="39.5829717" lon="8.5140267"><ele>351.0</ele><time>2026-04-21T10:43:17.331Z</time></trkpt><trkpt lat="39.582905" lon="8.5141283"><ele>352.0</ele><time>2026-04-21T10:43:18.331Z</time></trkpt><trkpt lat="39.58284" lon="8.514235"><ele>353.0</ele><time>2026-04-21T10:43:19.33Z</time></trkpt><trkpt lat="39.5827867" lon="8.514345"><ele>349.6666666666667</ele><time>2026-04-21T10:43:20.331Z</time></trkpt><trkpt lat="39.582745" lon="8.5144517"><ele>346.33333333333337</ele><time>2026-04-21T10:43:21.331Z</time></trkpt><trkpt lat="39.582715" lon="8.5145583"><ele>343.0</ele><time>2026-04-21T10:43:22.331Z</time></trkpt><trkpt lat="39.5827" lon="8.514655"><ele>339.6666666666667</ele><time>2026-04-21T10:43:23.33Z</time></trkpt><trkpt lat="39.5826917" lon="8.5147483"><ele>336.3333333333333</ele><time>2026-04-21T10:43:24.331Z</time></trkpt><trkpt lat="39.582675" lon="8.514835"><ele>333.0</ele><time>2026-04-21T10:43:25.33Z</time></trkpt><trkpt lat="39.582645" lon="8.5149117"><ele>333.0</ele><time>2026-04-21T10:43:26.331Z</time></trkpt><trkpt lat="39.5825983" lon="8.514975"><ele>333.0</ele><time>2026-04-21T10:43:27.331Z</time></trkpt><trkpt lat="39.5825383" lon="8.515025"><ele>333.0</ele><time>2026-04-21T10:43:28.331Z</time></trkpt><trkpt lat="39.5824683" lon="8.5150717"><ele>333.0</ele><time>2026-04-21T10:43:29.33Z</time></trkpt><trkpt lat="39.5823867" lon="8.515115"><ele>333.0</ele><time>2026-04-21T10:43:30.33Z</time></trkpt><trkpt lat="39.5823067" lon="8.5151633"><ele>333.0</ele><time>2026-04-21T10:43:31.33Z</time></trkpt><trkpt lat="39.5822283" lon="8.5152067"><ele>333.0</ele><time>2026-04-21T10:43:32.33Z</time></trkpt><trkpt lat="39.5821533" lon="8.5152567"><ele>333.0</ele><time>2026-04-21T10:43:33.331Z</time></trkpt><trkpt lat="39.5820817" lon="8.515305"><ele>333.0</ele><time>2026-04-21T10:43:34.33Z</time></trkpt><trkpt lat="39.5820117" lon="8.5153617"><ele>333.0</ele><time>2026-04-21T10:43:35.331Z</time></trkpt><trkpt lat="39.5819433" lon="8.51543"><ele>333.0</ele><time>2026-04-21T10:43:36.331Z</time></trkpt><trkpt lat="39.581885" lon="8.5155033"><ele>333.0</ele><time>2026-04-21T10:43:37.331Z</time></trkpt><trkpt lat="39.5818317" lon="8.51559"><ele>331.0</ele><time>2026-04-21T10:43:38.33Z</time></trkpt><trkpt lat="39.5817883" lon="8.5156917"><ele>329.0</ele><time>2026-04-21T10:43:39.331Z</time></trkpt><trkpt lat="39.5817517" lon="8.5157933"><ele>327.0</ele><time>2026-04-21T10:43:40.33Z</time></trkpt><trkpt lat="39.5817267" lon="8.5159033"><ele>325.0</ele><time>2026-04-21T10:43:41.331Z</time></trkpt><trkpt lat="39.5817133" lon="8.5160183"><ele>323.0</ele><time>2026-04-21T10:43:42.331Z</time></trkpt><trkpt lat="39.58171" lon="8.51614"><ele>321.0</ele><time>2026-04-21T10:43:43.331Z</time></trkpt><trkpt lat="39.5817283" lon="8.51626"><ele>320.6666666666667</ele><time>2026-04-21T10:43:44.33Z</time></trkpt><trkpt lat="39.5817483" lon="8.5163733"><ele>320.3333333333333</ele><time>2026-04-21T10:43:45.331Z</time></trkpt><trkpt lat="39.5817633" lon="8.5164867"><ele>320.0</ele><time>2026-04-21T10:43:46.33Z</time></trkpt><trkpt lat="39.58178" lon="8.5165967"><ele>319.66666666666663</ele><time>2026-04-21T10:43:47.33Z</time></trkpt><trkpt lat="39.5818033" lon="8.5166983"><ele>319.3333333333333</ele><time>2026-04-21T10:43:48.331Z</time></trkpt><trkpt lat="39.5818417" lon="8.516795"><ele>319.0</ele><time>2026-04-21T10:43:49.331Z</time></trkpt><trkpt lat="39.5818917" lon="8.51688"><ele>319.0</ele><time>2026-04-21T10:43:50.331Z</time></trkpt><trkpt lat="39.5819417" lon="8.5169467"><ele>319.0</ele><time>2026-04-21T10:43:51.331Z</time></trkpt><trkpt lat="39.5819883" lon="8.5170033"><ele>319.0</ele><time>2026-04-21T10:43:52.33Z</time></trkpt><trkpt lat="39.582015" lon="8.5171183"><ele>319.0</ele><time>2026-04-21T10:43:54.331Z</time></trkpt><trkpt lat="39.58195" lon="8.51724"><ele>319.0</ele><time>2026-04-21T10:43:56.33Z</time></trkpt><trkpt lat="39.5818983" lon="8.5173117"><ele>319.0</ele><time>2026-04-21T10:43:57.33Z</time></trkpt><trkpt lat="39.58185" lon="8.5173817"><ele>319.0</ele><time>2026-04-21T10:43:58.331Z</time></trkpt><trkpt lat="39.5818017" lon="8.517445"><ele>319.0</ele><time>2026-04-21T10:43:59.331Z</time></trkpt><trkpt lat="39.5817533" lon="8.51751"><ele>319.0</ele><time>2026-04-21T10:44:00.33Z</time></trkpt><trkpt lat="39.5817017" lon="8.517585"><ele>319.0</ele><time>2026-04-21T10:44:01.331Z</time></trkpt><trkpt lat="39.5816567" lon="8.5176583"><ele>319.0</ele><time>2026-04-21T10:44:02.33Z</time></trkpt><trkpt lat="39.58162" lon="8.517735"><ele>319.0</ele><time>2026-04-21T10:44:03.331Z</time></trkpt><trkpt lat="39.5815617" lon="8.517865"><ele>319.0</ele><time>2026-04-21T10:44:05.331Z</time></trkpt><trkpt lat="39.5814883" lon="8.51791"><ele>319.0</ele><time>2026-04-21T10:44:07.331Z</time></trkpt><trkpt lat="39.5813967" lon="8.5177983"><ele>319.0</ele><time>2026-04-21T10:44:09.331Z</time></trkpt><trkpt lat="39.5813517" lon="8.517715"><ele>319.0</ele><time>2026-04-21T10:44:10.331Z</time></trkpt><trkpt lat="39.5812917" lon="8.5176317"><ele>319.0</ele><time>2026-04-21T10:44:11.331Z</time></trkpt><trkpt lat="39.5812233" lon="8.517565"><ele>318.0</ele><time>2026-04-21T10:44:12.331Z</time></trkpt><trkpt lat="39.581155" lon="8.5175083"><ele>317.0</ele><time>2026-04-21T10:44:13.331Z</time></trkpt><trkpt lat="39.581095" lon="8.5174533"><ele>316.0</ele><time>2026-04-21T10:44:14.33Z</time></trkpt><trkpt lat="39.5810367" lon="8.5174"><ele>315.0</ele><time>2026-04-21T10:44:15.331Z</time></trkpt><trkpt lat="39.5809683" lon="8.51737"><ele>314.0</ele><time>2026-04-21T10:44:16.33Z</time></trkpt><trkpt lat="39.5808933" lon="8.5173517"><ele>313.0</ele><time>2026-04-21T10:44:17.331Z</time></trkpt><trkpt lat="39.58082" lon="8.5173533"><ele>312.0</ele><time>2026-04-21T10:44:18.33Z</time></trkpt><trkpt lat="39.5807467" lon="8.5173767"><ele>312.0</ele><time>2026-04-21T10:44:19.331Z</time></trkpt><trkpt lat="39.580675" lon="8.5174083"><ele>312.0</ele><time>2026-04-21T10:44:20.331Z</time></trkpt><trkpt lat="39.580615" lon="8.517465"><ele>312.0</ele><time>2026-04-21T10:44:21.33Z</time></trkpt><trkpt lat="39.5805617" lon="8.5175217"><ele>312.0</ele><time>2026-04-21T10:44:22.33Z</time></trkpt><trkpt lat="39.5804767" lon="8.51756"><ele>312.0</ele><time>2026-04-21T10:44:24.331Z</time></trkpt><trkpt lat="39.58041" lon="8.517505"><ele>312.0</ele><time>2026-04-21T10:44:26.33Z</time></trkpt><trkpt lat="39.5803633" lon="8.5174383"><ele>312.8</ele><time>2026-04-21T10:44:27.33Z</time></trkpt><trkpt lat="39.5803" lon="8.5173717"><ele>313.6</ele><time>2026-04-21T10:44:28.33Z</time></trkpt><trkpt lat="39.58022" lon="8.517325"><ele>314.40000000000003</ele><time>2026-04-21T10:44:29.331Z</time></trkpt><trkpt lat="39.5801233" lon="8.5172967"><ele>315.2</ele><time>2026-04-21T10:44:30.331Z</time></trkpt><trkpt lat="39.5800267" lon="8.5172933"><ele>316.0</ele><time>2026-04-21T10:44:31.331Z</time></trkpt><trkpt lat="39.5799267" lon="8.517315"><ele>316.0</ele><time>2026-04-21T10:44:32.331Z</time></trkpt><trkpt lat="39.5798267" lon="8.5173517"><ele>316.0</ele><time>2026-04-21T10:44:33.331Z</time></trkpt><trkpt lat="39.5797283" lon="8.5173917"><ele>316.0</ele><time>2026-04-21T10:44:34.33Z</time></trkpt><trkpt lat="39.5796317" lon="8.5174117"><ele>316.0</ele><time>2026-04-21T10:44:35.33Z</time></trkpt><trkpt lat="39.5795367" lon="8.51741"><ele>316.0</ele><time>2026-04-21T10:44:36.331Z</time></trkpt><trkpt lat="39.5794417" lon="8.5173983"><ele>317.6</ele><time>2026-04-21T10:44:37.331Z</time></trkpt><trkpt lat="39.5793383" lon="8.517375"><ele>319.20000000000005</ele><time>2026-04-21T10:44:38.331Z</time></trkpt><trkpt lat="39.579245" lon="8.5173433"><ele>320.79999999999995</ele><time>2026-04-21T10:44:39.331Z</time></trkpt><trkpt lat="39.5791533" lon="8.5172983"><ele>322.4</ele><time>2026-04-21T10:44:40.33Z</time></trkpt><trkpt lat="39.5790533" lon="8.5172433"><ele>324.0</ele><time>2026-04-21T10:44:41.33Z</time></trkpt><trkpt lat="39.5789517" lon="8.5171767"><ele>324.0</ele><time>2026-04-21T10:44:42.331Z</time></trkpt><trkpt lat="39.57885" lon="8.5171083"><ele>324.0</ele><time>2026-04-21T10:44:43.331Z</time></trkpt><trkpt lat="39.5787717" lon="8.5170483"><ele>324.0</ele><time>2026-04-21T10:44:44.33Z</time></trkpt><trkpt lat="39.5787" lon="8.5170083"><ele>324.0</ele><time>2026-04-21T10:44:45.331Z</time></trkpt><trkpt lat="39.5786317" lon="8.5169767"><ele>324.0</ele><time>2026-04-21T10:44:46.33Z</time></trkpt><trkpt lat="39.578555" lon="8.5169483"><ele>324.0</ele><time>2026-04-21T10:44:47.331Z</time></trkpt><trkpt lat="39.5784617" lon="8.5169067"><ele>323.4</ele><time>2026-04-21T10:44:48.33Z</time></trkpt><trkpt lat="39.5783717" lon="8.516855"><ele>322.79999999999995</ele><time>2026-04-21T10:44:49.331Z</time></trkpt><trkpt lat="39.57828" lon="8.5168133"><ele>322.20000000000005</ele><time>2026-04-21T10:44:50.33Z</time></trkpt><trkpt lat="39.5781817" lon="8.51677"><ele>321.6</ele><time>2026-04-21T10:44:51.331Z</time></trkpt><trkpt lat="39.57807" lon="8.5167417"><ele>321.0</ele><time>2026-04-21T10:44:52.331Z</time></trkpt><trkpt lat="39.577955" lon="8.5167383"><ele>319.40000000000003</ele><time>2026-04-21T10:44:53.33Z</time></trkpt><trkpt lat="39.5778433" lon="8.5167283"><ele>317.8</ele><time>2026-04-21T10:44:54.331Z</time></trkpt><trkpt lat="39.577735" lon="8.5167033"><ele>316.20000000000005</ele><time>2026-04-21T10:44:55.331Z</time></trkpt><trkpt lat="39.5776217" lon="8.51667"><ele>314.6</ele><time>2026-04-21T10:44:56.33Z</time></trkpt><trkpt lat="39.5775217" lon="8.516635"><ele>313.0</ele><time>2026-04-21T10:44:57.331Z</time></trkpt><trkpt lat="39.577425" lon="8.5166017"><ele>313.0</ele><time>2026-04-21T10:44:58.33Z</time></trkpt><trkpt lat="39.577355" lon="8.5165667"><ele>313.0</ele><time>2026-04-21T10:44:59.331Z</time></trkpt><trkpt lat="39.5772967" lon="8.516495"><ele>313.0</ele><time>2026-04-21T10:45:00.33Z</time></trkpt><trkpt lat="39.5772267" lon="8.5164383"><ele>313.0</ele><time>2026-04-21T10:45:01.33Z</time></trkpt><trkpt lat="39.5771533" lon="8.5163867"><ele>313.0</ele><time>2026-04-21T10:45:02.331Z</time></trkpt><trkpt lat="39.5770733" lon="8.5163433"><ele>313.0</ele><time>2026-04-21T10:45:03.33Z</time></trkpt><trkpt lat="39.577" lon="8.5163033"><ele>311.4</ele><time>2026-04-21T10:45:04.33Z</time></trkpt><trkpt lat="39.5769317" lon="8.5162683"><ele>309.8</ele><time>2026-04-21T10:45:05.331Z</time></trkpt><trkpt lat="39.5768317" lon="8.516225"><ele>308.2</ele><time>2026-04-21T10:45:07.331Z</time></trkpt><trkpt lat="39.57677" lon="8.5161317"><ele>306.6</ele><time>2026-04-21T10:45:09.331Z</time></trkpt><trkpt lat="39.5767517" lon="8.5159783"><ele>305.0</ele><time>2026-04-21T10:45:11.331Z</time></trkpt><trkpt lat="39.5767517" lon="8.5158267"><ele>305.0</ele><time>2026-04-21T10:45:13.331Z</time></trkpt><trkpt lat="39.5767083" lon="8.5157267"><ele>305.0</ele><time>2026-04-21T10:45:15.331Z</time></trkpt><trkpt lat="39.5766233" lon="8.5157383"><ele>305.0</ele><time>2026-04-21T10:45:17.33Z</time></trkpt><trkpt lat="39.5765217" lon="8.5158483"><ele>305.0</ele><time>2026-04-21T10:45:19.33Z</time></trkpt><trkpt lat="39.576465" lon="8.515915"><ele>305.0</ele><time>2026-04-21T10:45:20.33Z</time></trkpt><trkpt lat="39.57641" lon="8.5159717"><ele>305.0</ele><time>2026-04-21T10:45:21.331Z</time></trkpt><trkpt lat="39.57635" lon="8.5160283"><ele>305.0</ele><time>2026-04-21T10:45:22.33Z</time></trkpt><trkpt lat="39.5762967" lon="8.516075"><ele>305.0</ele><time>2026-04-21T10:45:23.331Z</time></trkpt><trkpt lat="39.5761867" lon="8.5161517"><ele>305.0</ele><time>2026-04-21T10:45:25.331Z</time></trkpt><trkpt lat="39.5761267" lon="8.5161867"><ele>305.0</ele><time>2026-04-21T10:45:26.33Z</time></trkpt><trkpt lat="39.5760117" lon="8.5162483"><ele>301.83333333333337</ele><time>2026-04-21T10:45:28.331Z</time></trkpt><trkpt lat="39.5759567" lon="8.5162883"><ele>298.6666666666667</ele><time>2026-04-21T10:45:29.331Z</time></trkpt><trkpt lat="39.575855" lon="8.516365"><ele>295.5</ele><time>2026-04-21T10:45:31.331Z</time></trkpt><trkpt lat="39.57581" lon="8.5164433"><ele>292.3333333333333</ele><time>2026-04-21T10:45:33.33Z</time></trkpt><trkpt lat="39.5758033" lon="8.516545"><ele>289.16666666666663</ele><time>2026-04-21T10:45:35.331Z</time></trkpt><trkpt lat="39.5758083" lon="8.5166483"><ele>286.0</ele><time>2026-04-21T10:45:37.331Z</time></trkpt><trkpt lat="39.5757817" lon="8.516745"><ele>286.0</ele><time>2026-04-21T10:45:40.33Z</time></trkpt><trkpt lat="39.5757917" lon="8.5168683"><ele>286.0</ele><time>2026-04-21T10:45:42.33Z</time></trkpt><trkpt lat="39.5758167" lon="8.51696"><ele>286.0</ele><time>2026-04-21T10:45:43.331Z</time></trkpt><trkpt lat="39.5758383" lon="8.5170767"><ele>286.0</ele><time>2026-04-21T10:45:44.331Z</time></trkpt><trkpt lat="39.5758533" lon="8.5171867"><ele>286.0</ele><time>2026-04-21T10:45:45.331Z</time></trkpt><trkpt lat="39.5758717" lon="8.51728"><ele>286.0</ele><time>2026-04-21T10:45:46.331Z</time></trkpt><trkpt lat="39.5758933" lon="8.5173667"><ele>284.8333333333333</ele><time>2026-04-21T10:45:47.33Z</time></trkpt><trkpt lat="39.57593" lon="8.5174433"><ele>283.66666666666663</ele><time>2026-04-21T10:45:48.331Z</time></trkpt><trkpt lat="39.575985" lon="8.5175"><ele>282.5</ele><time>2026-04-21T10:45:49.331Z</time></trkpt><trkpt lat="39.57605" lon="8.5175267"><ele>281.3333333333333</ele><time>2026-04-21T10:45:50.331Z</time></trkpt><trkpt lat="39.5761233" lon="8.51753"><ele>280.1666666666667</ele><time>2026-04-21T10:45:51.33Z</time></trkpt><trkpt lat="39.5762117" lon="8.5175167"><ele>279.0</ele><time>2026-04-21T10:45:52.33Z</time></trkpt><trkpt lat="39.5763117" lon="8.5174817"><ele>279.0</ele><time>2026-04-21T10:45:53.331Z</time></trkpt><trkpt lat="39.576425" lon="8.5174333"><ele>279.0</ele><time>2026-04-21T10:45:54.33Z</time></trkpt><trkpt lat="39.5765533" lon="8.5173883"><ele>279.0</ele><time>2026-04-21T10:45:55.331Z</time></trkpt><trkpt lat="39.5766917" lon="8.5173517"><ele>279.0</ele><time>2026-04-21T10:45:56.33Z</time></trkpt><trkpt lat="39.57682" lon="8.5173183"><ele>279.0</ele><time>2026-04-21T10:45:57.331Z</time></trkpt><trkpt lat="39.5769333" lon="8.5172883"><ele>279.0</ele><time>2026-04-21T10:45:58.331Z</time></trkpt><trkpt lat="39.577035" lon="8.5172783"><ele>279.0</ele><time>2026-04-21T10:45:59.33Z</time></trkpt><trkpt lat="39.57713" lon="8.5172917"><ele>279.0</ele><time>2026-04-21T10:46:00.331Z</time></trkpt><trkpt lat="39.5772383" lon="8.5173417"><ele>279.0</ele><time>2026-04-21T10:46:01.33Z</time></trkpt><trkpt lat="39.57735" lon="8.5173917"><ele>281.0</ele><time>2026-04-21T10:46:02.33Z</time></trkpt><trkpt lat="39.5774367" lon="8.51745"><ele>283.0</ele><time>2026-04-21T10:46:03.331Z</time></trkpt><trkpt lat="39.5775067" lon="8.517515"><ele>285.0</ele><time>2026-04-21T10:46:04.33Z</time></trkpt><trkpt lat="39.5775567" lon="8.51761"><ele>287.0</ele><time>2026-04-21T10:46:05.331Z</time></trkpt><trkpt lat="39.5775833" lon="8.5177167"><ele>289.0</ele><time>2026-04-21T10:46:06.33Z</time></trkpt><trkpt lat="39.5775917" lon="8.5178517"><ele>286.0</ele><time>2026-04-21T10:46:07.331Z</time></trkpt><trkpt lat="39.5776033" lon="8.5180067"><ele>283.0</ele><time>2026-04-21T10:46:08.331Z</time></trkpt><trkpt lat="39.5776233" lon="8.5182033"><ele>280.0</ele><time>2026-04-21T10:46:09.33Z</time></trkpt><trkpt lat="39.5776533" lon="8.5184183"><ele>277.0</ele><time>2026-04-21T10:46:10.33Z</time></trkpt><trkpt lat="39.577675" lon="8.5186433"><ele>276.5</ele><time>2026-04-21T10:46:11.331Z</time></trkpt><trkpt lat="39.5776983" lon="8.518855"><ele>276.0</ele><time>2026-04-21T10:46:12.331Z</time></trkpt><trkpt lat="39.5777167" lon="8.5190467"><ele>275.5</ele><time>2026-04-21T10:46:13.331Z</time></trkpt><trkpt lat="39.5777283" lon="8.51922"><ele>275.0</ele><time>2026-04-21T10:46:14.331Z</time></trkpt><trkpt lat="39.5777217" lon="8.5193967"><ele>276.6666666666667</ele><time>2026-04-21T10:46:15.33Z</time></trkpt><trkpt lat="39.5776967" lon="8.5195883"><ele>278.3333333333333</ele><time>2026-04-21T10:46:16.33Z</time></trkpt><trkpt lat="39.5776583" lon="8.5198017"><ele>280.0</ele><time>2026-04-21T10:46:17.33Z</time></trkpt><trkpt lat="39.5776133" lon="8.520025"><ele>280.0</ele><time>2026-04-21T10:46:18.331Z</time></trkpt><trkpt lat="39.5775767" lon="8.5202433"><ele>280.0</ele><time>2026-04-21T10:46:19.33Z</time></trkpt><trkpt lat="39.5775483" lon="8.5204417"><ele>280.0</ele><time>2026-04-21T10:46:20.33Z</time></trkpt><trkpt lat="39.57751" lon="8.5206117"><ele>281.0</ele><time>2026-04-21T10:46:21.331Z</time></trkpt><trkpt lat="39.5774817" lon="8.520765"><ele>282.0</ele><time>2026-04-21T10:46:22.331Z</time></trkpt><trkpt lat="39.577455" lon="8.5208983"><ele>283.0</ele><time>2026-04-21T10:46:23.33Z</time></trkpt><trkpt lat="39.57742" lon="8.5210217"><ele>284.0</ele><time>2026-04-21T10:46:24.331Z</time></trkpt><trkpt lat="39.57739" lon="8.52112"><ele>285.0</ele><time>2026-04-21T10:46:25.33Z</time></trkpt><trkpt lat="39.577365" lon="8.5211983"><ele>284.3333333333333</ele><time>2026-04-21T10:46:26.33Z</time></trkpt><trkpt lat="39.57735" lon="8.521335"><ele>283.6666666666667</ele><time>2026-04-21T10:46:28.33Z</time></trkpt><trkpt lat="39.577325" lon="8.5214267"><ele>283.0</ele><time>2026-04-21T10:46:30.33Z</time></trkpt><trkpt lat="39.577265" lon="8.5214933"><ele>282.33333333333337</ele><time>2026-04-21T10:46:32.331Z</time></trkpt><trkpt lat="39.5772" lon="8.52155"><ele>281.6666666666667</ele><time>2026-04-21T10:46:34.33Z</time></trkpt><trkpt lat="39.5771183" lon="8.52153"><ele>281.0</ele><time>2026-04-21T10:46:37.331Z</time></trkpt><trkpt lat="39.5771217" lon="8.521425"><ele>281.0</ele><time>2026-04-21T10:46:39.33Z</time></trkpt><trkpt lat="39.5771533" lon="8.5212983"><ele>281.0</ele><time>2026-04-21T10:46:41.331Z</time></trkpt><trkpt lat="39.5771983" lon="8.5211817"><ele>281.0</ele><time>2026-04-21T10:46:43.331Z</time></trkpt><trkpt lat="39.5772183" lon="8.52104"><ele>281.0</ele><time>2026-04-21T10:46:45.331Z</time></trkpt><trkpt lat="39.5772183" lon="8.5209483"><ele>281.0</ele><time>2026-04-21T10:46:46.331Z</time></trkpt><trkpt lat="39.5772283" lon="8.52084"><ele>280.83333333333337</ele><time>2026-04-21T10:46:47.331Z</time></trkpt><trkpt lat="39.5772367" lon="8.5207217"><ele>280.6666666666667</ele><time>2026-04-21T10:46:48.331Z</time></trkpt><trkpt lat="39.5772483" lon="8.5205983"><ele>280.5</ele><time>2026-04-21T10:46:49.33Z</time></trkpt><trkpt lat="39.577245" lon="8.5204883"><ele>280.3333333333333</ele><time>2026-04-21T10:46:50.33Z</time></trkpt><trkpt lat="39.5772467" lon="8.5203983"><ele>280.16666666666663</ele><time>2026-04-21T10:46:51.331Z</time></trkpt><trkpt lat="39.5772483" lon="8.5203033"><ele>280.0</ele><time>2026-04-21T10:46:52.33Z</time></trkpt><trkpt lat="39.5772567" lon="8.5202067"><ele>280.0</ele><time>2026-04-21T10:46:53.331Z</time></trkpt><trkpt lat="39.577265" lon="8.5201083"><ele>280.0</ele><time>2026-04-21T10:46:54.331Z</time></trkpt><trkpt lat="39.5772767" lon="8.5200117"><ele>280.0</ele><time>2026-04-21T10:46:55.33Z</time></trkpt><trkpt lat="39.57728" lon="8.5199183"><ele>280.0</ele><time>2026-04-21T10:46:56.331Z</time></trkpt><trkpt lat="39.577275" lon="8.5198267"><ele>280.0</ele><time>2026-04-21T10:46:57.331Z</time></trkpt><trkpt lat="39.5772817" lon="8.5197367"><ele>280.0</ele><time>2026-04-21T10:46:58.331Z</time></trkpt><trkpt lat="39.5772883" lon="8.5196483"><ele>280.0</ele><time>2026-04-21T10:46:59.331Z</time></trkpt><trkpt lat="39.5773067" lon="8.5195617"><ele>280.0</ele><time>2026-04-21T10:47:00.33Z</time></trkpt><trkpt lat="39.5773317" lon="8.5194433"><ele>280.0</ele><time>2026-04-21T10:47:02.331Z</time></trkpt><trkpt lat="39.5772433" lon="8.5194383"><ele>280.0</ele><time>2026-04-21T10:47:05.331Z</time></trkpt><trkpt lat="39.57717" lon="8.519565"><ele>280.0</ele><time>2026-04-21T10:47:07.331Z</time></trkpt><trkpt lat="39.5771317" lon="8.5196533"><ele>280.0</ele><time>2026-04-21T10:47:08.33Z</time></trkpt><trkpt lat="39.5770917" lon="8.51975"><ele>280.0</ele><time>2026-04-21T10:47:09.33Z</time></trkpt><trkpt lat="39.5770567" lon="8.5198433"><ele>280.0</ele><time>2026-04-21T10:47:10.33Z</time></trkpt><trkpt lat="39.577025" lon="8.5199317"><ele>280.0</ele><time>2026-04-21T10:47:11.331Z</time></trkpt><trkpt lat="39.57699" lon="8.52002"><ele>280.0</ele><time>2026-04-21T10:47:12.33Z</time></trkpt><trkpt lat="39.5769483" lon="8.520095"><ele>280.0</ele><time>2026-04-21T10:47:13.33Z</time></trkpt><trkpt lat="39.5769" lon="8.5201533"><ele>280.0</ele><time>2026-04-21T10:47:14.331Z</time></trkpt><trkpt lat="39.5768333" lon="8.5202433"><ele>275.4</ele><time>2026-04-21T10:47:16.33Z</time></trkpt><trkpt lat="39.576785" lon="8.5203467"><ele>270.8</ele><time>2026-04-21T10:47:18.33Z</time></trkpt><trkpt lat="39.5767733" lon="8.5204883"><ele>266.2</ele><time>2026-04-21T10:47:20.331Z</time></trkpt><trkpt lat="39.5767617" lon="8.5206383"><ele>261.6</ele><time>2026-04-21T10:47:22.331Z</time></trkpt><trkpt lat="39.5766983" lon="8.5207633"><ele>257.0</ele><time>2026-04-21T10:47:24.331Z</time></trkpt><trkpt lat="39.57666" lon="8.52085"><ele>257.0</ele><time>2026-04-21T10:47:25.331Z</time></trkpt><trkpt lat="39.576615" lon="8.5209267"><ele>257.0</ele><time>2026-04-21T10:47:26.331Z</time></trkpt><trkpt lat="39.5765667" lon="8.520985"><ele>257.0</ele><time>2026-04-21T10:47:27.33Z</time></trkpt><trkpt lat="39.5765117" lon="8.5210333"><ele>257.0</ele><time>2026-04-21T10:47:28.331Z</time></trkpt><trkpt lat="39.57645" lon="8.5210683"><ele>257.0</ele><time>2026-04-21T10:47:29.331Z</time></trkpt><trkpt lat="39.576375" lon="8.5210967"><ele>257.0</ele><time>2026-04-21T10:47:30.33Z</time></trkpt><trkpt lat="39.576295" lon="8.521145"><ele>257.0</ele><time>2026-04-21T10:47:31.331Z</time></trkpt><trkpt lat="39.5762167" lon="8.5211867"><ele>255.16666666666669</ele><time>2026-04-21T10:47:32.33Z</time></trkpt><trkpt lat="39.576145" lon="8.521225"><ele>253.33333333333334</ele><time>2026-04-21T10:47:33.329Z</time></trkpt><trkpt lat="39.576085" lon="8.5212667"><ele>251.5</ele><time>2026-04-21T10:47:34.33Z</time></trkpt><trkpt lat="39.57602" lon="8.5213217"><ele>249.66666666666669</ele><time>2026-04-21T10:47:35.33Z</time></trkpt><trkpt lat="39.57595" lon="8.521375"><ele>247.83333333333334</ele><time>2026-04-21T10:47:36.33Z</time></trkpt><trkpt lat="39.575885" lon="8.5214317"><ele>246.0</ele><time>2026-04-21T10:47:37.33Z</time></trkpt><trkpt lat="39.57583" lon="8.521485"><ele>246.0</ele><time>2026-04-21T10:47:38.33Z</time></trkpt><trkpt lat="39.5757717" lon="8.52154"><ele>246.00000000000003</ele><time>2026-04-21T10:47:39.33Z</time></trkpt><trkpt lat="39.5757217" lon="8.5215933"><ele>246.00000000000003</ele><time>2026-04-21T10:47:40.33Z</time></trkpt><trkpt lat="39.5756383" lon="8.5216917"><ele>246.0</ele><time>2026-04-21T10:47:42.329Z</time></trkpt><trkpt lat="39.575555" lon="8.5217783"><ele>246.0</ele><time>2026-04-21T10:47:44.329Z</time></trkpt><trkpt lat="39.5754433" lon="8.52184"><ele>246.0</ele><time>2026-04-21T10:47:46.33Z</time></trkpt><trkpt lat="39.5753817" lon="8.5218683"><ele>246.0</ele><time>2026-04-21T10:47:47.33Z</time></trkpt><trkpt lat="39.57528" lon="8.521935"><ele>246.0</ele><time>2026-04-21T10:47:49.329Z</time></trkpt><trkpt lat="39.57522" lon="8.52198"><ele>246.0</ele><time>2026-04-21T10:47:50.329Z</time></trkpt><trkpt lat="39.5751567" lon="8.52202"><ele>246.0</ele><time>2026-04-21T10:47:51.329Z</time></trkpt><trkpt lat="39.5750867" lon="8.522055"><ele>246.0</ele><time>2026-04-21T10:47:52.329Z</time></trkpt><trkpt lat="39.5750117" lon="8.5220767"><ele>243.16666666666666</ele><time>2026-04-21T10:47:53.329Z</time></trkpt><trkpt lat="39.5749333" lon="8.522095"><ele>240.33333333333331</ele><time>2026-04-21T10:47:54.33Z</time></trkpt><trkpt lat="39.5748583" lon="8.5221067"><ele>237.5</ele><time>2026-04-21T10:47:55.33Z</time></trkpt><trkpt lat="39.5747883" lon="8.5221117"><ele>234.66666666666666</ele><time>2026-04-21T10:47:56.329Z</time></trkpt><trkpt lat="39.5747133" lon="8.5221417"><ele>231.83333333333331</ele><time>2026-04-21T10:47:57.329Z</time></trkpt><trkpt lat="39.57464" lon="8.522195"><ele>229.0</ele><time>2026-04-21T10:47:58.329Z</time></trkpt><trkpt lat="39.574575" lon="8.522245"><ele>230.28571428571428</ele><time>2026-04-21T10:47:59.33Z</time></trkpt><trkpt lat="39.5745067" lon="8.5222817"><ele>231.57142857142858</ele><time>2026-04-21T10:48:00.33Z</time></trkpt><trkpt lat="39.5744383" lon="8.5223033"><ele>232.85714285714286</ele><time>2026-04-21T10:48:01.329Z</time></trkpt><trkpt lat="39.5743633" lon="8.522315"><ele>234.14285714285714</ele><time>2026-04-21T10:48:02.329Z</time></trkpt><trkpt lat="39.5742967" lon="8.5223267"><ele>235.42857142857144</ele><time>2026-04-21T10:48:03.329Z</time></trkpt><trkpt lat="39.57423" lon="8.5223267"><ele>236.71428571428572</ele><time>2026-04-21T10:48:04.329Z</time></trkpt><trkpt lat="39.5741567" lon="8.52234"><ele>238.0</ele><time>2026-04-21T10:48:05.329Z</time></trkpt><trkpt lat="39.57408" lon="8.5223817"><ele>237.99999999999997</ele><time>2026-04-21T10:48:06.33Z</time></trkpt><trkpt lat="39.574005" lon="8.5224467"><ele>238.0</ele><time>2026-04-21T10:48:07.33Z</time></trkpt><trkpt lat="39.5739333" lon="8.5225083"><ele>238.0</ele><time>2026-04-21T10:48:08.329Z</time></trkpt><trkpt lat="39.57387" lon="8.5225583"><ele>238.0</ele><time>2026-04-21T10:48:09.33Z</time></trkpt><trkpt lat="39.5738033" lon="8.5226017"><ele>237.99999999999997</ele><time>2026-04-21T10:48:10.329Z</time></trkpt><trkpt lat="39.5737383" lon="8.5226267"><ele>238.0</ele><time>2026-04-21T10:48:11.33Z</time></trkpt><trkpt lat="39.5736717" lon="8.5226517"><ele>238.33333333333331</ele><time>2026-04-21T10:48:12.329Z</time></trkpt><trkpt lat="39.5735517" lon="8.5227167"><ele>238.66666666666666</ele><time>2026-04-21T10:48:14.33Z</time></trkpt><trkpt lat="39.5734833" lon="8.522755"><ele>239.0</ele><time>2026-04-21T10:48:15.33Z</time></trkpt><trkpt lat="39.573415" lon="8.522795"><ele>239.33333333333331</ele><time>2026-04-21T10:48:16.33Z</time></trkpt><trkpt lat="39.5733533" lon="8.5228517"><ele>239.66666666666666</ele><time>2026-04-21T10:48:17.33Z</time></trkpt><trkpt lat="39.5732917" lon="8.52293"><ele>240.0</ele><time>2026-04-21T10:48:18.33Z</time></trkpt><trkpt lat="39.5732267" lon="8.5230067"><ele>240.66666666666666</ele><time>2026-04-21T10:48:19.329Z</time></trkpt><trkpt lat="39.57318" lon="8.5230783"><ele>241.33333333333331</ele><time>2026-04-21T10:48:20.33Z</time></trkpt><trkpt lat="39.5731417" lon="8.523145"><ele>242.0</ele><time>2026-04-21T10:48:21.329Z</time></trkpt><trkpt lat="39.5730583" lon="8.5232617"><ele>242.66666666666666</ele><time>2026-04-21T10:48:23.33Z</time></trkpt><trkpt lat="39.572995" lon="8.52331"><ele>243.33333333333331</ele><time>2026-04-21T10:48:24.329Z</time></trkpt><trkpt lat="39.5729167" lon="8.523355"><ele>244.0</ele><time>2026-04-21T10:48:25.329Z</time></trkpt><trkpt lat="39.57284" lon="8.5234"><ele>244.0</ele><time>2026-04-21T10:48:26.33Z</time></trkpt><trkpt lat="39.5727467" lon="8.523435"><ele>243.99999999999997</ele><time>2026-04-21T10:48:27.329Z</time></trkpt><trkpt lat="39.5726417" lon="8.5234617"><ele>243.99999999999997</ele><time>2026-04-21T10:48:28.329Z</time></trkpt><trkpt lat="39.5725367" lon="8.5234867"><ele>244.0</ele><time>2026-04-21T10:48:29.33Z</time></trkpt><trkpt lat="39.5724367" lon="8.5235117"><ele>244.0</ele><time>2026-04-21T10:48:30.33Z</time></trkpt><trkpt lat="39.5723517" lon="8.523535"><ele>244.0</ele><time>2026-04-21T10:48:31.329Z</time></trkpt><trkpt lat="39.57227" lon="8.5235533"><ele>243.99999999999997</ele><time>2026-04-21T10:48:32.33Z</time></trkpt><trkpt lat="39.5721967" lon="8.523555"><ele>243.99999999999997</ele><time>2026-04-21T10:48:33.33Z</time></trkpt><trkpt lat="39.57208" lon="8.5235283"><ele>244.0</ele><time>2026-04-21T10:48:35.33Z</time></trkpt><trkpt lat="39.5720017" lon="8.52342"><ele>244.0</ele><time>2026-04-21T10:48:37.33Z</time></trkpt><trkpt lat="39.5719617" lon="8.5233467"><ele>243.39999999999998</ele><time>2026-04-21T10:48:38.329Z</time></trkpt><trkpt lat="39.57187" lon="8.5232683"><ele>242.79999999999998</ele><time>2026-04-21T10:48:40.33Z</time></trkpt><trkpt lat="39.5717617" lon="8.5232267"><ele>242.20000000000002</ele><time>2026-04-21T10:48:42.33Z</time></trkpt><trkpt lat="39.5716967" lon="8.523205"><ele>241.60000000000002</ele><time>2026-04-21T10:48:43.329Z</time></trkpt><trkpt lat="39.5716133" lon="8.5231283"><ele>241.0</ele><time>2026-04-21T10:48:45.33Z</time></trkpt><trkpt lat="39.5715433" lon="8.5230367"><ele>241.0</ele><time>2026-04-21T10:48:47.329Z</time></trkpt><trkpt lat="39.5714533" lon="8.5229783"><ele>241.00000000000003</ele><time>2026-04-21T10:48:49.33Z</time></trkpt><trkpt lat="39.5713533" lon="8.522945"><ele>241.00000000000003</ele><time>2026-04-21T10:48:51.33Z</time></trkpt><trkpt lat="39.5712417" lon="8.52295"><ele>241.0</ele><time>2026-04-21T10:48:53.33Z</time></trkpt><trkpt lat="39.5711267" lon="8.52297"><ele>241.0</ele><time>2026-04-21T10:48:55.33Z</time></trkpt><trkpt lat="39.5710417" lon="8.5230083"><ele>238.83333333333331</ele><time>2026-04-21T10:48:57.33Z</time></trkpt><trkpt lat="39.5709783" lon="8.5230733"><ele>236.66666666666666</ele><time>2026-04-21T10:48:59.329Z</time></trkpt><trkpt lat="39.5709067" lon="8.523165"><ele>234.5</ele><time>2026-04-21T10:49:01.329Z</time></trkpt><trkpt lat="39.57086" lon="8.5232317"><ele>232.33333333333331</ele><time>2026-04-21T10:49:02.329Z</time></trkpt><trkpt lat="39.5708017" lon="8.5233033"><ele>230.16666666666666</ele><time>2026-04-21T10:49:03.329Z</time></trkpt><trkpt lat="39.5707367" lon="8.523375"><ele>228.0</ele><time>2026-04-21T10:49:04.33Z</time></trkpt><trkpt lat="39.5706683" lon="8.5234433"><ele>228.0</ele><time>2026-04-21T10:49:05.329Z</time></trkpt><trkpt lat="39.570605" lon="8.523505"><ele>228.0</ele><time>2026-04-21T10:49:06.33Z</time></trkpt><trkpt lat="39.5705267" lon="8.5235667"><ele>228.0</ele><time>2026-04-21T10:49:07.33Z</time></trkpt><trkpt lat="39.5704483" lon="8.523635"><ele>228.0</ele><time>2026-04-21T10:49:08.33Z</time></trkpt><trkpt lat="39.5703767" lon="8.5237067"><ele>228.0</ele><time>2026-04-21T10:49:09.33Z</time></trkpt><trkpt lat="39.5703067" lon="8.5237617"><ele>228.0</ele><time>2026-04-21T10:49:10.329Z</time></trkpt><trkpt lat="39.570235" lon="8.5238283"><ele>226.0</ele><time>2026-04-21T10:49:11.33Z</time></trkpt><trkpt lat="39.570175" lon="8.5238917"><ele>224.0</ele><time>2026-04-21T10:49:12.33Z</time></trkpt><trkpt lat="39.5701233" lon="8.52395"><ele>222.0</ele><time>2026-04-21T10:49:13.33Z</time></trkpt><trkpt lat="39.57003" lon="8.5240317"><ele>220.0</ele><time>2026-04-21T10:49:15.329Z</time></trkpt><trkpt lat="39.5699417" lon="8.5241067"><ele>218.0</ele><time>2026-04-21T10:49:17.329Z</time></trkpt><trkpt lat="39.569845" lon="8.52419"><ele>218.00000000000003</ele><time>2026-04-21T10:49:19.33Z</time></trkpt><trkpt lat="39.5697533" lon="8.52429"><ele>218.0</ele><time>2026-04-21T10:49:21.33Z</time></trkpt><trkpt lat="39.569655" lon="8.5243783"><ele>218.0</ele><time>2026-04-21T10:49:23.329Z</time></trkpt><trkpt lat="39.569595" lon="8.5244217"><ele>218.0</ele><time>2026-04-21T10:49:24.329Z</time></trkpt><trkpt lat="39.5695333" lon="8.5244583"><ele>218.00000000000003</ele><time>2026-04-21T10:49:25.33Z</time></trkpt><trkpt lat="39.5694767" lon="8.5244983"><ele>218.0</ele><time>2026-04-21T10:49:26.329Z</time></trkpt><trkpt lat="39.5694183" lon="8.5245383"><ele>215.33333333333334</ele><time>2026-04-21T10:49:27.33Z</time></trkpt><trkpt lat="39.56936" lon="8.5245717"><ele>212.66666666666669</ele><time>2026-04-21T10:49:28.33Z</time></trkpt><trkpt lat="39.5693017" lon="8.5246233"><ele>210.0</ele><time>2026-04-21T10:49:29.329Z</time></trkpt><trkpt lat="39.5692417" lon="8.5246833"><ele>207.33333333333331</ele><time>2026-04-21T10:49:30.33Z</time></trkpt><trkpt lat="39.5691933" lon="8.5247483"><ele>204.66666666666666</ele><time>2026-04-21T10:49:31.33Z</time></trkpt><trkpt lat="39.56912" lon="8.5248817"><ele>202.0</ele><time>2026-04-21T10:49:33.33Z</time></trkpt><trkpt lat="39.56909" lon="8.5249717"><ele>201.99999999999997</ele><time>2026-04-21T10:49:34.329Z</time></trkpt><trkpt lat="39.5690583" lon="8.5250667"><ele>202.0</ele><time>2026-04-21T10:49:35.329Z</time></trkpt><trkpt lat="39.5690267" lon="8.5251717"><ele>202.0</ele><time>2026-04-21T10:49:36.329Z</time></trkpt><trkpt lat="39.5689933" lon="8.52526"><ele>202.0</ele><time>2026-04-21T10:49:37.33Z</time></trkpt><trkpt lat="39.5689617" lon="8.5253383"><ele>201.99999999999997</ele><time>2026-04-21T10:49:38.329Z</time></trkpt><trkpt lat="39.568935" lon="8.5254183"><ele>202.0</ele><time>2026-04-21T10:49:39.33Z</time></trkpt><trkpt lat="39.5688833" lon="8.52557"><ele>200.14285714285714</ele><time>2026-04-21T10:49:41.33Z</time></trkpt><trkpt lat="39.5688433" lon="8.525645"><ele>198.28571428571428</ele><time>2026-04-21T10:49:42.33Z</time></trkpt><trkpt lat="39.5688017" lon="8.5257233"><ele>196.42857142857144</ele><time>2026-04-21T10:49:43.33Z</time></trkpt><trkpt lat="39.56876" lon="8.5257917"><ele>194.57142857142856</ele><time>2026-04-21T10:49:44.329Z</time></trkpt><trkpt lat="39.5687283" lon="8.52587"><ele>192.71428571428572</ele><time>2026-04-21T10:49:45.329Z</time></trkpt><trkpt lat="39.5687033" lon="8.5259583"><ele>190.85714285714286</ele><time>2026-04-21T10:49:46.329Z</time></trkpt><trkpt lat="39.5686767" lon="8.52604"><ele>189.0</ele><time>2026-04-21T10:49:47.33Z</time></trkpt><trkpt lat="39.5686417" lon="8.52613"><ele>188.71428571428572</ele><time>2026-04-21T10:49:48.329Z</time></trkpt><trkpt lat="39.56861" lon="8.52621"><ele>188.42857142857144</ele><time>2026-04-21T10:49:49.33Z</time></trkpt><trkpt lat="39.5685867" lon="8.5262983"><ele>188.14285714285714</ele><time>2026-04-21T10:49:50.329Z</time></trkpt><trkpt lat="39.5685683" lon="8.5263883"><ele>187.85714285714286</ele><time>2026-04-21T10:49:51.33Z</time></trkpt><trkpt lat="39.568555" lon="8.5264783"><ele>187.57142857142858</ele><time>2026-04-21T10:49:52.329Z</time></trkpt><trkpt lat="39.56855" lon="8.5265667"><ele>187.28571428571428</ele><time>2026-04-21T10:49:53.33Z</time></trkpt><trkpt lat="39.5685383" lon="8.5266483"><ele>187.0</ele><time>2026-04-21T10:49:54.329Z</time></trkpt><trkpt lat="39.5685267" lon="8.52673"><ele>187.0</ele><time>2026-04-21T10:49:55.329Z</time></trkpt><trkpt lat="39.56851" lon="8.526865"><ele>187.0</ele><time>2026-04-21T10:49:57.329Z</time></trkpt><trkpt lat="39.56848" lon="8.5269633"><ele>187.0</ele><time>2026-04-21T10:49:59.33Z</time></trkpt><trkpt lat="39.5683933" lon="8.52701"><ele>187.0</ele><time>2026-04-21T10:50:01.329Z</time></trkpt><trkpt lat="39.5683233" lon="8.5270267"><ele>187.0</ele><time>2026-04-21T10:50:02.329Z</time></trkpt><trkpt lat="39.568245" lon="8.5270367"><ele>187.0</ele><time>2026-04-21T10:50:03.33Z</time></trkpt><trkpt lat="39.568175" lon="8.52704"><ele>187.0</ele><time>2026-04-21T10:50:04.33Z</time></trkpt><trkpt lat="39.568065" lon="8.5270333"><ele>187.0</ele><time>2026-04-21T10:50:06.329Z</time></trkpt><trkpt lat="39.56798" lon="8.5270067"><ele>187.0</ele><time>2026-04-21T10:50:08.33Z</time></trkpt><trkpt lat="39.5678983" lon="8.5269433"><ele>187.0</ele><time>2026-04-21T10:50:10.329Z</time></trkpt><trkpt lat="39.5678383" lon="8.5268417"><ele>187.0</ele><time>2026-04-21T10:50:12.329Z</time></trkpt><trkpt lat="39.5678083" lon="8.5267133"><ele>187.0</ele><time>2026-04-21T10:50:14.33Z</time></trkpt><trkpt lat="39.5677983" lon="8.526575"><ele>187.0</ele><time>2026-04-21T10:50:16.329Z</time></trkpt><trkpt lat="39.56782" lon="8.5264967"><ele>187.0</ele><time>2026-04-21T10:50:17.329Z</time></trkpt><trkpt lat="39.5678433" lon="8.526415"><ele>187.0</ele><time>2026-04-21T10:50:18.33Z</time></trkpt><trkpt lat="39.56787" lon="8.526275"><ele>187.0</ele><time>2026-04-21T10:50:20.329Z</time></trkpt><trkpt lat="39.56782" lon="8.5261567"><ele>184.33333333333334</ele><time>2026-04-21T10:50:22.329Z</time></trkpt><trkpt lat="39.5677683" lon="8.5260867"><ele>181.66666666666669</ele><time>2026-04-21T10:50:23.33Z</time></trkpt><trkpt lat="39.5677067" lon="8.5260083"><ele>179.0</ele><time>2026-04-21T10:50:24.33Z</time></trkpt><trkpt lat="39.5676433" lon="8.5259283"><ele>176.33333333333334</ele><time>2026-04-21T10:50:25.33Z</time></trkpt><trkpt lat="39.5675867" lon="8.5258517"><ele>173.66666666666666</ele><time>2026-04-21T10:50:26.33Z</time></trkpt><trkpt lat="39.567535" lon="8.5257767"><ele>171.0</ele><time>2026-04-21T10:50:27.33Z</time></trkpt><trkpt lat="39.56744" lon="8.525705"><ele>171.0</ele><time>2026-04-21T10:50:29.329Z</time></trkpt><trkpt lat="39.567315" lon="8.5256717"><ele>171.0</ele><time>2026-04-21T10:50:31.33Z</time></trkpt><trkpt lat="39.5672517" lon="8.5256767"><ele>171.0</ele><time>2026-04-21T10:50:32.33Z</time></trkpt><trkpt lat="39.5671517" lon="8.5256983"><ele>171.0</ele><time>2026-04-21T10:50:34.33Z</time></trkpt><trkpt lat="39.5670283" lon="8.5257283"><ele>171.0</ele><time>2026-04-21T10:50:36.33Z</time></trkpt><trkpt lat="39.56696" lon="8.5257433"><ele>168.4</ele><time>2026-04-21T10:50:37.329Z</time></trkpt><trkpt lat="39.5668467" lon="8.5257717"><ele>165.8</ele><time>2026-04-21T10:50:39.33Z</time></trkpt><trkpt lat="39.566775" lon="8.5258383"><ele>163.20000000000002</ele><time>2026-04-21T10:50:41.329Z</time></trkpt><trkpt lat="39.5667817" lon="8.52593"><ele>160.60000000000002</ele><time>2026-04-21T10:50:43.33Z</time></trkpt><trkpt lat="39.5668533" lon="8.5259817"><ele>158.0</ele><time>2026-04-21T10:50:45.329Z</time></trkpt><trkpt lat="39.5669533" lon="8.5260067"><ele>160.60000000000002</ele><time>2026-04-21T10:50:47.329Z</time></trkpt><trkpt lat="39.5670517" lon="8.5260317"><ele>163.20000000000002</ele><time>2026-04-21T10:50:49.33Z</time></trkpt><trkpt lat="39.56715" lon="8.526045"><ele>165.8</ele><time>2026-04-21T10:50:51.33Z</time></trkpt><trkpt lat="39.5672183" lon="8.52607"><ele>168.4</ele><time>2026-04-21T10:50:53.329Z</time></trkpt><trkpt lat="39.5672033" lon="8.526155"><ele>171.0</ele><time>2026-04-21T10:50:55.329Z</time></trkpt><trkpt lat="39.5671167" lon="8.5262633"><ele>171.8</ele><time>2026-04-21T10:50:57.33Z</time></trkpt><trkpt lat="39.56706" lon="8.5263217"><ele>172.60000000000002</ele><time>2026-04-21T10:50:58.33Z</time></trkpt><trkpt lat="39.566965" lon="8.5263933"><ele>173.4</ele><time>2026-04-21T10:51:00.33Z</time></trkpt><trkpt lat="39.5668933" lon="8.5265017"><ele>174.2</ele><time>2026-04-21T10:51:02.33Z</time></trkpt><trkpt lat="39.5668167" lon="8.5265867"><ele>175.0</ele><time>2026-04-21T10:51:04.33Z</time></trkpt><trkpt lat="39.5667167" lon="8.5266917"><ele>171.83333333333334</ele><time>2026-04-21T10:51:06.33Z</time></trkpt><trkpt lat="39.56668" lon="8.5267633"><ele>168.66666666666669</ele><time>2026-04-21T10:51:07.33Z</time></trkpt><trkpt lat="39.5666333" lon="8.526935"><ele>165.5</ele><time>2026-04-21T10:51:09.33Z</time></trkpt><trkpt lat="39.5666067" lon="8.52704"><ele>162.33333333333334</ele><time>2026-04-21T10:51:10.329Z</time></trkpt><trkpt lat="39.5665867" lon="8.5271467"><ele>159.16666666666666</ele><time>2026-04-21T10:51:11.329Z</time></trkpt><trkpt lat="39.5665667" lon="8.5272367"><ele>156.0</ele><time>2026-04-21T10:51:12.329Z</time></trkpt><trkpt lat="39.56655" lon="8.5273167"><ele>156.0</ele><time>2026-04-21T10:51:13.329Z</time></trkpt><trkpt lat="39.566535" lon="8.5274733"><ele>156.0</ele><time>2026-04-21T10:51:15.33Z</time></trkpt><trkpt lat="39.566545" lon="8.5276267"><ele>156.0</ele><time>2026-04-21T10:51:17.329Z</time></trkpt><trkpt lat="39.5665467" lon="8.5277817"><ele>156.0</ele><time>2026-04-21T10:51:19.329Z</time></trkpt><trkpt lat="39.5665433" lon="8.5279517"><ele>154.8</ele><time>2026-04-21T10:51:21.33Z</time></trkpt><trkpt lat="39.5665417" lon="8.528035"><ele>153.6</ele><time>2026-04-21T10:51:22.329Z</time></trkpt><trkpt lat="39.56656" lon="8.52818"><ele>152.4</ele><time>2026-04-21T10:51:24.33Z</time></trkpt><trkpt lat="39.566585" lon="8.5282567"><ele>151.2</ele><time>2026-04-21T10:51:25.33Z</time></trkpt><trkpt lat="39.5666383" lon="8.52839"><ele>150.0</ele><time>2026-04-21T10:51:27.329Z</time></trkpt><trkpt lat="39.566725" lon="8.5284433"><ele>150.0</ele><time>2026-04-21T10:51:29.33Z</time></trkpt><trkpt lat="39.5667533" lon="8.5285233"><ele>150.0</ele><time>2026-04-21T10:51:32.33Z</time></trkpt><trkpt lat="39.566675" lon="8.5285117"><ele>150.0</ele><time>2026-04-21T10:51:34.329Z</time></trkpt><trkpt lat="39.566585" lon="8.5285017"><ele>150.0</ele><time>2026-04-21T10:51:36.329Z</time></trkpt><trkpt lat="39.5665183" lon="8.52853"><ele>150.0</ele><time>2026-04-21T10:51:38.33Z</time></trkpt><trkpt lat="39.566505" lon="8.52861"><ele>150.0</ele><time>2026-04-21T10:51:40.329Z</time></trkpt><trkpt lat="39.56657" lon="8.5286983"><ele>148.2</ele><time>2026-04-21T10:51:42.329Z</time></trkpt><trkpt lat="39.566575" lon="8.5288033"><ele>146.4</ele><time>2026-04-21T10:51:44.329Z</time></trkpt><trkpt lat="39.56652" lon="8.5289633"><ele>144.6</ele><time>2026-04-21T10:51:46.33Z</time></trkpt><trkpt lat="39.566485" lon="8.529045"><ele>142.8</ele><time>2026-04-21T10:51:47.33Z</time></trkpt><trkpt lat="39.5664617" lon="8.5291217"><ele>141.0</ele><time>2026-04-21T10:51:48.33Z</time></trkpt><trkpt lat="39.5664367" lon="8.5292667"><ele>141.0</ele><time>2026-04-21T10:51:50.329Z</time></trkpt><trkpt lat="39.566415" lon="8.529415"><ele>141.0</ele><time>2026-04-21T10:51:52.329Z</time></trkpt><trkpt lat="39.5664167" lon="8.529575"><ele>141.0</ele><time>2026-04-21T10:51:54.33Z</time></trkpt><trkpt lat="39.5664533" lon="8.5297183"><ele>141.0</ele><time>2026-04-21T10:51:56.329Z</time></trkpt><trkpt lat="39.5665017" lon="8.52986"><ele>138.4</ele><time>2026-04-21T10:51:58.33Z</time></trkpt><trkpt lat="39.5665483" lon="8.5299933"><ele>135.8</ele><time>2026-04-21T10:52:00.329Z</time></trkpt><trkpt lat="39.5666067" lon="8.5300983"><ele>133.20000000000002</ele><time>2026-04-21T10:52:02.33Z</time></trkpt><trkpt lat="39.566685" lon="8.5301533"><ele>130.6</ele><time>2026-04-21T10:52:04.33Z</time></trkpt><trkpt lat="39.5667" lon="8.5302567"><ele>128.0</ele><time>2026-04-21T10:52:07.329Z</time></trkpt><trkpt lat="39.566615" lon="8.5303117"><ele>128.0</ele><time>2026-04-21T10:52:09.329Z</time></trkpt><trkpt lat="39.5665433" lon="8.53037"><ele>128.0</ele><time>2026-04-21T10:52:11.33Z</time></trkpt><trkpt lat="39.5665067" lon="8.5305183"><ele>128.0</ele><time>2026-04-21T10:52:13.33Z</time></trkpt><trkpt lat="39.56649" lon="8.5306333"><ele>128.0</ele><time>2026-04-21T10:52:15.33Z</time></trkpt><trkpt lat="39.56651" lon="8.53073"><ele>128.0</ele><time>2026-04-21T10:52:17.33Z</time></trkpt><trkpt lat="39.5665117" lon="8.5308567"><ele>127.80000000000001</ele><time>2026-04-21T10:52:19.33Z</time></trkpt><trkpt lat="39.5664983" lon="8.53097"><ele>127.60000000000001</ele><time>2026-04-21T10:52:21.329Z</time></trkpt><trkpt lat="39.56652" lon="8.5310817"><ele>127.39999999999999</ele><time>2026-04-21T10:52:23.329Z</time></trkpt><trkpt lat="39.5665567" lon="8.5312033"><ele>127.19999999999999</ele><time>2026-04-21T10:52:25.329Z</time></trkpt><trkpt lat="39.5665917" lon="8.531325"><ele>127.0</ele><time>2026-04-21T10:52:27.329Z</time></trkpt><trkpt lat="39.56661" lon="8.5314733"><ele>127.0</ele><time>2026-04-21T10:52:29.329Z</time></trkpt><trkpt lat="39.566625" lon="8.5315717"><ele>127.0</ele><time>2026-04-21T10:52:30.33Z</time></trkpt><trkpt lat="39.5666417" lon="8.5316783"><ele>127.0</ele><time>2026-04-21T10:52:31.329Z</time></trkpt><trkpt lat="39.56666" lon="8.5317767"><ele>127.0</ele><time>2026-04-21T10:52:32.33Z</time></trkpt><trkpt lat="39.5666733" lon="8.5318633"><ele>127.0</ele><time>2026-04-21T10:52:33.33Z</time></trkpt><trkpt lat="39.5666867" lon="8.5319533"><ele>127.0</ele><time>2026-04-21T10:52:34.33Z</time></trkpt><trkpt lat="39.5666883" lon="8.5320417"><ele>127.0</ele><time>2026-04-21T10:52:35.329Z</time></trkpt><trkpt lat="39.5666983" lon="8.5321283"><ele>127.42857142857143</ele><time>2026-04-21T10:52:36.33Z</time></trkpt><trkpt lat="39.5667133" lon="8.5322117"><ele>127.85714285714286</ele><time>2026-04-21T10:52:37.329Z</time></trkpt><trkpt lat="39.56674" lon="8.5323017"><ele>128.28571428571428</ele><time>2026-04-21T10:52:38.33Z</time></trkpt><trkpt lat="39.566775" lon="8.5323733"><ele>128.71428571428572</ele><time>2026-04-21T10:52:39.33Z</time></trkpt><trkpt lat="39.5668267" lon="8.53243"><ele>129.14285714285714</ele><time>2026-04-21T10:52:40.329Z</time></trkpt><trkpt lat="39.5668733" lon="8.532495"><ele>129.57142857142858</ele><time>2026-04-21T10:52:41.33Z</time></trkpt><trkpt lat="39.5669167" lon="8.5325567"><ele>130.0</ele><time>2026-04-21T10:52:42.329Z</time></trkpt><trkpt lat="39.56696" lon="8.5326233"><ele>130.0</ele><time>2026-04-21T10:52:43.33Z</time></trkpt><trkpt lat="39.5670017" lon="8.5327017"><ele>130.0</ele><time>2026-04-21T10:52:44.329Z</time></trkpt><trkpt lat="39.5670333" lon="8.532775"><ele>130.0</ele><time>2026-04-21T10:52:45.33Z</time></trkpt><trkpt lat="39.5670517" lon="8.532855"><ele>130.0</ele><time>2026-04-21T10:52:46.33Z</time></trkpt><trkpt lat="39.567075" lon="8.5329333"><ele>130.0</ele><time>2026-04-21T10:52:47.33Z</time></trkpt><trkpt lat="39.5671283" lon="8.533075"><ele>130.0</ele><time>2026-04-21T10:52:49.33Z</time></trkpt><trkpt lat="39.5671683" lon="8.5331917"><ele>130.83333333333334</ele><time>2026-04-21T10:52:51.329Z</time></trkpt><trkpt lat="39.567155" lon="8.5332817"><ele>131.66666666666669</ele><time>2026-04-21T10:52:53.33Z</time></trkpt><trkpt lat="39.5670867" lon="8.5333283"><ele>132.5</ele><time>2026-04-21T10:52:55.329Z</time></trkpt><trkpt lat="39.5670083" lon="8.533355"><ele>133.33333333333334</ele><time>2026-04-21T10:52:57.33Z</time></trkpt><trkpt lat="39.5669683" lon="8.533435"><ele>134.16666666666666</ele><time>2026-04-21T10:53:00.33Z</time></trkpt><trkpt lat="39.5669567" lon="8.533555"><ele>135.0</ele><time>2026-04-21T10:53:03.33Z</time></trkpt><trkpt lat="39.5669317" lon="8.533655"><ele>134.33333333333334</ele><time>2026-04-21T10:54:07.328Z</time></trkpt><trkpt lat="39.5669367" lon="8.53379"><ele>133.66666666666666</ele><time>2026-04-21T10:54:10.329Z</time></trkpt><trkpt lat="39.5669533" lon="8.5339"><ele>133.0</ele><time>2026-04-21T10:54:12.329Z</time></trkpt><trkpt lat="39.5669833" lon="8.53404"><ele>132.33333333333331</ele><time>2026-04-21T10:54:14.329Z</time></trkpt><trkpt lat="39.5669967" lon="8.5341233"><ele>131.66666666666666</ele><time>2026-04-21T10:54:15.329Z</time></trkpt><trkpt lat="39.5670183" lon="8.5342167"><ele>131.0</ele><time>2026-04-21T10:54:16.329Z</time></trkpt><trkpt lat="39.5670383" lon="8.5343033"><ele>131.0</ele><time>2026-04-21T10:54:17.328Z</time></trkpt><trkpt lat="39.5670633" lon="8.5344117"><ele>131.0</ele><time>2026-04-21T10:54:18.328Z</time></trkpt><trkpt lat="39.5671083" lon="8.53452"><ele>131.0</ele><time>2026-04-21T10:54:19.328Z</time></trkpt><trkpt lat="39.5671333" lon="8.5346167"><ele>131.0</ele><time>2026-04-21T10:54:20.329Z</time></trkpt><trkpt lat="39.56715" lon="8.5347017"><ele>131.0</ele><time>2026-04-21T10:54:21.329Z</time></trkpt><trkpt lat="39.5671567" lon="8.534795"><ele>131.0</ele><time>2026-04-21T10:54:22.328Z</time></trkpt><trkpt lat="39.5671767" lon="8.5348833"><ele>130.83333333333331</ele><time>2026-04-21T10:54:23.328Z</time></trkpt><trkpt lat="39.5672033" lon="8.5349617"><ele>130.66666666666666</ele><time>2026-04-21T10:54:24.328Z</time></trkpt><trkpt lat="39.5672333" lon="8.53504"><ele>130.5</ele><time>2026-04-21T10:54:25.328Z</time></trkpt><trkpt lat="39.5672867" lon="8.5351767"><ele>130.33333333333334</ele><time>2026-04-21T10:54:27.329Z</time></trkpt><trkpt lat="39.5673133" lon="8.5352533"><ele>130.16666666666669</ele><time>2026-04-21T10:54:28.328Z</time></trkpt><trkpt lat="39.5673433" lon="8.5353283"><ele>130.0</ele><time>2026-04-21T10:54:29.328Z</time></trkpt><trkpt lat="39.5673967" lon="8.5354817"><ele>131.16666666666669</ele><time>2026-04-21T10:54:31.329Z</time></trkpt><trkpt lat="39.5674283" lon="8.535565"><ele>132.33333333333334</ele><time>2026-04-21T10:54:32.329Z</time></trkpt><trkpt lat="39.5674633" lon="8.5356483"><ele>133.5</ele><time>2026-04-21T10:54:33.329Z</time></trkpt><trkpt lat="39.5674917" lon="8.5357467"><ele>134.66666666666666</ele><time>2026-04-21T10:54:34.329Z</time></trkpt><trkpt lat="39.567525" lon="8.5358483"><ele>135.83333333333331</ele><time>2026-04-21T10:54:35.329Z</time></trkpt><trkpt lat="39.56756" lon="8.5359467"><ele>137.0</ele><time>2026-04-21T10:54:36.329Z</time></trkpt><trkpt lat="39.5675817" lon="8.536045"><ele>137.00000000000003</ele><time>2026-04-21T10:54:37.328Z</time></trkpt><trkpt lat="39.5676133" lon="8.5361383"><ele>137.0</ele><time>2026-04-21T10:54:38.328Z</time></trkpt><trkpt lat="39.567645" lon="8.5362267"><ele>137.0</ele><time>2026-04-21T10:54:39.329Z</time></trkpt><trkpt lat="39.5676683" lon="8.5363133"><ele>137.0</ele><time>2026-04-21T10:54:40.328Z</time></trkpt><trkpt lat="39.567675" lon="8.536395"><ele>137.0</ele><time>2026-04-21T10:54:41.329Z</time></trkpt><trkpt lat="39.5676667" lon="8.5364867"><ele>137.00000000000003</ele><time>2026-04-21T10:54:42.328Z</time></trkpt><trkpt lat="39.5676517" lon="8.536585"><ele>137.0</ele><time>2026-04-21T10:54:43.329Z</time></trkpt><trkpt lat="39.5676367" lon="8.536675"><ele>137.57142857142858</ele><time>2026-04-21T10:54:44.329Z</time></trkpt><trkpt lat="39.5676383" lon="8.5367683"><ele>138.14285714285714</ele><time>2026-04-21T10:54:45.328Z</time></trkpt><trkpt lat="39.567655" lon="8.536865"><ele>138.71428571428572</ele><time>2026-04-21T10:54:46.329Z</time></trkpt><trkpt lat="39.5676883" lon="8.5369517"><ele>139.28571428571428</ele><time>2026-04-21T10:54:47.328Z</time></trkpt><trkpt lat="39.56772" lon="8.5370333"><ele>139.85714285714286</ele><time>2026-04-21T10:54:48.329Z</time></trkpt><trkpt lat="39.5677433" lon="8.53711"><ele>140.42857142857144</ele><time>2026-04-21T10:54:49.329Z</time></trkpt><trkpt lat="39.5677567" lon="8.5371983"><ele>141.0</ele><time>2026-04-21T10:54:50.328Z</time></trkpt><trkpt lat="39.5677667" lon="8.5372983"><ele>142.0</ele><time>2026-04-21T10:54:51.328Z</time></trkpt><trkpt lat="39.5677617" lon="8.5373867"><ele>143.0</ele><time>2026-04-21T10:54:52.329Z</time></trkpt><trkpt lat="39.56775" lon="8.53753"><ele>144.0</ele><time>2026-04-21T10:54:54.329Z</time></trkpt><trkpt lat="39.5677217" lon="8.5376067"><ele>145.0</ele><time>2026-04-21T10:54:55.329Z</time></trkpt><trkpt lat="39.56769" lon="8.5376967"><ele>146.0</ele><time>2026-04-21T10:54:56.328Z</time></trkpt><trkpt lat="39.5676433" lon="8.5377817"><ele>147.0</ele><time>2026-04-21T10:54:57.328Z</time></trkpt><trkpt lat="39.5675983" lon="8.5378617"><ele>148.16666666666666</ele><time>2026-04-21T10:54:58.329Z</time></trkpt><trkpt lat="39.56756" lon="8.5379383"><ele>149.33333333333334</ele><time>2026-04-21T10:54:59.329Z</time></trkpt><trkpt lat="39.5675167" lon="8.5380217"><ele>150.5</ele><time>2026-04-21T10:55:00.329Z</time></trkpt><trkpt lat="39.5674667" lon="8.5381033"><ele>151.66666666666669</ele><time>2026-04-21T10:55:01.329Z</time></trkpt><trkpt lat="39.567415" lon="8.5381783"><ele>152.83333333333334</ele><time>2026-04-21T10:55:02.329Z</time></trkpt><trkpt lat="39.5673667" lon="8.5382533"><ele>154.0</ele><time>2026-04-21T10:55:03.329Z</time></trkpt><trkpt lat="39.5673217" lon="8.5383217"><ele>154.0</ele><time>2026-04-21T10:55:04.329Z</time></trkpt><trkpt lat="39.567275" lon="8.538385"><ele>154.0</ele><time>2026-04-21T10:55:05.328Z</time></trkpt><trkpt lat="39.5672067" lon="8.538495"><ele>154.0</ele><time>2026-04-21T10:55:07.329Z</time></trkpt><trkpt lat="39.5671617" lon="8.538585"><ele>154.0</ele><time>2026-04-21T10:55:09.329Z</time></trkpt><trkpt lat="39.5671233" lon="8.5386583"><ele>154.0</ele><time>2026-04-21T10:55:11.329Z</time></trkpt><trkpt lat="39.5670867" lon="8.5387767"><ele>154.0</ele><time>2026-04-21T10:55:13.329Z</time></trkpt><trkpt lat="39.5670483" lon="8.5389017"><ele>155.28571428571428</ele><time>2026-04-21T10:55:15.328Z</time></trkpt><trkpt lat="39.5670183" lon="8.5389767"><ele>156.57142857142856</ele><time>2026-04-21T10:55:16.329Z</time></trkpt><trkpt lat="39.56698" lon="8.5390517"><ele>157.85714285714286</ele><time>2026-04-21T10:55:17.329Z</time></trkpt><trkpt lat="39.5669467" lon="8.5391333"><ele>159.14285714285714</ele><time>2026-04-21T10:55:18.329Z</time></trkpt><trkpt lat="39.5669217" lon="8.5392083"><ele>160.42857142857142</ele><time>2026-04-21T10:55:19.328Z</time></trkpt><trkpt lat="39.5668983" lon="8.5393533"><ele>161.71428571428572</ele><time>2026-04-21T10:55:21.328Z</time></trkpt><trkpt lat="39.566905" lon="8.5394367"><ele>163.0</ele><time>2026-04-21T10:55:22.329Z</time></trkpt><trkpt lat="39.566915" lon="8.53952"><ele>164.0</ele><time>2026-04-21T10:55:23.329Z</time></trkpt><trkpt lat="39.5669283" lon="8.539605"><ele>165.0</ele><time>2026-04-21T10:55:24.328Z</time></trkpt><trkpt lat="39.5669383" lon="8.5396917"><ele>166.0</ele><time>2026-04-21T10:55:25.328Z</time></trkpt><trkpt lat="39.5669817" lon="8.5398517"><ele>167.0</ele><time>2026-04-21T10:55:27.328Z</time></trkpt><trkpt lat="39.56703" lon="8.5399867"><ele>168.0</ele><time>2026-04-21T10:55:29.328Z</time></trkpt><trkpt lat="39.5670317" lon="8.540115"><ele>168.33333333333334</ele><time>2026-04-21T10:55:31.328Z</time></trkpt><trkpt lat="39.5670283" lon="8.5401967"><ele>168.66666666666666</ele><time>2026-04-21T10:55:32.328Z</time></trkpt><trkpt lat="39.5670333" lon="8.54029"><ele>169.0</ele><time>2026-04-21T10:55:33.329Z</time></trkpt><trkpt lat="39.567055" lon="8.5403767"><ele>169.33333333333331</ele><time>2026-04-21T10:55:34.328Z</time></trkpt><trkpt lat="39.567085" lon="8.5405183"><ele>169.66666666666666</ele><time>2026-04-21T10:55:36.329Z</time></trkpt><trkpt lat="39.5670883" lon="8.540675"><ele>170.0</ele><time>2026-04-21T10:55:38.329Z</time></trkpt><trkpt lat="39.56709" lon="8.5407633"><ele>170.71428571428572</ele><time>2026-04-21T10:55:39.328Z</time></trkpt><trkpt lat="39.5670917" lon="8.5408617"><ele>171.42857142857142</ele><time>2026-04-21T10:55:40.329Z</time></trkpt><trkpt lat="39.567085" lon="8.54095"><ele>172.14285714285714</ele><time>2026-04-21T10:55:41.329Z</time></trkpt><trkpt lat="39.5670717" lon="8.5410433"><ele>172.85714285714286</ele><time>2026-04-21T10:55:42.329Z</time></trkpt><trkpt lat="39.56706" lon="8.54113"><ele>173.57142857142856</ele><time>2026-04-21T10:55:43.329Z</time></trkpt><trkpt lat="39.56704" lon="8.5412117"><ele>174.28571428571428</ele><time>2026-04-21T10:55:44.328Z</time></trkpt><trkpt lat="39.567015" lon="8.541305"><ele>175.0</ele><time>2026-04-21T10:55:45.329Z</time></trkpt><trkpt lat="39.566995" lon="8.5413983"><ele>175.66666666666669</ele><time>2026-04-21T10:55:46.328Z</time></trkpt><trkpt lat="39.56697" lon="8.5414983"><ele>176.33333333333334</ele><time>2026-04-21T10:55:47.328Z</time></trkpt><trkpt lat="39.5669383" lon="8.5415917"><ele>177.0</ele><time>2026-04-21T10:55:48.329Z</time></trkpt><trkpt lat="39.5669167" lon="8.54167"><ele>177.66666666666666</ele><time>2026-04-21T10:55:49.329Z</time></trkpt><trkpt lat="39.5669033" lon="8.5417967"><ele>178.33333333333331</ele><time>2026-04-21T10:55:51.329Z</time></trkpt><trkpt lat="39.5669017" lon="8.541915"><ele>179.0</ele><time>2026-04-21T10:55:53.329Z</time></trkpt><trkpt lat="39.5669183" lon="8.5420333"><ele>180.5</ele><time>2026-04-21T10:55:55.329Z</time></trkpt><trkpt lat="39.566965" lon="8.54213"><ele>182.0</ele><time>2026-04-21T10:55:57.329Z</time></trkpt><trkpt lat="39.566995" lon="8.5422067"><ele>183.5</ele><time>2026-04-21T10:55:59.328Z</time></trkpt><trkpt lat="39.5670017" lon="8.5423033"><ele>185.0</ele><time>2026-04-21T10:56:01.329Z</time></trkpt><trkpt lat="39.5670317" lon="8.5424433"><ele>186.5</ele><time>2026-04-21T10:56:03.329Z</time></trkpt><trkpt lat="39.567045" lon="8.5425483"><ele>188.0</ele><time>2026-04-21T10:56:04.329Z</time></trkpt><trkpt lat="39.5670517" lon="8.54264"><ele>188.0</ele><time>2026-04-21T10:56:05.329Z</time></trkpt><trkpt lat="39.567065" lon="8.54273"><ele>188.0</ele><time>2026-04-21T10:56:06.329Z</time></trkpt><trkpt lat="39.5670883" lon="8.542865"><ele>188.0</ele><time>2026-04-21T10:56:08.328Z</time></trkpt><trkpt lat="39.5671117" lon="8.5430117"><ele>188.0</ele><time>2026-04-21T10:56:10.329Z</time></trkpt><trkpt lat="39.5671083" lon="8.5431617"><ele>188.0</ele><time>2026-04-21T10:56:12.329Z</time></trkpt><trkpt lat="39.567085" lon="8.5433217"><ele>188.16666666666666</ele><time>2026-04-21T10:56:14.329Z</time></trkpt><trkpt lat="39.567065" lon="8.5434033"><ele>188.33333333333331</ele><time>2026-04-21T10:56:15.329Z</time></trkpt><trkpt lat="39.5670267" lon="8.54353"><ele>188.5</ele><time>2026-04-21T10:56:17.329Z</time></trkpt><trkpt lat="39.5669683" lon="8.543615"><ele>188.66666666666666</ele><time>2026-04-21T10:56:19.329Z</time></trkpt><trkpt lat="39.5668817" lon="8.5436533"><ele>188.83333333333334</ele><time>2026-04-21T10:56:21.329Z</time></trkpt><trkpt lat="39.56682" lon="8.5436883"><ele>189.0</ele><time>2026-04-21T10:56:23.329Z</time></trkpt><trkpt lat="39.5667433" lon="8.5436417"><ele>190.66666666666666</ele><time>2026-04-21T10:56:26.329Z</time></trkpt><trkpt lat="39.56667" lon="8.5435033"><ele>192.33333333333331</ele><time>2026-04-21T10:56:28.329Z</time></trkpt><trkpt lat="39.56662" lon="8.5434317"><ele>194.0</ele><time>2026-04-21T10:56:29.329Z</time></trkpt><trkpt lat="39.566565" lon="8.5433633"><ele>195.66666666666666</ele><time>2026-04-21T10:56:30.328Z</time></trkpt><trkpt lat="39.5665133" lon="8.5432967"><ele>197.33333333333331</ele><time>2026-04-21T10:56:31.328Z</time></trkpt><trkpt lat="39.5664617" lon="8.54324"><ele>199.0</ele><time>2026-04-21T10:56:32.329Z</time></trkpt><trkpt lat="39.5663733" lon="8.5431317"><ele>198.99999999999997</ele><time>2026-04-21T10:56:34.328Z</time></trkpt><trkpt lat="39.5662967" lon="8.5430317"><ele>199.0</ele><time>2026-04-21T10:56:36.329Z</time></trkpt><trkpt lat="39.5661867" lon="8.5429633"><ele>199.0</ele><time>2026-04-21T10:56:38.329Z</time></trkpt><trkpt lat="39.566125" lon="8.5429367"><ele>199.0</ele><time>2026-04-21T10:56:39.328Z</time></trkpt><trkpt lat="39.566055" lon="8.5429233"><ele>198.99999999999997</ele><time>2026-04-21T10:56:40.329Z</time></trkpt><trkpt lat="39.565985" lon="8.54292"><ele>199.0</ele><time>2026-04-21T10:56:41.329Z</time></trkpt><trkpt lat="39.5658667" lon="8.5429367"><ele>204.79999999999998</ele><time>2026-04-21T10:56:43.329Z</time></trkpt><trkpt lat="39.565775" lon="8.5429733"><ele>210.6</ele><time>2026-04-21T10:56:45.328Z</time></trkpt><trkpt lat="39.56568" lon="8.5429767"><ele>216.4</ele><time>2026-04-21T10:56:47.328Z</time></trkpt><trkpt lat="39.5655467" lon="8.5429783"><ele>222.2</ele><time>2026-04-21T10:56:49.329Z</time></trkpt><trkpt lat="39.5654767" lon="8.542985"><ele>228.0</ele><time>2026-04-21T10:56:50.329Z</time></trkpt><trkpt lat="39.5654083" lon="8.542995"><ele>230.0</ele><time>2026-04-21T10:56:51.329Z</time></trkpt><trkpt lat="39.5652833" lon="8.5430217"><ele>232.0</ele><time>2026-04-21T10:56:53.328Z</time></trkpt><trkpt lat="39.5652217" lon="8.54305"><ele>234.0</ele><time>2026-04-21T10:56:54.329Z</time></trkpt><trkpt lat="39.5651633" lon="8.543085"><ele>236.0</ele><time>2026-04-21T10:56:55.328Z</time></trkpt><trkpt lat="39.5651033" lon="8.5431133"><ele>238.0</ele><time>2026-04-21T10:56:56.328Z</time></trkpt><trkpt lat="39.5649833" lon="8.5431483"><ele>240.0</ele><time>2026-04-21T10:56:58.328Z</time></trkpt><trkpt lat="39.564865" lon="8.543185"><ele>240.0</ele><time>2026-04-21T10:57:00.328Z</time></trkpt><trkpt lat="39.5648033" lon="8.5432033"><ele>240.0</ele><time>2026-04-21T10:57:01.328Z</time></trkpt><trkpt lat="39.56474" lon="8.543215"><ele>240.0</ele><time>2026-04-21T10:57:02.329Z</time></trkpt><trkpt lat="39.5646767" lon="8.54321"><ele>240.0</ele><time>2026-04-21T10:57:03.328Z</time></trkpt><trkpt lat="39.5646933" lon="8.5432933"><ele>240.0</ele><time>2026-04-21T10:57:08.329Z</time></trkpt><trkpt lat="39.564765" lon="8.54333"><ele>240.0</ele><time>2026-04-21T10:57:09.328Z</time></trkpt><trkpt lat="39.5648433" lon="8.5433867"><ele>240.0</ele><time>2026-04-21T10:57:10.329Z</time></trkpt><trkpt lat="39.5649167" lon="8.54344"><ele>240.0</ele><time>2026-04-21T10:57:11.329Z</time></trkpt><trkpt lat="39.564985" lon="8.5434867"><ele>240.0</ele><time>2026-04-21T10:57:12.329Z</time></trkpt><trkpt lat="39.56504" lon="8.543535"><ele>240.0</ele><time>2026-04-21T10:57:13.329Z</time></trkpt><trkpt lat="39.5650917" lon="8.5435983"><ele>240.0</ele><time>2026-04-21T10:57:14.329Z</time></trkpt><trkpt lat="39.5651367" lon="8.543675"><ele>240.0</ele><time>2026-04-21T10:57:15.328Z</time></trkpt><trkpt lat="39.5651633" lon="8.54375"><ele>240.0</ele><time>2026-04-21T10:57:16.328Z</time></trkpt><trkpt lat="39.56517" lon="8.5438817"><ele>241.4</ele><time>2026-04-21T10:57:18.328Z</time></trkpt><trkpt lat="39.5651317" lon="8.5439833"><ele>242.8</ele><time>2026-04-21T10:57:20.328Z</time></trkpt><trkpt lat="39.56505" lon="8.5440217"><ele>244.2</ele><time>2026-04-21T10:57:22.329Z</time></trkpt><trkpt lat="39.5649333" lon="8.543995"><ele>245.6</ele><time>2026-04-21T10:57:24.329Z</time></trkpt><trkpt lat="39.5648633" lon="8.5439733"><ele>247.0</ele><time>2026-04-21T10:57:25.328Z</time></trkpt><trkpt lat="39.56478" lon="8.54395"><ele>247.0</ele><time>2026-04-21T10:57:26.329Z</time></trkpt><trkpt lat="39.56468" lon="8.5439317"><ele>247.0</ele><time>2026-04-21T10:57:27.329Z</time></trkpt><trkpt lat="39.5645817" lon="8.543925"><ele>247.0</ele><time>2026-04-21T10:57:28.328Z</time></trkpt><trkpt lat="39.5644917" lon="8.543915"><ele>247.0</ele><time>2026-04-21T10:57:29.329Z</time></trkpt><trkpt lat="39.564395" lon="8.5438967"><ele>247.0</ele><time>2026-04-21T10:57:30.328Z</time></trkpt><trkpt lat="39.5643" lon="8.5438767"><ele>248.83333333333331</ele><time>2026-04-21T10:57:31.329Z</time></trkpt><trkpt lat="39.56421" lon="8.5438683"><ele>250.66666666666666</ele><time>2026-04-21T10:57:32.328Z</time></trkpt><trkpt lat="39.56414" lon="8.5438617"><ele>252.5</ele><time>2026-04-21T10:57:33.328Z</time></trkpt><trkpt lat="39.564045" lon="8.5437767"><ele>254.33333333333331</ele><time>2026-04-21T10:57:35.328Z</time></trkpt><trkpt lat="39.5640167" lon="8.5436933"><ele>256.1666666666667</ele><time>2026-04-21T10:57:36.328Z</time></trkpt><trkpt lat="39.56398" lon="8.54362"><ele>258.0</ele><time>2026-04-21T10:57:37.329Z</time></trkpt><trkpt lat="39.5638917" lon="8.5435417"><ele>258.0</ele><time>2026-04-21T10:57:39.328Z</time></trkpt><trkpt lat="39.5637867" lon="8.5435317"><ele>258.0</ele><time>2026-04-21T10:57:41.329Z</time></trkpt><trkpt lat="39.563675" lon="8.5435767"><ele>258.0</ele><time>2026-04-21T10:57:43.329Z</time></trkpt><trkpt lat="39.5636133" lon="8.5436183"><ele>258.0</ele><time>2026-04-21T10:57:44.329Z</time></trkpt><trkpt lat="39.563525" lon="8.543715"><ele>258.0</ele><time>2026-04-21T10:57:46.329Z</time></trkpt><trkpt lat="39.56347" lon="8.543835"><ele>259.0</ele><time>2026-04-21T10:57:48.329Z</time></trkpt><trkpt lat="39.5634417" lon="8.543915"><ele>260.0</ele><time>2026-04-21T10:57:49.329Z</time></trkpt><trkpt lat="39.5633667" lon="8.544035"><ele>261.0</ele><time>2026-04-21T10:57:51.329Z</time></trkpt><trkpt lat="39.5632817" lon="8.5441467"><ele>262.0</ele><time>2026-04-21T10:57:53.328Z</time></trkpt><trkpt lat="39.56319" lon="8.544225"><ele>263.0</ele><time>2026-04-21T10:57:55.328Z</time></trkpt><trkpt lat="39.5631" lon="8.5442717"><ele>263.0</ele><time>2026-04-21T10:57:57.328Z</time></trkpt><trkpt lat="39.563005" lon="8.5443167"><ele>263.0</ele><time>2026-04-21T10:57:59.329Z</time></trkpt><trkpt lat="39.5629533" lon="8.5443633"><ele>263.0</ele><time>2026-04-21T10:58:00.328Z</time></trkpt><trkpt lat="39.5628967" lon="8.5444183"><ele>263.0</ele><time>2026-04-21T10:58:01.329Z</time></trkpt><trkpt lat="39.5628333" lon="8.5444783"><ele>263.0</ele><time>2026-04-21T10:58:02.329Z</time></trkpt><trkpt lat="39.562775" lon="8.5445267"><ele>263.0</ele><time>2026-04-21T10:58:03.329Z</time></trkpt><trkpt lat="39.5627117" lon="8.5445683"><ele>262.6666666666667</ele><time>2026-04-21T10:58:04.328Z</time></trkpt><trkpt lat="39.5626483" lon="8.544595"><ele>262.33333333333337</ele><time>2026-04-21T10:58:05.329Z</time></trkpt><trkpt lat="39.5625783" lon="8.54461"><ele>262.0</ele><time>2026-04-21T10:58:06.328Z</time></trkpt><trkpt lat="39.5625" lon="8.544625"><ele>261.6666666666667</ele><time>2026-04-21T10:58:07.328Z</time></trkpt><trkpt lat="39.562425" lon="8.54464"><ele>261.3333333333333</ele><time>2026-04-21T10:58:08.329Z</time></trkpt><trkpt lat="39.5623433" lon="8.5446467"><ele>261.0</ele><time>2026-04-21T10:58:09.328Z</time></trkpt><trkpt lat="39.5622633" lon="8.54466"><ele>261.0</ele><time>2026-04-21T10:58:10.329Z</time></trkpt><trkpt lat="39.5621833" lon="8.5446767"><ele>261.0</ele><time>2026-04-21T10:58:11.329Z</time></trkpt><trkpt lat="39.5621" lon="8.5447033"><ele>261.0</ele><time>2026-04-21T10:58:12.329Z</time></trkpt><trkpt lat="39.5620133" lon="8.5447433"><ele>261.0</ele><time>2026-04-21T10:58:13.329Z</time></trkpt><trkpt lat="39.561925" lon="8.5447783"><ele>261.0</ele><time>2026-04-21T10:58:14.328Z</time></trkpt><trkpt lat="39.5618483" lon="8.5448033"><ele>261.0</ele><time>2026-04-21T10:58:15.329Z</time></trkpt><trkpt lat="39.561775" lon="8.5448383"><ele>263.1666666666667</ele><time>2026-04-21T10:58:16.329Z</time></trkpt><trkpt lat="39.5617017" lon="8.5448817"><ele>265.3333333333333</ele><time>2026-04-21T10:58:17.329Z</time></trkpt><trkpt lat="39.5616317" lon="8.5449467"><ele>267.5</ele><time>2026-04-21T10:58:18.328Z</time></trkpt><trkpt lat="39.56156" lon="8.54501"><ele>269.66666666666663</ele><time>2026-04-21T10:58:19.329Z</time></trkpt><trkpt lat="39.561495" lon="8.545075"><ele>271.8333333333333</ele><time>2026-04-21T10:58:20.328Z</time></trkpt><trkpt lat="39.56143" lon="8.54513"><ele>274.0</ele><time>2026-04-21T10:58:21.329Z</time></trkpt><trkpt lat="39.5613617" lon="8.545195"><ele>274.0</ele><time>2026-04-21T10:58:22.328Z</time></trkpt><trkpt lat="39.5613017" lon="8.545275"><ele>274.0</ele><time>2026-04-21T10:58:23.328Z</time></trkpt><trkpt lat="39.5612383" lon="8.54536"><ele>274.0</ele><time>2026-04-21T10:58:24.328Z</time></trkpt><trkpt lat="39.5611867" lon="8.5454483"><ele>274.0</ele><time>2026-04-21T10:58:25.329Z</time></trkpt><trkpt lat="39.561135" lon="8.5455183"><ele>274.0</ele><time>2026-04-21T10:58:26.328Z</time></trkpt><trkpt lat="39.5610667" lon="8.5456283"><ele>274.0</ele><time>2026-04-21T10:58:28.329Z</time></trkpt><trkpt lat="39.561" lon="8.5457233"><ele>276.8333333333333</ele><time>2026-04-21T10:58:30.328Z</time></trkpt><trkpt lat="39.5609017" lon="8.545785"><ele>279.66666666666663</ele><time>2026-04-21T10:58:32.328Z</time></trkpt><trkpt lat="39.5608367" lon="8.545795"><ele>282.5</ele><time>2026-04-21T10:58:33.328Z</time></trkpt><trkpt lat="39.5607583" lon="8.545795"><ele>285.3333333333333</ele><time>2026-04-21T10:58:34.329Z</time></trkpt><trkpt lat="39.5606733" lon="8.545785"><ele>288.1666666666667</ele><time>2026-04-21T10:58:35.328Z</time></trkpt><trkpt lat="39.5605883" lon="8.5457633"><ele>291.0</ele><time>2026-04-21T10:58:36.329Z</time></trkpt><trkpt lat="39.5605083" lon="8.5457533"><ele>291.0</ele><time>2026-04-21T10:58:37.328Z</time></trkpt><trkpt lat="39.56039" lon="8.5457333"><ele>291.0</ele><time>2026-04-21T10:58:39.329Z</time></trkpt><trkpt lat="39.5602867" lon="8.5456517"><ele>291.0</ele><time>2026-04-21T10:58:41.329Z</time></trkpt><trkpt lat="39.5602217" lon="8.5455883"><ele>291.0</ele><time>2026-04-21T10:58:42.328Z</time></trkpt><trkpt lat="39.560155" lon="8.545525"><ele>291.0</ele><time>2026-04-21T10:58:43.328Z</time></trkpt><trkpt lat="39.5600867" lon="8.545465"><ele>290.8333333333333</ele><time>2026-04-21T10:58:44.329Z</time></trkpt><trkpt lat="39.5600267" lon="8.5454217"><ele>290.6666666666667</ele><time>2026-04-21T10:58:45.328Z</time></trkpt><trkpt lat="39.5599733" lon="8.5453683"><ele>290.5</ele><time>2026-04-21T10:58:46.329Z</time></trkpt><trkpt lat="39.5598867" lon="8.5452717"><ele>290.33333333333337</ele><time>2026-04-21T10:58:48.328Z</time></trkpt><trkpt lat="39.5598217" lon="8.5452683"><ele>290.1666666666667</ele><time>2026-04-21T10:58:50.329Z</time></trkpt><trkpt lat="39.5597917" lon="8.54536"><ele>290.0</ele><time>2026-04-21T10:58:52.328Z</time></trkpt><trkpt lat="39.5597717" lon="8.54552"><ele>291.1666666666667</ele><time>2026-04-21T10:58:54.329Z</time></trkpt><trkpt lat="39.5597633" lon="8.54561"><ele>292.33333333333337</ele><time>2026-04-21T10:58:55.329Z</time></trkpt><trkpt lat="39.5597483" lon="8.54572"><ele>293.5</ele><time>2026-04-21T10:58:56.328Z</time></trkpt><trkpt lat="39.55974" lon="8.5458383"><ele>294.6666666666667</ele><time>2026-04-21T10:58:57.329Z</time></trkpt><trkpt lat="39.5597317" lon="8.5459667"><ele>295.8333333333333</ele><time>2026-04-21T10:58:58.329Z</time></trkpt><trkpt lat="39.5597367" lon="8.546085"><ele>297.0</ele><time>2026-04-21T10:58:59.328Z</time></trkpt><trkpt lat="39.5597483" lon="8.546195"><ele>297.8</ele><time>2026-04-21T10:59:00.329Z</time></trkpt><trkpt lat="39.55977" lon="8.5463017"><ele>298.6</ele><time>2026-04-21T10:59:01.328Z</time></trkpt><trkpt lat="39.5598067" lon="8.5464083"><ele>299.40000000000003</ele><time>2026-04-21T10:59:02.328Z</time></trkpt><trkpt lat="39.5598367" lon="8.5465183"><ele>300.2</ele><time>2026-04-21T10:59:03.329Z</time></trkpt><trkpt lat="39.5598567" lon="8.5466383"><ele>301.0</ele><time>2026-04-21T10:59:04.329Z</time></trkpt><trkpt lat="39.5598733" lon="8.546765"><ele>301.0</ele><time>2026-04-21T10:59:05.329Z</time></trkpt><trkpt lat="39.5598967" lon="8.546895"><ele>301.0</ele><time>2026-04-21T10:59:06.328Z</time></trkpt><trkpt lat="39.5599283" lon="8.5470183"><ele>301.0</ele><time>2026-04-21T10:59:07.329Z</time></trkpt><trkpt lat="39.55996" lon="8.5471317"><ele>301.0</ele><time>2026-04-21T10:59:08.329Z</time></trkpt><trkpt lat="39.5599933" lon="8.5472417"><ele>301.0</ele><time>2026-04-21T10:59:09.328Z</time></trkpt><trkpt lat="39.560015" lon="8.547345"><ele>301.0</ele><time>2026-04-21T10:59:10.328Z</time></trkpt><trkpt lat="39.560025" lon="8.547435"><ele>301.0</ele><time>2026-04-21T10:59:11.328Z</time></trkpt><trkpt lat="39.56002" lon="8.5475317"><ele>301.0</ele><time>2026-04-21T10:59:12.328Z</time></trkpt><trkpt lat="39.5600067" lon="8.5476467"><ele>301.0</ele><time>2026-04-21T10:59:13.328Z</time></trkpt><trkpt lat="39.559995" lon="8.5477617"><ele>301.0</ele><time>2026-04-21T10:59:14.329Z</time></trkpt><trkpt lat="39.5599867" lon="8.547875"><ele>301.0</ele><time>2026-04-21T10:59:15.328Z</time></trkpt><trkpt lat="39.559995" lon="8.5479967"><ele>301.0</ele><time>2026-04-21T10:59:16.329Z</time></trkpt><trkpt lat="39.5600017" lon="8.548125"><ele>301.0</ele><time>2026-04-21T10:59:17.328Z</time></trkpt><trkpt lat="39.56001" lon="8.548245"><ele>301.0</ele><time>2026-04-21T10:59:18.329Z</time></trkpt><trkpt lat="39.560025" lon="8.5483567"><ele>301.0</ele><time>2026-04-21T10:59:19.328Z</time></trkpt><trkpt lat="39.5600383" lon="8.5484633"><ele>301.0</ele><time>2026-04-21T10:59:20.329Z</time></trkpt><trkpt lat="39.5600283" lon="8.54857"><ele>301.0</ele><time>2026-04-21T10:59:21.328Z</time></trkpt><trkpt lat="39.5599983" lon="8.548685"><ele>300.8</ele><time>2026-04-21T10:59:22.328Z</time></trkpt><trkpt lat="39.5599467" lon="8.5487883"><ele>300.6</ele><time>2026-04-21T10:59:23.329Z</time></trkpt><trkpt lat="39.55988" lon="8.54889"><ele>300.4</ele><time>2026-04-21T10:59:24.328Z</time></trkpt><trkpt lat="39.5598167" lon="8.5489933"><ele>300.2</ele><time>2026-04-21T10:59:25.328Z</time></trkpt><trkpt lat="39.5597567" lon="8.54911"><ele>300.0</ele><time>2026-04-21T10:59:26.327Z</time></trkpt><trkpt lat="39.5597017" lon="8.54924"><ele>300.0</ele><time>2026-04-21T10:59:27.328Z</time></trkpt><trkpt lat="39.55964" lon="8.5493767"><ele>300.0</ele><time>2026-04-21T10:59:28.328Z</time></trkpt><trkpt lat="39.5595717" lon="8.5495117"><ele>300.0</ele><time>2026-04-21T10:59:29.327Z</time></trkpt><trkpt lat="39.5595033" lon="8.5496433"><ele>300.0</ele><time>2026-04-21T10:59:30.328Z</time></trkpt><trkpt lat="39.5594483" lon="8.5497683"><ele>302.3333333333333</ele><time>2026-04-21T10:59:31.328Z</time></trkpt><trkpt lat="39.5594" lon="8.5498867"><ele>304.6666666666667</ele><time>2026-04-21T10:59:32.327Z</time></trkpt><trkpt lat="39.5593517" lon="8.5499917"><ele>307.0</ele><time>2026-04-21T10:59:33.328Z</time></trkpt><trkpt lat="39.5593017" lon="8.5500867"><ele>309.33333333333337</ele><time>2026-04-21T10:59:34.327Z</time></trkpt><trkpt lat="39.5592433" lon="8.5501683"><ele>311.6666666666667</ele><time>2026-04-21T10:59:35.327Z</time></trkpt><trkpt lat="39.5591917" lon="8.5502333"><ele>314.0</ele><time>2026-04-21T10:59:36.328Z</time></trkpt><trkpt lat="39.5591283" lon="8.5502717"><ele>314.0</ele><time>2026-04-21T10:59:37.327Z</time></trkpt><trkpt lat="39.5590517" lon="8.5503083"><ele>314.0</ele><time>2026-04-21T10:59:38.328Z</time></trkpt><trkpt lat="39.5589783" lon="8.5503483"><ele>314.0</ele><time>2026-04-21T10:59:39.328Z</time></trkpt><trkpt lat="39.5589167" lon="8.5504067"><ele>314.0</ele><time>2026-04-21T10:59:40.328Z</time></trkpt><trkpt lat="39.5588667" lon="8.5504917"><ele>314.0</ele><time>2026-04-21T10:59:41.327Z</time></trkpt><trkpt lat="39.5588217" lon="8.5505983"><ele>314.0</ele><time>2026-04-21T10:59:42.328Z</time></trkpt><trkpt lat="39.558765" lon="8.550715"><ele>313.5</ele><time>2026-04-21T10:59:43.328Z</time></trkpt><trkpt lat="39.558705" lon="8.5508433"><ele>313.0</ele><time>2026-04-21T10:59:44.328Z</time></trkpt><trkpt lat="39.5586417" lon="8.5509817"><ele>312.5</ele><time>2026-04-21T10:59:45.327Z</time></trkpt><trkpt lat="39.558585" lon="8.5511167"><ele>312.0</ele><time>2026-04-21T10:59:46.327Z</time></trkpt><trkpt lat="39.5585383" lon="8.5512483"><ele>312.0</ele><time>2026-04-21T10:59:47.328Z</time></trkpt><trkpt lat="39.5584933" lon="8.5513733"><ele>312.0</ele><time>2026-04-21T10:59:48.327Z</time></trkpt><trkpt lat="39.5584567" lon="8.551495"><ele>312.0</ele><time>2026-04-21T10:59:49.328Z</time></trkpt><trkpt lat="39.5584183" lon="8.5516117"><ele>312.0</ele><time>2026-04-21T10:59:50.327Z</time></trkpt><trkpt lat="39.55838" lon="8.5517233"><ele>312.0</ele><time>2026-04-21T10:59:51.327Z</time></trkpt><trkpt lat="39.5583383" lon="8.5518267"><ele>312.0</ele><time>2026-04-21T10:59:52.328Z</time></trkpt><trkpt lat="39.5582967" lon="8.5519133"><ele>312.0</ele><time>2026-04-21T10:59:53.327Z</time></trkpt><trkpt lat="39.5582483" lon="8.5520017"><ele>312.0</ele><time>2026-04-21T10:59:54.327Z</time></trkpt><trkpt lat="39.558195" lon="8.552095"><ele>312.0</ele><time>2026-04-21T10:59:55.328Z</time></trkpt><trkpt lat="39.5581533" lon="8.5521933"><ele>312.0</ele><time>2026-04-21T10:59:56.327Z</time></trkpt><trkpt lat="39.5581183" lon="8.5522917"><ele>312.0</ele><time>2026-04-21T10:59:57.328Z</time></trkpt><trkpt lat="39.5580983" lon="8.55239"><ele>311.8</ele><time>2026-04-21T10:59:58.327Z</time></trkpt><trkpt lat="39.5580767" lon="8.5524867"><ele>311.6</ele><time>2026-04-21T10:59:59.328Z</time></trkpt><trkpt lat="39.55805" lon="8.5525883"><ele>311.40000000000003</ele><time>2026-04-21T11:00:00.328Z</time></trkpt><trkpt lat="39.5580133" lon="8.5527033"><ele>311.2</ele><time>2026-04-21T11:00:01.328Z</time></trkpt><trkpt lat="39.5579667" lon="8.55281"><ele>311.0</ele><time>2026-04-21T11:00:02.328Z</time></trkpt><trkpt lat="39.55791" lon="8.5529167"><ele>311.6</ele><time>2026-04-21T11:00:03.328Z</time></trkpt><trkpt lat="39.55786" lon="8.5530317"><ele>312.20000000000005</ele><time>2026-04-21T11:00:04.328Z</time></trkpt><trkpt lat="39.5578183" lon="8.553145"><ele>312.79999999999995</ele><time>2026-04-21T11:00:05.328Z</time></trkpt><trkpt lat="39.5577817" lon="8.55326"><ele>313.4</ele><time>2026-04-21T11:00:06.327Z</time></trkpt><trkpt lat="39.55775" lon="8.55337"><ele>314.0</ele><time>2026-04-21T11:00:07.328Z</time></trkpt><trkpt lat="39.55772" lon="8.5534783"><ele>314.0</ele><time>2026-04-21T11:00:08.327Z</time></trkpt><trkpt lat="39.5576833" lon="8.553575"><ele>314.0</ele><time>2026-04-21T11:00:09.328Z</time></trkpt><trkpt lat="39.5576367" lon="8.55367"><ele>314.0</ele><time>2026-04-21T11:00:10.328Z</time></trkpt><trkpt lat="39.55758" lon="8.5537633"><ele>314.0</ele><time>2026-04-21T11:00:11.327Z</time></trkpt><trkpt lat="39.5575217" lon="8.5538533"><ele>314.0</ele><time>2026-04-21T11:00:12.328Z</time></trkpt><trkpt lat="39.5574683" lon="8.5539467"><ele>314.0</ele><time>2026-04-21T11:00:13.327Z</time></trkpt><trkpt lat="39.5574283" lon="8.5540517"><ele>313.0</ele><time>2026-04-21T11:00:14.328Z</time></trkpt><trkpt lat="39.5574017" lon="8.55418"><ele>312.0</ele><time>2026-04-21T11:00:15.328Z</time></trkpt><trkpt lat="39.5573967" lon="8.55432"><ele>311.0</ele><time>2026-04-21T11:00:16.328Z</time></trkpt><trkpt lat="39.5573967" lon="8.5544633"><ele>310.0</ele><time>2026-04-21T11:00:17.328Z</time></trkpt><trkpt lat="39.5573967" lon="8.5545983"><ele>309.0</ele><time>2026-04-21T11:00:18.328Z</time></trkpt><trkpt lat="39.5574017" lon="8.5547183"><ele>309.0</ele><time>2026-04-21T11:00:19.328Z</time></trkpt><trkpt lat="39.5574183" lon="8.5548367"><ele>309.0</ele><time>2026-04-21T11:00:20.327Z</time></trkpt><trkpt lat="39.55745" lon="8.5549483"><ele>309.0</ele><time>2026-04-21T11:00:21.328Z</time></trkpt><trkpt lat="39.5574717" lon="8.55506"><ele>309.0</ele><time>2026-04-21T11:00:22.328Z</time></trkpt><trkpt lat="39.5574833" lon="8.5551867"><ele>309.0</ele><time>2026-04-21T11:00:23.327Z</time></trkpt><trkpt lat="39.5574883" lon="8.5553333"><ele>308.75</ele><time>2026-04-21T11:00:24.327Z</time></trkpt><trkpt lat="39.5574883" lon="8.5554833"><ele>308.5</ele><time>2026-04-21T11:00:25.328Z</time></trkpt><trkpt lat="39.55748" lon="8.55564"><ele>308.25</ele><time>2026-04-21T11:00:26.327Z</time></trkpt><trkpt lat="39.5574767" lon="8.5557933"><ele>308.0</ele><time>2026-04-21T11:00:27.327Z</time></trkpt><trkpt lat="39.5574767" lon="8.5559367"><ele>308.0</ele><time>2026-04-21T11:00:28.328Z</time></trkpt><trkpt lat="39.5574667" lon="8.5560733"><ele>308.0</ele><time>2026-04-21T11:00:29.328Z</time></trkpt><trkpt lat="39.5574533" lon="8.5562033"><ele>308.0</ele><time>2026-04-21T11:00:30.327Z</time></trkpt><trkpt lat="39.5574233" lon="8.5563233"><ele>308.0</ele><time>2026-04-21T11:00:31.327Z</time></trkpt><trkpt lat="39.5573733" lon="8.55643"><ele>308.0</ele><time>2026-04-21T11:00:32.328Z</time></trkpt><trkpt lat="39.5573017" lon="8.5565267"><ele>308.2</ele><time>2026-04-21T11:00:33.327Z</time></trkpt><trkpt lat="39.55721" lon="8.5566083"><ele>308.4</ele><time>2026-04-21T11:00:34.328Z</time></trkpt><trkpt lat="39.557125" lon="8.5566883"><ele>308.59999999999997</ele><time>2026-04-21T11:00:35.327Z</time></trkpt><trkpt lat="39.557045" lon="8.5567683"><ele>308.8</ele><time>2026-04-21T11:00:36.328Z</time></trkpt><trkpt lat="39.556975" lon="8.556865"><ele>309.0</ele><time>2026-04-21T11:00:37.328Z</time></trkpt><trkpt lat="39.5569183" lon="8.5569717"><ele>312.4</ele><time>2026-04-21T11:00:38.328Z</time></trkpt><trkpt lat="39.55687" lon="8.5570917"><ele>315.79999999999995</ele><time>2026-04-21T11:00:39.327Z</time></trkpt><trkpt lat="39.5568267" lon="8.557225"><ele>319.20000000000005</ele><time>2026-04-21T11:00:40.327Z</time></trkpt><trkpt lat="39.5567867" lon="8.5573567"><ele>322.6</ele><time>2026-04-21T11:00:41.328Z</time></trkpt><trkpt lat="39.556745" lon="8.5574867"><ele>326.0</ele><time>2026-04-21T11:00:42.327Z</time></trkpt><trkpt lat="39.5567017" lon="8.557605"><ele>326.0</ele><time>2026-04-21T11:00:43.328Z</time></trkpt><trkpt lat="39.5566567" lon="8.557705"><ele>326.0</ele><time>2026-04-21T11:00:44.328Z</time></trkpt><trkpt lat="39.5566183" lon="8.5577817"><ele>326.0</ele><time>2026-04-21T11:00:45.328Z</time></trkpt><trkpt lat="39.556565" lon="8.5578483"><ele>326.0</ele><time>2026-04-21T11:00:46.328Z</time></trkpt><trkpt lat="39.5564883" lon="8.5578833"><ele>326.0</ele><time>2026-04-21T11:00:47.328Z</time></trkpt><trkpt lat="39.556405" lon="8.557925"><ele>326.0</ele><time>2026-04-21T11:00:48.327Z</time></trkpt><trkpt lat="39.55632" lon="8.557965"><ele>326.6666666666667</ele><time>2026-04-21T11:00:49.328Z</time></trkpt><trkpt lat="39.55625" lon="8.5580083"><ele>327.33333333333337</ele><time>2026-04-21T11:00:50.328Z</time></trkpt><trkpt lat="39.5561867" lon="8.5580617"><ele>328.0</ele><time>2026-04-21T11:00:51.328Z</time></trkpt><trkpt lat="39.55613" lon="8.5581317"><ele>328.6666666666667</ele><time>2026-04-21T11:00:52.327Z</time></trkpt><trkpt lat="39.5560867" lon="8.5582233"><ele>329.3333333333333</ele><time>2026-04-21T11:00:53.328Z</time></trkpt><trkpt lat="39.5560517" lon="8.5583167"><ele>330.0</ele><time>2026-04-21T11:00:54.328Z</time></trkpt><trkpt lat="39.5560133" lon="8.5584"><ele>330.0</ele><time>2026-04-21T11:00:55.328Z</time></trkpt><trkpt lat="39.5559167" lon="8.5584967"><ele>330.0</ele><time>2026-04-21T11:00:57.327Z</time></trkpt><trkpt lat="39.5558467" lon="8.5585317"><ele>330.0</ele><time>2026-04-21T11:00:58.328Z</time></trkpt><trkpt lat="39.55576" lon="8.5585667"><ele>330.0</ele><time>2026-04-21T11:00:59.328Z</time></trkpt><trkpt lat="39.5556817" lon="8.558595"><ele>330.0</ele><time>2026-04-21T11:01:00.327Z</time></trkpt><trkpt lat="39.5556067" lon="8.558625"><ele>330.0</ele><time>2026-04-21T11:01:01.328Z</time></trkpt><trkpt lat="39.5555467" lon="8.5586833"><ele>328.0</ele><time>2026-04-21T11:01:02.327Z</time></trkpt><trkpt lat="39.5555067" lon="8.5587683"><ele>326.0</ele><time>2026-04-21T11:01:03.327Z</time></trkpt><trkpt lat="39.55548" lon="8.5588733"><ele>324.0</ele><time>2026-04-21T11:01:04.327Z</time></trkpt><trkpt lat="39.5554733" lon="8.5589933"><ele>322.0</ele><time>2026-04-21T11:01:05.328Z</time></trkpt><trkpt lat="39.555475" lon="8.5591333"><ele>320.0</ele><time>2026-04-21T11:01:06.327Z</time></trkpt><trkpt lat="39.5554833" lon="8.559275"><ele>320.0</ele><time>2026-04-21T11:01:07.327Z</time></trkpt><trkpt lat="39.55549" lon="8.5594167"><ele>320.0</ele><time>2026-04-21T11:01:08.328Z</time></trkpt><trkpt lat="39.5554967" lon="8.5595483"><ele>320.0</ele><time>2026-04-21T11:01:09.328Z</time></trkpt><trkpt lat="39.5555067" lon="8.55969"><ele>320.0</ele><time>2026-04-21T11:01:10.327Z</time></trkpt><trkpt lat="39.5555083" lon="8.5598133"><ele>320.0</ele><time>2026-04-21T11:01:11.327Z</time></trkpt><trkpt lat="39.5554933" lon="8.5599317"><ele>320.33333333333337</ele><time>2026-04-21T11:01:12.328Z</time></trkpt><trkpt lat="39.5554783" lon="8.5600467"><ele>320.6666666666667</ele><time>2026-04-21T11:01:13.328Z</time></trkpt><trkpt lat="39.5554717" lon="8.5601533"><ele>321.0</ele><time>2026-04-21T11:01:14.328Z</time></trkpt><trkpt lat="39.5554817" lon="8.560255"><ele>321.3333333333333</ele><time>2026-04-21T11:01:15.328Z</time></trkpt><trkpt lat="39.5555167" lon="8.560365"><ele>321.66666666666663</ele><time>2026-04-21T11:01:16.328Z</time></trkpt><trkpt lat="39.5555633" lon="8.5604733"><ele>322.0</ele><time>2026-04-21T11:01:17.328Z</time></trkpt><trkpt lat="39.5555933" lon="8.5605783"><ele>322.0</ele><time>2026-04-21T11:01:18.328Z</time></trkpt><trkpt lat="39.5556067" lon="8.5606817"><ele>322.0</ele><time>2026-04-21T11:01:19.328Z</time></trkpt><trkpt lat="39.5556" lon="8.5608017"><ele>322.0</ele><time>2026-04-21T11:01:20.328Z</time></trkpt><trkpt lat="39.55558" lon="8.5609133"><ele>322.0</ele><time>2026-04-21T11:01:21.327Z</time></trkpt><trkpt lat="39.5555617" lon="8.56102"><ele>322.0</ele><time>2026-04-21T11:01:22.328Z</time></trkpt><trkpt lat="39.55557" lon="8.5611217"><ele>322.0</ele><time>2026-04-21T11:01:23.328Z</time></trkpt><trkpt lat="39.555595" lon="8.5612183"><ele>322.0</ele><time>2026-04-21T11:01:24.327Z</time></trkpt><trkpt lat="39.5556417" lon="8.5613083"><ele>322.0</ele><time>2026-04-21T11:01:25.328Z</time></trkpt><trkpt lat="39.55569" lon="8.56141"><ele>322.0</ele><time>2026-04-21T11:01:26.328Z</time></trkpt><trkpt lat="39.5557433" lon="8.5615083"><ele>322.0</ele><time>2026-04-21T11:01:27.328Z</time></trkpt><trkpt lat="39.5557917" lon="8.5616033"><ele>322.0</ele><time>2026-04-21T11:01:28.328Z</time></trkpt><trkpt lat="39.5558417" lon="8.561685"><ele>322.0</ele><time>2026-04-21T11:01:29.327Z</time></trkpt><trkpt lat="39.5558883" lon="8.5617633"><ele>322.0</ele><time>2026-04-21T11:01:30.327Z</time></trkpt><trkpt lat="39.55593" lon="8.5618417"><ele>322.0</ele><time>2026-04-21T11:01:31.327Z</time></trkpt><trkpt lat="39.5559683" lon="8.5619267"><ele>322.0</ele><time>2026-04-21T11:01:32.328Z</time></trkpt><trkpt lat="39.5559933" lon="8.5620133"><ele>322.0</ele><time>2026-04-21T11:01:33.327Z</time></trkpt><trkpt lat="39.5560017" lon="8.562095"><ele>322.0</ele><time>2026-04-21T11:01:34.327Z</time></trkpt><trkpt lat="39.55599" lon="8.56218"><ele>322.0</ele><time>2026-04-21T11:01:35.327Z</time></trkpt><trkpt lat="39.555955" lon="8.5622633"><ele>322.0</ele><time>2026-04-21T11:01:36.328Z</time></trkpt><trkpt lat="39.55589" lon="8.56235"><ele>322.5</ele><time>2026-04-21T11:01:37.327Z</time></trkpt><trkpt lat="39.5558333" lon="8.5624483"><ele>323.0</ele><time>2026-04-21T11:01:38.328Z</time></trkpt><trkpt lat="39.5558033" lon="8.562555"><ele>323.5</ele><time>2026-04-21T11:01:39.328Z</time></trkpt><trkpt lat="39.5558" lon="8.5626633"><ele>324.0</ele><time>2026-04-21T11:01:40.328Z</time></trkpt><trkpt lat="39.5558117" lon="8.5627583"><ele>324.5</ele><time>2026-04-21T11:01:41.327Z</time></trkpt><trkpt lat="39.5558433" lon="8.5628533"><ele>325.0</ele><time>2026-04-21T11:01:42.327Z</time></trkpt><trkpt lat="39.555895" lon="8.5629483"><ele>325.6</ele><time>2026-04-21T11:01:43.328Z</time></trkpt><trkpt lat="39.5559517" lon="8.5630467"><ele>326.2</ele><time>2026-04-21T11:01:44.327Z</time></trkpt><trkpt lat="39.5560117" lon="8.5631567"><ele>326.79999999999995</ele><time>2026-04-21T11:01:45.328Z</time></trkpt><trkpt lat="39.5560733" lon="8.56327"><ele>327.4</ele><time>2026-04-21T11:01:46.328Z</time></trkpt><trkpt lat="39.5561317" lon="8.5633983"><ele>328.0</ele><time>2026-04-21T11:01:47.327Z</time></trkpt><trkpt lat="39.5561733" lon="8.563525"><ele>328.8333333333333</ele><time>2026-04-21T11:01:48.327Z</time></trkpt><trkpt lat="39.5562083" lon="8.5636433"><ele>329.66666666666663</ele><time>2026-04-21T11:01:49.328Z</time></trkpt><trkpt lat="39.5562333" lon="8.5637517"><ele>330.5</ele><time>2026-04-21T11:01:50.327Z</time></trkpt><trkpt lat="39.5562333" lon="8.5638517"><ele>331.3333333333333</ele><time>2026-04-21T11:01:51.328Z</time></trkpt><trkpt lat="39.5562267" lon="8.5639517"><ele>332.1666666666667</ele><time>2026-04-21T11:01:52.328Z</time></trkpt><trkpt lat="39.5561983" lon="8.5640683"><ele>333.0</ele><time>2026-04-21T11:01:53.327Z</time></trkpt><trkpt lat="39.5561583" lon="8.564185"><ele>333.0</ele><time>2026-04-21T11:01:54.328Z</time></trkpt><trkpt lat="39.5561267" lon="8.56429"><ele>333.0</ele><time>2026-04-21T11:01:55.328Z</time></trkpt><trkpt lat="39.5561" lon="8.5643817"><ele>333.0</ele><time>2026-04-21T11:01:56.328Z</time></trkpt><trkpt lat="39.5560217" lon="8.564495"><ele>333.0</ele><time>2026-04-21T11:01:58.328Z</time></trkpt><trkpt lat="39.5559167" lon="8.5645317"><ele>333.0</ele><time>2026-04-21T11:02:00.328Z</time></trkpt><trkpt lat="39.5558417" lon="8.5644967"><ele>333.0</ele><time>2026-04-21T11:02:01.327Z</time></trkpt><trkpt lat="39.5557617" lon="8.56445"><ele>333.0</ele><time>2026-04-21T11:02:02.327Z</time></trkpt><trkpt lat="39.5556783" lon="8.5644217"><ele>333.0</ele><time>2026-04-21T11:02:03.328Z</time></trkpt><trkpt lat="39.555595" lon="8.5644117"><ele>333.0</ele><time>2026-04-21T11:02:04.328Z</time></trkpt><trkpt lat="39.5555267" lon="8.5644167"><ele>333.0</ele><time>2026-04-21T11:02:05.328Z</time></trkpt><trkpt lat="39.5554317" lon="8.56448"><ele>333.0</ele><time>2026-04-21T11:02:07.327Z</time></trkpt><trkpt lat="39.5554217" lon="8.5645867"><ele>335.0</ele><time>2026-04-21T11:02:09.328Z</time></trkpt><trkpt lat="39.555505" lon="8.5646533"><ele>337.0</ele><time>2026-04-21T11:02:11.328Z</time></trkpt><trkpt lat="39.55562" lon="8.5647267"><ele>339.0</ele><time>2026-04-21T11:02:13.328Z</time></trkpt><trkpt lat="39.5556817" lon="8.564795"><ele>341.0</ele><time>2026-04-21T11:02:14.328Z</time></trkpt><trkpt lat="39.5557383" lon="8.564885"><ele>343.0</ele><time>2026-04-21T11:02:15.328Z</time></trkpt><trkpt lat="39.555785" lon="8.5649933"><ele>343.0</ele><time>2026-04-21T11:02:16.328Z</time></trkpt><trkpt lat="39.5558217" lon="8.5650967"><ele>343.0</ele><time>2026-04-21T11:02:17.328Z</time></trkpt><trkpt lat="39.55587" lon="8.565185"><ele>343.0</ele><time>2026-04-21T11:02:18.328Z</time></trkpt><trkpt lat="39.5559267" lon="8.5652733"><ele>343.0</ele><time>2026-04-21T11:02:19.328Z</time></trkpt><trkpt lat="39.556005" lon="8.56536"><ele>343.0</ele><time>2026-04-21T11:02:20.327Z</time></trkpt><trkpt lat="39.5560833" lon="8.5654417"><ele>342.5</ele><time>2026-04-21T11:02:21.328Z</time></trkpt><trkpt lat="39.5561483" lon="8.565515"><ele>342.0</ele><time>2026-04-21T11:02:22.328Z</time></trkpt><trkpt lat="39.556195" lon="8.565585"><ele>341.5</ele><time>2026-04-21T11:02:23.327Z</time></trkpt><trkpt lat="39.5562267" lon="8.5656617"><ele>341.0</ele><time>2026-04-21T11:02:24.327Z</time></trkpt><trkpt lat="39.556255" lon="8.565755"><ele>340.5</ele><time>2026-04-21T11:02:25.327Z</time></trkpt><trkpt lat="39.5562667" lon="8.56585"><ele>340.0</ele><time>2026-04-21T11:02:26.327Z</time></trkpt><trkpt lat="39.55627" lon="8.565955"><ele>340.0</ele><time>2026-04-21T11:02:27.327Z</time></trkpt><trkpt lat="39.55626" lon="8.5660783"><ele>340.0</ele><time>2026-04-21T11:02:28.327Z</time></trkpt><trkpt lat="39.556245" lon="8.5662133"><ele>340.0</ele><time>2026-04-21T11:02:29.328Z</time></trkpt><trkpt lat="39.556235" lon="8.5663617"><ele>340.0</ele><time>2026-04-21T11:02:30.328Z</time></trkpt><trkpt lat="39.5562233" lon="8.56652"><ele>340.0</ele><time>2026-04-21T11:02:31.328Z</time></trkpt><trkpt lat="39.5562117" lon="8.566685"><ele>343.75</ele><time>2026-04-21T11:02:32.327Z</time></trkpt><trkpt lat="39.5561967" lon="8.5668467"><ele>347.5</ele><time>2026-04-21T11:02:33.328Z</time></trkpt><trkpt lat="39.556195" lon="8.5669917"><ele>351.25</ele><time>2026-04-21T11:02:34.328Z</time></trkpt><trkpt lat="39.5562033" lon="8.5671333"><ele>355.0</ele><time>2026-04-21T11:02:35.327Z</time></trkpt><trkpt lat="39.5562183" lon="8.5672883"><ele>355.0</ele><time>2026-04-21T11:02:36.328Z</time></trkpt><trkpt lat="39.556235" lon="8.5674467"><ele>355.0</ele><time>2026-04-21T11:02:37.327Z</time></trkpt><trkpt lat="39.556265" lon="8.5675967"><ele>355.0</ele><time>2026-04-21T11:02:38.327Z</time></trkpt><trkpt lat="39.5562867" lon="8.5677533"><ele>355.0</ele><time>2026-04-21T11:02:39.328Z</time></trkpt><trkpt lat="39.556315" lon="8.5679283"><ele>356.8</ele><time>2026-04-21T11:02:40.327Z</time></trkpt><trkpt lat="39.556335" lon="8.5680733"><ele>358.6</ele><time>2026-04-21T11:02:41.328Z</time></trkpt><trkpt lat="39.556345" lon="8.56821"><ele>360.4</ele><time>2026-04-21T11:02:42.328Z</time></trkpt><trkpt lat="39.556355" lon="8.5683217"><ele>362.2</ele><time>2026-04-21T11:02:43.327Z</time></trkpt><trkpt lat="39.5563633" lon="8.568435"><ele>364.0</ele><time>2026-04-21T11:02:44.327Z</time></trkpt><trkpt lat="39.556375" lon="8.56854"><ele>364.0</ele><time>2026-04-21T11:02:45.327Z</time></trkpt><trkpt lat="39.5563933" lon="8.56865"><ele>364.0</ele><time>2026-04-21T11:02:46.327Z</time></trkpt><trkpt lat="39.5564133" lon="8.5687617"><ele>364.0</ele><time>2026-04-21T11:02:47.327Z</time></trkpt><trkpt lat="39.5564333" lon="8.5688783"><ele>364.0</ele><time>2026-04-21T11:02:48.327Z</time></trkpt><trkpt lat="39.5564517" lon="8.568995"><ele>364.0</ele><time>2026-04-21T11:02:49.327Z</time></trkpt><trkpt lat="39.5564883" lon="8.56912"><ele>365.0</ele><time>2026-04-21T11:02:50.327Z</time></trkpt><trkpt lat="39.556515" lon="8.5692517"><ele>366.0</ele><time>2026-04-21T11:02:51.328Z</time></trkpt><trkpt lat="39.5565517" lon="8.569365"><ele>367.0</ele><time>2026-04-21T11:02:52.328Z</time></trkpt><trkpt lat="39.5565767" lon="8.569455"><ele>368.0</ele><time>2026-04-21T11:02:53.328Z</time></trkpt><trkpt lat="39.5565983" lon="8.5695333"><ele>369.0</ele><time>2026-04-21T11:02:54.327Z</time></trkpt><trkpt lat="39.55662" lon="8.56962"><ele>370.0</ele><time>2026-04-21T11:02:56.327Z</time></trkpt><trkpt lat="39.5565917" lon="8.5695233"><ele>370.0</ele><time>2026-04-21T11:03:02.328Z</time></trkpt><trkpt lat="39.5565583" lon="8.5694267"><ele>370.0</ele><time>2026-04-21T11:03:03.327Z</time></trkpt><trkpt lat="39.5565067" lon="8.5693233"><ele>370.0</ele><time>2026-04-21T11:03:04.328Z</time></trkpt><trkpt lat="39.5564617" lon="8.5692183"><ele>370.0</ele><time>2026-04-21T11:03:05.328Z</time></trkpt><trkpt lat="39.556405" lon="8.5691117"><ele>370.0</ele><time>2026-04-21T11:03:06.327Z</time></trkpt><trkpt lat="39.5563517" lon="8.56901"><ele>370.0</ele><time>2026-04-21T11:03:07.327Z</time></trkpt><trkpt lat="39.5563017" lon="8.568925"><ele>370.0</ele><time>2026-04-21T11:03:08.328Z</time></trkpt><trkpt lat="39.5562517" lon="8.5688433"><ele>370.0</ele><time>2026-04-21T11:03:09.327Z</time></trkpt><trkpt lat="39.556195" lon="8.56877"><ele>370.0</ele><time>2026-04-21T11:03:10.327Z</time></trkpt><trkpt lat="39.5561233" lon="8.5687267"><ele>370.0</ele><time>2026-04-21T11:03:11.328Z</time></trkpt><trkpt lat="39.5560417" lon="8.5687317"><ele>370.0</ele><time>2026-04-21T11:03:12.328Z</time></trkpt><trkpt lat="39.5559433" lon="8.5687683"><ele>371.0</ele><time>2026-04-21T11:03:13.327Z</time></trkpt><trkpt lat="39.5558617" lon="8.5688433"><ele>372.0</ele><time>2026-04-21T11:03:14.328Z</time></trkpt><trkpt lat="39.5558" lon="8.568955"><ele>373.0</ele><time>2026-04-21T11:03:15.328Z</time></trkpt><trkpt lat="39.555755" lon="8.5690733"><ele>374.0</ele><time>2026-04-21T11:03:16.328Z</time></trkpt><trkpt lat="39.555725" lon="8.5692"><ele>375.0</ele><time>2026-04-21T11:03:17.328Z</time></trkpt><trkpt lat="39.5556967" lon="8.5693267"><ele>375.0</ele><time>2026-04-21T11:03:18.328Z</time></trkpt><trkpt lat="39.5556633" lon="8.5694433"><ele>375.0</ele><time>2026-04-21T11:03:19.327Z</time></trkpt><trkpt lat="39.555615" lon="8.5695417"><ele>375.0</ele><time>2026-04-21T11:03:20.328Z</time></trkpt><trkpt lat="39.5555667" lon="8.5696017"><ele>375.0</ele><time>2026-04-21T11:03:21.328Z</time></trkpt><trkpt lat="39.5555117" lon="8.56965"><ele>375.0</ele><time>2026-04-21T11:03:22.328Z</time></trkpt><trkpt lat="39.5553983" lon="8.5696733"><ele>375.0</ele><time>2026-04-21T11:03:24.327Z</time></trkpt><trkpt lat="39.555305" lon="8.5696467"><ele>374.8333333333333</ele><time>2026-04-21T11:03:26.327Z</time></trkpt><trkpt lat="39.5552717" lon="8.5695733"><ele>374.6666666666667</ele><time>2026-04-21T11:03:27.328Z</time></trkpt><trkpt lat="39.5552267" lon="8.5694817"><ele>374.5</ele><time>2026-04-21T11:03:28.328Z</time></trkpt><trkpt lat="39.55517" lon="8.569385"><ele>374.33333333333337</ele><time>2026-04-21T11:03:29.327Z</time></trkpt><trkpt lat="39.55511" lon="8.5693083"><ele>374.1666666666667</ele><time>2026-04-21T11:03:30.327Z</time></trkpt><trkpt lat="39.55505" lon="8.56923"><ele>374.0</ele><time>2026-04-21T11:03:31.328Z</time></trkpt><trkpt lat="39.554995" lon="8.5691517"><ele>374.0</ele><time>2026-04-21T11:03:32.327Z</time></trkpt><trkpt lat="39.5549433" lon="8.5690783"><ele>374.0</ele><time>2026-04-21T11:03:33.328Z</time></trkpt><trkpt lat="39.5549017" lon="8.5689967"><ele>374.0</ele><time>2026-04-21T11:03:34.328Z</time></trkpt><trkpt lat="39.5548567" lon="8.5689333"><ele>374.0</ele><time>2026-04-21T11:03:35.328Z</time></trkpt><trkpt lat="39.5548083" lon="8.5688667"><ele>374.0</ele><time>2026-04-21T11:03:36.328Z</time></trkpt><trkpt lat="39.554765" lon="8.5687917"><ele>374.0</ele><time>2026-04-21T11:03:37.327Z</time></trkpt><trkpt lat="39.554685" lon="8.5686717"><ele>373.83333333333337</ele><time>2026-04-21T11:03:39.327Z</time></trkpt><trkpt lat="39.55461" lon="8.56855"><ele>373.6666666666667</ele><time>2026-04-21T11:03:41.328Z</time></trkpt><trkpt lat="39.5545683" lon="8.5684833"><ele>373.5</ele><time>2026-04-21T11:03:42.328Z</time></trkpt><trkpt lat="39.5545267" lon="8.5684"><ele>373.3333333333333</ele><time>2026-04-21T11:03:43.327Z</time></trkpt><trkpt lat="39.5544867" lon="8.568305"><ele>373.16666666666663</ele><time>2026-04-21T11:03:44.327Z</time></trkpt><trkpt lat="39.5544617" lon="8.5682"><ele>373.0</ele><time>2026-04-21T11:03:45.327Z</time></trkpt><trkpt lat="39.5544517" lon="8.5680867"><ele>373.0</ele><time>2026-04-21T11:03:46.327Z</time></trkpt><trkpt lat="39.5544667" lon="8.5679683"><ele>373.0</ele><time>2026-04-21T11:03:47.328Z</time></trkpt><trkpt lat="39.55449" lon="8.5678417"><ele>373.0</ele><time>2026-04-21T11:03:48.328Z</time></trkpt><trkpt lat="39.5545133" lon="8.567725"><ele>373.0</ele><time>2026-04-21T11:03:49.328Z</time></trkpt><trkpt lat="39.55455" lon="8.5676083"><ele>373.0</ele><time>2026-04-21T11:03:50.328Z</time></trkpt><trkpt lat="39.554575" lon="8.56749"><ele>369.0</ele><time>2026-04-21T11:03:51.328Z</time></trkpt><trkpt lat="39.5545967" lon="8.5673767"><ele>365.0</ele><time>2026-04-21T11:03:52.328Z</time></trkpt><trkpt lat="39.5546033" lon="8.5672667"><ele>361.0</ele><time>2026-04-21T11:03:53.327Z</time></trkpt><trkpt lat="39.5546083" lon="8.5671483"><ele>357.0</ele><time>2026-04-21T11:03:54.328Z</time></trkpt><trkpt lat="39.5545967" lon="8.567015"><ele>353.0</ele><time>2026-04-21T11:03:55.327Z</time></trkpt><trkpt lat="39.5545867" lon="8.5668783"><ele>351.4</ele><time>2026-04-21T11:03:56.328Z</time></trkpt><trkpt lat="39.55457" lon="8.5667417"><ele>349.79999999999995</ele><time>2026-04-21T11:03:57.327Z</time></trkpt><trkpt lat="39.5545467" lon="8.5666183"><ele>348.2</ele><time>2026-04-21T11:03:58.327Z</time></trkpt><trkpt lat="39.5545183" lon="8.5664983"><ele>346.6</ele><time>2026-04-21T11:03:59.327Z</time></trkpt><trkpt lat="39.5544817" lon="8.5663783"><ele>345.0</ele><time>2026-04-21T11:04:00.327Z</time></trkpt><trkpt lat="39.5544567" lon="8.566265"><ele>346.6666666666667</ele><time>2026-04-21T11:04:01.328Z</time></trkpt><trkpt lat="39.5544467" lon="8.5661533"><ele>348.3333333333333</ele><time>2026-04-21T11:04:02.327Z</time></trkpt><trkpt lat="39.5544417" lon="8.5660433"><ele>350.0</ele><time>2026-04-21T11:04:03.328Z</time></trkpt><trkpt lat="39.5544283" lon="8.5659417"><ele>351.66666666666663</ele><time>2026-04-21T11:04:04.328Z</time></trkpt><trkpt lat="39.5543983" lon="8.5658583"><ele>353.3333333333333</ele><time>2026-04-21T11:04:05.327Z</time></trkpt><trkpt lat="39.5543583" lon="8.565785"><ele>355.0</ele><time>2026-04-21T11:04:06.328Z</time></trkpt><trkpt lat="39.5543067" lon="8.5657133"><ele>355.0</ele><time>2026-04-21T11:04:07.327Z</time></trkpt><trkpt lat="39.55425" lon="8.5656467"><ele>355.0</ele><time>2026-04-21T11:04:08.328Z</time></trkpt><trkpt lat="39.5541833" lon="8.5655933"><ele>355.0</ele><time>2026-04-21T11:04:09.328Z</time></trkpt><trkpt lat="39.5541117" lon="8.5655483"><ele>355.0</ele><time>2026-04-21T11:04:10.327Z</time></trkpt><trkpt lat="39.5540367" lon="8.5655133"><ele>355.0</ele><time>2026-04-21T11:04:11.327Z</time></trkpt><trkpt lat="39.5539567" lon="8.5654817"><ele>355.0</ele><time>2026-04-21T11:04:12.328Z</time></trkpt><trkpt lat="39.5538717" lon="8.5654667"><ele>355.0</ele><time>2026-04-21T11:04:13.327Z</time></trkpt><trkpt lat="39.55377" lon="8.5654567"><ele>355.0</ele><time>2026-04-21T11:04:14.328Z</time></trkpt><trkpt lat="39.5536733" lon="8.5654567"><ele>355.0</ele><time>2026-04-21T11:04:15.327Z</time></trkpt><trkpt lat="39.55358" lon="8.5654567"><ele>355.0</ele><time>2026-04-21T11:04:16.328Z</time></trkpt><trkpt lat="39.553485" lon="8.56546"><ele>355.0</ele><time>2026-04-21T11:04:17.328Z</time></trkpt><trkpt lat="39.55341" lon="8.565475"><ele>356.0</ele><time>2026-04-21T11:04:18.327Z</time></trkpt><trkpt lat="39.55334" lon="8.5654817"><ele>357.0</ele><time>2026-04-21T11:04:19.327Z</time></trkpt><trkpt lat="39.5532317" lon="8.565425"><ele>358.0</ele><time>2026-04-21T11:04:21.328Z</time></trkpt><trkpt lat="39.553195" lon="8.5653567"><ele>359.0</ele><time>2026-04-21T11:04:22.327Z</time></trkpt><trkpt lat="39.5531783" lon="8.5652683"><ele>360.0</ele><time>2026-04-21T11:04:23.327Z</time></trkpt><trkpt lat="39.55319" lon="8.5651533"><ele>361.0</ele><time>2026-04-21T11:04:24.327Z</time></trkpt><trkpt lat="39.553225" lon="8.56503"><ele>358.0</ele><time>2026-04-21T11:04:25.328Z</time></trkpt><trkpt lat="39.55327" lon="8.5649117"><ele>355.0</ele><time>2026-04-21T11:04:26.327Z</time></trkpt><trkpt lat="39.5533467" lon="8.5648083"><ele>352.0</ele><time>2026-04-21T11:04:27.327Z</time></trkpt><trkpt lat="39.5534283" lon="8.5647183"><ele>349.0</ele><time>2026-04-21T11:04:28.328Z</time></trkpt><trkpt lat="39.553515" lon="8.5646433"><ele>346.0</ele><time>2026-04-21T11:04:29.328Z</time></trkpt><trkpt lat="39.5536117" lon="8.5645717"><ele>346.6</ele><time>2026-04-21T11:04:30.328Z</time></trkpt><trkpt lat="39.5536983" lon="8.5645183"><ele>347.20000000000005</ele><time>2026-04-21T11:04:31.328Z</time></trkpt><trkpt lat="39.5537783" lon="8.56446"><ele>347.79999999999995</ele><time>2026-04-21T11:04:32.328Z</time></trkpt><trkpt lat="39.5538483" lon="8.56441"><ele>348.4</ele><time>2026-04-21T11:04:33.328Z</time></trkpt><trkpt lat="39.5539033" lon="8.5643567"><ele>349.0</ele><time>2026-04-21T11:04:34.327Z</time></trkpt><trkpt lat="39.5539633" lon="8.5642267"><ele>343.0</ele><time>2026-04-21T11:04:36.327Z</time></trkpt><trkpt lat="39.5539467" lon="8.56405"><ele>337.0</ele><time>2026-04-21T11:04:38.327Z</time></trkpt><trkpt lat="39.5539283" lon="8.5639483"><ele>331.0</ele><time>2026-04-21T11:04:39.328Z</time></trkpt><trkpt lat="39.55391" lon="8.5638417"><ele>325.0</ele><time>2026-04-21T11:04:40.328Z</time></trkpt><trkpt lat="39.55389" lon="8.5637367"><ele>319.0</ele><time>2026-04-21T11:04:41.327Z</time></trkpt><trkpt lat="39.5538817" lon="8.5636367"><ele>317.66666666666663</ele><time>2026-04-21T11:04:42.327Z</time></trkpt><trkpt lat="39.5538717" lon="8.563545"><ele>316.3333333333333</ele><time>2026-04-21T11:04:43.328Z</time></trkpt><trkpt lat="39.553845" lon="8.5634483"><ele>315.0</ele><time>2026-04-21T11:04:44.327Z</time></trkpt><trkpt lat="39.553795" lon="8.5633467"><ele>313.6666666666667</ele><time>2026-04-21T11:04:45.328Z</time></trkpt><trkpt lat="39.5537367" lon="8.5632433"><ele>312.33333333333337</ele><time>2026-04-21T11:04:46.327Z</time></trkpt><trkpt lat="39.553675" lon="8.5631483"><ele>311.0</ele><time>2026-04-21T11:04:47.327Z</time></trkpt><trkpt lat="39.5536183" lon="8.563065"><ele>313.6</ele><time>2026-04-21T11:04:48.328Z</time></trkpt><trkpt lat="39.5535567" lon="8.5629667"><ele>316.20000000000005</ele><time>2026-04-21T11:04:49.328Z</time></trkpt><trkpt lat="39.553515" lon="8.5628583"><ele>318.79999999999995</ele><time>2026-04-21T11:04:50.327Z</time></trkpt><trkpt lat="39.553495" lon="8.5627433"><ele>321.4</ele><time>2026-04-21T11:04:51.328Z</time></trkpt><trkpt lat="39.553495" lon="8.56262"><ele>324.0</ele><time>2026-04-21T11:04:52.327Z</time></trkpt><trkpt lat="39.553495" lon="8.5625017"><ele>324.0</ele><time>2026-04-21T11:04:53.327Z</time></trkpt><trkpt lat="39.5535017" lon="8.5623967"><ele>324.0</ele><time>2026-04-21T11:04:54.328Z</time></trkpt><trkpt lat="39.5535" lon="8.5623"><ele>324.0</ele><time>2026-04-21T11:04:55.327Z</time></trkpt><trkpt lat="39.5534883" lon="8.562215"><ele>324.0</ele><time>2026-04-21T11:04:56.327Z</time></trkpt><trkpt lat="39.553445" lon="8.5621383"><ele>324.0</ele><time>2026-04-21T11:04:57.327Z</time></trkpt><trkpt lat="39.5533817" lon="8.5620867"><ele>324.0</ele><time>2026-04-21T11:04:58.327Z</time></trkpt><trkpt lat="39.553305" lon="8.5620567"><ele>324.0</ele><time>2026-04-21T11:04:59.328Z</time></trkpt><trkpt lat="39.5532067" lon="8.5620617"><ele>324.0</ele><time>2026-04-21T11:05:00.327Z</time></trkpt><trkpt lat="39.5531017" lon="8.5620767"><ele>324.0</ele><time>2026-04-21T11:05:01.327Z</time></trkpt><trkpt lat="39.5529933" lon="8.5620983"><ele>324.0</ele><time>2026-04-21T11:05:02.327Z</time></trkpt><trkpt lat="39.5528883" lon="8.5621267"><ele>324.0</ele><time>2026-04-21T11:05:03.328Z</time></trkpt><trkpt lat="39.5527867" lon="8.562155"><ele>324.79999999999995</ele><time>2026-04-21T11:05:04.327Z</time></trkpt><trkpt lat="39.5526933" lon="8.5621783"><ele>325.59999999999997</ele><time>2026-04-21T11:05:05.327Z</time></trkpt><trkpt lat="39.55261" lon="8.5622"><ele>326.4</ele><time>2026-04-21T11:05:06.327Z</time></trkpt><trkpt lat="39.552525" lon="8.5622"><ele>327.2</ele><time>2026-04-21T11:05:07.327Z</time></trkpt><trkpt lat="39.5524317" lon="8.562175"><ele>328.0</ele><time>2026-04-21T11:05:08.328Z</time></trkpt><trkpt lat="39.552345" lon="8.5621367"><ele>328.0</ele><time>2026-04-21T11:05:09.328Z</time></trkpt><trkpt lat="39.5522683" lon="8.562085"><ele>328.0</ele><time>2026-04-21T11:05:10.328Z</time></trkpt><trkpt lat="39.5522" lon="8.5620183"><ele>328.0</ele><time>2026-04-21T11:05:11.328Z</time></trkpt><trkpt lat="39.552145" lon="8.561935"><ele>328.0</ele><time>2026-04-21T11:05:12.327Z</time></trkpt><trkpt lat="39.552105" lon="8.561855"><ele>328.0</ele><time>2026-04-21T11:05:13.328Z</time></trkpt><trkpt lat="39.552085" lon="8.5617767"><ele>328.0</ele><time>2026-04-21T11:05:14.328Z</time></trkpt><trkpt lat="39.5520883" lon="8.5616917"><ele>324.0</ele><time>2026-04-21T11:05:15.327Z</time></trkpt><trkpt lat="39.55212" lon="8.561605"><ele>320.0</ele><time>2026-04-21T11:05:16.328Z</time></trkpt><trkpt lat="39.5521767" lon="8.5615167"><ele>316.0</ele><time>2026-04-21T11:05:17.327Z</time></trkpt><trkpt lat="39.5522567" lon="8.561415"><ele>312.0</ele><time>2026-04-21T11:05:18.328Z</time></trkpt><trkpt lat="39.5523417" lon="8.5613017"><ele>308.0</ele><time>2026-04-21T11:05:19.327Z</time></trkpt><trkpt lat="39.5524167" lon="8.5611833"><ele>306.6</ele><time>2026-04-21T11:05:20.327Z</time></trkpt><trkpt lat="39.5524717" lon="8.561075"><ele>305.20000000000005</ele><time>2026-04-21T11:05:21.328Z</time></trkpt><trkpt lat="39.5525133" lon="8.5609583"><ele>303.8</ele><time>2026-04-21T11:05:22.328Z</time></trkpt><trkpt lat="39.5525317" lon="8.5608383"><ele>302.40000000000003</ele><time>2026-04-21T11:05:23.328Z</time></trkpt><trkpt lat="39.5525383" lon="8.56072"><ele>301.0</ele><time>2026-04-21T11:05:24.328Z</time></trkpt><trkpt lat="39.552525" lon="8.5606033"><ele>301.0</ele><time>2026-04-21T11:05:25.327Z</time></trkpt><trkpt lat="39.5524983" lon="8.5604967"><ele>301.0</ele><time>2026-04-21T11:05:26.327Z</time></trkpt><trkpt lat="39.5524567" lon="8.5604033"><ele>301.0</ele><time>2026-04-21T11:05:27.328Z</time></trkpt><trkpt lat="39.552405" lon="8.5603233"><ele>301.0</ele><time>2026-04-21T11:05:28.328Z</time></trkpt><trkpt lat="39.5523367" lon="8.5602683"><ele>301.0</ele><time>2026-04-21T11:05:29.327Z</time></trkpt><trkpt lat="39.5522567" lon="8.5602367"><ele>301.0</ele><time>2026-04-21T11:05:30.328Z</time></trkpt><trkpt lat="39.552165" lon="8.5602417"><ele>301.5</ele><time>2026-04-21T11:05:31.328Z</time></trkpt><trkpt lat="39.5520733" lon="8.56026"><ele>302.0</ele><time>2026-04-21T11:05:32.327Z</time></trkpt><trkpt lat="39.5519833" lon="8.5602783"><ele>302.5</ele><time>2026-04-21T11:05:33.328Z</time></trkpt><trkpt lat="39.5518983" lon="8.56028"><ele>303.0</ele><time>2026-04-21T11:05:34.327Z</time></trkpt><trkpt lat="39.55182" lon="8.5602633"><ele>303.5</ele><time>2026-04-21T11:05:35.328Z</time></trkpt><trkpt lat="39.5517533" lon="8.5602067"><ele>304.0</ele><time>2026-04-21T11:05:36.327Z</time></trkpt><trkpt lat="39.551705" lon="8.5601317"><ele>304.0</ele><time>2026-04-21T11:05:37.327Z</time></trkpt><trkpt lat="39.55168" lon="8.5600533"><ele>304.0</ele><time>2026-04-21T11:05:38.327Z</time></trkpt><trkpt lat="39.5517" lon="8.5599383"><ele>304.0</ele><time>2026-04-21T11:05:39.327Z</time></trkpt><trkpt lat="39.5517433" lon="8.5597867"><ele>304.0</ele><time>2026-04-21T11:05:40.328Z</time></trkpt><trkpt lat="39.551785" lon="8.55962"><ele>304.0</ele><time>2026-04-21T11:05:41.328Z</time></trkpt><trkpt lat="39.5518117" lon="8.5594817"><ele>304.4</ele><time>2026-04-21T11:05:42.328Z</time></trkpt><trkpt lat="39.5518167" lon="8.5593583"><ele>304.79999999999995</ele><time>2026-04-21T11:05:43.328Z</time></trkpt><trkpt lat="39.5518317" lon="8.5592317"><ele>305.20000000000005</ele><time>2026-04-21T11:05:44.328Z</time></trkpt><trkpt lat="39.5518333" lon="8.5590967"><ele>305.6</ele><time>2026-04-21T11:05:45.326Z</time></trkpt><trkpt lat="39.5518367" lon="8.5589583"><ele>306.0</ele><time>2026-04-21T11:05:46.327Z</time></trkpt><trkpt lat="39.55182" lon="8.5588333"><ele>306.0</ele><time>2026-04-21T11:05:47.327Z</time></trkpt><trkpt lat="39.5518" lon="8.5587317"><ele>306.0</ele><time>2026-04-21T11:05:48.326Z</time></trkpt><trkpt lat="39.5517717" lon="8.5586417"><ele>306.0</ele><time>2026-04-21T11:05:49.326Z</time></trkpt><trkpt lat="39.55173" lon="8.5585583"><ele>306.0</ele><time>2026-04-21T11:05:50.326Z</time></trkpt><trkpt lat="39.5516717" lon="8.5584917"><ele>306.0</ele><time>2026-04-21T11:05:51.327Z</time></trkpt><trkpt lat="39.5516033" lon="8.558435"><ele>306.0</ele><time>2026-04-21T11:05:52.327Z</time></trkpt><trkpt lat="39.5515267" lon="8.55837"><ele>304.5</ele><time>2026-04-21T11:05:53.327Z</time></trkpt><trkpt lat="39.5514433" lon="8.5582817"><ele>303.0</ele><time>2026-04-21T11:05:54.327Z</time></trkpt><trkpt lat="39.55135" lon="8.5581983"><ele>301.5</ele><time>2026-04-21T11:05:55.326Z</time></trkpt><trkpt lat="39.5512367" lon="8.5581233"><ele>300.0</ele><time>2026-04-21T11:05:56.327Z</time></trkpt><trkpt lat="39.551135" lon="8.5580467"><ele>300.6</ele><time>2026-04-21T11:05:57.327Z</time></trkpt><trkpt lat="39.5510567" lon="8.5579717"><ele>301.2</ele><time>2026-04-21T11:05:58.327Z</time></trkpt><trkpt lat="39.5509817" lon="8.55788"><ele>301.8</ele><time>2026-04-21T11:05:59.327Z</time></trkpt><trkpt lat="39.5509333" lon="8.5577833"><ele>302.4</ele><time>2026-04-21T11:06:00.326Z</time></trkpt><trkpt lat="39.5508967" lon="8.5576583"><ele>303.0</ele><time>2026-04-21T11:06:01.326Z</time></trkpt><trkpt lat="39.5508883" lon="8.5575233"><ele>303.0</ele><time>2026-04-21T11:06:02.326Z</time></trkpt><trkpt lat="39.5508967" lon="8.557395"><ele>303.0</ele><time>2026-04-21T11:06:03.327Z</time></trkpt><trkpt lat="39.55089" lon="8.5572783"><ele>303.0</ele><time>2026-04-21T11:06:04.326Z</time></trkpt><trkpt lat="39.55085" lon="8.557185"><ele>303.0</ele><time>2026-04-21T11:06:05.327Z</time></trkpt><trkpt lat="39.5507917" lon="8.55711"><ele>303.0</ele><time>2026-04-21T11:06:06.327Z</time></trkpt><trkpt lat="39.550705" lon="8.55706"><ele>303.0</ele><time>2026-04-21T11:06:07.327Z</time></trkpt><trkpt lat="39.5505967" lon="8.5570217"><ele>302.5</ele><time>2026-04-21T11:06:08.327Z</time></trkpt><trkpt lat="39.5504633" lon="8.557"><ele>302.0</ele><time>2026-04-21T11:06:09.327Z</time></trkpt><trkpt lat="39.5503233" lon="8.55698"><ele>301.5</ele><time>2026-04-21T11:06:10.327Z</time></trkpt><trkpt lat="39.5501967" lon="8.5569517"><ele>301.0</ele><time>2026-04-21T11:06:11.326Z</time></trkpt><trkpt lat="39.5500817" lon="8.5569217"><ele>301.0</ele><time>2026-04-21T11:06:12.326Z</time></trkpt><trkpt lat="39.5499933" lon="8.5568833"><ele>301.0</ele><time>2026-04-21T11:06:13.327Z</time></trkpt><trkpt lat="39.549925" lon="8.5568283"><ele>301.0</ele><time>2026-04-21T11:06:14.327Z</time></trkpt><trkpt lat="39.5498867" lon="8.55674"><ele>301.0</ele><time>2026-04-21T11:06:15.327Z</time></trkpt><trkpt lat="39.5498617" lon="8.55663"><ele>301.0</ele><time>2026-04-21T11:06:16.326Z</time></trkpt><trkpt lat="39.5498567" lon="8.5564867"><ele>301.0</ele><time>2026-04-21T11:06:17.326Z</time></trkpt><trkpt lat="39.5498433" lon="8.5563317"><ele>301.0</ele><time>2026-04-21T11:06:18.327Z</time></trkpt><trkpt lat="39.54981" lon="8.556195"><ele>301.0</ele><time>2026-04-21T11:06:19.326Z</time></trkpt><trkpt lat="39.549765" lon="8.5560833"><ele>301.0</ele><time>2026-04-21T11:06:20.327Z</time></trkpt><trkpt lat="39.5497117" lon="8.5559883"><ele>301.0</ele><time>2026-04-21T11:06:21.326Z</time></trkpt><trkpt lat="39.5496683" lon="8.5559133"><ele>299.40000000000003</ele><time>2026-04-21T11:06:22.326Z</time></trkpt><trkpt lat="39.54964" lon="8.5558267"><ele>297.8</ele><time>2026-04-21T11:06:23.326Z</time></trkpt><trkpt lat="39.5496433" lon="8.5557217"><ele>296.20000000000005</ele><time>2026-04-21T11:06:24.327Z</time></trkpt><trkpt lat="39.5496767" lon="8.55561"><ele>294.6</ele><time>2026-04-21T11:06:25.326Z</time></trkpt><trkpt lat="39.54972" lon="8.5554833"><ele>293.0</ele><time>2026-04-21T11:06:26.327Z</time></trkpt><trkpt lat="39.5497483" lon="8.5553467"><ele>293.0</ele><time>2026-04-21T11:06:27.327Z</time></trkpt><trkpt lat="39.5497467" lon="8.5552333"><ele>293.0</ele><time>2026-04-21T11:06:28.326Z</time></trkpt><trkpt lat="39.5497367" lon="8.5551167"><ele>293.0</ele><time>2026-04-21T11:06:29.327Z</time></trkpt><trkpt lat="39.5497233" lon="8.55499"><ele>293.0</ele><time>2026-04-21T11:06:30.326Z</time></trkpt><trkpt lat="39.5496983" lon="8.5548483"><ele>293.0</ele><time>2026-04-21T11:06:31.326Z</time></trkpt><trkpt lat="39.5496583" lon="8.5546967"><ele>293.0</ele><time>2026-04-21T11:06:32.326Z</time></trkpt><trkpt lat="39.5496117" lon="8.5545533"><ele>293.0</ele><time>2026-04-21T11:06:33.326Z</time></trkpt><trkpt lat="39.549555" lon="8.55443"><ele>293.0</ele><time>2026-04-21T11:06:34.326Z</time></trkpt><trkpt lat="39.5494883" lon="8.5543283"><ele>293.0</ele><time>2026-04-21T11:06:35.327Z</time></trkpt><trkpt lat="39.549415" lon="8.5542533"><ele>293.0</ele><time>2026-04-21T11:06:36.327Z</time></trkpt><trkpt lat="39.5493333" lon="8.5541917"><ele>296.4</ele><time>2026-04-21T11:06:37.326Z</time></trkpt><trkpt lat="39.5492433" lon="8.5541467"><ele>299.8</ele><time>2026-04-21T11:06:38.326Z</time></trkpt><trkpt lat="39.5491517" lon="8.5541117"><ele>303.2</ele><time>2026-04-21T11:06:39.327Z</time></trkpt><trkpt lat="39.5490667" lon="8.5540417"><ele>306.6</ele><time>2026-04-21T11:06:40.326Z</time></trkpt><trkpt lat="39.5489883" lon="8.553945"><ele>310.0</ele><time>2026-04-21T11:06:41.327Z</time></trkpt><trkpt lat="39.5489183" lon="8.5538317"><ele>310.0</ele><time>2026-04-21T11:06:42.327Z</time></trkpt><trkpt lat="39.5488617" lon="8.55372"><ele>310.0</ele><time>2026-04-21T11:06:43.326Z</time></trkpt><trkpt lat="39.5488167" lon="8.5536033"><ele>310.0</ele><time>2026-04-21T11:06:44.326Z</time></trkpt><trkpt lat="39.548785" lon="8.5534733"><ele>310.0</ele><time>2026-04-21T11:06:45.327Z</time></trkpt><trkpt lat="39.5487667" lon="8.5533467"><ele>310.0</ele><time>2026-04-21T11:06:46.326Z</time></trkpt><trkpt lat="39.5487767" lon="8.5532083"><ele>307.66666666666663</ele><time>2026-04-21T11:06:47.326Z</time></trkpt><trkpt lat="39.548805" lon="8.5530867"><ele>305.3333333333333</ele><time>2026-04-21T11:06:48.326Z</time></trkpt><trkpt lat="39.5488317" lon="8.552975"><ele>303.0</ele><time>2026-04-21T11:06:49.327Z</time></trkpt><trkpt lat="39.5488533" lon="8.5528683"><ele>300.6666666666667</ele><time>2026-04-21T11:06:50.327Z</time></trkpt><trkpt lat="39.54886" lon="8.5527617"><ele>298.33333333333337</ele><time>2026-04-21T11:06:51.327Z</time></trkpt><trkpt lat="39.548855" lon="8.5526683"><ele>296.0</ele><time>2026-04-21T11:06:52.326Z</time></trkpt><trkpt lat="39.54882" lon="8.5525783"><ele>295.40000000000003</ele><time>2026-04-21T11:06:53.327Z</time></trkpt><trkpt lat="39.54876" lon="8.5525267"><ele>294.8</ele><time>2026-04-21T11:06:54.327Z</time></trkpt><trkpt lat="39.54868" lon="8.552505"><ele>294.20000000000005</ele><time>2026-04-21T11:06:55.326Z</time></trkpt><trkpt lat="39.548575" lon="8.5524967"><ele>293.6</ele><time>2026-04-21T11:06:56.327Z</time></trkpt><trkpt lat="39.5484617" lon="8.55249"><ele>293.0</ele><time>2026-04-21T11:06:57.327Z</time></trkpt><trkpt lat="39.54834" lon="8.552475"><ele>297.2</ele><time>2026-04-21T11:06:58.326Z</time></trkpt><trkpt lat="39.5482183" lon="8.5524533"><ele>301.4</ele><time>2026-04-21T11:06:59.327Z</time></trkpt><trkpt lat="39.5481017" lon="8.5524317"><ele>305.59999999999997</ele><time>2026-04-21T11:07:00.327Z</time></trkpt><trkpt lat="39.5479967" lon="8.5524167"><ele>309.8</ele><time>2026-04-21T11:07:01.327Z</time></trkpt><trkpt lat="39.5479" lon="8.5523917"><ele>314.0</ele><time>2026-04-21T11:07:02.327Z</time></trkpt><trkpt lat="39.5478083" lon="8.55236"><ele>314.4</ele><time>2026-04-21T11:07:03.326Z</time></trkpt><trkpt lat="39.54773" lon="8.55233"><ele>314.79999999999995</ele><time>2026-04-21T11:07:04.326Z</time></trkpt><trkpt lat="39.54766" lon="8.5522717"><ele>315.20000000000005</ele><time>2026-04-21T11:07:05.326Z</time></trkpt><trkpt lat="39.547585" lon="8.552195"><ele>315.6</ele><time>2026-04-21T11:07:06.326Z</time></trkpt><trkpt lat="39.5475133" lon="8.5520967"><ele>316.0</ele><time>2026-04-21T11:07:07.326Z</time></trkpt><trkpt lat="39.5474533" lon="8.5519867"><ele>316.0</ele><time>2026-04-21T11:07:08.327Z</time></trkpt><trkpt lat="39.5473983" lon="8.55185"><ele>316.0</ele><time>2026-04-21T11:07:09.326Z</time></trkpt><trkpt lat="39.5473567" lon="8.5517033"><ele>316.0</ele><time>2026-04-21T11:07:10.327Z</time></trkpt><trkpt lat="39.54732" lon="8.551555"><ele>316.0</ele><time>2026-04-21T11:07:11.326Z</time></trkpt><trkpt lat="39.5473017" lon="8.5513933"><ele>316.0</ele><time>2026-04-21T11:07:12.326Z</time></trkpt><trkpt lat="39.547285" lon="8.5512317"><ele>316.0</ele><time>2026-04-21T11:07:13.327Z</time></trkpt><trkpt lat="39.5472717" lon="8.551075"><ele>316.0</ele><time>2026-04-21T11:07:14.326Z</time></trkpt><trkpt lat="39.5472817" lon="8.5509133"><ele>316.0</ele><time>2026-04-21T11:07:15.326Z</time></trkpt><trkpt lat="39.5472983" lon="8.550755"><ele>316.2</ele><time>2026-04-21T11:07:16.327Z</time></trkpt><trkpt lat="39.547325" lon="8.55061"><ele>316.40000000000003</ele><time>2026-04-21T11:07:17.326Z</time></trkpt><trkpt lat="39.5473417" lon="8.5504767"><ele>316.6</ele><time>2026-04-21T11:07:18.327Z</time></trkpt><trkpt lat="39.547355" lon="8.5503583"><ele>316.8</ele><time>2026-04-21T11:07:19.327Z</time></trkpt><trkpt lat="39.5473667" lon="8.550255"><ele>317.0</ele><time>2026-04-21T11:07:20.326Z</time></trkpt><trkpt lat="39.5473867" lon="8.5501633"><ele>318.1666666666667</ele><time>2026-04-21T11:07:21.327Z</time></trkpt><trkpt lat="39.5473783" lon="8.5500067"><ele>319.33333333333337</ele><time>2026-04-21T11:07:23.327Z</time></trkpt><trkpt lat="39.5473567" lon="8.5499267"><ele>320.5</ele><time>2026-04-21T11:07:24.327Z</time></trkpt><trkpt lat="39.5473217" lon="8.5498483"><ele>321.6666666666667</ele><time>2026-04-21T11:07:25.326Z</time></trkpt><trkpt lat="39.5472733" lon="8.54978"><ele>322.8333333333333</ele><time>2026-04-21T11:07:26.327Z</time></trkpt><trkpt lat="39.5472133" lon="8.54972"><ele>324.0</ele><time>2026-04-21T11:07:27.327Z</time></trkpt><trkpt lat="39.5471433" lon="8.5496817"><ele>324.0</ele><time>2026-04-21T11:07:28.326Z</time></trkpt><trkpt lat="39.5470467" lon="8.5496583"><ele>324.0</ele><time>2026-04-21T11:07:29.327Z</time></trkpt><trkpt lat="39.5469583" lon="8.54965"><ele>324.0</ele><time>2026-04-21T11:07:30.326Z</time></trkpt><trkpt lat="39.5468867" lon="8.5496367"><ele>324.0</ele><time>2026-04-21T11:07:31.327Z</time></trkpt><trkpt lat="39.5468217" lon="8.5495917"><ele>324.0</ele><time>2026-04-21T11:07:32.327Z</time></trkpt><trkpt lat="39.546755" lon="8.54951"><ele>324.0</ele><time>2026-04-21T11:07:33.327Z</time></trkpt><trkpt lat="39.546695" lon="8.54941"><ele>325.0</ele><time>2026-04-21T11:07:34.327Z</time></trkpt><trkpt lat="39.5466483" lon="8.549295"><ele>326.0</ele><time>2026-04-21T11:07:35.326Z</time></trkpt><trkpt lat="39.546615" lon="8.5491667"><ele>327.0</ele><time>2026-04-21T11:07:36.327Z</time></trkpt><trkpt lat="39.5465883" lon="8.549025"><ele>328.0</ele><time>2026-04-21T11:07:37.326Z</time></trkpt><trkpt lat="39.5465667" lon="8.54888"><ele>329.0</ele><time>2026-04-21T11:07:38.326Z</time></trkpt><trkpt lat="39.5465433" lon="8.548735"><ele>328.2</ele><time>2026-04-21T11:07:39.327Z</time></trkpt><trkpt lat="39.546515" lon="8.548585"><ele>327.4</ele><time>2026-04-21T11:07:40.326Z</time></trkpt><trkpt lat="39.5464683" lon="8.5484467"><ele>326.6</ele><time>2026-04-21T11:07:41.326Z</time></trkpt><trkpt lat="39.54643" lon="8.5483267"><ele>325.8</ele><time>2026-04-21T11:07:42.327Z</time></trkpt><trkpt lat="39.546375" lon="8.5482217"><ele>325.0</ele><time>2026-04-21T11:07:43.327Z</time></trkpt><trkpt lat="39.5462967" lon="8.5481283"><ele>326.4</ele><time>2026-04-21T11:07:44.327Z</time></trkpt><trkpt lat="39.5462" lon="8.54806"><ele>327.8</ele><time>2026-04-21T11:07:45.326Z</time></trkpt><trkpt lat="39.5461033" lon="8.5479883"><ele>329.20000000000005</ele><time>2026-04-21T11:07:46.327Z</time></trkpt><trkpt lat="39.5460017" lon="8.54792"><ele>330.6</ele><time>2026-04-21T11:07:47.326Z</time></trkpt><trkpt lat="39.5459033" lon="8.5478767"><ele>332.0</ele><time>2026-04-21T11:07:48.326Z</time></trkpt><trkpt lat="39.54581" lon="8.5478467"><ele>332.0</ele><time>2026-04-21T11:07:49.326Z</time></trkpt><trkpt lat="39.545725" lon="8.5478217"><ele>332.0</ele><time>2026-04-21T11:07:50.327Z</time></trkpt><trkpt lat="39.5456533" lon="8.547785"><ele>332.0</ele><time>2026-04-21T11:07:51.326Z</time></trkpt><trkpt lat="39.5455883" lon="8.5477217"><ele>332.0</ele><time>2026-04-21T11:07:52.327Z</time></trkpt><trkpt lat="39.545535" lon="8.547645"><ele>332.0</ele><time>2026-04-21T11:07:53.327Z</time></trkpt><trkpt lat="39.5454933" lon="8.547535"><ele>332.0</ele><time>2026-04-21T11:07:54.327Z</time></trkpt><trkpt lat="39.54547" lon="8.5474033"><ele>332.0</ele><time>2026-04-21T11:07:55.326Z</time></trkpt><trkpt lat="39.5454533" lon="8.54727"><ele>332.0</ele><time>2026-04-21T11:07:56.326Z</time></trkpt><trkpt lat="39.54542" lon="8.5471517"><ele>332.0</ele><time>2026-04-21T11:07:57.326Z</time></trkpt><trkpt lat="39.5453717" lon="8.547045"><ele>332.0</ele><time>2026-04-21T11:07:58.327Z</time></trkpt><trkpt lat="39.5453017" lon="8.5469717"><ele>332.0</ele><time>2026-04-21T11:07:59.327Z</time></trkpt><trkpt lat="39.5452217" lon="8.5469233"><ele>333.33333333333337</ele><time>2026-04-21T11:08:00.327Z</time></trkpt><trkpt lat="39.5451367" lon="8.5468967"><ele>334.6666666666667</ele><time>2026-04-21T11:08:01.327Z</time></trkpt><trkpt lat="39.5450567" lon="8.546875"><ele>336.0</ele><time>2026-04-21T11:08:02.327Z</time></trkpt><trkpt lat="39.544975" lon="8.5468567"><ele>337.3333333333333</ele><time>2026-04-21T11:08:03.326Z</time></trkpt><trkpt lat="39.5449033" lon="8.5468317"><ele>338.66666666666663</ele><time>2026-04-21T11:08:04.326Z</time></trkpt><trkpt lat="39.5448217" lon="8.5468133"><ele>340.0</ele><time>2026-04-21T11:08:05.326Z</time></trkpt><trkpt lat="39.5447433" lon="8.546795"><ele>340.0</ele><time>2026-04-21T11:08:06.327Z</time></trkpt><trkpt lat="39.5446783" lon="8.5467783"><ele>340.0</ele><time>2026-04-21T11:08:07.326Z</time></trkpt><trkpt lat="39.544615" lon="8.546755"><ele>340.0</ele><time>2026-04-21T11:08:08.326Z</time></trkpt><trkpt lat="39.5445483" lon="8.5467283"><ele>340.0</ele><time>2026-04-21T11:08:09.326Z</time></trkpt><trkpt lat="39.544485" lon="8.546685"><ele>340.0</ele><time>2026-04-21T11:08:10.327Z</time></trkpt><trkpt lat="39.5444017" lon="8.5465767"><ele>340.0</ele><time>2026-04-21T11:08:12.326Z</time></trkpt><trkpt lat="39.5443533" lon="8.5464383"><ele>339.8333333333333</ele><time>2026-04-21T11:08:14.327Z</time></trkpt><trkpt lat="39.5443033" lon="8.5462817"><ele>339.66666666666663</ele><time>2026-04-21T11:08:16.327Z</time></trkpt><trkpt lat="39.5442717" lon="8.546205"><ele>339.5</ele><time>2026-04-21T11:08:17.326Z</time></trkpt><trkpt lat="39.5442367" lon="8.54613"><ele>339.3333333333333</ele><time>2026-04-21T11:08:18.327Z</time></trkpt><trkpt lat="39.5441967" lon="8.5460567"><ele>339.1666666666667</ele><time>2026-04-21T11:08:19.326Z</time></trkpt><trkpt lat="39.5441467" lon="8.545995"><ele>339.0</ele><time>2026-04-21T11:08:20.326Z</time></trkpt><trkpt lat="39.544095" lon="8.5459417"><ele>339.0</ele><time>2026-04-21T11:08:21.326Z</time></trkpt><trkpt lat="39.5440383" lon="8.5459017"><ele>339.0</ele><time>2026-04-21T11:08:22.327Z</time></trkpt><trkpt lat="39.5439817" lon="8.545865"><ele>339.0</ele><time>2026-04-21T11:08:23.326Z</time></trkpt><trkpt lat="39.5439167" lon="8.5458267"><ele>339.0</ele><time>2026-04-21T11:08:24.327Z</time></trkpt><trkpt lat="39.5438467" lon="8.5457967"><ele>339.0</ele><time>2026-04-21T11:08:25.327Z</time></trkpt><trkpt lat="39.54378" lon="8.5457667"><ele>339.0</ele><time>2026-04-21T11:08:26.326Z</time></trkpt><trkpt lat="39.5437167" lon="8.5457417"><ele>339.0</ele><time>2026-04-21T11:08:27.327Z</time></trkpt><trkpt lat="39.5436417" lon="8.5457217"><ele>335.6666666666667</ele><time>2026-04-21T11:08:28.327Z</time></trkpt><trkpt lat="39.54357" lon="8.5456933"><ele>332.3333333333333</ele><time>2026-04-21T11:08:29.327Z</time></trkpt><trkpt lat="39.5435033" lon="8.54566"><ele>329.0</ele><time>2026-04-21T11:08:30.326Z</time></trkpt><trkpt lat="39.5434417" lon="8.54561"><ele>325.66666666666663</ele><time>2026-04-21T11:08:31.327Z</time></trkpt><trkpt lat="39.5433983" lon="8.5455433"><ele>322.3333333333333</ele><time>2026-04-21T11:08:32.327Z</time></trkpt><trkpt lat="39.54336" lon="8.5453983"><ele>319.0</ele><time>2026-04-21T11:08:34.327Z</time></trkpt><trkpt lat="39.5434167" lon="8.5452933"><ele>319.0</ele><time>2026-04-21T11:08:36.327Z</time></trkpt><trkpt lat="39.54355" lon="8.5453"><ele>319.0</ele><time>2026-04-21T11:08:38.327Z</time></trkpt><trkpt lat="39.543615" lon="8.54531"><ele>319.0</ele><time>2026-04-21T11:08:39.327Z</time></trkpt><trkpt lat="39.54369" lon="8.5452983"><ele>319.0</ele><time>2026-04-21T11:08:40.326Z</time></trkpt><trkpt lat="39.543755" lon="8.5452533"><ele>319.0</ele><time>2026-04-21T11:08:41.326Z</time></trkpt><trkpt lat="39.5438" lon="8.5451783"><ele>319.0</ele><time>2026-04-21T11:08:42.327Z</time></trkpt><trkpt lat="39.543825" lon="8.5450783"><ele>322.66666666666663</ele><time>2026-04-21T11:08:43.326Z</time></trkpt><trkpt lat="39.5438383" lon="8.5449633"><ele>326.3333333333333</ele><time>2026-04-21T11:08:44.326Z</time></trkpt><trkpt lat="39.5438433" lon="8.5448517"><ele>330.0</ele><time>2026-04-21T11:08:45.327Z</time></trkpt><trkpt lat="39.5438467" lon="8.5447383"><ele>333.6666666666667</ele><time>2026-04-21T11:08:46.326Z</time></trkpt><trkpt lat="39.54384" lon="8.54463"><ele>337.33333333333337</ele><time>2026-04-21T11:08:47.327Z</time></trkpt><trkpt lat="39.5438233" lon="8.5445083"><ele>341.0</ele><time>2026-04-21T11:08:48.326Z</time></trkpt><trkpt lat="39.5437933" lon="8.54439"><ele>341.20000000000005</ele><time>2026-04-21T11:08:49.327Z</time></trkpt><trkpt lat="39.5437567" lon="8.54427"><ele>341.40000000000003</ele><time>2026-04-21T11:08:50.326Z</time></trkpt><trkpt lat="39.5437083" lon="8.5441567"><ele>341.6</ele><time>2026-04-21T11:08:51.327Z</time></trkpt><trkpt lat="39.54365" lon="8.5440417"><ele>341.8</ele><time>2026-04-21T11:08:52.327Z</time></trkpt><trkpt lat="39.5435883" lon="8.5439217"><ele>342.0</ele><time>2026-04-21T11:08:53.327Z</time></trkpt><trkpt lat="39.5435183" lon="8.5437983"><ele>338.20000000000005</ele><time>2026-04-21T11:08:54.326Z</time></trkpt><trkpt lat="39.5434367" lon="8.5436867"><ele>334.4</ele><time>2026-04-21T11:08:55.327Z</time></trkpt><trkpt lat="39.5433617" lon="8.543595"><ele>330.6</ele><time>2026-04-21T11:08:56.327Z</time></trkpt><trkpt lat="39.5432867" lon="8.5434933"><ele>326.79999999999995</ele><time>2026-04-21T11:08:57.327Z</time></trkpt><trkpt lat="39.5432117" lon="8.54339"><ele>323.0</ele><time>2026-04-21T11:08:58.327Z</time></trkpt><trkpt lat="39.54314" lon="8.5432933"><ele>323.0</ele><time>2026-04-21T11:08:59.327Z</time></trkpt><trkpt lat="39.543075" lon="8.5432"><ele>323.0</ele><time>2026-04-21T11:09:00.326Z</time></trkpt><trkpt lat="39.543005" lon="8.5431283"><ele>323.0</ele><time>2026-04-21T11:09:01.327Z</time></trkpt><trkpt lat="39.542935" lon="8.5430633"><ele>323.0</ele><time>2026-04-21T11:09:02.327Z</time></trkpt><trkpt lat="39.542865" lon="8.5430133"><ele>323.0</ele><time>2026-04-21T11:09:03.326Z</time></trkpt><trkpt lat="39.5427967" lon="8.542975"><ele>323.0</ele><time>2026-04-21T11:09:04.326Z</time></trkpt><trkpt lat="39.5427217" lon="8.5429667"><ele>319.59999999999997</ele><time>2026-04-21T11:09:05.326Z</time></trkpt><trkpt lat="39.54264" lon="8.542985"><ele>316.2</ele><time>2026-04-21T11:09:06.327Z</time></trkpt><trkpt lat="39.54255" lon="8.54303"><ele>312.8</ele><time>2026-04-21T11:09:07.327Z</time></trkpt><trkpt lat="39.5424483" lon="8.5430983"><ele>309.4</ele><time>2026-04-21T11:09:08.327Z</time></trkpt><trkpt lat="39.5423483" lon="8.5431617"><ele>306.0</ele><time>2026-04-21T11:09:09.326Z</time></trkpt><trkpt lat="39.5422517" lon="8.5432283"><ele>306.0</ele><time>2026-04-21T11:09:10.326Z</time></trkpt><trkpt lat="39.54216" lon="8.5432783"><ele>306.0</ele><time>2026-04-21T11:09:11.327Z</time></trkpt><trkpt lat="39.5420667" lon="8.5433217"><ele>306.0</ele><time>2026-04-21T11:09:12.327Z</time></trkpt><trkpt lat="39.5419917" lon="8.5433517"><ele>306.0</ele><time>2026-04-21T11:09:13.326Z</time></trkpt><trkpt lat="39.541915" lon="8.543375"><ele>306.0</ele><time>2026-04-21T11:09:14.326Z</time></trkpt><trkpt lat="39.5418367" lon="8.5433717"><ele>306.0</ele><time>2026-04-21T11:09:15.326Z</time></trkpt><trkpt lat="39.5417583" lon="8.543345"><ele>305.2</ele><time>2026-04-21T11:09:16.326Z</time></trkpt><trkpt lat="39.54168" lon="8.5432933"><ele>304.40000000000003</ele><time>2026-04-21T11:09:17.327Z</time></trkpt><trkpt lat="39.5415967" lon="8.5432417"><ele>303.6</ele><time>2026-04-21T11:09:18.326Z</time></trkpt><trkpt lat="39.5415067" lon="8.5431983"><ele>302.8</ele><time>2026-04-21T11:09:19.326Z</time></trkpt><trkpt lat="39.5414183" lon="8.543165"><ele>302.0</ele><time>2026-04-21T11:09:20.327Z</time></trkpt><trkpt lat="39.5413367" lon="8.5431333"><ele>302.0</ele><time>2026-04-21T11:09:21.327Z</time></trkpt><trkpt lat="39.5412767" lon="8.5431017"><ele>302.0</ele><time>2026-04-21T11:09:22.326Z</time></trkpt><trkpt lat="39.5412133" lon="8.5430283"><ele>302.0</ele><time>2026-04-21T11:09:23.326Z</time></trkpt><trkpt lat="39.5411517" lon="8.54294"><ele>302.0</ele><time>2026-04-21T11:09:24.327Z</time></trkpt><trkpt lat="39.5410967" lon="8.5428433"><ele>302.0</ele><time>2026-04-21T11:09:25.327Z</time></trkpt><trkpt lat="39.5410383" lon="8.5427317"><ele>302.0</ele><time>2026-04-21T11:09:26.326Z</time></trkpt><trkpt lat="39.54098" lon="8.54262"><ele>299.4</ele><time>2026-04-21T11:09:27.326Z</time></trkpt><trkpt lat="39.540925" lon="8.542505"><ele>296.79999999999995</ele><time>2026-04-21T11:09:28.326Z</time></trkpt><trkpt lat="39.5408717" lon="8.5423933"><ele>294.2</ele><time>2026-04-21T11:09:29.326Z</time></trkpt><trkpt lat="39.54082" lon="8.5422883"><ele>291.59999999999997</ele><time>2026-04-21T11:09:30.327Z</time></trkpt><trkpt lat="39.5407617" lon="8.5421817"><ele>289.0</ele><time>2026-04-21T11:09:31.327Z</time></trkpt><trkpt lat="39.5407233" lon="8.54208"><ele>289.8333333333333</ele><time>2026-04-21T11:09:32.327Z</time></trkpt><trkpt lat="39.5406733" lon="8.5419817"><ele>290.66666666666663</ele><time>2026-04-21T11:09:33.327Z</time></trkpt><trkpt lat="39.5406333" lon="8.5418983"><ele>291.5</ele><time>2026-04-21T11:09:34.327Z</time></trkpt><trkpt lat="39.5406" lon="8.5417433"><ele>292.3333333333333</ele><time>2026-04-21T11:09:36.327Z</time></trkpt><trkpt lat="39.5406167" lon="8.5416567"><ele>293.1666666666667</ele><time>2026-04-21T11:09:37.327Z</time></trkpt><trkpt lat="39.5406617" lon="8.5415633"><ele>294.0</ele><time>2026-04-21T11:09:38.327Z</time></trkpt><trkpt lat="39.54072" lon="8.5414683"><ele>294.0</ele><time>2026-04-21T11:09:39.326Z</time></trkpt><trkpt lat="39.5407583" lon="8.5413517"><ele>294.0</ele><time>2026-04-21T11:09:40.327Z</time></trkpt><trkpt lat="39.5407783" lon="8.5412383"><ele>294.0</ele><time>2026-04-21T11:09:41.327Z</time></trkpt><trkpt lat="39.5407817" lon="8.5411317"><ele>294.0</ele><time>2026-04-21T11:09:42.326Z</time></trkpt><trkpt lat="39.5407883" lon="8.5410333"><ele>294.0</ele><time>2026-04-21T11:09:43.326Z</time></trkpt><trkpt lat="39.5408083" lon="8.5409317"><ele>294.0</ele><time>2026-04-21T11:09:44.327Z</time></trkpt><trkpt lat="39.54084" lon="8.5408283"><ele>291.8333333333333</ele><time>2026-04-21T11:09:45.326Z</time></trkpt><trkpt lat="39.5408833" lon="8.5407333"><ele>289.6666666666667</ele><time>2026-04-21T11:09:46.327Z</time></trkpt><trkpt lat="39.540925" lon="8.5406383"><ele>287.5</ele><time>2026-04-21T11:09:47.327Z</time></trkpt><trkpt lat="39.5409683" lon="8.5405567"><ele>285.33333333333337</ele><time>2026-04-21T11:09:48.327Z</time></trkpt><trkpt lat="39.54101" lon="8.540475"><ele>283.1666666666667</ele><time>2026-04-21T11:09:49.327Z</time></trkpt><trkpt lat="39.5410533" lon="8.5404017"><ele>281.0</ele><time>2026-04-21T11:09:50.327Z</time></trkpt><trkpt lat="39.5410967" lon="8.5403367"><ele>279.42857142857144</ele><time>2026-04-21T11:09:51.326Z</time></trkpt><trkpt lat="39.5411483" lon="8.5402833"><ele>277.8571428571429</ele><time>2026-04-21T11:09:52.327Z</time></trkpt><trkpt lat="39.541205" lon="8.5402383"><ele>276.2857142857143</ele><time>2026-04-21T11:09:53.326Z</time></trkpt><trkpt lat="39.5412733" lon="8.5402033"><ele>274.7142857142857</ele><time>2026-04-21T11:09:54.326Z</time></trkpt><trkpt lat="39.5413383" lon="8.5401733"><ele>273.1428571428571</ele><time>2026-04-21T11:09:55.326Z</time></trkpt><trkpt lat="39.5413983" lon="8.5401417"><ele>271.57142857142856</ele><time>2026-04-21T11:09:56.326Z</time></trkpt><trkpt lat="39.5414517" lon="8.5400983"><ele>270.0</ele><time>2026-04-21T11:09:57.327Z</time></trkpt><trkpt lat="39.541495" lon="8.5400267"><ele>274.0</ele><time>2026-04-21T11:09:58.326Z</time></trkpt><trkpt lat="39.54152" lon="8.5399417"><ele>278.0</ele><time>2026-04-21T11:09:59.326Z</time></trkpt><trkpt lat="39.5415283" lon="8.539855"><ele>282.0</ele><time>2026-04-21T11:10:00.327Z</time></trkpt><trkpt lat="39.5415117" lon="8.5397683"><ele>286.0</ele><time>2026-04-21T11:10:01.327Z</time></trkpt><trkpt lat="39.5414667" lon="8.5396867"><ele>290.0</ele><time>2026-04-21T11:10:02.327Z</time></trkpt><trkpt lat="39.5413983" lon="8.539635"><ele>294.0</ele><time>2026-04-21T11:10:03.326Z</time></trkpt><trkpt lat="39.54131" lon="8.539605"><ele>293.59999999999997</ele><time>2026-04-21T11:10:04.327Z</time></trkpt><trkpt lat="39.54121" lon="8.53959"><ele>293.2</ele><time>2026-04-21T11:10:05.326Z</time></trkpt><trkpt lat="39.5411133" lon="8.539565"><ele>292.79999999999995</ele><time>2026-04-21T11:10:06.327Z</time></trkpt><trkpt lat="39.541025" lon="8.5395317"><ele>292.4</ele><time>2026-04-21T11:10:07.327Z</time></trkpt><trkpt lat="39.540935" lon="8.5394983"><ele>292.0</ele><time>2026-04-21T11:10:08.326Z</time></trkpt><trkpt lat="39.5408333" lon="8.5394883"><ele>292.0</ele><time>2026-04-21T11:10:09.326Z</time></trkpt><trkpt lat="39.540725" lon="8.5395083"><ele>292.0</ele><time>2026-04-21T11:10:10.327Z</time></trkpt><trkpt lat="39.5406133" lon="8.5395333"><ele>292.0</ele><time>2026-04-21T11:10:11.327Z</time></trkpt><trkpt lat="39.5404917" lon="8.5395467"><ele>292.0</ele><time>2026-04-21T11:10:12.326Z</time></trkpt><trkpt lat="39.540375" lon="8.5395433"><ele>289.0</ele><time>2026-04-21T11:10:13.327Z</time></trkpt><trkpt lat="39.5402733" lon="8.5395367"><ele>286.0</ele><time>2026-04-21T11:10:14.327Z</time></trkpt><trkpt lat="39.5401833" lon="8.5395283"><ele>283.0</ele><time>2026-04-21T11:10:15.326Z</time></trkpt><trkpt lat="39.5401017" lon="8.5395267"><ele>280.0</ele><time>2026-04-21T11:10:16.327Z</time></trkpt><trkpt lat="39.5400233" lon="8.5395217"><ele>277.0</ele><time>2026-04-21T11:10:17.326Z</time></trkpt><trkpt lat="39.53994" lon="8.5395"><ele>274.0</ele><time>2026-04-21T11:10:18.326Z</time></trkpt><trkpt lat="39.5398633" lon="8.539455"><ele>274.0</ele><time>2026-04-21T11:10:19.327Z</time></trkpt><trkpt lat="39.53979" lon="8.5393867"><ele>274.0</ele><time>2026-04-21T11:10:20.327Z</time></trkpt><trkpt lat="39.5397" lon="8.5393033"><ele>274.0</ele><time>2026-04-21T11:10:21.327Z</time></trkpt><trkpt lat="39.5396133" lon="8.5392133"><ele>274.0</ele><time>2026-04-21T11:10:22.327Z</time></trkpt><trkpt lat="39.5395283" lon="8.5391433"><ele>274.0</ele><time>2026-04-21T11:10:23.326Z</time></trkpt><trkpt lat="39.5394467" lon="8.5390867"><ele>272.3333333333333</ele><time>2026-04-21T11:10:24.327Z</time></trkpt><trkpt lat="39.5393683" lon="8.5390317"><ele>270.66666666666663</ele><time>2026-04-21T11:10:25.326Z</time></trkpt><trkpt lat="39.5393067" lon="8.53898"><ele>269.0</ele><time>2026-04-21T11:10:26.326Z</time></trkpt><trkpt lat="39.5392683" lon="8.5389133"><ele>267.3333333333333</ele><time>2026-04-21T11:10:27.326Z</time></trkpt><trkpt lat="39.5392467" lon="8.5388317"><ele>265.6666666666667</ele><time>2026-04-21T11:10:28.327Z</time></trkpt><trkpt lat="39.5392517" lon="8.5387383"><ele>264.0</ele><time>2026-04-21T11:10:29.327Z</time></trkpt><trkpt lat="39.5392883" lon="8.5386367"><ele>264.0</ele><time>2026-04-21T11:10:30.327Z</time></trkpt><trkpt lat="39.5393383" lon="8.5385367"><ele>264.0</ele><time>2026-04-21T11:10:31.327Z</time></trkpt><trkpt lat="39.53937" lon="8.538445"><ele>264.0</ele><time>2026-04-21T11:10:32.326Z</time></trkpt><trkpt lat="39.539365" lon="8.5383433"><ele>264.0</ele><time>2026-04-21T11:10:33.327Z</time></trkpt><trkpt lat="39.5393283" lon="8.5382683"><ele>264.0</ele><time>2026-04-21T11:10:34.327Z</time></trkpt><trkpt lat="39.5392583" lon="8.538225"><ele>264.0</ele><time>2026-04-21T11:10:35.327Z</time></trkpt><trkpt lat="39.539165" lon="8.5382067"><ele>264.0</ele><time>2026-04-21T11:10:36.326Z</time></trkpt><trkpt lat="39.5390767" lon="8.5381967"><ele>264.0</ele><time>2026-04-21T11:10:37.327Z</time></trkpt><trkpt lat="39.538985" lon="8.5381817"><ele>264.0</ele><time>2026-04-21T11:10:38.326Z</time></trkpt><trkpt lat="39.53891" lon="8.5381533"><ele>264.0</ele><time>2026-04-21T11:10:39.327Z</time></trkpt><trkpt lat="39.53885" lon="8.5381"><ele>264.0</ele><time>2026-04-21T11:10:40.327Z</time></trkpt><trkpt lat="39.5388017" lon="8.5380367"><ele>264.0</ele><time>2026-04-21T11:10:41.326Z</time></trkpt><trkpt lat="39.53877" lon="8.53796"><ele>265.1666666666667</ele><time>2026-04-21T11:10:42.327Z</time></trkpt><trkpt lat="39.53876" lon="8.537865"><ele>266.3333333333333</ele><time>2026-04-21T11:10:43.327Z</time></trkpt><trkpt lat="39.53876" lon="8.53777"><ele>267.5</ele><time>2026-04-21T11:10:44.326Z</time></trkpt><trkpt lat="39.5387633" lon="8.5376867"><ele>268.66666666666663</ele><time>2026-04-21T11:10:45.327Z</time></trkpt><trkpt lat="39.5387317" lon="8.5375533"><ele>269.8333333333333</ele><time>2026-04-21T11:10:47.327Z</time></trkpt><trkpt lat="39.5386933" lon="8.5374883"><ele>271.0</ele><time>2026-04-21T11:10:49.326Z</time></trkpt><trkpt lat="39.5386133" lon="8.5375383"><ele>268.2</ele><time>2026-04-21T11:10:52.326Z</time></trkpt><trkpt lat="39.5385517" lon="8.53765"><ele>265.40000000000003</ele><time>2026-04-21T11:10:54.326Z</time></trkpt><trkpt lat="39.5385067" lon="8.5377117"><ele>262.6</ele><time>2026-04-21T11:10:55.327Z</time></trkpt><trkpt lat="39.5384533" lon="8.5377667"><ele>259.8</ele><time>2026-04-21T11:10:56.327Z</time></trkpt><trkpt lat="39.5383567" lon="8.5378317"><ele>257.0</ele><time>2026-04-21T11:10:58.327Z</time></trkpt><trkpt lat="39.5382417" lon="8.537855"><ele>257.0</ele><time>2026-04-21T11:11:00.327Z</time></trkpt><trkpt lat="39.5381417" lon="8.53777"><ele>257.0</ele><time>2026-04-21T11:11:02.326Z</time></trkpt><trkpt lat="39.5381" lon="8.53769"><ele>257.0</ele><time>2026-04-21T11:11:03.326Z</time></trkpt><trkpt lat="39.5380583" lon="8.5375883"><ele>257.0</ele><time>2026-04-21T11:11:04.327Z</time></trkpt><trkpt lat="39.5379983" lon="8.5374667"><ele>257.0</ele><time>2026-04-21T11:11:05.327Z</time></trkpt><trkpt lat="39.5379383" lon="8.53734"><ele>254.2</ele><time>2026-04-21T11:11:06.327Z</time></trkpt><trkpt lat="39.5378683" lon="8.5372217"><ele>251.39999999999998</ele><time>2026-04-21T11:11:07.327Z</time></trkpt><trkpt lat="39.5377933" lon="8.537115"><ele>248.60000000000002</ele><time>2026-04-21T11:11:08.327Z</time></trkpt><trkpt lat="39.537715" lon="8.537015"><ele>245.8</ele><time>2026-04-21T11:11:09.327Z</time></trkpt><trkpt lat="39.5376483" lon="8.5369283"><ele>243.0</ele><time>2026-04-21T11:11:10.326Z</time></trkpt><trkpt lat="39.5375833" lon="8.5368483"><ele>242.71428571428572</ele><time>2026-04-21T11:11:11.327Z</time></trkpt><trkpt lat="39.5375267" lon="8.536785"><ele>242.42857142857144</ele><time>2026-04-21T11:11:12.327Z</time></trkpt><trkpt lat="39.53748" lon="8.53672"><ele>242.14285714285717</ele><time>2026-04-21T11:11:13.326Z</time></trkpt><trkpt lat="39.537445" lon="8.5366383"><ele>241.85714285714286</ele><time>2026-04-21T11:11:14.327Z</time></trkpt><trkpt lat="39.537425" lon="8.5365533"><ele>241.5714285714286</ele><time>2026-04-21T11:11:15.327Z</time></trkpt><trkpt lat="39.5374333" lon="8.5364633"><ele>241.2857142857143</ele><time>2026-04-21T11:11:16.327Z</time></trkpt><trkpt lat="39.537465" lon="8.53636"><ele>241.0</ele><time>2026-04-21T11:11:17.327Z</time></trkpt><trkpt lat="39.53752" lon="8.5362533"><ele>241.8</ele><time>2026-04-21T11:11:18.326Z</time></trkpt><trkpt lat="39.537595" lon="8.5361467"><ele>242.60000000000002</ele><time>2026-04-21T11:11:19.326Z</time></trkpt><trkpt lat="39.5376633" lon="8.5360517"><ele>243.4</ele><time>2026-04-21T11:11:20.327Z</time></trkpt><trkpt lat="39.5377267" lon="8.5359683"><ele>244.2</ele><time>2026-04-21T11:11:21.326Z</time></trkpt><trkpt lat="39.5377767" lon="8.535885"><ele>245.0</ele><time>2026-04-21T11:11:22.327Z</time></trkpt><trkpt lat="39.5378" lon="8.5358033"><ele>245.0</ele><time>2026-04-21T11:11:23.327Z</time></trkpt><trkpt lat="39.53777" lon="8.5356817"><ele>245.0</ele><time>2026-04-21T11:11:25.327Z</time></trkpt><trkpt lat="39.5377067" lon="8.5356683"><ele>245.0</ele><time>2026-04-21T11:11:26.326Z</time></trkpt><trkpt lat="39.5376167" lon="8.5356967"><ele>245.0</ele><time>2026-04-21T11:11:27.327Z</time></trkpt><trkpt lat="39.5375067" lon="8.53577"><ele>245.0</ele><time>2026-04-21T11:11:28.327Z</time></trkpt><trkpt lat="39.53739" lon="8.53587"><ele>245.0</ele><time>2026-04-21T11:11:29.327Z</time></trkpt><trkpt lat="39.5372817" lon="8.53598"><ele>245.0</ele><time>2026-04-21T11:11:30.327Z</time></trkpt><trkpt lat="39.537185" lon="8.536085"><ele>245.0</ele><time>2026-04-21T11:11:31.326Z</time></trkpt><trkpt lat="39.537105" lon="8.5361817"><ele>245.0</ele><time>2026-04-21T11:11:32.325Z</time></trkpt><trkpt lat="39.5370417" lon="8.536265"><ele>242.66666666666669</ele><time>2026-04-21T11:11:33.326Z</time></trkpt><trkpt lat="39.53698" lon="8.5363283"><ele>240.33333333333334</ele><time>2026-04-21T11:11:34.326Z</time></trkpt><trkpt lat="39.5369083" lon="8.536365"><ele>238.0</ele><time>2026-04-21T11:11:35.326Z</time></trkpt><trkpt lat="39.5368317" lon="8.5363883"><ele>235.66666666666669</ele><time>2026-04-21T11:11:36.326Z</time></trkpt><trkpt lat="39.53676" lon="8.5363767"><ele>233.33333333333334</ele><time>2026-04-21T11:11:37.325Z</time></trkpt><trkpt lat="39.5366867" lon="8.5363267"><ele>231.0</ele><time>2026-04-21T11:11:38.326Z</time></trkpt><trkpt lat="39.5366117" lon="8.5362483"><ele>232.60000000000002</ele><time>2026-04-21T11:11:39.325Z</time></trkpt><trkpt lat="39.536545" lon="8.53615"><ele>234.20000000000002</ele><time>2026-04-21T11:11:40.325Z</time></trkpt><trkpt lat="39.536475" lon="8.5360617"><ele>235.79999999999998</ele><time>2026-04-21T11:11:41.326Z</time></trkpt><trkpt lat="39.5363983" lon="8.5359867"><ele>237.39999999999998</ele><time>2026-04-21T11:11:42.325Z</time></trkpt><trkpt lat="39.5363183" lon="8.5359383"><ele>239.0</ele><time>2026-04-21T11:11:43.325Z</time></trkpt><trkpt lat="39.5362333" lon="8.5358983"><ele>234.66666666666669</ele><time>2026-04-21T11:11:44.326Z</time></trkpt><trkpt lat="39.536155" lon="8.5358617"><ele>230.33333333333334</ele><time>2026-04-21T11:11:45.326Z</time></trkpt><trkpt lat="39.5360633" lon="8.5357533"><ele>226.0</ele><time>2026-04-21T11:11:47.325Z</time></trkpt><trkpt lat="39.53604" lon="8.5356567"><ele>221.66666666666669</ele><time>2026-04-21T11:11:48.326Z</time></trkpt><trkpt lat="39.5360317" lon="8.53556"><ele>217.33333333333334</ele><time>2026-04-21T11:11:49.325Z</time></trkpt><trkpt lat="39.5360517" lon="8.5354517"><ele>213.0</ele><time>2026-04-21T11:11:50.325Z</time></trkpt><trkpt lat="39.5360817" lon="8.535335"><ele>213.0</ele><time>2026-04-21T11:11:51.326Z</time></trkpt><trkpt lat="39.5360933" lon="8.5352167"><ele>213.0</ele><time>2026-04-21T11:11:52.325Z</time></trkpt><trkpt lat="39.5360817" lon="8.535085"><ele>213.0</ele><time>2026-04-21T11:11:53.325Z</time></trkpt><trkpt lat="39.536055" lon="8.53496"><ele>213.0</ele><time>2026-04-21T11:11:54.325Z</time></trkpt><trkpt lat="39.5360183" lon="8.5348467"><ele>213.0</ele><time>2026-04-21T11:11:55.325Z</time></trkpt><trkpt lat="39.53598" lon="8.5347467"><ele>213.0</ele><time>2026-04-21T11:11:56.325Z</time></trkpt><trkpt lat="39.5359317" lon="8.53466"><ele>213.0</ele><time>2026-04-21T11:11:57.325Z</time></trkpt><trkpt lat="39.535875" lon="8.5345967"><ele>213.0</ele><time>2026-04-21T11:11:58.326Z</time></trkpt><trkpt lat="39.53582" lon="8.5344583"><ele>213.0</ele><time>2026-04-21T11:12:00.325Z</time></trkpt><trkpt lat="39.5358233" lon="8.53436"><ele>213.0</ele><time>2026-04-21T11:12:01.326Z</time></trkpt><trkpt lat="39.5358433" lon="8.5342433"><ele>213.0</ele><time>2026-04-21T11:12:02.326Z</time></trkpt><trkpt lat="39.5358883" lon="8.53411"><ele>212.8</ele><time>2026-04-21T11:12:03.326Z</time></trkpt><trkpt lat="39.535945" lon="8.5339733"><ele>212.60000000000002</ele><time>2026-04-21T11:12:04.325Z</time></trkpt><trkpt lat="39.536" lon="8.5338383"><ele>212.39999999999998</ele><time>2026-04-21T11:12:05.326Z</time></trkpt><trkpt lat="39.5360533" lon="8.5337233"><ele>212.2</ele><time>2026-04-21T11:12:06.325Z</time></trkpt><trkpt lat="39.53612" lon="8.5336183"><ele>212.0</ele><time>2026-04-21T11:12:07.326Z</time></trkpt><trkpt lat="39.5362017" lon="8.5335167"><ele>214.33333333333334</ele><time>2026-04-21T11:12:08.325Z</time></trkpt><trkpt lat="39.5362783" lon="8.5334267"><ele>216.66666666666669</ele><time>2026-04-21T11:12:09.326Z</time></trkpt><trkpt lat="39.53634" lon="8.533345"><ele>219.0</ele><time>2026-04-21T11:12:10.325Z</time></trkpt><trkpt lat="39.5363867" lon="8.53328"><ele>221.33333333333331</ele><time>2026-04-21T11:12:11.325Z</time></trkpt><trkpt lat="39.5364283" lon="8.5332167"><ele>223.66666666666666</ele><time>2026-04-21T11:12:12.325Z</time></trkpt><trkpt lat="39.5364383" lon="8.53308"><ele>226.0</ele><time>2026-04-21T11:12:14.326Z</time></trkpt><trkpt lat="39.53631" lon="8.5330083"><ele>221.4</ele><time>2026-04-21T11:12:16.326Z</time></trkpt><trkpt lat="39.5362167" lon="8.53301"><ele>216.8</ele><time>2026-04-21T11:12:17.326Z</time></trkpt><trkpt lat="39.5361183" lon="8.5330333"><ele>212.20000000000002</ele><time>2026-04-21T11:12:18.325Z</time></trkpt><trkpt lat="39.536025" lon="8.5330417"><ele>207.60000000000002</ele><time>2026-04-21T11:12:19.325Z</time></trkpt><trkpt lat="39.535935" lon="8.5330467"><ele>203.0</ele><time>2026-04-21T11:12:20.326Z</time></trkpt><trkpt lat="39.53586" lon="8.5330233"><ele>203.0</ele><time>2026-04-21T11:12:21.326Z</time></trkpt><trkpt lat="39.5357883" lon="8.5329783"><ele>203.0</ele><time>2026-04-21T11:12:22.326Z</time></trkpt><trkpt lat="39.5357033" lon="8.5328967"><ele>203.0</ele><time>2026-04-21T11:12:23.326Z</time></trkpt><trkpt lat="39.5356083" lon="8.5327967"><ele>203.0</ele><time>2026-04-21T11:12:24.325Z</time></trkpt><trkpt lat="39.5355183" lon="8.5326967"><ele>203.0</ele><time>2026-04-21T11:12:25.325Z</time></trkpt><trkpt lat="39.5354317" lon="8.5325917"><ele>199.75</ele><time>2026-04-21T11:12:26.325Z</time></trkpt><trkpt lat="39.5353567" lon="8.5324867"><ele>196.5</ele><time>2026-04-21T11:12:27.325Z</time></trkpt><trkpt lat="39.5352917" lon="8.5323717"><ele>193.25</ele><time>2026-04-21T11:12:28.326Z</time></trkpt><trkpt lat="39.5352317" lon="8.5322467"><ele>190.0</ele><time>2026-04-21T11:12:29.326Z</time></trkpt><trkpt lat="39.535185" lon="8.5321083"><ele>190.5</ele><time>2026-04-21T11:12:30.326Z</time></trkpt><trkpt lat="39.5351533" lon="8.5319467"><ele>191.0</ele><time>2026-04-21T11:12:31.326Z</time></trkpt><trkpt lat="39.5351267" lon="8.531775"><ele>191.5</ele><time>2026-04-21T11:12:32.326Z</time></trkpt><trkpt lat="39.5351083" lon="8.5316033"><ele>192.0</ele><time>2026-04-21T11:12:33.325Z</time></trkpt><trkpt lat="39.5350933" lon="8.5314367"><ele>192.0</ele><time>2026-04-21T11:12:34.326Z</time></trkpt><trkpt lat="39.5350833" lon="8.5312767"><ele>192.0</ele><time>2026-04-21T11:12:35.326Z</time></trkpt><trkpt lat="39.5350767" lon="8.5311183"><ele>192.0</ele><time>2026-04-21T11:12:36.326Z</time></trkpt><trkpt lat="39.5350517" lon="8.5309683"><ele>192.0</ele><time>2026-04-21T11:12:37.326Z</time></trkpt><trkpt lat="39.5350233" lon="8.5308283"><ele>191.83333333333334</ele><time>2026-04-21T11:12:38.325Z</time></trkpt><trkpt lat="39.53499" lon="8.5307067"><ele>191.66666666666666</ele><time>2026-04-21T11:12:39.325Z</time></trkpt><trkpt lat="39.5349683" lon="8.5305967"><ele>191.5</ele><time>2026-04-21T11:12:40.325Z</time></trkpt><trkpt lat="39.5349467" lon="8.5305117"><ele>191.33333333333331</ele><time>2026-04-21T11:12:41.326Z</time></trkpt><trkpt lat="39.5349367" lon="8.5304183"><ele>191.16666666666666</ele><time>2026-04-21T11:12:42.326Z</time></trkpt><trkpt lat="39.53492" lon="8.5303333"><ele>191.0</ele><time>2026-04-21T11:12:43.326Z</time></trkpt><trkpt lat="39.5348767" lon="8.5302517"><ele>190.5</ele><time>2026-04-21T11:12:44.325Z</time></trkpt><trkpt lat="39.534815" lon="8.5301683"><ele>190.0</ele><time>2026-04-21T11:12:45.326Z</time></trkpt><trkpt lat="39.5347333" lon="8.5301117"><ele>189.5</ele><time>2026-04-21T11:12:46.326Z</time></trkpt><trkpt lat="39.534645" lon="8.5300767"><ele>189.0</ele><time>2026-04-21T11:12:47.325Z</time></trkpt><trkpt lat="39.5345583" lon="8.5300617"><ele>188.5</ele><time>2026-04-21T11:12:48.326Z</time></trkpt><trkpt lat="39.53448" lon="8.5300583"><ele>188.0</ele><time>2026-04-21T11:12:49.326Z</time></trkpt><trkpt lat="39.53441" lon="8.53004"><ele>186.8</ele><time>2026-04-21T11:12:50.325Z</time></trkpt><trkpt lat="39.5343283" lon="8.52996"><ele>185.60000000000002</ele><time>2026-04-21T11:12:52.326Z</time></trkpt><trkpt lat="39.5342933" lon="8.5298833"><ele>184.39999999999998</ele><time>2026-04-21T11:12:53.326Z</time></trkpt><trkpt lat="39.5343017" lon="8.5297433"><ele>183.2</ele><time>2026-04-21T11:12:55.325Z</time></trkpt><trkpt lat="39.53435" lon="8.529655"><ele>182.0</ele><time>2026-04-21T11:12:56.325Z</time></trkpt><trkpt lat="39.534415" lon="8.5295633"><ele>181.83333333333331</ele><time>2026-04-21T11:12:57.326Z</time></trkpt><trkpt lat="39.5344683" lon="8.5294767"><ele>181.66666666666666</ele><time>2026-04-21T11:12:58.326Z</time></trkpt><trkpt lat="39.5345017" lon="8.5293867"><ele>181.5</ele><time>2026-04-21T11:12:59.326Z</time></trkpt><trkpt lat="39.5345117" lon="8.52929"><ele>181.33333333333334</ele><time>2026-04-21T11:13:00.325Z</time></trkpt><trkpt lat="39.5344917" lon="8.5291917"><ele>181.16666666666669</ele><time>2026-04-21T11:13:01.326Z</time></trkpt><trkpt lat="39.5344467" lon="8.5290767"><ele>181.0</ele><time>2026-04-21T11:13:02.326Z</time></trkpt><trkpt lat="39.5344017" lon="8.5289517"><ele>181.0</ele><time>2026-04-21T11:13:03.326Z</time></trkpt><trkpt lat="39.5343533" lon="8.528815"><ele>181.0</ele><time>2026-04-21T11:13:04.325Z</time></trkpt><trkpt lat="39.5343" lon="8.5286733"><ele>181.0</ele><time>2026-04-21T11:13:05.326Z</time></trkpt><trkpt lat="39.534255" lon="8.5285383"><ele>181.0</ele><time>2026-04-21T11:13:06.326Z</time></trkpt><trkpt lat="39.5342133" lon="8.52841"><ele>180.5</ele><time>2026-04-21T11:13:07.325Z</time></trkpt><trkpt lat="39.5341783" lon="8.5282717"><ele>180.0</ele><time>2026-04-21T11:13:08.326Z</time></trkpt><trkpt lat="39.53414" lon="8.528125"><ele>179.5</ele><time>2026-04-21T11:13:09.326Z</time></trkpt><trkpt lat="39.5340933" lon="8.5279683"><ele>179.0</ele><time>2026-04-21T11:13:10.326Z</time></trkpt><trkpt lat="39.534045" lon="8.527805"><ele>179.0</ele><time>2026-04-21T11:13:11.325Z</time></trkpt><trkpt lat="39.534" lon="8.5276233"><ele>179.0</ele><time>2026-04-21T11:13:12.326Z</time></trkpt><trkpt lat="39.5339517" lon="8.5274383"><ele>179.0</ele><time>2026-04-21T11:13:13.325Z</time></trkpt><trkpt lat="39.5339017" lon="8.5272433"><ele>184.0</ele><time>2026-04-21T11:13:14.325Z</time></trkpt><trkpt lat="39.5338533" lon="8.5270583"><ele>189.0</ele><time>2026-04-21T11:13:15.326Z</time></trkpt><trkpt lat="39.5338017" lon="8.5268717"><ele>194.0</ele><time>2026-04-21T11:13:16.325Z</time></trkpt><trkpt lat="39.53374" lon="8.5266667"><ele>187.33333333333334</ele><time>2026-04-21T11:13:17.325Z</time></trkpt><trkpt lat="39.5336817" lon="8.5264483"><ele>180.66666666666669</ele><time>2026-04-21T11:13:18.326Z</time></trkpt><trkpt lat="39.5336283" lon="8.5262433"><ele>174.0</ele><time>2026-04-21T11:13:19.326Z</time></trkpt><trkpt lat="39.533575" lon="8.52606"><ele>172.75</ele><time>2026-04-21T11:13:20.325Z</time></trkpt><trkpt lat="39.5335233" lon="8.5258917"><ele>171.5</ele><time>2026-04-21T11:13:21.326Z</time></trkpt><trkpt lat="39.5334733" lon="8.5257267"><ele>170.25</ele><time>2026-04-21T11:13:22.325Z</time></trkpt><trkpt lat="39.5334317" lon="8.5255733"><ele>169.0</ele><time>2026-04-21T11:13:23.325Z</time></trkpt><trkpt lat="39.5333867" lon="8.525415"><ele>168.75</ele><time>2026-04-21T11:13:24.326Z</time></trkpt><trkpt lat="39.533345" lon="8.52526"><ele>168.5</ele><time>2026-04-21T11:13:25.326Z</time></trkpt><trkpt lat="39.5333083" lon="8.52511"><ele>168.25</ele><time>2026-04-21T11:13:26.325Z</time></trkpt><trkpt lat="39.5332683" lon="8.524965"><ele>168.0</ele><time>2026-04-21T11:13:27.325Z</time></trkpt><trkpt lat="39.5332283" lon="8.52482"><ele>168.0</ele><time>2026-04-21T11:13:28.326Z</time></trkpt><trkpt lat="39.5331817" lon="8.5246767"><ele>168.0</ele><time>2026-04-21T11:13:29.326Z</time></trkpt><trkpt lat="39.5331317" lon="8.5245267"><ele>168.0</ele><time>2026-04-21T11:13:30.326Z</time></trkpt><trkpt lat="39.53308" lon="8.5243717"><ele>168.0</ele><time>2026-04-21T11:13:31.325Z</time></trkpt><trkpt lat="39.53304" lon="8.524205"><ele>166.75</ele><time>2026-04-21T11:13:32.325Z</time></trkpt><trkpt lat="39.5329967" lon="8.5240367"><ele>165.5</ele><time>2026-04-21T11:13:33.326Z</time></trkpt><trkpt lat="39.5329483" lon="8.5238833"><ele>164.25</ele><time>2026-04-21T11:13:34.325Z</time></trkpt><trkpt lat="39.532895" lon="8.523745"><ele>163.0</ele><time>2026-04-21T11:13:35.326Z</time></trkpt><trkpt lat="39.532835" lon="8.52363"><ele>163.0</ele><time>2026-04-21T11:13:36.326Z</time></trkpt><trkpt lat="39.53276" lon="8.5235317"><ele>163.0</ele><time>2026-04-21T11:13:37.325Z</time></trkpt><trkpt lat="39.5326917" lon="8.5234633"><ele>163.0</ele><time>2026-04-21T11:13:38.326Z</time></trkpt><trkpt lat="39.5326283" lon="8.5234183"><ele>163.0</ele><time>2026-04-21T11:13:39.326Z</time></trkpt><trkpt lat="39.5325283" lon="8.5233667"><ele>163.0</ele><time>2026-04-21T11:13:41.325Z</time></trkpt><trkpt lat="39.5324383" lon="8.523325"><ele>163.0</ele><time>2026-04-21T11:13:44.326Z</time></trkpt><trkpt lat="39.5323733" lon="8.5232967"><ele>163.0</ele><time>2026-04-21T11:13:46.325Z</time></trkpt><trkpt lat="39.5323" lon="8.5232283"><ele>163.0</ele><time>2026-04-21T11:13:48.325Z</time></trkpt><trkpt lat="39.53222" lon="8.523115"><ele>163.0</ele><time>2026-04-21T11:13:50.326Z</time></trkpt><trkpt lat="39.5321783" lon="8.5230467"><ele>163.0</ele><time>2026-04-21T11:13:51.326Z</time></trkpt><trkpt lat="39.5321467" lon="8.5229733"><ele>163.0</ele><time>2026-04-21T11:13:52.325Z</time></trkpt><trkpt lat="39.5321117" lon="8.5229017"><ele>163.5</ele><time>2026-04-21T11:13:53.325Z</time></trkpt><trkpt lat="39.5320883" lon="8.5228183"><ele>164.0</ele><time>2026-04-21T11:13:54.325Z</time></trkpt><trkpt lat="39.5320717" lon="8.5227167"><ele>164.5</ele><time>2026-04-21T11:13:55.326Z</time></trkpt><trkpt lat="39.5320717" lon="8.522615"><ele>165.0</ele><time>2026-04-21T11:13:56.326Z</time></trkpt><trkpt lat="39.532075" lon="8.52251"><ele>165.5</ele><time>2026-04-21T11:13:57.325Z</time></trkpt><trkpt lat="39.53208" lon="8.522395"><ele>166.0</ele><time>2026-04-21T11:13:58.326Z</time></trkpt><trkpt lat="39.5320783" lon="8.5222717"><ele>166.0</ele><time>2026-04-21T11:13:59.326Z</time></trkpt><trkpt lat="39.5320733" lon="8.5221483"><ele>166.0</ele><time>2026-04-21T11:14:00.326Z</time></trkpt><trkpt lat="39.5320683" lon="8.5220133"><ele>166.0</ele><time>2026-04-21T11:14:01.325Z</time></trkpt><trkpt lat="39.5320583" lon="8.52187"><ele>166.0</ele><time>2026-04-21T11:14:02.326Z</time></trkpt><trkpt lat="39.5320317" lon="8.5217517"><ele>166.0</ele><time>2026-04-21T11:14:03.325Z</time></trkpt><trkpt lat="39.5319967" lon="8.521635"><ele>166.66666666666669</ele><time>2026-04-21T11:14:04.325Z</time></trkpt><trkpt lat="39.5319533" lon="8.52154"><ele>167.33333333333334</ele><time>2026-04-21T11:14:05.325Z</time></trkpt><trkpt lat="39.5319067" lon="8.5214633"><ele>168.0</ele><time>2026-04-21T11:14:06.326Z</time></trkpt><trkpt lat="39.531845" lon="8.5214233"><ele>168.66666666666666</ele><time>2026-04-21T11:14:07.326Z</time></trkpt><trkpt lat="39.53177" lon="8.521425"><ele>169.33333333333331</ele><time>2026-04-21T11:14:08.325Z</time></trkpt><trkpt lat="39.5316867" lon="8.5214633"><ele>170.0</ele><time>2026-04-21T11:14:09.326Z</time></trkpt><trkpt lat="39.5315967" lon="8.5215317"><ele>170.0</ele><time>2026-04-21T11:14:10.325Z</time></trkpt><trkpt lat="39.531505" lon="8.5216017"><ele>170.0</ele><time>2026-04-21T11:14:11.326Z</time></trkpt><trkpt lat="39.5314283" lon="8.5216733"><ele>170.0</ele><time>2026-04-21T11:14:12.326Z</time></trkpt><trkpt lat="39.531325" lon="8.52184"><ele>170.0</ele><time>2026-04-21T11:14:14.325Z</time></trkpt><trkpt lat="39.5313" lon="8.5219333"><ele>170.0</ele><time>2026-04-21T11:14:15.326Z</time></trkpt><trkpt lat="39.53129" lon="8.5220167"><ele>171.5</ele><time>2026-04-21T11:14:16.326Z</time></trkpt><trkpt lat="39.5312917" lon="8.5221917"><ele>173.0</ele><time>2026-04-21T11:14:18.326Z</time></trkpt><trkpt lat="39.531335" lon="8.5224"><ele>174.5</ele><time>2026-04-21T11:14:21.326Z</time></trkpt><trkpt lat="39.5313717" lon="8.52249"><ele>176.0</ele><time>2026-04-21T11:15:01.326Z</time></trkpt><trkpt lat="39.5313917" lon="8.5226067"><ele>176.0</ele><time>2026-04-21T11:15:03.326Z</time></trkpt><trkpt lat="39.53136" lon="8.522695"><ele>176.0</ele><time>2026-04-21T11:15:05.326Z</time></trkpt><trkpt lat="39.5312767" lon="8.52274"><ele>176.0</ele><time>2026-04-21T11:15:08.326Z</time></trkpt><trkpt lat="39.5312033" lon="8.52273"><ele>176.0</ele><time>2026-04-21T11:15:10.325Z</time></trkpt><trkpt lat="39.5311433" lon="8.5226217"><ele>176.0</ele><time>2026-04-21T11:15:12.326Z</time></trkpt><trkpt lat="39.5311117" lon="8.52254"><ele>176.0</ele><time>2026-04-21T11:15:13.325Z</time></trkpt><trkpt lat="39.531075" lon="8.5224267"><ele>177.8</ele><time>2026-04-21T11:15:14.326Z</time></trkpt><trkpt lat="39.531035" lon="8.5223083"><ele>179.60000000000002</ele><time>2026-04-21T11:15:15.325Z</time></trkpt><trkpt lat="39.530995" lon="8.5221917"><ele>181.4</ele><time>2026-04-21T11:15:16.326Z</time></trkpt><trkpt lat="39.5309767" lon="8.5220733"><ele>183.2</ele><time>2026-04-21T11:15:17.326Z</time></trkpt><trkpt lat="39.530975" lon="8.5219483"><ele>185.0</ele><time>2026-04-21T11:15:18.326Z</time></trkpt><trkpt lat="39.531005" lon="8.5215433"><ele>185.0</ele><time>2026-04-21T11:15:21.326Z</time></trkpt><trkpt lat="39.5309967" lon="8.5214333"><ele>185.0</ele><time>2026-04-21T11:15:22.325Z</time></trkpt><trkpt lat="39.5309683" lon="8.5213417"><ele>185.0</ele><time>2026-04-21T11:15:23.326Z</time></trkpt><trkpt lat="39.530905" lon="8.521275"><ele>185.0</ele><time>2026-04-21T11:15:24.325Z</time></trkpt><trkpt lat="39.530725" lon="8.5211733"><ele>185.0</ele><time>2026-04-21T11:15:26.325Z</time></trkpt><trkpt lat="39.5305433" lon="8.52107"><ele>188.66666666666666</ele><time>2026-04-21T11:15:28.326Z</time></trkpt><trkpt lat="39.5302567" lon="8.5209167"><ele>192.33333333333331</ele><time>2026-04-21T11:15:31.325Z</time></trkpt><trkpt lat="39.5301483" lon="8.5209133"><ele>196.0</ele><time>2026-04-21T11:15:32.326Z</time></trkpt><trkpt lat="39.5300283" lon="8.5209517"><ele>196.0</ele><time>2026-04-21T11:15:33.325Z</time></trkpt><trkpt lat="39.529825" lon="8.5210667"><ele>196.0</ele><time>2026-04-21T11:15:35.325Z</time></trkpt><trkpt lat="39.52975" lon="8.5211067"><ele>196.0</ele><time>2026-04-21T11:15:36.326Z</time></trkpt><trkpt lat="39.5296883" lon="8.521125"><ele>196.0</ele><time>2026-04-21T11:15:37.325Z</time></trkpt><trkpt lat="39.52953" lon="8.5209483"><ele>196.0</ele><time>2026-04-21T11:15:41.326Z</time></trkpt><trkpt lat="39.5295283" lon="8.5208633"><ele>196.0</ele><time>2026-04-21T11:15:42.325Z</time></trkpt><trkpt lat="39.5295567" lon="8.5207583"><ele>196.0</ele><time>2026-04-21T11:15:43.326Z</time></trkpt><trkpt lat="39.5296183" lon="8.52063"><ele>196.0</ele><time>2026-04-21T11:15:44.326Z</time></trkpt><trkpt lat="39.5296983" lon="8.52048"><ele>196.0</ele><time>2026-04-21T11:15:45.325Z</time></trkpt><trkpt lat="39.5298583" lon="8.520215"><ele>200.0</ele><time>2026-04-21T11:15:47.325Z</time></trkpt><trkpt lat="39.5299483" lon="8.52011"><ele>204.0</ele><time>2026-04-21T11:15:48.326Z</time></trkpt><trkpt lat="39.5300367" lon="8.5200183"><ele>208.0</ele><time>2026-04-21T11:15:49.325Z</time></trkpt><trkpt lat="39.530305" lon="8.5199033"><ele>204.75</ele><time>2026-04-21T11:15:52.325Z</time></trkpt><trkpt lat="39.5304067" lon="8.519905"><ele>201.5</ele><time>2026-04-21T11:15:53.326Z</time></trkpt><trkpt lat="39.5305033" lon="8.5199067"><ele>198.25</ele><time>2026-04-21T11:15:54.325Z</time></trkpt><trkpt lat="39.5306683" lon="8.5198483"><ele>195.0</ele><time>2026-04-21T11:15:56.325Z</time></trkpt><trkpt lat="39.5307567" lon="8.5197667"><ele>195.0</ele><time>2026-04-21T11:15:57.326Z</time></trkpt><trkpt lat="39.5308383" lon="8.51968"><ele>195.0</ele><time>2026-04-21T11:15:58.325Z</time></trkpt><trkpt lat="39.5309217" lon="8.519605"><ele>195.0</ele><time>2026-04-21T11:15:59.325Z</time></trkpt><trkpt lat="39.5312117" lon="8.519435"><ele>195.75</ele><time>2026-04-21T11:16:02.326Z</time></trkpt><trkpt lat="39.531385" lon="8.5193417"><ele>196.5</ele><time>2026-04-21T11:16:04.325Z</time></trkpt><trkpt lat="39.531465" lon="8.519275"><ele>197.25</ele><time>2026-04-21T11:16:05.325Z</time></trkpt><trkpt lat="39.5315283" lon="8.5191783"><ele>198.0</ele><time>2026-04-21T11:16:06.325Z</time></trkpt><trkpt lat="39.5315733" lon="8.519075"><ele>198.0</ele><time>2026-04-21T11:16:07.325Z</time></trkpt><trkpt lat="39.5316" lon="8.518965"><ele>198.0</ele><time>2026-04-21T11:16:08.326Z</time></trkpt><trkpt lat="39.5316067" lon="8.5188417"><ele>198.0</ele><time>2026-04-21T11:16:09.326Z</time></trkpt><trkpt lat="39.5315983" lon="8.5187083"><ele>198.0</ele><time>2026-04-21T11:16:10.325Z</time></trkpt><trkpt lat="39.5315" lon="8.5182767"><ele>196.8</ele><time>2026-04-21T11:16:13.325Z</time></trkpt><trkpt lat="39.531455" lon="8.5181517"><ele>195.60000000000002</ele><time>2026-04-21T11:16:14.325Z</time></trkpt><trkpt lat="39.5314117" lon="8.5180317"><ele>194.39999999999998</ele><time>2026-04-21T11:16:15.325Z</time></trkpt><trkpt lat="39.5313517" lon="8.5179217"><ele>193.2</ele><time>2026-04-21T11:16:16.326Z</time></trkpt><trkpt lat="39.5312867" lon="8.5178133"><ele>192.0</ele><time>2026-04-21T11:16:17.326Z</time></trkpt><trkpt lat="39.531105" lon="8.5176283"><ele>198.66666666666669</ele><time>2026-04-21T11:16:19.326Z</time></trkpt><trkpt lat="39.5310033" lon="8.5175517"><ele>205.33333333333334</ele><time>2026-04-21T11:16:20.326Z</time></trkpt><trkpt lat="39.5307117" lon="8.5174333"><ele>212.0</ele><time>2026-04-21T11:16:23.326Z</time></trkpt><trkpt lat="39.5306133" lon="8.517455"><ele>212.0</ele><time>2026-04-21T11:16:24.326Z</time></trkpt><trkpt lat="39.53051" lon="8.5175083"><ele>212.0</ele><time>2026-04-21T11:16:25.326Z</time></trkpt><trkpt lat="39.5302833" lon="8.51768"><ele>212.0</ele><time>2026-04-21T11:16:27.325Z</time></trkpt><trkpt lat="39.5301533" lon="8.5177633"><ele>211.33333333333334</ele><time>2026-04-21T11:16:28.325Z</time></trkpt><trkpt lat="39.530025" lon="8.5178483"><ele>210.66666666666669</ele><time>2026-04-21T11:16:29.325Z</time></trkpt><trkpt lat="39.5298833" lon="8.5179417"><ele>210.0</ele><time>2026-04-21T11:16:30.326Z</time></trkpt><trkpt lat="39.529605" lon="8.5181083"><ele>214.66666666666669</ele><time>2026-04-21T11:16:32.325Z</time></trkpt><trkpt lat="39.5294767" lon="8.5181833"><ele>219.33333333333334</ele><time>2026-04-21T11:16:33.325Z</time></trkpt><trkpt lat="39.5293583" lon="8.51825"><ele>224.0</ele><time>2026-04-21T11:16:34.325Z</time></trkpt><trkpt lat="39.5291567" lon="8.5183767"><ele>224.0</ele><time>2026-04-21T11:16:36.325Z</time></trkpt><trkpt lat="39.529065" lon="8.5184467"><ele>223.99999999999997</ele><time>2026-04-21T11:16:37.326Z</time></trkpt><trkpt lat="39.528995" lon="8.5185467"><ele>223.99999999999997</ele><time>2026-04-21T11:16:38.325Z</time></trkpt><trkpt lat="39.5289483" lon="8.51865"><ele>224.0</ele><time>2026-04-21T11:16:39.326Z</time></trkpt><trkpt lat="39.5289067" lon="8.5187517"><ele>224.0</ele><time>2026-04-21T11:16:40.325Z</time></trkpt><trkpt lat="39.52887" lon="8.518835"><ele>227.0</ele><time>2026-04-21T11:16:41.326Z</time></trkpt><trkpt lat="39.5288283" lon="8.5188983"><ele>230.0</ele><time>2026-04-21T11:16:42.326Z</time></trkpt><trkpt lat="39.5286133" lon="8.518935"><ele>233.0</ele><time>2026-04-21T11:16:45.326Z</time></trkpt><trkpt lat="39.52852" lon="8.5188917"><ele>236.0</ele><time>2026-04-21T11:16:46.326Z</time></trkpt><trkpt lat="39.5284283" lon="8.518835"><ele>238.25</ele><time>2026-04-21T11:16:47.325Z</time></trkpt><trkpt lat="39.5283383" lon="8.5187633"><ele>240.5</ele><time>2026-04-21T11:16:48.326Z</time></trkpt><trkpt lat="39.52826" lon="8.5186817"><ele>242.75</ele><time>2026-04-21T11:16:49.325Z</time></trkpt><trkpt lat="39.5281817" lon="8.5186"><ele>245.0</ele><time>2026-04-21T11:16:50.326Z</time></trkpt><trkpt lat="39.528005" lon="8.5184517"><ele>243.0</ele><time>2026-04-21T11:16:52.325Z</time></trkpt><trkpt lat="39.5279233" lon="8.51838"><ele>241.0</ele><time>2026-04-21T11:16:53.326Z</time></trkpt><trkpt lat="39.5278317" lon="8.5183217"><ele>239.0</ele><time>2026-04-21T11:16:54.325Z</time></trkpt><trkpt lat="39.52752" lon="8.5182483"><ele>239.0</ele><time>2026-04-21T11:16:57.326Z</time></trkpt><trkpt lat="39.5274033" lon="8.5182833"><ele>239.0</ele><time>2026-04-21T11:16:58.326Z</time></trkpt><trkpt lat="39.5272883" lon="8.5183467"><ele>239.0</ele><time>2026-04-21T11:16:59.325Z</time></trkpt><trkpt lat="39.5270633" lon="8.5185433"><ele>241.0</ele><time>2026-04-21T11:17:01.326Z</time></trkpt><trkpt lat="39.5269467" lon="8.5186517"><ele>243.0</ele><time>2026-04-21T11:17:02.326Z</time></trkpt><trkpt lat="39.526835" lon="8.5187533"><ele>245.0</ele><time>2026-04-21T11:17:03.326Z</time></trkpt><trkpt lat="39.5267283" lon="8.51885"><ele>247.0</ele><time>2026-04-21T11:17:04.325Z</time></trkpt><trkpt lat="39.526625" lon="8.5189383"><ele>251.0</ele><time>2026-04-21T11:17:05.326Z</time></trkpt><trkpt lat="39.5264217" lon="8.5191033"><ele>255.0</ele><time>2026-04-21T11:17:07.326Z</time></trkpt><trkpt lat="39.5263317" lon="8.5192067"><ele>259.0</ele><time>2026-04-21T11:17:08.326Z</time></trkpt><trkpt lat="39.5262633" lon="8.519325"><ele>260.4</ele><time>2026-04-21T11:17:09.325Z</time></trkpt><trkpt lat="39.52618" lon="8.5195067"><ele>261.79999999999995</ele><time>2026-04-21T11:17:11.325Z</time></trkpt><trkpt lat="39.5261217" lon="8.51955"><ele>263.20000000000005</ele><time>2026-04-21T11:17:12.325Z</time></trkpt><trkpt lat="39.52601" lon="8.5195333"><ele>264.6</ele><time>2026-04-21T11:17:14.325Z</time></trkpt><trkpt lat="39.52596" lon="8.5194767"><ele>266.0</ele><time>2026-04-21T11:17:15.325Z</time></trkpt><trkpt lat="39.5259733" lon="8.5191233"><ele>266.0</ele><time>2026-04-21T11:17:18.324Z</time></trkpt><trkpt lat="39.526025" lon="8.518985"><ele>266.0</ele><time>2026-04-21T11:17:19.325Z</time></trkpt><trkpt lat="39.526065" lon="8.5188433"><ele>266.0</ele><time>2026-04-21T11:17:20.324Z</time></trkpt><trkpt lat="39.5261333" lon="8.51851"><ele>266.8</ele><time>2026-04-21T11:17:22.325Z</time></trkpt><trkpt lat="39.5261683" lon="8.5183467"><ele>267.6</ele><time>2026-04-21T11:17:23.324Z</time></trkpt><trkpt lat="39.5261967" lon="8.5182117"><ele>268.4</ele><time>2026-04-21T11:17:24.325Z</time></trkpt><trkpt lat="39.5262133" lon="8.5180783"><ele>269.2</ele><time>2026-04-21T11:17:25.325Z</time></trkpt><trkpt lat="39.52622" lon="8.5179433"><ele>270.0</ele><time>2026-04-21T11:17:26.324Z</time></trkpt><trkpt lat="39.5262033" lon="8.5175267"><ele>270.0</ele><time>2026-04-21T11:17:29.325Z</time></trkpt><trkpt lat="39.52615" lon="8.5174183"><ele>270.0</ele><time>2026-04-21T11:17:30.324Z</time></trkpt><trkpt lat="39.5260683" lon="8.5173333"><ele>270.0</ele><time>2026-04-21T11:17:31.324Z</time></trkpt><trkpt lat="39.5258533" lon="8.5172867"><ele>270.0</ele><time>2026-04-21T11:17:33.325Z</time></trkpt><trkpt lat="39.5257317" lon="8.5172933"><ele>270.0</ele><time>2026-04-21T11:17:34.325Z</time></trkpt><trkpt lat="39.5256083" lon="8.5173067"><ele>270.0</ele><time>2026-04-21T11:17:35.324Z</time></trkpt><trkpt lat="39.525495" lon="8.5173133"><ele>270.0</ele><time>2026-04-21T11:17:36.325Z</time></trkpt><trkpt lat="39.525395" lon="8.5173"><ele>270.0</ele><time>2026-04-21T11:17:37.325Z</time></trkpt><trkpt lat="39.52517" lon="8.5171483"><ele>270.6</ele><time>2026-04-21T11:17:40.325Z</time></trkpt><trkpt lat="39.5251333" lon="8.5170133"><ele>271.2</ele><time>2026-04-21T11:17:42.325Z</time></trkpt><trkpt lat="39.525245" lon="8.5169"><ele>271.8</ele><time>2026-04-21T11:17:44.325Z</time></trkpt><trkpt lat="39.525325" lon="8.5168533"><ele>272.4</ele><time>2026-04-21T11:17:45.325Z</time></trkpt><trkpt lat="39.5253967" lon="8.5167817"><ele>273.0</ele><time>2026-04-21T11:17:46.325Z</time></trkpt><trkpt lat="39.525465" lon="8.5166783"><ele>273.0</ele><time>2026-04-21T11:17:47.324Z</time></trkpt><trkpt lat="39.5255717" lon="8.51645"><ele>273.0</ele><time>2026-04-21T11:17:49.325Z</time></trkpt><trkpt lat="39.525615" lon="8.5163167"><ele>273.0</ele><time>2026-04-21T11:17:50.325Z</time></trkpt><trkpt lat="39.525665" lon="8.516185"><ele>273.0</ele><time>2026-04-21T11:17:51.325Z</time></trkpt><trkpt lat="39.525705" lon="8.5160517"><ele>274.75</ele><time>2026-04-21T11:17:52.324Z</time></trkpt><trkpt lat="39.5257317" lon="8.515945"><ele>276.5</ele><time>2026-04-21T11:17:53.325Z</time></trkpt><trkpt lat="39.52573" lon="8.5158433"><ele>278.25</ele><time>2026-04-21T11:17:54.324Z</time></trkpt><trkpt lat="39.5257133" lon="8.51573"><ele>280.0</ele><time>2026-04-21T11:17:55.325Z</time></trkpt><trkpt lat="39.5256533" lon="8.5154417"><ele>280.0</ele><time>2026-04-21T11:17:57.325Z</time></trkpt><trkpt lat="39.525615" lon="8.5152733"><ele>280.0</ele><time>2026-04-21T11:17:58.325Z</time></trkpt><trkpt lat="39.52551" lon="8.5147733"><ele>280.0</ele><time>2026-04-21T11:18:01.325Z</time></trkpt><trkpt lat="39.5254667" lon="8.51464"><ele>280.0</ele><time>2026-04-21T11:18:02.324Z</time></trkpt><trkpt lat="39.5254383" lon="8.51452"><ele>280.0</ele><time>2026-04-21T11:18:03.325Z</time></trkpt><trkpt lat="39.525425" lon="8.514285"><ele>280.0</ele><time>2026-04-21T11:18:05.325Z</time></trkpt><trkpt lat="39.5254483" lon="8.5141817"><ele>281.5</ele><time>2026-04-21T11:18:06.325Z</time></trkpt><trkpt lat="39.525485" lon="8.5140967"><ele>283.0</ele><time>2026-04-21T11:18:07.325Z</time></trkpt><trkpt lat="39.5255117" lon="8.514005"><ele>284.5</ele><time>2026-04-21T11:18:08.324Z</time></trkpt><trkpt lat="39.52552" lon="8.5136333"><ele>286.0</ele><time>2026-04-21T11:18:11.325Z</time></trkpt><trkpt lat="39.525535" lon="8.513505"><ele>288.40000000000003</ele><time>2026-04-21T11:18:12.324Z</time></trkpt><trkpt lat="39.5255633" lon="8.5133917"><ele>290.8</ele><time>2026-04-21T11:18:13.324Z</time></trkpt><trkpt lat="39.5255417" lon="8.513185"><ele>293.20000000000005</ele><time>2026-04-21T11:18:15.324Z</time></trkpt><trkpt lat="39.525515" lon="8.5130917"><ele>295.6</ele><time>2026-04-21T11:18:16.324Z</time></trkpt><trkpt lat="39.5254633" lon="8.5130217"><ele>298.0</ele><time>2026-04-21T11:18:17.325Z</time></trkpt><trkpt lat="39.5251717" lon="8.5130067"><ele>299.3333333333333</ele><time>2026-04-21T11:18:21.325Z</time></trkpt><trkpt lat="39.5250667" lon="8.5130617"><ele>300.6666666666667</ele><time>2026-04-21T11:18:22.324Z</time></trkpt><trkpt lat="39.5249517" lon="8.513115"><ele>302.0</ele><time>2026-04-21T11:18:23.325Z</time></trkpt><trkpt lat="39.5247233" lon="8.5131417"><ele>302.0</ele><time>2026-04-21T11:18:25.324Z</time></trkpt><trkpt lat="39.5246267" lon="8.5131233"><ele>302.0</ele><time>2026-04-21T11:18:26.324Z</time></trkpt><trkpt lat="39.52455" lon="8.513095"><ele>302.0</ele><time>2026-04-21T11:18:27.325Z</time></trkpt><trkpt lat="39.5244717" lon="8.5130533"><ele>302.0</ele><time>2026-04-21T11:18:28.324Z</time></trkpt><trkpt lat="39.5244" lon="8.5130433"><ele>302.0</ele><time>2026-04-21T11:18:29.324Z</time></trkpt><trkpt lat="39.524195" lon="8.5132417"><ele>302.0</ele><time>2026-04-21T11:18:32.325Z</time></trkpt><trkpt lat="39.5241683" lon="8.5133917"><ele>302.0</ele><time>2026-04-21T11:18:33.324Z</time></trkpt><trkpt lat="39.5241467" lon="8.5135267"><ele>302.0</ele><time>2026-04-21T11:18:34.325Z</time></trkpt><trkpt lat="39.5240633" lon="8.51376"><ele>302.0</ele><time>2026-04-21T11:18:36.325Z</time></trkpt><trkpt lat="39.52402" lon="8.5138583"><ele>302.0</ele><time>2026-04-21T11:18:37.324Z</time></trkpt><trkpt lat="39.5239667" lon="8.5139333"><ele>302.0</ele><time>2026-04-21T11:18:38.324Z</time></trkpt><trkpt lat="39.5239" lon="8.51398"><ele>302.0</ele><time>2026-04-21T11:18:39.325Z</time></trkpt><trkpt lat="39.5236483" lon="8.51395"><ele>302.0</ele><time>2026-04-21T11:18:42.324Z</time></trkpt><trkpt lat="39.5235683" lon="8.5139517"><ele>296.75</ele><time>2026-04-21T11:18:43.324Z</time></trkpt><trkpt lat="39.5234933" lon="8.5139883"><ele>291.5</ele><time>2026-04-21T11:18:44.324Z</time></trkpt><trkpt lat="39.523435" lon="8.5140717"><ele>286.25</ele><time>2026-04-21T11:18:45.324Z</time></trkpt><trkpt lat="39.5233233" lon="8.5142883"><ele>281.0</ele><time>2026-04-21T11:18:47.324Z</time></trkpt><trkpt lat="39.5232433" lon="8.5143867"><ele>281.0</ele><time>2026-04-21T11:18:48.324Z</time></trkpt><trkpt lat="39.5231367" lon="8.5144733"><ele>281.0</ele><time>2026-04-21T11:18:49.324Z</time></trkpt><trkpt lat="39.5228833" lon="8.5145933"><ele>281.0</ele><time>2026-04-21T11:18:51.325Z</time></trkpt><trkpt lat="39.5227667" lon="8.5146583"><ele>282.5</ele><time>2026-04-21T11:18:52.324Z</time></trkpt><trkpt lat="39.52267" lon="8.5147383"><ele>284.0</ele><time>2026-04-21T11:18:53.324Z</time></trkpt><trkpt lat="39.5225067" lon="8.5148717"><ele>285.5</ele><time>2026-04-21T11:18:55.324Z</time></trkpt><trkpt lat="39.52243" lon="8.51489"><ele>287.0</ele><time>2026-04-21T11:18:56.325Z</time></trkpt><trkpt lat="39.522355" lon="8.5148917"><ele>287.0</ele><time>2026-04-21T11:18:57.324Z</time></trkpt><trkpt lat="39.5222767" lon="8.5148567"><ele>287.0</ele><time>2026-04-21T11:18:58.324Z</time></trkpt><trkpt lat="39.5222117" lon="8.5147917"><ele>287.0</ele><time>2026-04-21T11:18:59.325Z</time></trkpt><trkpt lat="39.52216" lon="8.5146967"><ele>287.0</ele><time>2026-04-21T11:19:00.324Z</time></trkpt><trkpt lat="39.5221317" lon="8.5144517"><ele>287.0</ele><time>2026-04-21T11:19:02.325Z</time></trkpt><trkpt lat="39.5221717" lon="8.5143033"><ele>283.25</ele><time>2026-04-21T11:19:03.324Z</time></trkpt><trkpt lat="39.522235" lon="8.5141483"><ele>279.5</ele><time>2026-04-21T11:19:04.324Z</time></trkpt><trkpt lat="39.5223" lon="8.51401"><ele>275.75</ele><time>2026-04-21T11:19:05.325Z</time></trkpt><trkpt lat="39.5223633" lon="8.5138917"><ele>272.0</ele><time>2026-04-21T11:19:06.325Z</time></trkpt><trkpt lat="39.5224133" lon="8.5137767"><ele>271.0</ele><time>2026-04-21T11:19:07.324Z</time></trkpt><trkpt lat="39.5224433" lon="8.513525"><ele>270.0</ele><time>2026-04-21T11:19:09.324Z</time></trkpt><trkpt lat="39.5224267" lon="8.51338"><ele>269.0</ele><time>2026-04-21T11:19:10.324Z</time></trkpt><trkpt lat="39.52241" lon="8.5132367"><ele>268.0</ele><time>2026-04-21T11:19:11.325Z</time></trkpt><trkpt lat="39.5224533" lon="8.5128"><ele>266.8</ele><time>2026-04-21T11:19:14.325Z</time></trkpt><trkpt lat="39.5224767" lon="8.512675"><ele>265.6</ele><time>2026-04-21T11:19:15.324Z</time></trkpt><trkpt lat="39.522495" lon="8.5125583"><ele>264.4</ele><time>2026-04-21T11:19:16.325Z</time></trkpt><trkpt lat="39.5224917" lon="8.51235"><ele>263.2</ele><time>2026-04-21T11:19:18.324Z</time></trkpt><trkpt lat="39.5224733" lon="8.5122533"><ele>262.0</ele><time>2026-04-21T11:19:19.324Z</time></trkpt><trkpt lat="39.5224433" lon="8.51216"><ele>262.0</ele><time>2026-04-21T11:19:20.325Z</time></trkpt><trkpt lat="39.5223983" lon="8.5120767"><ele>262.0</ele><time>2026-04-21T11:19:21.324Z</time></trkpt><trkpt lat="39.522335" lon="8.5120217"><ele>262.0</ele><time>2026-04-21T11:19:22.324Z</time></trkpt><trkpt lat="39.5220667" lon="8.5119883"><ele>262.0</ele><time>2026-04-21T11:19:25.325Z</time></trkpt><trkpt lat="39.521975" lon="8.5119867"><ele>263.4</ele><time>2026-04-21T11:19:26.324Z</time></trkpt><trkpt lat="39.5218917" lon="8.51197"><ele>264.79999999999995</ele><time>2026-04-21T11:19:27.324Z</time></trkpt><trkpt lat="39.5218233" lon="8.5119483"><ele>266.2</ele><time>2026-04-21T11:19:28.324Z</time></trkpt><trkpt lat="39.5217267" lon="8.5118183"><ele>267.59999999999997</ele><time>2026-04-21T11:19:30.325Z</time></trkpt><trkpt lat="39.5216983" lon="8.511725"><ele>269.0</ele><time>2026-04-21T11:19:31.324Z</time></trkpt><trkpt lat="39.5216983" lon="8.5116167"><ele>269.0</ele><time>2026-04-21T11:19:32.325Z</time></trkpt><trkpt lat="39.521755" lon="8.5113333"><ele>269.0</ele><time>2026-04-21T11:19:35.324Z</time></trkpt><trkpt lat="39.5217467" lon="8.51125"><ele>269.0</ele><time>2026-04-21T11:19:36.325Z</time></trkpt><trkpt lat="39.5216983" lon="8.511125"><ele>269.0</ele><time>2026-04-21T11:19:38.324Z</time></trkpt><trkpt lat="39.5216383" lon="8.5110717"><ele>265.8</ele><time>2026-04-21T11:19:40.325Z</time></trkpt><trkpt lat="39.5215983" lon="8.510955"><ele>262.59999999999997</ele><time>2026-04-21T11:19:50.325Z</time></trkpt><trkpt lat="39.5216" lon="8.510845"><ele>259.4</ele><time>2026-04-21T11:19:51.324Z</time></trkpt><trkpt lat="39.52161" lon="8.5107167"><ele>256.2</ele><time>2026-04-21T11:19:52.324Z</time></trkpt><trkpt lat="39.5216117" lon="8.5105783"><ele>253.0</ele><time>2026-04-21T11:19:53.325Z</time></trkpt><trkpt lat="39.5215917" lon="8.5104317"><ele>246.66666666666666</ele><time>2026-04-21T11:19:54.324Z</time></trkpt><trkpt lat="39.5215533" lon="8.5102967"><ele>240.33333333333331</ele><time>2026-04-21T11:19:55.324Z</time></trkpt><trkpt lat="39.521415" lon="8.5099883"><ele>234.0</ele><time>2026-04-21T11:19:58.324Z</time></trkpt><trkpt lat="39.5213517" lon="8.5099117"><ele>234.0</ele><time>2026-04-21T11:19:59.325Z</time></trkpt><trkpt lat="39.52127" lon="8.5098583"><ele>234.0</ele><time>2026-04-21T11:20:00.324Z</time></trkpt><trkpt lat="39.521175" lon="8.5098517"><ele>234.0</ele><time>2026-04-21T11:20:01.324Z</time></trkpt><trkpt lat="39.5210767" lon="8.5098867"><ele>234.0</ele><time>2026-04-21T11:20:02.324Z</time></trkpt><trkpt lat="39.5209" lon="8.510045"><ele>235.0</ele><time>2026-04-21T11:20:04.325Z</time></trkpt><trkpt lat="39.5208317" lon="8.5101683"><ele>236.0</ele><time>2026-04-21T11:20:05.324Z</time></trkpt><trkpt lat="39.52065" lon="8.5104367"><ele>237.0</ele><time>2026-04-21T11:20:08.324Z</time></trkpt><trkpt lat="39.52057" lon="8.510445"><ele>236.0</ele><time>2026-04-21T11:20:09.324Z</time></trkpt><trkpt lat="39.5204783" lon="8.5104283"><ele>235.0</ele><time>2026-04-21T11:20:10.324Z</time></trkpt><trkpt lat="39.52039" lon="8.510385"><ele>234.0</ele><time>2026-04-21T11:20:11.324Z</time></trkpt><trkpt lat="39.5202033" lon="8.510375"><ele>233.0</ele><time>2026-04-21T11:20:13.325Z</time></trkpt><trkpt lat="39.5201267" lon="8.5104317"><ele>233.00000000000003</ele><time>2026-04-21T11:20:14.324Z</time></trkpt><trkpt lat="39.520075" lon="8.510505"><ele>233.0</ele><time>2026-04-21T11:20:15.324Z</time></trkpt><trkpt lat="39.520045" lon="8.5105917"><ele>233.0</ele><time>2026-04-21T11:20:16.325Z</time></trkpt><trkpt lat="39.519955" lon="8.510605"><ele>233.0</ele><time>2026-04-21T11:20:18.325Z</time></trkpt><trkpt lat="39.5199" lon="8.5104833"><ele>233.00000000000003</ele><time>2026-04-21T11:20:20.325Z</time></trkpt><trkpt lat="39.5199233" lon="8.51038"><ele>233.0</ele><time>2026-04-21T11:20:21.324Z</time></trkpt><trkpt lat="39.5199617" lon="8.5102567"><ele>233.0</ele><time>2026-04-21T11:20:22.325Z</time></trkpt><trkpt lat="39.5199717" lon="8.5101617"><ele>233.0</ele><time>2026-04-21T11:20:23.324Z</time></trkpt><trkpt lat="39.5199633" lon="8.5100783"><ele>233.0</ele><time>2026-04-21T11:20:24.324Z</time></trkpt><trkpt lat="39.519895" lon="8.5099583"><ele>233.0</ele><time>2026-04-21T11:20:26.325Z</time></trkpt><trkpt lat="39.519985" lon="8.5098933"><ele>233.0</ele><time>2026-04-21T11:20:29.324Z</time></trkpt><trkpt lat="39.52009" lon="8.5099267"><ele>233.0</ele><time>2026-04-21T11:20:30.324Z</time></trkpt><trkpt lat="39.5202167" lon="8.5099783"><ele>233.0</ele><time>2026-04-21T11:20:31.324Z</time></trkpt><trkpt lat="39.5203317" lon="8.5100183"><ele>233.0</ele><time>2026-04-21T11:20:32.325Z</time></trkpt><trkpt lat="39.5204217" lon="8.5100467"><ele>233.0</ele><time>2026-04-21T11:20:33.324Z</time></trkpt><trkpt lat="39.520505" lon="8.5100283"><ele>233.0</ele><time>2026-04-21T11:20:34.324Z</time></trkpt><trkpt lat="39.5207317" lon="8.509715"><ele>234.0</ele><time>2026-04-21T11:20:37.325Z</time></trkpt><trkpt lat="39.52081" lon="8.5095883"><ele>235.0</ele><time>2026-04-21T11:20:38.324Z</time></trkpt><trkpt lat="39.520885" lon="8.5094633"><ele>236.0</ele><time>2026-04-21T11:20:39.325Z</time></trkpt><trkpt lat="39.52095" lon="8.5093367"><ele>237.0</ele><time>2026-04-21T11:20:40.325Z</time></trkpt><trkpt lat="39.5210183" lon="8.5092083"><ele>230.0</ele><time>2026-04-21T11:20:41.325Z</time></trkpt><trkpt lat="39.5210967" lon="8.5090867"><ele>223.0</ele><time>2026-04-21T11:20:42.325Z</time></trkpt><trkpt lat="39.5212667" lon="8.50891"><ele>216.0</ele><time>2026-04-21T11:20:44.325Z</time></trkpt><trkpt lat="39.5215417" lon="8.5088633"><ele>214.0</ele><time>2026-04-21T11:20:47.325Z</time></trkpt><trkpt lat="39.521615" lon="8.5089083"><ele>212.0</ele><time>2026-04-21T11:20:48.325Z</time></trkpt><trkpt lat="39.5216767" lon="8.5089933"><ele>210.0</ele><time>2026-04-21T11:20:49.325Z</time></trkpt><trkpt lat="39.5217283" lon="8.5091317"><ele>208.0</ele><time>2026-04-21T11:20:50.324Z</time></trkpt><trkpt lat="39.5218833" lon="8.509435"><ele>208.0</ele><time>2026-04-21T11:20:52.324Z</time></trkpt><trkpt lat="39.521965" lon="8.509575"><ele>208.0</ele><time>2026-04-21T11:20:53.325Z</time></trkpt><trkpt lat="39.5220533" lon="8.5096817"><ele>208.0</ele><time>2026-04-21T11:20:54.325Z</time></trkpt><trkpt lat="39.5221317" lon="8.5097867"><ele>208.0</ele><time>2026-04-21T11:20:55.325Z</time></trkpt><trkpt lat="39.5223633" lon="8.510005"><ele>207.60000000000002</ele><time>2026-04-21T11:20:58.325Z</time></trkpt><trkpt lat="39.5224517" lon="8.5100417"><ele>207.20000000000002</ele><time>2026-04-21T11:20:59.324Z</time></trkpt><trkpt lat="39.5225467" lon="8.51007"><ele>206.8</ele><time>2026-04-21T11:21:00.324Z</time></trkpt><trkpt lat="39.5226417" lon="8.5100883"><ele>206.4</ele><time>2026-04-21T11:21:01.325Z</time></trkpt><trkpt lat="39.522735" lon="8.5101083"><ele>206.0</ele><time>2026-04-21T11:21:02.325Z</time></trkpt><trkpt lat="39.522825" lon="8.5101517"><ele>206.20000000000002</ele><time>2026-04-21T11:21:03.324Z</time></trkpt><trkpt lat="39.5229133" lon="8.5101933"><ele>206.4</ele><time>2026-04-21T11:21:04.324Z</time></trkpt><trkpt lat="39.5230067" lon="8.5102217"><ele>206.6</ele><time>2026-04-21T11:21:05.325Z</time></trkpt><trkpt lat="39.5231017" lon="8.5102333"><ele>206.8</ele><time>2026-04-21T11:21:06.325Z</time></trkpt><trkpt lat="39.523185" lon="8.510225"><ele>207.0</ele><time>2026-04-21T11:21:07.325Z</time></trkpt><trkpt lat="39.523265" lon="8.5101933"><ele>207.0</ele><time>2026-04-21T11:21:08.325Z</time></trkpt><trkpt lat="39.52332" lon="8.5101283"><ele>207.0</ele><time>2026-04-21T11:21:09.324Z</time></trkpt><trkpt lat="39.523345" lon="8.5100383"><ele>207.0</ele><time>2026-04-21T11:21:10.325Z</time></trkpt><trkpt lat="39.5233333" lon="8.5099317"><ele>207.0</ele><time>2026-04-21T11:21:11.324Z</time></trkpt><trkpt lat="39.52317" lon="8.5097467"><ele>207.0</ele><time>2026-04-21T11:21:13.324Z</time></trkpt><trkpt lat="39.5230567" lon="8.5096883"><ele>207.0</ele><time>2026-04-21T11:21:14.325Z</time></trkpt><trkpt lat="39.5229383" lon="8.509645"><ele>207.0</ele><time>2026-04-21T11:21:15.325Z</time></trkpt><trkpt lat="39.52281" lon="8.5096133"><ele>207.0</ele><time>2026-04-21T11:21:16.324Z</time></trkpt><trkpt lat="39.5226983" lon="8.5095683"><ele>207.0</ele><time>2026-04-21T11:21:17.324Z</time></trkpt><trkpt lat="39.5225967" lon="8.5095183"><ele>207.75</ele><time>2026-04-21T11:21:18.325Z</time></trkpt><trkpt lat="39.5225117" lon="8.5094567"><ele>208.5</ele><time>2026-04-21T11:21:19.325Z</time></trkpt><trkpt lat="39.5223583" lon="8.5092633"><ele>209.25</ele><time>2026-04-21T11:21:21.325Z</time></trkpt><trkpt lat="39.522305" lon="8.509115"><ele>210.0</ele><time>2026-04-21T11:21:22.324Z</time></trkpt><trkpt lat="39.52214" lon="8.5085733"><ele>210.0</ele><time>2026-04-21T11:21:25.324Z</time></trkpt><trkpt lat="39.5220733" lon="8.50838"><ele>210.0</ele><time>2026-04-21T11:21:26.325Z</time></trkpt><trkpt lat="39.5219117" lon="8.508015"><ele>203.25</ele><time>2026-04-21T11:21:28.324Z</time></trkpt><trkpt lat="39.52183" lon="8.5078583"><ele>196.5</ele><time>2026-04-21T11:21:29.325Z</time></trkpt><trkpt lat="39.5217633" lon="8.5076767"><ele>189.75</ele><time>2026-04-21T11:21:30.324Z</time></trkpt><trkpt lat="39.5217117" lon="8.50751"><ele>183.0</ele><time>2026-04-21T11:21:31.325Z</time></trkpt><trkpt lat="39.5216633" lon="8.507345"><ele>179.5</ele><time>2026-04-21T11:21:32.324Z</time></trkpt><trkpt lat="39.521555" lon="8.5068417"><ele>176.0</ele><time>2026-04-21T11:21:35.325Z</time></trkpt><trkpt lat="39.5215467" lon="8.5066767"><ele>176.0</ele><time>2026-04-21T11:21:36.325Z</time></trkpt><trkpt lat="39.5215483" lon="8.5065133"><ele>176.0</ele><time>2026-04-21T11:21:37.325Z</time></trkpt><trkpt lat="39.5215367" lon="8.5063733"><ele>176.0</ele><time>2026-04-21T11:21:38.325Z</time></trkpt><trkpt lat="39.5215083" lon="8.5062433"><ele>176.0</ele><time>2026-04-21T11:21:39.325Z</time></trkpt><trkpt lat="39.5214667" lon="8.50613"><ele>176.0</ele><time>2026-04-21T11:21:40.324Z</time></trkpt><trkpt lat="39.521415" lon="8.5060317"><ele>176.75</ele><time>2026-04-21T11:21:41.324Z</time></trkpt><trkpt lat="39.521375" lon="8.505935"><ele>177.5</ele><time>2026-04-21T11:21:42.324Z</time></trkpt><trkpt lat="39.52136" lon="8.5058367"><ele>178.25</ele><time>2026-04-21T11:21:43.325Z</time></trkpt><trkpt lat="39.5213667" lon="8.505715"><ele>179.0</ele><time>2026-04-21T11:21:44.325Z</time></trkpt><trkpt lat="39.5213767" lon="8.50538"><ele>180.33333333333331</ele><time>2026-04-21T11:21:46.324Z</time></trkpt><trkpt lat="39.52134" lon="8.5051817"><ele>181.66666666666666</ele><time>2026-04-21T11:21:47.324Z</time></trkpt><trkpt lat="39.5212767" lon="8.504995"><ele>183.0</ele><time>2026-04-21T11:21:48.325Z</time></trkpt><trkpt lat="39.5211983" lon="8.504825"><ele>180.25</ele><time>2026-04-21T11:21:49.325Z</time></trkpt><trkpt lat="39.5211067" lon="8.50466"><ele>177.5</ele><time>2026-04-21T11:21:50.324Z</time></trkpt><trkpt lat="39.5210233" lon="8.5045017"><ele>174.75</ele><time>2026-04-21T11:21:51.324Z</time></trkpt><trkpt lat="39.5209433" lon="8.50435"><ele>172.0</ele><time>2026-04-21T11:21:52.324Z</time></trkpt><trkpt lat="39.520865" lon="8.5042167"><ele>171.0</ele><time>2026-04-21T11:21:53.324Z</time></trkpt><trkpt lat="39.5208017" lon="8.5041"><ele>170.0</ele><time>2026-04-21T11:21:54.324Z</time></trkpt><trkpt lat="39.5207317" lon="8.5039967"><ele>169.0</ele><time>2026-04-21T11:21:55.325Z</time></trkpt><trkpt lat="39.520645" lon="8.5039333"><ele>168.0</ele><time>2026-04-21T11:21:56.324Z</time></trkpt><trkpt lat="39.520555" lon="8.5039267"><ele>167.0</ele><time>2026-04-21T11:21:57.324Z</time></trkpt><trkpt lat="39.52046" lon="8.5039533"><ele>166.8</ele><time>2026-04-21T11:21:58.324Z</time></trkpt><trkpt lat="39.520375" lon="8.5040133"><ele>166.6</ele><time>2026-04-21T11:21:59.325Z</time></trkpt><trkpt lat="39.5203033" lon="8.50407"><ele>166.4</ele><time>2026-04-21T11:22:00.325Z</time></trkpt><trkpt lat="39.52024" lon="8.5041"><ele>166.20000000000002</ele><time>2026-04-21T11:22:01.325Z</time></trkpt><trkpt lat="39.5201433" lon="8.5040833"><ele>166.0</ele><time>2026-04-21T11:22:03.325Z</time></trkpt><trkpt lat="39.520075" lon="8.5039383"><ele>166.0</ele><time>2026-04-21T11:22:05.325Z</time></trkpt><trkpt lat="39.5200433" lon="8.5038067"><ele>166.0</ele><time>2026-04-21T11:22:06.324Z</time></trkpt><trkpt lat="39.52002" lon="8.5036417"><ele>166.0</ele><time>2026-04-21T11:22:07.325Z</time></trkpt><trkpt lat="39.519995" lon="8.5034467"><ele>166.0</ele><time>2026-04-21T11:22:08.325Z</time></trkpt><trkpt lat="39.5199567" lon="8.5032617"><ele>165.0</ele><time>2026-04-21T11:22:09.325Z</time></trkpt><trkpt lat="39.5199167" lon="8.5031017"><ele>164.0</ele><time>2026-04-21T11:22:10.324Z</time></trkpt><trkpt lat="39.5198933" lon="8.5029533"><ele>163.0</ele><time>2026-04-21T11:22:11.324Z</time></trkpt><trkpt lat="39.5198683" lon="8.5028233"><ele>162.0</ele><time>2026-04-21T11:22:12.325Z</time></trkpt><trkpt lat="39.5198367" lon="8.50271"><ele>161.0</ele><time>2026-04-21T11:22:13.324Z</time></trkpt><trkpt lat="39.5198" lon="8.502605"><ele>160.60000000000002</ele><time>2026-04-21T11:22:14.324Z</time></trkpt><trkpt lat="39.5197533" lon="8.5025133"><ele>160.20000000000002</ele><time>2026-04-21T11:22:15.324Z</time></trkpt><trkpt lat="39.5196933" lon="8.502435"><ele>159.8</ele><time>2026-04-21T11:22:16.325Z</time></trkpt><trkpt lat="39.51957" lon="8.5022983"><ele>159.4</ele><time>2026-04-21T11:22:18.325Z</time></trkpt><trkpt lat="39.5195217" lon="8.502215"><ele>159.0</ele><time>2026-04-21T11:22:19.324Z</time></trkpt><trkpt lat="39.5195117" lon="8.502125"><ele>159.2</ele><time>2026-04-21T11:22:20.325Z</time></trkpt><trkpt lat="39.519545" lon="8.5019883"><ele>159.4</ele><time>2026-04-21T11:22:22.325Z</time></trkpt><trkpt lat="39.5196017" lon="8.5019267"><ele>159.6</ele><time>2026-04-21T11:22:23.324Z</time></trkpt><trkpt lat="39.5196467" lon="8.5018317"><ele>159.8</ele><time>2026-04-21T11:22:24.325Z</time></trkpt><trkpt lat="39.5196683" lon="8.5017283"><ele>160.0</ele><time>2026-04-21T11:22:25.325Z</time></trkpt><trkpt lat="39.5196083" lon="8.50148"><ele>156.8</ele><time>2026-04-21T11:22:27.325Z</time></trkpt><trkpt lat="39.5195333" lon="8.5013717"><ele>153.6</ele><time>2026-04-21T11:22:28.325Z</time></trkpt><trkpt lat="39.5194567" lon="8.50127"><ele>150.4</ele><time>2026-04-21T11:22:29.324Z</time></trkpt><trkpt lat="39.5193867" lon="8.501165"><ele>147.2</ele><time>2026-04-21T11:22:30.324Z</time></trkpt><trkpt lat="39.519345" lon="8.501055"><ele>144.0</ele><time>2026-04-21T11:22:31.325Z</time></trkpt><trkpt lat="39.5193283" lon="8.5009317"><ele>144.0</ele><time>2026-04-21T11:22:32.325Z</time></trkpt><trkpt lat="39.519305" lon="8.5008167"><ele>144.0</ele><time>2026-04-21T11:22:33.324Z</time></trkpt><trkpt lat="39.519265" lon="8.500715"><ele>144.0</ele><time>2026-04-21T11:22:34.325Z</time></trkpt><trkpt lat="39.5192017" lon="8.50062"><ele>144.0</ele><time>2026-04-21T11:22:35.324Z</time></trkpt><trkpt lat="39.5191283" lon="8.5005367"><ele>144.0</ele><time>2026-04-21T11:22:36.325Z</time></trkpt><trkpt lat="39.519035" lon="8.50048"><ele>144.0</ele><time>2026-04-21T11:22:37.324Z</time></trkpt><trkpt lat="39.518935" lon="8.5004617"><ele>144.0</ele><time>2026-04-21T11:22:38.325Z</time></trkpt><trkpt lat="39.5188183" lon="8.5004717"><ele>144.0</ele><time>2026-04-21T11:22:39.325Z</time></trkpt><trkpt lat="39.5187017" lon="8.5004983"><ele>144.0</ele><time>2026-04-21T11:22:40.325Z</time></trkpt><trkpt lat="39.5185967" lon="8.500525"><ele>144.0</ele><time>2026-04-21T11:22:41.324Z</time></trkpt><trkpt lat="39.5185017" lon="8.50053"><ele>144.2</ele><time>2026-04-21T11:22:42.325Z</time></trkpt><trkpt lat="39.51841" lon="8.5005267"><ele>144.4</ele><time>2026-04-21T11:22:43.325Z</time></trkpt><trkpt lat="39.5183217" lon="8.5005067"><ele>144.6</ele><time>2026-04-21T11:22:44.324Z</time></trkpt><trkpt lat="39.518235" lon="8.5004717"><ele>144.8</ele><time>2026-04-21T11:22:45.324Z</time></trkpt><trkpt lat="39.5181517" lon="8.5004117"><ele>145.0</ele><time>2026-04-21T11:22:46.325Z</time></trkpt><trkpt lat="39.517965" lon="8.5000533"><ele>144.5</ele><time>2026-04-21T11:22:49.324Z</time></trkpt><trkpt lat="39.5178817" lon="8.499915"><ele>144.0</ele><time>2026-04-21T11:22:50.324Z</time></trkpt><trkpt lat="39.5177917" lon="8.4997717"><ele>143.5</ele><time>2026-04-21T11:22:51.325Z</time></trkpt><trkpt lat="39.5177" lon="8.4996417"><ele>143.0</ele><time>2026-04-21T11:22:52.324Z</time></trkpt><trkpt lat="39.5176067" lon="8.49951"><ele>140.25</ele><time>2026-04-21T11:22:53.325Z</time></trkpt><trkpt lat="39.51752" lon="8.499395"><ele>137.5</ele><time>2026-04-21T11:22:54.325Z</time></trkpt><trkpt lat="39.5174233" lon="8.4993183"><ele>134.75</ele><time>2026-04-21T11:22:55.325Z</time></trkpt><trkpt lat="39.517305" lon="8.49926"><ele>132.0</ele><time>2026-04-21T11:22:56.325Z</time></trkpt><trkpt lat="39.5171817" lon="8.499225"><ele>131.25</ele><time>2026-04-21T11:22:57.324Z</time></trkpt><trkpt lat="39.5170683" lon="8.49921"><ele>130.5</ele><time>2026-04-21T11:22:58.324Z</time></trkpt><trkpt lat="39.516965" lon="8.4991883"><ele>129.75</ele><time>2026-04-21T11:22:59.323Z</time></trkpt><trkpt lat="39.5168" lon="8.4990717"><ele>129.0</ele><time>2026-04-21T11:23:01.323Z</time></trkpt><trkpt lat="39.5167417" lon="8.4989667"><ele>129.0</ele><time>2026-04-21T11:23:02.324Z</time></trkpt><trkpt lat="39.5167117" lon="8.498835"><ele>129.0</ele><time>2026-04-21T11:23:03.324Z</time></trkpt><trkpt lat="39.5166883" lon="8.4987183"><ele>129.0</ele><time>2026-04-21T11:23:04.323Z</time></trkpt><trkpt lat="39.516635" lon="8.4986183"><ele>129.0</ele><time>2026-04-21T11:23:05.323Z</time></trkpt><trkpt lat="39.5165567" lon="8.49853"><ele>129.0</ele><time>2026-04-21T11:23:06.324Z</time></trkpt><trkpt lat="39.5164483" lon="8.4984583"><ele>128.5</ele><time>2026-04-21T11:23:07.324Z</time></trkpt><trkpt lat="39.5163333" lon="8.49839"><ele>128.0</ele><time>2026-04-21T11:23:08.324Z</time></trkpt><trkpt lat="39.51621" lon="8.498295"><ele>127.5</ele><time>2026-04-21T11:23:09.324Z</time></trkpt><trkpt lat="39.5160967" lon="8.4981783"><ele>127.0</ele><time>2026-04-21T11:23:10.324Z</time></trkpt><trkpt lat="39.5159883" lon="8.4980683"><ele>126.0</ele><time>2026-04-21T11:23:11.324Z</time></trkpt><trkpt lat="39.5158933" lon="8.4979517"><ele>125.0</ele><time>2026-04-21T11:23:12.323Z</time></trkpt><trkpt lat="39.5158333" lon="8.4978383"><ele>124.0</ele><time>2026-04-21T11:23:13.323Z</time></trkpt><trkpt lat="39.5157983" lon="8.497725"><ele>123.0</ele><time>2026-04-21T11:23:14.323Z</time></trkpt><trkpt lat="39.5158233" lon="8.4972967"><ele>122.25</ele><time>2026-04-21T11:23:17.324Z</time></trkpt><trkpt lat="39.5158283" lon="8.4971367"><ele>121.5</ele><time>2026-04-21T11:23:18.324Z</time></trkpt><trkpt lat="39.5158183" lon="8.49697"><ele>120.75</ele><time>2026-04-21T11:23:19.323Z</time></trkpt><trkpt lat="39.5158017" lon="8.496805"><ele>120.0</ele><time>2026-04-21T11:23:20.324Z</time></trkpt><trkpt lat="39.51577" lon="8.4966283"><ele>120.0</ele><time>2026-04-21T11:23:21.323Z</time></trkpt><trkpt lat="39.5157283" lon="8.4964567"><ele>120.0</ele><time>2026-04-21T11:23:22.323Z</time></trkpt><trkpt lat="39.515675" lon="8.4962933"><ele>120.0</ele><time>2026-04-21T11:23:23.324Z</time></trkpt><trkpt lat="39.5156283" lon="8.4961333"><ele>120.0</ele><time>2026-04-21T11:23:24.323Z</time></trkpt><trkpt lat="39.5155767" lon="8.4959633"><ele>121.25</ele><time>2026-04-21T11:23:25.324Z</time></trkpt><trkpt lat="39.51552" lon="8.4957967"><ele>122.5</ele><time>2026-04-21T11:23:26.323Z</time></trkpt><trkpt lat="39.5154767" lon="8.4956317"><ele>123.75</ele><time>2026-04-21T11:23:27.323Z</time></trkpt><trkpt lat="39.51542" lon="8.4954817"><ele>125.0</ele><time>2026-04-21T11:23:28.324Z</time></trkpt><trkpt lat="39.5153667" lon="8.49534"><ele>122.0</ele><time>2026-04-21T11:23:29.324Z</time></trkpt><trkpt lat="39.51531" lon="8.4951983"><ele>119.0</ele><time>2026-04-21T11:23:30.324Z</time></trkpt><trkpt lat="39.5152633" lon="8.4950683"><ele>116.0</ele><time>2026-04-21T11:23:31.324Z</time></trkpt><trkpt lat="39.5152133" lon="8.4949433"><ele>113.0</ele><time>2026-04-21T11:23:32.324Z</time></trkpt><trkpt lat="39.515165" lon="8.4948217"><ele>110.0</ele><time>2026-04-21T11:23:33.323Z</time></trkpt><trkpt lat="39.515115" lon="8.4947"><ele>109.6</ele><time>2026-04-21T11:23:34.323Z</time></trkpt><trkpt lat="39.5150633" lon="8.4945783"><ele>109.2</ele><time>2026-04-21T11:23:35.324Z</time></trkpt><trkpt lat="39.5150167" lon="8.4944583"><ele>108.80000000000001</ele><time>2026-04-21T11:23:36.323Z</time></trkpt><trkpt lat="39.5149717" lon="8.49434"><ele>108.4</ele><time>2026-04-21T11:23:37.323Z</time></trkpt><trkpt lat="39.5149533" lon="8.4942117"><ele>108.0</ele><time>2026-04-21T11:23:38.324Z</time></trkpt><trkpt lat="39.514965" lon="8.4940933"><ele>108.0</ele><time>2026-04-21T11:23:39.324Z</time></trkpt><trkpt lat="39.5149967" lon="8.4939717"><ele>108.00000000000001</ele><time>2026-04-21T11:23:40.324Z</time></trkpt><trkpt lat="39.5150267" lon="8.4938533"><ele>108.00000000000001</ele><time>2026-04-21T11:23:41.324Z</time></trkpt><trkpt lat="39.515045" lon="8.4937417"><ele>108.0</ele><time>2026-04-21T11:23:42.324Z</time></trkpt><trkpt lat="39.5150333" lon="8.493575"><ele>108.0</ele><time>2026-04-21T11:23:44.324Z</time></trkpt><trkpt lat="39.5149433" lon="8.4935167"><ele>107.2</ele><time>2026-04-21T11:23:46.324Z</time></trkpt><trkpt lat="39.5148267" lon="8.493565"><ele>106.4</ele><time>2026-04-21T11:23:48.324Z</time></trkpt><trkpt lat="39.5147617" lon="8.4935883"><ele>105.60000000000001</ele><time>2026-04-21T11:23:49.324Z</time></trkpt><trkpt lat="39.514655" lon="8.4936183"><ele>104.80000000000001</ele><time>2026-04-21T11:23:51.323Z</time></trkpt><trkpt lat="39.5145783" lon="8.4936267"><ele>104.0</ele><time>2026-04-21T11:23:54.323Z</time></trkpt><trkpt lat="39.5145383" lon="8.493505"><ele>104.0</ele><time>2026-04-21T11:23:57.323Z</time></trkpt><trkpt lat="39.5145283" lon="8.493335"><ele>104.0</ele><time>2026-04-21T11:23:59.323Z</time></trkpt><trkpt lat="39.5145267" lon="8.4932367"><ele>104.0</ele><time>2026-04-21T11:24:00.324Z</time></trkpt><trkpt lat="39.5145433" lon="8.4931283"><ele>104.0</ele><time>2026-04-21T11:24:01.323Z</time></trkpt><trkpt lat="39.5145717" lon="8.49303"><ele>104.0</ele><time>2026-04-21T11:24:02.323Z</time></trkpt><trkpt lat="39.514675" lon="8.492845"><ele>104.2</ele><time>2026-04-21T11:24:04.323Z</time></trkpt><trkpt lat="39.5147367" lon="8.4927583"><ele>104.4</ele><time>2026-04-21T11:24:05.324Z</time></trkpt><trkpt lat="39.5147833" lon="8.4926683"><ele>104.6</ele><time>2026-04-21T11:24:06.324Z</time></trkpt><trkpt lat="39.51482" lon="8.4925783"><ele>104.8</ele><time>2026-04-21T11:24:07.324Z</time></trkpt><trkpt lat="39.5148467" lon="8.4925033"><ele>105.0</ele><time>2026-04-21T11:24:08.323Z</time></trkpt><trkpt lat="39.5149033" lon="8.4923083"><ele>105.0</ele><time>2026-04-21T11:24:11.323Z</time></trkpt><trkpt lat="39.5149383" lon="8.4922233"><ele>105.0</ele><time>2026-04-21T11:24:32.323Z</time></trkpt><trkpt lat="39.514975" lon="8.49211"><ele>105.0</ele><time>2026-04-21T11:24:34.323Z</time></trkpt><trkpt lat="39.5150417" lon="8.4919667"><ele>105.0</ele><time>2026-04-21T11:24:36.324Z</time></trkpt><trkpt lat="39.5150883" lon="8.4918917"><ele>105.0</ele><time>2026-04-21T11:24:37.324Z</time></trkpt><trkpt lat="39.5151417" lon="8.491815"><ele>104.8</ele><time>2026-04-21T11:24:38.324Z</time></trkpt><trkpt lat="39.515205" lon="8.49174"><ele>104.6</ele><time>2026-04-21T11:24:39.323Z</time></trkpt><trkpt lat="39.5152833" lon="8.4916667"><ele>104.4</ele><time>2026-04-21T11:24:40.324Z</time></trkpt><trkpt lat="39.515375" lon="8.4915917"><ele>104.2</ele><time>2026-04-21T11:24:41.323Z</time></trkpt><trkpt lat="39.5154717" lon="8.4915167"><ele>104.0</ele><time>2026-04-21T11:24:42.323Z</time></trkpt><trkpt lat="39.5155617" lon="8.4914383"><ele>104.0</ele><time>2026-04-21T11:24:43.324Z</time></trkpt><trkpt lat="39.51565" lon="8.491375"><ele>104.0</ele><time>2026-04-21T11:24:44.324Z</time></trkpt><trkpt lat="39.5157267" lon="8.4913133"><ele>104.0</ele><time>2026-04-21T11:24:45.323Z</time></trkpt><trkpt lat="39.5157933" lon="8.4912283"><ele>104.0</ele><time>2026-04-21T11:24:46.324Z</time></trkpt><trkpt lat="39.5158467" lon="8.4911217"><ele>104.0</ele><time>2026-04-21T11:24:47.323Z</time></trkpt><trkpt lat="39.5158883" lon="8.4910133"><ele>104.16666666666666</ele><time>2026-04-21T11:24:48.324Z</time></trkpt><trkpt lat="39.515915" lon="8.490895"><ele>104.33333333333333</ele><time>2026-04-21T11:24:49.323Z</time></trkpt><trkpt lat="39.515925" lon="8.4907767"><ele>104.5</ele><time>2026-04-21T11:24:50.324Z</time></trkpt><trkpt lat="39.515925" lon="8.49066"><ele>104.66666666666666</ele><time>2026-04-21T11:24:51.323Z</time></trkpt><trkpt lat="39.51592" lon="8.490545"><ele>104.83333333333333</ele><time>2026-04-21T11:24:52.324Z</time></trkpt><trkpt lat="39.5159183" lon="8.4904433"><ele>105.0</ele><time>2026-04-21T11:24:53.323Z</time></trkpt><trkpt lat="39.5159367" lon="8.49035"><ele>104.2</ele><time>2026-04-21T11:24:54.324Z</time></trkpt><trkpt lat="39.515975" lon="8.49026"><ele>103.4</ele><time>2026-04-21T11:24:55.324Z</time></trkpt><trkpt lat="39.5160217" lon="8.4901833"><ele>102.6</ele><time>2026-04-21T11:24:56.323Z</time></trkpt><trkpt lat="39.5161" lon="8.490115"><ele>101.8</ele><time>2026-04-21T11:24:57.324Z</time></trkpt><trkpt lat="39.5161983" lon="8.4900467"><ele>101.0</ele><time>2026-04-21T11:24:58.323Z</time></trkpt><trkpt lat="39.5162983" lon="8.4899633"><ele>101.0</ele><time>2026-04-21T11:24:59.324Z</time></trkpt><trkpt lat="39.5164117" lon="8.4899"><ele>101.0</ele><time>2026-04-21T11:25:00.323Z</time></trkpt><trkpt lat="39.5165217" lon="8.4898483"><ele>101.0</ele><time>2026-04-21T11:25:01.324Z</time></trkpt><trkpt lat="39.5166283" lon="8.489805"><ele>101.0</ele><time>2026-04-21T11:25:02.324Z</time></trkpt><trkpt lat="39.5167367" lon="8.489775"><ele>101.0</ele><time>2026-04-21T11:25:03.324Z</time></trkpt><trkpt lat="39.5168383" lon="8.4897467"><ele>101.0</ele><time>2026-04-21T11:25:04.324Z</time></trkpt><trkpt lat="39.5169283" lon="8.48972"><ele>101.0</ele><time>2026-04-21T11:25:05.324Z</time></trkpt><trkpt lat="39.5170117" lon="8.4896867"><ele>101.0</ele><time>2026-04-21T11:25:06.324Z</time></trkpt><trkpt lat="39.517085" lon="8.4896233"><ele>101.0</ele><time>2026-04-21T11:25:07.323Z</time></trkpt><trkpt lat="39.5171433" lon="8.4895417"><ele>99.8</ele><time>2026-04-21T11:25:08.324Z</time></trkpt><trkpt lat="39.51719" lon="8.4894283"><ele>98.6</ele><time>2026-04-21T11:25:09.324Z</time></trkpt><trkpt lat="39.5172333" lon="8.4893"><ele>97.4</ele><time>2026-04-21T11:25:10.323Z</time></trkpt><trkpt lat="39.5172733" lon="8.4891717"><ele>96.2</ele><time>2026-04-21T11:25:11.324Z</time></trkpt><trkpt lat="39.51731" lon="8.4890583"><ele>95.0</ele><time>2026-04-21T11:25:12.324Z</time></trkpt><trkpt lat="39.5173467" lon="8.488955"><ele>95.0</ele><time>2026-04-21T11:25:13.324Z</time></trkpt><trkpt lat="39.5174083" lon="8.4888567"><ele>95.0</ele><time>2026-04-21T11:25:14.323Z</time></trkpt><trkpt lat="39.5174717" lon="8.48877"><ele>95.0</ele><time>2026-04-21T11:25:15.324Z</time></trkpt><trkpt lat="39.5175417" lon="8.488675"><ele>95.0</ele><time>2026-04-21T11:25:16.323Z</time></trkpt><trkpt lat="39.5176067" lon="8.488575"><ele>95.0</ele><time>2026-04-21T11:25:17.323Z</time></trkpt><trkpt lat="39.5178067" lon="8.4882683"><ele>90.5</ele><time>2026-04-21T11:25:20.323Z</time></trkpt><trkpt lat="39.5180567" lon="8.48813"><ele>86.0</ele><time>2026-04-21T11:25:23.323Z</time></trkpt><trkpt lat="39.518235" lon="8.48814"><ele>86.0</ele><time>2026-04-21T11:25:25.324Z</time></trkpt><trkpt lat="39.518455" lon="8.4881283"><ele>86.0</ele><time>2026-04-21T11:25:28.324Z</time></trkpt><trkpt lat="39.518535" lon="8.48797"><ele>86.0</ele><time>2026-04-21T11:25:30.323Z</time></trkpt><trkpt lat="39.51851" lon="8.4875617"><ele>90.0</ele><time>2026-04-21T11:25:33.323Z</time></trkpt><trkpt lat="39.5184833" lon="8.4872933"><ele>94.0</ele><time>2026-04-21T11:25:35.324Z</time></trkpt><trkpt lat="39.5184717" lon="8.4869133"><ele>94.0</ele><time>2026-04-21T11:25:38.324Z</time></trkpt><trkpt lat="39.5185167" lon="8.4865467"><ele>94.0</ele><time>2026-04-21T11:25:41.324Z</time></trkpt><trkpt lat="39.5186067" lon="8.4862933"><ele>88.5</ele><time>2026-04-21T11:25:43.323Z</time></trkpt><trkpt lat="39.51879" lon="8.48596"><ele>83.0</ele><time>2026-04-21T11:25:46.323Z</time></trkpt><trkpt lat="39.5189983" lon="8.4857033"><ele>83.0</ele><time>2026-04-21T11:25:49.324Z</time></trkpt><trkpt lat="39.519085" lon="8.485485"><ele>83.0</ele><time>2026-04-21T11:25:51.324Z</time></trkpt><trkpt lat="39.5190817" lon="8.4851133"><ele>81.0</ele><time>2026-04-21T11:25:54.323Z</time></trkpt><trkpt lat="39.518985" lon="8.48464"><ele>79.0</ele><time>2026-04-21T11:25:57.324Z</time></trkpt><trkpt lat="39.5188667" lon="8.48426"><ele>72.0</ele><time>2026-04-21T11:26:00.324Z</time></trkpt><trkpt lat="39.5189167" lon="8.48367"><ele>72.0</ele><time>2026-04-21T11:26:04.323Z</time></trkpt><trkpt lat="39.5189767" lon="8.4832317"><ele>72.0</ele><time>2026-04-21T11:26:07.323Z</time></trkpt><trkpt lat="39.5190533" lon="8.4829933"><ele>77.0</ele><time>2026-04-21T11:26:09.323Z</time></trkpt><trkpt lat="39.51925" lon="8.4827233"><ele>82.0</ele><time>2026-04-21T11:26:12.324Z</time></trkpt><trkpt lat="39.5195317" lon="8.4825583"><ele>76.0</ele><time>2026-04-21T11:26:15.324Z</time></trkpt><trkpt lat="39.5197383" lon="8.4825167"><ele>70.0</ele><time>2026-04-21T11:26:17.323Z</time></trkpt><trkpt lat="39.5200117" lon="8.4825183"><ele>70.0</ele><time>2026-04-21T11:26:20.324Z</time></trkpt><trkpt lat="39.5201083" lon="8.48238"><ele>70.0</ele><time>2026-04-21T11:26:22.323Z</time></trkpt><trkpt lat="39.5200333" lon="8.4820317"><ele>70.0</ele><time>2026-04-21T11:26:25.324Z</time></trkpt><trkpt lat="39.5199183" lon="8.4816817"><ele>70.0</ele><time>2026-04-21T11:26:28.324Z</time></trkpt><trkpt lat="39.5199983" lon="8.48131"><ele>70.0</ele><time>2026-04-21T11:26:31.323Z</time></trkpt><trkpt lat="39.5200983" lon="8.4811283"><ele>69.66666666666666</ele><time>2026-04-21T11:26:33.323Z</time></trkpt><trkpt lat="39.5203183" lon="8.4810133"><ele>69.33333333333333</ele><time>2026-04-21T11:26:36.323Z</time></trkpt><trkpt lat="39.520485" lon="8.480915"><ele>69.0</ele><time>2026-04-21T11:26:38.323Z</time></trkpt><trkpt lat="39.5207317" lon="8.4807"><ele>69.0</ele><time>2026-04-21T11:26:41.323Z</time></trkpt><trkpt lat="39.5208767" lon="8.48039"><ele>69.0</ele><time>2026-04-21T11:26:44.323Z</time></trkpt><trkpt lat="39.5208717" lon="8.4800017"><ele>69.0</ele><time>2026-04-21T11:26:47.324Z</time></trkpt><trkpt lat="39.5207817" lon="8.479735"><ele>69.0</ele><time>2026-04-21T11:26:49.324Z</time></trkpt><trkpt lat="39.5206267" lon="8.4793867"><ele>66.5</ele><time>2026-04-21T11:26:52.323Z</time></trkpt><trkpt lat="39.52056" lon="8.479145"><ele>64.0</ele><time>2026-04-21T11:26:54.323Z</time></trkpt><trkpt lat="39.520555" lon="8.47876"><ele>63.5</ele><time>2026-04-21T11:26:57.324Z</time></trkpt><trkpt lat="39.5206383" lon="8.478395"><ele>63.0</ele><time>2026-04-21T11:27:00.323Z</time></trkpt><trkpt lat="39.5208417" lon="8.477965"><ele>65.5</ele><time>2026-04-21T11:27:03.324Z</time></trkpt><trkpt lat="39.5209967" lon="8.4776017"><ele>68.0</ele><time>2026-04-21T11:27:05.323Z</time></trkpt><trkpt lat="39.5212183" lon="8.47713"><ele>60.5</ele><time>2026-04-21T11:27:08.324Z</time></trkpt><trkpt lat="39.5214633" lon="8.4768"><ele>53.0</ele><time>2026-04-21T11:27:11.324Z</time></trkpt><trkpt lat="39.5216167" lon="8.4766417"><ele>53.0</ele><time>2026-04-21T11:27:13.323Z</time></trkpt><trkpt lat="39.52182" lon="8.4763"><ele>53.0</ele><time>2026-04-21T11:27:16.324Z</time></trkpt><trkpt lat="39.521905" lon="8.476015"><ele>52.333333333333336</ele><time>2026-04-21T11:27:18.323Z</time></trkpt><trkpt lat="39.5220283" lon="8.4757267"><ele>51.66666666666667</ele><time>2026-04-21T11:27:21.323Z</time></trkpt><trkpt lat="39.5221917" lon="8.4756117"><ele>51.0</ele><time>2026-04-21T11:27:23.323Z</time></trkpt><trkpt lat="39.52256" lon="8.4754467"><ele>54.5</ele><time>2026-04-21T11:27:26.323Z</time></trkpt><trkpt lat="39.5229083" lon="8.47534"><ele>58.0</ele><time>2026-04-21T11:27:29.323Z</time></trkpt><trkpt lat="39.523155" lon="8.4753217"><ele>58.0</ele><time>2026-04-21T11:27:31.323Z</time></trkpt><trkpt lat="39.5235483" lon="8.475315"><ele>58.0</ele><time>2026-04-21T11:27:34.324Z</time></trkpt><trkpt lat="39.5238033" lon="8.4752733"><ele>48.0</ele><time>2026-04-21T11:27:36.324Z</time></trkpt><trkpt lat="39.5243183" lon="8.4750833"><ele>45.5</ele><time>2026-04-21T11:27:40.324Z</time></trkpt><trkpt lat="39.5246217" lon="8.47494"><ele>43.0</ele><time>2026-04-21T11:27:43.324Z</time></trkpt><trkpt lat="39.52475" lon="8.4747917"><ele>42.5</ele><time>2026-04-21T11:27:45.324Z</time></trkpt><trkpt lat="39.5248967" lon="8.4743933"><ele>42.0</ele><time>2026-04-21T11:27:48.324Z</time></trkpt><trkpt lat="39.5249567" lon="8.47405"><ele>45.5</ele><time>2026-04-21T11:27:50.324Z</time></trkpt><trkpt lat="39.5250417" lon="8.4736183"><ele>49.0</ele><time>2026-04-21T11:27:53.324Z</time></trkpt><trkpt lat="39.5251167" lon="8.4733983"><ele>49.0</ele><time>2026-04-21T11:27:55.323Z</time></trkpt><trkpt lat="39.5253283" lon="8.4731583"><ele>49.0</ele><time>2026-04-21T11:27:58.324Z</time></trkpt><trkpt lat="39.5255317" lon="8.4729767"><ele>48.5</ele><time>2026-04-21T11:28:00.323Z</time></trkpt><trkpt lat="39.52587" lon="8.4726633"><ele>48.0</ele><time>2026-04-21T11:28:03.324Z</time></trkpt><trkpt lat="39.5261117" lon="8.4724483"><ele>47.5</ele><time>2026-04-21T11:28:05.323Z</time></trkpt><trkpt lat="39.5264183" lon="8.4721633"><ele>47.0</ele><time>2026-04-21T11:28:08.324Z</time></trkpt><trkpt lat="39.5267533" lon="8.4720483"><ele>47.0</ele><time>2026-04-21T11:28:11.324Z</time></trkpt><trkpt lat="39.52701" lon="8.4720067"><ele>47.0</ele><time>2026-04-21T11:28:13.323Z</time></trkpt><trkpt lat="39.52733" lon="8.4718533"><ele>41.0</ele><time>2026-04-21T11:28:16.324Z</time></trkpt><trkpt lat="39.527525" lon="8.47158"><ele>35.0</ele><time>2026-04-21T11:28:19.324Z</time></trkpt><trkpt lat="39.527545" lon="8.4713083"><ele>35.0</ele><time>2026-04-21T11:28:21.324Z</time></trkpt><trkpt lat="39.527505" lon="8.470825"><ele>35.0</ele><time>2026-04-21T11:28:24.323Z</time></trkpt><trkpt lat="39.5275017" lon="8.47045"><ele>36.0</ele><time>2026-04-21T11:28:27.324Z</time></trkpt><trkpt lat="39.52766" lon="8.4701983"><ele>37.0</ele><time>2026-04-21T11:28:30.324Z</time></trkpt><trkpt lat="39.5279217" lon="8.4698633"><ele>35.5</ele><time>2026-04-21T11:28:33.323Z</time></trkpt><trkpt lat="39.528105" lon="8.46964"><ele>34.0</ele><time>2026-04-21T11:28:35.323Z</time></trkpt><trkpt lat="39.5283517" lon="8.4693033"><ele>34.0</ele><time>2026-04-21T11:28:38.323Z</time></trkpt><trkpt lat="39.528545" lon="8.46885"><ele>34.0</ele><time>2026-04-21T11:28:41.324Z</time></trkpt><trkpt lat="39.5286833" lon="8.46854"><ele>33.0</ele><time>2026-04-21T11:28:43.324Z</time></trkpt><trkpt lat="39.5288467" lon="8.4681133"><ele>32.0</ele><time>2026-04-21T11:28:46.322Z</time></trkpt><trkpt lat="39.52909" lon="8.46778"><ele>31.5</ele><time>2026-04-21T11:28:49.323Z</time></trkpt><trkpt lat="39.529335" lon="8.4675117"><ele>31.0</ele><time>2026-04-21T11:28:52.322Z</time></trkpt><trkpt lat="39.5295167" lon="8.4674317"><ele>31.0</ele><time>2026-04-21T11:28:54.323Z</time></trkpt><trkpt lat="39.5297533" lon="8.4673617"><ele>31.0</ele><time>2026-04-21T11:28:57.323Z</time></trkpt><trkpt lat="39.5298617" lon="8.4672667"><ele>31.0</ele><time>2026-04-21T11:28:59.322Z</time></trkpt><trkpt lat="39.5300717" lon="8.466995"><ele>31.5</ele><time>2026-04-21T11:29:02.322Z</time></trkpt><trkpt lat="39.5303033" lon="8.466565"><ele>32.0</ele><time>2026-04-21T11:29:05.322Z</time></trkpt><trkpt lat="39.530525" lon="8.46593"><ele>30.0</ele><time>2026-04-21T11:29:09.322Z</time></trkpt><trkpt lat="39.530625" lon="8.4657067"><ele>28.0</ele><time>2026-04-21T11:29:11.323Z</time></trkpt><trkpt lat="39.5308567" lon="8.4654867"><ele>30.0</ele><time>2026-04-21T11:29:14.322Z</time></trkpt><trkpt lat="39.5311967" lon="8.4653667"><ele>32.0</ele><time>2026-04-21T11:29:17.323Z</time></trkpt><trkpt lat="39.5316133" lon="8.4652617"><ele>32.0</ele><time>2026-04-21T11:29:20.323Z</time></trkpt><trkpt lat="39.5320183" lon="8.4651517"><ele>32.0</ele><time>2026-04-21T11:29:23.323Z</time></trkpt><trkpt lat="39.532265" lon="8.4650817"><ele>28.5</ele><time>2026-04-21T11:29:25.323Z</time></trkpt><trkpt lat="39.5325983" lon="8.4649367"><ele>25.0</ele><time>2026-04-21T11:29:28.323Z</time></trkpt><trkpt lat="39.5329183" lon="8.4647933"><ele>27.5</ele><time>2026-04-21T11:29:31.323Z</time></trkpt><trkpt lat="39.5332283" lon="8.4646"><ele>30.0</ele><time>2026-04-21T11:29:34.323Z</time></trkpt><trkpt lat="39.533505" lon="8.4643933"><ele>30.0</ele><time>2026-04-21T11:29:37.323Z</time></trkpt><trkpt lat="39.5336133" lon="8.464305"><ele>30.0</ele><time>2026-04-21T11:29:38.323Z</time></trkpt><trkpt lat="39.533715" lon="8.4642017"><ele>30.0</ele><time>2026-04-21T11:29:39.323Z</time></trkpt><trkpt lat="39.5338117" lon="8.464105"><ele>30.0</ele><time>2026-04-21T11:29:40.323Z</time></trkpt><trkpt lat="39.5339167" lon="8.4640033"><ele>30.5</ele><time>2026-04-21T11:29:41.322Z</time></trkpt><trkpt lat="39.53403" lon="8.4639083"><ele>31.0</ele><time>2026-04-21T11:29:42.323Z</time></trkpt><trkpt lat="39.5341333" lon="8.4638317"><ele>31.5</ele><time>2026-04-21T11:29:43.323Z</time></trkpt><trkpt lat="39.534235" lon="8.4637583"><ele>32.0</ele><time>2026-04-21T11:29:44.322Z</time></trkpt><trkpt lat="39.5343317" lon="8.4636933"><ele>32.0</ele><time>2026-04-21T11:29:45.322Z</time></trkpt><trkpt lat="39.53442" lon="8.463635"><ele>32.0</ele><time>2026-04-21T11:29:46.322Z</time></trkpt><trkpt lat="39.5345033" lon="8.4635867"><ele>32.0</ele><time>2026-04-21T11:29:47.323Z</time></trkpt><trkpt lat="39.5345867" lon="8.4635217"><ele>32.0</ele><time>2026-04-21T11:29:48.322Z</time></trkpt><trkpt lat="39.534665" lon="8.463435"><ele>32.0</ele><time>2026-04-21T11:29:49.322Z</time></trkpt><trkpt lat="39.5347483" lon="8.4633367"><ele>30.75</ele><time>2026-04-21T11:29:50.322Z</time></trkpt><trkpt lat="39.5348283" lon="8.4632233"><ele>29.5</ele><time>2026-04-21T11:29:51.322Z</time></trkpt><trkpt lat="39.53491" lon="8.463105"><ele>28.25</ele><time>2026-04-21T11:29:52.323Z</time></trkpt><trkpt lat="39.5349983" lon="8.4629783"><ele>27.0</ele><time>2026-04-21T11:29:53.322Z</time></trkpt><trkpt lat="39.5350917" lon="8.4628383"><ele>27.0</ele><time>2026-04-21T11:29:54.323Z</time></trkpt><trkpt lat="39.5351817" lon="8.4626867"><ele>27.0</ele><time>2026-04-21T11:29:55.322Z</time></trkpt><trkpt lat="39.535275" lon="8.4625417"><ele>27.0</ele><time>2026-04-21T11:29:56.323Z</time></trkpt><trkpt lat="39.53536" lon="8.4623933"><ele>27.0</ele><time>2026-04-21T11:29:57.322Z</time></trkpt><trkpt lat="39.5354367" lon="8.462255"><ele>25.0</ele><time>2026-04-21T11:29:58.323Z</time></trkpt><trkpt lat="39.535515" lon="8.462115"><ele>23.0</ele><time>2026-04-21T11:29:59.323Z</time></trkpt><trkpt lat="39.53559" lon="8.46197"><ele>21.0</ele><time>2026-04-21T11:30:00.323Z</time></trkpt><trkpt lat="39.53567" lon="8.46183"><ele>19.0</ele><time>2026-04-21T11:30:01.322Z</time></trkpt><trkpt lat="39.535745" lon="8.461685"><ele>19.0</ele><time>2026-04-21T11:30:02.323Z</time></trkpt><trkpt lat="39.535815" lon="8.4615383"><ele>19.0</ele><time>2026-04-21T11:30:03.322Z</time></trkpt><trkpt lat="39.5358833" lon="8.461395"><ele>19.0</ele><time>2026-04-21T11:30:04.322Z</time></trkpt><trkpt lat="39.5359517" lon="8.461255"><ele>19.0</ele><time>2026-04-21T11:30:05.322Z</time></trkpt><trkpt lat="39.5360133" lon="8.4611167"><ele>19.5</ele><time>2026-04-21T11:30:06.323Z</time></trkpt><trkpt lat="39.5360717" lon="8.460965"><ele>20.0</ele><time>2026-04-21T11:30:07.322Z</time></trkpt><trkpt lat="39.536115" lon="8.4608183"><ele>20.5</ele><time>2026-04-21T11:30:08.322Z</time></trkpt><trkpt lat="39.5361483" lon="8.4606717"><ele>21.0</ele><time>2026-04-21T11:30:09.322Z</time></trkpt><trkpt lat="39.5361733" lon="8.46053"><ele>21.8</ele><time>2026-04-21T11:30:10.322Z</time></trkpt><trkpt lat="39.5362033" lon="8.4603833"><ele>22.6</ele><time>2026-04-21T11:30:11.323Z</time></trkpt><trkpt lat="39.5362317" lon="8.4602433"><ele>23.4</ele><time>2026-04-21T11:30:12.322Z</time></trkpt><trkpt lat="39.5362533" lon="8.4601167"><ele>24.2</ele><time>2026-04-21T11:30:13.323Z</time></trkpt><trkpt lat="39.536265" lon="8.4599667"><ele>25.0</ele><time>2026-04-21T11:30:14.323Z</time></trkpt><trkpt lat="39.536275" lon="8.4598167"><ele>23.4</ele><time>2026-04-21T11:30:15.322Z</time></trkpt><trkpt lat="39.5362767" lon="8.459675"><ele>21.8</ele><time>2026-04-21T11:30:16.322Z</time></trkpt><trkpt lat="39.5362867" lon="8.45954"><ele>20.2</ele><time>2026-04-21T11:30:17.322Z</time></trkpt><trkpt lat="39.5363217" lon="8.4594117"><ele>18.6</ele><time>2026-04-21T11:30:18.323Z</time></trkpt><trkpt lat="39.5363683" lon="8.4592767"><ele>17.0</ele><time>2026-04-21T11:30:19.323Z</time></trkpt><trkpt lat="39.5364233" lon="8.459135"><ele>17.0</ele><time>2026-04-21T11:30:20.322Z</time></trkpt><trkpt lat="39.5364783" lon="8.4589983"><ele>17.0</ele><time>2026-04-21T11:30:21.322Z</time></trkpt><trkpt lat="39.5365317" lon="8.4588667"><ele>17.0</ele><time>2026-04-21T11:30:22.323Z</time></trkpt><trkpt lat="39.53658" lon="8.4587417"><ele>17.0</ele><time>2026-04-21T11:30:23.322Z</time></trkpt><trkpt lat="39.5366317" lon="8.4586267"><ele>17.0</ele><time>2026-04-21T11:30:24.323Z</time></trkpt><trkpt lat="39.5366817" lon="8.458525"><ele>16.666666666666668</ele><time>2026-04-21T11:30:25.322Z</time></trkpt><trkpt lat="39.53673" lon="8.458435"><ele>16.333333333333336</ele><time>2026-04-21T11:30:26.323Z</time></trkpt><trkpt lat="39.5367833" lon="8.458355"><ele>16.0</ele><time>2026-04-21T11:30:27.322Z</time></trkpt><trkpt lat="39.5368467" lon="8.458295"><ele>15.666666666666668</ele><time>2026-04-21T11:30:28.323Z</time></trkpt><trkpt lat="39.536925" lon="8.45825"><ele>15.333333333333334</ele><time>2026-04-21T11:30:29.323Z</time></trkpt><trkpt lat="39.5370067" lon="8.45821"><ele>15.0</ele><time>2026-04-21T11:30:30.322Z</time></trkpt><trkpt lat="39.5371" lon="8.4581817"><ele>15.0</ele><time>2026-04-21T11:30:31.322Z</time></trkpt><trkpt lat="39.5371933" lon="8.4581567"><ele>15.0</ele><time>2026-04-21T11:30:32.323Z</time></trkpt><trkpt lat="39.5372867" lon="8.458125"><ele>15.0</ele><time>2026-04-21T11:30:33.322Z</time></trkpt><trkpt lat="39.53737" lon="8.4581017"><ele>15.0</ele><time>2026-04-21T11:30:34.322Z</time></trkpt><trkpt lat="39.5374533" lon="8.45807"><ele>15.0</ele><time>2026-04-21T11:30:35.322Z</time></trkpt><trkpt lat="39.5375183" lon="8.4580033"><ele>15.0</ele><time>2026-04-21T11:30:36.322Z</time></trkpt><trkpt lat="39.5375833" lon="8.4579183"><ele>14.75</ele><time>2026-04-21T11:30:37.322Z</time></trkpt><trkpt lat="39.537625" lon="8.45778"><ele>14.5</ele><time>2026-04-21T11:30:38.323Z</time></trkpt><trkpt lat="39.5376767" lon="8.4576333"><ele>14.25</ele><time>2026-04-21T11:30:39.323Z</time></trkpt><trkpt lat="39.5377517" lon="8.4574783"><ele>14.0</ele><time>2026-04-21T11:30:40.323Z</time></trkpt><trkpt lat="39.537845" lon="8.4573267"><ele>13.75</ele><time>2026-04-21T11:30:41.323Z</time></trkpt><trkpt lat="39.5379383" lon="8.4571733"><ele>13.5</ele><time>2026-04-21T11:30:42.323Z</time></trkpt><trkpt lat="39.538025" lon="8.4570317"><ele>13.25</ele><time>2026-04-21T11:30:43.323Z</time></trkpt><trkpt lat="39.538105" lon="8.4569"><ele>13.0</ele><time>2026-04-21T11:30:44.323Z</time></trkpt><trkpt lat="39.5381733" lon="8.4567767"><ele>12.4</ele><time>2026-04-21T11:30:45.323Z</time></trkpt><trkpt lat="39.5382317" lon="8.4566633"><ele>11.8</ele><time>2026-04-21T11:30:46.323Z</time></trkpt><trkpt lat="39.5383" lon="8.4565567"><ele>11.2</ele><time>2026-04-21T11:30:47.323Z</time></trkpt><trkpt lat="39.5383633" lon="8.456445"><ele>10.6</ele><time>2026-04-21T11:30:48.323Z</time></trkpt><trkpt lat="39.5384217" lon="8.4563333"><ele>10.0</ele><time>2026-04-21T11:30:49.322Z</time></trkpt><trkpt lat="39.5384767" lon="8.45624"><ele>10.6</ele><time>2026-04-21T11:30:50.323Z</time></trkpt><trkpt lat="39.5385367" lon="8.456135"><ele>11.2</ele><time>2026-04-21T11:30:51.322Z</time></trkpt><trkpt lat="39.5386033" lon="8.4560517"><ele>11.8</ele><time>2026-04-21T11:30:52.323Z</time></trkpt><trkpt lat="39.53867" lon="8.455975"><ele>12.4</ele><time>2026-04-21T11:30:53.322Z</time></trkpt><trkpt lat="39.5387383" lon="8.4558967"><ele>13.0</ele><time>2026-04-21T11:30:54.322Z</time></trkpt><trkpt lat="39.5388117" lon="8.4558167"><ele>12.999999999999998</ele><time>2026-04-21T11:30:55.323Z</time></trkpt><trkpt lat="39.5388733" lon="8.4557383"><ele>13.0</ele><time>2026-04-21T11:30:56.323Z</time></trkpt><trkpt lat="39.5389183" lon="8.455665"><ele>13.0</ele><time>2026-04-21T11:30:57.322Z</time></trkpt><trkpt lat="39.53896" lon="8.4555517"><ele>13.0</ele><time>2026-04-21T11:30:59.323Z</time></trkpt><trkpt lat="39.5389583" lon="8.4554517"><ele>12.999999999999998</ele><time>2026-04-21T11:31:02.323Z</time></trkpt><trkpt lat="39.538955" lon="8.4553683"><ele>13.0</ele><time>2026-04-21T11:31:05.323Z</time></trkpt><trkpt lat="39.5389467" lon="8.455265"><ele>12.666666666666666</ele><time>2026-04-21T11:31:07.322Z</time></trkpt><trkpt lat="39.5389367" lon="8.4551583"><ele>12.333333333333332</ele><time>2026-04-21T11:31:09.322Z</time></trkpt><trkpt lat="39.538955" lon="8.4550567"><ele>12.0</ele><time>2026-04-21T11:31:11.322Z</time></trkpt><trkpt lat="39.5389933" lon="8.4549867"><ele>11.666666666666666</ele><time>2026-04-21T11:31:13.322Z</time></trkpt><trkpt lat="39.53904" lon="8.4549017"><ele>11.333333333333332</ele><time>2026-04-21T11:31:16.323Z</time></trkpt><trkpt lat="39.53907" lon="8.4548033"><ele>11.0</ele><time>2026-04-21T11:31:19.323Z</time></trkpt><trkpt lat="39.53911" lon="8.4547117"><ele>11.5</ele><time>2026-04-21T11:31:22.322Z</time></trkpt><trkpt lat="39.53914" lon="8.4546017"><ele>12.0</ele><time>2026-04-21T11:31:25.323Z</time></trkpt><trkpt lat="39.5391917" lon="8.4544733"><ele>12.5</ele><time>2026-04-21T11:31:27.323Z</time></trkpt><trkpt lat="39.5392283" lon="8.4544067"><ele>13.0</ele><time>2026-04-21T11:31:28.323Z</time></trkpt><trkpt lat="39.5392683" lon="8.454325"><ele>13.500000000000002</ele><time>2026-04-21T11:31:29.322Z</time></trkpt><trkpt lat="39.5393017" lon="8.4542483"><ele>14.0</ele><time>2026-04-21T11:31:30.322Z</time></trkpt><trkpt lat="39.539335" lon="8.4541633"><ele>14.0</ele><time>2026-04-21T11:31:31.323Z</time></trkpt><trkpt lat="39.5393717" lon="8.4540767"><ele>13.999999999999998</ele><time>2026-04-21T11:31:32.323Z</time></trkpt><trkpt lat="39.53941" lon="8.4539967"><ele>13.999999999999998</ele><time>2026-04-21T11:31:33.323Z</time></trkpt><trkpt lat="39.5394733" lon="8.4538667"><ele>14.0</ele><time>2026-04-21T11:31:35.323Z</time></trkpt><trkpt lat="39.5395333" lon="8.453735"><ele>14.0</ele><time>2026-04-21T11:31:37.323Z</time></trkpt><trkpt lat="39.5395983" lon="8.4536233"><ele>12.799999999999999</ele><time>2026-04-21T11:31:39.322Z</time></trkpt><trkpt lat="39.5396517" lon="8.45352"><ele>11.599999999999998</ele><time>2026-04-21T11:31:41.322Z</time></trkpt><trkpt lat="39.5397367" lon="8.4534267"><ele>10.4</ele><time>2026-04-21T11:31:43.323Z</time></trkpt><trkpt lat="39.5398067" lon="8.4533267"><ele>9.2</ele><time>2026-04-21T11:31:45.322Z</time></trkpt><trkpt lat="39.539855" lon="8.453235"><ele>8.0</ele><time>2026-04-21T11:31:47.322Z</time></trkpt><trkpt lat="39.5399067" lon="8.45318"><ele>8.0</ele><time>2026-04-21T11:31:49.323Z</time></trkpt><trkpt lat="39.53997" lon="8.4531167"><ele>8.0</ele><time>2026-04-21T11:31:51.323Z</time></trkpt><trkpt lat="39.5400317" lon="8.4530117"><ele>8.0</ele><time>2026-04-21T11:31:53.322Z</time></trkpt><trkpt lat="39.5400917" lon="8.4528567"><ele>8.0</ele><time>2026-04-21T11:31:55.323Z</time></trkpt><trkpt lat="39.5401183" lon="8.45277"><ele>8.0</ele><time>2026-04-21T11:31:56.323Z</time></trkpt><trkpt lat="39.5401383" lon="8.4526783"><ele>8.0</ele><time>2026-04-21T11:31:57.322Z</time></trkpt><trkpt lat="39.5401533" lon="8.45259"><ele>7.999999999999999</ele><time>2026-04-21T11:31:58.322Z</time></trkpt><trkpt lat="39.5401617" lon="8.4524967"><ele>8.0</ele><time>2026-04-21T11:31:59.323Z</time></trkpt><trkpt lat="39.5401733" lon="8.4524033"><ele>8.0</ele><time>2026-04-21T11:32:00.322Z</time></trkpt><trkpt lat="39.5401833" lon="8.4523117"><ele>7.999999999999999</ele><time>2026-04-21T11:32:01.323Z</time></trkpt><trkpt lat="39.5401967" lon="8.452215"><ele>8.0</ele><time>2026-04-21T11:32:02.323Z</time></trkpt><trkpt lat="39.5402117" lon="8.4521117"><ele>8.0</ele><time>2026-04-21T11:32:03.323Z</time></trkpt><trkpt lat="39.540225" lon="8.45202"><ele>7.6000000000000005</ele><time>2026-04-21T11:32:04.322Z</time></trkpt><trkpt lat="39.54025" lon="8.4518883"><ele>7.200000000000001</ele><time>2026-04-21T11:32:06.323Z</time></trkpt><trkpt lat="39.540315" lon="8.4518017"><ele>6.8</ele><time>2026-04-21T11:32:08.322Z</time></trkpt><trkpt lat="39.5403833" lon="8.4516783"><ele>6.4</ele><time>2026-04-21T11:32:10.322Z</time></trkpt><trkpt lat="39.54042" lon="8.4515933"><ele>6.0</ele><time>2026-04-21T11:32:11.323Z</time></trkpt><trkpt lat="39.5404417" lon="8.4514967"><ele>5.833333333333333</ele><time>2026-04-21T11:32:12.323Z</time></trkpt><trkpt lat="39.540455" lon="8.4514133"><ele>5.666666666666667</ele><time>2026-04-21T11:32:13.322Z</time></trkpt><trkpt lat="39.540485" lon="8.4512767"><ele>5.5</ele><time>2026-04-21T11:32:15.323Z</time></trkpt><trkpt lat="39.5405217" lon="8.451185"><ele>5.333333333333334</ele><time>2026-04-21T11:32:17.323Z</time></trkpt><trkpt lat="39.5405817" lon="8.4511367"><ele>5.166666666666667</ele><time>2026-04-21T11:32:21.322Z</time></trkpt><trkpt lat="39.540675" lon="8.451105"><ele>5.0</ele><time>2026-04-21T11:32:24.322Z</time></trkpt><trkpt lat="39.540755" lon="8.451075"><ele>5.0</ele><time>2026-04-21T11:32:26.323Z</time></trkpt><trkpt lat="39.5408233" lon="8.4510467"><ele>5.0</ele><time>2026-04-21T11:32:28.323Z</time></trkpt><trkpt lat="39.5408867" lon="8.45105"><ele>5.0</ele><time>2026-04-21T11:33:31.323Z</time></trkpt><trkpt lat="39.5409533" lon="8.45104"><ele>5.0</ele><time>2026-04-21T11:33:34.323Z</time></trkpt><trkpt lat="39.5410267" lon="8.4510367"><ele>5.0</ele><time>2026-04-21T11:33:38.322Z</time></trkpt><trkpt lat="39.5411017" lon="8.45102"><ele>5.0</ele><time>2026-04-21T11:33:42.322Z</time></trkpt><trkpt lat="39.5411733" lon="8.4509983"><ele>5.0</ele><time>2026-04-21T11:33:46.323Z</time></trkpt><trkpt lat="39.5412567" lon="8.4508667"><ele>4.6</ele><time>2026-04-21T11:40:58.321Z</time></trkpt><trkpt lat="39.5413121" lon="8.4507947"><ele>4.2</ele><time>2026-04-21T11:41:23.32Z</time></trkpt><trkpt lat="39.5414001" lon="8.4507077"><ele>3.8</ele><time>2026-04-21T11:41:41.32Z</time></trkpt><trkpt lat="39.5414794" lon="8.4506164"><ele>3.4</ele><time>2026-04-21T11:41:58.32Z</time></trkpt><trkpt lat="39.5415628" lon="8.4505153"><ele>3.0</ele><time>2026-04-21T11:42:21.321Z</time></trkpt><trkpt lat="39.541646" lon="8.4504046"><ele>3.0</ele><time>2026-04-21T11:42:35.321Z</time></trkpt><trkpt lat="39.5417228" lon="8.4502967"><ele>3.0</ele><time>2026-04-21T11:42:52.321Z</time></trkpt><trkpt lat="39.5417835" lon="8.4502495"><ele>3.0</ele><time>2026-04-21T11:42:58.321Z</time></trkpt><trkpt lat="39.541821" lon="8.4501668"><ele>3.0</ele><time>2026-04-21T11:43:52.32Z</time></trkpt><trkpt lat="39.5418536" lon="8.4500916"><ele>3.0</ele><time>2026-04-21T11:43:58.32Z</time></trkpt><trkpt lat="39.5418931" lon="8.4500266"><ele>3.0</ele><time>2026-04-21T11:44:04.32Z</time></trkpt><trkpt lat="39.5419259" lon="8.4499558"><ele>3.0</ele><time>2026-04-21T11:44:12.321Z</time></trkpt><trkpt lat="39.5419597" lon="8.4498677"><ele>3.0</ele><time>2026-04-21T11:44:18.321Z</time></trkpt><trkpt lat="39.5418894" lon="8.4498383"><ele>3.0</ele><time>2026-04-21T11:44:35.321Z</time></trkpt><trkpt lat="39.5418522" lon="8.4497105"><ele>3.0</ele><time>2026-04-21T11:45:26.321Z</time></trkpt><trkpt lat="39.5418505" lon="8.449555"><ele>3.0</ele><time>2026-04-21T11:45:43.321Z</time></trkpt><trkpt lat="39.5418464" lon="8.4493976"><ele>3.5999999999999996</ele><time>2026-04-21T11:45:58.32Z</time></trkpt><trkpt lat="39.5418518" lon="8.4492494"><ele>4.199999999999999</ele><time>2026-04-21T11:46:13.32Z</time></trkpt><trkpt lat="39.5418562" lon="8.4491003"><ele>4.8</ele><time>2026-04-21T11:46:38.319Z</time></trkpt><trkpt lat="39.5418436" lon="8.449187"><ele>5.3999999999999995</ele><time>2026-04-21T12:31:12.311Z</time></trkpt><trkpt lat="39.5418469" lon="8.4492822"><ele>6.0</ele><time>2026-04-21T12:31:45.311Z</time></trkpt><trkpt lat="39.541859" lon="8.4494198"><ele>6.0</ele><time>2026-04-21T12:32:04.312Z</time></trkpt><trkpt lat="39.5418583" lon="8.4495566"><ele>6.0</ele><time>2026-04-21T12:32:24.312Z</time></trkpt><trkpt lat="39.5418516" lon="8.4497004"><ele>6.0</ele><time>2026-04-21T12:32:40.31Z</time></trkpt><trkpt lat="39.5418154" lon="8.4498337"><ele>6.0</ele><time>2026-04-21T12:32:57.31Z</time></trkpt><trkpt lat="39.5417689" lon="8.44998"><ele>6.0</ele><time>2026-04-21T12:33:14.311Z</time></trkpt><trkpt lat="39.5417422" lon="8.4501188"><ele>5.5</ele><time>2026-04-21T12:33:30.31Z</time></trkpt><trkpt lat="39.5417254" lon="8.4502564"><ele>5.0</ele><time>2026-04-21T12:33:43.311Z</time></trkpt><trkpt lat="39.541719" lon="8.4503474"><ele>4.5</ele><time>2026-04-21T12:33:48.311Z</time></trkpt><trkpt lat="39.5417038" lon="8.4504294"><ele>4.0</ele><time>2026-04-21T12:33:53.311Z</time></trkpt><trkpt lat="39.5416883" lon="8.4505135"><ele>3.5</ele><time>2026-04-21T12:33:59.311Z</time></trkpt><trkpt lat="39.5417063" lon="8.450602"><ele>3.0</ele><time>2026-04-21T12:34:05.31Z</time></trkpt><trkpt lat="39.5417646" lon="8.4507644"><ele>3.0</ele><time>2026-04-21T12:34:24.311Z</time></trkpt><trkpt lat="39.5418079" lon="8.4508397"><ele>3.0</ele><time>2026-04-21T12:34:30.311Z</time></trkpt><trkpt lat="39.5417485" lon="8.4508931"><ele>3.0</ele><time>2026-04-21T12:35:54.31Z</time></trkpt><trkpt lat="39.5416554" lon="8.4508544"><ele>3.0</ele><time>2026-04-21T12:36:11.31Z</time></trkpt><trkpt lat="39.5415574" lon="8.450813"><ele>3.0</ele><time>2026-04-21T12:36:28.311Z</time></trkpt><trkpt lat="39.5414671" lon="8.4508522"><ele>3.0</ele><time>2026-04-21T12:36:38.311Z</time></trkpt><trkpt lat="39.5414071" lon="8.4508816"><ele>3.0</ele><time>2026-04-21T12:36:43.31Z</time></trkpt><trkpt lat="39.5413438" lon="8.4509222"><ele>3.0</ele><time>2026-04-21T12:36:49.31Z</time></trkpt><trkpt lat="39.5412473" lon="8.4509938"><ele>3.0</ele><time>2026-04-21T12:41:31.308Z</time></trkpt><trkpt lat="39.5411682" lon="8.4509481"><ele>3.0</ele><time>2026-04-21T12:50:08.307Z</time></trkpt><trkpt lat="39.5411032" lon="8.450954"><ele>3.0</ele><time>2026-04-21T12:50:10.306Z</time></trkpt><trkpt lat="39.5410195" lon="8.450972"><ele>3.0</ele><time>2026-04-21T12:50:13.306Z</time></trkpt><trkpt lat="39.5409295" lon="8.4509917"><ele>3.4</ele><time>2026-04-21T12:50:15.307Z</time></trkpt><trkpt lat="39.5408288" lon="8.451023"><ele>3.8</ele><time>2026-04-21T12:50:17.306Z</time></trkpt><trkpt lat="39.5407029" lon="8.4510689"><ele>4.2</ele><time>2026-04-21T12:50:20.306Z</time></trkpt><trkpt lat="39.5406208" lon="8.4511055"><ele>4.6</ele><time>2026-04-21T12:50:22.306Z</time></trkpt><trkpt lat="39.5405525" lon="8.4511445"><ele>5.0</ele><time>2026-04-21T12:50:24.307Z</time></trkpt><trkpt lat="39.5404749" lon="8.4512166"><ele>5.0</ele><time>2026-04-21T12:50:28.306Z</time></trkpt><trkpt lat="39.5404354" lon="8.4513366"><ele>5.0</ele><time>2026-04-21T12:50:31.306Z</time></trkpt><trkpt lat="39.5404055" lon="8.4514775"><ele>5.0</ele><time>2026-04-21T12:50:33.307Z</time></trkpt><trkpt lat="39.5403905" lon="8.4515573"><ele>5.0</ele><time>2026-04-21T12:50:34.307Z</time></trkpt><trkpt lat="39.5403538" lon="8.4516905"><ele>5.0</ele><time>2026-04-21T12:50:36.307Z</time></trkpt><trkpt lat="39.5402988" lon="8.4518012"><ele>5.2</ele><time>2026-04-21T12:50:38.306Z</time></trkpt><trkpt lat="39.5402413" lon="8.4518992"><ele>5.4</ele><time>2026-04-21T12:50:40.306Z</time></trkpt><trkpt lat="39.5401971" lon="8.452036"><ele>5.6</ele><time>2026-04-21T12:50:42.306Z</time></trkpt><trkpt lat="39.540188" lon="8.4521177"><ele>5.8</ele><time>2026-04-21T12:50:43.306Z</time></trkpt><trkpt lat="39.540173" lon="8.4522537"><ele>6.0</ele><time>2026-04-21T12:50:45.306Z</time></trkpt><trkpt lat="39.5401583" lon="8.4523943"><ele>6.5</ele><time>2026-04-21T12:50:47.307Z</time></trkpt><trkpt lat="39.5401322" lon="8.452551"><ele>7.0</ele><time>2026-04-21T12:50:49.307Z</time></trkpt><trkpt lat="39.5401119" lon="8.4527063"><ele>7.5</ele><time>2026-04-21T12:50:51.307Z</time></trkpt><trkpt lat="39.5400882" lon="8.4528407"><ele>8.0</ele><time>2026-04-21T12:50:53.307Z</time></trkpt><trkpt lat="39.5400535" lon="8.452972"><ele>7.999999999999999</ele><time>2026-04-21T12:50:55.306Z</time></trkpt><trkpt lat="39.5399935" lon="8.4530774"><ele>8.0</ele><time>2026-04-21T12:50:57.307Z</time></trkpt><trkpt lat="39.5399137" lon="8.4531505"><ele>8.0</ele><time>2026-04-21T12:50:59.306Z</time></trkpt><trkpt lat="39.5398243" lon="8.4531995"><ele>8.0</ele><time>2026-04-21T12:51:01.307Z</time></trkpt><trkpt lat="39.5397568" lon="8.4532219"><ele>7.999999999999999</ele><time>2026-04-21T12:51:03.306Z</time></trkpt><trkpt lat="39.5396926" lon="8.4532429"><ele>8.0</ele><time>2026-04-21T12:51:05.306Z</time></trkpt><trkpt lat="39.5396108" lon="8.4532797"><ele>9.4</ele><time>2026-04-21T12:51:07.306Z</time></trkpt><trkpt lat="39.5395145" lon="8.4533458"><ele>10.8</ele><time>2026-04-21T12:51:09.306Z</time></trkpt><trkpt lat="39.5394276" lon="8.4534212"><ele>12.2</ele><time>2026-04-21T12:51:11.307Z</time></trkpt><trkpt lat="39.5393507" lon="8.4535193"><ele>13.6</ele><time>2026-04-21T12:51:13.306Z</time></trkpt><trkpt lat="39.5393105" lon="8.4535839"><ele>15.0</ele><time>2026-04-21T12:51:14.306Z</time></trkpt><trkpt lat="39.5392551" lon="8.45372"><ele>14.833333333333334</ele><time>2026-04-21T12:51:16.307Z</time></trkpt><trkpt lat="39.5392177" lon="8.4538681"><ele>14.666666666666668</ele><time>2026-04-21T12:51:18.307Z</time></trkpt><trkpt lat="39.5391978" lon="8.4539476"><ele>14.5</ele><time>2026-04-21T12:51:19.306Z</time></trkpt><trkpt lat="39.539178" lon="8.4540369"><ele>14.333333333333334</ele><time>2026-04-21T12:51:20.306Z</time></trkpt><trkpt lat="39.5391614" lon="8.454132"><ele>14.166666666666668</ele><time>2026-04-21T12:51:21.307Z</time></trkpt><trkpt lat="39.5391426" lon="8.4542281"><ele>14.0</ele><time>2026-04-21T12:51:22.307Z</time></trkpt><trkpt lat="39.5391237" lon="8.4543245"><ele>14.000000000000002</ele><time>2026-04-21T12:51:23.306Z</time></trkpt><trkpt lat="39.539111" lon="8.4544086"><ele>14.0</ele><time>2026-04-21T12:51:24.306Z</time></trkpt><trkpt lat="39.5390727" lon="8.454546"><ele>14.0</ele><time>2026-04-21T12:51:26.307Z</time></trkpt><trkpt lat="39.5390294" lon="8.4546798"><ele>14.0</ele><time>2026-04-21T12:51:28.307Z</time></trkpt><trkpt lat="39.5390146" lon="8.4547621"><ele>14.000000000000002</ele><time>2026-04-21T12:51:29.307Z</time></trkpt><trkpt lat="39.5390029" lon="8.4548453"><ele>14.0</ele><time>2026-04-21T12:51:30.306Z</time></trkpt><trkpt lat="39.5389843" lon="8.4549274"><ele>13.799999999999999</ele><time>2026-04-21T12:51:31.306Z</time></trkpt><trkpt lat="39.5389586" lon="8.4550068"><ele>13.599999999999998</ele><time>2026-04-21T12:51:32.307Z</time></trkpt><trkpt lat="39.5389192" lon="8.4551361"><ele>13.4</ele><time>2026-04-21T12:51:34.306Z</time></trkpt><trkpt lat="39.5389205" lon="8.4552758"><ele>13.2</ele><time>2026-04-21T12:51:36.306Z</time></trkpt><trkpt lat="39.5389272" lon="8.455434"><ele>13.0</ele><time>2026-04-21T12:51:38.306Z</time></trkpt><trkpt lat="39.5389246" lon="8.4555187"><ele>12.999999999999998</ele><time>2026-04-21T12:51:39.307Z</time></trkpt><trkpt lat="39.5388837" lon="8.4556597"><ele>13.0</ele><time>2026-04-21T12:51:41.307Z</time></trkpt><trkpt lat="39.5388365" lon="8.4557251"><ele>13.0</ele><time>2026-04-21T12:51:42.307Z</time></trkpt><trkpt lat="39.538784" lon="8.4557912"><ele>13.0</ele><time>2026-04-21T12:51:43.307Z</time></trkpt><trkpt lat="39.5387335" lon="8.4558593"><ele>12.999999999999998</ele><time>2026-04-21T12:51:44.307Z</time></trkpt><trkpt lat="39.538681" lon="8.4559299"><ele>13.0</ele><time>2026-04-21T12:51:45.306Z</time></trkpt><trkpt lat="39.5386225" lon="8.4559969"><ele>13.600000000000001</ele><time>2026-04-21T12:51:46.307Z</time></trkpt><trkpt lat="39.5385615" lon="8.4560663"><ele>14.200000000000001</ele><time>2026-04-21T12:51:47.307Z</time></trkpt><trkpt lat="39.5384957" lon="8.4561472"><ele>14.8</ele><time>2026-04-21T12:51:48.306Z</time></trkpt><trkpt lat="39.5384427" lon="8.4562401"><ele>15.4</ele><time>2026-04-21T12:51:49.307Z</time></trkpt><trkpt lat="39.5383882" lon="8.4563406"><ele>16.0</ele><time>2026-04-21T12:51:50.306Z</time></trkpt><trkpt lat="39.5383288" lon="8.4564445"><ele>14.8</ele><time>2026-04-21T12:51:51.306Z</time></trkpt><trkpt lat="39.5382691" lon="8.4565495"><ele>13.600000000000001</ele><time>2026-04-21T12:51:52.307Z</time></trkpt><trkpt lat="39.5382104" lon="8.4566493"><ele>12.4</ele><time>2026-04-21T12:51:53.306Z</time></trkpt><trkpt lat="39.5381547" lon="8.4567503"><ele>11.2</ele><time>2026-04-21T12:51:54.307Z</time></trkpt><trkpt lat="39.5381029" lon="8.4568458"><ele>10.0</ele><time>2026-04-21T12:51:55.306Z</time></trkpt><trkpt lat="39.5380511" lon="8.4569491"><ele>10.0</ele><time>2026-04-21T12:51:56.306Z</time></trkpt><trkpt lat="39.5379907" lon="8.4570529"><ele>10.0</ele><time>2026-04-21T12:51:57.307Z</time></trkpt><trkpt lat="39.5379285" lon="8.457154"><ele>10.0</ele><time>2026-04-21T12:51:58.306Z</time></trkpt><trkpt lat="39.5378638" lon="8.4572468"><ele>10.0</ele><time>2026-04-21T12:51:59.306Z</time></trkpt><trkpt lat="39.5377898" lon="8.4573384"><ele>10.0</ele><time>2026-04-21T12:52:00.306Z</time></trkpt><trkpt lat="39.5377205" lon="8.4574297"><ele>10.8</ele><time>2026-04-21T12:52:01.307Z</time></trkpt><trkpt lat="39.5376583" lon="8.4575341"><ele>11.6</ele><time>2026-04-21T12:52:02.307Z</time></trkpt><trkpt lat="39.5376102" lon="8.4576467"><ele>12.399999999999999</ele><time>2026-04-21T12:52:03.307Z</time></trkpt><trkpt lat="39.5375616" lon="8.4577581"><ele>13.2</ele><time>2026-04-21T12:52:04.307Z</time></trkpt><trkpt lat="39.5375298" lon="8.4578538"><ele>14.0</ele><time>2026-04-21T12:52:05.307Z</time></trkpt><trkpt lat="39.5374917" lon="8.4579335"><ele>14.2</ele><time>2026-04-21T12:52:06.307Z</time></trkpt><trkpt lat="39.5374152" lon="8.4580506"><ele>14.399999999999999</ele><time>2026-04-21T12:52:08.307Z</time></trkpt><trkpt lat="39.5373005" lon="8.4581236"><ele>14.6</ele><time>2026-04-21T12:52:10.307Z</time></trkpt><trkpt lat="39.5372335" lon="8.4581482"><ele>14.8</ele><time>2026-04-21T12:52:11.307Z</time></trkpt><trkpt lat="39.5371683" lon="8.4581691"><ele>15.0</ele><time>2026-04-21T12:52:12.307Z</time></trkpt><trkpt lat="39.537101" lon="8.4581884"><ele>16.166666666666668</ele><time>2026-04-21T12:52:13.307Z</time></trkpt><trkpt lat="39.5370295" lon="8.4582082"><ele>17.333333333333332</ele><time>2026-04-21T12:52:14.307Z</time></trkpt><trkpt lat="39.53695" lon="8.4582257"><ele>18.5</ele><time>2026-04-21T12:52:15.306Z</time></trkpt><trkpt lat="39.5368688" lon="8.4582491"><ele>19.666666666666664</ele><time>2026-04-21T12:52:16.307Z</time></trkpt><trkpt lat="39.5367958" lon="8.4582863"><ele>20.833333333333332</ele><time>2026-04-21T12:52:17.307Z</time></trkpt><trkpt lat="39.5367341" lon="8.4583367"><ele>22.0</ele><time>2026-04-21T12:52:18.306Z</time></trkpt><trkpt lat="39.5366855" lon="8.4584081"><ele>22.0</ele><time>2026-04-21T12:52:19.306Z</time></trkpt><trkpt lat="39.5366459" lon="8.458491"><ele>22.0</ele><time>2026-04-21T12:52:20.306Z</time></trkpt><trkpt lat="39.5366022" lon="8.458591"><ele>22.0</ele><time>2026-04-21T12:52:21.306Z</time></trkpt><trkpt lat="39.5365571" lon="8.4586992"><ele>22.0</ele><time>2026-04-21T12:52:22.307Z</time></trkpt><trkpt lat="39.5365086" lon="8.4588261"><ele>22.0</ele><time>2026-04-21T12:52:23.306Z</time></trkpt><trkpt lat="39.5364599" lon="8.4589529"><ele>21.166666666666664</ele><time>2026-04-21T12:52:24.306Z</time></trkpt><trkpt lat="39.5364145" lon="8.4590693"><ele>20.333333333333332</ele><time>2026-04-21T12:52:25.307Z</time></trkpt><trkpt lat="39.536372" lon="8.4591672"><ele>19.5</ele><time>2026-04-21T12:52:26.306Z</time></trkpt><trkpt lat="39.5363352" lon="8.4592548"><ele>18.666666666666668</ele><time>2026-04-21T12:52:27.307Z</time></trkpt><trkpt lat="39.5362978" lon="8.4593539"><ele>17.833333333333336</ele><time>2026-04-21T12:52:28.307Z</time></trkpt><trkpt lat="39.5362611" lon="8.4594607"><ele>17.0</ele><time>2026-04-21T12:52:29.306Z</time></trkpt><trkpt lat="39.5362396" lon="8.4595717"><ele>17.0</ele><time>2026-04-21T12:52:30.306Z</time></trkpt><trkpt lat="39.5362315" lon="8.4596887"><ele>17.0</ele><time>2026-04-21T12:52:31.307Z</time></trkpt><trkpt lat="39.5362295" lon="8.4598119"><ele>17.0</ele><time>2026-04-21T12:52:32.306Z</time></trkpt><trkpt lat="39.5362332" lon="8.459933"><ele>17.0</ele><time>2026-04-21T12:52:33.307Z</time></trkpt><trkpt lat="39.53623" lon="8.4600389"><ele>17.0</ele><time>2026-04-21T12:52:34.307Z</time></trkpt><trkpt lat="39.5362192" lon="8.4601424"><ele>17.0</ele><time>2026-04-21T12:52:35.306Z</time></trkpt><trkpt lat="39.5361996" lon="8.4602428"><ele>17.666666666666668</ele><time>2026-04-21T12:52:36.306Z</time></trkpt><trkpt lat="39.5361772" lon="8.4603395"><ele>18.333333333333336</ele><time>2026-04-21T12:52:37.306Z</time></trkpt><trkpt lat="39.536155" lon="8.4604437"><ele>19.0</ele><time>2026-04-21T12:52:38.306Z</time></trkpt><trkpt lat="39.5361317" lon="8.4605579"><ele>19.666666666666668</ele><time>2026-04-21T12:52:39.306Z</time></trkpt><trkpt lat="39.5361079" lon="8.4606764"><ele>20.333333333333332</ele><time>2026-04-21T12:52:40.306Z</time></trkpt><trkpt lat="39.5360864" lon="8.4607994"><ele>21.0</ele><time>2026-04-21T12:52:41.307Z</time></trkpt><trkpt lat="39.5360573" lon="8.4609082"><ele>21.0</ele><time>2026-04-21T12:52:42.307Z</time></trkpt><trkpt lat="39.5360138" lon="8.4610178"><ele>21.0</ele><time>2026-04-21T12:52:43.307Z</time></trkpt><trkpt lat="39.5359601" lon="8.4611365"><ele>21.0</ele><time>2026-04-21T12:52:44.306Z</time></trkpt><trkpt lat="39.5358953" lon="8.4612646"><ele>21.0</ele><time>2026-04-21T12:52:45.307Z</time></trkpt><trkpt lat="39.5358233" lon="8.4614022"><ele>21.0</ele><time>2026-04-21T12:52:46.307Z</time></trkpt><trkpt lat="39.5357508" lon="8.4615407"><ele>20.5</ele><time>2026-04-21T12:52:47.307Z</time></trkpt><trkpt lat="39.5356806" lon="8.46168"><ele>20.0</ele><time>2026-04-21T12:52:48.307Z</time></trkpt><trkpt lat="39.5356082" lon="8.4618051"><ele>19.5</ele><time>2026-04-21T12:52:49.306Z</time></trkpt><trkpt lat="39.5355389" lon="8.4619276"><ele>19.0</ele><time>2026-04-21T12:52:50.306Z</time></trkpt><trkpt lat="39.535475" lon="8.4620431"><ele>18.25</ele><time>2026-04-21T12:52:51.305Z</time></trkpt><trkpt lat="39.5354132" lon="8.462171"><ele>17.5</ele><time>2026-04-21T12:52:52.306Z</time></trkpt><trkpt lat="39.5353545" lon="8.4622955"><ele>16.75</ele><time>2026-04-21T12:52:53.305Z</time></trkpt><trkpt lat="39.5352904" lon="8.4624171"><ele>16.0</ele><time>2026-04-21T12:52:54.305Z</time></trkpt><trkpt lat="39.5352248" lon="8.4625366"><ele>17.25</ele><time>2026-04-21T12:52:55.306Z</time></trkpt><trkpt lat="39.535158" lon="8.4626534"><ele>18.5</ele><time>2026-04-21T12:52:56.305Z</time></trkpt><trkpt lat="39.5350835" lon="8.462766"><ele>19.75</ele><time>2026-04-21T12:52:57.306Z</time></trkpt><trkpt lat="39.5349993" lon="8.4628869"><ele>21.0</ele><time>2026-04-21T12:52:58.306Z</time></trkpt><trkpt lat="39.5349176" lon="8.46301"><ele>21.0</ele><time>2026-04-21T12:52:59.306Z</time></trkpt><trkpt lat="39.5348453" lon="8.4631191"><ele>21.0</ele><time>2026-04-21T12:53:00.306Z</time></trkpt><trkpt lat="39.5347761" lon="8.4632281"><ele>21.0</ele><time>2026-04-21T12:53:01.306Z</time></trkpt><trkpt lat="39.5347032" lon="8.4633279"><ele>21.0</ele><time>2026-04-21T12:53:02.306Z</time></trkpt><trkpt lat="39.5346329" lon="8.4634161"><ele>21.0</ele><time>2026-04-21T12:53:03.306Z</time></trkpt><trkpt lat="39.5345606" lon="8.4634909"><ele>21.200000000000003</ele><time>2026-04-21T12:53:04.305Z</time></trkpt><trkpt lat="39.5344901" lon="8.4635634"><ele>21.400000000000002</ele><time>2026-04-21T12:53:05.306Z</time></trkpt><trkpt lat="39.5344122" lon="8.4636222"><ele>21.6</ele><time>2026-04-21T12:53:06.306Z</time></trkpt><trkpt lat="39.5343213" lon="8.4636727"><ele>21.8</ele><time>2026-04-21T12:53:07.306Z</time></trkpt><trkpt lat="39.5342283" lon="8.4637245"><ele>22.0</ele><time>2026-04-21T12:53:08.305Z</time></trkpt><trkpt lat="39.5341385" lon="8.4637812"><ele>22.0</ele><time>2026-04-21T12:53:09.306Z</time></trkpt><trkpt lat="39.5340517" lon="8.4638546"><ele>22.0</ele><time>2026-04-21T12:53:10.306Z</time></trkpt><trkpt lat="39.533968" lon="8.4639271"><ele>22.0</ele><time>2026-04-21T12:53:11.305Z</time></trkpt><trkpt lat="39.5338832" lon="8.4640027"><ele>22.0</ele><time>2026-04-21T12:53:12.305Z</time></trkpt><trkpt lat="39.5338" lon="8.4640839"><ele>22.0</ele><time>2026-04-21T12:53:13.305Z</time></trkpt><trkpt lat="39.5337047" lon="8.4641657"><ele>23.6</ele><time>2026-04-21T12:53:14.306Z</time></trkpt><trkpt lat="39.5336092" lon="8.4642446"><ele>25.200000000000003</ele><time>2026-04-21T12:53:15.305Z</time></trkpt><trkpt lat="39.5335241" lon="8.4643214"><ele>26.8</ele><time>2026-04-21T12:53:16.305Z</time></trkpt><trkpt lat="39.5334457" lon="8.4643897"><ele>28.4</ele><time>2026-04-21T12:53:17.306Z</time></trkpt><trkpt lat="39.5333712" lon="8.4644459"><ele>30.0</ele><time>2026-04-21T12:53:18.306Z</time></trkpt><trkpt lat="39.5333" lon="8.4645058"><ele>30.0</ele><time>2026-04-21T12:53:19.305Z</time></trkpt><trkpt lat="39.5332268" lon="8.4645619"><ele>30.0</ele><time>2026-04-21T12:53:20.305Z</time></trkpt><trkpt lat="39.5331485" lon="8.4646164"><ele>30.0</ele><time>2026-04-21T12:53:21.306Z</time></trkpt><trkpt lat="39.5330699" lon="8.464667"><ele>30.0</ele><time>2026-04-21T12:53:22.305Z</time></trkpt><trkpt lat="39.5329917" lon="8.4647113"><ele>30.0</ele><time>2026-04-21T12:53:23.306Z</time></trkpt><trkpt lat="39.5329091" lon="8.4647528"><ele>30.0</ele><time>2026-04-21T12:53:24.306Z</time></trkpt><trkpt lat="39.5328166" lon="8.4647953"><ele>29.0</ele><time>2026-04-21T12:53:25.305Z</time></trkpt><trkpt lat="39.5327211" lon="8.4648445"><ele>28.0</ele><time>2026-04-21T12:53:26.305Z</time></trkpt><trkpt lat="39.5326209" lon="8.4648865"><ele>27.0</ele><time>2026-04-21T12:53:27.306Z</time></trkpt><trkpt lat="39.5325201" lon="8.4649358"><ele>26.0</ele><time>2026-04-21T12:53:28.306Z</time></trkpt><trkpt lat="39.5324107" lon="8.4649847"><ele>25.0</ele><time>2026-04-21T12:53:29.305Z</time></trkpt><trkpt lat="39.5322955" lon="8.4650392"><ele>25.0</ele><time>2026-04-21T12:53:30.305Z</time></trkpt><trkpt lat="39.5321723" lon="8.4650872"><ele>25.0</ele><time>2026-04-21T12:53:31.306Z</time></trkpt><trkpt lat="39.5320476" lon="8.4651327"><ele>25.0</ele><time>2026-04-21T12:53:32.306Z</time></trkpt><trkpt lat="39.5319148" lon="8.4651714"><ele>25.0</ele><time>2026-04-21T12:53:33.306Z</time></trkpt><trkpt lat="39.531772" lon="8.4652044"><ele>26.75</ele><time>2026-04-21T12:53:34.305Z</time></trkpt><trkpt lat="39.5316327" lon="8.4652374"><ele>28.5</ele><time>2026-04-21T12:53:35.306Z</time></trkpt><trkpt lat="39.5315064" lon="8.4652727"><ele>30.25</ele><time>2026-04-21T12:53:36.305Z</time></trkpt><trkpt lat="39.5313793" lon="8.4652995"><ele>32.0</ele><time>2026-04-21T12:53:37.306Z</time></trkpt><trkpt lat="39.5312451" lon="8.4653272"><ele>31.0</ele><time>2026-04-21T12:53:38.305Z</time></trkpt><trkpt lat="39.5311179" lon="8.4653619"><ele>30.0</ele><time>2026-04-21T12:53:39.306Z</time></trkpt><trkpt lat="39.5310056" lon="8.465401"><ele>29.0</ele><time>2026-04-21T12:53:40.305Z</time></trkpt><trkpt lat="39.5309019" lon="8.4654446"><ele>28.0</ele><time>2026-04-21T12:53:41.306Z</time></trkpt><trkpt lat="39.5308106" lon="8.4654993"><ele>28.0</ele><time>2026-04-21T12:53:42.306Z</time></trkpt><trkpt lat="39.5307206" lon="8.4655659"><ele>27.999999999999996</ele><time>2026-04-21T12:53:43.306Z</time></trkpt><trkpt lat="39.5306393" lon="8.4656551"><ele>27.999999999999996</ele><time>2026-04-21T12:53:44.305Z</time></trkpt><trkpt lat="39.5305691" lon="8.465763"><ele>28.0</ele><time>2026-04-21T12:53:45.306Z</time></trkpt><trkpt lat="39.5305105" lon="8.4658869"><ele>28.0</ele><time>2026-04-21T12:53:46.306Z</time></trkpt><trkpt lat="39.5304585" lon="8.4660201"><ele>28.0</ele><time>2026-04-21T12:53:47.306Z</time></trkpt><trkpt lat="39.530408" lon="8.4661613"><ele>28.0</ele><time>2026-04-21T12:53:48.306Z</time></trkpt><trkpt lat="39.530355" lon="8.466314"><ele>28.0</ele><time>2026-04-21T12:53:49.306Z</time></trkpt><trkpt lat="39.5303015" lon="8.4664804"><ele>28.0</ele><time>2026-04-21T12:53:50.306Z</time></trkpt><trkpt lat="39.5302515" lon="8.4666238"><ele>28.599999999999998</ele><time>2026-04-21T12:53:51.306Z</time></trkpt><trkpt lat="39.5302004" lon="8.4667481"><ele>29.199999999999996</ele><time>2026-04-21T12:53:52.305Z</time></trkpt><trkpt lat="39.5301473" lon="8.4668644"><ele>29.8</ele><time>2026-04-21T12:53:53.306Z</time></trkpt><trkpt lat="39.5300835" lon="8.4669772"><ele>30.4</ele><time>2026-04-21T12:53:54.305Z</time></trkpt><trkpt lat="39.5300175" lon="8.4670826"><ele>31.0</ele><time>2026-04-21T12:53:55.306Z</time></trkpt><trkpt lat="39.5299454" lon="8.4671852"><ele>31.0</ele><time>2026-04-21T12:53:56.305Z</time></trkpt><trkpt lat="39.5298764" lon="8.4672794"><ele>31.0</ele><time>2026-04-21T12:53:57.305Z</time></trkpt><trkpt lat="39.5297992" lon="8.4673583"><ele>31.0</ele><time>2026-04-21T12:53:58.306Z</time></trkpt><trkpt lat="39.52972" lon="8.4674176"><ele>31.0</ele><time>2026-04-21T12:53:59.305Z</time></trkpt><trkpt lat="39.5296271" lon="8.4674619"><ele>31.0</ele><time>2026-04-21T12:54:00.306Z</time></trkpt><trkpt lat="39.5295325" lon="8.4674983"><ele>31.0</ele><time>2026-04-21T12:54:01.305Z</time></trkpt><trkpt lat="39.52944" lon="8.4675242"><ele>31.0</ele><time>2026-04-21T12:54:02.305Z</time></trkpt><trkpt lat="39.529343" lon="8.4675393"><ele>31.0</ele><time>2026-04-21T12:54:03.306Z</time></trkpt><trkpt lat="39.5292555" lon="8.4675687"><ele>31.0</ele><time>2026-04-21T12:54:04.306Z</time></trkpt><trkpt lat="39.5291677" lon="8.4676218"><ele>31.0</ele><time>2026-04-21T12:54:05.306Z</time></trkpt><trkpt lat="39.5290793" lon="8.4676986"><ele>31.0</ele><time>2026-04-21T12:54:06.305Z</time></trkpt><trkpt lat="39.5289941" lon="8.4677942"><ele>31.0</ele><time>2026-04-21T12:54:07.306Z</time></trkpt><trkpt lat="39.5289092" lon="8.4679103"><ele>31.0</ele><time>2026-04-21T12:54:08.306Z</time></trkpt><trkpt lat="39.5288316" lon="8.4680331"><ele>31.0</ele><time>2026-04-21T12:54:09.306Z</time></trkpt><trkpt lat="39.5287652" lon="8.4681652"><ele>33.25</ele><time>2026-04-21T12:54:10.306Z</time></trkpt><trkpt lat="39.5287096" lon="8.4683083"><ele>35.5</ele><time>2026-04-21T12:54:11.305Z</time></trkpt><trkpt lat="39.5286574" lon="8.4684565"><ele>37.75</ele><time>2026-04-21T12:54:12.305Z</time></trkpt><trkpt lat="39.5286041" lon="8.4686135"><ele>40.0</ele><time>2026-04-21T12:54:13.306Z</time></trkpt><trkpt lat="39.528544" lon="8.4687675"><ele>38.5</ele><time>2026-04-21T12:54:14.305Z</time></trkpt><trkpt lat="39.5284859" lon="8.4689143"><ele>37.0</ele><time>2026-04-21T12:54:15.305Z</time></trkpt><trkpt lat="39.5284232" lon="8.469059"><ele>35.5</ele><time>2026-04-21T12:54:16.306Z</time></trkpt><trkpt lat="39.5283632" lon="8.469193"><ele>34.0</ele><time>2026-04-21T12:54:17.306Z</time></trkpt><trkpt lat="39.5283081" lon="8.4693136"><ele>34.0</ele><time>2026-04-21T12:54:18.306Z</time></trkpt><trkpt lat="39.5282533" lon="8.4694295"><ele>34.0</ele><time>2026-04-21T12:54:19.306Z</time></trkpt><trkpt lat="39.528191" lon="8.4695334"><ele>34.0</ele><time>2026-04-21T12:54:20.306Z</time></trkpt><trkpt lat="39.5281153" lon="8.4696261"><ele>34.0</ele><time>2026-04-21T12:54:21.306Z</time></trkpt><trkpt lat="39.5280363" lon="8.4697181"><ele>34.0</ele><time>2026-04-21T12:54:22.306Z</time></trkpt><trkpt lat="39.5279481" lon="8.4698119"><ele>34.6</ele><time>2026-04-21T12:54:23.306Z</time></trkpt><trkpt lat="39.5278571" lon="8.4699055"><ele>35.2</ele><time>2026-04-21T12:54:24.306Z</time></trkpt><trkpt lat="39.5277758" lon="8.4699989"><ele>35.800000000000004</ele><time>2026-04-21T12:54:25.306Z</time></trkpt><trkpt lat="39.5277064" lon="8.4701001"><ele>36.4</ele><time>2026-04-21T12:54:26.306Z</time></trkpt><trkpt lat="39.5276431" lon="8.4701977"><ele>37.0</ele><time>2026-04-21T12:54:27.306Z</time></trkpt><trkpt lat="39.5275703" lon="8.4702852"><ele>37.0</ele><time>2026-04-21T12:54:28.306Z</time></trkpt><trkpt lat="39.5275137" lon="8.4703618"><ele>37.0</ele><time>2026-04-21T12:54:29.305Z</time></trkpt><trkpt lat="39.5274635" lon="8.4704284"><ele>37.0</ele><time>2026-04-21T12:54:30.305Z</time></trkpt><trkpt lat="39.5274304" lon="8.4705074"><ele>37.0</ele><time>2026-04-21T12:54:31.305Z</time></trkpt><trkpt lat="39.5274206" lon="8.470609"><ele>37.0</ele><time>2026-04-21T12:54:32.306Z</time></trkpt><trkpt lat="39.5274316" lon="8.4707315"><ele>37.0</ele><time>2026-04-21T12:54:33.306Z</time></trkpt><trkpt lat="39.527449" lon="8.4708597"><ele>36.6</ele><time>2026-04-21T12:54:34.305Z</time></trkpt><trkpt lat="39.5274683" lon="8.4709909"><ele>36.2</ele><time>2026-04-21T12:54:35.306Z</time></trkpt><trkpt lat="39.5274891" lon="8.4711206"><ele>35.8</ele><time>2026-04-21T12:54:36.305Z</time></trkpt><trkpt lat="39.5275077" lon="8.4712352"><ele>35.4</ele><time>2026-04-21T12:54:37.305Z</time></trkpt><trkpt lat="39.5275216" lon="8.4713366"><ele>35.0</ele><time>2026-04-21T12:54:38.306Z</time></trkpt><trkpt lat="39.5275255" lon="8.4714382"><ele>35.0</ele><time>2026-04-21T12:54:39.306Z</time></trkpt><trkpt lat="39.5275056" lon="8.4715387"><ele>35.0</ele><time>2026-04-21T12:54:40.306Z</time></trkpt><trkpt lat="39.5274666" lon="8.4716446"><ele>35.0</ele><time>2026-04-21T12:54:41.306Z</time></trkpt><trkpt lat="39.527413" lon="8.4717379"><ele>35.0</ele><time>2026-04-21T12:54:42.306Z</time></trkpt><trkpt lat="39.5273469" lon="8.4718085"><ele>35.0</ele><time>2026-04-21T12:54:43.305Z</time></trkpt><trkpt lat="39.5272681" lon="8.4718647"><ele>35.0</ele><time>2026-04-21T12:54:44.305Z</time></trkpt><trkpt lat="39.5271821" lon="8.4719106"><ele>35.0</ele><time>2026-04-21T12:54:45.305Z</time></trkpt><trkpt lat="39.527099" lon="8.471959"><ele>35.0</ele><time>2026-04-21T12:54:46.306Z</time></trkpt><trkpt lat="39.527008" lon="8.4720001"><ele>35.0</ele><time>2026-04-21T12:54:47.306Z</time></trkpt><trkpt lat="39.5269129" lon="8.4720336"><ele>35.0</ele><time>2026-04-21T12:54:48.305Z</time></trkpt><trkpt lat="39.5268228" lon="8.4720515"><ele>35.0</ele><time>2026-04-21T12:54:49.305Z</time></trkpt><trkpt lat="39.5267372" lon="8.4720585"><ele>35.6</ele><time>2026-04-21T12:54:50.305Z</time></trkpt><trkpt lat="39.5266485" lon="8.4720673"><ele>36.2</ele><time>2026-04-21T12:54:51.305Z</time></trkpt><trkpt lat="39.5265573" lon="8.4720813"><ele>36.8</ele><time>2026-04-21T12:54:52.306Z</time></trkpt><trkpt lat="39.5264669" lon="8.4721172"><ele>37.4</ele><time>2026-04-21T12:54:53.306Z</time></trkpt><trkpt lat="39.5263845" lon="8.4721631"><ele>38.0</ele><time>2026-04-21T12:54:54.306Z</time></trkpt><trkpt lat="39.5263021" lon="8.4722215"><ele>40.0</ele><time>2026-04-21T12:54:55.306Z</time></trkpt><trkpt lat="39.5262157" lon="8.4722879"><ele>42.0</ele><time>2026-04-21T12:54:56.305Z</time></trkpt><trkpt lat="39.5261374" lon="8.4723736"><ele>44.0</ele><time>2026-04-21T12:54:57.306Z</time></trkpt><trkpt lat="39.5260555" lon="8.4724656"><ele>46.0</ele><time>2026-04-21T12:54:58.305Z</time></trkpt><trkpt lat="39.5259743" lon="8.4725635"><ele>48.0</ele><time>2026-04-21T12:54:59.306Z</time></trkpt><trkpt lat="39.5258854" lon="8.4726568"><ele>48.0</ele><time>2026-04-21T12:55:00.305Z</time></trkpt><trkpt lat="39.5257987" lon="8.4727428"><ele>48.0</ele><time>2026-04-21T12:55:01.305Z</time></trkpt><trkpt lat="39.5257" lon="8.4728225"><ele>48.0</ele><time>2026-04-21T12:55:02.305Z</time></trkpt><trkpt lat="39.5255975" lon="8.4728937"><ele>48.0</ele><time>2026-04-21T12:55:03.305Z</time></trkpt><trkpt lat="39.5254981" lon="8.4729726"><ele>48.2</ele><time>2026-04-21T12:55:04.306Z</time></trkpt><trkpt lat="39.5254071" lon="8.4730564"><ele>48.4</ele><time>2026-04-21T12:55:05.305Z</time></trkpt><trkpt lat="39.5253227" lon="8.4731389"><ele>48.6</ele><time>2026-04-21T12:55:06.305Z</time></trkpt><trkpt lat="39.5252346" lon="8.4732173"><ele>48.800000000000004</ele><time>2026-04-21T12:55:07.305Z</time></trkpt><trkpt lat="39.5251483" lon="8.4732952"><ele>49.0</ele><time>2026-04-21T12:55:08.306Z</time></trkpt><trkpt lat="39.5250759" lon="8.4733715"><ele>49.0</ele><time>2026-04-21T12:55:09.306Z</time></trkpt><trkpt lat="39.5250143" lon="8.4734572"><ele>49.0</ele><time>2026-04-21T12:55:10.306Z</time></trkpt><trkpt lat="39.5249668" lon="8.4735568"><ele>49.0</ele><time>2026-04-21T12:55:11.306Z</time></trkpt><trkpt lat="39.5249324" lon="8.4736714"><ele>49.0</ele><time>2026-04-21T12:55:12.306Z</time></trkpt><trkpt lat="39.5249082" lon="8.4738043"><ele>49.0</ele><time>2026-04-21T12:55:13.305Z</time></trkpt><trkpt lat="39.5248897" lon="8.4739495"><ele>47.6</ele><time>2026-04-21T12:55:14.305Z</time></trkpt><trkpt lat="39.5248734" lon="8.4740827"><ele>46.2</ele><time>2026-04-21T12:55:15.306Z</time></trkpt><trkpt lat="39.5248616" lon="8.4742097"><ele>44.800000000000004</ele><time>2026-04-21T12:55:16.306Z</time></trkpt><trkpt lat="39.5248475" lon="8.4743279"><ele>43.400000000000006</ele><time>2026-04-21T12:55:17.305Z</time></trkpt><trkpt lat="39.5248236" lon="8.474446"><ele>42.0</ele><time>2026-04-21T12:55:18.306Z</time></trkpt><trkpt lat="39.5247896" lon="8.4745655"><ele>42.2</ele><time>2026-04-21T12:55:19.305Z</time></trkpt><trkpt lat="39.524746" lon="8.4746805"><ele>42.400000000000006</ele><time>2026-04-21T12:55:20.306Z</time></trkpt><trkpt lat="39.5246932" lon="8.4747864"><ele>42.599999999999994</ele><time>2026-04-21T12:55:21.306Z</time></trkpt><trkpt lat="39.5246377" lon="8.4748774"><ele>42.8</ele><time>2026-04-21T12:55:22.305Z</time></trkpt><trkpt lat="39.5245635" lon="8.4749499"><ele>43.0</ele><time>2026-04-21T12:55:23.305Z</time></trkpt><trkpt lat="39.5244738" lon="8.4750107"><ele>44.25</ele><time>2026-04-21T12:55:24.305Z</time></trkpt><trkpt lat="39.5243719" lon="8.4750529"><ele>45.5</ele><time>2026-04-21T12:55:25.306Z</time></trkpt><trkpt lat="39.52426" lon="8.4750969"><ele>46.75</ele><time>2026-04-21T12:55:26.306Z</time></trkpt><trkpt lat="39.5241442" lon="8.4751466"><ele>48.0</ele><time>2026-04-21T12:55:27.305Z</time></trkpt><trkpt lat="39.5240242" lon="8.4751894"><ele>48.0</ele><time>2026-04-21T12:55:28.305Z</time></trkpt><trkpt lat="39.5239008" lon="8.4752254"><ele>48.0</ele><time>2026-04-21T12:55:29.305Z</time></trkpt><trkpt lat="39.5237756" lon="8.475257"><ele>48.0</ele><time>2026-04-21T12:55:30.305Z</time></trkpt><trkpt lat="39.5236613" lon="8.4752848"><ele>48.0</ele><time>2026-04-21T12:55:31.305Z</time></trkpt><trkpt lat="39.5235457" lon="8.4753054"><ele>50.5</ele><time>2026-04-21T12:55:32.305Z</time></trkpt><trkpt lat="39.5234287" lon="8.4753168"><ele>53.0</ele><time>2026-04-21T12:55:33.306Z</time></trkpt><trkpt lat="39.5233101" lon="8.4753208"><ele>55.5</ele><time>2026-04-21T12:55:34.305Z</time></trkpt><trkpt lat="39.5231899" lon="8.4753159"><ele>58.0</ele><time>2026-04-21T12:55:35.306Z</time></trkpt><trkpt lat="39.5230665" lon="8.4753101"><ele>58.0</ele><time>2026-04-21T12:55:36.305Z</time></trkpt><trkpt lat="39.5229415" lon="8.4753152"><ele>58.0</ele><time>2026-04-21T12:55:37.305Z</time></trkpt><trkpt lat="39.5228198" lon="8.4753233"><ele>58.0</ele><time>2026-04-21T12:55:38.306Z</time></trkpt><trkpt lat="39.5227121" lon="8.4753472"><ele>58.0</ele><time>2026-04-21T12:55:39.305Z</time></trkpt><trkpt lat="39.5226126" lon="8.4753825"><ele>57.599999999999994</ele><time>2026-04-21T12:55:40.305Z</time></trkpt><trkpt lat="39.5225191" lon="8.4754202"><ele>57.199999999999996</ele><time>2026-04-21T12:55:41.306Z</time></trkpt><trkpt lat="39.5224355" lon="8.4754671"><ele>56.8</ele><time>2026-04-21T12:55:42.305Z</time></trkpt><trkpt lat="39.522356" lon="8.4755126"><ele>56.4</ele><time>2026-04-21T12:55:43.305Z</time></trkpt><trkpt lat="39.5222729" lon="8.4755514"><ele>56.0</ele><time>2026-04-21T12:55:44.305Z</time></trkpt><trkpt lat="39.5221917" lon="8.475592"><ele>56.333333333333336</ele><time>2026-04-21T12:55:45.306Z</time></trkpt><trkpt lat="39.5221133" lon="8.4756302"><ele>56.66666666666667</ele><time>2026-04-21T12:55:46.305Z</time></trkpt><trkpt lat="39.5220429" lon="8.475674"><ele>57.0</ele><time>2026-04-21T12:55:47.306Z</time></trkpt><trkpt lat="39.5219823" lon="8.4757247"><ele>57.33333333333333</ele><time>2026-04-21T12:55:48.306Z</time></trkpt><trkpt lat="39.521926" lon="8.4757937"><ele>57.666666666666664</ele><time>2026-04-21T12:55:49.306Z</time></trkpt><trkpt lat="39.5218756" lon="8.4758786"><ele>58.0</ele><time>2026-04-21T12:55:50.305Z</time></trkpt><trkpt lat="39.5218407" lon="8.475983"><ele>58.0</ele><time>2026-04-21T12:55:51.306Z</time></trkpt><trkpt lat="39.5218146" lon="8.4761044"><ele>58.0</ele><time>2026-04-21T12:55:52.306Z</time></trkpt><trkpt lat="39.5217921" lon="8.4762255"><ele>58.0</ele><time>2026-04-21T12:55:53.306Z</time></trkpt><trkpt lat="39.5217621" lon="8.4763519"><ele>58.0</ele><time>2026-04-21T12:55:54.306Z</time></trkpt><trkpt lat="39.521718" lon="8.4764616"><ele>58.0</ele><time>2026-04-21T12:55:55.306Z</time></trkpt><trkpt lat="39.5216576" lon="8.4765615"><ele>57.0</ele><time>2026-04-21T12:55:56.305Z</time></trkpt><trkpt lat="39.5215813" lon="8.4766476"><ele>56.0</ele><time>2026-04-21T12:55:57.306Z</time></trkpt><trkpt lat="39.5214971" lon="8.4767304"><ele>55.0</ele><time>2026-04-21T12:55:58.306Z</time></trkpt><trkpt lat="39.5214035" lon="8.4768165"><ele>54.0</ele><time>2026-04-21T12:55:59.305Z</time></trkpt><trkpt lat="39.5213109" lon="8.4769149"><ele>53.0</ele><time>2026-04-21T12:56:00.306Z</time></trkpt><trkpt lat="39.5212252" lon="8.4770238"><ele>56.75</ele><time>2026-04-21T12:56:01.306Z</time></trkpt><trkpt lat="39.5211437" lon="8.4771391"><ele>60.5</ele><time>2026-04-21T12:56:02.305Z</time></trkpt><trkpt lat="39.5210654" lon="8.4772604"><ele>64.25</ele><time>2026-04-21T12:56:03.305Z</time></trkpt><trkpt lat="39.5210038" lon="8.4773936"><ele>68.0</ele><time>2026-04-21T12:56:04.305Z</time></trkpt><trkpt lat="39.5209395" lon="8.4775281"><ele>68.0</ele><time>2026-04-21T12:56:05.305Z</time></trkpt><trkpt lat="39.5208853" lon="8.4776639"><ele>68.0</ele><time>2026-04-21T12:56:06.306Z</time></trkpt><trkpt lat="39.5208358" lon="8.4777938"><ele>68.0</ele><time>2026-04-21T12:56:07.306Z</time></trkpt><trkpt lat="39.5207915" lon="8.4779157"><ele>68.0</ele><time>2026-04-21T12:56:08.306Z</time></trkpt><trkpt lat="39.5207415" lon="8.4780315"><ele>68.0</ele><time>2026-04-21T12:56:09.306Z</time></trkpt><trkpt lat="39.5206919" lon="8.4781494"><ele>67.0</ele><time>2026-04-21T12:56:10.306Z</time></trkpt><trkpt lat="39.5206408" lon="8.4782693"><ele>66.0</ele><time>2026-04-21T12:56:11.306Z</time></trkpt><trkpt lat="39.5205937" lon="8.4783879"><ele>65.0</ele><time>2026-04-21T12:56:12.306Z</time></trkpt><trkpt lat="39.5205523" lon="8.4785045"><ele>64.0</ele><time>2026-04-21T12:56:13.306Z</time></trkpt><trkpt lat="39.5205127" lon="8.478619"><ele>63.0</ele><time>2026-04-21T12:56:14.306Z</time></trkpt><trkpt lat="39.5204951" lon="8.4787296"><ele>63.2</ele><time>2026-04-21T12:56:15.305Z</time></trkpt><trkpt lat="39.5204876" lon="8.4788448"><ele>63.4</ele><time>2026-04-21T12:56:16.305Z</time></trkpt><trkpt lat="39.5204916" lon="8.4789652"><ele>63.60000000000001</ele><time>2026-04-21T12:56:17.306Z</time></trkpt><trkpt lat="39.5204997" lon="8.4790953"><ele>63.800000000000004</ele><time>2026-04-21T12:56:18.306Z</time></trkpt><trkpt lat="39.5205201" lon="8.4792185"><ele>64.0</ele><time>2026-04-21T12:56:19.306Z</time></trkpt><trkpt lat="39.5205512" lon="8.4793415"><ele>64.0</ele><time>2026-04-21T12:56:20.305Z</time></trkpt><trkpt lat="39.5205969" lon="8.4794662"><ele>64.0</ele><time>2026-04-21T12:56:21.305Z</time></trkpt><trkpt lat="39.5206502" lon="8.4795896"><ele>64.0</ele><time>2026-04-21T12:56:22.305Z</time></trkpt><trkpt lat="39.5207012" lon="8.4797011"><ele>64.0</ele><time>2026-04-21T12:56:23.305Z</time></trkpt><trkpt lat="39.5207487" lon="8.4798126"><ele>64.0</ele><time>2026-04-21T12:56:24.306Z</time></trkpt><trkpt lat="39.5207863" lon="8.4799187"><ele>64.83333333333333</ele><time>2026-04-21T12:56:25.305Z</time></trkpt><trkpt lat="39.5208195" lon="8.4800215"><ele>65.66666666666666</ele><time>2026-04-21T12:56:26.305Z</time></trkpt><trkpt lat="39.5208497" lon="8.4801263"><ele>66.5</ele><time>2026-04-21T12:56:27.305Z</time></trkpt><trkpt lat="39.520863" lon="8.4802224"><ele>67.33333333333333</ele><time>2026-04-21T12:56:28.306Z</time></trkpt><trkpt lat="39.52087" lon="8.4803093"><ele>68.16666666666667</ele><time>2026-04-21T12:56:29.306Z</time></trkpt><trkpt lat="39.520861" lon="8.4803976"><ele>69.0</ele><time>2026-04-21T12:56:30.305Z</time></trkpt><trkpt lat="39.520825" lon="8.4804921"><ele>69.0</ele><time>2026-04-21T12:56:31.306Z</time></trkpt><trkpt lat="39.5207747" lon="8.4805902"><ele>69.0</ele><time>2026-04-21T12:56:32.306Z</time></trkpt><trkpt lat="39.5207153" lon="8.480678"><ele>69.0</ele><time>2026-04-21T12:56:33.306Z</time></trkpt><trkpt lat="39.5206506" lon="8.4807576"><ele>69.0</ele><time>2026-04-21T12:56:34.306Z</time></trkpt><trkpt lat="39.5205772" lon="8.4808292"><ele>69.0</ele><time>2026-04-21T12:56:35.306Z</time></trkpt><trkpt lat="39.5205025" lon="8.4808898"><ele>69.0</ele><time>2026-04-21T12:56:36.306Z</time></trkpt><trkpt lat="39.5204312" lon="8.4809518"><ele>69.0</ele><time>2026-04-21T12:56:37.305Z</time></trkpt><trkpt lat="39.52036" lon="8.4810088"><ele>69.0</ele><time>2026-04-21T12:56:38.306Z</time></trkpt><trkpt lat="39.520287" lon="8.4810571"><ele>69.0</ele><time>2026-04-21T12:56:39.305Z</time></trkpt><trkpt lat="39.5202111" lon="8.4810866"><ele>69.0</ele><time>2026-04-21T12:56:40.306Z</time></trkpt><trkpt lat="39.5201216" lon="8.4811086"><ele>69.0</ele><time>2026-04-21T12:56:41.306Z</time></trkpt><trkpt lat="39.5200494" lon="8.4811443"><ele>69.2</ele><time>2026-04-21T12:56:42.305Z</time></trkpt><trkpt lat="39.5199856" lon="8.4812149"><ele>69.4</ele><time>2026-04-21T12:56:43.305Z</time></trkpt><trkpt lat="39.5199331" lon="8.4813085"><ele>69.6</ele><time>2026-04-21T12:56:44.306Z</time></trkpt><trkpt lat="39.519901" lon="8.4814249"><ele>69.8</ele><time>2026-04-21T12:56:45.306Z</time></trkpt><trkpt lat="39.5198914" lon="8.4815459"><ele>70.0</ele><time>2026-04-21T12:56:46.305Z</time></trkpt><trkpt lat="39.5198767" lon="8.4816697"><ele>70.0</ele><time>2026-04-21T12:56:47.306Z</time></trkpt><trkpt lat="39.5198692" lon="8.4817918"><ele>70.0</ele><time>2026-04-21T12:56:48.306Z</time></trkpt><trkpt lat="39.5198771" lon="8.4819058"><ele>70.0</ele><time>2026-04-21T12:56:49.306Z</time></trkpt><trkpt lat="39.5199071" lon="8.4820174"><ele>70.0</ele><time>2026-04-21T12:56:50.305Z</time></trkpt><trkpt lat="39.5199582" lon="8.4821272"><ele>70.0</ele><time>2026-04-21T12:56:51.305Z</time></trkpt><trkpt lat="39.5200103" lon="8.4822282"><ele>70.0</ele><time>2026-04-21T12:56:52.305Z</time></trkpt><trkpt lat="39.5200484" lon="8.4823142"><ele>70.0</ele><time>2026-04-21T12:56:53.306Z</time></trkpt><trkpt lat="39.5200577" lon="8.4823964"><ele>70.0</ele><time>2026-04-21T12:56:54.306Z</time></trkpt><trkpt lat="39.5200371" lon="8.4824748"><ele>70.0</ele><time>2026-04-21T12:56:55.306Z</time></trkpt><trkpt lat="39.5199412" lon="8.4825629"><ele>70.0</ele><time>2026-04-21T12:56:57.306Z</time></trkpt><trkpt lat="39.519869" lon="8.4825662"><ele>70.0</ele><time>2026-04-21T12:56:58.306Z</time></trkpt><trkpt lat="39.519782" lon="8.4825547"><ele>70.0</ele><time>2026-04-21T12:56:59.305Z</time></trkpt><trkpt lat="39.519685" lon="8.4825544"><ele>70.0</ele><time>2026-04-21T12:57:00.306Z</time></trkpt><trkpt lat="39.5195843" lon="8.4825677"><ele>70.0</ele><time>2026-04-21T12:57:01.305Z</time></trkpt><trkpt lat="39.5194921" lon="8.4825936"><ele>70.0</ele><time>2026-04-21T12:57:02.306Z</time></trkpt><trkpt lat="39.5194004" lon="8.4826411"><ele>70.0</ele><time>2026-04-21T12:57:03.306Z</time></trkpt><trkpt lat="39.5193105" lon="8.4826909"><ele>70.4</ele><time>2026-04-21T12:57:04.305Z</time></trkpt><trkpt lat="39.5192238" lon="8.4827449"><ele>70.8</ele><time>2026-04-21T12:57:05.305Z</time></trkpt><trkpt lat="39.5191507" lon="8.4828094"><ele>71.2</ele><time>2026-04-21T12:57:06.305Z</time></trkpt><trkpt lat="39.5190797" lon="8.4828773"><ele>71.6</ele><time>2026-04-21T12:57:07.305Z</time></trkpt><trkpt lat="39.519022" lon="8.4829604"><ele>72.0</ele><time>2026-04-21T12:57:08.306Z</time></trkpt><trkpt lat="39.5189721" lon="8.4830627"><ele>72.0</ele><time>2026-04-21T12:57:09.305Z</time></trkpt><trkpt lat="39.5189402" lon="8.4831729"><ele>72.0</ele><time>2026-04-21T12:57:10.305Z</time></trkpt><trkpt lat="39.5189144" lon="8.4832976"><ele>72.0</ele><time>2026-04-21T12:57:11.305Z</time></trkpt><trkpt lat="39.5189033" lon="8.4834281"><ele>72.0</ele><time>2026-04-21T12:57:12.306Z</time></trkpt><trkpt lat="39.5188905" lon="8.4835612"><ele>72.0</ele><time>2026-04-21T12:57:13.305Z</time></trkpt><trkpt lat="39.5188872" lon="8.4836978"><ele>72.6</ele><time>2026-04-21T12:57:14.306Z</time></trkpt><trkpt lat="39.5188785" lon="8.4838389"><ele>73.2</ele><time>2026-04-21T12:57:15.306Z</time></trkpt><trkpt lat="39.5188615" lon="8.483967"><ele>73.8</ele><time>2026-04-21T12:57:16.306Z</time></trkpt><trkpt lat="39.518845" lon="8.484086"><ele>74.4</ele><time>2026-04-21T12:57:17.306Z</time></trkpt><trkpt lat="39.518837" lon="8.4841943"><ele>75.0</ele><time>2026-04-21T12:57:18.305Z</time></trkpt><trkpt lat="39.5188421" lon="8.4843035"><ele>75.0</ele><time>2026-04-21T12:57:19.306Z</time></trkpt><trkpt lat="39.5188665" lon="8.4844163"><ele>75.0</ele><time>2026-04-21T12:57:20.306Z</time></trkpt><trkpt lat="39.5189066" lon="8.4845324"><ele>75.0</ele><time>2026-04-21T12:57:21.306Z</time></trkpt><trkpt lat="39.5189522" lon="8.4846441"><ele>75.0</ele><time>2026-04-21T12:57:22.305Z</time></trkpt><trkpt lat="39.5189813" lon="8.4847613"><ele>75.0</ele><time>2026-04-21T12:57:23.306Z</time></trkpt><trkpt lat="39.5190013" lon="8.4848874"><ele>75.66666666666667</ele><time>2026-04-21T12:57:24.305Z</time></trkpt><trkpt lat="39.5190161" lon="8.4850122"><ele>76.33333333333333</ele><time>2026-04-21T12:57:25.305Z</time></trkpt><trkpt lat="39.5190366" lon="8.4851334"><ele>77.0</ele><time>2026-04-21T12:57:26.306Z</time></trkpt><trkpt lat="39.5190554" lon="8.4852458"><ele>77.66666666666666</ele><time>2026-04-21T12:57:27.305Z</time></trkpt><trkpt lat="39.5190647" lon="8.485343"><ele>78.33333333333333</ele><time>2026-04-21T12:57:28.306Z</time></trkpt><trkpt lat="39.519062" lon="8.4854401"><ele>79.0</ele><time>2026-04-21T12:57:29.306Z</time></trkpt><trkpt lat="39.5190483" lon="8.4855352"><ele>79.66666666666666</ele><time>2026-04-21T12:57:30.306Z</time></trkpt><trkpt lat="39.5190198" lon="8.4856255"><ele>80.33333333333333</ele><time>2026-04-21T12:57:31.305Z</time></trkpt><trkpt lat="39.5189783" lon="8.4857048"><ele>81.0</ele><time>2026-04-21T12:57:32.306Z</time></trkpt><trkpt lat="39.518928" lon="8.4857812"><ele>81.66666666666667</ele><time>2026-04-21T12:57:33.305Z</time></trkpt><trkpt lat="39.5188606" lon="8.4858499"><ele>82.33333333333334</ele><time>2026-04-21T12:57:34.305Z</time></trkpt><trkpt lat="39.5187929" lon="8.4859206"><ele>83.0</ele><time>2026-04-21T12:57:35.306Z</time></trkpt><trkpt lat="39.5187301" lon="8.4859901"><ele>84.83333333333334</ele><time>2026-04-21T12:57:36.305Z</time></trkpt><trkpt lat="39.5186719" lon="8.4860635"><ele>86.66666666666667</ele><time>2026-04-21T12:57:37.306Z</time></trkpt><trkpt lat="39.5186182" lon="8.4861449"><ele>88.5</ele><time>2026-04-21T12:57:38.306Z</time></trkpt><trkpt lat="39.518563" lon="8.4862404"><ele>90.33333333333333</ele><time>2026-04-21T12:57:39.306Z</time></trkpt><trkpt lat="39.5185184" lon="8.4863379"><ele>92.16666666666666</ele><time>2026-04-21T12:57:40.306Z</time></trkpt><trkpt lat="39.5184883" lon="8.4864381"><ele>94.0</ele><time>2026-04-21T12:57:41.306Z</time></trkpt><trkpt lat="39.5184607" lon="8.4865426"><ele>94.0</ele><time>2026-04-21T12:57:42.306Z</time></trkpt><trkpt lat="39.5184373" lon="8.4866558"><ele>94.0</ele><time>2026-04-21T12:57:43.305Z</time></trkpt><trkpt lat="39.5184148" lon="8.4867745"><ele>94.0</ele><time>2026-04-21T12:57:44.306Z</time></trkpt><trkpt lat="39.518404" lon="8.4868994"><ele>94.0</ele><time>2026-04-21T12:57:45.306Z</time></trkpt><trkpt lat="39.5184037" lon="8.4870368"><ele>94.0</ele><time>2026-04-21T12:57:46.306Z</time></trkpt><trkpt lat="39.518409" lon="8.4871716"><ele>94.16666666666666</ele><time>2026-04-21T12:57:47.305Z</time></trkpt><trkpt lat="39.5184174" lon="8.4872899"><ele>94.33333333333333</ele><time>2026-04-21T12:57:48.304Z</time></trkpt><trkpt lat="39.5184245" lon="8.487384"><ele>94.5</ele><time>2026-04-21T12:57:49.304Z</time></trkpt><trkpt lat="39.5184325" lon="8.4874734"><ele>94.66666666666667</ele><time>2026-04-21T12:57:50.304Z</time></trkpt><trkpt lat="39.5184468" lon="8.4875652"><ele>94.83333333333334</ele><time>2026-04-21T12:57:51.304Z</time></trkpt><trkpt lat="39.518466" lon="8.4876574"><ele>95.0</ele><time>2026-04-21T12:57:52.304Z</time></trkpt><trkpt lat="39.518483" lon="8.4877476"><ele>95.0</ele><time>2026-04-21T12:57:53.304Z</time></trkpt><trkpt lat="39.5184966" lon="8.487838"><ele>95.0</ele><time>2026-04-21T12:57:54.304Z</time></trkpt><trkpt lat="39.5184842" lon="8.4879873"><ele>95.0</ele><time>2026-04-21T12:57:56.304Z</time></trkpt><trkpt lat="39.5184332" lon="8.4881134"><ele>95.0</ele><time>2026-04-21T12:57:58.305Z</time></trkpt><trkpt lat="39.5183452" lon="8.4881643"><ele>95.0</ele><time>2026-04-21T12:58:00.304Z</time></trkpt><trkpt lat="39.5182765" lon="8.4881656"><ele>93.2</ele><time>2026-04-21T12:58:01.305Z</time></trkpt><trkpt lat="39.5181845" lon="8.488151"><ele>91.4</ele><time>2026-04-21T12:58:02.305Z</time></trkpt><trkpt lat="39.518079" lon="8.4881291"><ele>89.6</ele><time>2026-04-21T12:58:03.304Z</time></trkpt><trkpt lat="39.5179736" lon="8.4881422"><ele>87.8</ele><time>2026-04-21T12:58:04.304Z</time></trkpt><trkpt lat="39.5178697" lon="8.4881852"><ele>86.0</ele><time>2026-04-21T12:58:05.305Z</time></trkpt><trkpt lat="39.5177707" lon="8.488258"><ele>92.5</ele><time>2026-04-21T12:58:06.305Z</time></trkpt><trkpt lat="39.5176798" lon="8.4883552"><ele>99.0</ele><time>2026-04-21T12:58:07.304Z</time></trkpt><trkpt lat="39.5175947" lon="8.4884748"><ele>105.5</ele><time>2026-04-21T12:58:08.305Z</time></trkpt><trkpt lat="39.5175095" lon="8.4886102"><ele>112.0</ele><time>2026-04-21T12:58:09.305Z</time></trkpt><trkpt lat="39.5174275" lon="8.4887412"><ele>108.6</ele><time>2026-04-21T12:58:10.305Z</time></trkpt><trkpt lat="39.5173523" lon="8.488863"><ele>105.19999999999999</ele><time>2026-04-21T12:58:11.305Z</time></trkpt><trkpt lat="39.5172808" lon="8.4889734"><ele>101.8</ele><time>2026-04-21T12:58:12.304Z</time></trkpt><trkpt lat="39.5172282" lon="8.489088"><ele>98.4</ele><time>2026-04-21T12:58:13.305Z</time></trkpt><trkpt lat="39.5171947" lon="8.4892079"><ele>95.0</ele><time>2026-04-21T12:58:14.304Z</time></trkpt><trkpt lat="39.5171641" lon="8.4893253"><ele>95.0</ele><time>2026-04-21T12:58:15.305Z</time></trkpt><trkpt lat="39.5171303" lon="8.4894329"><ele>95.0</ele><time>2026-04-21T12:58:16.305Z</time></trkpt><trkpt lat="39.517098" lon="8.4895276"><ele>95.0</ele><time>2026-04-21T12:58:17.304Z</time></trkpt><trkpt lat="39.5170628" lon="8.489611"><ele>95.0</ele><time>2026-04-21T12:58:18.305Z</time></trkpt><trkpt lat="39.5170026" lon="8.4896716"><ele>95.0</ele><time>2026-04-21T12:58:19.305Z</time></trkpt><trkpt lat="39.5169356" lon="8.4897214"><ele>95.0</ele><time>2026-04-21T12:58:20.304Z</time></trkpt><trkpt lat="39.5168545" lon="8.4897642"><ele>96.0</ele><time>2026-04-21T12:58:21.305Z</time></trkpt><trkpt lat="39.5167698" lon="8.4897982"><ele>97.0</ele><time>2026-04-21T12:58:22.305Z</time></trkpt><trkpt lat="39.5166824" lon="8.4898226"><ele>98.0</ele><time>2026-04-21T12:58:23.305Z</time></trkpt><trkpt lat="39.5165955" lon="8.4898401"><ele>99.0</ele><time>2026-04-21T12:58:24.304Z</time></trkpt><trkpt lat="39.5165088" lon="8.4898657"><ele>99.99999999999999</ele><time>2026-04-21T12:58:25.305Z</time></trkpt><trkpt lat="39.5164267" lon="8.4898992"><ele>101.0</ele><time>2026-04-21T12:58:26.304Z</time></trkpt><trkpt lat="39.5163455" lon="8.4899418"><ele>101.0</ele><time>2026-04-21T12:58:27.305Z</time></trkpt><trkpt lat="39.5162622" lon="8.4899946"><ele>101.0</ele><time>2026-04-21T12:58:28.304Z</time></trkpt><trkpt lat="39.5161774" lon="8.490054"><ele>101.0</ele><time>2026-04-21T12:58:29.305Z</time></trkpt><trkpt lat="39.5160907" lon="8.4901202"><ele>101.0</ele><time>2026-04-21T12:58:30.305Z</time></trkpt><trkpt lat="39.5160115" lon="8.4901776"><ele>101.0</ele><time>2026-04-21T12:58:31.304Z</time></trkpt><trkpt lat="39.5159454" lon="8.4902319"><ele>101.66666666666666</ele><time>2026-04-21T12:58:32.305Z</time></trkpt><trkpt lat="39.5158877" lon="8.4903018"><ele>102.33333333333333</ele><time>2026-04-21T12:58:33.304Z</time></trkpt><trkpt lat="39.5158505" lon="8.4903979"><ele>103.0</ele><time>2026-04-21T12:58:34.305Z</time></trkpt><trkpt lat="39.5158401" lon="8.4905141"><ele>103.66666666666666</ele><time>2026-04-21T12:58:35.305Z</time></trkpt><trkpt lat="39.5158468" lon="8.490636"><ele>104.33333333333333</ele><time>2026-04-21T12:58:36.304Z</time></trkpt><trkpt lat="39.5158658" lon="8.4907511"><ele>105.0</ele><time>2026-04-21T12:58:37.304Z</time></trkpt><trkpt lat="39.5158648" lon="8.4908564"><ele>105.0</ele><time>2026-04-21T12:58:38.305Z</time></trkpt><trkpt lat="39.5158486" lon="8.4909601"><ele>105.0</ele><time>2026-04-21T12:58:39.304Z</time></trkpt><trkpt lat="39.515823" lon="8.4910578"><ele>105.0</ele><time>2026-04-21T12:58:40.305Z</time></trkpt><trkpt lat="39.5157864" lon="8.4911409"><ele>105.0</ele><time>2026-04-21T12:58:41.305Z</time></trkpt><trkpt lat="39.5157445" lon="8.4912108"><ele>105.0</ele><time>2026-04-21T12:58:42.304Z</time></trkpt><trkpt lat="39.5156649" lon="8.4913215"><ele>105.0</ele><time>2026-04-21T12:58:44.304Z</time></trkpt><trkpt lat="39.5155598" lon="8.4914189"><ele>104.83333333333333</ele><time>2026-04-21T12:58:46.305Z</time></trkpt><trkpt lat="39.5154947" lon="8.4914637"><ele>104.66666666666666</ele><time>2026-04-21T12:58:47.305Z</time></trkpt><trkpt lat="39.5154274" lon="8.491515"><ele>104.5</ele><time>2026-04-21T12:58:48.305Z</time></trkpt><trkpt lat="39.5153542" lon="8.4915709"><ele>104.33333333333333</ele><time>2026-04-21T12:58:49.305Z</time></trkpt><trkpt lat="39.5152809" lon="8.4916297"><ele>104.16666666666666</ele><time>2026-04-21T12:58:50.305Z</time></trkpt><trkpt lat="39.5152119" lon="8.4916783"><ele>104.0</ele><time>2026-04-21T12:58:51.304Z</time></trkpt><trkpt lat="39.5151558" lon="8.4917323"><ele>104.16666666666666</ele><time>2026-04-21T12:58:52.305Z</time></trkpt><trkpt lat="39.5151" lon="8.4917838"><ele>104.33333333333333</ele><time>2026-04-21T12:58:53.305Z</time></trkpt><trkpt lat="39.515003" lon="8.4918883"><ele>104.5</ele><time>2026-04-21T12:58:55.305Z</time></trkpt><trkpt lat="39.5149599" lon="8.491959"><ele>104.66666666666666</ele><time>2026-04-21T12:58:56.305Z</time></trkpt><trkpt lat="39.5149202" lon="8.4920343"><ele>104.83333333333333</ele><time>2026-04-21T12:58:57.304Z</time></trkpt><trkpt lat="39.5148813" lon="8.4921159"><ele>105.0</ele><time>2026-04-21T12:58:58.304Z</time></trkpt><trkpt lat="39.5148508" lon="8.4922054"><ele>105.0</ele><time>2026-04-21T12:58:59.305Z</time></trkpt><trkpt lat="39.5148268" lon="8.4922977"><ele>105.0</ele><time>2026-04-21T12:59:00.304Z</time></trkpt><trkpt lat="39.5148118" lon="8.4923836"><ele>105.0</ele><time>2026-04-21T12:59:01.305Z</time></trkpt><trkpt lat="39.5147909" lon="8.492521"><ele>105.0</ele><time>2026-04-21T12:59:03.304Z</time></trkpt><trkpt lat="39.5147426" lon="8.4926577"><ele>105.0</ele><time>2026-04-21T12:59:05.305Z</time></trkpt><trkpt lat="39.514703" lon="8.4927354"><ele>105.0</ele><time>2026-04-21T12:59:06.305Z</time></trkpt><trkpt lat="39.514653" lon="8.4928131"><ele>105.0</ele><time>2026-04-21T12:59:07.305Z</time></trkpt><trkpt lat="39.5146055" lon="8.4928878"><ele>105.0</ele><time>2026-04-21T12:59:08.305Z</time></trkpt><trkpt lat="39.5145662" lon="8.4929558"><ele>105.0</ele><time>2026-04-21T12:59:09.305Z</time></trkpt><trkpt lat="39.5145123" lon="8.4930782"><ele>105.0</ele><time>2026-04-21T12:59:11.305Z</time></trkpt><trkpt lat="39.514487" lon="8.4931998"><ele>105.0</ele><time>2026-04-21T12:59:13.304Z</time></trkpt><trkpt lat="39.5144951" lon="8.4933639"><ele>104.8</ele><time>2026-04-21T12:59:15.305Z</time></trkpt><trkpt lat="39.5145385" lon="8.4935086"><ele>104.6</ele><time>2026-04-21T12:59:17.304Z</time></trkpt><trkpt lat="39.5145738" lon="8.493638"><ele>104.4</ele><time>2026-04-21T12:59:19.304Z</time></trkpt><trkpt lat="39.5145503" lon="8.4937363"><ele>104.2</ele><time>2026-04-21T12:59:21.304Z</time></trkpt><trkpt lat="39.5144871" lon="8.4938177"><ele>104.0</ele><time>2026-04-21T12:59:23.305Z</time></trkpt><trkpt lat="39.5143959" lon="8.4938494"><ele>105.33333333333333</ele><time>2026-04-21T12:59:25.305Z</time></trkpt><trkpt lat="39.5143132" lon="8.4938515"><ele>106.66666666666666</ele><time>2026-04-21T12:59:27.304Z</time></trkpt><trkpt lat="39.514229" lon="8.4938321"><ele>108.0</ele><time>2026-04-21T12:59:31.305Z</time></trkpt><trkpt lat="39.5141557" lon="8.4937775"><ele>109.33333333333334</ele><time>2026-04-21T12:59:33.305Z</time></trkpt><trkpt lat="39.514104" lon="8.4937229"><ele>110.66666666666667</ele><time>2026-04-21T12:59:34.305Z</time></trkpt><trkpt lat="39.5140373" lon="8.4936754"><ele>112.0</ele><time>2026-04-21T12:59:35.305Z</time></trkpt><trkpt lat="39.5139705" lon="8.4936437"><ele>112.75</ele><time>2026-04-21T12:59:36.304Z</time></trkpt><trkpt lat="39.5138482" lon="8.4936438"><ele>113.5</ele><time>2026-04-21T12:59:38.304Z</time></trkpt><trkpt lat="39.5137551" lon="8.4937174"><ele>114.25</ele><time>2026-04-21T12:59:40.304Z</time></trkpt><trkpt lat="39.5137022" lon="8.4938664"><ele>115.0</ele><time>2026-04-21T12:59:42.305Z</time></trkpt><trkpt lat="39.5136383" lon="8.4939697"><ele>115.6</ele><time>2026-04-21T12:59:44.305Z</time></trkpt><trkpt lat="39.5135571" lon="8.4940179"><ele>116.2</ele><time>2026-04-21T12:59:46.304Z</time></trkpt><trkpt lat="39.5134739" lon="8.4940576"><ele>116.80000000000001</ele><time>2026-04-21T12:59:48.304Z</time></trkpt><trkpt lat="39.5133697" lon="8.4941024"><ele>117.4</ele><time>2026-04-21T12:59:50.305Z</time></trkpt><trkpt lat="39.5132778" lon="8.494165"><ele>118.0</ele><time>2026-04-21T12:59:52.304Z</time></trkpt><trkpt lat="39.5131935" lon="8.4942042"><ele>118.0</ele><time>2026-04-21T12:59:54.305Z</time></trkpt><trkpt lat="39.5130985" lon="8.4942198"><ele>118.00000000000001</ele><time>2026-04-21T12:59:56.304Z</time></trkpt><trkpt lat="39.512988" lon="8.4942477"><ele>118.00000000000001</ele><time>2026-04-21T12:59:58.304Z</time></trkpt><trkpt lat="39.5128803" lon="8.4942889"><ele>118.0</ele><time>2026-04-21T13:00:00.304Z</time></trkpt><trkpt lat="39.5127848" lon="8.4943421"><ele>118.0</ele><time>2026-04-21T13:00:02.305Z</time></trkpt><trkpt lat="39.5126863" lon="8.4944033"><ele>119.0</ele><time>2026-04-21T13:00:04.305Z</time></trkpt><trkpt lat="39.5126326" lon="8.4944482"><ele>120.00000000000001</ele><time>2026-04-21T13:00:05.305Z</time></trkpt><trkpt lat="39.5125741" lon="8.4945022"><ele>121.00000000000001</ele><time>2026-04-21T13:00:06.305Z</time></trkpt><trkpt lat="39.5124852" lon="8.4945843"><ele>122.0</ele><time>2026-04-21T13:00:08.304Z</time></trkpt><trkpt lat="39.5123868" lon="8.4946078"><ele>123.0</ele><time>2026-04-21T13:00:10.305Z</time></trkpt><trkpt lat="39.5122735" lon="8.4946053"><ele>123.0</ele><time>2026-04-21T13:00:12.305Z</time></trkpt><trkpt lat="39.5122075" lon="8.4946036"><ele>123.0</ele><time>2026-04-21T13:00:13.304Z</time></trkpt><trkpt lat="39.5121353" lon="8.4945929"><ele>123.0</ele><time>2026-04-21T13:00:14.305Z</time></trkpt><trkpt lat="39.5120547" lon="8.494576"><ele>123.0</ele><time>2026-04-21T13:00:15.304Z</time></trkpt><trkpt lat="39.5119688" lon="8.4945573"><ele>123.0</ele><time>2026-04-21T13:00:16.304Z</time></trkpt><trkpt lat="39.5118883" lon="8.4945438"><ele>123.0</ele><time>2026-04-21T13:00:17.305Z</time></trkpt><trkpt lat="39.5118144" lon="8.4945305"><ele>124.66666666666667</ele><time>2026-04-21T13:00:18.304Z</time></trkpt><trkpt lat="39.5117445" lon="8.494511"><ele>126.33333333333334</ele><time>2026-04-21T13:00:19.304Z</time></trkpt><trkpt lat="39.5116736" lon="8.4944845"><ele>128.0</ele><time>2026-04-21T13:00:20.304Z</time></trkpt><trkpt lat="39.5116098" lon="8.4944571"><ele>129.66666666666669</ele><time>2026-04-21T13:00:21.305Z</time></trkpt><trkpt lat="39.5114982" lon="8.4944413"><ele>131.33333333333334</ele><time>2026-04-21T13:00:23.304Z</time></trkpt><trkpt lat="39.511389" lon="8.4944816"><ele>133.0</ele><time>2026-04-21T13:00:25.305Z</time></trkpt><trkpt lat="39.5112723" lon="8.4944891"><ele>133.6</ele><time>2026-04-21T13:00:27.304Z</time></trkpt><trkpt lat="39.5111526" lon="8.4944639"><ele>134.20000000000002</ele><time>2026-04-21T13:00:29.304Z</time></trkpt><trkpt lat="39.5110179" lon="8.4944476"><ele>134.8</ele><time>2026-04-21T13:00:31.304Z</time></trkpt><trkpt lat="39.51094" lon="8.4944564"><ele>135.4</ele><time>2026-04-21T13:00:32.305Z</time></trkpt><trkpt lat="39.5108556" lon="8.4944832"><ele>136.0</ele><time>2026-04-21T13:00:33.305Z</time></trkpt><trkpt lat="39.5107645" lon="8.4945195"><ele>136.0</ele><time>2026-04-21T13:00:34.305Z</time></trkpt><trkpt lat="39.510677" lon="8.4945634"><ele>136.0</ele><time>2026-04-21T13:00:35.304Z</time></trkpt><trkpt lat="39.5105925" lon="8.4946036"><ele>136.0</ele><time>2026-04-21T13:00:36.305Z</time></trkpt><trkpt lat="39.5105176" lon="8.4946429"><ele>136.0</ele><time>2026-04-21T13:00:37.304Z</time></trkpt><trkpt lat="39.5104416" lon="8.4946837"><ele>136.0</ele><time>2026-04-21T13:00:38.305Z</time></trkpt><trkpt lat="39.5103637" lon="8.4947227"><ele>136.0</ele><time>2026-04-21T13:00:39.305Z</time></trkpt><trkpt lat="39.5102882" lon="8.494757"><ele>136.85714285714283</ele><time>2026-04-21T13:00:40.304Z</time></trkpt><trkpt lat="39.5102136" lon="8.4947933"><ele>137.71428571428572</ele><time>2026-04-21T13:00:41.305Z</time></trkpt><trkpt lat="39.5101419" lon="8.4948238"><ele>138.57142857142856</ele><time>2026-04-21T13:00:42.304Z</time></trkpt><trkpt lat="39.5100788" lon="8.4948598"><ele>139.42857142857142</ele><time>2026-04-21T13:00:43.304Z</time></trkpt><trkpt lat="39.5100096" lon="8.494883"><ele>140.28571428571428</ele><time>2026-04-21T13:00:44.304Z</time></trkpt><trkpt lat="39.5099443" lon="8.494916"><ele>141.14285714285714</ele><time>2026-04-21T13:00:45.304Z</time></trkpt><trkpt lat="39.5098817" lon="8.4949513"><ele>142.0</ele><time>2026-04-21T13:00:46.305Z</time></trkpt><trkpt lat="39.5097776" lon="8.4950521"><ele>142.0</ele><time>2026-04-21T13:00:48.305Z</time></trkpt><trkpt lat="39.5097192" lon="8.495092"><ele>142.0</ele><time>2026-04-21T13:00:49.305Z</time></trkpt><trkpt lat="39.5096512" lon="8.4951239"><ele>142.0</ele><time>2026-04-21T13:00:50.305Z</time></trkpt><trkpt lat="39.5095794" lon="8.4951426"><ele>142.0</ele><time>2026-04-21T13:00:51.305Z</time></trkpt><trkpt lat="39.5095088" lon="8.495156"><ele>142.0</ele><time>2026-04-21T13:00:52.304Z</time></trkpt><trkpt lat="39.5094401" lon="8.4951693"><ele>142.0</ele><time>2026-04-21T13:00:53.304Z</time></trkpt><trkpt lat="39.5093703" lon="8.4951869"><ele>142.0</ele><time>2026-04-21T13:00:54.304Z</time></trkpt><trkpt lat="39.5092907" lon="8.4952077"><ele>142.83333333333334</ele><time>2026-04-21T13:00:55.305Z</time></trkpt><trkpt lat="39.5092055" lon="8.4952346"><ele>143.66666666666669</ele><time>2026-04-21T13:00:56.305Z</time></trkpt><trkpt lat="39.5091313" lon="8.495268"><ele>144.5</ele><time>2026-04-21T13:00:57.304Z</time></trkpt><trkpt lat="39.5090683" lon="8.4953122"><ele>145.33333333333334</ele><time>2026-04-21T13:00:58.304Z</time></trkpt><trkpt lat="39.5090131" lon="8.4953653"><ele>146.16666666666666</ele><time>2026-04-21T13:00:59.304Z</time></trkpt><trkpt lat="39.5089415" lon="8.4954713"><ele>147.0</ele><time>2026-04-21T13:01:01.305Z</time></trkpt><trkpt lat="39.5088846" lon="8.4955452"><ele>148.33333333333334</ele><time>2026-04-21T13:01:11.305Z</time></trkpt><trkpt lat="39.5087912" lon="8.4955839"><ele>149.66666666666666</ele><time>2026-04-21T13:01:13.305Z</time></trkpt><trkpt lat="39.5087174" lon="8.4955854"><ele>151.0</ele><time>2026-04-21T13:01:15.304Z</time></trkpt><trkpt lat="39.5086206" lon="8.4955581"><ele>152.33333333333331</ele><time>2026-04-21T13:01:17.305Z</time></trkpt><trkpt lat="39.5085662" lon="8.4955079"><ele>153.66666666666666</ele><time>2026-04-21T13:01:20.305Z</time></trkpt><trkpt lat="39.5086027" lon="8.4954307"><ele>155.0</ele><time>2026-04-21T13:01:57.305Z</time></trkpt><trkpt lat="39.5086087" lon="8.4952789"><ele>156.4</ele><time>2026-04-21T13:01:59.304Z</time></trkpt><trkpt lat="39.5085992" lon="8.4951262"><ele>157.8</ele><time>2026-04-21T13:02:01.305Z</time></trkpt><trkpt lat="39.5085598" lon="8.494986"><ele>159.2</ele><time>2026-04-21T13:02:03.305Z</time></trkpt><trkpt lat="39.5085513" lon="8.4948839"><ele>160.6</ele><time>2026-04-21T13:02:05.304Z</time></trkpt><trkpt lat="39.5086043" lon="8.4948164"><ele>162.0</ele><time>2026-04-21T13:02:07.305Z</time></trkpt><trkpt lat="39.5086979" lon="8.4948359"><ele>159.0</ele><time>2026-04-21T13:02:09.304Z</time></trkpt><trkpt lat="39.5088007" lon="8.4948579"><ele>156.0</ele><time>2026-04-21T13:02:11.304Z</time></trkpt><trkpt lat="39.5089258" lon="8.4948064"><ele>153.0</ele><time>2026-04-21T13:02:13.305Z</time></trkpt><trkpt lat="39.5089911" lon="8.4947614"><ele>150.0</ele><time>2026-04-21T13:02:14.304Z</time></trkpt><trkpt lat="39.5090645" lon="8.4947138"><ele>147.0</ele><time>2026-04-21T13:02:15.304Z</time></trkpt><trkpt lat="39.5091345" lon="8.4946651"><ele>147.0</ele><time>2026-04-21T13:02:16.304Z</time></trkpt><trkpt lat="39.5092018" lon="8.4946177"><ele>147.0</ele><time>2026-04-21T13:02:17.305Z</time></trkpt><trkpt lat="39.5092634" lon="8.4945722"><ele>147.0</ele><time>2026-04-21T13:02:18.304Z</time></trkpt><trkpt lat="39.5093216" lon="8.494524"><ele>147.0</ele><time>2026-04-21T13:02:19.305Z</time></trkpt><trkpt lat="39.5093811" lon="8.4944719"><ele>147.0</ele><time>2026-04-21T13:02:20.305Z</time></trkpt><trkpt lat="39.5094353" lon="8.4944219"><ele>147.0</ele><time>2026-04-21T13:02:21.304Z</time></trkpt><trkpt lat="39.5094776" lon="8.494358"><ele>147.0</ele><time>2026-04-21T13:02:22.305Z</time></trkpt><trkpt lat="39.5095078" lon="8.4942828"><ele>150.16666666666666</ele><time>2026-04-21T13:02:23.304Z</time></trkpt><trkpt lat="39.5095173" lon="8.4941886"><ele>153.33333333333334</ele><time>2026-04-21T13:02:24.304Z</time></trkpt><trkpt lat="39.5095152" lon="8.4940854"><ele>156.5</ele><time>2026-04-21T13:02:25.304Z</time></trkpt><trkpt lat="39.5094995" lon="8.4939863"><ele>159.66666666666669</ele><time>2026-04-21T13:02:26.305Z</time></trkpt><trkpt lat="39.5094741" lon="8.4939037"><ele>162.83333333333334</ele><time>2026-04-21T13:02:27.305Z</time></trkpt><trkpt lat="39.5094407" lon="8.4937632"><ele>166.0</ele><time>2026-04-21T13:02:29.305Z</time></trkpt><trkpt lat="39.5094763" lon="8.4936252"><ele>166.0</ele><time>2026-04-21T13:02:31.305Z</time></trkpt><trkpt lat="39.5094994" lon="8.4935477"><ele>166.0</ele><time>2026-04-21T13:02:32.304Z</time></trkpt><trkpt lat="39.5095269" lon="8.4934004"><ele>166.0</ele><time>2026-04-21T13:02:34.305Z</time></trkpt><trkpt lat="39.5095643" lon="8.493312"><ele>166.0</ele><time>2026-04-21T13:02:36.305Z</time></trkpt><trkpt lat="39.50964" lon="8.4932902"><ele>166.0</ele><time>2026-04-21T13:02:38.305Z</time></trkpt><trkpt lat="39.50973" lon="8.493367"><ele>166.0</ele><time>2026-04-21T13:02:40.304Z</time></trkpt><trkpt lat="39.5097836" lon="8.4934362"><ele>166.0</ele><time>2026-04-21T13:02:41.305Z</time></trkpt><trkpt lat="39.5098409" lon="8.4935105"><ele>166.0</ele><time>2026-04-21T13:02:42.304Z</time></trkpt><trkpt lat="39.5098972" lon="8.4935837"><ele>166.0</ele><time>2026-04-21T13:02:43.305Z</time></trkpt><trkpt lat="39.5099493" lon="8.4936456"><ele>166.0</ele><time>2026-04-21T13:02:44.305Z</time></trkpt><trkpt lat="39.5099999" lon="8.4936955"><ele>166.0</ele><time>2026-04-21T13:02:45.305Z</time></trkpt><trkpt lat="39.5100886" lon="8.4937275"><ele>166.0</ele><time>2026-04-21T13:02:47.304Z</time></trkpt><trkpt lat="39.5101722" lon="8.4936361"><ele>166.0</ele><time>2026-04-21T13:02:49.305Z</time></trkpt><trkpt lat="39.5101856" lon="8.4934813"><ele>166.0</ele><time>2026-04-21T13:02:51.304Z</time></trkpt><trkpt lat="39.5101697" lon="8.493399"><ele>166.0</ele><time>2026-04-21T13:02:52.305Z</time></trkpt><trkpt lat="39.5101492" lon="8.4933218"><ele>166.0</ele><time>2026-04-21T13:02:53.305Z</time></trkpt><trkpt lat="39.5101162" lon="8.4931664"><ele>166.0</ele><time>2026-04-21T13:02:55.305Z</time></trkpt><trkpt lat="39.5100937" lon="8.4930177"><ele>166.83333333333334</ele><time>2026-04-21T13:02:57.304Z</time></trkpt><trkpt lat="39.5100492" lon="8.4928967"><ele>167.66666666666669</ele><time>2026-04-21T13:02:59.305Z</time></trkpt><trkpt lat="39.51001" lon="8.4928153"><ele>168.5</ele><time>2026-04-21T13:03:00.305Z</time></trkpt><trkpt lat="39.5099669" lon="8.4927261"><ele>169.33333333333334</ele><time>2026-04-21T13:03:01.305Z</time></trkpt><trkpt lat="39.5099257" lon="8.4926368"><ele>170.16666666666666</ele><time>2026-04-21T13:03:02.305Z</time></trkpt><trkpt lat="39.5098936" lon="8.4925482"><ele>171.0</ele><time>2026-04-21T13:03:03.304Z</time></trkpt><trkpt lat="39.509875" lon="8.4924676"><ele>171.0</ele><time>2026-04-21T13:03:04.304Z</time></trkpt><trkpt lat="39.5098614" lon="8.4923877"><ele>171.0</ele><time>2026-04-21T13:03:05.305Z</time></trkpt><trkpt lat="39.5098248" lon="8.4922378"><ele>171.0</ele><time>2026-04-21T13:03:07.304Z</time></trkpt><trkpt lat="39.5097572" lon="8.4921205"><ele>171.0</ele><time>2026-04-21T13:03:09.304Z</time></trkpt><trkpt lat="39.5096845" lon="8.4920044"><ele>171.0</ele><time>2026-04-21T13:03:11.305Z</time></trkpt><trkpt lat="39.5096752" lon="8.4918902"><ele>172.83333333333334</ele><time>2026-04-21T13:03:13.305Z</time></trkpt><trkpt lat="39.5097546" lon="8.4918222"><ele>174.66666666666666</ele><time>2026-04-21T13:03:15.305Z</time></trkpt><trkpt lat="39.5098212" lon="8.4918121"><ele>176.5</ele><time>2026-04-21T13:03:16.304Z</time></trkpt><trkpt lat="39.509899" lon="8.4918235"><ele>178.33333333333331</ele><time>2026-04-21T13:03:17.305Z</time></trkpt><trkpt lat="39.5099773" lon="8.4918446"><ele>180.16666666666666</ele><time>2026-04-21T13:03:18.305Z</time></trkpt><trkpt lat="39.5100617" lon="8.4918673"><ele>182.0</ele><time>2026-04-21T13:03:19.305Z</time></trkpt><trkpt lat="39.5101396" lon="8.4918886"><ele>182.0</ele><time>2026-04-21T13:03:20.305Z</time></trkpt><trkpt lat="39.5102134" lon="8.4919139"><ele>182.0</ele><time>2026-04-21T13:03:21.305Z</time></trkpt><trkpt lat="39.5102839" lon="8.4919463"><ele>182.0</ele><time>2026-04-21T13:03:22.305Z</time></trkpt><trkpt lat="39.5103457" lon="8.4919771"><ele>182.0</ele><time>2026-04-21T13:03:23.305Z</time></trkpt><trkpt lat="39.5104245" lon="8.4919637"><ele>182.0</ele><time>2026-04-21T13:03:25.304Z</time></trkpt><trkpt lat="39.5104449" lon="8.4918451"><ele>182.0</ele><time>2026-04-21T13:03:27.304Z</time></trkpt><trkpt lat="39.5103668" lon="8.4917243"><ele>182.0</ele><time>2026-04-21T13:03:29.305Z</time></trkpt><trkpt lat="39.5103133" lon="8.4916691"><ele>182.0</ele><time>2026-04-21T13:03:30.304Z</time></trkpt><trkpt lat="39.5102686" lon="8.491608"><ele>182.0</ele><time>2026-04-21T13:03:31.305Z</time></trkpt><trkpt lat="39.5102276" lon="8.4914805"><ele>182.0</ele><time>2026-04-21T13:03:33.304Z</time></trkpt><trkpt lat="39.510285" lon="8.4913755"><ele>182.0</ele><time>2026-04-21T13:03:35.304Z</time></trkpt><trkpt lat="39.5103358" lon="8.491319"><ele>182.0</ele><time>2026-04-21T13:03:36.304Z</time></trkpt><trkpt lat="39.5103835" lon="8.4912571"><ele>180.16666666666666</ele><time>2026-04-21T13:03:37.305Z</time></trkpt><trkpt lat="39.5104145" lon="8.4911844"><ele>178.33333333333331</ele><time>2026-04-21T13:03:38.304Z</time></trkpt><trkpt lat="39.5104218" lon="8.4910218"><ele>176.5</ele><time>2026-04-21T13:03:40.304Z</time></trkpt><trkpt lat="39.5104072" lon="8.4909292"><ele>174.66666666666666</ele><time>2026-04-21T13:03:41.305Z</time></trkpt><trkpt lat="39.5104007" lon="8.4908414"><ele>172.83333333333334</ele><time>2026-04-21T13:03:42.304Z</time></trkpt><trkpt lat="39.5104027" lon="8.490755"><ele>171.0</ele><time>2026-04-21T13:03:43.304Z</time></trkpt><trkpt lat="39.5103988" lon="8.4906726"><ele>176.60000000000002</ele><time>2026-04-21T13:03:44.305Z</time></trkpt><trkpt lat="39.510368" lon="8.4905242"><ele>182.2</ele><time>2026-04-21T13:03:46.305Z</time></trkpt><trkpt lat="39.5102928" lon="8.4904203"><ele>187.8</ele><time>2026-04-21T13:03:48.305Z</time></trkpt><trkpt lat="39.5102615" lon="8.4903188"><ele>193.39999999999998</ele><time>2026-04-21T13:03:50.305Z</time></trkpt><trkpt lat="39.5102693" lon="8.4902134"><ele>199.0</ele><time>2026-04-21T13:03:52.305Z</time></trkpt><trkpt lat="39.5102841" lon="8.490068"><ele>199.6</ele><time>2026-04-21T13:03:54.305Z</time></trkpt><trkpt lat="39.510261" lon="8.4899231"><ele>200.2</ele><time>2026-04-21T13:03:56.304Z</time></trkpt><trkpt lat="39.510232" lon="8.4898468"><ele>200.79999999999998</ele><time>2026-04-21T13:03:57.305Z</time></trkpt><trkpt lat="39.5101865" lon="8.4897218"><ele>201.39999999999998</ele><time>2026-04-21T13:03:59.304Z</time></trkpt><trkpt lat="39.510205" lon="8.4896097"><ele>202.0</ele><time>2026-04-21T13:04:01.305Z</time></trkpt><trkpt lat="39.5102665" lon="8.4894887"><ele>201.99999999999997</ele><time>2026-04-21T13:04:03.304Z</time></trkpt><trkpt lat="39.5103241" lon="8.4894331"><ele>202.0</ele><time>2026-04-21T13:04:04.304Z</time></trkpt><trkpt lat="39.5103896" lon="8.4893899"><ele>202.0</ele><time>2026-04-21T13:04:05.304Z</time></trkpt><trkpt lat="39.510456" lon="8.4893607"><ele>202.0</ele><time>2026-04-21T13:04:06.305Z</time></trkpt><trkpt lat="39.5105536" lon="8.489355"><ele>201.99999999999997</ele><time>2026-04-21T13:04:08.304Z</time></trkpt><trkpt lat="39.5106268" lon="8.4893004"><ele>202.0</ele><time>2026-04-21T13:04:10.304Z</time></trkpt><trkpt lat="39.5105911" lon="8.4892236"><ele>201.99999999999997</ele><time>2026-04-21T13:04:12.304Z</time></trkpt><trkpt lat="39.5104998" lon="8.4892321"><ele>202.0</ele><time>2026-04-21T13:04:14.304Z</time></trkpt><trkpt lat="39.5104216" lon="8.4892647"><ele>202.0</ele><time>2026-04-21T13:04:15.303Z</time></trkpt><trkpt lat="39.510341" lon="8.4892933"><ele>202.0</ele><time>2026-04-21T13:04:16.303Z</time></trkpt><trkpt lat="39.5102596" lon="8.4893147"><ele>201.99999999999997</ele><time>2026-04-21T13:04:17.304Z</time></trkpt><trkpt lat="39.5101866" lon="8.4893327"><ele>202.0</ele><time>2026-04-21T13:04:18.303Z</time></trkpt><trkpt lat="39.5101193" lon="8.4893648"><ele>201.99999999999997</ele><time>2026-04-21T13:04:19.303Z</time></trkpt><trkpt lat="39.5100333" lon="8.4894731"><ele>202.0</ele><time>2026-04-21T13:04:21.303Z</time></trkpt><trkpt lat="39.5100036" lon="8.4895505"><ele>202.0</ele><time>2026-04-21T13:04:22.304Z</time></trkpt><trkpt lat="39.5099776" lon="8.4896288"><ele>202.0</ele><time>2026-04-21T13:04:23.303Z</time></trkpt><trkpt lat="39.5099524" lon="8.489706"><ele>201.99999999999997</ele><time>2026-04-21T13:04:24.304Z</time></trkpt><trkpt lat="39.5099208" lon="8.4897804"><ele>202.0</ele><time>2026-04-21T13:04:25.304Z</time></trkpt><trkpt lat="39.5099025" lon="8.4898651"><ele>201.99999999999997</ele><time>2026-04-21T13:04:26.303Z</time></trkpt><trkpt lat="39.5098909" lon="8.4899592"><ele>202.0</ele><time>2026-04-21T13:04:27.303Z</time></trkpt><trkpt lat="39.5098876" lon="8.4900497"><ele>202.0</ele><time>2026-04-21T13:04:28.304Z</time></trkpt><trkpt lat="39.5098797" lon="8.4902113"><ele>202.0</ele><time>2026-04-21T13:04:30.303Z</time></trkpt><trkpt lat="39.5098731" lon="8.4902941"><ele>201.99999999999997</ele><time>2026-04-21T13:04:31.304Z</time></trkpt><trkpt lat="39.5098678" lon="8.4903787"><ele>202.0</ele><time>2026-04-21T13:04:32.304Z</time></trkpt><trkpt lat="39.5098584" lon="8.4905034"><ele>202.0</ele><time>2026-04-21T13:04:34.304Z</time></trkpt><trkpt lat="39.5097964" lon="8.4904574"><ele>202.0</ele><time>2026-04-21T13:04:38.304Z</time></trkpt><trkpt lat="39.5097978" lon="8.4903729"><ele>202.0</ele><time>2026-04-21T13:04:39.303Z</time></trkpt><trkpt lat="39.5097881" lon="8.490217"><ele>202.0</ele><time>2026-04-21T13:04:41.304Z</time></trkpt><trkpt lat="39.5097545" lon="8.4900875"><ele>202.0</ele><time>2026-04-21T13:04:43.304Z</time></trkpt><trkpt lat="39.5097246" lon="8.4899505"><ele>202.0</ele><time>2026-04-21T13:04:45.303Z</time></trkpt><trkpt lat="39.5096665" lon="8.4898211"><ele>202.0</ele><time>2026-04-21T13:04:47.303Z</time></trkpt><trkpt lat="39.5096113" lon="8.4897002"><ele>202.0</ele><time>2026-04-21T13:04:49.303Z</time></trkpt><trkpt lat="39.5095716" lon="8.4896323"><ele>202.0</ele><time>2026-04-21T13:04:51.304Z</time></trkpt><trkpt lat="39.5095116" lon="8.489571"><ele>202.0</ele><time>2026-04-21T13:04:54.303Z</time></trkpt><trkpt lat="39.5094134" lon="8.4895781"><ele>203.33333333333331</ele><time>2026-04-21T13:04:57.304Z</time></trkpt><trkpt lat="39.5093352" lon="8.4895968"><ele>204.66666666666666</ele><time>2026-04-21T13:04:59.304Z</time></trkpt><trkpt lat="39.5092641" lon="8.4896187"><ele>206.0</ele><time>2026-04-21T13:05:01.304Z</time></trkpt><trkpt lat="39.5091982" lon="8.4896627"><ele>207.33333333333331</ele><time>2026-04-21T13:05:03.304Z</time></trkpt><trkpt lat="39.5091208" lon="8.4897393"><ele>208.66666666666666</ele><time>2026-04-21T13:05:05.303Z</time></trkpt><trkpt lat="39.5090515" lon="8.4898466"><ele>210.0</ele><time>2026-04-21T13:05:07.303Z</time></trkpt><trkpt lat="39.5089952" lon="8.4899818"><ele>210.0</ele><time>2026-04-21T13:05:09.304Z</time></trkpt><trkpt lat="39.5089712" lon="8.4901279"><ele>210.0</ele><time>2026-04-21T13:05:11.303Z</time></trkpt><trkpt lat="39.508974" lon="8.4902145"><ele>210.0</ele><time>2026-04-21T13:05:12.304Z</time></trkpt><trkpt lat="39.5089795" lon="8.4903059"><ele>210.0</ele><time>2026-04-21T13:05:13.304Z</time></trkpt><trkpt lat="39.5089807" lon="8.4903944"><ele>210.0</ele><time>2026-04-21T13:05:14.304Z</time></trkpt><trkpt lat="39.5089803" lon="8.4904773"><ele>210.0</ele><time>2026-04-21T13:05:15.304Z</time></trkpt><trkpt lat="39.5089262" lon="8.4906229"><ele>210.57142857142858</ele><time>2026-04-21T13:05:17.304Z</time></trkpt><trkpt lat="39.5088795" lon="8.4906797"><ele>211.14285714285714</ele><time>2026-04-21T13:05:18.304Z</time></trkpt><trkpt lat="39.5088191" lon="8.4907271"><ele>211.71428571428572</ele><time>2026-04-21T13:05:19.303Z</time></trkpt><trkpt lat="39.5087594" lon="8.4907634"><ele>212.28571428571428</ele><time>2026-04-21T13:05:20.304Z</time></trkpt><trkpt lat="39.5086999" lon="8.4908039"><ele>212.85714285714286</ele><time>2026-04-21T13:05:21.304Z</time></trkpt><trkpt lat="39.5086447" lon="8.4908522"><ele>213.42857142857144</ele><time>2026-04-21T13:05:22.304Z</time></trkpt><trkpt lat="39.5085976" lon="8.4909079"><ele>214.0</ele><time>2026-04-21T13:05:23.303Z</time></trkpt><trkpt lat="39.5085559" lon="8.4909718"><ele>212.0</ele><time>2026-04-21T13:05:24.303Z</time></trkpt><trkpt lat="39.5084845" lon="8.4910779"><ele>209.99999999999997</ele><time>2026-04-21T13:05:26.304Z</time></trkpt><trkpt lat="39.5084054" lon="8.4911074"><ele>208.0</ele><time>2026-04-21T13:05:28.303Z</time></trkpt><trkpt lat="39.5082932" lon="8.4910774"><ele>206.0</ele><time>2026-04-21T13:05:30.303Z</time></trkpt><trkpt lat="39.5082184" lon="8.4910536"><ele>204.0</ele><time>2026-04-21T13:05:31.304Z</time></trkpt><trkpt lat="39.5081459" lon="8.4910235"><ele>204.0</ele><time>2026-04-21T13:05:32.303Z</time></trkpt><trkpt lat="39.5080767" lon="8.4909982"><ele>204.0</ele><time>2026-04-21T13:05:33.304Z</time></trkpt><trkpt lat="39.5080152" lon="8.4909779"><ele>204.0</ele><time>2026-04-21T13:05:34.303Z</time></trkpt><trkpt lat="39.5079524" lon="8.4909642"><ele>204.0</ele><time>2026-04-21T13:05:35.303Z</time></trkpt><trkpt lat="39.5078888" lon="8.4909626"><ele>204.0</ele><time>2026-04-21T13:05:36.304Z</time></trkpt><trkpt lat="39.5078268" lon="8.4909811"><ele>204.0</ele><time>2026-04-21T13:05:37.304Z</time></trkpt><trkpt lat="39.5077648" lon="8.4910139"><ele>204.0</ele><time>2026-04-21T13:05:38.303Z</time></trkpt><trkpt lat="39.5077112" lon="8.4910716"><ele>204.83333333333334</ele><time>2026-04-21T13:05:39.303Z</time></trkpt><trkpt lat="39.5076729" lon="8.491152"><ele>205.66666666666669</ele><time>2026-04-21T13:05:40.303Z</time></trkpt><trkpt lat="39.5076464" lon="8.4912371"><ele>206.5</ele><time>2026-04-21T13:05:41.304Z</time></trkpt><trkpt lat="39.507624" lon="8.4913186"><ele>207.33333333333334</ele><time>2026-04-21T13:05:42.304Z</time></trkpt><trkpt lat="39.5076063" lon="8.491399"><ele>208.16666666666669</ele><time>2026-04-21T13:05:43.303Z</time></trkpt><trkpt lat="39.5075852" lon="8.4914811"><ele>209.0</ele><time>2026-04-21T13:05:44.304Z</time></trkpt><trkpt lat="39.5075304" lon="8.4916192"><ele>209.0</ele><time>2026-04-21T13:05:46.304Z</time></trkpt><trkpt lat="39.5074339" lon="8.4917289"><ele>209.0</ele><time>2026-04-21T13:05:48.303Z</time></trkpt><trkpt lat="39.5073499" lon="8.4918139"><ele>209.0</ele><time>2026-04-21T13:05:50.303Z</time></trkpt><trkpt lat="39.5072848" lon="8.4918572"><ele>209.0</ele><time>2026-04-21T13:05:52.304Z</time></trkpt><trkpt lat="39.5071999" lon="8.4918426"><ele>209.0</ele><time>2026-04-21T13:05:54.304Z</time></trkpt><trkpt lat="39.5071082" lon="8.4917893"><ele>207.6</ele><time>2026-04-21T13:05:56.303Z</time></trkpt><trkpt lat="39.5070555" lon="8.491688"><ele>206.2</ele><time>2026-04-21T13:05:59.303Z</time></trkpt><trkpt lat="39.5070127" lon="8.4915694"><ele>204.79999999999998</ele><time>2026-04-21T13:06:01.303Z</time></trkpt><trkpt lat="39.5069449" lon="8.4915103"><ele>203.39999999999998</ele><time>2026-04-21T13:06:03.303Z</time></trkpt><trkpt lat="39.5068669" lon="8.4915103"><ele>202.0</ele><time>2026-04-21T13:06:05.303Z</time></trkpt><trkpt lat="39.5067495" lon="8.4915449"><ele>202.0</ele><time>2026-04-21T13:06:07.304Z</time></trkpt><trkpt lat="39.5066899" lon="8.4915752"><ele>202.0</ele><time>2026-04-21T13:06:08.303Z</time></trkpt><trkpt lat="39.5065884" lon="8.4916242"><ele>202.0</ele><time>2026-04-21T13:06:10.303Z</time></trkpt><trkpt lat="39.5064862" lon="8.4916147"><ele>202.0</ele><time>2026-04-21T13:06:12.303Z</time></trkpt><trkpt lat="39.5063914" lon="8.4916037"><ele>202.0</ele><time>2026-04-21T13:06:14.303Z</time></trkpt><trkpt lat="39.506281" lon="8.4916612"><ele>203.8</ele><time>2026-04-21T13:06:16.303Z</time></trkpt><trkpt lat="39.5062235" lon="8.4917097"><ele>205.6</ele><time>2026-04-21T13:06:17.303Z</time></trkpt><trkpt lat="39.5061364" lon="8.4918037"><ele>207.4</ele><time>2026-04-21T13:06:19.303Z</time></trkpt><trkpt lat="39.5060627" lon="8.4918438"><ele>209.20000000000002</ele><time>2026-04-21T13:06:21.304Z</time></trkpt><trkpt lat="39.5059961" lon="8.4917882"><ele>211.0</ele><time>2026-04-21T13:06:23.303Z</time></trkpt><trkpt lat="39.5059684" lon="8.4916371"><ele>211.0</ele><time>2026-04-21T13:06:25.304Z</time></trkpt><trkpt lat="39.5059645" lon="8.4915317"><ele>211.0</ele><time>2026-04-21T13:06:26.303Z</time></trkpt><trkpt lat="39.5059589" lon="8.4914252"><ele>211.0</ele><time>2026-04-21T13:06:27.303Z</time></trkpt><trkpt lat="39.5059489" lon="8.4913295"><ele>211.0</ele><time>2026-04-21T13:06:28.303Z</time></trkpt><trkpt lat="39.5059371" lon="8.4911743"><ele>211.0</ele><time>2026-04-21T13:06:30.304Z</time></trkpt><trkpt lat="39.5059716" lon="8.4910284"><ele>208.8</ele><time>2026-04-21T13:06:32.303Z</time></trkpt><trkpt lat="39.5060021" lon="8.4909558"><ele>206.60000000000002</ele><time>2026-04-21T13:06:33.304Z</time></trkpt><trkpt lat="39.5060786" lon="8.4908295"><ele>204.4</ele><time>2026-04-21T13:06:35.304Z</time></trkpt><trkpt lat="39.5061412" lon="8.4907235"><ele>202.2</ele><time>2026-04-21T13:06:37.304Z</time></trkpt><trkpt lat="39.5061542" lon="8.4906121"><ele>200.0</ele><time>2026-04-21T13:06:39.303Z</time></trkpt><trkpt lat="39.5061202" lon="8.4904904"><ele>197.50000000000003</ele><time>2026-04-21T13:06:41.304Z</time></trkpt><trkpt lat="39.5060853" lon="8.4904153"><ele>195.0</ele><time>2026-04-21T13:06:42.303Z</time></trkpt><trkpt lat="39.5060417" lon="8.4903395"><ele>192.5</ele><time>2026-04-21T13:06:43.304Z</time></trkpt><trkpt lat="39.5059942" lon="8.4902676"><ele>190.0</ele><time>2026-04-21T13:06:44.303Z</time></trkpt><trkpt lat="39.5059504" lon="8.4902059"><ele>187.5</ele><time>2026-04-21T13:06:45.303Z</time></trkpt><trkpt lat="39.5058478" lon="8.4901265"><ele>185.0</ele><time>2026-04-21T13:06:47.303Z</time></trkpt><trkpt lat="39.5057752" lon="8.4901098"><ele>185.0</ele><time>2026-04-21T13:06:48.304Z</time></trkpt><trkpt lat="39.5057044" lon="8.4901084"><ele>185.0</ele><time>2026-04-21T13:06:49.303Z</time></trkpt><trkpt lat="39.5056409" lon="8.4900973"><ele>185.0</ele><time>2026-04-21T13:06:50.303Z</time></trkpt><trkpt lat="39.5055422" lon="8.490079"><ele>185.0</ele><time>2026-04-21T13:06:52.304Z</time></trkpt><trkpt lat="39.5054518" lon="8.4900804"><ele>185.0</ele><time>2026-04-21T13:06:54.304Z</time></trkpt><trkpt lat="39.5053825" lon="8.4900188"><ele>185.0</ele><time>2026-04-21T13:06:56.303Z</time></trkpt><trkpt lat="39.5053824" lon="8.4898987"><ele>185.0</ele><time>2026-04-21T13:06:58.304Z</time></trkpt><trkpt lat="39.5054068" lon="8.4897674"><ele>185.0</ele><time>2026-04-21T13:07:00.303Z</time></trkpt><trkpt lat="39.5054512" lon="8.4896489"><ele>185.0</ele><time>2026-04-21T13:07:02.304Z</time></trkpt><trkpt lat="39.5055309" lon="8.4895462"><ele>185.0</ele><time>2026-04-21T13:07:04.303Z</time></trkpt><trkpt lat="39.505573" lon="8.489452"><ele>185.0</ele><time>2026-04-21T13:07:06.304Z</time></trkpt><trkpt lat="39.5055825" lon="8.4893348"><ele>183.0</ele><time>2026-04-21T13:07:08.304Z</time></trkpt><trkpt lat="39.5056137" lon="8.489192"><ele>181.0</ele><time>2026-04-21T13:07:10.304Z</time></trkpt><trkpt lat="39.5056464" lon="8.4891108"><ele>179.0</ele><time>2026-04-21T13:07:11.303Z</time></trkpt><trkpt lat="39.5056794" lon="8.4890301"><ele>177.0</ele><time>2026-04-21T13:07:12.304Z</time></trkpt><trkpt lat="39.5057126" lon="8.4889597"><ele>175.0</ele><time>2026-04-21T13:07:13.304Z</time></trkpt><trkpt lat="39.5057754" lon="8.4888487"><ele>173.0</ele><time>2026-04-21T13:07:15.304Z</time></trkpt><trkpt lat="39.50581" lon="8.4887396"><ele>171.2</ele><time>2026-04-21T13:07:17.304Z</time></trkpt><trkpt lat="39.505763" lon="8.4886361"><ele>169.4</ele><time>2026-04-21T13:07:19.303Z</time></trkpt><trkpt lat="39.505659" lon="8.4886082"><ele>167.6</ele><time>2026-04-21T13:07:21.303Z</time></trkpt><trkpt lat="39.5055512" lon="8.4886342"><ele>165.79999999999998</ele><time>2026-04-21T13:07:23.303Z</time></trkpt><trkpt lat="39.5054575" lon="8.4886786"><ele>164.0</ele><time>2026-04-21T13:07:25.303Z</time></trkpt><trkpt lat="39.5053412" lon="8.4887384"><ele>167.0</ele><time>2026-04-21T13:07:27.303Z</time></trkpt><trkpt lat="39.5052738" lon="8.4887684"><ele>170.0</ele><time>2026-04-21T13:07:28.303Z</time></trkpt><trkpt lat="39.5052081" lon="8.488802"><ele>173.0</ele><time>2026-04-21T13:07:29.304Z</time></trkpt><trkpt lat="39.5051042" lon="8.48886"><ele>176.0</ele><time>2026-04-21T13:07:31.304Z</time></trkpt><trkpt lat="39.5050167" lon="8.488839"><ele>179.0</ele><time>2026-04-21T13:07:33.304Z</time></trkpt><trkpt lat="39.5049352" lon="8.4887782"><ele>182.0</ele><time>2026-04-21T13:07:35.304Z</time></trkpt><trkpt lat="39.5048424" lon="8.4887711"><ele>182.0</ele><time>2026-04-21T13:07:37.304Z</time></trkpt><trkpt lat="39.5047797" lon="8.4887894"><ele>182.0</ele><time>2026-04-21T13:07:38.304Z</time></trkpt><trkpt lat="39.5047083" lon="8.4888184"><ele>182.0</ele><time>2026-04-21T13:07:39.304Z</time></trkpt><trkpt lat="39.5046342" lon="8.4888561"><ele>182.0</ele><time>2026-04-21T13:07:40.303Z</time></trkpt><trkpt lat="39.5045651" lon="8.488892"><ele>182.0</ele><time>2026-04-21T13:07:41.303Z</time></trkpt><trkpt lat="39.5045058" lon="8.4889223"><ele>182.0</ele><time>2026-04-21T13:07:42.303Z</time></trkpt><trkpt lat="39.504418" lon="8.4889546"><ele>182.0</ele><time>2026-04-21T13:07:44.304Z</time></trkpt><trkpt lat="39.5043486" lon="8.4889124"><ele>182.2</ele><time>2026-04-21T13:07:46.304Z</time></trkpt><trkpt lat="39.5043485" lon="8.4888199"><ele>182.39999999999998</ele><time>2026-04-21T13:07:48.303Z</time></trkpt><trkpt lat="39.5044298" lon="8.4887184"><ele>182.60000000000002</ele><time>2026-04-21T13:07:50.304Z</time></trkpt><trkpt lat="39.5044998" lon="8.4885881"><ele>182.8</ele><time>2026-04-21T13:07:52.303Z</time></trkpt><trkpt lat="39.5045246" lon="8.4884318"><ele>183.0</ele><time>2026-04-21T13:07:54.304Z</time></trkpt><trkpt lat="39.5045452" lon="8.4883538"><ele>181.66666666666666</ele><time>2026-04-21T13:07:55.304Z</time></trkpt><trkpt lat="39.5045754" lon="8.4882737"><ele>180.33333333333334</ele><time>2026-04-21T13:07:56.304Z</time></trkpt><trkpt lat="39.5046142" lon="8.4881979"><ele>179.0</ele><time>2026-04-21T13:07:57.303Z</time></trkpt><trkpt lat="39.5046594" lon="8.4881322"><ele>177.66666666666669</ele><time>2026-04-21T13:07:58.303Z</time></trkpt><trkpt lat="39.5047093" lon="8.4880757"><ele>176.33333333333334</ele><time>2026-04-21T13:07:59.304Z</time></trkpt><trkpt lat="39.504762" lon="8.4880219"><ele>175.0</ele><time>2026-04-21T13:08:00.303Z</time></trkpt><trkpt lat="39.5048459" lon="8.4879119"><ele>173.14285714285714</ele><time>2026-04-21T13:08:02.303Z</time></trkpt><trkpt lat="39.5048712" lon="8.4878302"><ele>171.28571428571428</ele><time>2026-04-21T13:08:03.304Z</time></trkpt><trkpt lat="39.5048945" lon="8.4877371"><ele>169.42857142857144</ele><time>2026-04-21T13:08:04.304Z</time></trkpt><trkpt lat="39.5049227" lon="8.4876463"><ele>167.57142857142856</ele><time>2026-04-21T13:08:05.303Z</time></trkpt><trkpt lat="39.5049542" lon="8.4875628"><ele>165.71428571428572</ele><time>2026-04-21T13:08:06.304Z</time></trkpt><trkpt lat="39.5049908" lon="8.4874829"><ele>163.85714285714286</ele><time>2026-04-21T13:08:07.303Z</time></trkpt><trkpt lat="39.5050266" lon="8.4874001"><ele>162.0</ele><time>2026-04-21T13:08:08.304Z</time></trkpt><trkpt lat="39.5050568" lon="8.4873128"><ele>162.0</ele><time>2026-04-21T13:08:09.303Z</time></trkpt><trkpt lat="39.5050785" lon="8.4872276"><ele>162.0</ele><time>2026-04-21T13:08:10.304Z</time></trkpt><trkpt lat="39.5051419" lon="8.4870914"><ele>162.0</ele><time>2026-04-21T13:08:12.303Z</time></trkpt><trkpt lat="39.5051828" lon="8.4870266"><ele>162.0</ele><time>2026-04-21T13:08:13.304Z</time></trkpt><trkpt lat="39.5052242" lon="8.4869059"><ele>162.0</ele><time>2026-04-21T13:08:15.303Z</time></trkpt><trkpt lat="39.5051667" lon="8.4867733"><ele>161.16666666666666</ele><time>2026-04-21T13:08:17.304Z</time></trkpt><trkpt lat="39.5050999" lon="8.4866627"><ele>160.33333333333334</ele><time>2026-04-21T13:08:19.303Z</time></trkpt><trkpt lat="39.5051184" lon="8.4865471"><ele>159.5</ele><time>2026-04-21T13:08:21.303Z</time></trkpt><trkpt lat="39.5051627" lon="8.4864801"><ele>158.66666666666669</ele><time>2026-04-21T13:08:22.304Z</time></trkpt><trkpt lat="39.5052223" lon="8.4864141"><ele>157.83333333333334</ele><time>2026-04-21T13:08:23.304Z</time></trkpt><trkpt lat="39.5052735" lon="8.4863548"><ele>157.0</ele><time>2026-04-21T13:08:24.303Z</time></trkpt><trkpt lat="39.5053276" lon="8.4862413"><ele>155.75</ele><time>2026-04-21T13:08:26.304Z</time></trkpt><trkpt lat="39.5052993" lon="8.4861125"><ele>154.5</ele><time>2026-04-21T13:08:28.304Z</time></trkpt><trkpt lat="39.505202" lon="8.4860665"><ele>153.25</ele><time>2026-04-21T13:08:30.304Z</time></trkpt><trkpt lat="39.5050877" lon="8.4861217"><ele>152.0</ele><time>2026-04-21T13:08:32.304Z</time></trkpt><trkpt lat="39.5049762" lon="8.4862007"><ele>152.0</ele><time>2026-04-21T13:08:34.303Z</time></trkpt><trkpt lat="39.5049179" lon="8.4862556"><ele>152.0</ele><time>2026-04-21T13:08:35.303Z</time></trkpt><trkpt lat="39.5048552" lon="8.4863023"><ele>152.0</ele><time>2026-04-21T13:08:36.303Z</time></trkpt><trkpt lat="39.504782" lon="8.4863339"><ele>152.0</ele><time>2026-04-21T13:08:37.304Z</time></trkpt><trkpt lat="39.5047148" lon="8.4863512"><ele>152.0</ele><time>2026-04-21T13:08:38.303Z</time></trkpt><trkpt lat="39.5046423" lon="8.4863442"><ele>152.0</ele><time>2026-04-21T13:08:39.304Z</time></trkpt><trkpt lat="39.5045693" lon="8.4863238"><ele>152.0</ele><time>2026-04-21T13:08:40.304Z</time></trkpt><trkpt lat="39.5044942" lon="8.4863012"><ele>151.85714285714286</ele><time>2026-04-21T13:08:41.304Z</time></trkpt><trkpt lat="39.5044238" lon="8.4862823"><ele>151.71428571428572</ele><time>2026-04-21T13:08:42.304Z</time></trkpt><trkpt lat="39.5043598" lon="8.4862635"><ele>151.57142857142858</ele><time>2026-04-21T13:08:43.304Z</time></trkpt><trkpt lat="39.5042885" lon="8.4862389"><ele>151.42857142857144</ele><time>2026-04-21T13:08:44.304Z</time></trkpt><trkpt lat="39.5042279" lon="8.4861948"><ele>151.28571428571428</ele><time>2026-04-21T13:08:45.304Z</time></trkpt><trkpt lat="39.5041669" lon="8.4861483"><ele>151.14285714285717</ele><time>2026-04-21T13:08:46.304Z</time></trkpt><trkpt lat="39.5041134" lon="8.4860994"><ele>151.0</ele><time>2026-04-21T13:08:47.303Z</time></trkpt><trkpt lat="39.5040633" lon="8.4860484"><ele>147.5</ele><time>2026-04-21T13:08:48.304Z</time></trkpt><trkpt lat="39.5039581" lon="8.4859865"><ele>144.0</ele><time>2026-04-21T13:08:50.303Z</time></trkpt><trkpt lat="39.5038383" lon="8.486009"><ele>140.5</ele><time>2026-04-21T13:08:52.303Z</time></trkpt><trkpt lat="39.5037699" lon="8.486108"><ele>137.0</ele><time>2026-04-21T13:08:54.304Z</time></trkpt><trkpt lat="39.5037957" lon="8.4862597"><ele>138.5</ele><time>2026-04-21T13:08:56.303Z</time></trkpt><trkpt lat="39.5038359" lon="8.486334"><ele>140.0</ele><time>2026-04-21T13:08:57.303Z</time></trkpt><trkpt lat="39.5038777" lon="8.4863982"><ele>141.5</ele><time>2026-04-21T13:08:58.303Z</time></trkpt><trkpt lat="39.5039261" lon="8.4865266"><ele>143.0</ele><time>2026-04-21T13:09:00.304Z</time></trkpt><trkpt lat="39.5038991" lon="8.4866258"><ele>144.5</ele><time>2026-04-21T13:09:02.303Z</time></trkpt><trkpt lat="39.5038202" lon="8.4866413"><ele>146.0</ele><time>2026-04-21T13:09:04.304Z</time></trkpt><trkpt lat="39.5037224" lon="8.4866016"><ele>146.0</ele><time>2026-04-21T13:09:06.303Z</time></trkpt><trkpt lat="39.5036066" lon="8.4865267"><ele>146.0</ele><time>2026-04-21T13:09:08.303Z</time></trkpt><trkpt lat="39.5035486" lon="8.4864848"><ele>146.0</ele><time>2026-04-21T13:09:09.304Z</time></trkpt><trkpt lat="39.5034612" lon="8.4864117"><ele>146.0</ele><time>2026-04-21T13:09:11.303Z</time></trkpt><trkpt lat="39.5033757" lon="8.4864148"><ele>146.0</ele><time>2026-04-21T13:09:13.303Z</time></trkpt><trkpt lat="39.5032839" lon="8.4864571"><ele>146.0</ele><time>2026-04-21T13:09:15.303Z</time></trkpt><trkpt lat="39.5031947" lon="8.486513"><ele>146.0</ele><time>2026-04-21T13:09:17.304Z</time></trkpt><trkpt lat="39.5031282" lon="8.4865966"><ele>146.0</ele><time>2026-04-21T13:09:19.303Z</time></trkpt><trkpt lat="39.5030518" lon="8.4866279"><ele>146.0</ele><time>2026-04-21T13:09:21.304Z</time></trkpt><trkpt lat="39.502997" lon="8.486566"><ele>146.0</ele><time>2026-04-21T13:09:23.303Z</time></trkpt><trkpt lat="39.5029818" lon="8.4864176"><ele>146.0</ele><time>2026-04-21T13:09:25.304Z</time></trkpt><trkpt lat="39.5030015" lon="8.4863299"><ele>146.0</ele><time>2026-04-21T13:09:26.304Z</time></trkpt><trkpt lat="39.5030737" lon="8.4861988"><ele>146.0</ele><time>2026-04-21T13:09:28.304Z</time></trkpt><trkpt lat="39.5031147" lon="8.4861231"><ele>146.0</ele><time>2026-04-21T13:09:29.303Z</time></trkpt><trkpt lat="39.5031447" lon="8.4860411"><ele>146.0</ele><time>2026-04-21T13:09:30.303Z</time></trkpt><trkpt lat="39.5031657" lon="8.4859562"><ele>146.0</ele><time>2026-04-21T13:09:31.303Z</time></trkpt><trkpt lat="39.5031966" lon="8.4858147"><ele>143.6</ele><time>2026-04-21T13:09:33.303Z</time></trkpt><trkpt lat="39.5031842" lon="8.4856775"><ele>141.2</ele><time>2026-04-21T13:09:35.304Z</time></trkpt><trkpt lat="39.5031578" lon="8.4855428"><ele>138.8</ele><time>2026-04-21T13:09:37.303Z</time></trkpt><trkpt lat="39.50311" lon="8.4854575"><ele>136.4</ele><time>2026-04-21T13:09:39.303Z</time></trkpt><trkpt lat="39.503044" lon="8.4853824"><ele>134.0</ele><time>2026-04-21T13:09:41.303Z</time></trkpt><trkpt lat="39.5030111" lon="8.485281"><ele>132.6</ele><time>2026-04-21T13:09:43.304Z</time></trkpt><trkpt lat="39.5030481" lon="8.48517"><ele>131.2</ele><time>2026-04-21T13:09:45.303Z</time></trkpt><trkpt lat="39.5031076" lon="8.4850784"><ele>129.79999999999998</ele><time>2026-04-21T13:09:47.304Z</time></trkpt><trkpt lat="39.5031686" lon="8.4849774"><ele>128.4</ele><time>2026-04-21T13:09:49.304Z</time></trkpt><trkpt lat="39.5032516" lon="8.4848677"><ele>127.0</ele><time>2026-04-21T13:09:51.304Z</time></trkpt><trkpt lat="39.5033161" lon="8.4847768"><ele>127.0</ele><time>2026-04-21T13:09:53.303Z</time></trkpt><trkpt lat="39.5033214" lon="8.4846649"><ele>126.99999999999999</ele><time>2026-04-21T13:09:55.304Z</time></trkpt><trkpt lat="39.5032754" lon="8.4845413"><ele>126.99999999999999</ele><time>2026-04-21T13:09:57.304Z</time></trkpt><trkpt lat="39.503237" lon="8.4844229"><ele>127.0</ele><time>2026-04-21T13:09:59.303Z</time></trkpt><trkpt lat="39.5031712" lon="8.4843081"><ele>127.0</ele><time>2026-04-21T13:10:01.304Z</time></trkpt><trkpt lat="39.5030834" lon="8.4842265"><ele>126.50000000000001</ele><time>2026-04-21T13:10:03.303Z</time></trkpt><trkpt lat="39.5029958" lon="8.484214"><ele>126.0</ele><time>2026-04-21T13:10:05.304Z</time></trkpt><trkpt lat="39.5029423" lon="8.4841474"><ele>125.5</ele><time>2026-04-21T13:10:08.304Z</time></trkpt><trkpt lat="39.5029761" lon="8.4840309"><ele>125.0</ele><time>2026-04-21T13:10:11.304Z</time></trkpt><trkpt lat="39.5030294" lon="8.4839077"><ele>124.50000000000001</ele><time>2026-04-21T13:10:13.304Z</time></trkpt><trkpt lat="39.5030666" lon="8.4838372"><ele>124.0</ele><time>2026-04-21T13:10:14.304Z</time></trkpt><trkpt lat="39.5031016" lon="8.4837683"><ele>122.6</ele><time>2026-04-21T13:10:15.304Z</time></trkpt><trkpt lat="39.5031311" lon="8.4836209"><ele>121.2</ele><time>2026-04-21T13:10:17.303Z</time></trkpt><trkpt lat="39.503157" lon="8.4834942"><ele>119.79999999999998</ele><time>2026-04-21T13:10:19.303Z</time></trkpt><trkpt lat="39.5031741" lon="8.4833844"><ele>118.39999999999999</ele><time>2026-04-21T13:10:21.304Z</time></trkpt><trkpt lat="39.5031853" lon="8.483256"><ele>117.0</ele><time>2026-04-21T13:10:23.304Z</time></trkpt><trkpt lat="39.5032148" lon="8.4831001"><ele>117.0</ele><time>2026-04-21T13:10:25.302Z</time></trkpt><trkpt lat="39.5032395" lon="8.4829787"><ele>117.0</ele><time>2026-04-21T13:10:27.302Z</time></trkpt><trkpt lat="39.5031741" lon="8.4829361"><ele>117.0</ele><time>2026-04-21T13:11:19.303Z</time></trkpt><trkpt lat="39.5031058" lon="8.4829787"><ele>117.0</ele><time>2026-04-21T13:11:21.303Z</time></trkpt><trkpt lat="39.5030337" lon="8.4830355"><ele>117.0</ele><time>2026-04-21T13:11:23.303Z</time></trkpt><trkpt lat="39.5029325" lon="8.4831078"><ele>117.0</ele><time>2026-04-21T13:11:25.302Z</time></trkpt><trkpt lat="39.5028792" lon="8.483155"><ele>117.0</ele><time>2026-04-21T13:11:26.303Z</time></trkpt><trkpt lat="39.5028276" lon="8.4832232"><ele>117.00000000000001</ele><time>2026-04-21T13:11:27.302Z</time></trkpt><trkpt lat="39.5027755" lon="8.4832968"><ele>117.0</ele><time>2026-04-21T13:11:28.302Z</time></trkpt><trkpt lat="39.5027145" lon="8.4833604"><ele>117.0</ele><time>2026-04-21T13:11:29.303Z</time></trkpt><trkpt lat="39.5026478" lon="8.4834095"><ele>117.00000000000001</ele><time>2026-04-21T13:11:30.303Z</time></trkpt><trkpt lat="39.5025852" lon="8.4834461"><ele>117.0</ele><time>2026-04-21T13:11:31.303Z</time></trkpt><trkpt lat="39.5025208" lon="8.4834767"><ele>117.0</ele><time>2026-04-21T13:11:32.303Z</time></trkpt><trkpt lat="39.5024498" lon="8.4834888"><ele>117.0</ele><time>2026-04-21T13:11:33.302Z</time></trkpt><trkpt lat="39.5023774" lon="8.4834918"><ele>117.00000000000001</ele><time>2026-04-21T13:11:34.303Z</time></trkpt><trkpt lat="39.5023078" lon="8.4834895"><ele>117.0</ele><time>2026-04-21T13:11:35.303Z</time></trkpt><trkpt lat="39.502238" lon="8.4834902"><ele>117.0</ele><time>2026-04-21T13:11:36.303Z</time></trkpt><trkpt lat="39.5021721" lon="8.4835028"><ele>117.00000000000001</ele><time>2026-04-21T13:11:37.302Z</time></trkpt><trkpt lat="39.5021065" lon="8.483539"><ele>117.0</ele><time>2026-04-21T13:11:38.302Z</time></trkpt><trkpt lat="39.5020418" lon="8.4835783"><ele>117.0</ele><time>2026-04-21T13:11:39.303Z</time></trkpt><trkpt lat="39.5019777" lon="8.4836008"><ele>116.39999999999999</ele><time>2026-04-21T13:11:40.303Z</time></trkpt><trkpt lat="39.501904" lon="8.4836056"><ele>115.79999999999998</ele><time>2026-04-21T13:11:41.302Z</time></trkpt><trkpt lat="39.5018332" lon="8.4836029"><ele>115.2</ele><time>2026-04-21T13:11:42.303Z</time></trkpt><trkpt lat="39.5017118" lon="8.4835993"><ele>114.6</ele><time>2026-04-21T13:11:44.303Z</time></trkpt><trkpt lat="39.5016001" lon="8.4835585"><ele>114.0</ele><time>2026-04-21T13:11:46.303Z</time></trkpt><trkpt lat="39.5015017" lon="8.4834883"><ele>114.0</ele><time>2026-04-21T13:11:48.302Z</time></trkpt><trkpt lat="39.5013938" lon="8.4834207"><ele>114.0</ele><time>2026-04-21T13:11:50.303Z</time></trkpt><trkpt lat="39.5012896" lon="8.4833257"><ele>114.0</ele><time>2026-04-21T13:11:52.303Z</time></trkpt><trkpt lat="39.501229" lon="8.4832749"><ele>114.0</ele><time>2026-04-21T13:11:53.303Z</time></trkpt><trkpt lat="39.5011626" lon="8.4832329"><ele>114.0</ele><time>2026-04-21T13:11:54.303Z</time></trkpt><trkpt lat="39.5010952" lon="8.483198"><ele>113.4</ele><time>2026-04-21T13:11:55.303Z</time></trkpt><trkpt lat="39.5010347" lon="8.4831693"><ele>112.80000000000001</ele><time>2026-04-21T13:11:56.303Z</time></trkpt><trkpt lat="39.5009145" lon="8.4830937"><ele>112.19999999999999</ele><time>2026-04-21T13:11:58.303Z</time></trkpt><trkpt lat="39.5008314" lon="8.4830427"><ele>111.6</ele><time>2026-04-21T13:11:59.303Z</time></trkpt><trkpt lat="39.500743" lon="8.4829825"><ele>111.0</ele><time>2026-04-21T13:12:00.302Z</time></trkpt><trkpt lat="39.5006569" lon="8.4829138"><ele>111.0</ele><time>2026-04-21T13:12:01.302Z</time></trkpt><trkpt lat="39.5005761" lon="8.4828441"><ele>111.0</ele><time>2026-04-21T13:12:02.302Z</time></trkpt><trkpt lat="39.500498" lon="8.4827814"><ele>111.0</ele><time>2026-04-21T13:12:03.302Z</time></trkpt><trkpt lat="39.50041" lon="8.4827393"><ele>111.0</ele><time>2026-04-21T13:12:04.302Z</time></trkpt><trkpt lat="39.5003147" lon="8.4827032"><ele>111.0</ele><time>2026-04-21T13:12:05.303Z</time></trkpt><trkpt lat="39.5002223" lon="8.4826868"><ele>112.33333333333333</ele><time>2026-04-21T13:12:06.302Z</time></trkpt><trkpt lat="39.5001369" lon="8.4826736"><ele>113.66666666666666</ele><time>2026-04-21T13:12:07.303Z</time></trkpt><trkpt lat="39.5000591" lon="8.4826476"><ele>115.0</ele><time>2026-04-21T13:12:08.303Z</time></trkpt><trkpt lat="39.4999997" lon="8.482618"><ele>116.33333333333333</ele><time>2026-04-21T13:12:09.303Z</time></trkpt><trkpt lat="39.499937" lon="8.4825956"><ele>117.66666666666666</ele><time>2026-04-21T13:12:10.302Z</time></trkpt><trkpt lat="39.4998643" lon="8.4825739"><ele>119.0</ele><time>2026-04-21T13:12:11.303Z</time></trkpt><trkpt lat="39.4997841" lon="8.4825432"><ele>118.99999999999999</ele><time>2026-04-21T13:12:12.303Z</time></trkpt><trkpt lat="39.4996939" lon="8.4824954"><ele>119.0</ele><time>2026-04-21T13:12:13.303Z</time></trkpt><trkpt lat="39.4996074" lon="8.4824482"><ele>119.0</ele><time>2026-04-21T13:12:14.303Z</time></trkpt><trkpt lat="39.4995232" lon="8.4824177"><ele>119.0</ele><time>2026-04-21T13:12:15.303Z</time></trkpt><trkpt lat="39.4994399" lon="8.4824043"><ele>118.99999999999999</ele><time>2026-04-21T13:12:16.302Z</time></trkpt><trkpt lat="39.4993638" lon="8.4823964"><ele>119.0</ele><time>2026-04-21T13:12:17.302Z</time></trkpt><trkpt lat="39.499287" lon="8.4823777"><ele>121.33333333333333</ele><time>2026-04-21T13:12:18.303Z</time></trkpt><trkpt lat="39.4992157" lon="8.4823564"><ele>123.66666666666666</ele><time>2026-04-21T13:12:19.302Z</time></trkpt><trkpt lat="39.4991385" lon="8.4823243"><ele>126.0</ele><time>2026-04-21T13:12:20.303Z</time></trkpt><trkpt lat="39.4990621" lon="8.4822848"><ele>128.33333333333334</ele><time>2026-04-21T13:12:21.303Z</time></trkpt><trkpt lat="39.4989875" lon="8.4822424"><ele>130.66666666666669</ele><time>2026-04-21T13:12:22.303Z</time></trkpt><trkpt lat="39.4989115" lon="8.4821887"><ele>133.0</ele><time>2026-04-21T13:12:23.303Z</time></trkpt><trkpt lat="39.4988301" lon="8.4821297"><ele>131.33333333333334</ele><time>2026-04-21T13:12:24.303Z</time></trkpt><trkpt lat="39.4987492" lon="8.4820654"><ele>129.66666666666669</ele><time>2026-04-21T13:12:25.303Z</time></trkpt><trkpt lat="39.4986758" lon="8.4819969"><ele>128.0</ele><time>2026-04-21T13:12:26.302Z</time></trkpt><trkpt lat="39.4986126" lon="8.4819338"><ele>126.33333333333334</ele><time>2026-04-21T13:12:27.303Z</time></trkpt><trkpt lat="39.4985589" lon="8.4818793"><ele>124.66666666666667</ele><time>2026-04-21T13:12:28.302Z</time></trkpt><trkpt lat="39.498466" lon="8.4818203"><ele>123.0</ele><time>2026-04-21T13:12:30.303Z</time></trkpt><trkpt lat="39.4983723" lon="8.481797"><ele>123.0</ele><time>2026-04-21T13:12:32.303Z</time></trkpt><trkpt lat="39.4982886" lon="8.4818421"><ele>123.00000000000001</ele><time>2026-04-21T13:12:34.302Z</time></trkpt><trkpt lat="39.4982322" lon="8.4819045"><ele>123.00000000000001</ele><time>2026-04-21T13:12:36.302Z</time></trkpt><trkpt lat="39.498185" lon="8.482006"><ele>123.0</ele><time>2026-04-21T13:12:38.303Z</time></trkpt><trkpt lat="39.4981387" lon="8.4821368"><ele>123.0</ele><time>2026-04-21T13:12:40.303Z</time></trkpt><trkpt lat="39.4980655" lon="8.4822643"><ele>124.0</ele><time>2026-04-21T13:12:42.303Z</time></trkpt><trkpt lat="39.4980187" lon="8.4823193"><ele>125.0</ele><time>2026-04-21T13:12:43.302Z</time></trkpt><trkpt lat="39.4979206" lon="8.4824084"><ele>126.0</ele><time>2026-04-21T13:12:45.302Z</time></trkpt><trkpt lat="39.4978428" lon="8.4824502"><ele>127.0</ele><time>2026-04-21T13:12:47.302Z</time></trkpt><trkpt lat="39.4977786" lon="8.4824882"><ele>128.0</ele><time>2026-04-21T13:12:49.302Z</time></trkpt><trkpt lat="39.4977342" lon="8.4825855"><ele>129.0</ele><time>2026-04-21T13:12:51.303Z</time></trkpt><trkpt lat="39.4977209" lon="8.482746"><ele>129.0</ele><time>2026-04-21T13:12:53.302Z</time></trkpt><trkpt lat="39.4977113" lon="8.4828345"><ele>129.0</ele><time>2026-04-21T13:12:54.303Z</time></trkpt><trkpt lat="39.4976912" lon="8.4829261"><ele>129.0</ele><time>2026-04-21T13:12:55.302Z</time></trkpt><trkpt lat="39.4976745" lon="8.4830077"><ele>129.0</ele><time>2026-04-21T13:12:56.303Z</time></trkpt><trkpt lat="39.4976658" lon="8.4831481"><ele>129.0</ele><time>2026-04-21T13:12:58.302Z</time></trkpt><trkpt lat="39.4977221" lon="8.4832865"><ele>129.0</ele><time>2026-04-21T13:13:00.303Z</time></trkpt><trkpt lat="39.4977613" lon="8.4833616"><ele>130.4</ele><time>2026-04-21T13:13:01.303Z</time></trkpt><trkpt lat="39.4978004" lon="8.4834315"><ele>131.8</ele><time>2026-04-21T13:13:02.302Z</time></trkpt><trkpt lat="39.4978582" lon="8.4835454"><ele>133.2</ele><time>2026-04-21T13:13:04.303Z</time></trkpt><trkpt lat="39.497906" lon="8.4836371"><ele>134.6</ele><time>2026-04-21T13:13:06.302Z</time></trkpt><trkpt lat="39.4979607" lon="8.4837335"><ele>136.0</ele><time>2026-04-21T13:13:08.302Z</time></trkpt><trkpt lat="39.4980321" lon="8.4838427"><ele>136.6</ele><time>2026-04-21T13:13:10.302Z</time></trkpt><trkpt lat="39.4980719" lon="8.4839144"><ele>137.2</ele><time>2026-04-21T13:13:11.303Z</time></trkpt><trkpt lat="39.4981108" lon="8.4839923"><ele>137.8</ele><time>2026-04-21T13:13:12.302Z</time></trkpt><trkpt lat="39.4981525" lon="8.4840644"><ele>138.4</ele><time>2026-04-21T13:13:13.302Z</time></trkpt><trkpt lat="39.4982135" lon="8.4841934"><ele>139.0</ele><time>2026-04-21T13:13:15.302Z</time></trkpt><trkpt lat="39.4982519" lon="8.4843503"><ele>139.0</ele><time>2026-04-21T13:13:17.302Z</time></trkpt><trkpt lat="39.4982607" lon="8.4844372"><ele>139.0</ele><time>2026-04-21T13:13:18.303Z</time></trkpt><trkpt lat="39.498264" lon="8.4845318"><ele>139.0</ele><time>2026-04-21T13:13:19.302Z</time></trkpt><trkpt lat="39.4982594" lon="8.4846325"><ele>139.0</ele><time>2026-04-21T13:13:20.302Z</time></trkpt><trkpt lat="39.4982548" lon="8.4847389"><ele>139.0</ele><time>2026-04-21T13:13:21.302Z</time></trkpt><trkpt lat="39.4982524" lon="8.4848635"><ele>139.0</ele><time>2026-04-21T13:13:22.303Z</time></trkpt><trkpt lat="39.4982506" lon="8.4849856"><ele>139.8</ele><time>2026-04-21T13:13:23.302Z</time></trkpt><trkpt lat="39.4982611" lon="8.4851009"><ele>140.60000000000002</ele><time>2026-04-21T13:13:24.303Z</time></trkpt><trkpt lat="39.4982661" lon="8.4852094"><ele>141.4</ele><time>2026-04-21T13:13:25.303Z</time></trkpt><trkpt lat="39.4982635" lon="8.4853034"><ele>142.20000000000002</ele><time>2026-04-21T13:13:26.303Z</time></trkpt><trkpt lat="39.4983" lon="8.4854615"><ele>143.0</ele><time>2026-04-21T13:13:28.303Z</time></trkpt><trkpt lat="39.4983438" lon="8.485546"><ele>143.0</ele><time>2026-04-21T13:13:29.303Z</time></trkpt><trkpt lat="39.4983886" lon="8.4856316"><ele>143.0</ele><time>2026-04-21T13:13:30.303Z</time></trkpt><trkpt lat="39.4984208" lon="8.485713"><ele>143.0</ele><time>2026-04-21T13:13:31.303Z</time></trkpt><trkpt lat="39.4984593" lon="8.4857905"><ele>143.0</ele><time>2026-04-21T13:13:32.303Z</time></trkpt><trkpt lat="39.4985606" lon="8.4859097"><ele>143.0</ele><time>2026-04-21T13:13:34.302Z</time></trkpt><trkpt lat="39.4986202" lon="8.4859658"><ele>143.0</ele><time>2026-04-21T13:13:35.303Z</time></trkpt><trkpt lat="39.4986767" lon="8.4860298"><ele>143.0</ele><time>2026-04-21T13:13:36.303Z</time></trkpt><trkpt lat="39.4987182" lon="8.4861049"><ele>143.0</ele><time>2026-04-21T13:13:37.302Z</time></trkpt><trkpt lat="39.4987396" lon="8.4861841"><ele>143.0</ele><time>2026-04-21T13:13:38.303Z</time></trkpt><trkpt lat="39.4987377" lon="8.4862796"><ele>143.0</ele><time>2026-04-21T13:13:39.302Z</time></trkpt><trkpt lat="39.4987235" lon="8.4863814"><ele>143.0</ele><time>2026-04-21T13:13:40.302Z</time></trkpt><trkpt lat="39.4987027" lon="8.4864901"><ele>143.0</ele><time>2026-04-21T13:13:41.302Z</time></trkpt><trkpt lat="39.4986941" lon="8.4865986"><ele>145.0</ele><time>2026-04-21T13:13:42.303Z</time></trkpt><trkpt lat="39.4987012" lon="8.4867106"><ele>147.0</ele><time>2026-04-21T13:13:43.302Z</time></trkpt><trkpt lat="39.4987091" lon="8.4868245"><ele>149.0</ele><time>2026-04-21T13:13:44.302Z</time></trkpt><trkpt lat="39.4987235" lon="8.4869396"><ele>151.0</ele><time>2026-04-21T13:13:45.303Z</time></trkpt><trkpt lat="39.4987397" lon="8.487044"><ele>153.0</ele><time>2026-04-21T13:13:46.303Z</time></trkpt><trkpt lat="39.498749" lon="8.4871429"><ele>155.0</ele><time>2026-04-21T13:13:47.303Z</time></trkpt><trkpt lat="39.4987492" lon="8.4872308"><ele>156.14285714285714</ele><time>2026-04-21T13:13:48.303Z</time></trkpt><trkpt lat="39.4987396" lon="8.4873195"><ele>157.28571428571428</ele><time>2026-04-21T13:13:49.302Z</time></trkpt><trkpt lat="39.4987258" lon="8.4874064"><ele>158.42857142857144</ele><time>2026-04-21T13:13:50.302Z</time></trkpt><trkpt lat="39.4987074" lon="8.4874921"><ele>159.57142857142856</ele><time>2026-04-21T13:13:51.303Z</time></trkpt><trkpt lat="39.4986934" lon="8.4875834"><ele>160.7142857142857</ele><time>2026-04-21T13:13:52.303Z</time></trkpt><trkpt lat="39.4986756" lon="8.4876789"><ele>161.85714285714286</ele><time>2026-04-21T13:13:53.303Z</time></trkpt><trkpt lat="39.4986504" lon="8.4877573"><ele>163.0</ele><time>2026-04-21T13:13:54.302Z</time></trkpt><trkpt lat="39.4986091" lon="8.4878267"><ele>163.0</ele><time>2026-04-21T13:13:55.302Z</time></trkpt><trkpt lat="39.4985571" lon="8.4878935"><ele>163.0</ele><time>2026-04-21T13:13:56.303Z</time></trkpt><trkpt lat="39.4984991" lon="8.4879662"><ele>163.0</ele><time>2026-04-21T13:13:57.302Z</time></trkpt><trkpt lat="39.4984452" lon="8.4880445"><ele>163.0</ele><time>2026-04-21T13:13:58.302Z</time></trkpt><trkpt lat="39.4983923" lon="8.4881281"><ele>163.0</ele><time>2026-04-21T13:13:59.303Z</time></trkpt><trkpt lat="39.4983431" lon="8.4882122"><ele>163.0</ele><time>2026-04-21T13:14:00.302Z</time></trkpt><trkpt lat="39.4983008" lon="8.4882981"><ele>163.0</ele><time>2026-04-21T13:14:01.303Z</time></trkpt><trkpt lat="39.4982583" lon="8.4883885"><ele>163.0</ele><time>2026-04-21T13:14:02.303Z</time></trkpt><trkpt lat="39.4982183" lon="8.4884813"><ele>163.0</ele><time>2026-04-21T13:14:03.303Z</time></trkpt><trkpt lat="39.4981843" lon="8.4885733"><ele>163.0</ele><time>2026-04-21T13:14:04.302Z</time></trkpt><trkpt lat="39.498147" lon="8.4886649"><ele>163.0</ele><time>2026-04-21T13:14:05.303Z</time></trkpt><trkpt lat="39.4981098" lon="8.4887612"><ele>163.0</ele><time>2026-04-21T13:14:06.302Z</time></trkpt><trkpt lat="39.4980717" lon="8.4888541"><ele>162.66666666666669</ele><time>2026-04-21T13:14:07.302Z</time></trkpt><trkpt lat="39.4980321" lon="8.4889485"><ele>162.33333333333334</ele><time>2026-04-21T13:14:08.302Z</time></trkpt><trkpt lat="39.4979916" lon="8.4890436"><ele>162.0</ele><time>2026-04-21T13:14:09.302Z</time></trkpt><trkpt lat="39.4979443" lon="8.4891431"><ele>161.66666666666666</ele><time>2026-04-21T13:14:10.303Z</time></trkpt><trkpt lat="39.4979057" lon="8.4892382"><ele>161.33333333333331</ele><time>2026-04-21T13:14:11.303Z</time></trkpt><trkpt lat="39.4978647" lon="8.4893368"><ele>161.0</ele><time>2026-04-21T13:14:12.303Z</time></trkpt><trkpt lat="39.497829" lon="8.4894242"><ele>164.20000000000002</ele><time>2026-04-21T13:14:13.303Z</time></trkpt><trkpt lat="39.4977901" lon="8.4895012"><ele>167.4</ele><time>2026-04-21T13:14:14.303Z</time></trkpt><trkpt lat="39.4977519" lon="8.4895708"><ele>170.6</ele><time>2026-04-21T13:14:15.302Z</time></trkpt><trkpt lat="39.4976949" lon="8.489696"><ele>173.8</ele><time>2026-04-21T13:14:17.302Z</time></trkpt><trkpt lat="39.4976199" lon="8.4897699"><ele>177.0</ele><time>2026-04-21T13:14:19.303Z</time></trkpt><trkpt lat="39.4975548" lon="8.4898821"><ele>177.0</ele><time>2026-04-21T13:14:21.302Z</time></trkpt><trkpt lat="39.4975801" lon="8.4900147"><ele>177.0</ele><time>2026-04-21T13:14:23.303Z</time></trkpt><trkpt lat="39.4975703" lon="8.4901551"><ele>177.0</ele><time>2026-04-21T13:14:25.303Z</time></trkpt><trkpt lat="39.4975151" lon="8.4902917"><ele>177.0</ele><time>2026-04-21T13:14:27.303Z</time></trkpt><trkpt lat="39.4974347" lon="8.4904011"><ele>175.0</ele><time>2026-04-21T13:14:29.302Z</time></trkpt><trkpt lat="39.4973296" lon="8.490476"><ele>173.0</ele><time>2026-04-21T13:14:31.302Z</time></trkpt><trkpt lat="39.4972176" lon="8.4905253"><ele>171.0</ele><time>2026-04-21T13:14:33.302Z</time></trkpt><trkpt lat="39.4971171" lon="8.490604"><ele>169.0</ele><time>2026-04-21T13:14:35.302Z</time></trkpt><trkpt lat="39.4970825" lon="8.4907696"><ele>173.5</ele><time>2026-04-21T13:14:37.303Z</time></trkpt><trkpt lat="39.4970671" lon="8.4908559"><ele>178.0</ele><time>2026-04-21T13:14:38.303Z</time></trkpt><trkpt lat="39.4969945" lon="8.4909824"><ele>182.5</ele><time>2026-04-21T13:14:40.302Z</time></trkpt><trkpt lat="39.4969468" lon="8.4910462"><ele>187.0</ele><time>2026-04-21T13:14:41.302Z</time></trkpt><trkpt lat="39.4968486" lon="8.4911362"><ele>191.49999999999997</ele><time>2026-04-21T13:14:43.303Z</time></trkpt><trkpt lat="39.4967936" lon="8.491176"><ele>196.0</ele><time>2026-04-21T13:14:44.302Z</time></trkpt><trkpt lat="39.4967342" lon="8.4912138"><ele>193.99999999999997</ele><time>2026-04-21T13:14:45.303Z</time></trkpt><trkpt lat="39.4966754" lon="8.4912582"><ele>192.0</ele><time>2026-04-21T13:14:46.303Z</time></trkpt><trkpt lat="39.4966178" lon="8.4913165"><ele>190.0</ele><time>2026-04-21T13:14:47.303Z</time></trkpt><trkpt lat="39.4965667" lon="8.4913839"><ele>188.0</ele><time>2026-04-21T13:14:48.302Z</time></trkpt><trkpt lat="39.4965277" lon="8.4914551"><ele>186.0</ele><time>2026-04-21T13:14:49.302Z</time></trkpt><trkpt lat="39.4964474" lon="8.4915521"><ele>184.0</ele><time>2026-04-21T13:14:51.302Z</time></trkpt><trkpt lat="39.4963372" lon="8.4916099"><ele>184.0</ele><time>2026-04-21T13:14:53.302Z</time></trkpt><trkpt lat="39.4962694" lon="8.4917324"><ele>184.0</ele><time>2026-04-21T13:14:55.303Z</time></trkpt><trkpt lat="39.496234" lon="8.4918648"><ele>184.0</ele><time>2026-04-21T13:14:57.303Z</time></trkpt><trkpt lat="39.4961933" lon="8.491962"><ele>184.0</ele><time>2026-04-21T13:14:59.302Z</time></trkpt><trkpt lat="39.4960944" lon="8.4920004"><ele>184.0</ele><time>2026-04-21T13:15:01.303Z</time></trkpt><trkpt lat="39.4959811" lon="8.4920059"><ele>187.39999999999998</ele><time>2026-04-21T13:15:03.303Z</time></trkpt><trkpt lat="39.4959489" lon="8.4920971"><ele>190.8</ele><time>2026-04-21T13:15:05.302Z</time></trkpt><trkpt lat="39.4959853" lon="8.4922307"><ele>194.2</ele><time>2026-04-21T13:15:07.302Z</time></trkpt><trkpt lat="39.4959922" lon="8.4923678"><ele>197.60000000000002</ele><time>2026-04-21T13:15:09.303Z</time></trkpt><trkpt lat="39.4959299" lon="8.4924798"><ele>201.0</ele><time>2026-04-21T13:15:11.303Z</time></trkpt><trkpt lat="39.4958419" lon="8.4925616"><ele>201.0</ele><time>2026-04-21T13:15:13.303Z</time></trkpt><trkpt lat="39.4957707" lon="8.4926308"><ele>201.0</ele><time>2026-04-21T13:15:15.303Z</time></trkpt><trkpt lat="39.4956991" lon="8.4926766"><ele>201.0</ele><time>2026-04-21T13:15:17.303Z</time></trkpt><trkpt lat="39.4956042" lon="8.4927165"><ele>201.0</ele><time>2026-04-21T13:15:19.302Z</time></trkpt><trkpt lat="39.4954979" lon="8.4927649"><ele>201.0</ele><time>2026-04-21T13:15:21.302Z</time></trkpt><trkpt lat="39.495427" lon="8.4928399"><ele>200.83333333333334</ele><time>2026-04-21T13:15:23.303Z</time></trkpt><trkpt lat="39.4954367" lon="8.4929588"><ele>200.66666666666669</ele><time>2026-04-21T13:15:25.303Z</time></trkpt><trkpt lat="39.4954831" lon="8.4930327"><ele>200.5</ele><time>2026-04-21T13:15:27.303Z</time></trkpt><trkpt lat="39.4955358" lon="8.4931136"><ele>200.33333333333334</ele><time>2026-04-21T13:15:37.303Z</time></trkpt><trkpt lat="39.4955578" lon="8.493194"><ele>200.16666666666669</ele><time>2026-04-21T13:15:40.302Z</time></trkpt><trkpt lat="39.4955288" lon="8.493278"><ele>200.0</ele><time>2026-04-21T13:15:43.302Z</time></trkpt><trkpt lat="39.4954866" lon="8.4933702"><ele>200.0</ele><time>2026-04-21T13:15:45.303Z</time></trkpt><trkpt lat="39.4954417" lon="8.4935257"><ele>200.0</ele><time>2026-04-21T13:15:47.303Z</time></trkpt><trkpt lat="39.4954098" lon="8.4936564"><ele>200.0</ele><time>2026-04-21T13:15:49.302Z</time></trkpt><trkpt lat="39.4953731" lon="8.4937566"><ele>200.0</ele><time>2026-04-21T13:15:51.302Z</time></trkpt><trkpt lat="39.4953275" lon="8.4938264"><ele>200.0</ele><time>2026-04-21T13:15:53.302Z</time></trkpt><trkpt lat="39.4952824" lon="8.4939014"><ele>204.8</ele><time>2026-04-21T13:15:55.302Z</time></trkpt><trkpt lat="39.4952287" lon="8.4940025"><ele>209.6</ele><time>2026-04-21T13:15:57.303Z</time></trkpt><trkpt lat="39.4951505" lon="8.4941018"><ele>214.39999999999998</ele><time>2026-04-21T13:15:59.302Z</time></trkpt><trkpt lat="39.4950659" lon="8.4941331"><ele>219.2</ele><time>2026-04-21T13:16:01.303Z</time></trkpt><trkpt lat="39.4949815" lon="8.4941813"><ele>224.0</ele><time>2026-04-21T13:16:03.302Z</time></trkpt><trkpt lat="39.494963" lon="8.4943143"><ele>224.00000000000003</ele><time>2026-04-21T13:16:05.303Z</time></trkpt><trkpt lat="39.4949681" lon="8.4944243"><ele>224.0</ele><time>2026-04-21T13:16:07.302Z</time></trkpt><trkpt lat="39.4949593" lon="8.4945071"><ele>224.0</ele><time>2026-04-21T13:16:09.302Z</time></trkpt><trkpt lat="39.4949489" lon="8.4945953"><ele>224.0</ele><time>2026-04-21T13:16:11.303Z</time></trkpt><trkpt lat="39.4949255" lon="8.494727"><ele>224.00000000000003</ele><time>2026-04-21T13:16:13.302Z</time></trkpt><trkpt lat="39.4948987" lon="8.4948775"><ele>224.0</ele><time>2026-04-21T13:16:15.302Z</time></trkpt><trkpt lat="39.4948917" lon="8.494966"><ele>224.33333333333334</ele><time>2026-04-21T13:16:16.302Z</time></trkpt><trkpt lat="39.4948959" lon="8.4950626"><ele>224.66666666666669</ele><time>2026-04-21T13:16:17.303Z</time></trkpt><trkpt lat="39.4949128" lon="8.4951629"><ele>225.0</ele><time>2026-04-21T13:16:18.303Z</time></trkpt><trkpt lat="39.4949362" lon="8.4952635"><ele>225.33333333333331</ele><time>2026-04-21T13:16:19.302Z</time></trkpt><trkpt lat="39.4949543" lon="8.4953629"><ele>225.66666666666666</ele><time>2026-04-21T13:16:20.303Z</time></trkpt><trkpt lat="39.4949701" lon="8.4954601"><ele>226.0</ele><time>2026-04-21T13:16:21.302Z</time></trkpt><trkpt lat="39.494987" lon="8.4955486"><ele>227.83333333333331</ele><time>2026-04-21T13:16:22.302Z</time></trkpt><trkpt lat="39.4950097" lon="8.4956255"><ele>229.66666666666666</ele><time>2026-04-21T13:16:23.302Z</time></trkpt><trkpt lat="39.4950561" lon="8.4957717"><ele>231.5</ele><time>2026-04-21T13:16:25.303Z</time></trkpt><trkpt lat="39.4950757" lon="8.4958495"><ele>233.33333333333331</ele><time>2026-04-21T13:16:26.303Z</time></trkpt><trkpt lat="39.4951123" lon="8.4959222"><ele>235.16666666666666</ele><time>2026-04-21T13:16:27.302Z</time></trkpt><trkpt lat="39.4951518" lon="8.4960004"><ele>237.0</ele><time>2026-04-21T13:16:28.303Z</time></trkpt><trkpt lat="39.4951902" lon="8.4960845"><ele>237.0</ele><time>2026-04-21T13:16:29.302Z</time></trkpt><trkpt lat="39.4952179" lon="8.4961785"><ele>237.0</ele><time>2026-04-21T13:16:30.303Z</time></trkpt><trkpt lat="39.4952301" lon="8.4962825"><ele>237.0</ele><time>2026-04-21T13:16:31.302Z</time></trkpt><trkpt lat="39.4952298" lon="8.4963829"><ele>237.0</ele><time>2026-04-21T13:16:32.303Z</time></trkpt><trkpt lat="39.4952245" lon="8.4964667"><ele>237.0</ele><time>2026-04-21T13:16:33.302Z</time></trkpt><trkpt lat="39.4952059" lon="8.4965817"><ele>237.0</ele><time>2026-04-21T13:16:35.303Z</time></trkpt><trkpt lat="39.4951568" lon="8.4966538"><ele>236.99999999999997</ele><time>2026-04-21T13:16:37.302Z</time></trkpt><trkpt lat="39.4950912" lon="8.4966635"><ele>237.0</ele><time>2026-04-21T13:16:39.302Z</time></trkpt><trkpt lat="39.4950294" lon="8.4965941"><ele>236.99999999999997</ele><time>2026-04-21T13:16:42.302Z</time></trkpt><trkpt lat="39.4950265" lon="8.496485"><ele>236.99999999999997</ele><time>2026-04-21T13:16:44.302Z</time></trkpt><trkpt lat="39.4950254" lon="8.4963964"><ele>237.0</ele><time>2026-04-21T13:16:45.303Z</time></trkpt><trkpt lat="39.4950076" lon="8.4963073"><ele>236.99999999999997</ele><time>2026-04-21T13:16:46.302Z</time></trkpt><trkpt lat="39.4949838" lon="8.4962247"><ele>236.99999999999997</ele><time>2026-04-21T13:16:47.303Z</time></trkpt><trkpt lat="39.4949462" lon="8.4961464"><ele>237.0</ele><time>2026-04-21T13:16:48.303Z</time></trkpt><trkpt lat="39.4948724" lon="8.4960609"><ele>237.0</ele><time>2026-04-21T13:16:50.302Z</time></trkpt><trkpt lat="39.4948015" lon="8.4961175"><ele>237.0</ele><time>2026-04-21T13:16:52.302Z</time></trkpt><trkpt lat="39.4948255" lon="8.4962479"><ele>237.0</ele><time>2026-04-21T13:16:54.302Z</time></trkpt><trkpt lat="39.4948638" lon="8.4963193"><ele>237.0</ele><time>2026-04-21T13:16:55.303Z</time></trkpt><trkpt lat="39.4948944" lon="8.4963915"><ele>237.0</ele><time>2026-04-21T13:16:56.302Z</time></trkpt><trkpt lat="39.4949151" lon="8.49655"><ele>238.57142857142856</ele><time>2026-04-21T13:16:58.303Z</time></trkpt><trkpt lat="39.4949111" lon="8.4966345"><ele>240.14285714285714</ele><time>2026-04-21T13:16:59.302Z</time></trkpt><trkpt lat="39.4948966" lon="8.4967246"><ele>241.71428571428572</ele><time>2026-04-21T13:17:00.302Z</time></trkpt><trkpt lat="39.4948972" lon="8.4968114"><ele>243.28571428571428</ele><time>2026-04-21T13:17:01.301Z</time></trkpt><trkpt lat="39.4949089" lon="8.4969038"><ele>244.8571428571429</ele><time>2026-04-21T13:17:02.301Z</time></trkpt><trkpt lat="39.4949296" lon="8.4969962"><ele>246.42857142857144</ele><time>2026-04-21T13:17:03.302Z</time></trkpt><trkpt lat="39.494947" lon="8.4970788"><ele>248.0</ele><time>2026-04-21T13:17:04.301Z</time></trkpt><trkpt lat="39.4949508" lon="8.4971612"><ele>249.42857142857144</ele><time>2026-04-21T13:17:05.302Z</time></trkpt><trkpt lat="39.4949515" lon="8.4972606"><ele>250.8571428571429</ele><time>2026-04-21T13:17:06.302Z</time></trkpt><trkpt lat="39.494948" lon="8.4973487"><ele>252.28571428571428</ele><time>2026-04-21T13:17:07.301Z</time></trkpt><trkpt lat="39.4949275" lon="8.4974347"><ele>253.71428571428572</ele><time>2026-04-21T13:17:08.301Z</time></trkpt><trkpt lat="39.4948881" lon="8.4975043"><ele>255.14285714285714</ele><time>2026-04-21T13:17:09.302Z</time></trkpt><trkpt lat="39.494841" lon="8.497564"><ele>256.57142857142856</ele><time>2026-04-21T13:17:10.301Z</time></trkpt><trkpt lat="39.4947845" lon="8.497617"><ele>258.0</ele><time>2026-04-21T13:17:11.301Z</time></trkpt><trkpt lat="39.4947281" lon="8.4976812"><ele>258.0</ele><time>2026-04-21T13:17:12.302Z</time></trkpt><trkpt lat="39.4946757" lon="8.4977501"><ele>258.0</ele><time>2026-04-21T13:17:13.301Z</time></trkpt><trkpt lat="39.4946333" lon="8.4978202"><ele>258.0</ele><time>2026-04-21T13:17:14.302Z</time></trkpt><trkpt lat="39.4946029" lon="8.4978925"><ele>258.0</ele><time>2026-04-21T13:17:15.301Z</time></trkpt><trkpt lat="39.4945672" lon="8.4979665"><ele>258.0</ele><time>2026-04-21T13:17:16.302Z</time></trkpt><trkpt lat="39.4944982" lon="8.4980806"><ele>258.0</ele><time>2026-04-21T13:17:18.301Z</time></trkpt><trkpt lat="39.4944775" lon="8.4982284"><ele>261.0</ele><time>2026-04-21T13:17:20.302Z</time></trkpt><trkpt lat="39.4945446" lon="8.4983387"><ele>264.0</ele><time>2026-04-21T13:17:22.301Z</time></trkpt><trkpt lat="39.494652" lon="8.4983294"><ele>267.0</ele><time>2026-04-21T13:17:24.301Z</time></trkpt><trkpt lat="39.4947261" lon="8.4982903"><ele>270.0</ele><time>2026-04-21T13:17:25.301Z</time></trkpt><trkpt lat="39.4947978" lon="8.4982497"><ele>273.0</ele><time>2026-04-21T13:17:26.302Z</time></trkpt><trkpt lat="39.4948707" lon="8.4982297"><ele>276.0</ele><time>2026-04-21T13:17:27.301Z</time></trkpt><trkpt lat="39.4949367" lon="8.4982208"><ele>276.0</ele><time>2026-04-21T13:17:28.301Z</time></trkpt><trkpt lat="39.4950505" lon="8.4981894"><ele>276.0</ele><time>2026-04-21T13:17:30.302Z</time></trkpt><trkpt lat="39.4951421" lon="8.4980752"><ele>276.0</ele><time>2026-04-21T13:17:32.301Z</time></trkpt><trkpt lat="39.4951936" lon="8.4980119"><ele>276.0</ele><time>2026-04-21T13:17:33.302Z</time></trkpt><trkpt lat="39.4952432" lon="8.4979458"><ele>276.0</ele><time>2026-04-21T13:17:34.302Z</time></trkpt><trkpt lat="39.4952918" lon="8.4978856"><ele>277.2</ele><time>2026-04-21T13:17:35.302Z</time></trkpt><trkpt lat="39.4953471" lon="8.4978417"><ele>278.40000000000003</ele><time>2026-04-21T13:17:36.301Z</time></trkpt><trkpt lat="39.4954571" lon="8.4977575"><ele>279.6</ele><time>2026-04-21T13:17:38.301Z</time></trkpt><trkpt lat="39.4955316" lon="8.4976441"><ele>280.8</ele><time>2026-04-21T13:17:40.301Z</time></trkpt><trkpt lat="39.4955926" lon="8.4975307"><ele>282.0</ele><time>2026-04-21T13:17:42.302Z</time></trkpt><trkpt lat="39.4956811" lon="8.4974112"><ele>282.0</ele><time>2026-04-21T13:17:44.302Z</time></trkpt><trkpt lat="39.4957415" lon="8.497307"><ele>282.0</ele><time>2026-04-21T13:17:46.302Z</time></trkpt><trkpt lat="39.4958094" lon="8.4972728"><ele>282.0</ele><time>2026-04-21T13:17:49.301Z</time></trkpt><trkpt lat="39.4958404" lon="8.4973637"><ele>282.0</ele><time>2026-04-21T13:17:51.301Z</time></trkpt><trkpt lat="39.4957761" lon="8.4974746"><ele>282.0</ele><time>2026-04-21T13:17:53.302Z</time></trkpt><trkpt lat="39.4957199" lon="8.4975225"><ele>282.0</ele><time>2026-04-21T13:17:54.302Z</time></trkpt><trkpt lat="39.4956631" lon="8.4975865"><ele>282.0</ele><time>2026-04-21T13:17:55.302Z</time></trkpt><trkpt lat="39.4956115" lon="8.4976701"><ele>282.0</ele><time>2026-04-21T13:17:56.302Z</time></trkpt><trkpt lat="39.4955831" lon="8.4977573"><ele>282.0</ele><time>2026-04-21T13:17:57.302Z</time></trkpt><trkpt lat="39.4955599" lon="8.4978348"><ele>282.0</ele><time>2026-04-21T13:17:58.301Z</time></trkpt><trkpt lat="39.4955276" lon="8.4979073"><ele>282.0</ele><time>2026-04-21T13:17:59.302Z</time></trkpt><trkpt lat="39.4954797" lon="8.4979738"><ele>282.0</ele><time>2026-04-21T13:18:00.301Z</time></trkpt><trkpt lat="39.4954306" lon="8.4980415"><ele>282.0</ele><time>2026-04-21T13:18:01.301Z</time></trkpt><trkpt lat="39.4953922" lon="8.4981149"><ele>281.0</ele><time>2026-04-21T13:18:02.301Z</time></trkpt><trkpt lat="39.4953527" lon="8.4981926"><ele>280.0</ele><time>2026-04-21T13:18:03.301Z</time></trkpt><trkpt lat="39.4953148" lon="8.4982714"><ele>279.0</ele><time>2026-04-21T13:18:04.302Z</time></trkpt><trkpt lat="39.4952801" lon="8.4983469"><ele>278.0</ele><time>2026-04-21T13:18:05.301Z</time></trkpt><trkpt lat="39.4952471" lon="8.4984203"><ele>277.0</ele><time>2026-04-21T13:18:06.301Z</time></trkpt><trkpt lat="39.4952109" lon="8.4985727"><ele>276.0</ele><time>2026-04-21T13:18:08.302Z</time></trkpt><trkpt lat="39.4951696" lon="8.4986813"><ele>276.0</ele><time>2026-04-21T13:18:10.302Z</time></trkpt><trkpt lat="39.4950698" lon="8.4987153"><ele>276.0</ele><time>2026-04-21T13:18:12.301Z</time></trkpt><trkpt lat="39.4949976" lon="8.498719"><ele>276.0</ele><time>2026-04-21T13:18:13.302Z</time></trkpt><trkpt lat="39.4949246" lon="8.4987222"><ele>276.0</ele><time>2026-04-21T13:18:14.301Z</time></trkpt><trkpt lat="39.4948598" lon="8.4987408"><ele>276.0</ele><time>2026-04-21T13:18:15.302Z</time></trkpt><trkpt lat="39.4947983" lon="8.498774"><ele>276.0</ele><time>2026-04-21T13:18:16.301Z</time></trkpt><trkpt lat="39.4947419" lon="8.4988123"><ele>276.0</ele><time>2026-04-21T13:18:17.301Z</time></trkpt><trkpt lat="39.4946918" lon="8.4988721"><ele>278.7142857142857</ele><time>2026-04-21T13:18:18.301Z</time></trkpt><trkpt lat="39.494641" lon="8.498934"><ele>281.42857142857144</ele><time>2026-04-21T13:18:19.301Z</time></trkpt><trkpt lat="39.4945893" lon="8.4989955"><ele>284.14285714285717</ele><time>2026-04-21T13:18:20.301Z</time></trkpt><trkpt lat="39.4945311" lon="8.4990521"><ele>286.8571428571429</ele><time>2026-04-21T13:18:21.301Z</time></trkpt><trkpt lat="39.4944705" lon="8.4991038"><ele>289.57142857142856</ele><time>2026-04-21T13:18:22.302Z</time></trkpt><trkpt lat="39.4943994" lon="8.4991462"><ele>292.28571428571433</ele><time>2026-04-21T13:18:23.302Z</time></trkpt><trkpt lat="39.4943252" lon="8.4991928"><ele>295.0</ele><time>2026-04-21T13:18:24.302Z</time></trkpt><trkpt lat="39.4942475" lon="8.4992381"><ele>295.00000000000006</ele><time>2026-04-21T13:18:25.302Z</time></trkpt><trkpt lat="39.4941676" lon="8.4992743"><ele>295.0</ele><time>2026-04-21T13:18:26.301Z</time></trkpt><trkpt lat="39.4940913" lon="8.4992876"><ele>295.0</ele><time>2026-04-21T13:18:27.301Z</time></trkpt><trkpt lat="39.494024" lon="8.4992956"><ele>295.0</ele><time>2026-04-21T13:18:28.301Z</time></trkpt><trkpt lat="39.4939559" lon="8.4992775"><ele>295.0</ele><time>2026-04-21T13:18:29.302Z</time></trkpt><trkpt lat="39.4938914" lon="8.4992458"><ele>295.00000000000006</ele><time>2026-04-21T13:18:30.302Z</time></trkpt><trkpt lat="39.4938344" lon="8.4991928"><ele>295.0</ele><time>2026-04-21T13:18:31.301Z</time></trkpt><trkpt lat="39.4937914" lon="8.4991198"><ele>295.0</ele><time>2026-04-21T13:18:32.301Z</time></trkpt><trkpt lat="39.4937698" lon="8.4990354"><ele>295.0</ele><time>2026-04-21T13:18:33.302Z</time></trkpt><trkpt lat="39.493769" lon="8.4989316"><ele>295.0</ele><time>2026-04-21T13:18:34.302Z</time></trkpt><trkpt lat="39.4937955" lon="8.498831"><ele>295.0</ele><time>2026-04-21T13:18:35.302Z</time></trkpt><trkpt lat="39.4938319" lon="8.4987227"><ele>295.0</ele><time>2026-04-21T13:18:36.301Z</time></trkpt><trkpt lat="39.4938608" lon="8.4986236"><ele>295.0</ele><time>2026-04-21T13:18:37.302Z</time></trkpt><trkpt lat="39.49388" lon="8.4985273"><ele>293.8333333333333</ele><time>2026-04-21T13:18:38.302Z</time></trkpt><trkpt lat="39.4938834" lon="8.4984397"><ele>292.66666666666663</ele><time>2026-04-21T13:18:39.302Z</time></trkpt><trkpt lat="39.4938814" lon="8.4983577"><ele>291.5</ele><time>2026-04-21T13:18:40.302Z</time></trkpt><trkpt lat="39.4938763" lon="8.4982705"><ele>290.3333333333333</ele><time>2026-04-21T13:18:41.302Z</time></trkpt><trkpt lat="39.4938933" lon="8.4981113"><ele>289.1666666666667</ele><time>2026-04-21T13:18:43.302Z</time></trkpt><trkpt lat="39.4939068" lon="8.4980249"><ele>288.0</ele><time>2026-04-21T13:18:44.302Z</time></trkpt><trkpt lat="39.4939406" lon="8.4978854"><ele>288.0</ele><time>2026-04-21T13:18:46.301Z</time></trkpt><trkpt lat="39.4939673" lon="8.4977893"><ele>288.0</ele><time>2026-04-21T13:18:48.301Z</time></trkpt><trkpt lat="39.4939601" lon="8.4977021"><ele>288.0</ele><time>2026-04-21T13:18:51.301Z</time></trkpt><trkpt lat="39.49396" lon="8.4976042"><ele>288.0</ele><time>2026-04-21T13:38:50.298Z</time></trkpt><trkpt lat="39.4939948" lon="8.4974981"><ele>288.0</ele><time>2026-04-21T13:38:53.299Z</time></trkpt><trkpt lat="39.4940243" lon="8.4974038"><ele>288.0</ele><time>2026-04-21T13:38:55.298Z</time></trkpt><trkpt lat="39.4940371" lon="8.4972755"><ele>288.0</ele><time>2026-04-21T13:38:57.298Z</time></trkpt><trkpt lat="39.4940275" lon="8.4971614"><ele>288.0</ele><time>2026-04-21T13:38:59.298Z</time></trkpt><trkpt lat="39.4939886" lon="8.497055"><ele>288.0</ele><time>2026-04-21T13:39:01.298Z</time></trkpt><trkpt lat="39.4939432" lon="8.4969467"><ele>288.0</ele><time>2026-04-21T13:39:03.299Z</time></trkpt><trkpt lat="39.4939118" lon="8.4968431"><ele>288.0</ele><time>2026-04-21T13:39:05.299Z</time></trkpt><trkpt lat="39.4938549" lon="8.4967561"><ele>288.0</ele><time>2026-04-21T13:39:07.299Z</time></trkpt><trkpt lat="39.4937646" lon="8.4967065"><ele>290.4</ele><time>2026-04-21T13:39:09.299Z</time></trkpt><trkpt lat="39.4936382" lon="8.4966827"><ele>292.8</ele><time>2026-04-21T13:39:11.299Z</time></trkpt><trkpt lat="39.4935718" lon="8.4966692"><ele>295.2</ele><time>2026-04-21T13:39:12.298Z</time></trkpt><trkpt lat="39.4934611" lon="8.496626"><ele>297.6</ele><time>2026-04-21T13:39:14.298Z</time></trkpt><trkpt lat="39.4933557" lon="8.4965849"><ele>300.0</ele><time>2026-04-21T13:39:16.299Z</time></trkpt><trkpt lat="39.4932337" lon="8.4965904"><ele>300.0</ele><time>2026-04-21T13:39:18.298Z</time></trkpt><trkpt lat="39.4931185" lon="8.4966472"><ele>300.0</ele><time>2026-04-21T13:39:20.299Z</time></trkpt><trkpt lat="39.4930293" lon="8.4967561"><ele>300.0</ele><time>2026-04-21T13:39:22.299Z</time></trkpt><trkpt lat="39.4929852" lon="8.4968151"><ele>300.0</ele><time>2026-04-21T13:39:23.298Z</time></trkpt><trkpt lat="39.4929049" lon="8.4969114"><ele>300.0</ele><time>2026-04-21T13:39:25.298Z</time></trkpt><trkpt lat="39.492808" lon="8.4969594"><ele>302.6666666666667</ele><time>2026-04-21T13:39:27.299Z</time></trkpt><trkpt lat="39.4927168" lon="8.4969457"><ele>305.3333333333333</ele><time>2026-04-21T13:39:29.298Z</time></trkpt><trkpt lat="39.4926307" lon="8.4968926"><ele>308.0</ele><time>2026-04-21T13:39:31.299Z</time></trkpt><trkpt lat="39.4925853" lon="8.4968162"><ele>310.66666666666663</ele><time>2026-04-21T13:39:33.299Z</time></trkpt><trkpt lat="39.4925731" lon="8.4967225"><ele>313.3333333333333</ele><time>2026-04-21T13:39:36.299Z</time></trkpt><trkpt lat="39.4925483" lon="8.4966126"><ele>316.0</ele><time>2026-04-21T13:39:38.298Z</time></trkpt><trkpt lat="39.492546" lon="8.4964919"><ele>316.0</ele><time>2026-04-21T13:39:40.299Z</time></trkpt><trkpt lat="39.4925451" lon="8.496365"><ele>316.0</ele><time>2026-04-21T13:39:42.298Z</time></trkpt><trkpt lat="39.4925167" lon="8.4962318"><ele>316.0</ele><time>2026-04-21T13:39:44.299Z</time></trkpt><trkpt lat="39.4924952" lon="8.4961022"><ele>316.0</ele><time>2026-04-21T13:39:46.299Z</time></trkpt><trkpt lat="39.4924509" lon="8.4960183"><ele>316.0</ele><time>2026-04-21T13:39:48.299Z</time></trkpt><trkpt lat="39.4923823" lon="8.496034"><ele>316.0</ele><time>2026-04-21T13:39:50.298Z</time></trkpt><trkpt lat="39.4923804" lon="8.496154"><ele>316.0</ele><time>2026-04-21T13:39:52.298Z</time></trkpt><trkpt lat="39.4924107" lon="8.496299"><ele>316.0</ele><time>2026-04-21T13:39:54.299Z</time></trkpt><trkpt lat="39.4924079" lon="8.4964395"><ele>316.0</ele><time>2026-04-21T13:39:56.298Z</time></trkpt><trkpt lat="39.4923613" lon="8.4965691"><ele>316.0</ele><time>2026-04-21T13:39:58.298Z</time></trkpt><trkpt lat="39.4923267" lon="8.4966787"><ele>316.0</ele><time>2026-04-21T13:40:00.298Z</time></trkpt><trkpt lat="39.4923233" lon="8.4967647"><ele>316.0</ele><time>2026-04-21T13:40:02.298Z</time></trkpt><trkpt lat="39.4923359" lon="8.4968721"><ele>316.0</ele><time>2026-04-21T13:40:04.299Z</time></trkpt><trkpt lat="39.4923239" lon="8.496982"><ele>316.0</ele><time>2026-04-21T13:40:06.299Z</time></trkpt><trkpt lat="39.4922934" lon="8.4971036"><ele>316.0</ele><time>2026-04-21T13:40:08.299Z</time></trkpt><trkpt lat="39.4922958" lon="8.4972477"><ele>316.0</ele><time>2026-04-21T13:40:10.299Z</time></trkpt><trkpt lat="39.4923409" lon="8.4973367"><ele>319.20000000000005</ele><time>2026-04-21T13:40:12.298Z</time></trkpt><trkpt lat="39.492423" lon="8.4974016"><ele>322.40000000000003</ele><time>2026-04-21T13:40:14.298Z</time></trkpt><trkpt lat="39.4924809" lon="8.4974861"><ele>325.6</ele><time>2026-04-21T13:40:16.299Z</time></trkpt><trkpt lat="39.4925609" lon="8.497608"><ele>328.8</ele><time>2026-04-21T13:40:18.298Z</time></trkpt><trkpt lat="39.4926684" lon="8.497668"><ele>332.0</ele><time>2026-04-21T13:40:20.298Z</time></trkpt><trkpt lat="39.4927332" lon="8.4976714"><ele>332.0</ele><time>2026-04-21T13:40:21.298Z</time></trkpt><trkpt lat="39.4928498" lon="8.4976552"><ele>332.0</ele><time>2026-04-21T13:40:23.299Z</time></trkpt><trkpt lat="39.4929575" lon="8.4976478"><ele>332.0</ele><time>2026-04-21T13:40:25.298Z</time></trkpt><trkpt lat="39.4930715" lon="8.4976345"><ele>332.0</ele><time>2026-04-21T13:40:27.298Z</time></trkpt><trkpt lat="39.4931317" lon="8.4976905"><ele>332.0</ele><time>2026-04-21T13:40:29.298Z</time></trkpt><trkpt lat="39.4931205" lon="8.4977725"><ele>332.0</ele><time>2026-04-21T13:40:31.298Z</time></trkpt><trkpt lat="39.4930328" lon="8.4977661"><ele>332.0</ele><time>2026-04-21T13:40:33.299Z</time></trkpt><trkpt lat="39.4929244" lon="8.4977286"><ele>332.0</ele><time>2026-04-21T13:40:35.299Z</time></trkpt><trkpt lat="39.4928111" lon="8.4977532"><ele>332.0</ele><time>2026-04-21T13:40:37.299Z</time></trkpt><trkpt lat="39.4927122" lon="8.4977846"><ele>332.0</ele><time>2026-04-21T13:40:39.298Z</time></trkpt><trkpt lat="39.4926334" lon="8.4978263"><ele>332.0</ele><time>2026-04-21T13:40:41.298Z</time></trkpt><trkpt lat="39.4925359" lon="8.4978241"><ele>332.0</ele><time>2026-04-21T13:40:43.299Z</time></trkpt><trkpt lat="39.4924561" lon="8.4977944"><ele>332.0</ele><time>2026-04-21T13:40:45.299Z</time></trkpt><trkpt lat="39.4923726" lon="8.4977894"><ele>332.0</ele><time>2026-04-21T13:40:47.299Z</time></trkpt><trkpt lat="39.4922795" lon="8.4977835"><ele>332.0</ele><time>2026-04-21T13:40:49.299Z</time></trkpt><trkpt lat="39.4922016" lon="8.4977336"><ele>332.0</ele><time>2026-04-21T13:40:51.298Z</time></trkpt><trkpt lat="39.4921365" lon="8.4976668"><ele>335.40000000000003</ele><time>2026-04-21T13:40:53.298Z</time></trkpt><trkpt lat="39.4920457" lon="8.497609"><ele>338.8</ele><time>2026-04-21T13:40:55.298Z</time></trkpt><trkpt lat="39.4919931" lon="8.4975614"><ele>342.2</ele><time>2026-04-21T13:40:56.297Z</time></trkpt><trkpt lat="39.4919451" lon="8.4975075"><ele>345.6</ele><time>2026-04-21T13:40:57.298Z</time></trkpt><trkpt lat="39.4918759" lon="8.4973936"><ele>349.0</ele><time>2026-04-21T13:40:59.297Z</time></trkpt><trkpt lat="39.4918737" lon="8.4972514"><ele>349.0</ele><time>2026-04-21T13:41:01.297Z</time></trkpt><trkpt lat="39.4918907" lon="8.4971147"><ele>349.0</ele><time>2026-04-21T13:41:03.298Z</time></trkpt><trkpt lat="39.4918381" lon="8.4970448"><ele>349.0</ele><time>2026-04-21T13:41:05.298Z</time></trkpt><trkpt lat="39.491782" lon="8.4971113"><ele>349.0</ele><time>2026-04-21T13:41:07.297Z</time></trkpt><trkpt lat="39.4918027" lon="8.497245"><ele>349.0</ele><time>2026-04-21T13:41:09.298Z</time></trkpt><trkpt lat="39.4918183" lon="8.4973301"><ele>349.0</ele><time>2026-04-21T13:41:10.298Z</time></trkpt><trkpt lat="39.4918211" lon="8.4974651"><ele>349.0</ele><time>2026-04-21T13:41:12.298Z</time></trkpt><trkpt lat="39.4918243" lon="8.4976035"><ele>349.0</ele><time>2026-04-21T13:41:14.297Z</time></trkpt><trkpt lat="39.4918789" lon="8.497721"><ele>349.0</ele><time>2026-04-21T13:41:16.298Z</time></trkpt><trkpt lat="39.4919685" lon="8.4978213"><ele>349.0</ele><time>2026-04-21T13:41:18.297Z</time></trkpt><trkpt lat="39.492043" lon="8.4979343"><ele>349.0</ele><time>2026-04-21T13:41:20.297Z</time></trkpt><trkpt lat="39.492088" lon="8.4979991"><ele>349.5</ele><time>2026-04-21T13:41:21.297Z</time></trkpt><trkpt lat="39.4921398" lon="8.4980598"><ele>350.0</ele><time>2026-04-21T13:41:22.297Z</time></trkpt><trkpt lat="39.4922014" lon="8.4981163"><ele>350.5</ele><time>2026-04-21T13:41:23.298Z</time></trkpt><trkpt lat="39.4922609" lon="8.4981658"><ele>351.0</ele><time>2026-04-21T13:41:24.297Z</time></trkpt><trkpt lat="39.4923252" lon="8.4982036"><ele>351.5</ele><time>2026-04-21T13:41:25.298Z</time></trkpt><trkpt lat="39.4923846" lon="8.4982446"><ele>352.0</ele><time>2026-04-21T13:41:26.298Z</time></trkpt><trkpt lat="39.4924678" lon="8.4983436"><ele>352.0</ele><time>2026-04-21T13:41:28.297Z</time></trkpt><trkpt lat="39.4924957" lon="8.4984746"><ele>352.0</ele><time>2026-04-21T13:41:30.298Z</time></trkpt><trkpt lat="39.4924763" lon="8.4986252"><ele>352.0</ele><time>2026-04-21T13:41:32.298Z</time></trkpt><trkpt lat="39.4924288" lon="8.4987473"><ele>352.0</ele><time>2026-04-21T13:41:34.298Z</time></trkpt><trkpt lat="39.4923872" lon="8.4988571"><ele>352.0</ele><time>2026-04-21T13:41:36.297Z</time></trkpt><trkpt lat="39.4923312" lon="8.4989737"><ele>351.6</ele><time>2026-04-21T13:41:38.298Z</time></trkpt><trkpt lat="39.4922494" lon="8.4990639"><ele>351.20000000000005</ele><time>2026-04-21T13:41:40.298Z</time></trkpt><trkpt lat="39.4921621" lon="8.4991245"><ele>350.8</ele><time>2026-04-21T13:41:42.298Z</time></trkpt><trkpt lat="39.4920589" lon="8.4991737"><ele>350.4</ele><time>2026-04-21T13:41:44.298Z</time></trkpt><trkpt lat="39.4919611" lon="8.4992441"><ele>350.0</ele><time>2026-04-21T13:41:46.297Z</time></trkpt><trkpt lat="39.4918692" lon="8.4993044"><ele>354.6</ele><time>2026-04-21T13:41:48.298Z</time></trkpt><trkpt lat="39.4917789" lon="8.4993727"><ele>359.2</ele><time>2026-04-21T13:41:50.298Z</time></trkpt><trkpt lat="39.4916875" lon="8.4994768"><ele>363.79999999999995</ele><time>2026-04-21T13:41:52.298Z</time></trkpt><trkpt lat="39.4916373" lon="8.499536"><ele>368.4</ele><time>2026-04-21T13:41:53.298Z</time></trkpt><trkpt lat="39.4915381" lon="8.4996186"><ele>373.0</ele><time>2026-04-21T13:41:55.298Z</time></trkpt><trkpt lat="39.4914515" lon="8.4997222"><ele>373.0</ele><time>2026-04-21T13:41:57.298Z</time></trkpt><trkpt lat="39.4913921" lon="8.4998619"><ele>373.0</ele><time>2026-04-21T13:41:59.298Z</time></trkpt><trkpt lat="39.4913511" lon="8.4999813"><ele>373.0</ele><time>2026-04-21T13:42:01.298Z</time></trkpt><trkpt lat="39.4912929" lon="8.500101"><ele>373.0</ele><time>2026-04-21T13:42:03.298Z</time></trkpt><trkpt lat="39.491263" lon="8.500252"><ele>373.0</ele><time>2026-04-21T13:42:05.297Z</time></trkpt><trkpt lat="39.4912926" lon="8.5004126"><ele>373.0</ele><time>2026-04-21T13:42:07.297Z</time></trkpt><trkpt lat="39.4913183" lon="8.5004895"><ele>373.0</ele><time>2026-04-21T13:42:08.297Z</time></trkpt><trkpt lat="39.4913564" lon="8.5005554"><ele>373.0</ele><time>2026-04-21T13:42:09.298Z</time></trkpt><trkpt lat="39.4914493" lon="8.5006401"><ele>373.0</ele><time>2026-04-21T13:42:11.298Z</time></trkpt><trkpt lat="39.4915636" lon="8.5006963"><ele>375.5</ele><time>2026-04-21T13:42:13.297Z</time></trkpt><trkpt lat="39.4916261" lon="8.5007402"><ele>378.0</ele><time>2026-04-21T13:42:14.297Z</time></trkpt><trkpt lat="39.4916877" lon="8.500791"><ele>380.5</ele><time>2026-04-21T13:42:15.297Z</time></trkpt><trkpt lat="39.4917419" lon="8.5008374"><ele>383.0</ele><time>2026-04-21T13:42:16.298Z</time></trkpt><trkpt lat="39.4918407" lon="8.5008928"><ele>385.50000000000006</ele><time>2026-04-21T13:42:18.298Z</time></trkpt><trkpt lat="39.4919211" lon="8.5009166"><ele>388.0</ele><time>2026-04-21T13:42:20.297Z</time></trkpt><trkpt lat="39.4919358" lon="8.5010178"><ele>388.0</ele><time>2026-04-21T13:42:23.297Z</time></trkpt><trkpt lat="39.4918548" lon="8.5010371"><ele>388.0</ele><time>2026-04-21T13:42:25.297Z</time></trkpt><trkpt lat="39.4917471" lon="8.5009879"><ele>388.0</ele><time>2026-04-21T13:42:27.298Z</time></trkpt><trkpt lat="39.4916414" lon="8.5009206"><ele>388.0</ele><time>2026-04-21T13:42:29.298Z</time></trkpt><trkpt lat="39.4915818" lon="8.5008883"><ele>388.0</ele><time>2026-04-21T13:42:30.298Z</time></trkpt><trkpt lat="39.49147" lon="8.5008416"><ele>388.0</ele><time>2026-04-21T13:42:32.298Z</time></trkpt><trkpt lat="39.4913518" lon="8.50081"><ele>388.0</ele><time>2026-04-21T13:42:34.298Z</time></trkpt><trkpt lat="39.4912504" lon="8.500763"><ele>388.0</ele><time>2026-04-21T13:42:36.298Z</time></trkpt><trkpt lat="39.4911661" lon="8.5006557"><ele>388.0</ele><time>2026-04-21T13:42:38.297Z</time></trkpt><trkpt lat="39.4911253" lon="8.5005782"><ele>388.0</ele><time>2026-04-21T13:42:39.298Z</time></trkpt><trkpt lat="39.4910869" lon="8.5004897"><ele>389.57142857142856</ele><time>2026-04-21T13:42:40.297Z</time></trkpt><trkpt lat="39.4910516" lon="8.5004017"><ele>391.14285714285717</ele><time>2026-04-21T13:42:41.297Z</time></trkpt><trkpt lat="39.4910308" lon="8.5003221"><ele>392.7142857142857</ele><time>2026-04-21T13:42:42.297Z</time></trkpt><trkpt lat="39.4910165" lon="8.500239"><ele>394.2857142857143</ele><time>2026-04-21T13:42:43.297Z</time></trkpt><trkpt lat="39.4910111" lon="8.5001558"><ele>395.8571428571429</ele><time>2026-04-21T13:42:44.297Z</time></trkpt><trkpt lat="39.4910232" lon="8.5000688"><ele>397.42857142857144</ele><time>2026-04-21T13:42:45.298Z</time></trkpt><trkpt lat="39.491044" lon="8.4999786"><ele>399.0</ele><time>2026-04-21T13:42:46.298Z</time></trkpt><trkpt lat="39.4910676" lon="8.4998992"><ele>399.0</ele><time>2026-04-21T13:42:47.297Z</time></trkpt><trkpt lat="39.4910972" lon="8.4998226"><ele>399.0</ele><time>2026-04-21T13:42:48.298Z</time></trkpt><trkpt lat="39.4911279" lon="8.4997428"><ele>399.0</ele><time>2026-04-21T13:42:49.298Z</time></trkpt><trkpt lat="39.491161" lon="8.4996658"><ele>399.0</ele><time>2026-04-21T13:42:50.297Z</time></trkpt><trkpt lat="39.4911939" lon="8.4995215"><ele>399.0</ele><time>2026-04-21T13:42:52.297Z</time></trkpt><trkpt lat="39.4911837" lon="8.499417"><ele>399.0</ele><time>2026-04-21T13:42:54.298Z</time></trkpt><trkpt lat="39.4911179" lon="8.4993449"><ele>397.7142857142857</ele><time>2026-04-21T13:42:56.298Z</time></trkpt><trkpt lat="39.4910351" lon="8.4993136"><ele>396.42857142857144</ele><time>2026-04-21T13:42:58.298Z</time></trkpt><trkpt lat="39.4909567" lon="8.4993295"><ele>395.1428571428571</ele><time>2026-04-21T13:43:00.297Z</time></trkpt><trkpt lat="39.4908922" lon="8.4993519"><ele>393.8571428571429</ele><time>2026-04-21T13:43:02.298Z</time></trkpt><trkpt lat="39.4908267" lon="8.4993683"><ele>392.57142857142856</ele><time>2026-04-21T13:43:04.298Z</time></trkpt><trkpt lat="39.4908976" lon="8.499373"><ele>391.2857142857143</ele><time>2026-04-21T13:44:12.298Z</time></trkpt><trkpt lat="39.4909611" lon="8.4993592"><ele>390.0</ele><time>2026-04-21T13:44:14.297Z</time></trkpt><trkpt lat="39.4910482" lon="8.4993407"><ele>390.0</ele><time>2026-04-21T13:44:17.298Z</time></trkpt><trkpt lat="39.4911106" lon="8.4993778"><ele>390.0</ele><time>2026-04-21T13:44:20.298Z</time></trkpt><trkpt lat="39.4911305" lon="8.4994582"><ele>390.0</ele><time>2026-04-21T13:44:23.298Z</time></trkpt><trkpt lat="39.4910746" lon="8.499579"><ele>390.0</ele><time>2026-04-21T13:45:39.298Z</time></trkpt><trkpt lat="39.4910282" lon="8.4996758"><ele>390.0</ele><time>2026-04-21T13:45:41.298Z</time></trkpt><trkpt lat="39.4909896" lon="8.4997513"><ele>390.0</ele><time>2026-04-21T13:45:43.297Z</time></trkpt><trkpt lat="39.4909439" lon="8.4998105"><ele>391.5</ele><time>2026-04-21T13:45:45.298Z</time></trkpt><trkpt lat="39.4908807" lon="8.4998575"><ele>393.0</ele><time>2026-04-21T13:45:47.298Z</time></trkpt><trkpt lat="39.4908213" lon="8.4999216"><ele>394.5</ele><time>2026-04-21T13:45:49.297Z</time></trkpt><trkpt lat="39.4907568" lon="8.4999884"><ele>396.0</ele><time>2026-04-21T13:45:51.298Z</time></trkpt><trkpt lat="39.4906783" lon="8.5000781"><ele>397.5</ele><time>2026-04-21T13:45:53.298Z</time></trkpt><trkpt lat="39.4906196" lon="8.5001727"><ele>399.0</ele><time>2026-04-21T13:45:55.298Z</time></trkpt><trkpt lat="39.4905609" lon="8.5002402"><ele>399.0</ele><time>2026-04-21T13:45:57.297Z</time></trkpt><trkpt lat="39.4905051" lon="8.5003272"><ele>399.0</ele><time>2026-04-21T13:45:59.298Z</time></trkpt><trkpt lat="39.4904655" lon="8.5004254"><ele>399.0</ele><time>2026-04-21T13:46:01.298Z</time></trkpt><trkpt lat="39.4904173" lon="8.5005208"><ele>399.0</ele><time>2026-04-21T13:46:03.298Z</time></trkpt><trkpt lat="39.4903655" lon="8.5006039"><ele>399.0</ele><time>2026-04-21T13:46:05.298Z</time></trkpt><trkpt lat="39.4903312" lon="8.5006963"><ele>399.0</ele><time>2026-04-21T13:46:07.297Z</time></trkpt><trkpt lat="39.4902968" lon="8.5007768"><ele>403.3333333333333</ele><time>2026-04-21T13:46:09.298Z</time></trkpt><trkpt lat="39.4902309" lon="8.5008353"><ele>407.66666666666663</ele><time>2026-04-21T13:46:11.297Z</time></trkpt><trkpt lat="39.4901421" lon="8.5008876"><ele>412.0</ele><time>2026-04-21T13:46:13.297Z</time></trkpt><trkpt lat="39.4900744" lon="8.5009206"><ele>416.3333333333333</ele><time>2026-04-21T13:46:15.298Z</time></trkpt><trkpt lat="39.4899862" lon="8.5008981"><ele>420.66666666666663</ele><time>2026-04-21T13:46:18.297Z</time></trkpt><trkpt lat="39.4899105" lon="8.5008874"><ele>425.0</ele><time>2026-04-21T13:46:20.298Z</time></trkpt><trkpt lat="39.4898451" lon="8.5009367"><ele>424.99999999999994</ele><time>2026-04-21T13:46:22.296Z</time></trkpt><trkpt lat="39.4897838" lon="8.5009946"><ele>425.0</ele><time>2026-04-21T13:46:24.297Z</time></trkpt><trkpt lat="39.4897056" lon="8.5010449"><ele>425.0</ele><time>2026-04-21T13:46:26.297Z</time></trkpt><trkpt lat="39.4896244" lon="8.501089"><ele>425.0</ele><time>2026-04-21T13:46:28.297Z</time></trkpt><trkpt lat="39.489546" lon="8.5011193"><ele>424.99999999999994</ele><time>2026-04-21T13:46:30.297Z</time></trkpt><trkpt lat="39.4894764" lon="8.5011755"><ele>425.0</ele><time>2026-04-21T13:46:32.297Z</time></trkpt><trkpt lat="39.4894044" lon="8.501249"><ele>427.3333333333333</ele><time>2026-04-21T13:46:34.296Z</time></trkpt><trkpt lat="39.4893384" lon="8.5013296"><ele>429.66666666666663</ele><time>2026-04-21T13:46:36.296Z</time></trkpt><trkpt lat="39.4892692" lon="8.5013981"><ele>432.0</ele><time>2026-04-21T13:46:38.297Z</time></trkpt><trkpt lat="39.4892116" lon="8.5014716"><ele>434.33333333333337</ele><time>2026-04-21T13:46:40.297Z</time></trkpt><trkpt lat="39.4891598" lon="8.5015501"><ele>436.6666666666667</ele><time>2026-04-21T13:46:42.297Z</time></trkpt><trkpt lat="39.4891074" lon="8.5016109"><ele>439.0</ele><time>2026-04-21T13:46:44.297Z</time></trkpt><trkpt lat="39.4890413" lon="8.5016203"><ele>439.0</ele><time>2026-04-21T13:46:46.297Z</time></trkpt><trkpt lat="39.4890015" lon="8.5015507"><ele>439.0</ele><time>2026-04-21T13:46:49.297Z</time></trkpt><trkpt lat="39.4890731" lon="8.5015042"><ele>439.0</ele><time>2026-04-21T13:46:53.297Z</time></trkpt><trkpt lat="39.489148" lon="8.5015017"><ele>439.0</ele><time>2026-04-21T13:50:47.297Z</time></trkpt><trkpt lat="39.4891573" lon="8.5015863"><ele>439.0</ele><time>2026-04-21T13:50:51.296Z</time></trkpt><trkpt lat="39.4891137" lon="8.501655"><ele>439.0</ele><time>2026-04-21T13:50:54.297Z</time></trkpt><trkpt lat="39.4891679" lon="8.5017327"><ele>439.0</ele><time>2026-04-21T13:50:57.296Z</time></trkpt><trkpt lat="39.4892259" lon="8.5017809"><ele>439.00000000000006</ele><time>2026-04-21T13:50:59.297Z</time></trkpt><trkpt lat="39.4892746" lon="8.5018543"><ele>439.0</ele><time>2026-04-21T13:51:01.296Z</time></trkpt><trkpt lat="39.4893221" lon="8.5019253"><ele>439.0</ele><time>2026-04-21T13:51:03.296Z</time></trkpt><trkpt lat="39.4893617" lon="8.5020092"><ele>439.0</ele><time>2026-04-21T13:51:05.296Z</time></trkpt><trkpt lat="39.489391" lon="8.5020953"><ele>439.00000000000006</ele><time>2026-04-21T13:51:08.297Z</time></trkpt><trkpt lat="39.4894186" lon="8.5022145"><ele>439.0</ele><time>2026-04-21T13:51:19.296Z</time></trkpt><trkpt lat="39.4894618" lon="8.5023424"><ele>439.50000000000006</ele><time>2026-04-21T13:51:21.297Z</time></trkpt><trkpt lat="39.4895149" lon="8.5024582"><ele>440.0</ele><time>2026-04-21T13:51:23.296Z</time></trkpt><trkpt lat="39.4895218" lon="8.5025742"><ele>440.5</ele><time>2026-04-21T13:51:25.297Z</time></trkpt><trkpt lat="39.4895377" lon="8.5026728"><ele>441.0</ele><time>2026-04-21T13:51:27.296Z</time></trkpt><trkpt lat="39.48958" lon="8.5027563"><ele>441.50000000000006</ele><time>2026-04-21T13:51:29.297Z</time></trkpt><trkpt lat="39.4896345" lon="8.502841"><ele>442.0</ele><time>2026-04-21T13:51:31.297Z</time></trkpt><trkpt lat="39.4896606" lon="8.5029474"><ele>444.83333333333337</ele><time>2026-04-21T13:51:33.297Z</time></trkpt><trkpt lat="39.4896816" lon="8.5030717"><ele>447.6666666666667</ele><time>2026-04-21T13:51:35.297Z</time></trkpt><trkpt lat="39.4897069" lon="8.5031917"><ele>450.5</ele><time>2026-04-21T13:51:37.296Z</time></trkpt><trkpt lat="39.4897499" lon="8.5032929"><ele>453.33333333333337</ele><time>2026-04-21T13:51:39.297Z</time></trkpt><trkpt lat="39.489782" lon="8.503366"><ele>456.1666666666667</ele><time>2026-04-21T13:51:42.297Z</time></trkpt><trkpt lat="39.4897883" lon="8.5034704"><ele>459.0</ele><time>2026-04-21T13:51:46.297Z</time></trkpt><trkpt lat="39.4897814" lon="8.5036066"><ele>461.2</ele><time>2026-04-21T13:51:48.297Z</time></trkpt><trkpt lat="39.4897741" lon="8.5037506"><ele>463.4</ele><time>2026-04-21T13:51:50.297Z</time></trkpt><trkpt lat="39.4897465" lon="8.5038674"><ele>465.6</ele><time>2026-04-21T13:51:52.297Z</time></trkpt><trkpt lat="39.4896989" lon="8.5039813"><ele>467.8</ele><time>2026-04-21T13:51:54.297Z</time></trkpt><trkpt lat="39.4896554" lon="8.5041243"><ele>470.0</ele><time>2026-04-21T13:51:56.297Z</time></trkpt><trkpt lat="39.4896216" lon="8.5042755"><ele>470.0</ele><time>2026-04-21T13:51:58.297Z</time></trkpt><trkpt lat="39.489605" lon="8.5043551"><ele>470.0</ele><time>2026-04-21T13:51:59.297Z</time></trkpt><trkpt lat="39.4895809" lon="8.504438"><ele>470.0</ele><time>2026-04-21T13:52:00.296Z</time></trkpt><trkpt lat="39.4895485" lon="8.5045838"><ele>470.0</ele><time>2026-04-21T13:52:02.296Z</time></trkpt><trkpt lat="39.4895126" lon="8.5047335"><ele>470.0</ele><time>2026-04-21T13:52:04.296Z</time></trkpt><trkpt lat="39.4894747" lon="8.5048772"><ele>468.6</ele><time>2026-04-21T13:52:06.296Z</time></trkpt><trkpt lat="39.4894563" lon="8.505005"><ele>467.2</ele><time>2026-04-21T13:52:08.296Z</time></trkpt><trkpt lat="39.489453" lon="8.5051116"><ele>465.79999999999995</ele><time>2026-04-21T13:52:10.296Z</time></trkpt><trkpt lat="39.4894689" lon="8.5052466"><ele>464.4</ele><time>2026-04-21T13:52:12.296Z</time></trkpt><trkpt lat="39.489489" lon="8.5053925"><ele>463.0</ele><time>2026-04-21T13:52:14.297Z</time></trkpt><trkpt lat="39.4895145" lon="8.505524"><ele>466.75</ele><time>2026-04-21T13:52:16.297Z</time></trkpt><trkpt lat="39.4895577" lon="8.5056719"><ele>470.5</ele><time>2026-04-21T13:52:18.297Z</time></trkpt><trkpt lat="39.4895678" lon="8.5058271"><ele>474.25</ele><time>2026-04-21T13:52:20.296Z</time></trkpt><trkpt lat="39.4895335" lon="8.5059818"><ele>478.0</ele><time>2026-04-21T13:52:22.297Z</time></trkpt><trkpt lat="39.4894847" lon="8.5061345"><ele>478.00000000000006</ele><time>2026-04-21T13:52:24.297Z</time></trkpt><trkpt lat="39.4894574" lon="8.5062114"><ele>478.0</ele><time>2026-04-21T13:52:25.296Z</time></trkpt><trkpt lat="39.4894338" lon="8.5062901"><ele>478.00000000000006</ele><time>2026-04-21T13:52:26.297Z</time></trkpt><trkpt lat="39.4894109" lon="8.5063703"><ele>478.00000000000006</ele><time>2026-04-21T13:52:27.296Z</time></trkpt><trkpt lat="39.4893863" lon="8.5064564"><ele>478.0</ele><time>2026-04-21T13:52:28.297Z</time></trkpt><trkpt lat="39.4893686" lon="8.5065459"><ele>478.00000000000006</ele><time>2026-04-21T13:52:29.297Z</time></trkpt><trkpt lat="39.489356" lon="8.50663"><ele>478.00000000000006</ele><time>2026-04-21T13:52:30.296Z</time></trkpt><trkpt lat="39.4893418" lon="8.5067192"><ele>479.6666666666667</ele><time>2026-04-21T13:52:31.297Z</time></trkpt><trkpt lat="39.4893315" lon="8.5068049"><ele>481.33333333333337</ele><time>2026-04-21T13:52:32.297Z</time></trkpt><trkpt lat="39.4893297" lon="8.5068962"><ele>483.0</ele><time>2026-04-21T13:52:33.297Z</time></trkpt><trkpt lat="39.4893362" lon="8.5069946"><ele>484.66666666666663</ele><time>2026-04-21T13:52:34.297Z</time></trkpt><trkpt lat="39.4893444" lon="8.5070868"><ele>486.3333333333333</ele><time>2026-04-21T13:52:35.296Z</time></trkpt><trkpt lat="39.4893479" lon="8.5072358"><ele>488.0</ele><time>2026-04-21T13:52:37.296Z</time></trkpt><trkpt lat="39.4893377" lon="8.507407"><ele>488.99999999999994</ele><time>2026-04-21T13:52:39.297Z</time></trkpt><trkpt lat="39.48932" lon="8.5075085"><ele>490.0</ele><time>2026-04-21T13:52:40.297Z</time></trkpt><trkpt lat="39.489301" lon="8.5076084"><ele>491.0</ele><time>2026-04-21T13:52:41.297Z</time></trkpt><trkpt lat="39.4892884" lon="8.5077069"><ele>492.0</ele><time>2026-04-21T13:52:42.296Z</time></trkpt><trkpt lat="39.4892797" lon="8.5078048"><ele>492.99999999999994</ele><time>2026-04-21T13:52:43.296Z</time></trkpt><trkpt lat="39.4892742" lon="8.5079036"><ele>494.0</ele><time>2026-04-21T13:52:44.296Z</time></trkpt><trkpt lat="39.4892668" lon="8.5079979"><ele>494.6</ele><time>2026-04-21T13:52:45.297Z</time></trkpt><trkpt lat="39.4892645" lon="8.508149"><ele>495.2</ele><time>2026-04-21T13:52:47.296Z</time></trkpt><trkpt lat="39.4892644" lon="8.508298"><ele>495.80000000000007</ele><time>2026-04-21T13:52:49.296Z</time></trkpt><trkpt lat="39.4892603" lon="8.5083802"><ele>496.40000000000003</ele><time>2026-04-21T13:52:50.296Z</time></trkpt><trkpt lat="39.4892548" lon="8.5085221"><ele>497.0</ele><time>2026-04-21T13:52:52.296Z</time></trkpt><trkpt lat="39.4892414" lon="8.5086596"><ele>497.16666666666663</ele><time>2026-04-21T13:52:54.296Z</time></trkpt><trkpt lat="39.4892223" lon="8.5087979"><ele>497.3333333333333</ele><time>2026-04-21T13:52:56.295Z</time></trkpt><trkpt lat="39.4891839" lon="8.5089259"><ele>497.5</ele><time>2026-04-21T13:52:58.296Z</time></trkpt><trkpt lat="39.4891569" lon="8.5090051"><ele>497.66666666666663</ele><time>2026-04-21T13:52:59.296Z</time></trkpt><trkpt lat="39.4891171" lon="8.5090911"><ele>497.8333333333333</ele><time>2026-04-21T13:53:00.295Z</time></trkpt><trkpt lat="39.4890778" lon="8.5091845"><ele>498.0</ele><time>2026-04-21T13:53:01.295Z</time></trkpt><trkpt lat="39.4890487" lon="8.5092786"><ele>498.0</ele><time>2026-04-21T13:53:02.295Z</time></trkpt><trkpt lat="39.4890189" lon="8.5093712"><ele>497.99999999999994</ele><time>2026-04-21T13:53:03.296Z</time></trkpt><trkpt lat="39.4889842" lon="8.5094577"><ele>498.0</ele><time>2026-04-21T13:53:04.295Z</time></trkpt><trkpt lat="39.4889444" lon="8.5095354"><ele>498.0</ele><time>2026-04-21T13:53:05.295Z</time></trkpt><trkpt lat="39.4889059" lon="8.5096133"><ele>497.99999999999994</ele><time>2026-04-21T13:53:06.296Z</time></trkpt><trkpt lat="39.4888734" lon="8.5096917"><ele>498.0</ele><time>2026-04-21T13:53:07.296Z</time></trkpt><trkpt lat="39.4888464" lon="8.5097743"><ele>498.0</ele><time>2026-04-21T13:53:08.296Z</time></trkpt><trkpt lat="39.4888361" lon="8.5099144"><ele>497.6666666666667</ele><time>2026-04-21T13:53:10.296Z</time></trkpt><trkpt lat="39.4888644" lon="8.5100695"><ele>497.33333333333337</ele><time>2026-04-21T13:53:12.296Z</time></trkpt><trkpt lat="39.4888816" lon="8.5101597"><ele>497.0</ele><time>2026-04-21T13:53:13.295Z</time></trkpt><trkpt lat="39.4889003" lon="8.510255"><ele>496.6666666666667</ele><time>2026-04-21T13:53:14.296Z</time></trkpt><trkpt lat="39.4889188" lon="8.5103492"><ele>496.33333333333337</ele><time>2026-04-21T13:53:15.296Z</time></trkpt><trkpt lat="39.4889453" lon="8.5104363"><ele>496.0</ele><time>2026-04-21T13:53:16.295Z</time></trkpt><trkpt lat="39.4889773" lon="8.5105111"><ele>496.0</ele><time>2026-04-21T13:53:17.296Z</time></trkpt><trkpt lat="39.4890116" lon="8.5105895"><ele>496.00000000000006</ele><time>2026-04-21T13:53:18.295Z</time></trkpt><trkpt lat="39.489047" lon="8.5106629"><ele>496.0</ele><time>2026-04-21T13:53:19.296Z</time></trkpt><trkpt lat="39.4890818" lon="8.5107421"><ele>496.0</ele><time>2026-04-21T13:53:20.296Z</time></trkpt><trkpt lat="39.4891183" lon="8.5108257"><ele>496.00000000000006</ele><time>2026-04-21T13:53:21.296Z</time></trkpt><trkpt lat="39.489158" lon="8.5109068"><ele>496.0</ele><time>2026-04-21T13:53:22.295Z</time></trkpt><trkpt lat="39.4891996" lon="8.5109823"><ele>496.0</ele><time>2026-04-21T13:53:23.295Z</time></trkpt><trkpt lat="39.4892425" lon="8.5110589"><ele>496.0</ele><time>2026-04-21T13:53:24.296Z</time></trkpt><trkpt lat="39.4892805" lon="8.5111373"><ele>496.00000000000006</ele><time>2026-04-21T13:53:25.295Z</time></trkpt><trkpt lat="39.4893176" lon="8.5112086"><ele>496.0</ele><time>2026-04-21T13:53:26.296Z</time></trkpt><trkpt lat="39.4893585" lon="8.5112769"><ele>496.0</ele><time>2026-04-21T13:53:27.295Z</time></trkpt><trkpt lat="39.4894015" lon="8.5113445"><ele>496.00000000000006</ele><time>2026-04-21T13:53:28.296Z</time></trkpt><trkpt lat="39.4894476" lon="8.5114018"><ele>496.0</ele><time>2026-04-21T13:53:29.296Z</time></trkpt><trkpt lat="39.4894973" lon="8.511462"><ele>496.0</ele><time>2026-04-21T13:53:30.296Z</time></trkpt><trkpt lat="39.489545" lon="8.5115158"><ele>496.00000000000006</ele><time>2026-04-21T13:53:31.296Z</time></trkpt><trkpt lat="39.4896161" lon="8.5116549"><ele>496.0</ele><time>2026-04-21T13:53:33.296Z</time></trkpt><trkpt lat="39.4896439" lon="8.5117432"><ele>496.0</ele><time>2026-04-21T13:53:34.295Z</time></trkpt><trkpt lat="39.4896796" lon="8.5118288"><ele>496.0</ele><time>2026-04-21T13:53:35.296Z</time></trkpt><trkpt lat="39.4897263" lon="8.5118953"><ele>496.00000000000006</ele><time>2026-04-21T13:53:36.295Z</time></trkpt><trkpt lat="39.4897744" lon="8.511955"><ele>496.0</ele><time>2026-04-21T13:53:37.296Z</time></trkpt><trkpt lat="39.4898295" lon="8.5120044"><ele>496.00000000000006</ele><time>2026-04-21T13:53:38.295Z</time></trkpt><trkpt lat="39.4898894" lon="8.5120438"><ele>496.0</ele><time>2026-04-21T13:53:39.296Z</time></trkpt><trkpt lat="39.489954" lon="8.5120675"><ele>496.0</ele><time>2026-04-21T13:53:40.296Z</time></trkpt><trkpt lat="39.4900444" lon="8.5120848"><ele>496.0</ele><time>2026-04-21T13:53:42.295Z</time></trkpt><trkpt lat="39.4900533" lon="8.5121858"><ele>496.00000000000006</ele><time>2026-04-21T13:53:45.295Z</time></trkpt><trkpt lat="39.4899759" lon="8.5122085"><ele>496.0</ele><time>2026-04-21T13:53:47.296Z</time></trkpt><trkpt lat="39.4898524" lon="8.5121773"><ele>494.4</ele><time>2026-04-21T13:53:49.296Z</time></trkpt><trkpt lat="39.4897456" lon="8.512153"><ele>492.8</ele><time>2026-04-21T13:53:51.296Z</time></trkpt><trkpt lat="39.4896637" lon="8.5120905"><ele>491.19999999999993</ele><time>2026-04-21T13:53:53.295Z</time></trkpt><trkpt lat="39.4895913" lon="8.5119985"><ele>489.59999999999997</ele><time>2026-04-21T13:53:55.296Z</time></trkpt><trkpt lat="39.4895143" lon="8.5119268"><ele>488.0</ele><time>2026-04-21T13:53:57.296Z</time></trkpt><trkpt lat="39.4894127" lon="8.5118893"><ele>487.99999999999994</ele><time>2026-04-21T13:53:59.296Z</time></trkpt><trkpt lat="39.4893151" lon="8.511916"><ele>488.0</ele><time>2026-04-21T13:54:01.296Z</time></trkpt><trkpt lat="39.489247" lon="8.5120104"><ele>488.0</ele><time>2026-04-21T13:54:03.295Z</time></trkpt><trkpt lat="39.4892182" lon="8.5120846"><ele>488.0</ele><time>2026-04-21T13:54:04.296Z</time></trkpt><trkpt lat="39.4891902" lon="8.5121577"><ele>487.99999999999994</ele><time>2026-04-21T13:54:05.295Z</time></trkpt><trkpt lat="39.4891308" lon="8.5122853"><ele>488.0</ele><time>2026-04-21T13:54:07.296Z</time></trkpt><trkpt lat="39.4890575" lon="8.5123703"><ele>486.0</ele><time>2026-04-21T13:54:09.295Z</time></trkpt><trkpt lat="39.4889743" lon="8.5124311"><ele>483.99999999999994</ele><time>2026-04-21T13:54:11.295Z</time></trkpt><trkpt lat="39.4888976" lon="8.5124988"><ele>481.99999999999994</ele><time>2026-04-21T13:54:13.295Z</time></trkpt><trkpt lat="39.4888509" lon="8.5125888"><ele>480.0</ele><time>2026-04-21T13:54:15.295Z</time></trkpt><trkpt lat="39.4888142" lon="8.5127221"><ele>478.0</ele><time>2026-04-21T13:54:17.295Z</time></trkpt><trkpt lat="39.4887828" lon="8.5128664"><ele>477.2</ele><time>2026-04-21T13:54:19.296Z</time></trkpt><trkpt lat="39.4887598" lon="8.5130144"><ele>476.4</ele><time>2026-04-21T13:54:21.296Z</time></trkpt><trkpt lat="39.4887441" lon="8.5130974"><ele>475.59999999999997</ele><time>2026-04-21T13:54:22.295Z</time></trkpt><trkpt lat="39.4887162" lon="8.5132466"><ele>474.79999999999995</ele><time>2026-04-21T13:54:24.296Z</time></trkpt><trkpt lat="39.4887051" lon="8.5133952"><ele>474.0</ele><time>2026-04-21T13:54:26.296Z</time></trkpt><trkpt lat="39.4886888" lon="8.5135502"><ele>473.6</ele><time>2026-04-21T13:54:28.295Z</time></trkpt><trkpt lat="39.4886701" lon="8.5137077"><ele>473.2</ele><time>2026-04-21T13:54:30.296Z</time></trkpt><trkpt lat="39.4886567" lon="8.5138498"><ele>472.80000000000007</ele><time>2026-04-21T13:54:32.296Z</time></trkpt><trkpt lat="39.4886455" lon="8.5139421"><ele>472.40000000000003</ele><time>2026-04-21T13:54:34.296Z</time></trkpt><trkpt lat="39.4885994" lon="8.5140596"><ele>472.0</ele><time>2026-04-21T13:54:37.296Z</time></trkpt><trkpt lat="39.4885677" lon="8.5141984"><ele>471.50000000000006</ele><time>2026-04-21T13:54:39.295Z</time></trkpt><trkpt lat="39.4885262" lon="8.5143466"><ele>471.0</ele><time>2026-04-21T13:54:41.295Z</time></trkpt><trkpt lat="39.4885059" lon="8.5144343"><ele>470.5</ele><time>2026-04-21T13:54:42.295Z</time></trkpt><trkpt lat="39.4884828" lon="8.5145296"><ele>470.0</ele><time>2026-04-21T13:54:43.295Z</time></trkpt><trkpt lat="39.4884483" lon="8.5146259"><ele>469.50000000000006</ele><time>2026-04-21T13:54:44.296Z</time></trkpt><trkpt lat="39.4884099" lon="8.5147201"><ele>469.0</ele><time>2026-04-21T13:54:45.296Z</time></trkpt><trkpt lat="39.4883609" lon="8.5148104"><ele>468.4</ele><time>2026-04-21T13:54:46.295Z</time></trkpt><trkpt lat="39.4883163" lon="8.5149237"><ele>467.79999999999995</ele><time>2026-04-21T13:54:47.296Z</time></trkpt><trkpt lat="39.4882771" lon="8.5150456"><ele>467.20000000000005</ele><time>2026-04-21T13:54:48.295Z</time></trkpt><trkpt lat="39.4882464" lon="8.5151671"><ele>466.6</ele><time>2026-04-21T13:54:49.296Z</time></trkpt><trkpt lat="39.4882212" lon="8.5152771"><ele>466.0</ele><time>2026-04-21T13:54:50.296Z</time></trkpt><trkpt lat="39.4881962" lon="8.5153867"><ele>465.6666666666667</ele><time>2026-04-21T13:54:51.295Z</time></trkpt><trkpt lat="39.4881776" lon="8.5154976"><ele>465.33333333333337</ele><time>2026-04-21T13:54:52.296Z</time></trkpt><trkpt lat="39.4881645" lon="8.5156049"><ele>465.0</ele><time>2026-04-21T13:54:53.295Z</time></trkpt><trkpt lat="39.4881517" lon="8.5157101"><ele>464.66666666666663</ele><time>2026-04-21T13:54:54.295Z</time></trkpt><trkpt lat="39.4881325" lon="8.5158088"><ele>464.3333333333333</ele><time>2026-04-21T13:54:55.295Z</time></trkpt><trkpt lat="39.4881104" lon="8.5159159"><ele>464.0</ele><time>2026-04-21T13:54:56.295Z</time></trkpt><trkpt lat="39.4880841" lon="8.5160232"><ele>463.99999999999994</ele><time>2026-04-21T13:54:57.295Z</time></trkpt><trkpt lat="39.4880629" lon="8.5161313"><ele>464.0</ele><time>2026-04-21T13:54:58.296Z</time></trkpt><trkpt lat="39.48804" lon="8.5162387"><ele>464.0</ele><time>2026-04-21T13:54:59.295Z</time></trkpt><trkpt lat="39.4880169" lon="8.5163436"><ele>464.0</ele><time>2026-04-21T13:55:00.295Z</time></trkpt><trkpt lat="39.4879918" lon="8.5164426"><ele>463.99999999999994</ele><time>2026-04-21T13:55:01.295Z</time></trkpt><trkpt lat="39.487959" lon="8.5165388"><ele>464.0</ele><time>2026-04-21T13:55:02.295Z</time></trkpt><trkpt lat="39.4879258" lon="8.5166401"><ele>463.8571428571429</ele><time>2026-04-21T13:55:03.295Z</time></trkpt><trkpt lat="39.4878942" lon="8.5167415"><ele>463.7142857142857</ele><time>2026-04-21T13:55:04.296Z</time></trkpt><trkpt lat="39.4878682" lon="8.5168359"><ele>463.57142857142856</ele><time>2026-04-21T13:55:05.296Z</time></trkpt><trkpt lat="39.4878352" lon="8.5169215"><ele>463.42857142857144</ele><time>2026-04-21T13:55:06.296Z</time></trkpt><trkpt lat="39.487806" lon="8.5170023"><ele>463.2857142857142</ele><time>2026-04-21T13:55:07.295Z</time></trkpt><trkpt lat="39.4877746" lon="8.5170778"><ele>463.1428571428571</ele><time>2026-04-21T13:55:08.296Z</time></trkpt><trkpt lat="39.4877467" lon="8.5171599"><ele>463.0</ele><time>2026-04-21T13:55:09.296Z</time></trkpt><trkpt lat="39.4877216" lon="8.5172466"><ele>462.6666666666667</ele><time>2026-04-21T13:55:10.296Z</time></trkpt><trkpt lat="39.4876974" lon="8.517329"><ele>462.33333333333337</ele><time>2026-04-21T13:55:11.295Z</time></trkpt><trkpt lat="39.4876754" lon="8.5174062"><ele>462.0</ele><time>2026-04-21T13:55:12.296Z</time></trkpt><trkpt lat="39.4876402" lon="8.5175446"><ele>461.66666666666663</ele><time>2026-04-21T13:55:14.296Z</time></trkpt><trkpt lat="39.4876168" lon="8.5176395"><ele>461.3333333333333</ele><time>2026-04-21T13:55:16.296Z</time></trkpt><trkpt lat="39.4876046" lon="8.5177599"><ele>461.0</ele><time>2026-04-21T13:55:19.296Z</time></trkpt><trkpt lat="39.4875812" lon="8.5178812"><ele>460.8</ele><time>2026-04-21T13:55:21.295Z</time></trkpt><trkpt lat="39.4875484" lon="8.5180278"><ele>460.6</ele><time>2026-04-21T13:55:23.295Z</time></trkpt><trkpt lat="39.4875223" lon="8.518164"><ele>460.4</ele><time>2026-04-21T13:55:25.296Z</time></trkpt><trkpt lat="39.4874985" lon="8.5182689"><ele>460.2</ele><time>2026-04-21T13:55:27.296Z</time></trkpt><trkpt lat="39.4874767" lon="8.5183552"><ele>460.0</ele><time>2026-04-21T13:55:29.296Z</time></trkpt><trkpt lat="39.4874613" lon="8.5184631"><ele>460.0</ele><time>2026-04-21T13:55:31.296Z</time></trkpt><trkpt lat="39.4874591" lon="8.5185788"><ele>460.0</ele><time>2026-04-21T13:55:33.296Z</time></trkpt><trkpt lat="39.4874548" lon="8.5187096"><ele>460.0</ele><time>2026-04-21T13:55:35.296Z</time></trkpt><trkpt lat="39.4874677" lon="8.5188414"><ele>460.0</ele><time>2026-04-21T13:55:37.296Z</time></trkpt><trkpt lat="39.4874997" lon="8.5189829"><ele>460.0</ele><time>2026-04-21T13:55:39.295Z</time></trkpt><trkpt lat="39.487508" lon="8.5191456"><ele>460.00000000000006</ele><time>2026-04-21T13:55:41.295Z</time></trkpt><trkpt lat="39.4875425" lon="8.5193042"><ele>460.0</ele><time>2026-04-21T13:55:43.296Z</time></trkpt><trkpt lat="39.487571" lon="8.5193826"><ele>460.0</ele><time>2026-04-21T13:55:44.296Z</time></trkpt><trkpt lat="39.4876105" lon="8.5194521"><ele>460.0</ele><time>2026-04-21T13:55:45.296Z</time></trkpt><trkpt lat="39.487654" lon="8.5195193"><ele>460.00000000000006</ele><time>2026-04-21T13:55:46.296Z</time></trkpt><trkpt lat="39.4877012" lon="8.519585"><ele>460.0</ele><time>2026-04-21T13:55:47.296Z</time></trkpt><trkpt lat="39.4877464" lon="8.5196666"><ele>460.00000000000006</ele><time>2026-04-21T13:55:48.296Z</time></trkpt><trkpt lat="39.4877912" lon="8.5197453"><ele>460.0</ele><time>2026-04-21T13:55:49.296Z</time></trkpt><trkpt lat="39.4878286" lon="8.5198234"><ele>460.0</ele><time>2026-04-21T13:55:50.295Z</time></trkpt><trkpt lat="39.4878645" lon="8.5199029"><ele>460.0</ele><time>2026-04-21T13:55:51.296Z</time></trkpt><trkpt lat="39.4878995" lon="8.5199793"><ele>460.00000000000006</ele><time>2026-04-21T13:55:52.296Z</time></trkpt><trkpt lat="39.4879603" lon="8.5201146"><ele>460.0</ele><time>2026-04-21T13:55:54.295Z</time></trkpt><trkpt lat="39.4879988" lon="8.5202648"><ele>458.83333333333337</ele><time>2026-04-21T13:55:56.296Z</time></trkpt><trkpt lat="39.4880152" lon="8.5203581"><ele>457.6666666666667</ele><time>2026-04-21T13:55:57.296Z</time></trkpt><trkpt lat="39.4880303" lon="8.5204757"><ele>456.5</ele><time>2026-04-21T13:55:58.296Z</time></trkpt><trkpt lat="39.4880466" lon="8.520596"><ele>455.33333333333337</ele><time>2026-04-21T13:55:59.296Z</time></trkpt><trkpt lat="39.4880691" lon="8.5207092"><ele>454.1666666666667</ele><time>2026-04-21T13:56:00.296Z</time></trkpt><trkpt lat="39.4880943" lon="8.5208245"><ele>453.0</ele><time>2026-04-21T13:56:01.295Z</time></trkpt><trkpt lat="39.4881208" lon="8.5209438"><ele>452.59999999999997</ele><time>2026-04-21T13:56:02.296Z</time></trkpt><trkpt lat="39.4881495" lon="8.5210578"><ele>452.19999999999993</ele><time>2026-04-21T13:56:03.296Z</time></trkpt><trkpt lat="39.4881749" lon="8.5211683"><ele>451.8</ele><time>2026-04-21T13:56:04.296Z</time></trkpt><trkpt lat="39.4881975" lon="8.5212902"><ele>451.4</ele><time>2026-04-21T13:56:05.296Z</time></trkpt><trkpt lat="39.4882132" lon="8.5214122"><ele>451.0</ele><time>2026-04-21T13:56:06.295Z</time></trkpt><trkpt lat="39.488223" lon="8.5215321"><ele>450.20000000000005</ele><time>2026-04-21T13:56:07.295Z</time></trkpt><trkpt lat="39.488227" lon="8.5216488"><ele>449.40000000000003</ele><time>2026-04-21T13:56:08.295Z</time></trkpt><trkpt lat="39.4882308" lon="8.5217701"><ele>448.6</ele><time>2026-04-21T13:56:09.296Z</time></trkpt><trkpt lat="39.4882352" lon="8.5218996"><ele>447.8</ele><time>2026-04-21T13:56:10.296Z</time></trkpt><trkpt lat="39.488237" lon="8.5220254"><ele>447.0</ele><time>2026-04-21T13:56:11.295Z</time></trkpt><trkpt lat="39.4882428" lon="8.522151"><ele>446.40000000000003</ele><time>2026-04-21T13:56:12.295Z</time></trkpt><trkpt lat="39.488253" lon="8.5222804"><ele>445.80000000000007</ele><time>2026-04-21T13:56:13.295Z</time></trkpt><trkpt lat="39.4882619" lon="8.5224122"><ele>445.2</ele><time>2026-04-21T13:56:14.296Z</time></trkpt><trkpt lat="39.4882674" lon="8.5225463"><ele>444.6</ele><time>2026-04-21T13:56:15.296Z</time></trkpt><trkpt lat="39.4882811" lon="8.5226825"><ele>444.0</ele><time>2026-04-21T13:56:16.296Z</time></trkpt><trkpt lat="39.4882872" lon="8.522812"><ele>444.0</ele><time>2026-04-21T13:56:17.295Z</time></trkpt><trkpt lat="39.4882948" lon="8.5229326"><ele>444.0</ele><time>2026-04-21T13:56:18.296Z</time></trkpt><trkpt lat="39.4883" lon="8.5230482"><ele>444.0</ele><time>2026-04-21T13:56:19.296Z</time></trkpt><trkpt lat="39.4883094" lon="8.5231587"><ele>444.0</ele><time>2026-04-21T13:56:20.296Z</time></trkpt><trkpt lat="39.4883165" lon="8.5232722"><ele>444.0</ele><time>2026-04-21T13:56:21.296Z</time></trkpt><trkpt lat="39.4883296" lon="8.5233927"><ele>444.0</ele><time>2026-04-21T13:56:22.296Z</time></trkpt><trkpt lat="39.4883506" lon="8.5234923"><ele>444.0</ele><time>2026-04-21T13:56:23.296Z</time></trkpt><trkpt lat="39.4883684" lon="8.5235963"><ele>444.0</ele><time>2026-04-21T13:56:24.296Z</time></trkpt><trkpt lat="39.4883821" lon="8.5236933"><ele>444.0</ele><time>2026-04-21T13:56:25.296Z</time></trkpt><trkpt lat="39.4884014" lon="8.5237807"><ele>444.0</ele><time>2026-04-21T13:56:26.296Z</time></trkpt><trkpt lat="39.4884321" lon="8.5238711"><ele>444.0</ele><time>2026-04-21T13:56:27.295Z</time></trkpt><trkpt lat="39.4884662" lon="8.5239639"><ele>444.0</ele><time>2026-04-21T13:56:28.295Z</time></trkpt><trkpt lat="39.4884841" lon="8.5240625"><ele>444.0</ele><time>2026-04-21T13:56:29.296Z</time></trkpt><trkpt lat="39.4885012" lon="8.5241567"><ele>444.0</ele><time>2026-04-21T13:56:30.295Z</time></trkpt><trkpt lat="39.4885114" lon="8.5242554"><ele>444.0</ele><time>2026-04-21T13:56:31.295Z</time></trkpt><trkpt lat="39.4885137" lon="8.5243531"><ele>444.0</ele><time>2026-04-21T13:56:32.296Z</time></trkpt><trkpt lat="39.488507" lon="8.524451"><ele>444.0</ele><time>2026-04-21T13:56:33.296Z</time></trkpt><trkpt lat="39.4884976" lon="8.5245584"><ele>443.6666666666667</ele><time>2026-04-21T13:56:34.296Z</time></trkpt><trkpt lat="39.4884933" lon="8.5246712"><ele>443.33333333333337</ele><time>2026-04-21T13:56:35.295Z</time></trkpt><trkpt lat="39.4884966" lon="8.5247826"><ele>443.0</ele><time>2026-04-21T13:56:36.296Z</time></trkpt><trkpt lat="39.4885108" lon="8.5248815"><ele>442.6666666666667</ele><time>2026-04-21T13:56:37.295Z</time></trkpt><trkpt lat="39.4885335" lon="8.5249799"><ele>442.33333333333337</ele><time>2026-04-21T13:56:38.295Z</time></trkpt><trkpt lat="39.4885633" lon="8.5250787"><ele>442.0</ele><time>2026-04-21T13:56:39.296Z</time></trkpt><trkpt lat="39.488599" lon="8.5251773"><ele>442.00000000000006</ele><time>2026-04-21T13:56:40.295Z</time></trkpt><trkpt lat="39.4886405" lon="8.5252749"><ele>442.0</ele><time>2026-04-21T13:56:41.295Z</time></trkpt><trkpt lat="39.4886738" lon="8.5253654"><ele>442.0</ele><time>2026-04-21T13:56:42.296Z</time></trkpt><trkpt lat="39.4887081" lon="8.5254589"><ele>442.0</ele><time>2026-04-21T13:56:43.296Z</time></trkpt><trkpt lat="39.4887343" lon="8.5255466"><ele>442.00000000000006</ele><time>2026-04-21T13:56:44.296Z</time></trkpt><trkpt lat="39.4887611" lon="8.5256316"><ele>442.0</ele><time>2026-04-21T13:56:45.296Z</time></trkpt><trkpt lat="39.4887653" lon="8.5257163"><ele>441.42857142857144</ele><time>2026-04-21T13:56:46.295Z</time></trkpt><trkpt lat="39.4887538" lon="8.5258051"><ele>440.8571428571429</ele><time>2026-04-21T13:56:47.296Z</time></trkpt><trkpt lat="39.4887322" lon="8.5258826"><ele>440.28571428571433</ele><time>2026-04-21T13:56:48.296Z</time></trkpt><trkpt lat="39.4887033" lon="8.5259555"><ele>439.7142857142857</ele><time>2026-04-21T13:56:49.296Z</time></trkpt><trkpt lat="39.4886671" lon="8.5260234"><ele>439.1428571428571</ele><time>2026-04-21T13:56:50.296Z</time></trkpt><trkpt lat="39.4886212" lon="8.526081"><ele>438.5714285714286</ele><time>2026-04-21T13:56:51.296Z</time></trkpt><trkpt lat="39.4885673" lon="8.5261269"><ele>438.0</ele><time>2026-04-21T13:56:52.295Z</time></trkpt><trkpt lat="39.4885015" lon="8.5261632"><ele>438.0</ele><time>2026-04-21T13:56:53.296Z</time></trkpt><trkpt lat="39.4884308" lon="8.5261927"><ele>438.0</ele><time>2026-04-21T13:56:54.295Z</time></trkpt><trkpt lat="39.4883612" lon="8.5262182"><ele>438.0</ele><time>2026-04-21T13:56:55.296Z</time></trkpt><trkpt lat="39.4883012" lon="8.5262434"><ele>438.0</ele><time>2026-04-21T13:56:56.295Z</time></trkpt><trkpt lat="39.4882431" lon="8.5262771"><ele>438.0</ele><time>2026-04-21T13:56:57.296Z</time></trkpt><trkpt lat="39.488187" lon="8.5263149"><ele>438.0</ele><time>2026-04-21T13:56:58.295Z</time></trkpt><trkpt lat="39.4880886" lon="8.5263884"><ele>437.0</ele><time>2026-04-21T13:57:00.296Z</time></trkpt><trkpt lat="39.4880167" lon="8.5264732"><ele>436.0</ele><time>2026-04-21T13:57:02.296Z</time></trkpt><trkpt lat="39.4879943" lon="8.526604"><ele>435.0</ele><time>2026-04-21T13:57:04.295Z</time></trkpt><trkpt lat="39.4880128" lon="8.5266834"><ele>434.0</ele><time>2026-04-21T13:57:05.296Z</time></trkpt><trkpt lat="39.4880389" lon="8.5267749"><ele>433.0</ele><time>2026-04-21T13:57:06.296Z</time></trkpt><trkpt lat="39.4880716" lon="8.526867"><ele>432.0</ele><time>2026-04-21T13:57:07.296Z</time></trkpt><trkpt lat="39.4881033" lon="8.5269507"><ele>432.20000000000005</ele><time>2026-04-21T13:57:08.296Z</time></trkpt><trkpt lat="39.4881407" lon="8.527086"><ele>432.40000000000003</ele><time>2026-04-21T13:57:10.296Z</time></trkpt><trkpt lat="39.4881272" lon="8.5272223"><ele>432.59999999999997</ele><time>2026-04-21T13:57:12.296Z</time></trkpt><trkpt lat="39.4881055" lon="8.5273759"><ele>432.79999999999995</ele><time>2026-04-21T13:57:14.295Z</time></trkpt><trkpt lat="39.4880888" lon="8.5274604"><ele>433.0</ele><time>2026-04-21T13:57:15.295Z</time></trkpt><trkpt lat="39.4880636" lon="8.5275372"><ele>433.00000000000006</ele><time>2026-04-21T13:57:16.296Z</time></trkpt><trkpt lat="39.4880273" lon="8.5276211"><ele>433.0</ele><time>2026-04-21T13:57:17.296Z</time></trkpt><trkpt lat="39.4879913" lon="8.5277136"><ele>433.0</ele><time>2026-04-21T13:57:18.296Z</time></trkpt><trkpt lat="39.4879615" lon="8.5278188"><ele>433.0</ele><time>2026-04-21T13:57:19.295Z</time></trkpt><trkpt lat="39.4879402" lon="8.5279254"><ele>433.00000000000006</ele><time>2026-04-21T13:57:20.295Z</time></trkpt><trkpt lat="39.4879114" lon="8.5280389"><ele>433.0</ele><time>2026-04-21T13:57:21.296Z</time></trkpt><trkpt lat="39.4878805" lon="8.5281578"><ele>433.83333333333337</ele><time>2026-04-21T13:57:22.296Z</time></trkpt><trkpt lat="39.4878484" lon="8.5282727"><ele>434.6666666666667</ele><time>2026-04-21T13:57:23.296Z</time></trkpt><trkpt lat="39.487822" lon="8.5283799"><ele>435.5</ele><time>2026-04-21T13:57:24.296Z</time></trkpt><trkpt lat="39.4877946" lon="8.5284636"><ele>436.33333333333337</ele><time>2026-04-21T13:57:25.296Z</time></trkpt><trkpt lat="39.4877641" lon="8.5285406"><ele>437.1666666666667</ele><time>2026-04-21T13:57:26.296Z</time></trkpt><trkpt lat="39.4877355" lon="8.5286291"><ele>438.0</ele><time>2026-04-21T13:57:27.296Z</time></trkpt><trkpt lat="39.4877025" lon="8.5287322"><ele>438.3333333333333</ele><time>2026-04-21T13:57:28.296Z</time></trkpt><trkpt lat="39.4876601" lon="8.5288446"><ele>438.66666666666663</ele><time>2026-04-21T13:57:29.295Z</time></trkpt><trkpt lat="39.4876172" lon="8.5289552"><ele>439.0</ele><time>2026-04-21T13:57:30.295Z</time></trkpt><trkpt lat="39.487577" lon="8.5290407"><ele>439.3333333333333</ele><time>2026-04-21T13:57:31.296Z</time></trkpt><trkpt lat="39.4875342" lon="8.5291138"><ele>439.66666666666663</ele><time>2026-04-21T13:57:32.295Z</time></trkpt><trkpt lat="39.4874774" lon="8.5291815"><ele>440.0</ele><time>2026-04-21T13:57:33.295Z</time></trkpt><trkpt lat="39.4874132" lon="8.5292442"><ele>439.99999999999994</ele><time>2026-04-21T13:57:34.295Z</time></trkpt><trkpt lat="39.4873457" lon="8.5293039"><ele>440.0</ele><time>2026-04-21T13:57:35.295Z</time></trkpt><trkpt lat="39.4872802" lon="8.5293726"><ele>440.0</ele><time>2026-04-21T13:57:36.296Z</time></trkpt><trkpt lat="39.4872091" lon="8.5294372"><ele>440.0</ele><time>2026-04-21T13:57:37.296Z</time></trkpt><trkpt lat="39.4871359" lon="8.5295006"><ele>439.99999999999994</ele><time>2026-04-21T13:57:38.295Z</time></trkpt><trkpt lat="39.4870576" lon="8.5295608"><ele>440.0</ele><time>2026-04-21T13:57:39.296Z</time></trkpt><trkpt lat="39.4869726" lon="8.5296247"><ele>440.8</ele><time>2026-04-21T13:57:40.296Z</time></trkpt><trkpt lat="39.4868837" lon="8.5296857"><ele>441.6</ele><time>2026-04-21T13:57:41.296Z</time></trkpt><trkpt lat="39.4867954" lon="8.5297408"><ele>442.4</ele><time>2026-04-21T13:57:42.296Z</time></trkpt><trkpt lat="39.4867052" lon="8.5297922"><ele>443.2</ele><time>2026-04-21T13:57:43.295Z</time></trkpt><trkpt lat="39.4866227" lon="8.5298452"><ele>444.0</ele><time>2026-04-21T13:57:44.296Z</time></trkpt><trkpt lat="39.4865397" lon="8.5299118"><ele>444.0</ele><time>2026-04-21T13:57:45.295Z</time></trkpt><trkpt lat="39.4864614" lon="8.5299822"><ele>444.0</ele><time>2026-04-21T13:57:46.296Z</time></trkpt><trkpt lat="39.4863855" lon="8.5300543"><ele>444.0</ele><time>2026-04-21T13:57:47.296Z</time></trkpt><trkpt lat="39.4863076" lon="8.5301213"><ele>444.0</ele><time>2026-04-21T13:57:48.295Z</time></trkpt><trkpt lat="39.4862335" lon="8.5301816"><ele>444.0</ele><time>2026-04-21T13:57:49.295Z</time></trkpt><trkpt lat="39.4861536" lon="8.5302432"><ele>444.0</ele><time>2026-04-21T13:57:50.295Z</time></trkpt><trkpt lat="39.4860722" lon="8.5302912"><ele>444.0</ele><time>2026-04-21T13:57:51.295Z</time></trkpt><trkpt lat="39.4859967" lon="8.5303353"><ele>444.0</ele><time>2026-04-21T13:57:52.296Z</time></trkpt><trkpt lat="39.4859248" lon="8.5303768"><ele>444.0</ele><time>2026-04-21T13:57:53.296Z</time></trkpt><trkpt lat="39.4858532" lon="8.5304111"><ele>444.0</ele><time>2026-04-21T13:57:54.296Z</time></trkpt><trkpt lat="39.4857789" lon="8.5304323"><ele>444.0</ele><time>2026-04-21T13:57:55.295Z</time></trkpt><trkpt lat="39.4857019" lon="8.5304406"><ele>444.0</ele><time>2026-04-21T13:57:56.295Z</time></trkpt><trkpt lat="39.4856159" lon="8.5304385"><ele>444.0</ele><time>2026-04-21T13:57:57.296Z</time></trkpt><trkpt lat="39.4855255" lon="8.5304254"><ele>444.0</ele><time>2026-04-21T13:57:58.295Z</time></trkpt><trkpt lat="39.4854254" lon="8.5304065"><ele>444.0</ele><time>2026-04-21T13:57:59.296Z</time></trkpt><trkpt lat="39.4853363" lon="8.5303882"><ele>444.0</ele><time>2026-04-21T13:58:00.296Z</time></trkpt><trkpt lat="39.4852515" lon="8.5303837"><ele>443.6666666666667</ele><time>2026-04-21T13:58:01.295Z</time></trkpt><trkpt lat="39.4851759" lon="8.5303929"><ele>443.33333333333337</ele><time>2026-04-21T13:58:02.295Z</time></trkpt><trkpt lat="39.4850979" lon="8.5304166"><ele>443.0</ele><time>2026-04-21T13:58:03.295Z</time></trkpt><trkpt lat="39.4850225" lon="8.5304502"><ele>442.6666666666667</ele><time>2026-04-21T13:58:04.296Z</time></trkpt><trkpt lat="39.4849542" lon="8.5304815"><ele>442.33333333333337</ele><time>2026-04-21T13:58:05.295Z</time></trkpt><trkpt lat="39.4848879" lon="8.530521"><ele>442.0</ele><time>2026-04-21T13:58:06.296Z</time></trkpt><trkpt lat="39.4848202" lon="8.5305786"><ele>442.0</ele><time>2026-04-21T13:58:07.295Z</time></trkpt><trkpt lat="39.4847489" lon="8.5306548"><ele>442.00000000000006</ele><time>2026-04-21T13:58:08.296Z</time></trkpt><trkpt lat="39.4846795" lon="8.5307399"><ele>442.00000000000006</ele><time>2026-04-21T13:58:09.295Z</time></trkpt><trkpt lat="39.4846124" lon="8.5308221"><ele>442.0</ele><time>2026-04-21T13:58:10.295Z</time></trkpt><trkpt lat="39.4845511" lon="8.5309061"><ele>442.0</ele><time>2026-04-21T13:58:11.296Z</time></trkpt><trkpt lat="39.4844958" lon="8.5309895"><ele>442.6666666666667</ele><time>2026-04-21T13:58:12.296Z</time></trkpt><trkpt lat="39.4844399" lon="8.5310762"><ele>443.33333333333337</ele><time>2026-04-21T13:58:13.296Z</time></trkpt><trkpt lat="39.4843874" lon="8.5311602"><ele>444.0</ele><time>2026-04-21T13:58:14.296Z</time></trkpt><trkpt lat="39.4843301" lon="8.5312431"><ele>444.66666666666663</ele><time>2026-04-21T13:58:15.296Z</time></trkpt><trkpt lat="39.4842767" lon="8.5313256"><ele>445.3333333333333</ele><time>2026-04-21T13:58:16.295Z</time></trkpt><trkpt lat="39.4842285" lon="8.5314132"><ele>446.0</ele><time>2026-04-21T13:58:17.295Z</time></trkpt><trkpt lat="39.4841844" lon="8.5314937"><ele>443.8333333333333</ele><time>2026-04-21T13:58:18.295Z</time></trkpt><trkpt lat="39.4841291" lon="8.5315727"><ele>441.66666666666663</ele><time>2026-04-21T13:58:19.296Z</time></trkpt><trkpt lat="39.4840843" lon="8.531658"><ele>439.5</ele><time>2026-04-21T13:58:20.295Z</time></trkpt><trkpt lat="39.4840552" lon="8.5317513"><ele>437.33333333333337</ele><time>2026-04-21T13:58:21.296Z</time></trkpt><trkpt lat="39.4840248" lon="8.5318515"><ele>435.1666666666667</ele><time>2026-04-21T13:58:22.296Z</time></trkpt><trkpt lat="39.4839928" lon="8.531956"><ele>433.0</ele><time>2026-04-21T13:58:23.295Z</time></trkpt><trkpt lat="39.4839595" lon="8.5320629"><ele>434.0</ele><time>2026-04-21T13:58:24.295Z</time></trkpt><trkpt lat="39.4839199" lon="8.5321679"><ele>434.99999999999994</ele><time>2026-04-21T13:58:25.295Z</time></trkpt><trkpt lat="39.4838692" lon="8.5322744"><ele>435.99999999999994</ele><time>2026-04-21T13:58:26.296Z</time></trkpt><trkpt lat="39.4838236" lon="8.5323754"><ele>437.0</ele><time>2026-04-21T13:58:27.296Z</time></trkpt><trkpt lat="39.4837774" lon="8.5324813"><ele>438.0</ele><time>2026-04-21T13:58:28.296Z</time></trkpt><trkpt lat="39.48373" lon="8.5325777"><ele>438.0</ele><time>2026-04-21T13:58:29.296Z</time></trkpt><trkpt lat="39.4836858" lon="8.5326736"><ele>438.0</ele><time>2026-04-21T13:58:30.296Z</time></trkpt><trkpt lat="39.4836426" lon="8.532775"><ele>438.0</ele><time>2026-04-21T13:58:31.295Z</time></trkpt><trkpt lat="39.4835971" lon="8.5328689"><ele>438.0</ele><time>2026-04-21T13:58:32.295Z</time></trkpt><trkpt lat="39.4835506" lon="8.5329624"><ele>438.0</ele><time>2026-04-21T13:58:33.295Z</time></trkpt><trkpt lat="39.4834979" lon="8.5330436"><ele>438.0</ele><time>2026-04-21T13:58:34.296Z</time></trkpt><trkpt lat="39.4834457" lon="8.5331146"><ele>435.5</ele><time>2026-04-21T13:58:35.295Z</time></trkpt><trkpt lat="39.4833971" lon="8.5331809"><ele>433.0</ele><time>2026-04-21T13:58:36.295Z</time></trkpt><trkpt lat="39.4833334" lon="8.5332374"><ele>430.5</ele><time>2026-04-21T13:58:37.296Z</time></trkpt><trkpt lat="39.4832598" lon="8.5332869"><ele>428.0</ele><time>2026-04-21T13:58:38.296Z</time></trkpt><trkpt lat="39.483189" lon="8.533329"><ele>425.5</ele><time>2026-04-21T13:58:39.295Z</time></trkpt><trkpt lat="39.4831014" lon="8.5334369"><ele>423.0</ele><time>2026-04-21T13:58:41.296Z</time></trkpt><trkpt lat="39.4830648" lon="8.5335977"><ele>423.0</ele><time>2026-04-21T13:58:43.295Z</time></trkpt><trkpt lat="39.4830632" lon="8.5336997"><ele>423.0</ele><time>2026-04-21T13:58:44.296Z</time></trkpt><trkpt lat="39.4830668" lon="8.5338202"><ele>423.0</ele><time>2026-04-21T13:58:45.295Z</time></trkpt><trkpt lat="39.4830606" lon="8.5339419"><ele>423.0</ele><time>2026-04-21T13:58:46.296Z</time></trkpt><trkpt lat="39.4830532" lon="8.5340522"><ele>423.0</ele><time>2026-04-21T13:58:47.295Z</time></trkpt><trkpt lat="39.4830291" lon="8.5341474"><ele>423.0</ele><time>2026-04-21T13:58:48.296Z</time></trkpt><trkpt lat="39.4830068" lon="8.5342326"><ele>422.1666666666667</ele><time>2026-04-21T13:58:49.296Z</time></trkpt><trkpt lat="39.4829608" lon="8.5343295"><ele>421.33333333333337</ele><time>2026-04-21T13:58:50.295Z</time></trkpt><trkpt lat="39.4829223" lon="8.5344326"><ele>420.5</ele><time>2026-04-21T13:58:51.295Z</time></trkpt><trkpt lat="39.4828818" lon="8.5345224"><ele>419.6666666666667</ele><time>2026-04-21T13:58:52.295Z</time></trkpt><trkpt lat="39.4828325" lon="8.5346023"><ele>418.83333333333337</ele><time>2026-04-21T13:58:53.296Z</time></trkpt><trkpt lat="39.4827732" lon="8.5346657"><ele>418.0</ele><time>2026-04-21T13:58:54.296Z</time></trkpt><trkpt lat="39.4826959" lon="8.5347247"><ele>420.2</ele><time>2026-04-21T13:58:55.296Z</time></trkpt><trkpt lat="39.4826048" lon="8.534785"><ele>422.4</ele><time>2026-04-21T13:58:56.296Z</time></trkpt><trkpt lat="39.4825136" lon="8.5348387"><ele>424.59999999999997</ele><time>2026-04-21T13:58:57.295Z</time></trkpt><trkpt lat="39.4824227" lon="8.5348997"><ele>426.79999999999995</ele><time>2026-04-21T13:58:58.296Z</time></trkpt><trkpt lat="39.4823461" lon="8.5349581"><ele>429.0</ele><time>2026-04-21T13:58:59.296Z</time></trkpt><trkpt lat="39.482284" lon="8.5350164"><ele>429.0</ele><time>2026-04-21T13:59:00.296Z</time></trkpt><trkpt lat="39.4822253" lon="8.5350767"><ele>429.0</ele><time>2026-04-21T13:59:01.295Z</time></trkpt><trkpt lat="39.4821662" lon="8.5351487"><ele>429.0</ele><time>2026-04-21T13:59:02.296Z</time></trkpt><trkpt lat="39.4821308" lon="8.5352259"><ele>429.0</ele><time>2026-04-21T13:59:03.296Z</time></trkpt><trkpt lat="39.4821155" lon="8.5353123"><ele>429.0</ele><time>2026-04-21T13:59:04.295Z</time></trkpt><trkpt lat="39.4821143" lon="8.5354148"><ele>429.0</ele><time>2026-04-21T13:59:05.295Z</time></trkpt><trkpt lat="39.4820977" lon="8.5355083"><ele>429.0</ele><time>2026-04-21T13:59:06.295Z</time></trkpt><trkpt lat="39.4820607" lon="8.5355941"><ele>430.1666666666667</ele><time>2026-04-21T13:59:07.296Z</time></trkpt><trkpt lat="39.4819979" lon="8.5356576"><ele>431.33333333333337</ele><time>2026-04-21T13:59:08.295Z</time></trkpt><trkpt lat="39.4819268" lon="8.5357142"><ele>432.5</ele><time>2026-04-21T13:59:09.295Z</time></trkpt><trkpt lat="39.4818673" lon="8.5357723"><ele>433.6666666666667</ele><time>2026-04-21T13:59:10.296Z</time></trkpt><trkpt lat="39.481817" lon="8.5358481"><ele>434.83333333333337</ele><time>2026-04-21T13:59:11.295Z</time></trkpt><trkpt lat="39.4817597" lon="8.5359409"><ele>436.0</ele><time>2026-04-21T13:59:12.296Z</time></trkpt><trkpt lat="39.4817116" lon="8.5360355"><ele>436.00000000000006</ele><time>2026-04-21T13:59:13.295Z</time></trkpt><trkpt lat="39.4816659" lon="8.5361323"><ele>436.0</ele><time>2026-04-21T13:59:14.295Z</time></trkpt><trkpt lat="39.481629" lon="8.5362406"><ele>436.0</ele><time>2026-04-21T13:59:15.295Z</time></trkpt><trkpt lat="39.4816018" lon="8.5363482"><ele>436.0</ele><time>2026-04-21T13:59:16.296Z</time></trkpt><trkpt lat="39.4815719" lon="8.5364524"><ele>436.00000000000006</ele><time>2026-04-21T13:59:17.296Z</time></trkpt><trkpt lat="39.4815479" lon="8.5365459"><ele>436.0</ele><time>2026-04-21T13:59:18.295Z</time></trkpt><trkpt lat="39.4815209" lon="8.5366399"><ele>433.0</ele><time>2026-04-21T13:59:19.295Z</time></trkpt><trkpt lat="39.4814894" lon="8.5367423"><ele>430.0</ele><time>2026-04-21T13:59:20.296Z</time></trkpt><trkpt lat="39.4814464" lon="8.5368493"><ele>427.0</ele><time>2026-04-21T13:59:21.296Z</time></trkpt><trkpt lat="39.4813907" lon="8.5369563"><ele>424.0</ele><time>2026-04-21T13:59:22.295Z</time></trkpt><trkpt lat="39.4813438" lon="8.5370626"><ele>421.0</ele><time>2026-04-21T13:59:23.295Z</time></trkpt><trkpt lat="39.4812958" lon="8.5371721"><ele>423.8</ele><time>2026-04-21T13:59:24.296Z</time></trkpt><trkpt lat="39.4812402" lon="8.5372804"><ele>426.6</ele><time>2026-04-21T13:59:25.296Z</time></trkpt><trkpt lat="39.481195" lon="8.5373907"><ele>429.4</ele><time>2026-04-21T13:59:26.295Z</time></trkpt><trkpt lat="39.4811523" lon="8.5374986"><ele>432.2</ele><time>2026-04-21T13:59:27.295Z</time></trkpt><trkpt lat="39.4811246" lon="8.5376063"><ele>435.0</ele><time>2026-04-21T13:59:28.295Z</time></trkpt><trkpt lat="39.4811048" lon="8.5377167"><ele>435.0</ele><time>2026-04-21T13:59:29.295Z</time></trkpt><trkpt lat="39.4810994" lon="8.5378264"><ele>435.0</ele><time>2026-04-21T13:59:30.295Z</time></trkpt><trkpt lat="39.4810978" lon="8.5379378"><ele>435.0</ele><time>2026-04-21T13:59:31.296Z</time></trkpt><trkpt lat="39.481098" lon="8.5380405"><ele>435.0</ele><time>2026-04-21T13:59:32.295Z</time></trkpt><trkpt lat="39.4810948" lon="8.5381391"><ele>435.0</ele><time>2026-04-21T13:59:33.295Z</time></trkpt><trkpt lat="39.4810647" lon="8.5382316"><ele>435.0</ele><time>2026-04-21T13:59:34.295Z</time></trkpt><trkpt lat="39.4810182" lon="8.5383284"><ele>432.0</ele><time>2026-04-21T13:59:35.296Z</time></trkpt><trkpt lat="39.4809455" lon="8.5384134"><ele>429.0</ele><time>2026-04-21T13:59:36.296Z</time></trkpt><trkpt lat="39.480867" lon="8.538496"><ele>426.0</ele><time>2026-04-21T13:59:37.295Z</time></trkpt><trkpt lat="39.4808019" lon="8.5385728"><ele>423.0</ele><time>2026-04-21T13:59:38.296Z</time></trkpt><trkpt lat="39.4807306" lon="8.5386569"><ele>420.0</ele><time>2026-04-21T13:59:39.295Z</time></trkpt><trkpt lat="39.480658" lon="8.538729"><ele>419.14285714285717</ele><time>2026-04-21T13:59:40.296Z</time></trkpt><trkpt lat="39.4805974" lon="8.5387949"><ele>418.2857142857143</ele><time>2026-04-21T13:59:41.296Z</time></trkpt><trkpt lat="39.4805324" lon="8.5388595"><ele>417.42857142857144</ele><time>2026-04-21T13:59:42.296Z</time></trkpt><trkpt lat="39.4804672" lon="8.5389184"><ele>416.57142857142856</ele><time>2026-04-21T13:59:43.295Z</time></trkpt><trkpt lat="39.4804078" lon="8.5389711"><ele>415.7142857142857</ele><time>2026-04-21T13:59:44.296Z</time></trkpt><trkpt lat="39.4803482" lon="8.539009"><ele>414.8571428571429</ele><time>2026-04-21T13:59:45.296Z</time></trkpt><trkpt lat="39.4802855" lon="8.5390399"><ele>414.0</ele><time>2026-04-21T13:59:46.295Z</time></trkpt><trkpt lat="39.4801729" lon="8.5390927"><ele>414.00000000000006</ele><time>2026-04-21T13:59:48.295Z</time></trkpt><trkpt lat="39.4801029" lon="8.5390941"><ele>414.0</ele><time>2026-04-21T13:59:49.295Z</time></trkpt><trkpt lat="39.4800265" lon="8.5390738"><ele>414.0</ele><time>2026-04-21T13:59:50.296Z</time></trkpt><trkpt lat="39.479952" lon="8.5390502"><ele>414.0</ele><time>2026-04-21T13:59:51.295Z</time></trkpt><trkpt lat="39.479876" lon="8.5390267"><ele>414.0</ele><time>2026-04-21T13:59:52.295Z</time></trkpt><trkpt lat="39.4798093" lon="8.5390018"><ele>414.00000000000006</ele><time>2026-04-21T13:59:53.296Z</time></trkpt><trkpt lat="39.4797353" lon="8.5389732"><ele>414.0</ele><time>2026-04-21T13:59:54.295Z</time></trkpt><trkpt lat="39.4796475" lon="8.538935"><ele>413.2</ele><time>2026-04-21T13:59:55.296Z</time></trkpt><trkpt lat="39.4795463" lon="8.5388925"><ele>412.4</ele><time>2026-04-21T13:59:56.296Z</time></trkpt><trkpt lat="39.4794544" lon="8.5388412"><ele>411.6</ele><time>2026-04-21T13:59:57.295Z</time></trkpt><trkpt lat="39.4793736" lon="8.5387916"><ele>410.8</ele><time>2026-04-21T13:59:58.295Z</time></trkpt><trkpt lat="39.479296" lon="8.538746"><ele>410.0</ele><time>2026-04-21T13:59:59.296Z</time></trkpt><trkpt lat="39.4792166" lon="8.5387104"><ele>413.16666666666663</ele><time>2026-04-21T14:00:00.295Z</time></trkpt><trkpt lat="39.4791435" lon="8.5386862"><ele>416.3333333333333</ele><time>2026-04-21T14:00:01.295Z</time></trkpt><trkpt lat="39.4790564" lon="8.5386753"><ele>419.5</ele><time>2026-04-21T14:00:02.296Z</time></trkpt><trkpt lat="39.4789749" lon="8.5386552"><ele>422.66666666666663</ele><time>2026-04-21T14:00:03.295Z</time></trkpt><trkpt lat="39.4788914" lon="8.538636"><ele>425.8333333333333</ele><time>2026-04-21T14:00:04.296Z</time></trkpt><trkpt lat="39.4788157" lon="8.5386252"><ele>429.0</ele><time>2026-04-21T14:00:05.296Z</time></trkpt><trkpt lat="39.4787447" lon="8.5386185"><ele>428.2</ele><time>2026-04-21T14:00:06.296Z</time></trkpt><trkpt lat="39.478631" lon="8.5386573"><ele>427.4</ele><time>2026-04-21T14:00:08.296Z</time></trkpt><trkpt lat="39.4785813" lon="8.5387287"><ele>426.6</ele><time>2026-04-21T14:00:09.296Z</time></trkpt><trkpt lat="39.4785298" lon="8.5388358"><ele>425.8</ele><time>2026-04-21T14:00:10.295Z</time></trkpt><trkpt lat="39.4784736" lon="8.5389656"><ele>425.0</ele><time>2026-04-21T14:00:11.296Z</time></trkpt><trkpt lat="39.4784092" lon="8.5390887"><ele>424.99999999999994</ele><time>2026-04-21T14:00:12.295Z</time></trkpt><trkpt lat="39.4783523" lon="8.5391902"><ele>425.0</ele><time>2026-04-21T14:00:13.295Z</time></trkpt><trkpt lat="39.4783042" lon="8.5392882"><ele>425.0</ele><time>2026-04-21T14:00:14.295Z</time></trkpt><trkpt lat="39.47827" lon="8.5393833"><ele>425.0</ele><time>2026-04-21T14:00:15.294Z</time></trkpt><trkpt lat="39.4782514" lon="8.5394794"><ele>424.99999999999994</ele><time>2026-04-21T14:00:16.295Z</time></trkpt><trkpt lat="39.4782395" lon="8.5395684"><ele>425.0</ele><time>2026-04-21T14:00:17.295Z</time></trkpt><trkpt lat="39.4782244" lon="8.5396596"><ele>423.99999999999994</ele><time>2026-04-21T14:00:18.295Z</time></trkpt><trkpt lat="39.4782056" lon="8.539745"><ele>423.0</ele><time>2026-04-21T14:00:19.295Z</time></trkpt><trkpt lat="39.4781871" lon="8.5398301"><ele>422.0</ele><time>2026-04-21T14:00:20.295Z</time></trkpt><trkpt lat="39.4781758" lon="8.5399105"><ele>421.0</ele><time>2026-04-21T14:00:21.295Z</time></trkpt><trkpt lat="39.478148" lon="8.5399839"><ele>419.99999999999994</ele><time>2026-04-21T14:00:22.294Z</time></trkpt><trkpt lat="39.4780792" lon="8.5400806"><ele>419.0</ele><time>2026-04-21T14:00:24.295Z</time></trkpt><trkpt lat="39.4779652" lon="8.5400829"><ele>419.49999999999994</ele><time>2026-04-21T14:00:26.294Z</time></trkpt><trkpt lat="39.477908" lon="8.5400431"><ele>420.0</ele><time>2026-04-21T14:00:27.294Z</time></trkpt><trkpt lat="39.4778558" lon="8.5399796"><ele>420.5</ele><time>2026-04-21T14:00:28.294Z</time></trkpt><trkpt lat="39.4778084" lon="8.5398985"><ele>421.0</ele><time>2026-04-21T14:00:29.294Z</time></trkpt><trkpt lat="39.4777644" lon="8.5398053"><ele>421.49999999999994</ele><time>2026-04-21T14:00:30.295Z</time></trkpt><trkpt lat="39.4777232" lon="8.5397156"><ele>422.0</ele><time>2026-04-21T14:00:31.294Z</time></trkpt><trkpt lat="39.4776619" lon="8.5395925"><ele>423.99999999999994</ele><time>2026-04-21T14:00:33.294Z</time></trkpt><trkpt lat="39.4776243" lon="8.5395153"><ele>426.0</ele><time>2026-04-21T14:01:30.295Z</time></trkpt><trkpt lat="39.4775826" lon="8.5394466"><ele>428.0</ele><time>2026-04-21T14:01:33.295Z</time></trkpt><trkpt lat="39.4775356" lon="8.539375"><ele>430.0</ele><time>2026-04-21T14:02:24.294Z</time></trkpt><trkpt lat="39.4774715" lon="8.5392675"><ele>431.99999999999994</ele><time>2026-04-21T14:02:26.294Z</time></trkpt><trkpt lat="39.4773821" lon="8.5391783"><ele>434.0</ele><time>2026-04-21T14:02:28.295Z</time></trkpt><trkpt lat="39.4772795" lon="8.5391053"><ele>433.99999999999994</ele><time>2026-04-21T14:02:30.295Z</time></trkpt><trkpt lat="39.4771682" lon="8.5390289"><ele>434.0</ele><time>2026-04-21T14:02:32.294Z</time></trkpt><trkpt lat="39.4771095" lon="8.5389807"><ele>434.0</ele><time>2026-04-21T14:02:33.295Z</time></trkpt><trkpt lat="39.4770557" lon="8.538935"><ele>434.0</ele><time>2026-04-21T14:02:34.295Z</time></trkpt><trkpt lat="39.4769965" lon="8.5388911"><ele>433.99999999999994</ele><time>2026-04-21T14:02:35.295Z</time></trkpt><trkpt lat="39.4769356" lon="8.538845"><ele>434.0</ele><time>2026-04-21T14:02:36.295Z</time></trkpt><trkpt lat="39.4768741" lon="8.5388025"><ele>433.4</ele><time>2026-04-21T14:02:37.295Z</time></trkpt><trkpt lat="39.4767654" lon="8.538737"><ele>432.79999999999995</ele><time>2026-04-21T14:02:39.295Z</time></trkpt><trkpt lat="39.476662" lon="8.5386831"><ele>432.20000000000005</ele><time>2026-04-21T14:02:41.294Z</time></trkpt><trkpt lat="39.4765599" lon="8.5386404"><ele>431.6</ele><time>2026-04-21T14:02:43.294Z</time></trkpt><trkpt lat="39.4764666" lon="8.5386028"><ele>431.0</ele><time>2026-04-21T14:02:45.295Z</time></trkpt><trkpt lat="39.4763593" lon="8.5385442"><ele>433.16666666666663</ele><time>2026-04-21T14:02:47.294Z</time></trkpt><trkpt lat="39.4762592" lon="8.538472"><ele>435.3333333333333</ele><time>2026-04-21T14:02:49.295Z</time></trkpt><trkpt lat="39.4761484" lon="8.5384094"><ele>437.5</ele><time>2026-04-21T14:02:51.294Z</time></trkpt><trkpt lat="39.4760889" lon="8.5383753"><ele>439.66666666666663</ele><time>2026-04-21T14:02:52.295Z</time></trkpt><trkpt lat="39.4760272" lon="8.5383414"><ele>441.8333333333333</ele><time>2026-04-21T14:02:53.294Z</time></trkpt><trkpt lat="39.4759668" lon="8.5383095"><ele>444.0</ele><time>2026-04-21T14:02:54.294Z</time></trkpt><trkpt lat="39.4758534" lon="8.538246"><ele>444.0</ele><time>2026-04-21T14:02:56.294Z</time></trkpt><trkpt lat="39.4757889" lon="8.5382118"><ele>444.0</ele><time>2026-04-21T14:02:57.295Z</time></trkpt><trkpt lat="39.4757116" lon="8.5381749"><ele>444.0</ele><time>2026-04-21T14:02:58.295Z</time></trkpt><trkpt lat="39.4756417" lon="8.5381417"><ele>444.0</ele><time>2026-04-21T14:02:59.294Z</time></trkpt><trkpt lat="39.475579" lon="8.5381114"><ele>444.0</ele><time>2026-04-21T14:03:00.294Z</time></trkpt><trkpt lat="39.4755154" lon="8.5380942"><ele>444.0</ele><time>2026-04-21T14:03:01.294Z</time></trkpt><trkpt lat="39.4753944" lon="8.5380976"><ele>445.0</ele><time>2026-04-21T14:03:03.295Z</time></trkpt><trkpt lat="39.4752872" lon="8.5381683"><ele>446.0</ele><time>2026-04-21T14:03:05.295Z</time></trkpt><trkpt lat="39.4752375" lon="8.5382238"><ele>447.0</ele><time>2026-04-21T14:03:06.294Z</time></trkpt><trkpt lat="39.4751972" lon="8.5382908"><ele>448.0</ele><time>2026-04-21T14:03:07.294Z</time></trkpt><trkpt lat="39.4751584" lon="8.5383662"><ele>449.0</ele><time>2026-04-21T14:03:08.294Z</time></trkpt><trkpt lat="39.4751126" lon="8.5384459"><ele>450.0</ele><time>2026-04-21T14:03:09.295Z</time></trkpt><trkpt lat="39.4750599" lon="8.5385235"><ele>450.0</ele><time>2026-04-21T14:03:10.295Z</time></trkpt><trkpt lat="39.475013" lon="8.5385947"><ele>450.0</ele><time>2026-04-21T14:03:11.294Z</time></trkpt><trkpt lat="39.4749652" lon="8.538668"><ele>450.0</ele><time>2026-04-21T14:03:12.294Z</time></trkpt><trkpt lat="39.4749194" lon="8.5387384"><ele>450.0</ele><time>2026-04-21T14:03:13.295Z</time></trkpt><trkpt lat="39.4748704" lon="8.5388129"><ele>450.0</ele><time>2026-04-21T14:03:14.295Z</time></trkpt><trkpt lat="39.4748102" lon="8.5388999"><ele>450.0</ele><time>2026-04-21T14:03:15.295Z</time></trkpt><trkpt lat="39.4747613" lon="8.5389924"><ele>449.0</ele><time>2026-04-21T14:03:16.294Z</time></trkpt><trkpt lat="39.4747143" lon="8.5390921"><ele>448.0</ele><time>2026-04-21T14:03:17.295Z</time></trkpt><trkpt lat="39.4746658" lon="8.539186"><ele>447.0</ele><time>2026-04-21T14:03:18.295Z</time></trkpt><trkpt lat="39.4746295" lon="8.539274"><ele>446.0</ele><time>2026-04-21T14:03:19.294Z</time></trkpt><trkpt lat="39.4745822" lon="8.5393525"><ele>445.0</ele><time>2026-04-21T14:03:20.295Z</time></trkpt><trkpt lat="39.4745348" lon="8.5394302"><ele>444.0</ele><time>2026-04-21T14:03:21.295Z</time></trkpt><trkpt lat="39.4745023" lon="8.5395084"><ele>446.4</ele><time>2026-04-21T14:03:22.295Z</time></trkpt><trkpt lat="39.4744716" lon="8.5395902"><ele>448.79999999999995</ele><time>2026-04-21T14:03:23.294Z</time></trkpt><trkpt lat="39.4744497" lon="8.5396761"><ele>451.20000000000005</ele><time>2026-04-21T14:03:24.295Z</time></trkpt><trkpt lat="39.4744374" lon="8.53976"><ele>453.6</ele><time>2026-04-21T14:03:25.294Z</time></trkpt><trkpt lat="39.4744439" lon="8.5399222"><ele>456.0</ele><time>2026-04-21T14:03:27.294Z</time></trkpt><trkpt lat="39.4744623" lon="8.5400813"><ele>456.0</ele><time>2026-04-21T14:03:29.294Z</time></trkpt><trkpt lat="39.4744593" lon="8.5402448"><ele>456.0</ele><time>2026-04-21T14:03:31.294Z</time></trkpt><trkpt lat="39.4744575" lon="8.5403371"><ele>456.0</ele><time>2026-04-21T14:03:32.295Z</time></trkpt><trkpt lat="39.4744451" lon="8.5404265"><ele>456.0</ele><time>2026-04-21T14:03:33.295Z</time></trkpt><trkpt lat="39.4744404" lon="8.5405198"><ele>456.0</ele><time>2026-04-21T14:03:34.294Z</time></trkpt><trkpt lat="39.4744441" lon="8.540614"><ele>456.0</ele><time>2026-04-21T14:03:35.295Z</time></trkpt><trkpt lat="39.4744569" lon="8.5407102"><ele>455.2857142857143</ele><time>2026-04-21T14:03:36.295Z</time></trkpt><trkpt lat="39.4744637" lon="8.540811"><ele>454.57142857142856</ele><time>2026-04-21T14:03:37.295Z</time></trkpt><trkpt lat="39.4744572" lon="8.5409059"><ele>453.85714285714283</ele><time>2026-04-21T14:03:38.295Z</time></trkpt><trkpt lat="39.4744416" lon="8.5409937"><ele>453.1428571428571</ele><time>2026-04-21T14:03:39.294Z</time></trkpt><trkpt lat="39.4744179" lon="8.5410725"><ele>452.42857142857144</ele><time>2026-04-21T14:03:40.294Z</time></trkpt><trkpt lat="39.4743871" lon="8.5411454"><ele>451.71428571428567</ele><time>2026-04-21T14:03:41.295Z</time></trkpt><trkpt lat="39.4743514" lon="8.5412185"><ele>451.0</ele><time>2026-04-21T14:03:42.294Z</time></trkpt><trkpt lat="39.4742926" lon="8.5413636"><ele>449.4</ele><time>2026-04-21T14:03:44.295Z</time></trkpt><trkpt lat="39.4742653" lon="8.5414397"><ele>447.8</ele><time>2026-04-21T14:03:45.295Z</time></trkpt><trkpt lat="39.4742419" lon="8.5415754"><ele>446.19999999999993</ele><time>2026-04-21T14:03:47.294Z</time></trkpt><trkpt lat="39.4742069" lon="8.5417068"><ele>444.59999999999997</ele><time>2026-04-21T14:03:49.295Z</time></trkpt><trkpt lat="39.4741506" lon="8.5418285"><ele>443.0</ele><time>2026-04-21T14:03:51.294Z</time></trkpt><trkpt lat="39.4741107" lon="8.5419607"><ele>442.99999999999994</ele><time>2026-04-21T14:03:53.294Z</time></trkpt><trkpt lat="39.4740614" lon="8.5420476"><ele>443.0</ele><time>2026-04-21T14:03:55.295Z</time></trkpt><trkpt lat="39.473995" lon="8.5420704"><ele>443.0</ele><time>2026-04-21T14:03:57.295Z</time></trkpt><trkpt lat="39.4739209" lon="8.5420916"><ele>443.0</ele><time>2026-04-21T14:03:59.295Z</time></trkpt><trkpt lat="39.4738283" lon="8.5421119"><ele>442.99999999999994</ele><time>2026-04-21T14:04:02.294Z</time></trkpt><trkpt lat="39.4737323" lon="8.5421359"><ele>443.0</ele><time>2026-04-21T14:04:04.295Z</time></trkpt><trkpt lat="39.4736688" lon="8.5421557"><ele>440.79999999999995</ele><time>2026-04-21T14:04:05.294Z</time></trkpt><trkpt lat="39.4735997" lon="8.5421732"><ele>438.59999999999997</ele><time>2026-04-21T14:04:06.294Z</time></trkpt><trkpt lat="39.4734787" lon="8.5422125"><ele>436.40000000000003</ele><time>2026-04-21T14:04:08.295Z</time></trkpt><trkpt lat="39.4733773" lon="8.5422915"><ele>434.20000000000005</ele><time>2026-04-21T14:04:10.294Z</time></trkpt><trkpt lat="39.4732853" lon="8.5423777"><ele>432.0</ele><time>2026-04-21T14:04:12.295Z</time></trkpt><trkpt lat="39.4732066" lon="8.5424675"><ele>432.0</ele><time>2026-04-21T14:04:14.295Z</time></trkpt><trkpt lat="39.4731414" lon="8.5425858"><ele>432.00000000000006</ele><time>2026-04-21T14:04:16.295Z</time></trkpt><trkpt lat="39.4730864" lon="8.5427125"><ele>432.00000000000006</ele><time>2026-04-21T14:04:18.294Z</time></trkpt><trkpt lat="39.4730698" lon="8.5428585"><ele>432.0</ele><time>2026-04-21T14:04:20.295Z</time></trkpt><trkpt lat="39.4731005" lon="8.542989"><ele>432.0</ele><time>2026-04-21T14:04:22.295Z</time></trkpt><trkpt lat="39.47315" lon="8.5430836"><ele>431.0</ele><time>2026-04-21T14:04:24.295Z</time></trkpt><trkpt lat="39.4731757" lon="8.5431671"><ele>430.0</ele><time>2026-04-21T14:04:26.295Z</time></trkpt><trkpt lat="39.4731995" lon="8.5432692"><ele>429.0</ele><time>2026-04-21T14:04:29.295Z</time></trkpt><trkpt lat="39.4732368" lon="8.543381"><ele>428.0</ele><time>2026-04-21T14:04:32.295Z</time></trkpt><trkpt lat="39.4732795" lon="8.5434669"><ele>427.0</ele><time>2026-04-21T14:04:35.294Z</time></trkpt><trkpt lat="39.4733157" lon="8.5435364"><ele>426.0</ele><time>2026-04-21T14:04:39.295Z</time></trkpt><trkpt lat="39.4733549" lon="8.543636"><ele>426.0</ele><time>2026-04-21T14:04:43.295Z</time></trkpt><trkpt lat="39.4733835" lon="8.5437372"><ele>426.0</ele><time>2026-04-21T14:04:46.294Z</time></trkpt><trkpt lat="39.473409" lon="8.5438432"><ele>426.0</ele><time>2026-04-21T14:04:49.295Z</time></trkpt><trkpt lat="39.4734138" lon="8.5439505"><ele>426.0</ele><time>2026-04-21T14:04:51.294Z</time></trkpt><trkpt lat="39.4733974" lon="8.5440855"><ele>426.0</ele><time>2026-04-21T14:04:53.295Z</time></trkpt><trkpt lat="39.4733615" lon="8.5442344"><ele>426.0</ele><time>2026-04-21T14:04:55.294Z</time></trkpt><trkpt lat="39.4733453" lon="8.5443134"><ele>426.0</ele><time>2026-04-21T14:04:56.294Z</time></trkpt><trkpt lat="39.4733316" lon="8.5444005"><ele>426.0</ele><time>2026-04-21T14:04:57.295Z</time></trkpt><trkpt lat="39.4733249" lon="8.544491"><ele>426.0</ele><time>2026-04-21T14:04:58.294Z</time></trkpt><trkpt lat="39.4733072" lon="8.54464"><ele>426.0</ele><time>2026-04-21T14:05:00.294Z</time></trkpt><trkpt lat="39.4733087" lon="8.5447806"><ele>426.0</ele><time>2026-04-21T14:05:02.294Z</time></trkpt><trkpt lat="39.4733298" lon="8.544922"><ele>425.0</ele><time>2026-04-21T14:05:04.295Z</time></trkpt><trkpt lat="39.47336" lon="8.5450619"><ele>424.0</ele><time>2026-04-21T14:05:06.294Z</time></trkpt><trkpt lat="39.4733804" lon="8.5451689"><ele>423.0</ele><time>2026-04-21T14:05:08.294Z</time></trkpt><trkpt lat="39.4734018" lon="8.5452518"><ele>422.0</ele><time>2026-04-21T14:05:10.295Z</time></trkpt><trkpt lat="39.4734308" lon="8.5453464"><ele>421.0</ele><time>2026-04-21T14:05:13.294Z</time></trkpt><trkpt lat="39.4734383" lon="8.5454465"><ele>420.0</ele><time>2026-04-21T14:05:17.294Z</time></trkpt><trkpt lat="39.4734216" lon="8.5455311"><ele>419.0</ele><time>2026-04-21T14:05:20.295Z</time></trkpt><trkpt lat="39.4733966" lon="8.545608"><ele>418.0</ele><time>2026-04-21T14:05:23.295Z</time></trkpt><trkpt lat="39.4733823" lon="8.5456909"><ele>417.0</ele><time>2026-04-21T14:05:26.295Z</time></trkpt><trkpt lat="39.4733665" lon="8.5457743"><ele>416.0</ele><time>2026-04-21T14:05:28.295Z</time></trkpt><trkpt lat="39.4733416" lon="8.5458891"><ele>415.0</ele><time>2026-04-21T14:05:30.294Z</time></trkpt><trkpt lat="39.4733433" lon="8.5460176"><ele>414.0</ele><time>2026-04-21T14:05:32.295Z</time></trkpt><trkpt lat="39.4733255" lon="8.5461256"><ele>414.1666666666667</ele><time>2026-04-21T14:05:34.294Z</time></trkpt><trkpt lat="39.4732995" lon="8.5462191"><ele>414.33333333333337</ele><time>2026-04-21T14:05:36.294Z</time></trkpt><trkpt lat="39.4732998" lon="8.5463145"><ele>414.5</ele><time>2026-04-21T14:05:38.295Z</time></trkpt><trkpt lat="39.4733054" lon="8.5464208"><ele>414.6666666666667</ele><time>2026-04-21T14:05:40.295Z</time></trkpt><trkpt lat="39.4733357" lon="8.5465193"><ele>414.83333333333337</ele><time>2026-04-21T14:05:42.294Z</time></trkpt><trkpt lat="39.4734214" lon="8.5465951"><ele>415.0</ele><time>2026-04-21T14:05:44.295Z</time></trkpt><trkpt lat="39.4735293" lon="8.546652"><ele>415.0</ele><time>2026-04-21T14:05:46.295Z</time></trkpt><trkpt lat="39.4735914" lon="8.5466859"><ele>415.0</ele><time>2026-04-21T14:05:47.295Z</time></trkpt><trkpt lat="39.4736933" lon="8.5467582"><ele>415.0</ele><time>2026-04-21T14:05:49.295Z</time></trkpt><trkpt lat="39.4737947" lon="8.5468692"><ele>415.0</ele><time>2026-04-21T14:05:51.294Z</time></trkpt><trkpt lat="39.4738425" lon="8.5469301"><ele>415.0</ele><time>2026-04-21T14:05:52.294Z</time></trkpt><trkpt lat="39.4738983" lon="8.5469878"><ele>414.50000000000006</ele><time>2026-04-21T14:05:53.295Z</time></trkpt><trkpt lat="39.4739467" lon="8.5470437"><ele>414.0</ele><time>2026-04-21T14:05:54.294Z</time></trkpt><trkpt lat="39.4740102" lon="8.5471755"><ele>413.5</ele><time>2026-04-21T14:05:56.294Z</time></trkpt><trkpt lat="39.4740384" lon="8.5472541"><ele>413.0</ele><time>2026-04-21T14:05:57.294Z</time></trkpt><trkpt lat="39.4740679" lon="8.5473422"><ele>412.50000000000006</ele><time>2026-04-21T14:05:58.294Z</time></trkpt><trkpt lat="39.4741101" lon="8.5474206"><ele>412.0</ele><time>2026-04-21T14:05:59.295Z</time></trkpt><trkpt lat="39.4741553" lon="8.5474933"><ele>412.00000000000006</ele><time>2026-04-21T14:06:00.295Z</time></trkpt><trkpt lat="39.4742028" lon="8.5475669"><ele>412.0</ele><time>2026-04-21T14:06:01.294Z</time></trkpt><trkpt lat="39.4742442" lon="8.5476471"><ele>412.0</ele><time>2026-04-21T14:06:02.294Z</time></trkpt><trkpt lat="39.4742871" lon="8.5477171"><ele>412.0</ele><time>2026-04-21T14:06:03.294Z</time></trkpt><trkpt lat="39.4743596" lon="8.5478302"><ele>412.00000000000006</ele><time>2026-04-21T14:06:05.295Z</time></trkpt><trkpt lat="39.474422" lon="8.5479492"><ele>412.0</ele><time>2026-04-21T14:06:07.295Z</time></trkpt><trkpt lat="39.4744468" lon="8.5480946"><ele>413.1428571428571</ele><time>2026-04-21T14:06:09.295Z</time></trkpt><trkpt lat="39.4744522" lon="8.5481768"><ele>414.2857142857143</ele><time>2026-04-21T14:06:10.294Z</time></trkpt><trkpt lat="39.4744589" lon="8.5482665"><ele>415.42857142857144</ele><time>2026-04-21T14:06:11.295Z</time></trkpt><trkpt lat="39.474465" lon="8.5483635"><ele>416.57142857142856</ele><time>2026-04-21T14:06:12.295Z</time></trkpt><trkpt lat="39.4744694" lon="8.548461"><ele>417.7142857142857</ele><time>2026-04-21T14:06:13.295Z</time></trkpt><trkpt lat="39.4744724" lon="8.5485601"><ele>418.85714285714283</ele><time>2026-04-21T14:06:14.295Z</time></trkpt><trkpt lat="39.4744678" lon="8.548668"><ele>420.0</ele><time>2026-04-21T14:06:15.295Z</time></trkpt><trkpt lat="39.4744564" lon="8.5487687"><ele>420.0</ele><time>2026-04-21T14:06:16.294Z</time></trkpt><trkpt lat="39.4744443" lon="8.5488656"><ele>420.0</ele><time>2026-04-21T14:06:17.294Z</time></trkpt><trkpt lat="39.4744395" lon="8.5489588"><ele>420.0</ele><time>2026-04-21T14:06:18.295Z</time></trkpt><trkpt lat="39.4744397" lon="8.5490471"><ele>420.0</ele><time>2026-04-21T14:06:19.294Z</time></trkpt><trkpt lat="39.4744463" lon="8.5491976"><ele>420.0</ele><time>2026-04-21T14:06:21.295Z</time></trkpt><trkpt lat="39.4744635" lon="8.5493075"><ele>420.0</ele><time>2026-04-21T14:06:23.294Z</time></trkpt><trkpt lat="39.4744842" lon="8.5494746"><ele>418.6</ele><time>2026-04-21T14:09:31.294Z</time></trkpt><trkpt lat="39.4745007" lon="8.5495973"><ele>417.2</ele><time>2026-04-21T14:09:33.293Z</time></trkpt><trkpt lat="39.4745024" lon="8.5497436"><ele>415.79999999999995</ele><time>2026-04-21T14:09:35.293Z</time></trkpt><trkpt lat="39.4744858" lon="8.5498859"><ele>414.4</ele><time>2026-04-21T14:09:37.294Z</time></trkpt><trkpt lat="39.4744449" lon="8.5500292"><ele>413.0</ele><time>2026-04-21T14:09:39.294Z</time></trkpt><trkpt lat="39.4744049" lon="8.5501485"><ele>412.99999999999994</ele><time>2026-04-21T14:09:41.293Z</time></trkpt><trkpt lat="39.474344" lon="8.5502284"><ele>413.0</ele><time>2026-04-21T14:09:43.294Z</time></trkpt><trkpt lat="39.4742495" lon="8.550309"><ele>413.0</ele><time>2026-04-21T14:09:45.294Z</time></trkpt><trkpt lat="39.4741992" lon="8.5503629"><ele>413.0</ele><time>2026-04-21T14:09:46.294Z</time></trkpt><trkpt lat="39.4741576" lon="8.5504352"><ele>412.99999999999994</ele><time>2026-04-21T14:09:47.294Z</time></trkpt><trkpt lat="39.4741218" lon="8.5505134"><ele>413.0</ele><time>2026-04-21T14:09:48.293Z</time></trkpt><trkpt lat="39.4740971" lon="8.5505889"><ele>412.49999999999994</ele><time>2026-04-21T14:09:49.294Z</time></trkpt><trkpt lat="39.4740501" lon="8.5506751"><ele>412.0</ele><time>2026-04-21T14:09:51.294Z</time></trkpt><trkpt lat="39.4739918" lon="8.5507308"><ele>411.5</ele><time>2026-04-21T14:09:53.294Z</time></trkpt><trkpt lat="39.4739081" lon="8.5508097"><ele>411.0</ele><time>2026-04-21T14:09:55.294Z</time></trkpt><trkpt lat="39.4738399" lon="8.550851"><ele>410.49999999999994</ele><time>2026-04-21T14:09:56.294Z</time></trkpt><trkpt lat="39.4737338" lon="8.5508958"><ele>410.0</ele><time>2026-04-21T14:09:58.294Z</time></trkpt><trkpt lat="39.4736335" lon="8.5508961"><ele>410.0</ele><time>2026-04-21T14:10:00.294Z</time></trkpt><trkpt lat="39.473517" lon="8.5508887"><ele>410.0</ele><time>2026-04-21T14:10:02.293Z</time></trkpt><trkpt lat="39.4734272" lon="8.5509146"><ele>410.0</ele><time>2026-04-21T14:10:04.294Z</time></trkpt><trkpt lat="39.4733559" lon="8.5509864"><ele>410.0</ele><time>2026-04-21T14:10:06.294Z</time></trkpt><trkpt lat="39.47327" lon="8.5510997"><ele>410.0</ele><time>2026-04-21T14:10:08.294Z</time></trkpt><trkpt lat="39.4732199" lon="8.5511519"><ele>407.8333333333333</ele><time>2026-04-21T14:10:09.294Z</time></trkpt><trkpt lat="39.473144" lon="8.5512359"><ele>405.66666666666663</ele><time>2026-04-21T14:10:11.294Z</time></trkpt><trkpt lat="39.4731271" lon="8.5513447"><ele>403.5</ele><time>2026-04-21T14:10:13.293Z</time></trkpt><trkpt lat="39.4731408" lon="8.5514987"><ele>401.33333333333337</ele><time>2026-04-21T14:10:15.294Z</time></trkpt><trkpt lat="39.4731542" lon="8.5515825"><ele>399.1666666666667</ele><time>2026-04-21T14:10:16.293Z</time></trkpt><trkpt lat="39.473165" lon="8.5516693"><ele>397.0</ele><time>2026-04-21T14:10:17.294Z</time></trkpt><trkpt lat="39.4731792" lon="8.5517521"><ele>397.0</ele><time>2026-04-21T14:10:18.294Z</time></trkpt><trkpt lat="39.4732011" lon="8.5518357"><ele>397.0</ele><time>2026-04-21T14:10:19.294Z</time></trkpt><trkpt lat="39.4732311" lon="8.5519867"><ele>397.0</ele><time>2026-04-21T14:10:21.294Z</time></trkpt><trkpt lat="39.4732078" lon="8.5520971"><ele>397.0</ele><time>2026-04-21T14:10:23.293Z</time></trkpt><trkpt lat="39.4731518" lon="8.5521604"><ele>397.0</ele><time>2026-04-21T14:10:25.294Z</time></trkpt><trkpt lat="39.4730509" lon="8.5521858"><ele>395.1666666666667</ele><time>2026-04-21T14:10:27.294Z</time></trkpt><trkpt lat="39.4729691" lon="8.552198"><ele>393.33333333333337</ele><time>2026-04-21T14:10:29.293Z</time></trkpt><trkpt lat="39.472902" lon="8.5522844"><ele>391.5</ele><time>2026-04-21T14:10:32.293Z</time></trkpt><trkpt lat="39.4729636" lon="8.5524033"><ele>389.66666666666663</ele><time>2026-04-21T14:10:34.293Z</time></trkpt><trkpt lat="39.4730268" lon="8.5524567"><ele>387.8333333333333</ele><time>2026-04-21T14:10:35.293Z</time></trkpt><trkpt lat="39.4730929" lon="8.552494"><ele>386.0</ele><time>2026-04-21T14:10:36.293Z</time></trkpt><trkpt lat="39.4731566" lon="8.552519"><ele>385.6</ele><time>2026-04-21T14:10:37.294Z</time></trkpt><trkpt lat="39.4732567" lon="8.5525768"><ele>385.20000000000005</ele><time>2026-04-21T14:10:39.294Z</time></trkpt><trkpt lat="39.4733446" lon="8.5526317"><ele>384.79999999999995</ele><time>2026-04-21T14:10:41.294Z</time></trkpt><trkpt lat="39.4734556" lon="8.5527078"><ele>384.4</ele><time>2026-04-21T14:10:43.294Z</time></trkpt><trkpt lat="39.4735185" lon="8.5527515"><ele>384.0</ele><time>2026-04-21T14:10:44.294Z</time></trkpt><trkpt lat="39.4735723" lon="8.5528016"><ele>381.4</ele><time>2026-04-21T14:10:45.294Z</time></trkpt><trkpt lat="39.4736052" lon="8.5529028"><ele>378.79999999999995</ele><time>2026-04-21T14:10:47.294Z</time></trkpt><trkpt lat="39.4735438" lon="8.5530078"><ele>376.20000000000005</ele><time>2026-04-21T14:10:49.294Z</time></trkpt><trkpt lat="39.4734401" lon="8.5530875"><ele>373.6</ele><time>2026-04-21T14:10:51.294Z</time></trkpt><trkpt lat="39.4733419" lon="8.5531651"><ele>371.0</ele><time>2026-04-21T14:10:53.294Z</time></trkpt><trkpt lat="39.4732717" lon="8.5532491"><ele>371.0</ele><time>2026-04-21T14:10:55.294Z</time></trkpt><trkpt lat="39.4731988" lon="8.5533259"><ele>371.0</ele><time>2026-04-21T14:10:57.293Z</time></trkpt><trkpt lat="39.4731518" lon="8.5534076"><ele>371.0</ele><time>2026-04-21T14:10:59.294Z</time></trkpt><trkpt lat="39.4730913" lon="8.5534526"><ele>371.0</ele><time>2026-04-21T14:11:02.293Z</time></trkpt><trkpt lat="39.4730392" lon="8.5535134"><ele>371.0</ele><time>2026-04-21T14:11:05.294Z</time></trkpt><trkpt lat="39.4729938" lon="8.5535792"><ele>371.0</ele><time>2026-04-21T14:11:07.293Z</time></trkpt><trkpt lat="39.4729314" lon="8.5536448"><ele>368.5</ele><time>2026-04-21T14:11:09.294Z</time></trkpt><trkpt lat="39.4728901" lon="8.5537353"><ele>366.0</ele><time>2026-04-21T14:11:11.294Z</time></trkpt><trkpt lat="39.4728573" lon="8.5538614"><ele>363.5</ele><time>2026-04-21T14:11:13.294Z</time></trkpt><trkpt lat="39.472846" lon="8.5539968"><ele>361.0</ele><time>2026-04-21T14:11:15.293Z</time></trkpt><trkpt lat="39.4728648" lon="8.5540994"><ele>358.5</ele><time>2026-04-21T14:11:17.294Z</time></trkpt><trkpt lat="39.4728788" lon="8.5541906"><ele>356.0</ele><time>2026-04-21T14:11:19.294Z</time></trkpt><trkpt lat="39.4728622" lon="8.5542728"><ele>356.0</ele><time>2026-04-21T14:11:21.293Z</time></trkpt><trkpt lat="39.472817" lon="8.5543493"><ele>356.0</ele><time>2026-04-21T14:11:23.294Z</time></trkpt><trkpt lat="39.472749" lon="8.5544323"><ele>356.0</ele><time>2026-04-21T14:11:25.294Z</time></trkpt><trkpt lat="39.4726655" lon="8.5545591"><ele>356.0</ele><time>2026-04-21T14:11:27.293Z</time></trkpt><trkpt lat="39.4726136" lon="8.5546937"><ele>356.0</ele><time>2026-04-21T14:11:29.294Z</time></trkpt><trkpt lat="39.4725565" lon="8.5548106"><ele>354.0</ele><time>2026-04-21T14:11:31.293Z</time></trkpt><trkpt lat="39.4724969" lon="8.5549408"><ele>352.0</ele><time>2026-04-21T14:11:33.293Z</time></trkpt><trkpt lat="39.4724718" lon="8.5550844"><ele>350.0</ele><time>2026-04-21T14:11:35.293Z</time></trkpt><trkpt lat="39.4724856" lon="8.555212"><ele>348.0</ele><time>2026-04-21T14:11:37.293Z</time></trkpt><trkpt lat="39.4725231" lon="8.5553256"><ele>346.0</ele><time>2026-04-21T14:11:39.293Z</time></trkpt><trkpt lat="39.4725638" lon="8.5554387"><ele>344.20000000000005</ele><time>2026-04-21T14:11:41.293Z</time></trkpt><trkpt lat="39.4726088" lon="8.5556106"><ele>342.40000000000003</ele><time>2026-04-21T14:11:43.293Z</time></trkpt><trkpt lat="39.472635" lon="8.5557197"><ele>340.6</ele><time>2026-04-21T14:11:44.294Z</time></trkpt><trkpt lat="39.4726678" lon="8.5558229"><ele>338.8</ele><time>2026-04-21T14:11:45.293Z</time></trkpt><trkpt lat="39.4726931" lon="8.555924"><ele>337.0</ele><time>2026-04-21T14:11:46.293Z</time></trkpt><trkpt lat="39.4727184" lon="8.5560221"><ele>337.00000000000006</ele><time>2026-04-21T14:11:47.294Z</time></trkpt><trkpt lat="39.4727419" lon="8.5561065"><ele>337.0</ele><time>2026-04-21T14:11:48.294Z</time></trkpt><trkpt lat="39.4727582" lon="8.5562073"><ele>337.0</ele><time>2026-04-21T14:11:49.293Z</time></trkpt><trkpt lat="39.4727713" lon="8.5563026"><ele>337.0</ele><time>2026-04-21T14:11:50.294Z</time></trkpt><trkpt lat="39.4727913" lon="8.5563876"><ele>337.0</ele><time>2026-04-21T14:11:51.294Z</time></trkpt><trkpt lat="39.4728108" lon="8.556482"><ele>337.00000000000006</ele><time>2026-04-21T14:11:52.294Z</time></trkpt><trkpt lat="39.4728305" lon="8.5565849"><ele>337.0</ele><time>2026-04-21T14:11:53.294Z</time></trkpt><trkpt lat="39.4728625" lon="8.5566867"><ele>336.3333333333333</ele><time>2026-04-21T14:11:54.294Z</time></trkpt><trkpt lat="39.4728923" lon="8.5567841"><ele>335.66666666666663</ele><time>2026-04-21T14:11:55.294Z</time></trkpt><trkpt lat="39.4729248" lon="8.5568835"><ele>335.0</ele><time>2026-04-21T14:11:56.294Z</time></trkpt><trkpt lat="39.4729642" lon="8.5569803"><ele>334.3333333333333</ele><time>2026-04-21T14:11:57.294Z</time></trkpt><trkpt lat="39.4730061" lon="8.5570757"><ele>333.6666666666667</ele><time>2026-04-21T14:11:58.293Z</time></trkpt><trkpt lat="39.4730467" lon="8.5571667"><ele>333.0</ele><time>2026-04-21T14:11:59.293Z</time></trkpt><trkpt lat="39.4730764" lon="8.5572486"><ele>331.6666666666667</ele><time>2026-04-21T14:12:00.294Z</time></trkpt><trkpt lat="39.4731012" lon="8.5573307"><ele>330.3333333333333</ele><time>2026-04-21T14:12:01.294Z</time></trkpt><trkpt lat="39.4731274" lon="8.5574053"><ele>329.0</ele><time>2026-04-21T14:12:02.293Z</time></trkpt><trkpt lat="39.4731571" lon="8.557541"><ele>327.66666666666663</ele><time>2026-04-21T14:12:04.294Z</time></trkpt><trkpt lat="39.4731437" lon="8.5576482"><ele>326.3333333333333</ele><time>2026-04-21T14:12:06.294Z</time></trkpt><trkpt lat="39.4730792" lon="8.5577063"><ele>325.0</ele><time>2026-04-21T14:12:08.294Z</time></trkpt><trkpt lat="39.4729726" lon="8.5577438"><ele>324.0</ele><time>2026-04-21T14:12:10.293Z</time></trkpt><trkpt lat="39.4729028" lon="8.5578183"><ele>323.0</ele><time>2026-04-21T14:12:12.293Z</time></trkpt><trkpt lat="39.4728941" lon="8.5579221"><ele>322.0</ele><time>2026-04-21T14:12:14.293Z</time></trkpt><trkpt lat="39.4729068" lon="8.5580391"><ele>321.0</ele><time>2026-04-21T14:12:16.294Z</time></trkpt><trkpt lat="39.4729088" lon="8.5581232"><ele>320.0</ele><time>2026-04-21T14:12:17.294Z</time></trkpt><trkpt lat="39.4729102" lon="8.5582193"><ele>319.0</ele><time>2026-04-21T14:12:18.294Z</time></trkpt><trkpt lat="39.472919" lon="8.5583095"><ele>318.5714285714286</ele><time>2026-04-21T14:12:19.293Z</time></trkpt><trkpt lat="39.4729295" lon="8.5583992"><ele>318.1428571428571</ele><time>2026-04-21T14:12:20.294Z</time></trkpt><trkpt lat="39.4729495" lon="8.558479"><ele>317.7142857142857</ele><time>2026-04-21T14:12:21.294Z</time></trkpt><trkpt lat="39.4729778" lon="8.558566"><ele>317.28571428571433</ele><time>2026-04-21T14:12:22.294Z</time></trkpt><trkpt lat="39.4730079" lon="8.5586558"><ele>316.8571428571429</ele><time>2026-04-21T14:12:23.293Z</time></trkpt><trkpt lat="39.4730365" lon="8.5587492"><ele>316.42857142857144</ele><time>2026-04-21T14:12:24.293Z</time></trkpt><trkpt lat="39.4730468" lon="8.5588412"><ele>316.0</ele><time>2026-04-21T14:12:25.294Z</time></trkpt><trkpt lat="39.4730557" lon="8.5589835"><ele>315.6</ele><time>2026-04-21T14:12:27.293Z</time></trkpt><trkpt lat="39.4730673" lon="8.559109"><ele>315.20000000000005</ele><time>2026-04-21T14:12:29.294Z</time></trkpt><trkpt lat="39.4730584" lon="8.5592566"><ele>314.79999999999995</ele><time>2026-04-21T14:12:31.294Z</time></trkpt><trkpt lat="39.4729977" lon="8.559231"><ele>314.4</ele><time>2026-04-21T14:12:43.294Z</time></trkpt><trkpt lat="39.4729263" lon="8.5591101"><ele>314.0</ele><time>2026-04-21T14:12:45.294Z</time></trkpt><trkpt lat="39.4728856" lon="8.5590447"><ele>314.33333333333337</ele><time>2026-04-21T14:12:46.294Z</time></trkpt><trkpt lat="39.4728444" lon="8.5589742"><ele>314.6666666666667</ele><time>2026-04-21T14:12:47.294Z</time></trkpt><trkpt lat="39.472796" lon="8.5588953"><ele>315.0</ele><time>2026-04-21T14:12:48.293Z</time></trkpt><trkpt lat="39.472753" lon="8.5588076"><ele>315.3333333333333</ele><time>2026-04-21T14:12:49.293Z</time></trkpt><trkpt lat="39.4727131" lon="8.5587283"><ele>315.66666666666663</ele><time>2026-04-21T14:12:50.293Z</time></trkpt><trkpt lat="39.4726702" lon="8.5586516"><ele>316.0</ele><time>2026-04-21T14:12:51.293Z</time></trkpt><trkpt lat="39.4726234" lon="8.5585698"><ele>316.0</ele><time>2026-04-21T14:12:52.293Z</time></trkpt><trkpt lat="39.4725764" lon="8.558481"><ele>316.0</ele><time>2026-04-21T14:12:53.294Z</time></trkpt><trkpt lat="39.4725188" lon="8.5583983"><ele>316.0</ele><time>2026-04-21T14:12:54.293Z</time></trkpt><trkpt lat="39.4724625" lon="8.558329"><ele>316.0</ele><time>2026-04-21T14:12:55.294Z</time></trkpt><trkpt lat="39.4724118" lon="8.5582575"><ele>316.0</ele><time>2026-04-21T14:12:56.294Z</time></trkpt><trkpt lat="39.4723589" lon="8.5581919"><ele>316.0</ele><time>2026-04-21T14:12:57.294Z</time></trkpt><trkpt lat="39.4723069" lon="8.5581283"><ele>316.0</ele><time>2026-04-21T14:12:58.293Z</time></trkpt><trkpt lat="39.4722458" lon="8.5580761"><ele>316.0</ele><time>2026-04-21T14:12:59.293Z</time></trkpt><trkpt lat="39.4721777" lon="8.558025"><ele>316.0</ele><time>2026-04-21T14:13:00.294Z</time></trkpt><trkpt lat="39.4721001" lon="8.5579752"><ele>316.0</ele><time>2026-04-21T14:13:01.294Z</time></trkpt><trkpt lat="39.4720197" lon="8.5579225"><ele>316.0</ele><time>2026-04-21T14:13:02.294Z</time></trkpt><trkpt lat="39.4719407" lon="8.557868"><ele>316.0</ele><time>2026-04-21T14:13:03.293Z</time></trkpt><trkpt lat="39.471872" lon="8.5578194"><ele>316.8333333333333</ele><time>2026-04-21T14:13:04.294Z</time></trkpt><trkpt lat="39.4718017" lon="8.557775"><ele>317.66666666666663</ele><time>2026-04-21T14:13:05.294Z</time></trkpt><trkpt lat="39.471735" lon="8.5577208"><ele>318.5</ele><time>2026-04-21T14:13:06.293Z</time></trkpt><trkpt lat="39.4716702" lon="8.5576563"><ele>319.3333333333333</ele><time>2026-04-21T14:13:07.294Z</time></trkpt><trkpt lat="39.4716035" lon="8.5575876"><ele>320.1666666666667</ele><time>2026-04-21T14:13:08.293Z</time></trkpt><trkpt lat="39.471544" lon="8.5575153"><ele>321.0</ele><time>2026-04-21T14:13:09.294Z</time></trkpt><trkpt lat="39.4714862" lon="8.5574385"><ele>321.0</ele><time>2026-04-21T14:13:10.293Z</time></trkpt><trkpt lat="39.4714288" lon="8.5573657"><ele>321.0</ele><time>2026-04-21T14:13:11.294Z</time></trkpt><trkpt lat="39.4713829" lon="8.557298"><ele>321.0</ele><time>2026-04-21T14:13:12.293Z</time></trkpt><trkpt lat="39.4713228" lon="8.55724"><ele>321.0</ele><time>2026-04-21T14:13:13.294Z</time></trkpt><trkpt lat="39.4712628" lon="8.5571917"><ele>321.0</ele><time>2026-04-21T14:13:14.293Z</time></trkpt><trkpt lat="39.4711921" lon="8.557133"><ele>321.0</ele><time>2026-04-21T14:13:15.294Z</time></trkpt><trkpt lat="39.4711098" lon="8.5570694"><ele>322.5</ele><time>2026-04-21T14:13:16.294Z</time></trkpt><trkpt lat="39.4710319" lon="8.557003"><ele>324.0</ele><time>2026-04-21T14:13:17.294Z</time></trkpt><trkpt lat="39.4709612" lon="8.5569472"><ele>325.5</ele><time>2026-04-21T14:13:18.294Z</time></trkpt><trkpt lat="39.4708972" lon="8.5568854"><ele>327.0</ele><time>2026-04-21T14:13:19.294Z</time></trkpt><trkpt lat="39.4708388" lon="8.5568218"><ele>328.5</ele><time>2026-04-21T14:13:20.294Z</time></trkpt><trkpt lat="39.4707794" lon="8.5567562"><ele>330.0</ele><time>2026-04-21T14:13:21.294Z</time></trkpt><trkpt lat="39.4707149" lon="8.5567023"><ele>330.0</ele><time>2026-04-21T14:13:22.294Z</time></trkpt><trkpt lat="39.4706495" lon="8.5566557"><ele>330.0</ele><time>2026-04-21T14:13:23.294Z</time></trkpt><trkpt lat="39.4705879" lon="8.5566162"><ele>330.0</ele><time>2026-04-21T14:13:24.294Z</time></trkpt><trkpt lat="39.4704858" lon="8.5565678"><ele>330.0</ele><time>2026-04-21T14:13:26.294Z</time></trkpt><trkpt lat="39.4703817" lon="8.5565958"><ele>330.0</ele><time>2026-04-21T14:13:28.294Z</time></trkpt><trkpt lat="39.4703235" lon="8.5566413"><ele>330.0</ele><time>2026-04-21T14:13:29.294Z</time></trkpt><trkpt lat="39.470272" lon="8.5567002"><ele>332.6666666666667</ele><time>2026-04-21T14:13:30.293Z</time></trkpt><trkpt lat="39.470214" lon="8.556777"><ele>335.3333333333333</ele><time>2026-04-21T14:13:31.294Z</time></trkpt><trkpt lat="39.4701678" lon="8.5568588"><ele>338.0</ele><time>2026-04-21T14:13:32.294Z</time></trkpt><trkpt lat="39.4701215" lon="8.5569368"><ele>340.66666666666663</ele><time>2026-04-21T14:13:33.294Z</time></trkpt><trkpt lat="39.4700765" lon="8.5570105"><ele>343.3333333333333</ele><time>2026-04-21T14:13:34.294Z</time></trkpt><trkpt lat="39.4699839" lon="8.5571193"><ele>346.0</ele><time>2026-04-21T14:13:36.293Z</time></trkpt><trkpt lat="39.469922" lon="8.5571744"><ele>346.66666666666663</ele><time>2026-04-21T14:13:37.293Z</time></trkpt><trkpt lat="39.4698546" lon="8.5572235"><ele>347.3333333333333</ele><time>2026-04-21T14:13:38.294Z</time></trkpt><trkpt lat="39.4697815" lon="8.5572776"><ele>348.0</ele><time>2026-04-21T14:13:39.294Z</time></trkpt><trkpt lat="39.469714" lon="8.5573371"><ele>348.6666666666667</ele><time>2026-04-21T14:13:40.294Z</time></trkpt><trkpt lat="39.4696408" lon="8.5573897"><ele>349.33333333333337</ele><time>2026-04-21T14:13:41.293Z</time></trkpt><trkpt lat="39.4695712" lon="8.5574286"><ele>350.0</ele><time>2026-04-21T14:13:42.293Z</time></trkpt><trkpt lat="39.4694799" lon="8.5575001"><ele>350.4</ele><time>2026-04-21T14:13:44.293Z</time></trkpt><trkpt lat="39.4694381" lon="8.5576375"><ele>350.8</ele><time>2026-04-21T14:13:46.294Z</time></trkpt><trkpt lat="39.4693994" lon="8.5577497"><ele>351.20000000000005</ele><time>2026-04-21T14:13:48.294Z</time></trkpt><trkpt lat="39.4693178" lon="8.5578082"><ele>351.6</ele><time>2026-04-21T14:13:50.293Z</time></trkpt><trkpt lat="39.4691991" lon="8.5577969"><ele>352.0</ele><time>2026-04-21T14:13:52.294Z</time></trkpt><trkpt lat="39.4691266" lon="8.557774"><ele>352.0</ele><time>2026-04-21T14:13:53.293Z</time></trkpt><trkpt lat="39.4690587" lon="8.5577367"><ele>352.0</ele><time>2026-04-21T14:13:54.294Z</time></trkpt><trkpt lat="39.4689878" lon="8.5577105"><ele>352.0</ele><time>2026-04-21T14:13:55.294Z</time></trkpt><trkpt lat="39.4689177" lon="8.5577038"><ele>352.0</ele><time>2026-04-21T14:13:56.294Z</time></trkpt><trkpt lat="39.4688489" lon="8.5577077"><ele>352.0</ele><time>2026-04-21T14:13:57.294Z</time></trkpt><trkpt lat="39.4687823" lon="8.5577181"><ele>352.0</ele><time>2026-04-21T14:13:58.294Z</time></trkpt><trkpt lat="39.4687203" lon="8.557747"><ele>352.0</ele><time>2026-04-21T14:13:59.294Z</time></trkpt><trkpt lat="39.468652" lon="8.5578618"><ele>354.40000000000003</ele><time>2026-04-21T14:14:01.293Z</time></trkpt><trkpt lat="39.4686283" lon="8.5580093"><ele>356.8</ele><time>2026-04-21T14:14:03.294Z</time></trkpt><trkpt lat="39.4686611" lon="8.5581316"><ele>359.2</ele><time>2026-04-21T14:14:05.294Z</time></trkpt><trkpt lat="39.468609" lon="8.5582259"><ele>361.6</ele><time>2026-04-21T14:14:08.293Z</time></trkpt><trkpt lat="39.4685167" lon="8.5582859"><ele>364.0</ele><time>2026-04-21T14:14:10.293Z</time></trkpt><trkpt lat="39.4684647" lon="8.5583592"><ele>364.0</ele><time>2026-04-21T14:14:12.293Z</time></trkpt><trkpt lat="39.4683833" lon="8.5583751"><ele>364.0</ele><time>2026-04-21T14:14:14.293Z</time></trkpt><trkpt lat="39.4682726" lon="8.5583655"><ele>364.0</ele><time>2026-04-21T14:14:16.294Z</time></trkpt><trkpt lat="39.4681958" lon="8.5583296"><ele>364.0</ele><time>2026-04-21T14:14:18.293Z</time></trkpt><trkpt lat="39.4681543" lon="8.5582412"><ele>364.0</ele><time>2026-04-21T14:14:20.294Z</time></trkpt><trkpt lat="39.4681097" lon="8.5581644"><ele>364.0</ele><time>2026-04-21T14:14:22.293Z</time></trkpt><trkpt lat="39.4680142" lon="8.5582094"><ele>367.8333333333333</ele><time>2026-04-21T14:14:25.294Z</time></trkpt><trkpt lat="39.4679374" lon="8.5583387"><ele>371.66666666666663</ele><time>2026-04-21T14:14:27.293Z</time></trkpt><trkpt lat="39.4679113" lon="8.5584151"><ele>375.5</ele><time>2026-04-21T14:14:28.293Z</time></trkpt><trkpt lat="39.4678418" lon="8.5585397"><ele>379.3333333333333</ele><time>2026-04-21T14:14:30.294Z</time></trkpt><trkpt lat="39.4677893" lon="8.5585866"><ele>383.1666666666667</ele><time>2026-04-21T14:14:31.294Z</time></trkpt><trkpt lat="39.4677335" lon="8.5586298"><ele>387.0</ele><time>2026-04-21T14:14:32.293Z</time></trkpt><trkpt lat="39.4676756" lon="8.5586763"><ele>386.5</ele><time>2026-04-21T14:14:33.294Z</time></trkpt><trkpt lat="39.4676111" lon="8.5587362"><ele>386.0</ele><time>2026-04-21T14:14:34.293Z</time></trkpt><trkpt lat="39.4675564" lon="8.5588"><ele>385.5</ele><time>2026-04-21T14:14:35.293Z</time></trkpt><trkpt lat="39.467514" lon="8.5588618"><ele>385.0</ele><time>2026-04-21T14:14:36.294Z</time></trkpt><trkpt lat="39.4674703" lon="8.558989"><ele>384.5</ele><time>2026-04-21T14:14:38.293Z</time></trkpt><trkpt lat="39.4674514" lon="8.5591442"><ele>384.0</ele><time>2026-04-21T14:14:40.293Z</time></trkpt><trkpt lat="39.4674288" lon="8.5592235"><ele>383.99999999999994</ele><time>2026-04-21T14:14:41.293Z</time></trkpt><trkpt lat="39.4673882" lon="8.5592959"><ele>384.0</ele><time>2026-04-21T14:14:42.294Z</time></trkpt><trkpt lat="39.4673433" lon="8.5593645"><ele>384.0</ele><time>2026-04-21T14:14:43.294Z</time></trkpt><trkpt lat="39.4672986" lon="8.5594348"><ele>384.0</ele><time>2026-04-21T14:14:44.294Z</time></trkpt><trkpt lat="39.4672536" lon="8.5595109"><ele>384.0</ele><time>2026-04-21T14:14:45.294Z</time></trkpt><trkpt lat="39.4672158" lon="8.5596007"><ele>383.99999999999994</ele><time>2026-04-21T14:14:46.293Z</time></trkpt><trkpt lat="39.4671763" lon="8.5596852"><ele>384.0</ele><time>2026-04-21T14:14:47.294Z</time></trkpt><trkpt lat="39.4671357" lon="8.5597616"><ele>385.2857142857143</ele><time>2026-04-21T14:14:48.293Z</time></trkpt><trkpt lat="39.4670933" lon="8.5598307"><ele>386.57142857142856</ele><time>2026-04-21T14:14:49.294Z</time></trkpt><trkpt lat="39.4670576" lon="8.559908"><ele>387.8571428571429</ele><time>2026-04-21T14:14:50.294Z</time></trkpt><trkpt lat="39.4670292" lon="8.5599919"><ele>389.1428571428571</ele><time>2026-04-21T14:14:51.293Z</time></trkpt><trkpt lat="39.4670055" lon="8.5600811"><ele>390.42857142857144</ele><time>2026-04-21T14:14:52.293Z</time></trkpt><trkpt lat="39.4669828" lon="8.5601771"><ele>391.7142857142857</ele><time>2026-04-21T14:14:53.293Z</time></trkpt><trkpt lat="39.466958" lon="8.5602729"><ele>393.0</ele><time>2026-04-21T14:14:54.294Z</time></trkpt><trkpt lat="39.4669368" lon="8.5603603"><ele>394.8333333333333</ele><time>2026-04-21T14:14:55.294Z</time></trkpt><trkpt lat="39.4669316" lon="8.5604537"><ele>396.66666666666663</ele><time>2026-04-21T14:14:56.293Z</time></trkpt><trkpt lat="39.4669385" lon="8.5605572"><ele>398.5</ele><time>2026-04-21T14:14:57.293Z</time></trkpt><trkpt lat="39.466945" lon="8.560653"><ele>400.3333333333333</ele><time>2026-04-21T14:14:58.294Z</time></trkpt><trkpt lat="39.4669105" lon="8.5607927"><ele>402.16666666666663</ele><time>2026-04-21T14:15:00.294Z</time></trkpt><trkpt lat="39.4668346" lon="8.5608602"><ele>404.0</ele><time>2026-04-21T14:15:02.293Z</time></trkpt><trkpt lat="39.4667476" lon="8.5608397"><ele>404.0</ele><time>2026-04-21T14:15:04.294Z</time></trkpt><trkpt lat="39.4666565" lon="8.5608047"><ele>404.0</ele><time>2026-04-21T14:15:06.293Z</time></trkpt><trkpt lat="39.4665619" lon="8.5608511"><ele>404.0</ele><time>2026-04-21T14:15:08.294Z</time></trkpt><trkpt lat="39.4664524" lon="8.5609003"><ele>404.0</ele><time>2026-04-21T14:15:10.294Z</time></trkpt><trkpt lat="39.4663335" lon="8.5608831"><ele>404.0</ele><time>2026-04-21T14:15:12.293Z</time></trkpt><trkpt lat="39.4662674" lon="8.5608656"><ele>404.66666666666663</ele><time>2026-04-21T14:15:13.294Z</time></trkpt><trkpt lat="39.4662034" lon="8.5608476"><ele>405.3333333333333</ele><time>2026-04-21T14:15:14.294Z</time></trkpt><trkpt lat="39.4661164" lon="8.5608255"><ele>406.0</ele><time>2026-04-21T14:15:16.294Z</time></trkpt><trkpt lat="39.4660362" lon="8.5608458"><ele>406.66666666666663</ele><time>2026-04-21T14:15:19.294Z</time></trkpt><trkpt lat="39.4659898" lon="8.5609371"><ele>407.3333333333333</ele><time>2026-04-21T14:15:21.294Z</time></trkpt><trkpt lat="39.4659345" lon="8.5610285"><ele>408.0</ele><time>2026-04-21T14:15:23.293Z</time></trkpt><trkpt lat="39.4658736" lon="8.5610601"><ele>408.0</ele><time>2026-04-21T14:15:25.294Z</time></trkpt><trkpt lat="39.4657935" lon="8.5610525"><ele>408.0</ele><time>2026-04-21T14:15:27.294Z</time></trkpt><trkpt lat="39.4657189" lon="8.5610806"><ele>408.0</ele><time>2026-04-21T14:15:29.293Z</time></trkpt><trkpt lat="39.465714" lon="8.5611906"><ele>408.0</ele><time>2026-04-21T14:15:31.294Z</time></trkpt><trkpt lat="39.4657337" lon="8.5612728"><ele>408.0</ele><time>2026-04-21T14:15:32.294Z</time></trkpt><trkpt lat="39.4657619" lon="8.5613678"><ele>408.0</ele><time>2026-04-21T14:15:33.294Z</time></trkpt><trkpt lat="39.4657834" lon="8.56146"><ele>411.2</ele><time>2026-04-21T14:15:34.294Z</time></trkpt><trkpt lat="39.4657989" lon="8.5615448"><ele>414.4</ele><time>2026-04-21T14:15:35.293Z</time></trkpt><trkpt lat="39.465802" lon="8.5616904"><ele>417.59999999999997</ele><time>2026-04-21T14:15:37.294Z</time></trkpt><trkpt lat="39.465775" lon="8.5618145"><ele>420.79999999999995</ele><time>2026-04-21T14:15:39.293Z</time></trkpt><trkpt lat="39.4657285" lon="8.5619512"><ele>424.0</ele><time>2026-04-21T14:15:41.293Z</time></trkpt><trkpt lat="39.4656784" lon="8.5620997"><ele>426.1666666666667</ele><time>2026-04-21T14:15:43.294Z</time></trkpt><trkpt lat="39.4656603" lon="8.5621833"><ele>428.33333333333337</ele><time>2026-04-21T14:15:44.294Z</time></trkpt><trkpt lat="39.4656389" lon="8.5622691"><ele>430.5</ele><time>2026-04-21T14:15:45.293Z</time></trkpt><trkpt lat="39.4656138" lon="8.5623498"><ele>432.66666666666663</ele><time>2026-04-21T14:15:46.293Z</time></trkpt><trkpt lat="39.4655892" lon="8.5624271"><ele>434.8333333333333</ele><time>2026-04-21T14:15:47.293Z</time></trkpt><trkpt lat="39.4655683" lon="8.5625559"><ele>437.0</ele><time>2026-04-21T14:15:49.294Z</time></trkpt><trkpt lat="39.4655909" lon="8.5626959"><ele>437.0</ele><time>2026-04-21T14:15:51.293Z</time></trkpt><trkpt lat="39.4656094" lon="8.5627742"><ele>437.00000000000006</ele><time>2026-04-21T14:15:52.294Z</time></trkpt><trkpt lat="39.4656145" lon="8.5629295"><ele>437.00000000000006</ele><time>2026-04-21T14:15:54.294Z</time></trkpt><trkpt lat="39.4655664" lon="8.5630638"><ele>437.0</ele><time>2026-04-21T14:15:56.294Z</time></trkpt><trkpt lat="39.4654801" lon="8.5631768"><ele>437.0</ele><time>2026-04-21T14:15:58.294Z</time></trkpt><trkpt lat="39.4654303" lon="8.5632291"><ele>437.6</ele><time>2026-04-21T14:15:59.294Z</time></trkpt><trkpt lat="39.4653692" lon="8.5632713"><ele>438.20000000000005</ele><time>2026-04-21T14:16:00.294Z</time></trkpt><trkpt lat="39.4653076" lon="8.5633055"><ele>438.8</ele><time>2026-04-21T14:16:01.294Z</time></trkpt><trkpt lat="39.4651929" lon="8.5633824"><ele>439.4</ele><time>2026-04-21T14:16:03.293Z</time></trkpt><trkpt lat="39.465076" lon="8.5634513"><ele>440.0</ele><time>2026-04-21T14:16:05.294Z</time></trkpt><trkpt lat="39.4650077" lon="8.5634793"><ele>440.0</ele><time>2026-04-21T14:16:06.293Z</time></trkpt><trkpt lat="39.4649435" lon="8.5635076"><ele>440.0</ele><time>2026-04-21T14:16:07.294Z</time></trkpt><trkpt lat="39.4648337" lon="8.5635366"><ele>440.0</ele><time>2026-04-21T14:16:09.294Z</time></trkpt><trkpt lat="39.4647228" lon="8.5635319"><ele>440.0</ele><time>2026-04-21T14:16:11.293Z</time></trkpt><trkpt lat="39.4646096" lon="8.5635229"><ele>440.0</ele><time>2026-04-21T14:16:13.294Z</time></trkpt><trkpt lat="39.4644858" lon="8.5635307"><ele>441.2857142857142</ele><time>2026-04-21T14:16:15.294Z</time></trkpt><trkpt lat="39.4644202" lon="8.5635186"><ele>442.57142857142856</ele><time>2026-04-21T14:16:16.293Z</time></trkpt><trkpt lat="39.4643534" lon="8.5634893"><ele>443.85714285714283</ele><time>2026-04-21T14:16:17.294Z</time></trkpt><trkpt lat="39.4642936" lon="8.5634512"><ele>445.1428571428571</ele><time>2026-04-21T14:16:18.294Z</time></trkpt><trkpt lat="39.464233" lon="8.5634115"><ele>446.4285714285714</ele><time>2026-04-21T14:16:19.293Z</time></trkpt><trkpt lat="39.4641742" lon="8.5633762"><ele>447.71428571428567</ele><time>2026-04-21T14:16:20.293Z</time></trkpt><trkpt lat="39.4641083" lon="8.5633523"><ele>449.0</ele><time>2026-04-21T14:16:21.293Z</time></trkpt><trkpt lat="39.4640366" lon="8.5633501"><ele>448.99999999999994</ele><time>2026-04-21T14:16:22.294Z</time></trkpt><trkpt lat="39.4639558" lon="8.5633674"><ele>449.0</ele><time>2026-04-21T14:16:23.294Z</time></trkpt><trkpt lat="39.4638776" lon="8.5633969"><ele>449.0</ele><time>2026-04-21T14:16:24.294Z</time></trkpt><trkpt lat="39.463799" lon="8.5634463"><ele>449.0</ele><time>2026-04-21T14:16:25.293Z</time></trkpt><trkpt lat="39.4637237" lon="8.5634919"><ele>448.99999999999994</ele><time>2026-04-21T14:16:26.293Z</time></trkpt><trkpt lat="39.4636522" lon="8.5635396"><ele>449.0</ele><time>2026-04-21T14:16:27.294Z</time></trkpt><trkpt lat="39.4635846" lon="8.5635826"><ele>450.99999999999994</ele><time>2026-04-21T14:16:28.293Z</time></trkpt><trkpt lat="39.4635207" lon="8.563621"><ele>453.0</ele><time>2026-04-21T14:16:29.293Z</time></trkpt><trkpt lat="39.4634653" lon="8.5636624"><ele>455.0</ele><time>2026-04-21T14:16:30.294Z</time></trkpt><trkpt lat="39.4634162" lon="8.563715"><ele>457.0</ele><time>2026-04-21T14:16:31.294Z</time></trkpt><trkpt lat="39.4633487" lon="8.5638471"><ele>458.99999999999994</ele><time>2026-04-21T14:16:33.294Z</time></trkpt><trkpt lat="39.4633369" lon="8.5639282"><ele>461.0</ele><time>2026-04-21T14:16:34.293Z</time></trkpt><trkpt lat="39.4633137" lon="8.5640748"><ele>461.0</ele><time>2026-04-21T14:16:36.293Z</time></trkpt><trkpt lat="39.4633185" lon="8.5642338"><ele>461.0</ele><time>2026-04-21T14:16:38.294Z</time></trkpt><trkpt lat="39.4633242" lon="8.5643297"><ele>461.0</ele><time>2026-04-21T14:16:39.294Z</time></trkpt><trkpt lat="39.4633317" lon="8.5644302"><ele>461.0</ele><time>2026-04-21T14:16:40.293Z</time></trkpt><trkpt lat="39.4633403" lon="8.5645249"><ele>461.0</ele><time>2026-04-21T14:16:41.293Z</time></trkpt><trkpt lat="39.4633186" lon="8.564688"><ele>461.5714285714286</ele><time>2026-04-21T14:16:43.294Z</time></trkpt><trkpt lat="39.4632866" lon="8.5647666"><ele>462.1428571428572</ele><time>2026-04-21T14:16:44.293Z</time></trkpt><trkpt lat="39.4632396" lon="8.5648252"><ele>462.7142857142857</ele><time>2026-04-21T14:16:45.294Z</time></trkpt><trkpt lat="39.4631783" lon="8.5648575"><ele>463.28571428571433</ele><time>2026-04-21T14:16:46.294Z</time></trkpt><trkpt lat="39.4631086" lon="8.5648868"><ele>463.8571428571429</ele><time>2026-04-21T14:16:47.293Z</time></trkpt><trkpt lat="39.4630403" lon="8.5649146"><ele>464.42857142857144</ele><time>2026-04-21T14:16:48.293Z</time></trkpt><trkpt lat="39.4629718" lon="8.5649358"><ele>465.0</ele><time>2026-04-21T14:16:49.294Z</time></trkpt><trkpt lat="39.4629034" lon="8.5649616"><ele>465.1666666666667</ele><time>2026-04-21T14:16:50.294Z</time></trkpt><trkpt lat="39.4628367" lon="8.5649995"><ele>465.33333333333337</ele><time>2026-04-21T14:16:51.294Z</time></trkpt><trkpt lat="39.4627672" lon="8.5650535"><ele>465.5</ele><time>2026-04-21T14:16:52.294Z</time></trkpt><trkpt lat="39.4626973" lon="8.5651085"><ele>465.6666666666667</ele><time>2026-04-21T14:16:53.294Z</time></trkpt><trkpt lat="39.462625" lon="8.5651695"><ele>465.83333333333337</ele><time>2026-04-21T14:16:54.294Z</time></trkpt><trkpt lat="39.4625391" lon="8.5652199"><ele>466.0</ele><time>2026-04-21T14:16:55.294Z</time></trkpt><trkpt lat="39.4624573" lon="8.5652689"><ele>466.00000000000006</ele><time>2026-04-21T14:16:56.293Z</time></trkpt><trkpt lat="39.4623903" lon="8.5653274"><ele>466.0</ele><time>2026-04-21T14:16:57.293Z</time></trkpt><trkpt lat="39.462324" lon="8.5653881"><ele>466.0</ele><time>2026-04-21T14:16:58.294Z</time></trkpt><trkpt lat="39.4622547" lon="8.5654437"><ele>466.0</ele><time>2026-04-21T14:16:59.293Z</time></trkpt><trkpt lat="39.4621782" lon="8.5654959"><ele>466.00000000000006</ele><time>2026-04-21T14:17:00.294Z</time></trkpt><trkpt lat="39.4620983" lon="8.5655477"><ele>466.0</ele><time>2026-04-21T14:17:01.294Z</time></trkpt><trkpt lat="39.4620302" lon="8.5655959"><ele>468.50000000000006</ele><time>2026-04-21T14:17:02.294Z</time></trkpt><trkpt lat="39.4619743" lon="8.5656563"><ele>471.0</ele><time>2026-04-21T14:17:03.293Z</time></trkpt><trkpt lat="39.4619197" lon="8.5657272"><ele>473.5</ele><time>2026-04-21T14:17:04.294Z</time></trkpt><trkpt lat="39.46186" lon="8.5657963"><ele>476.0</ele><time>2026-04-21T14:17:05.294Z</time></trkpt><trkpt lat="39.4618015" lon="8.565869"><ele>478.50000000000006</ele><time>2026-04-21T14:17:06.294Z</time></trkpt><trkpt lat="39.4617537" lon="8.5659512"><ele>481.0</ele><time>2026-04-21T14:17:07.294Z</time></trkpt><trkpt lat="39.4617081" lon="8.5660419"><ele>481.00000000000006</ele><time>2026-04-21T14:17:08.293Z</time></trkpt><trkpt lat="39.4616768" lon="8.5661447"><ele>481.0</ele><time>2026-04-21T14:17:09.294Z</time></trkpt><trkpt lat="39.4616531" lon="8.5662503"><ele>481.0</ele><time>2026-04-21T14:17:10.294Z</time></trkpt><trkpt lat="39.461631" lon="8.5663455"><ele>481.0</ele><time>2026-04-21T14:17:11.294Z</time></trkpt><trkpt lat="39.4616242" lon="8.566444"><ele>481.00000000000006</ele><time>2026-04-21T14:17:12.294Z</time></trkpt><trkpt lat="39.4616156" lon="8.5665486"><ele>481.0</ele><time>2026-04-21T14:17:13.293Z</time></trkpt><trkpt lat="39.4616045" lon="8.5666487"><ele>479.8</ele><time>2026-04-21T14:17:14.293Z</time></trkpt><trkpt lat="39.4615765" lon="8.5667755"><ele>478.6</ele><time>2026-04-21T14:17:16.293Z</time></trkpt><trkpt lat="39.4615056" lon="8.5667906"><ele>477.4</ele><time>2026-04-21T14:17:19.293Z</time></trkpt><trkpt lat="39.4614989" lon="8.5666901"><ele>476.2</ele><time>2026-04-21T14:17:21.293Z</time></trkpt><trkpt lat="39.461543" lon="8.5665327"><ele>475.0</ele><time>2026-04-21T14:17:23.293Z</time></trkpt><trkpt lat="39.4615621" lon="8.5664281"><ele>475.00000000000006</ele><time>2026-04-21T14:17:24.293Z</time></trkpt><trkpt lat="39.4615775" lon="8.5663268"><ele>475.0</ele><time>2026-04-21T14:17:25.294Z</time></trkpt><trkpt lat="39.4615914" lon="8.5662297"><ele>475.0</ele><time>2026-04-21T14:17:26.293Z</time></trkpt><trkpt lat="39.4616112" lon="8.5661382"><ele>475.0</ele><time>2026-04-21T14:17:27.294Z</time></trkpt><trkpt lat="39.4616262" lon="8.5660356"><ele>475.00000000000006</ele><time>2026-04-21T14:17:28.293Z</time></trkpt><trkpt lat="39.4616324" lon="8.5659361"><ele>475.0</ele><time>2026-04-21T14:17:29.293Z</time></trkpt><trkpt lat="39.4616336" lon="8.5658413"><ele>476.00000000000006</ele><time>2026-04-21T14:17:30.294Z</time></trkpt><trkpt lat="39.4616376" lon="8.5657548"><ele>477.0</ele><time>2026-04-21T14:17:31.294Z</time></trkpt><trkpt lat="39.4616768" lon="8.5655978"><ele>478.0</ele><time>2026-04-21T14:17:33.293Z</time></trkpt><trkpt lat="39.4617187" lon="8.5655118"><ele>479.0</ele><time>2026-04-21T14:17:34.294Z</time></trkpt><trkpt lat="39.461757" lon="8.5654203"><ele>480.00000000000006</ele><time>2026-04-21T14:17:35.294Z</time></trkpt><trkpt lat="39.4617998" lon="8.5653267"><ele>481.0</ele><time>2026-04-21T14:17:36.293Z</time></trkpt><trkpt lat="39.4618346" lon="8.5652337"><ele>482.99999999999994</ele><time>2026-04-21T14:17:37.293Z</time></trkpt><trkpt lat="39.4618767" lon="8.5651462"><ele>485.0</ele><time>2026-04-21T14:17:38.294Z</time></trkpt><trkpt lat="39.4619116" lon="8.5650618"><ele>486.99999999999994</ele><time>2026-04-21T14:17:39.294Z</time></trkpt><trkpt lat="39.461938" lon="8.5649811"><ele>488.99999999999994</ele><time>2026-04-21T14:17:40.293Z</time></trkpt><trkpt lat="39.4619434" lon="8.5648944"><ele>491.0</ele><time>2026-04-21T14:17:41.293Z</time></trkpt><trkpt lat="39.4619335" lon="8.56481"><ele>492.99999999999994</ele><time>2026-04-21T14:17:42.293Z</time></trkpt><trkpt lat="39.461898" lon="8.5647111"><ele>494.99999999999994</ele><time>2026-04-21T14:17:43.294Z</time></trkpt><trkpt lat="39.4618593" lon="8.5646163"><ele>497.2</ele><time>2026-04-21T14:17:44.294Z</time></trkpt><trkpt lat="39.4618233" lon="8.5645264"><ele>499.4</ele><time>2026-04-21T14:17:45.294Z</time></trkpt><trkpt lat="39.4617899" lon="8.5644531"><ele>501.6</ele><time>2026-04-21T14:17:46.294Z</time></trkpt><trkpt lat="39.4617497" lon="8.564306"><ele>503.8</ele><time>2026-04-21T14:17:48.294Z</time></trkpt><trkpt lat="39.4617761" lon="8.5641653"><ele>506.0</ele><time>2026-04-21T14:17:50.293Z</time></trkpt><trkpt lat="39.4617684" lon="8.5640651"><ele>505.99999999999994</ele><time>2026-04-21T14:17:52.293Z</time></trkpt><trkpt lat="39.4616903" lon="8.5640799"><ele>506.0</ele><time>2026-04-21T14:17:55.293Z</time></trkpt><trkpt lat="39.4616421" lon="8.5641905"><ele>506.0</ele><time>2026-04-21T14:17:57.293Z</time></trkpt><trkpt lat="39.4616287" lon="8.564279"><ele>506.0</ele><time>2026-04-21T14:17:58.294Z</time></trkpt><trkpt lat="39.4616291" lon="8.5643817"><ele>505.99999999999994</ele><time>2026-04-21T14:17:59.294Z</time></trkpt><trkpt lat="39.4616391" lon="8.5644929"><ele>506.0</ele><time>2026-04-21T14:18:00.293Z</time></trkpt><trkpt lat="39.4616472" lon="8.5646138"><ele>504.16666666666663</ele><time>2026-04-21T14:18:01.293Z</time></trkpt><trkpt lat="39.4616475" lon="8.5647224"><ele>502.3333333333333</ele><time>2026-04-21T14:18:02.293Z</time></trkpt><trkpt lat="39.4616397" lon="8.5648158"><ele>500.5</ele><time>2026-04-21T14:18:03.294Z</time></trkpt><trkpt lat="39.4616232" lon="8.564896"><ele>498.66666666666663</ele><time>2026-04-21T14:18:04.294Z</time></trkpt><trkpt lat="39.4615888" lon="8.5649675"><ele>496.8333333333333</ele><time>2026-04-21T14:18:05.294Z</time></trkpt><trkpt lat="39.4615493" lon="8.5650318"><ele>495.0</ele><time>2026-04-21T14:18:06.294Z</time></trkpt><trkpt lat="39.4614772" lon="8.5651343"><ele>495.0</ele><time>2026-04-21T14:18:08.293Z</time></trkpt><trkpt lat="39.4613661" lon="8.5652245"><ele>495.0</ele><time>2026-04-21T14:18:10.293Z</time></trkpt><trkpt lat="39.4613031" lon="8.5652742"><ele>495.0</ele><time>2026-04-21T14:18:11.294Z</time></trkpt><trkpt lat="39.4612448" lon="8.565328"><ele>495.0</ele><time>2026-04-21T14:18:12.293Z</time></trkpt><trkpt lat="39.4611931" lon="8.5653887"><ele>495.0</ele><time>2026-04-21T14:18:13.294Z</time></trkpt><trkpt lat="39.4611312" lon="8.5654884"><ele>495.0</ele><time>2026-04-21T14:18:15.293Z</time></trkpt><trkpt lat="39.4610535" lon="8.5654676"><ele>501.6</ele><time>2026-04-21T14:18:18.294Z</time></trkpt><trkpt lat="39.4610466" lon="8.5653798"><ele>508.2</ele><time>2026-04-21T14:18:20.294Z</time></trkpt><trkpt lat="39.4611186" lon="8.5652744"><ele>514.8</ele><time>2026-04-21T14:18:22.293Z</time></trkpt><trkpt lat="39.4612027" lon="8.5651941"><ele>521.4</ele><time>2026-04-21T14:18:24.294Z</time></trkpt><trkpt lat="39.4612626" lon="8.5650671"><ele>528.0</ele><time>2026-04-21T14:18:26.294Z</time></trkpt><trkpt lat="39.4612741" lon="8.5649211"><ele>529.8</ele><time>2026-04-21T14:18:28.294Z</time></trkpt><trkpt lat="39.4612348" lon="8.5648011"><ele>531.5999999999999</ele><time>2026-04-21T14:18:30.293Z</time></trkpt><trkpt lat="39.4611689" lon="8.5646913"><ele>533.4000000000001</ele><time>2026-04-21T14:18:32.294Z</time></trkpt><trkpt lat="39.4610804" lon="8.5645931"><ele>535.2</ele><time>2026-04-21T14:18:34.293Z</time></trkpt><trkpt lat="39.4609973" lon="8.5644846"><ele>537.0</ele><time>2026-04-21T14:18:36.293Z</time></trkpt><trkpt lat="39.4609594" lon="8.5644187"><ele>537.6</ele><time>2026-04-21T14:18:37.292Z</time></trkpt><trkpt lat="39.4609117" lon="8.5642944"><ele>538.2</ele><time>2026-04-21T14:18:39.292Z</time></trkpt><trkpt lat="39.4609026" lon="8.5641332"><ele>538.8</ele><time>2026-04-21T14:18:41.293Z</time></trkpt><trkpt lat="39.4608973" lon="8.5640418"><ele>539.4</ele><time>2026-04-21T14:18:42.293Z</time></trkpt><trkpt lat="39.4609042" lon="8.5639599"><ele>540.0</ele><time>2026-04-21T14:18:43.292Z</time></trkpt><trkpt lat="39.4609479" lon="8.5638437"><ele>540.0</ele><time>2026-04-21T14:18:45.292Z</time></trkpt><trkpt lat="39.4610182" lon="8.563725"><ele>540.0</ele><time>2026-04-21T14:18:47.293Z</time></trkpt><trkpt lat="39.4610581" lon="8.5636555"><ele>540.0</ele><time>2026-04-21T14:18:48.293Z</time></trkpt><trkpt lat="39.4611161" lon="8.5635068"><ele>540.0</ele><time>2026-04-21T14:18:50.293Z</time></trkpt><trkpt lat="39.4611361" lon="8.5634086"><ele>540.0</ele><time>2026-04-21T14:18:51.293Z</time></trkpt><trkpt lat="39.4611493" lon="8.5633022"><ele>542.3333333333334</ele><time>2026-04-21T14:18:52.292Z</time></trkpt><trkpt lat="39.4611593" lon="8.5631996"><ele>544.6666666666666</ele><time>2026-04-21T14:18:53.292Z</time></trkpt><trkpt lat="39.4611697" lon="8.5631034"><ele>547.0</ele><time>2026-04-21T14:18:54.293Z</time></trkpt><trkpt lat="39.4611826" lon="8.5630077"><ele>549.3333333333333</ele><time>2026-04-21T14:18:55.292Z</time></trkpt><trkpt lat="39.4612035" lon="8.5629038"><ele>551.6666666666666</ele><time>2026-04-21T14:18:56.293Z</time></trkpt><trkpt lat="39.4612262" lon="8.5627957"><ele>554.0</ele><time>2026-04-21T14:18:57.293Z</time></trkpt><trkpt lat="39.4612503" lon="8.5626909"><ele>552.0</ele><time>2026-04-21T14:18:58.293Z</time></trkpt><trkpt lat="39.4612772" lon="8.5625979"><ele>550.0</ele><time>2026-04-21T14:18:59.293Z</time></trkpt><trkpt lat="39.4612998" lon="8.5625123"><ele>548.0</ele><time>2026-04-21T14:19:00.292Z</time></trkpt><trkpt lat="39.4613287" lon="8.5623606"><ele>546.0</ele><time>2026-04-21T14:19:02.293Z</time></trkpt><trkpt lat="39.4613472" lon="8.5622138"><ele>544.0</ele><time>2026-04-21T14:19:04.293Z</time></trkpt><trkpt lat="39.4614012" lon="8.5620884"><ele>547.2</ele><time>2026-04-21T14:19:06.293Z</time></trkpt><trkpt lat="39.4614931" lon="8.5620302"><ele>550.4</ele><time>2026-04-21T14:19:08.293Z</time></trkpt><trkpt lat="39.461615" lon="8.5620033"><ele>553.6</ele><time>2026-04-21T14:19:10.292Z</time></trkpt><trkpt lat="39.461715" lon="8.561925"><ele>556.8</ele><time>2026-04-21T14:19:12.292Z</time></trkpt><trkpt lat="39.46176" lon="8.5618583"><ele>560.0</ele><time>2026-04-21T14:19:13.292Z</time></trkpt><trkpt lat="39.4618067" lon="8.5617933"><ele>560.0</ele><time>2026-04-21T14:19:14.292Z</time></trkpt><trkpt lat="39.46187" lon="8.5616633"><ele>560.0</ele><time>2026-04-21T14:19:16.293Z</time></trkpt><trkpt lat="39.461875" lon="8.5615067"><ele>560.0</ele><time>2026-04-21T14:19:18.293Z</time></trkpt><trkpt lat="39.461855" lon="8.5613983"><ele>560.0</ele><time>2026-04-21T14:19:20.292Z</time></trkpt><trkpt lat="39.4618233" lon="8.5613117"><ele>560.0</ele><time>2026-04-21T14:20:03.292Z</time></trkpt><trkpt lat="39.4617817" lon="8.561155"><ele>560.6666666666666</ele><time>2026-04-21T14:20:05.293Z</time></trkpt><trkpt lat="39.4617583" lon="8.5610667"><ele>561.3333333333333</ele><time>2026-04-21T14:20:06.293Z</time></trkpt><trkpt lat="39.4617367" lon="8.5609617"><ele>562.0</ele><time>2026-04-21T14:20:07.293Z</time></trkpt><trkpt lat="39.461705" lon="8.560855"><ele>562.6666666666666</ele><time>2026-04-21T14:20:08.292Z</time></trkpt><trkpt lat="39.461675" lon="8.560755"><ele>563.3333333333334</ele><time>2026-04-21T14:20:09.292Z</time></trkpt><trkpt lat="39.4616533" lon="8.560655"><ele>564.0</ele><time>2026-04-21T14:20:10.293Z</time></trkpt><trkpt lat="39.46163" lon="8.5605517"><ele>564.0</ele><time>2026-04-21T14:20:11.292Z</time></trkpt><trkpt lat="39.4616217" lon="8.56046"><ele>564.0</ele><time>2026-04-21T14:20:12.293Z</time></trkpt><trkpt lat="39.4616283" lon="8.5603717"><ele>564.0</ele><time>2026-04-21T14:20:13.292Z</time></trkpt><trkpt lat="39.4616317" lon="8.5602883"><ele>564.0</ele><time>2026-04-21T14:20:14.292Z</time></trkpt><trkpt lat="39.4616217" lon="8.5601633"><ele>564.0</ele><time>2026-04-21T14:20:16.293Z</time></trkpt><trkpt lat="39.461565" lon="8.5600517"><ele>564.0</ele><time>2026-04-21T14:20:18.292Z</time></trkpt><trkpt lat="39.4615217" lon="8.559985"><ele>563.8</ele><time>2026-04-21T14:20:19.293Z</time></trkpt><trkpt lat="39.4614517" lon="8.559885"><ele>563.5999999999999</ele><time>2026-04-21T14:20:21.293Z</time></trkpt><trkpt lat="39.4613633" lon="8.559865"><ele>563.4</ele><time>2026-04-21T14:20:23.293Z</time></trkpt><trkpt lat="39.4612783" lon="8.55994"><ele>563.1999999999999</ele><time>2026-04-21T14:20:25.292Z</time></trkpt><trkpt lat="39.46121" lon="8.5600067"><ele>563.0</ele><time>2026-04-21T14:20:27.292Z</time></trkpt><trkpt lat="39.4611367" lon="8.560015"><ele>561.8333333333333</ele><time>2026-04-21T14:20:29.292Z</time></trkpt><trkpt lat="39.46108" lon="8.55994"><ele>560.6666666666666</ele><time>2026-04-21T14:20:31.292Z</time></trkpt><trkpt lat="39.4610583" lon="8.5598567"><ele>559.5</ele><time>2026-04-21T14:20:32.292Z</time></trkpt><trkpt lat="39.4610367" lon="8.5597583"><ele>558.3333333333334</ele><time>2026-04-21T14:20:33.292Z</time></trkpt><trkpt lat="39.4610217" lon="8.5596483"><ele>557.1666666666667</ele><time>2026-04-21T14:20:34.293Z</time></trkpt><trkpt lat="39.4610083" lon="8.5595417"><ele>556.0</ele><time>2026-04-21T14:20:35.292Z</time></trkpt><trkpt lat="39.4609883" lon="8.559435"><ele>556.0</ele><time>2026-04-21T14:20:36.293Z</time></trkpt><trkpt lat="39.46096" lon="8.5593417"><ele>556.0</ele><time>2026-04-21T14:20:37.292Z</time></trkpt><trkpt lat="39.4609283" lon="8.5592483"><ele>556.0</ele><time>2026-04-21T14:20:38.292Z</time></trkpt><trkpt lat="39.4609017" lon="8.559165"><ele>556.0</ele><time>2026-04-21T14:20:39.293Z</time></trkpt><trkpt lat="39.46086" lon="8.5591"><ele>556.0</ele><time>2026-04-21T14:20:40.292Z</time></trkpt><trkpt lat="39.4607667" lon="8.5590333"><ele>556.0</ele><time>2026-04-21T14:20:42.293Z</time></trkpt><trkpt lat="39.46065" lon="8.5590383"><ele>556.0</ele><time>2026-04-21T14:20:44.292Z</time></trkpt><trkpt lat="39.460535" lon="8.55911"><ele>556.0</ele><time>2026-04-21T14:20:46.292Z</time></trkpt><trkpt lat="39.46047" lon="8.5591383"><ele>556.0</ele><time>2026-04-21T14:20:47.293Z</time></trkpt><trkpt lat="39.4604017" lon="8.55915"><ele>556.0</ele><time>2026-04-21T14:20:48.292Z</time></trkpt><trkpt lat="39.4603383" lon="8.55914"><ele>556.0</ele><time>2026-04-21T14:20:49.293Z</time></trkpt><trkpt lat="39.4602767" lon="8.5590983"><ele>556.0</ele><time>2026-04-21T14:20:50.292Z</time></trkpt><trkpt lat="39.460215" lon="8.5590417"><ele>557.1666666666667</ele><time>2026-04-21T14:20:51.293Z</time></trkpt><trkpt lat="39.4601517" lon="8.558985"><ele>558.3333333333334</ele><time>2026-04-21T14:20:52.292Z</time></trkpt><trkpt lat="39.460095" lon="8.558935"><ele>559.5</ele><time>2026-04-21T14:20:53.292Z</time></trkpt><trkpt lat="39.4600433" lon="8.5588867"><ele>560.6666666666666</ele><time>2026-04-21T14:20:54.292Z</time></trkpt><trkpt lat="39.4599467" lon="8.5588083"><ele>561.8333333333333</ele><time>2026-04-21T14:20:56.292Z</time></trkpt><trkpt lat="39.459855" lon="8.5587833"><ele>563.0</ele><time>2026-04-21T14:20:58.293Z</time></trkpt><trkpt lat="39.4597833" lon="8.5588333"><ele>563.0</ele><time>2026-04-21T14:21:00.293Z</time></trkpt><trkpt lat="39.4597383" lon="8.55896"><ele>563.0</ele><time>2026-04-21T14:21:02.292Z</time></trkpt><trkpt lat="39.45971" lon="8.55905"><ele>563.0</ele><time>2026-04-21T14:21:03.293Z</time></trkpt><trkpt lat="39.4596867" lon="8.55915"><ele>563.0</ele><time>2026-04-21T14:21:04.292Z</time></trkpt><trkpt lat="39.45966" lon="8.5592533"><ele>563.0</ele><time>2026-04-21T14:21:05.292Z</time></trkpt><trkpt lat="39.4596283" lon="8.5593517"><ele>563.0</ele><time>2026-04-21T14:21:06.292Z</time></trkpt><trkpt lat="39.459595" lon="8.5594417"><ele>564.0</ele><time>2026-04-21T14:21:07.293Z</time></trkpt><trkpt lat="39.45956" lon="8.55953"><ele>565.0</ele><time>2026-04-21T14:21:08.292Z</time></trkpt><trkpt lat="39.4595183" lon="8.5596133"><ele>566.0</ele><time>2026-04-21T14:21:09.293Z</time></trkpt><trkpt lat="39.4594717" lon="8.559675"><ele>567.0</ele><time>2026-04-21T14:21:10.292Z</time></trkpt><trkpt lat="39.4594117" lon="8.5597133"><ele>568.0</ele><time>2026-04-21T14:21:11.293Z</time></trkpt><trkpt lat="39.45935" lon="8.55974"><ele>569.0</ele><time>2026-04-21T14:21:12.292Z</time></trkpt><trkpt lat="39.4592817" lon="8.55977"><ele>570.0</ele><time>2026-04-21T14:21:13.292Z</time></trkpt><trkpt lat="39.45921" lon="8.5597967"><ele>570.0</ele><time>2026-04-21T14:21:14.293Z</time></trkpt><trkpt lat="39.4591267" lon="8.5598183"><ele>570.0</ele><time>2026-04-21T14:21:15.293Z</time></trkpt><trkpt lat="39.4590467" lon="8.559845"><ele>570.0</ele><time>2026-04-21T14:21:16.293Z</time></trkpt><trkpt lat="39.45897" lon="8.55987"><ele>570.0</ele><time>2026-04-21T14:21:17.293Z</time></trkpt><trkpt lat="39.458895" lon="8.5598917"><ele>570.0</ele><time>2026-04-21T14:21:18.293Z</time></trkpt><trkpt lat="39.458825" lon="8.5599"><ele>570.0</ele><time>2026-04-21T14:21:19.292Z</time></trkpt><trkpt lat="39.458745" lon="8.5599017"><ele>569.1666666666666</ele><time>2026-04-21T14:21:20.293Z</time></trkpt><trkpt lat="39.4586783" lon="8.5599017"><ele>568.3333333333334</ele><time>2026-04-21T14:21:21.293Z</time></trkpt><trkpt lat="39.4586133" lon="8.5598867"><ele>567.5</ele><time>2026-04-21T14:21:22.293Z</time></trkpt><trkpt lat="39.4584833" lon="8.5598733"><ele>566.6666666666667</ele><time>2026-04-21T14:21:24.293Z</time></trkpt><trkpt lat="39.4584183" lon="8.55989"><ele>565.8333333333334</ele><time>2026-04-21T14:21:25.292Z</time></trkpt><trkpt lat="39.458355" lon="8.5599233"><ele>565.0</ele><time>2026-04-21T14:21:26.293Z</time></trkpt><trkpt lat="39.45829" lon="8.5599617"><ele>565.0</ele><time>2026-04-21T14:21:27.293Z</time></trkpt><trkpt lat="39.4582217" lon="8.5600033"><ele>565.0</ele><time>2026-04-21T14:21:28.293Z</time></trkpt><trkpt lat="39.4581117" lon="8.560095"><ele>565.0</ele><time>2026-04-21T14:21:30.293Z</time></trkpt><trkpt lat="39.4580633" lon="8.560155"><ele>565.0</ele><time>2026-04-21T14:21:31.293Z</time></trkpt><trkpt lat="39.4580183" lon="8.560225"><ele>565.0</ele><time>2026-04-21T14:21:32.293Z</time></trkpt><trkpt lat="39.4579767" lon="8.560305"><ele>565.0</ele><time>2026-04-21T14:21:33.293Z</time></trkpt><trkpt lat="39.4579383" lon="8.5603883"><ele>566.6666666666667</ele><time>2026-04-21T14:21:34.292Z</time></trkpt><trkpt lat="39.457895" lon="8.5604783"><ele>568.3333333333334</ele><time>2026-04-21T14:21:35.293Z</time></trkpt><trkpt lat="39.4578417" lon="8.5605567"><ele>570.0</ele><time>2026-04-21T14:21:36.292Z</time></trkpt><trkpt lat="39.4577817" lon="8.5606233"><ele>571.6666666666666</ele><time>2026-04-21T14:21:37.292Z</time></trkpt><trkpt lat="39.45772" lon="8.5606733"><ele>573.3333333333333</ele><time>2026-04-21T14:21:38.292Z</time></trkpt><trkpt lat="39.45765" lon="8.5607083"><ele>575.0</ele><time>2026-04-21T14:21:39.292Z</time></trkpt><trkpt lat="39.4575767" lon="8.5607533"><ele>575.0</ele><time>2026-04-21T14:21:40.293Z</time></trkpt><trkpt lat="39.4575017" lon="8.5607983"><ele>575.0</ele><time>2026-04-21T14:21:41.293Z</time></trkpt><trkpt lat="39.4574333" lon="8.5608317"><ele>575.0</ele><time>2026-04-21T14:21:42.293Z</time></trkpt><trkpt lat="39.45733" lon="8.56087"><ele>575.0</ele><time>2026-04-21T14:21:44.292Z</time></trkpt><trkpt lat="39.45726" lon="8.56086"><ele>575.0</ele><time>2026-04-21T14:21:47.293Z</time></trkpt><trkpt lat="39.4572517" lon="8.560775"><ele>575.0</ele><time>2026-04-21T14:21:55.292Z</time></trkpt><trkpt lat="39.4573117" lon="8.5607083"><ele>575.0</ele><time>2026-04-21T14:21:58.292Z</time></trkpt><trkpt lat="39.4573733" lon="8.56065"><ele>575.0</ele><time>2026-04-21T14:22:00.293Z</time></trkpt><trkpt lat="39.4574217" lon="8.560545"><ele>575.0</ele><time>2026-04-21T14:22:02.292Z</time></trkpt><trkpt lat="39.4574533" lon="8.5603917"><ele>575.0</ele><time>2026-04-21T14:22:04.293Z</time></trkpt><trkpt lat="39.4574583" lon="8.560245"><ele>575.0</ele><time>2026-04-21T14:22:06.293Z</time></trkpt><trkpt lat="39.4574817" lon="8.5601033"><ele>574.1666666666666</ele><time>2026-04-21T14:22:08.293Z</time></trkpt><trkpt lat="39.45754" lon="8.5599783"><ele>573.3333333333333</ele><time>2026-04-21T14:22:10.292Z</time></trkpt><trkpt lat="39.457615" lon="8.559855"><ele>572.5</ele><time>2026-04-21T14:22:12.292Z</time></trkpt><trkpt lat="39.4576567" lon="8.5597933"><ele>571.6666666666666</ele><time>2026-04-21T14:22:13.292Z</time></trkpt><trkpt lat="39.4577033" lon="8.5597267"><ele>570.8333333333334</ele><time>2026-04-21T14:22:14.293Z</time></trkpt><trkpt lat="39.4577433" lon="8.5596617"><ele>570.0</ele><time>2026-04-21T14:22:15.292Z</time></trkpt><trkpt lat="39.4578133" lon="8.559555"><ele>568.2</ele><time>2026-04-21T14:22:17.292Z</time></trkpt><trkpt lat="39.4579033" lon="8.5594833"><ele>566.4</ele><time>2026-04-21T14:22:19.293Z</time></trkpt><trkpt lat="39.4580233" lon="8.5594333"><ele>564.6</ele><time>2026-04-21T14:22:21.292Z</time></trkpt><trkpt lat="39.4580867" lon="8.559425"><ele>562.8</ele><time>2026-04-21T14:22:22.292Z</time></trkpt><trkpt lat="39.4581983" lon="8.559385"><ele>561.0</ele><time>2026-04-21T14:22:24.293Z</time></trkpt><trkpt lat="39.4582633" lon="8.55932"><ele>561.0</ele><time>2026-04-21T14:22:25.292Z</time></trkpt><trkpt lat="39.4583183" lon="8.5592717"><ele>561.0</ele><time>2026-04-21T14:22:26.293Z</time></trkpt><trkpt lat="39.45837" lon="8.559215"><ele>561.0</ele><time>2026-04-21T14:22:27.292Z</time></trkpt><trkpt lat="39.4584217" lon="8.5591533"><ele>561.0</ele><time>2026-04-21T14:22:28.292Z</time></trkpt><trkpt lat="39.4584683" lon="8.5590967"><ele>561.0</ele><time>2026-04-21T14:22:29.293Z</time></trkpt><trkpt lat="39.4585117" lon="8.5590267"><ele>561.0</ele><time>2026-04-21T14:22:30.292Z</time></trkpt><trkpt lat="39.4585567" lon="8.5589567"><ele>561.0</ele><time>2026-04-21T14:22:31.293Z</time></trkpt><trkpt lat="39.4585983" lon="8.5588917"><ele>561.0</ele><time>2026-04-21T14:22:32.292Z</time></trkpt><trkpt lat="39.4586317" lon="8.5588183"><ele>561.0</ele><time>2026-04-21T14:22:33.293Z</time></trkpt><trkpt lat="39.4586617" lon="8.5587367"><ele>561.0</ele><time>2026-04-21T14:22:34.293Z</time></trkpt><trkpt lat="39.4586883" lon="8.55866"><ele>561.0</ele><time>2026-04-21T14:22:35.293Z</time></trkpt><trkpt lat="39.458715" lon="8.558585"><ele>561.0</ele><time>2026-04-21T14:22:36.293Z</time></trkpt><trkpt lat="39.4587367" lon="8.558495"><ele>561.0</ele><time>2026-04-21T14:22:37.293Z</time></trkpt><trkpt lat="39.4587583" lon="8.5584067"><ele>561.0</ele><time>2026-04-21T14:22:38.292Z</time></trkpt><trkpt lat="39.4587617" lon="8.5583217"><ele>563.4285714285714</ele><time>2026-04-21T14:22:39.293Z</time></trkpt><trkpt lat="39.4587633" lon="8.558225"><ele>565.8571428571428</ele><time>2026-04-21T14:22:40.292Z</time></trkpt><trkpt lat="39.4587667" lon="8.5581333"><ele>568.2857142857142</ele><time>2026-04-21T14:22:41.292Z</time></trkpt><trkpt lat="39.4587633" lon="8.5580417"><ele>570.7142857142857</ele><time>2026-04-21T14:22:42.293Z</time></trkpt><trkpt lat="39.45876" lon="8.5579533"><ele>573.1428571428571</ele><time>2026-04-21T14:22:43.293Z</time></trkpt><trkpt lat="39.45876" lon="8.557865"><ele>575.5714285714286</ele><time>2026-04-21T14:22:44.293Z</time></trkpt><trkpt lat="39.4587717" lon="8.5577717"><ele>578.0</ele><time>2026-04-21T14:22:45.293Z</time></trkpt><trkpt lat="39.458775" lon="8.5576817"><ele>579.5</ele><time>2026-04-21T14:22:46.292Z</time></trkpt><trkpt lat="39.4587667" lon="8.55758"><ele>581.0</ele><time>2026-04-21T14:22:47.293Z</time></trkpt><trkpt lat="39.4587483" lon="8.5574733"><ele>582.5</ele><time>2026-04-21T14:22:48.292Z</time></trkpt><trkpt lat="39.4587283" lon="8.557375"><ele>584.0</ele><time>2026-04-21T14:22:49.293Z</time></trkpt><trkpt lat="39.4587083" lon="8.5572967"><ele>585.5</ele><time>2026-04-21T14:22:50.292Z</time></trkpt><trkpt lat="39.4587133" lon="8.5571383"><ele>587.0</ele><time>2026-04-21T14:22:52.293Z</time></trkpt><trkpt lat="39.4587283" lon="8.5570417"><ele>587.6666666666666</ele><time>2026-04-21T14:22:53.293Z</time></trkpt><trkpt lat="39.458745" lon="8.5569517"><ele>588.3333333333333</ele><time>2026-04-21T14:22:54.292Z</time></trkpt><trkpt lat="39.4587467" lon="8.5568617"><ele>589.0</ele><time>2026-04-21T14:22:55.293Z</time></trkpt><trkpt lat="39.4587383" lon="8.5567683"><ele>589.6666666666666</ele><time>2026-04-21T14:22:56.292Z</time></trkpt><trkpt lat="39.458735" lon="8.5566717"><ele>590.3333333333334</ele><time>2026-04-21T14:22:57.292Z</time></trkpt><trkpt lat="39.4587133" lon="8.55657"><ele>591.0</ele><time>2026-04-21T14:22:58.293Z</time></trkpt><trkpt lat="39.458675" lon="8.5564733"><ele>591.0</ele><time>2026-04-21T14:22:59.292Z</time></trkpt><trkpt lat="39.45864" lon="8.5563867"><ele>591.0</ele><time>2026-04-21T14:23:00.293Z</time></trkpt><trkpt lat="39.4586133" lon="8.5563083"><ele>591.0</ele><time>2026-04-21T14:23:01.293Z</time></trkpt><trkpt lat="39.45864" lon="8.5561767"><ele>591.0</ele><time>2026-04-21T14:23:03.292Z</time></trkpt><trkpt lat="39.4586867" lon="8.5561217"><ele>591.0</ele><time>2026-04-21T14:23:04.292Z</time></trkpt><trkpt lat="39.45875" lon="8.5559917"><ele>591.0</ele><time>2026-04-21T14:23:06.293Z</time></trkpt><trkpt lat="39.4587783" lon="8.5558717"><ele>590.8</ele><time>2026-04-21T14:23:08.292Z</time></trkpt><trkpt lat="39.45885" lon="8.5558333"><ele>590.6</ele><time>2026-04-21T14:23:11.293Z</time></trkpt><trkpt lat="39.458945" lon="8.5558867"><ele>590.4</ele><time>2026-04-21T14:23:13.292Z</time></trkpt><trkpt lat="39.45903" lon="8.55596"><ele>590.2</ele><time>2026-04-21T14:23:15.292Z</time></trkpt><trkpt lat="39.459115" lon="8.5559083"><ele>590.0</ele><time>2026-04-21T14:23:17.292Z</time></trkpt><trkpt lat="39.4591617" lon="8.5557567"><ele>590.0000000000001</ele><time>2026-04-21T14:23:19.292Z</time></trkpt><trkpt lat="39.45916" lon="8.5556717"><ele>590.0</ele><time>2026-04-21T14:23:20.292Z</time></trkpt><trkpt lat="39.4591417" lon="8.5555867"><ele>590.0</ele><time>2026-04-21T14:23:21.293Z</time></trkpt><trkpt lat="39.4591217" lon="8.5554933"><ele>590.0</ele><time>2026-04-21T14:23:22.292Z</time></trkpt><trkpt lat="39.4590983" lon="8.5553967"><ele>590.0</ele><time>2026-04-21T14:23:23.292Z</time></trkpt><trkpt lat="39.4590817" lon="8.5553017"><ele>590.0000000000001</ele><time>2026-04-21T14:23:24.293Z</time></trkpt><trkpt lat="39.4590767" lon="8.5552"><ele>590.0</ele><time>2026-04-21T14:23:25.293Z</time></trkpt><trkpt lat="39.4590783" lon="8.5550917"><ele>591.5</ele><time>2026-04-21T14:23:26.293Z</time></trkpt><trkpt lat="39.4590867" lon="8.5549733"><ele>593.0</ele><time>2026-04-21T14:23:27.292Z</time></trkpt><trkpt lat="39.4590933" lon="8.5548817"><ele>594.5</ele><time>2026-04-21T14:23:28.293Z</time></trkpt><trkpt lat="39.45909" lon="8.5547917"><ele>596.0</ele><time>2026-04-21T14:23:29.293Z</time></trkpt><trkpt lat="39.4590667" lon="8.5546983"><ele>597.5</ele><time>2026-04-21T14:23:30.293Z</time></trkpt><trkpt lat="39.4590317" lon="8.5546017"><ele>599.0</ele><time>2026-04-21T14:23:31.293Z</time></trkpt><trkpt lat="39.4589883" lon="8.5545083"><ele>599.3333333333333</ele><time>2026-04-21T14:23:32.292Z</time></trkpt><trkpt lat="39.4589533" lon="8.55443"><ele>599.6666666666666</ele><time>2026-04-21T14:23:33.292Z</time></trkpt><trkpt lat="39.4589183" lon="8.55429"><ele>600.0</ele><time>2026-04-21T14:23:35.293Z</time></trkpt><trkpt lat="39.458915" lon="8.5542067"><ele>600.3333333333334</ele><time>2026-04-21T14:23:36.293Z</time></trkpt><trkpt lat="39.4589233" lon="8.5541183"><ele>600.6666666666667</ele><time>2026-04-21T14:23:37.292Z</time></trkpt><trkpt lat="39.458935" lon="8.5540267"><ele>601.0</ele><time>2026-04-21T14:23:38.293Z</time></trkpt><trkpt lat="39.4589433" lon="8.5539367"><ele>601.0</ele><time>2026-04-21T14:23:39.293Z</time></trkpt><trkpt lat="39.4589333" lon="8.5537733"><ele>601.0</ele><time>2026-04-21T14:23:41.293Z</time></trkpt><trkpt lat="39.4589267" lon="8.55369"><ele>601.0</ele><time>2026-04-21T14:23:42.293Z</time></trkpt><trkpt lat="39.4589183" lon="8.5536017"><ele>601.0</ele><time>2026-04-21T14:23:43.292Z</time></trkpt><trkpt lat="39.458915" lon="8.5535167"><ele>601.0</ele><time>2026-04-21T14:23:44.292Z</time></trkpt><trkpt lat="39.458895" lon="8.55338"><ele>601.0</ele><time>2026-04-21T14:23:46.292Z</time></trkpt><trkpt lat="39.458845" lon="8.5532683"><ele>601.0</ele><time>2026-04-21T14:23:48.292Z</time></trkpt><trkpt lat="39.4587967" lon="8.5531733"><ele>601.0</ele><time>2026-04-21T14:23:50.292Z</time></trkpt><trkpt lat="39.4587483" lon="8.5530683"><ele>601.0</ele><time>2026-04-21T14:23:52.292Z</time></trkpt><trkpt lat="39.4587017" lon="8.5529233"><ele>601.0</ele><time>2026-04-21T14:23:54.293Z</time></trkpt><trkpt lat="39.45868" lon="8.5528467"><ele>601.0</ele><time>2026-04-21T14:23:55.293Z</time></trkpt><trkpt lat="39.4586483" lon="8.5526933"><ele>601.0</ele><time>2026-04-21T14:23:57.293Z</time></trkpt><trkpt lat="39.4585983" lon="8.552535"><ele>601.0</ele><time>2026-04-21T14:23:59.292Z</time></trkpt><trkpt lat="39.4585667" lon="8.5524567"><ele>601.0</ele><time>2026-04-21T14:24:00.292Z</time></trkpt><trkpt lat="39.458535" lon="8.5523767"><ele>601.0</ele><time>2026-04-21T14:24:01.292Z</time></trkpt><trkpt lat="39.4585017" lon="8.5522933"><ele>601.0</ele><time>2026-04-21T14:24:02.293Z</time></trkpt><trkpt lat="39.458465" lon="8.5522083"><ele>601.0</ele><time>2026-04-21T14:24:03.292Z</time></trkpt><trkpt lat="39.458435" lon="8.5521233"><ele>601.0</ele><time>2026-04-21T14:24:04.292Z</time></trkpt><trkpt lat="39.4584067" lon="8.5520467"><ele>601.0</ele><time>2026-04-21T14:24:05.292Z</time></trkpt><trkpt lat="39.4583533" lon="8.551935"><ele>601.0</ele><time>2026-04-21T14:24:07.292Z</time></trkpt><trkpt lat="39.4583483" lon="8.5518333"><ele>601.0</ele><time>2026-04-21T14:24:09.292Z</time></trkpt><trkpt lat="39.4583967" lon="8.5517567"><ele>601.0</ele><time>2026-04-21T14:24:11.292Z</time></trkpt><trkpt lat="39.4584883" lon="8.5516583"><ele>601.0</ele><time>2026-04-21T14:24:13.293Z</time></trkpt><trkpt lat="39.4585417" lon="8.5515983"><ele>600.1666666666667</ele><time>2026-04-21T14:24:14.293Z</time></trkpt><trkpt lat="39.4586" lon="8.551535"><ele>599.3333333333334</ele><time>2026-04-21T14:24:15.293Z</time></trkpt><trkpt lat="39.4586617" lon="8.5514683"><ele>598.5</ele><time>2026-04-21T14:24:16.293Z</time></trkpt><trkpt lat="39.4587217" lon="8.5514"><ele>597.6666666666666</ele><time>2026-04-21T14:24:17.292Z</time></trkpt><trkpt lat="39.4587717" lon="8.551335"><ele>596.8333333333333</ele><time>2026-04-21T14:24:18.292Z</time></trkpt><trkpt lat="39.4588183" lon="8.551275"><ele>596.0</ele><time>2026-04-21T14:24:19.292Z</time></trkpt><trkpt lat="39.4589133" lon="8.5511717"><ele>595.5</ele><time>2026-04-21T14:24:21.292Z</time></trkpt><trkpt lat="39.4589717" lon="8.55113"><ele>595.0</ele><time>2026-04-21T14:24:22.293Z</time></trkpt><trkpt lat="39.4590467" lon="8.5510667"><ele>594.5</ele><time>2026-04-21T14:24:24.292Z</time></trkpt><trkpt lat="39.4591283" lon="8.5510367"><ele>594.0</ele><time>2026-04-21T14:24:26.293Z</time></trkpt><trkpt lat="39.45921" lon="8.550985"><ele>593.5</ele><time>2026-04-21T14:24:28.293Z</time></trkpt><trkpt lat="39.4592433" lon="8.5508533"><ele>593.0</ele><time>2026-04-21T14:24:30.292Z</time></trkpt><trkpt lat="39.4592467" lon="8.5506983"><ele>593.0</ele><time>2026-04-21T14:24:32.292Z</time></trkpt><trkpt lat="39.4592467" lon="8.5506133"><ele>593.0</ele><time>2026-04-21T14:24:33.292Z</time></trkpt><trkpt lat="39.4592483" lon="8.5505317"><ele>593.0</ele><time>2026-04-21T14:24:34.293Z</time></trkpt><trkpt lat="39.45923" lon="8.5504117"><ele>593.0</ele><time>2026-04-21T14:24:36.293Z</time></trkpt><trkpt lat="39.4591833" lon="8.5502967"><ele>593.0</ele><time>2026-04-21T14:24:38.293Z</time></trkpt><trkpt lat="39.4591983" lon="8.55016"><ele>593.0</ele><time>2026-04-21T14:24:40.292Z</time></trkpt><trkpt lat="39.459255" lon="8.5500233"><ele>594.0</ele><time>2026-04-21T14:24:42.293Z</time></trkpt><trkpt lat="39.459325" lon="8.5499"><ele>595.0</ele><time>2026-04-21T14:24:44.293Z</time></trkpt><trkpt lat="39.459375" lon="8.549775"><ele>596.0</ele><time>2026-04-21T14:24:46.292Z</time></trkpt><trkpt lat="39.4593967" lon="8.5496367"><ele>597.0</ele><time>2026-04-21T14:24:48.293Z</time></trkpt><trkpt lat="39.4594033" lon="8.5495133"><ele>598.0</ele><time>2026-04-21T14:24:50.293Z</time></trkpt><trkpt lat="39.45941" lon="8.5493783"><ele>598.8333333333334</ele><time>2026-04-21T14:24:52.292Z</time></trkpt><trkpt lat="39.4594183" lon="8.5492267"><ele>599.6666666666667</ele><time>2026-04-21T14:24:54.293Z</time></trkpt><trkpt lat="39.4594167" lon="8.54912"><ele>600.5</ele><time>2026-04-21T14:24:56.292Z</time></trkpt><trkpt lat="39.4594517" lon="8.5490217"><ele>601.3333333333334</ele><time>2026-04-21T14:24:59.293Z</time></trkpt><trkpt lat="39.4595217" lon="8.549025"><ele>602.1666666666666</ele><time>2026-04-21T14:25:01.293Z</time></trkpt><trkpt lat="39.4595867" lon="8.54911"><ele>603.0</ele><time>2026-04-21T14:25:03.293Z</time></trkpt><trkpt lat="39.45965" lon="8.549165"><ele>603.0</ele><time>2026-04-21T14:25:05.292Z</time></trkpt><trkpt lat="39.4597117" lon="8.5490917"><ele>603.0</ele><time>2026-04-21T14:25:07.292Z</time></trkpt><trkpt lat="39.4597333" lon="8.5489517"><ele>603.0</ele><time>2026-04-21T14:25:09.292Z</time></trkpt><trkpt lat="39.4597217" lon="8.548855"><ele>603.0</ele><time>2026-04-21T14:25:10.293Z</time></trkpt><trkpt lat="39.45971" lon="8.548745"><ele>603.0</ele><time>2026-04-21T14:25:11.292Z</time></trkpt><trkpt lat="39.4596983" lon="8.5486217"><ele>604.5</ele><time>2026-04-21T14:25:12.292Z</time></trkpt><trkpt lat="39.45969" lon="8.5484967"><ele>606.0</ele><time>2026-04-21T14:25:13.292Z</time></trkpt><trkpt lat="39.4596767" lon="8.54839"><ele>607.5</ele><time>2026-04-21T14:25:14.292Z</time></trkpt><trkpt lat="39.45965" lon="8.5483"><ele>609.0</ele><time>2026-04-21T14:25:15.293Z</time></trkpt><trkpt lat="39.4596183" lon="8.548225"><ele>610.5</ele><time>2026-04-21T14:25:16.293Z</time></trkpt><trkpt lat="39.4595567" lon="8.5481067"><ele>612.0</ele><time>2026-04-21T14:25:18.292Z</time></trkpt><trkpt lat="39.4594717" lon="8.5480417"><ele>613.5</ele><time>2026-04-21T14:25:20.293Z</time></trkpt><trkpt lat="39.45938" lon="8.547985"><ele>615.0</ele><time>2026-04-21T14:25:22.292Z</time></trkpt><trkpt lat="39.4593117" lon="8.547895"><ele>616.5</ele><time>2026-04-21T14:25:24.293Z</time></trkpt><trkpt lat="39.4592783" lon="8.5477667"><ele>618.0</ele><time>2026-04-21T14:25:26.293Z</time></trkpt><trkpt lat="39.4592667" lon="8.5476833"><ele>619.5</ele><time>2026-04-21T14:25:27.293Z</time></trkpt><trkpt lat="39.4592717" lon="8.5475833"><ele>621.0</ele><time>2026-04-21T14:25:28.292Z</time></trkpt><trkpt lat="39.4592883" lon="8.5474917"><ele>621.6</ele><time>2026-04-21T14:25:29.293Z</time></trkpt><trkpt lat="39.4593017" lon="8.54741"><ele>622.2</ele><time>2026-04-21T14:25:30.292Z</time></trkpt><trkpt lat="39.45933" lon="8.5472783"><ele>622.8</ele><time>2026-04-21T14:25:32.292Z</time></trkpt><trkpt lat="39.4593283" lon="8.54717"><ele>623.4</ele><time>2026-04-21T14:25:34.292Z</time></trkpt><trkpt lat="39.4592883" lon="8.5470533"><ele>624.0</ele><time>2026-04-21T14:25:36.292Z</time></trkpt><trkpt lat="39.4592383" lon="8.54693"><ele>624.0</ele><time>2026-04-21T14:25:38.293Z</time></trkpt><trkpt lat="39.459185" lon="8.546815"><ele>624.0</ele><time>2026-04-21T14:25:40.292Z</time></trkpt><trkpt lat="39.459125" lon="8.5466783"><ele>624.0</ele><time>2026-04-21T14:25:42.293Z</time></trkpt><trkpt lat="39.4590967" lon="8.54656"><ele>624.0</ele><time>2026-04-21T14:25:44.292Z</time></trkpt><trkpt lat="39.4591183" lon="8.5464467"><ele>624.0</ele><time>2026-04-21T14:25:46.292Z</time></trkpt><trkpt lat="39.4591883" lon="8.5463583"><ele>624.0</ele><time>2026-04-21T14:25:48.292Z</time></trkpt><trkpt lat="39.459235" lon="8.5462333"><ele>624.0</ele><time>2026-04-21T14:25:50.293Z</time></trkpt><trkpt lat="39.4592333" lon="8.54606"><ele>624.0</ele><time>2026-04-21T14:25:52.293Z</time></trkpt><trkpt lat="39.4592267" lon="8.545945"><ele>624.0</ele><time>2026-04-21T14:25:53.293Z</time></trkpt><trkpt lat="39.459225" lon="8.5458283"><ele>624.0</ele><time>2026-04-21T14:25:54.292Z</time></trkpt><trkpt lat="39.4592083" lon="8.5457133"><ele>623.4</ele><time>2026-04-21T14:25:55.293Z</time></trkpt><trkpt lat="39.4591717" lon="8.5455833"><ele>622.8</ele><time>2026-04-21T14:25:56.292Z</time></trkpt><trkpt lat="39.45913" lon="8.5454517"><ele>622.2</ele><time>2026-04-21T14:25:57.293Z</time></trkpt><trkpt lat="39.4590933" lon="8.5453433"><ele>621.6</ele><time>2026-04-21T14:25:58.292Z</time></trkpt><trkpt lat="39.4590633" lon="8.5452483"><ele>621.0</ele><time>2026-04-21T14:25:59.292Z</time></trkpt><trkpt lat="39.4590433" lon="8.545165"><ele>621.0</ele><time>2026-04-21T14:26:00.293Z</time></trkpt><trkpt lat="39.45905" lon="8.5450783"><ele>621.0</ele><time>2026-04-21T14:26:01.292Z</time></trkpt><trkpt lat="39.459075" lon="8.54497"><ele>621.0</ele><time>2026-04-21T14:26:02.293Z</time></trkpt><trkpt lat="39.4591067" lon="8.54487"><ele>621.0</ele><time>2026-04-21T14:26:03.292Z</time></trkpt><trkpt lat="39.4591567" lon="8.5447783"><ele>621.0</ele><time>2026-04-21T14:26:04.293Z</time></trkpt><trkpt lat="39.4592067" lon="8.5447067"><ele>621.0</ele><time>2026-04-21T14:26:05.293Z</time></trkpt><trkpt lat="39.4592617" lon="8.5446433"><ele>621.0</ele><time>2026-04-21T14:26:06.292Z</time></trkpt><trkpt lat="39.4593267" lon="8.54458"><ele>621.0</ele><time>2026-04-21T14:26:07.293Z</time></trkpt><trkpt lat="39.459395" lon="8.5445267"><ele>621.0</ele><time>2026-04-21T14:26:08.293Z</time></trkpt><trkpt lat="39.459455" lon="8.544475"><ele>621.0</ele><time>2026-04-21T14:26:09.293Z</time></trkpt><trkpt lat="39.4595117" lon="8.5444117"><ele>621.0</ele><time>2026-04-21T14:26:10.292Z</time></trkpt><trkpt lat="39.4595683" lon="8.544345"><ele>621.0</ele><time>2026-04-21T14:26:11.293Z</time></trkpt><trkpt lat="39.4596217" lon="8.5442717"><ele>623.3333333333334</ele><time>2026-04-21T14:26:12.292Z</time></trkpt><trkpt lat="39.4596767" lon="8.544195"><ele>625.6666666666666</ele><time>2026-04-21T14:26:13.293Z</time></trkpt><trkpt lat="39.45973" lon="8.5441"><ele>628.0</ele><time>2026-04-21T14:26:14.293Z</time></trkpt><trkpt lat="39.4597867" lon="8.5440117"><ele>630.3333333333333</ele><time>2026-04-21T14:26:15.293Z</time></trkpt><trkpt lat="39.45983" lon="8.5439067"><ele>632.6666666666666</ele><time>2026-04-21T14:26:16.293Z</time></trkpt><trkpt lat="39.45987" lon="8.5437933"><ele>635.0</ele><time>2026-04-21T14:26:17.292Z</time></trkpt><trkpt lat="39.4599017" lon="8.5436933"><ele>635.6666666666666</ele><time>2026-04-21T14:26:18.292Z</time></trkpt><trkpt lat="39.4599333" lon="8.5436083"><ele>636.3333333333333</ele><time>2026-04-21T14:26:19.292Z</time></trkpt><trkpt lat="39.4599733" lon="8.54354"><ele>637.0</ele><time>2026-04-21T14:26:20.292Z</time></trkpt><trkpt lat="39.46003" lon="8.54349"><ele>637.6666666666666</ele><time>2026-04-21T14:26:21.292Z</time></trkpt><trkpt lat="39.4601" lon="8.5434567"><ele>638.3333333333334</ele><time>2026-04-21T14:26:22.293Z</time></trkpt><trkpt lat="39.460185" lon="8.5434517"><ele>639.0</ele><time>2026-04-21T14:26:23.292Z</time></trkpt><trkpt lat="39.4602767" lon="8.5434533"><ele>639.0000000000001</ele><time>2026-04-21T14:26:24.293Z</time></trkpt><trkpt lat="39.460355" lon="8.5434583"><ele>639.0</ele><time>2026-04-21T14:26:25.293Z</time></trkpt><trkpt lat="39.4604267" lon="8.5434517"><ele>639.0</ele><time>2026-04-21T14:26:26.292Z</time></trkpt><trkpt lat="39.4604967" lon="8.5434533"><ele>639.0</ele><time>2026-04-21T14:26:27.293Z</time></trkpt><trkpt lat="39.46056" lon="8.54345"><ele>639.0</ele><time>2026-04-21T14:26:28.292Z</time></trkpt><trkpt lat="39.4606283" lon="8.543455"><ele>639.0000000000001</ele><time>2026-04-21T14:26:29.293Z</time></trkpt><trkpt lat="39.4606917" lon="8.543465"><ele>639.0</ele><time>2026-04-21T14:26:30.292Z</time></trkpt><trkpt lat="39.4608083" lon="8.5434783"><ele>638.1666666666666</ele><time>2026-04-21T14:26:32.293Z</time></trkpt><trkpt lat="39.460935" lon="8.5434483"><ele>637.3333333333334</ele><time>2026-04-21T14:26:34.292Z</time></trkpt><trkpt lat="39.4610017" lon="8.543415"><ele>636.5</ele><time>2026-04-21T14:26:35.292Z</time></trkpt><trkpt lat="39.4610733" lon="8.5433767"><ele>635.6666666666667</ele><time>2026-04-21T14:26:36.293Z</time></trkpt><trkpt lat="39.4611417" lon="8.5433333"><ele>634.8333333333334</ele><time>2026-04-21T14:26:37.292Z</time></trkpt><trkpt lat="39.461205" lon="8.543295"><ele>634.0</ele><time>2026-04-21T14:26:38.292Z</time></trkpt><trkpt lat="39.4612683" lon="8.5432667"><ele>633.4</ele><time>2026-04-21T14:26:39.293Z</time></trkpt><trkpt lat="39.4613217" lon="8.54322"><ele>632.8</ele><time>2026-04-21T14:26:40.293Z</time></trkpt><trkpt lat="39.4614" lon="8.5431133"><ele>632.2</ele><time>2026-04-21T14:26:42.292Z</time></trkpt><trkpt lat="39.4614683" lon="8.5429883"><ele>631.6</ele><time>2026-04-21T14:26:44.293Z</time></trkpt><trkpt lat="39.4615" lon="8.5428533"><ele>631.0</ele><time>2026-04-21T14:26:46.293Z</time></trkpt><trkpt lat="39.4615117" lon="8.542725"><ele>629.6666666666667</ele><time>2026-04-21T14:26:48.292Z</time></trkpt><trkpt lat="39.4614983" lon="8.5425883"><ele>628.3333333333334</ele><time>2026-04-21T14:26:50.293Z</time></trkpt><trkpt lat="39.461485" lon="8.5424767"><ele>627.0</ele><time>2026-04-21T14:26:52.292Z</time></trkpt><trkpt lat="39.4614767" lon="8.5423833"><ele>625.6666666666666</ele><time>2026-04-21T14:26:54.292Z</time></trkpt><trkpt lat="39.4614917" lon="8.542275"><ele>624.3333333333333</ele><time>2026-04-21T14:26:56.292Z</time></trkpt><trkpt lat="39.4614983" lon="8.5421683"><ele>623.0</ele><time>2026-04-21T14:26:58.292Z</time></trkpt><trkpt lat="39.4614933" lon="8.5420517"><ele>620.8</ele><time>2026-04-21T14:27:00.293Z</time></trkpt><trkpt lat="39.46151" lon="8.5419167"><ele>618.5999999999999</ele><time>2026-04-21T14:27:02.293Z</time></trkpt><trkpt lat="39.4615067" lon="8.541795"><ele>616.4000000000001</ele><time>2026-04-21T14:27:04.293Z</time></trkpt><trkpt lat="39.4614967" lon="8.541625"><ele>614.2</ele><time>2026-04-21T14:27:06.292Z</time></trkpt><trkpt lat="39.4615" lon="8.5415383"><ele>612.0</ele><time>2026-04-21T14:27:07.293Z</time></trkpt><trkpt lat="39.461495" lon="8.5413833"><ele>612.0</ele><time>2026-04-21T14:27:09.292Z</time></trkpt><trkpt lat="39.4614517" lon="8.541235"><ele>612.0</ele><time>2026-04-21T14:27:11.293Z</time></trkpt><trkpt lat="39.461425" lon="8.5411467"><ele>612.0</ele><time>2026-04-21T14:27:12.293Z</time></trkpt><trkpt lat="39.4614" lon="8.5410667"><ele>612.0</ele><time>2026-04-21T14:27:13.292Z</time></trkpt><trkpt lat="39.4613533" lon="8.540925"><ele>612.0</ele><time>2026-04-21T14:27:15.293Z</time></trkpt><trkpt lat="39.4613133" lon="8.5407783"><ele>609.2</ele><time>2026-04-21T14:27:17.293Z</time></trkpt><trkpt lat="39.46127" lon="8.54064"><ele>606.4000000000001</ele><time>2026-04-21T14:27:19.293Z</time></trkpt><trkpt lat="39.4612017" lon="8.5405333"><ele>603.5999999999999</ele><time>2026-04-21T14:27:21.293Z</time></trkpt><trkpt lat="39.461115" lon="8.5404583"><ele>600.8</ele><time>2026-04-21T14:27:23.293Z</time></trkpt><trkpt lat="39.4610317" lon="8.5404167"><ele>598.0</ele><time>2026-04-21T14:27:25.293Z</time></trkpt><trkpt lat="39.460965" lon="8.5403617"><ele>596.1666666666667</ele><time>2026-04-21T14:27:28.293Z</time></trkpt><trkpt lat="39.46092" lon="8.5402867"><ele>594.3333333333334</ele><time>2026-04-21T14:27:32.293Z</time></trkpt><trkpt lat="39.460885" lon="8.5402133"><ele>592.5</ele><time>2026-04-21T14:27:34.293Z</time></trkpt><trkpt lat="39.4608317" lon="8.5400867"><ele>590.6666666666666</ele><time>2026-04-21T14:27:36.293Z</time></trkpt><trkpt lat="39.4607967" lon="8.54001"><ele>588.8333333333333</ele><time>2026-04-21T14:27:37.292Z</time></trkpt><trkpt lat="39.46076" lon="8.5399333"><ele>587.0</ele><time>2026-04-21T14:27:38.293Z</time></trkpt><trkpt lat="39.460725" lon="8.5398533"><ele>587.0</ele><time>2026-04-21T14:27:39.293Z</time></trkpt><trkpt lat="39.4606833" lon="8.5397717"><ele>587.0</ele><time>2026-04-21T14:27:40.292Z</time></trkpt><trkpt lat="39.4606317" lon="8.5396917"><ele>587.0</ele><time>2026-04-21T14:27:41.293Z</time></trkpt><trkpt lat="39.460585" lon="8.5396017"><ele>587.0</ele><time>2026-04-21T14:27:42.293Z</time></trkpt><trkpt lat="39.460545" lon="8.5395217"><ele>587.0</ele><time>2026-04-21T14:27:43.293Z</time></trkpt><trkpt lat="39.460505" lon="8.53944"><ele>587.0</ele><time>2026-04-21T14:27:44.293Z</time></trkpt><trkpt lat="39.4604583" lon="8.5393483"><ele>587.0</ele><time>2026-04-21T14:27:45.293Z</time></trkpt><trkpt lat="39.460405" lon="8.5392417"><ele>587.0</ele><time>2026-04-21T14:27:46.293Z</time></trkpt><trkpt lat="39.46035" lon="8.5391433"><ele>587.0</ele><time>2026-04-21T14:27:47.293Z</time></trkpt><trkpt lat="39.460305" lon="8.5390483"><ele>587.0</ele><time>2026-04-21T14:27:48.293Z</time></trkpt><trkpt lat="39.4602717" lon="8.53896"><ele>587.0</ele><time>2026-04-21T14:27:49.292Z</time></trkpt><trkpt lat="39.4602517" lon="8.5388667"><ele>587.0</ele><time>2026-04-21T14:27:50.292Z</time></trkpt><trkpt lat="39.4602483" lon="8.5387733"><ele>585.5</ele><time>2026-04-21T14:27:51.293Z</time></trkpt><trkpt lat="39.460255" lon="8.5386783"><ele>584.0</ele><time>2026-04-21T14:27:52.293Z</time></trkpt><trkpt lat="39.4602517" lon="8.53858"><ele>582.5</ele><time>2026-04-21T14:27:53.293Z</time></trkpt><trkpt lat="39.4602467" lon="8.538475"><ele>581.0</ele><time>2026-04-21T14:27:54.292Z</time></trkpt><trkpt lat="39.4602367" lon="8.5383733"><ele>579.5</ele><time>2026-04-21T14:27:55.293Z</time></trkpt><trkpt lat="39.4602267" lon="8.5382733"><ele>578.0</ele><time>2026-04-21T14:27:56.292Z</time></trkpt><trkpt lat="39.460225" lon="8.5381733"><ele>578.0</ele><time>2026-04-21T14:27:57.292Z</time></trkpt><trkpt lat="39.460235" lon="8.538075"><ele>578.0</ele><time>2026-04-21T14:27:58.292Z</time></trkpt><trkpt lat="39.460245" lon="8.5379783"><ele>578.0</ele><time>2026-04-21T14:27:59.292Z</time></trkpt><trkpt lat="39.4602533" lon="8.5378833"><ele>578.0</ele><time>2026-04-21T14:28:00.293Z</time></trkpt><trkpt lat="39.460275" lon="8.53779"><ele>578.0</ele><time>2026-04-21T14:28:01.292Z</time></trkpt><trkpt lat="39.4602967" lon="8.5376967"><ele>578.0</ele><time>2026-04-21T14:28:02.293Z</time></trkpt><trkpt lat="39.4603267" lon="8.537605"><ele>576.1666666666666</ele><time>2026-04-21T14:28:03.293Z</time></trkpt><trkpt lat="39.460365" lon="8.537515"><ele>574.3333333333333</ele><time>2026-04-21T14:28:04.293Z</time></trkpt><trkpt lat="39.4604067" lon="8.5374317"><ele>572.5</ele><time>2026-04-21T14:28:05.292Z</time></trkpt><trkpt lat="39.4604417" lon="8.5373433"><ele>570.6666666666666</ele><time>2026-04-21T14:28:06.292Z</time></trkpt><trkpt lat="39.46047" lon="8.53725"><ele>568.8333333333334</ele><time>2026-04-21T14:28:07.292Z</time></trkpt><trkpt lat="39.4605" lon="8.5371517"><ele>567.0</ele><time>2026-04-21T14:28:08.292Z</time></trkpt><trkpt lat="39.4605167" lon="8.537055"><ele>564.4</ele><time>2026-04-21T14:28:09.293Z</time></trkpt><trkpt lat="39.4605417" lon="8.536975"><ele>561.8000000000001</ele><time>2026-04-21T14:28:10.293Z</time></trkpt><trkpt lat="39.460565" lon="8.5368317"><ele>559.2</ele><time>2026-04-21T14:28:12.292Z</time></trkpt><trkpt lat="39.4605283" lon="8.5367233"><ele>556.6</ele><time>2026-04-21T14:28:14.292Z</time></trkpt><trkpt lat="39.4604383" lon="8.5366333"><ele>554.0</ele><time>2026-04-21T14:28:16.292Z</time></trkpt><trkpt lat="39.4603167" lon="8.5365917"><ele>553.6666666666666</ele><time>2026-04-21T14:28:18.292Z</time></trkpt><trkpt lat="39.4602433" lon="8.536585"><ele>553.3333333333333</ele><time>2026-04-21T14:28:19.292Z</time></trkpt><trkpt lat="39.4601667" lon="8.5365883"><ele>553.0</ele><time>2026-04-21T14:28:20.293Z</time></trkpt><trkpt lat="39.46009" lon="8.5365867"><ele>552.6666666666666</ele><time>2026-04-21T14:28:21.293Z</time></trkpt><trkpt lat="39.4600133" lon="8.5365733"><ele>552.3333333333334</ele><time>2026-04-21T14:28:22.293Z</time></trkpt><trkpt lat="39.4599283" lon="8.5365433"><ele>552.0</ele><time>2026-04-21T14:28:23.293Z</time></trkpt><trkpt lat="39.4598467" lon="8.5365083"><ele>552.0</ele><time>2026-04-21T14:28:24.293Z</time></trkpt><trkpt lat="39.45977" lon="8.536475"><ele>552.0</ele><time>2026-04-21T14:28:25.293Z</time></trkpt><trkpt lat="39.4597067" lon="8.5364567"><ele>552.0</ele><time>2026-04-21T14:28:26.293Z</time></trkpt><trkpt lat="39.4596433" lon="8.5364467"><ele>552.0</ele><time>2026-04-21T14:28:27.292Z</time></trkpt><trkpt lat="39.4595133" lon="8.5364567"><ele>552.0</ele><time>2026-04-21T14:28:29.292Z</time></trkpt><trkpt lat="39.4594033" lon="8.5364933"><ele>551.2</ele><time>2026-04-21T14:28:31.293Z</time></trkpt><trkpt lat="39.4592917" lon="8.53657"><ele>550.4000000000001</ele><time>2026-04-21T14:28:33.293Z</time></trkpt><trkpt lat="39.45923" lon="8.5366167"><ele>549.5999999999999</ele><time>2026-04-21T14:28:34.293Z</time></trkpt><trkpt lat="39.45916" lon="8.53664"><ele>548.8</ele><time>2026-04-21T14:28:35.293Z</time></trkpt><trkpt lat="39.45907" lon="8.5366333"><ele>548.0</ele><time>2026-04-21T14:28:36.293Z</time></trkpt><trkpt lat="39.45897" lon="8.5366"><ele>548.0</ele><time>2026-04-21T14:28:37.293Z</time></trkpt><trkpt lat="39.45887" lon="8.5365617"><ele>548.0</ele><time>2026-04-21T14:28:38.293Z</time></trkpt><trkpt lat="39.4587833" lon="8.53653"><ele>548.0</ele><time>2026-04-21T14:28:39.292Z</time></trkpt><trkpt lat="39.4586967" lon="8.5364967"><ele>548.0</ele><time>2026-04-21T14:28:40.293Z</time></trkpt><trkpt lat="39.4586167" lon="8.5364667"><ele>548.0</ele><time>2026-04-21T14:28:41.293Z</time></trkpt><trkpt lat="39.4585417" lon="8.5364367"><ele>548.0</ele><time>2026-04-21T14:28:42.293Z</time></trkpt><trkpt lat="39.45847" lon="8.5364133"><ele>548.0000000000001</ele><time>2026-04-21T14:28:43.292Z</time></trkpt><trkpt lat="39.4584033" lon="8.53639"><ele>548.0</ele><time>2026-04-21T14:28:44.293Z</time></trkpt><trkpt lat="39.4583317" lon="8.5363717"><ele>548.0</ele><time>2026-04-21T14:28:45.293Z</time></trkpt><trkpt lat="39.45826" lon="8.5363517"><ele>548.0</ele><time>2026-04-21T14:28:46.293Z</time></trkpt><trkpt lat="39.45819" lon="8.5363333"><ele>548.0</ele><time>2026-04-21T14:28:47.293Z</time></trkpt><trkpt lat="39.4581217" lon="8.5363133"><ele>548.0000000000001</ele><time>2026-04-21T14:28:48.292Z</time></trkpt><trkpt lat="39.4580483" lon="8.536285"><ele>548.0</ele><time>2026-04-21T14:28:49.292Z</time></trkpt><trkpt lat="39.4579633" lon="8.53626"><ele>549.0</ele><time>2026-04-21T14:28:50.293Z</time></trkpt><trkpt lat="39.457885" lon="8.5362367"><ele>550.0</ele><time>2026-04-21T14:28:51.293Z</time></trkpt><trkpt lat="39.4578067" lon="8.5362083"><ele>551.0</ele><time>2026-04-21T14:28:52.292Z</time></trkpt><trkpt lat="39.4577417" lon="8.53616"><ele>552.0</ele><time>2026-04-21T14:28:53.293Z</time></trkpt><trkpt lat="39.4576867" lon="8.5360767"><ele>553.0</ele><time>2026-04-21T14:28:54.293Z</time></trkpt><trkpt lat="39.4576283" lon="8.535995"><ele>554.0</ele><time>2026-04-21T14:28:55.292Z</time></trkpt><trkpt lat="39.4575683" lon="8.53593"><ele>550.7142857142857</ele><time>2026-04-21T14:28:56.293Z</time></trkpt><trkpt lat="39.4575133" lon="8.5358617"><ele>547.4285714285713</ele><time>2026-04-21T14:28:57.293Z</time></trkpt><trkpt lat="39.45746" lon="8.535795"><ele>544.1428571428571</ele><time>2026-04-21T14:28:58.293Z</time></trkpt><trkpt lat="39.457415" lon="8.5357217"><ele>540.8571428571429</ele><time>2026-04-21T14:28:59.293Z</time></trkpt><trkpt lat="39.457375" lon="8.5356533"><ele>537.5714285714287</ele><time>2026-04-21T14:29:00.293Z</time></trkpt><trkpt lat="39.4573217" lon="8.5355783"><ele>534.2857142857143</ele><time>2026-04-21T14:29:01.293Z</time></trkpt><trkpt lat="39.4572683" lon="8.5355033"><ele>531.0</ele><time>2026-04-21T14:29:02.293Z</time></trkpt><trkpt lat="39.4572067" lon="8.535435"><ele>529.1666666666666</ele><time>2026-04-21T14:29:03.293Z</time></trkpt><trkpt lat="39.457135" lon="8.5353783"><ele>527.3333333333334</ele><time>2026-04-21T14:29:04.293Z</time></trkpt><trkpt lat="39.4570617" lon="8.53533"><ele>525.5</ele><time>2026-04-21T14:29:05.292Z</time></trkpt><trkpt lat="39.4569933" lon="8.5352767"><ele>523.6666666666667</ele><time>2026-04-21T14:29:06.292Z</time></trkpt><trkpt lat="39.4569267" lon="8.5352133"><ele>521.8333333333334</ele><time>2026-04-21T14:29:07.293Z</time></trkpt><trkpt lat="39.456865" lon="8.53516"><ele>520.0</ele><time>2026-04-21T14:29:08.292Z</time></trkpt><trkpt lat="39.45681" lon="8.535105"><ele>520.0</ele><time>2026-04-21T14:29:09.293Z</time></trkpt><trkpt lat="39.4567583" lon="8.5350533"><ele>520.0</ele><time>2026-04-21T14:29:10.292Z</time></trkpt><trkpt lat="39.4566733" lon="8.5349667"><ele>520.0</ele><time>2026-04-21T14:29:12.293Z</time></trkpt><trkpt lat="39.4565883" lon="8.5349583"><ele>520.0</ele><time>2026-04-21T14:29:14.293Z</time></trkpt><trkpt lat="39.4564867" lon="8.534995"><ele>520.0</ele><time>2026-04-21T14:29:16.292Z</time></trkpt><trkpt lat="39.4563767" lon="8.5350583"><ele>518.8</ele><time>2026-04-21T14:29:18.292Z</time></trkpt><trkpt lat="39.4562733" lon="8.5351217"><ele>517.6</ele><time>2026-04-21T14:29:20.293Z</time></trkpt><trkpt lat="39.4561667" lon="8.5351933"><ele>516.4</ele><time>2026-04-21T14:29:22.292Z</time></trkpt><trkpt lat="39.4560667" lon="8.5352817"><ele>515.2</ele><time>2026-04-21T14:29:24.293Z</time></trkpt><trkpt lat="39.4560117" lon="8.5353317"><ele>514.0</ele><time>2026-04-21T14:29:25.293Z</time></trkpt><trkpt lat="39.4559083" lon="8.5354167"><ele>514.0</ele><time>2026-04-21T14:29:27.293Z</time></trkpt><trkpt lat="39.4557933" lon="8.5354883"><ele>514.0</ele><time>2026-04-21T14:29:29.293Z</time></trkpt><trkpt lat="39.4557283" lon="8.5355067"><ele>514.0</ele><time>2026-04-21T14:29:30.293Z</time></trkpt><trkpt lat="39.4556117" lon="8.5355267"><ele>514.0</ele><time>2026-04-21T14:29:32.293Z</time></trkpt><trkpt lat="39.4554967" lon="8.5355367"><ele>514.0</ele><time>2026-04-21T14:29:34.293Z</time></trkpt><trkpt lat="39.455425" lon="8.53555"><ele>513.8333333333334</ele><time>2026-04-21T14:29:35.292Z</time></trkpt><trkpt lat="39.455345" lon="8.5355583"><ele>513.6666666666667</ele><time>2026-04-21T14:29:36.292Z</time></trkpt><trkpt lat="39.45527" lon="8.53557"><ele>513.5</ele><time>2026-04-21T14:29:37.292Z</time></trkpt><trkpt lat="39.4551983" lon="8.5355817"><ele>513.3333333333334</ele><time>2026-04-21T14:29:38.292Z</time></trkpt><trkpt lat="39.4550967" lon="8.5355733"><ele>513.1666666666666</ele><time>2026-04-21T14:29:40.293Z</time></trkpt><trkpt lat="39.4550417" lon="8.5354633"><ele>513.0</ele><time>2026-04-21T14:29:42.293Z</time></trkpt><trkpt lat="39.45503" lon="8.535375"><ele>513.0</ele><time>2026-04-21T14:29:43.293Z</time></trkpt><trkpt lat="39.4550183" lon="8.5352883"><ele>513.0</ele><time>2026-04-21T14:29:44.293Z</time></trkpt><trkpt lat="39.4549983" lon="8.535205"><ele>513.0</ele><time>2026-04-21T14:29:45.292Z</time></trkpt><trkpt lat="39.4549617" lon="8.53512"><ele>513.0</ele><time>2026-04-21T14:29:46.292Z</time></trkpt><trkpt lat="39.4549117" lon="8.53503"><ele>513.0</ele><time>2026-04-21T14:29:47.293Z</time></trkpt><trkpt lat="39.4548583" lon="8.5349433"><ele>513.0</ele><time>2026-04-21T14:29:48.293Z</time></trkpt><trkpt lat="39.4548083" lon="8.5348783"><ele>513.0</ele><time>2026-04-21T14:29:49.293Z</time></trkpt><trkpt lat="39.4547317" lon="8.534785"><ele>513.0</ele><time>2026-04-21T14:29:51.292Z</time></trkpt><trkpt lat="39.4546517" lon="8.5347583"><ele>513.0</ele><time>2026-04-21T14:29:53.292Z</time></trkpt><trkpt lat="39.4545867" lon="8.5347667"><ele>513.0</ele><time>2026-04-21T14:29:55.293Z</time></trkpt><trkpt lat="39.4545" lon="8.534805"><ele>513.0</ele><time>2026-04-21T14:29:58.293Z</time></trkpt><trkpt lat="39.454425" lon="8.534835"><ele>513.0</ele><time>2026-04-21T14:30:00.293Z</time></trkpt><trkpt lat="39.454355" lon="8.5348917"><ele>511.79999999999995</ele><time>2026-04-21T14:30:02.293Z</time></trkpt><trkpt lat="39.4542833" lon="8.534945"><ele>510.59999999999997</ele><time>2026-04-21T14:30:04.292Z</time></trkpt><trkpt lat="39.45419" lon="8.5350083"><ele>509.40000000000003</ele><time>2026-04-21T14:30:06.293Z</time></trkpt><trkpt lat="39.4540817" lon="8.5350733"><ele>508.20000000000005</ele><time>2026-04-21T14:30:08.292Z</time></trkpt><trkpt lat="39.4540183" lon="8.5351083"><ele>507.0</ele><time>2026-04-21T14:30:09.292Z</time></trkpt><trkpt lat="39.4539433" lon="8.5351417"><ele>507.0</ele><time>2026-04-21T14:30:10.292Z</time></trkpt><trkpt lat="39.4538783" lon="8.5351917"><ele>507.0</ele><time>2026-04-21T14:30:11.292Z</time></trkpt><trkpt lat="39.4538133" lon="8.5352317"><ele>507.0</ele><time>2026-04-21T14:30:12.293Z</time></trkpt><trkpt lat="39.45375" lon="8.5352633"><ele>507.0</ele><time>2026-04-21T14:30:13.292Z</time></trkpt><trkpt lat="39.4536467" lon="8.5353167"><ele>507.0</ele><time>2026-04-21T14:30:15.292Z</time></trkpt><trkpt lat="39.4535467" lon="8.535365"><ele>507.0</ele><time>2026-04-21T14:30:17.293Z</time></trkpt><trkpt lat="39.4534383" lon="8.53542"><ele>504.0</ele><time>2026-04-21T14:30:19.293Z</time></trkpt><trkpt lat="39.45338" lon="8.5354517"><ele>501.0</ele><time>2026-04-21T14:30:20.292Z</time></trkpt><trkpt lat="39.4533167" lon="8.5354833"><ele>498.0</ele><time>2026-04-21T14:30:21.293Z</time></trkpt><trkpt lat="39.453245" lon="8.535515"><ele>495.0</ele><time>2026-04-21T14:30:22.293Z</time></trkpt><trkpt lat="39.45317" lon="8.5355417"><ele>492.0</ele><time>2026-04-21T14:30:23.293Z</time></trkpt><trkpt lat="39.4531017" lon="8.5355817"><ele>489.0</ele><time>2026-04-21T14:30:24.293Z</time></trkpt><trkpt lat="39.4530267" lon="8.5356117"><ele>486.0</ele><time>2026-04-21T14:30:25.292Z</time></trkpt><trkpt lat="39.45295" lon="8.535645"><ele>482.4</ele><time>2026-04-21T14:30:26.293Z</time></trkpt><trkpt lat="39.4528717" lon="8.5356733"><ele>478.8</ele><time>2026-04-21T14:30:27.292Z</time></trkpt><trkpt lat="39.4527967" lon="8.53569"><ele>475.19999999999993</ele><time>2026-04-21T14:30:28.293Z</time></trkpt><trkpt lat="39.4527317" lon="8.535705"><ele>471.59999999999997</ele><time>2026-04-21T14:30:29.293Z</time></trkpt><trkpt lat="39.4526233" lon="8.5357283"><ele>468.0</ele><time>2026-04-21T14:30:31.292Z</time></trkpt><trkpt lat="39.4525067" lon="8.535765"><ele>468.0</ele><time>2026-04-21T14:30:33.293Z</time></trkpt><trkpt lat="39.4524433" lon="8.5357767"><ele>468.0</ele><time>2026-04-21T14:30:34.293Z</time></trkpt><trkpt lat="39.4523767" lon="8.5357817"><ele>468.0</ele><time>2026-04-21T14:30:35.293Z</time></trkpt><trkpt lat="39.4523117" lon="8.53579"><ele>468.0</ele><time>2026-04-21T14:30:36.291Z</time></trkpt><trkpt lat="39.452245" lon="8.5358067"><ele>468.0</ele><time>2026-04-21T14:30:37.292Z</time></trkpt><trkpt lat="39.4521833" lon="8.5358333"><ele>468.0</ele><time>2026-04-21T14:30:38.292Z</time></trkpt><trkpt lat="39.4520667" lon="8.535885"><ele>464.8333333333333</ele><time>2026-04-21T14:30:40.291Z</time></trkpt><trkpt lat="39.451945" lon="8.5359267"><ele>461.66666666666663</ele><time>2026-04-21T14:30:42.292Z</time></trkpt><trkpt lat="39.4518767" lon="8.5359367"><ele>458.5</ele><time>2026-04-21T14:30:43.292Z</time></trkpt><trkpt lat="39.4518083" lon="8.5359367"><ele>455.3333333333333</ele><time>2026-04-21T14:30:44.291Z</time></trkpt><trkpt lat="39.4517417" lon="8.5359333"><ele>452.16666666666663</ele><time>2026-04-21T14:30:45.292Z</time></trkpt><trkpt lat="39.4516233" lon="8.53592"><ele>449.0</ele><time>2026-04-21T14:30:47.292Z</time></trkpt><trkpt lat="39.4515217" lon="8.53593"><ele>449.0</ele><time>2026-04-21T14:30:49.292Z</time></trkpt><trkpt lat="39.4514167" lon="8.5359567"><ele>449.0</ele><time>2026-04-21T14:30:51.291Z</time></trkpt><trkpt lat="39.451325" lon="8.5360217"><ele>449.0</ele><time>2026-04-21T14:30:53.291Z</time></trkpt><trkpt lat="39.4512183" lon="8.5361033"><ele>449.0</ele><time>2026-04-21T14:30:55.292Z</time></trkpt><trkpt lat="39.45116" lon="8.53614"><ele>449.0</ele><time>2026-04-21T14:30:56.292Z</time></trkpt><trkpt lat="39.4511" lon="8.536175"><ele>445.2</ele><time>2026-04-21T14:30:57.291Z</time></trkpt><trkpt lat="39.4510333" lon="8.5361917"><ele>441.4</ele><time>2026-04-21T14:30:58.292Z</time></trkpt><trkpt lat="39.45097" lon="8.536205"><ele>437.6</ele><time>2026-04-21T14:30:59.291Z</time></trkpt><trkpt lat="39.4508517" lon="8.536215"><ele>433.8</ele><time>2026-04-21T14:31:01.292Z</time></trkpt><trkpt lat="39.450735" lon="8.53621"><ele>430.0</ele><time>2026-04-21T14:31:03.292Z</time></trkpt><trkpt lat="39.4506333" lon="8.5362033"><ele>431.0</ele><time>2026-04-21T14:31:05.291Z</time></trkpt><trkpt lat="39.450525" lon="8.5362217"><ele>432.0</ele><time>2026-04-21T14:31:07.291Z</time></trkpt><trkpt lat="39.45046" lon="8.53624"><ele>433.0</ele><time>2026-04-21T14:31:08.291Z</time></trkpt><trkpt lat="39.450395" lon="8.5362467"><ele>434.0</ele><time>2026-04-21T14:31:09.291Z</time></trkpt><trkpt lat="39.4502933" lon="8.5362867"><ele>435.0</ele><time>2026-04-21T14:31:11.291Z</time></trkpt><trkpt lat="39.4501733" lon="8.53633"><ele>430.6</ele><time>2026-04-21T14:31:13.292Z</time></trkpt><trkpt lat="39.4500417" lon="8.5363383"><ele>426.2</ele><time>2026-04-21T14:31:15.291Z</time></trkpt><trkpt lat="39.449975" lon="8.536365"><ele>421.79999999999995</ele><time>2026-04-21T14:31:16.292Z</time></trkpt><trkpt lat="39.4499033" lon="8.5364"><ele>417.4</ele><time>2026-04-21T14:31:17.292Z</time></trkpt><trkpt lat="39.4498117" lon="8.5364433"><ele>413.0</ele><time>2026-04-21T14:31:18.291Z</time></trkpt><trkpt lat="39.44973" lon="8.5364717"><ele>412.99999999999994</ele><time>2026-04-21T14:31:19.291Z</time></trkpt><trkpt lat="39.4496567" lon="8.53648"><ele>413.0</ele><time>2026-04-21T14:31:20.292Z</time></trkpt><trkpt lat="39.4495883" lon="8.5364833"><ele>413.0</ele><time>2026-04-21T14:31:21.291Z</time></trkpt><trkpt lat="39.449525" lon="8.5364617"><ele>413.0</ele><time>2026-04-21T14:31:22.291Z</time></trkpt><trkpt lat="39.44943" lon="8.536375"><ele>412.99999999999994</ele><time>2026-04-21T14:31:24.292Z</time></trkpt><trkpt lat="39.4493417" lon="8.5362683"><ele>413.0</ele><time>2026-04-21T14:31:26.292Z</time></trkpt><trkpt lat="39.4492467" lon="8.5361983"><ele>411.16666666666663</ele><time>2026-04-21T14:31:28.292Z</time></trkpt><trkpt lat="39.449135" lon="8.5361967"><ele>409.3333333333333</ele><time>2026-04-21T14:31:30.292Z</time></trkpt><trkpt lat="39.4490617" lon="8.5362083"><ele>407.5</ele><time>2026-04-21T14:31:31.292Z</time></trkpt><trkpt lat="39.448985" lon="8.5362217"><ele>405.66666666666663</ele><time>2026-04-21T14:31:32.291Z</time></trkpt><trkpt lat="39.4489133" lon="8.5362283"><ele>403.8333333333333</ele><time>2026-04-21T14:31:33.291Z</time></trkpt><trkpt lat="39.4488433" lon="8.53623"><ele>402.0</ele><time>2026-04-21T14:31:34.292Z</time></trkpt><trkpt lat="39.4487767" lon="8.53621"><ele>401.5</ele><time>2026-04-21T14:31:35.292Z</time></trkpt><trkpt lat="39.4487083" lon="8.536195"><ele>401.0</ele><time>2026-04-21T14:31:36.292Z</time></trkpt><trkpt lat="39.4486417" lon="8.53616"><ele>400.5</ele><time>2026-04-21T14:31:37.291Z</time></trkpt><trkpt lat="39.4485783" lon="8.536125"><ele>400.0</ele><time>2026-04-21T14:31:38.292Z</time></trkpt><trkpt lat="39.44848" lon="8.5360083"><ele>399.5</ele><time>2026-04-21T14:31:40.292Z</time></trkpt><trkpt lat="39.448435" lon="8.5359283"><ele>399.0</ele><time>2026-04-21T14:31:41.291Z</time></trkpt><trkpt lat="39.4483783" lon="8.5358517"><ele>399.0</ele><time>2026-04-21T14:31:42.291Z</time></trkpt><trkpt lat="39.4483217" lon="8.5357833"><ele>399.0</ele><time>2026-04-21T14:31:43.292Z</time></trkpt><trkpt lat="39.4482717" lon="8.5357183"><ele>399.0</ele><time>2026-04-21T14:31:44.291Z</time></trkpt><trkpt lat="39.44822" lon="8.5356683"><ele>399.0</ele><time>2026-04-21T14:31:45.292Z</time></trkpt><trkpt lat="39.4481167" lon="8.5355833"><ele>399.0</ele><time>2026-04-21T14:31:47.291Z</time></trkpt><trkpt lat="39.44801" lon="8.535545"><ele>399.0</ele><time>2026-04-21T14:31:49.291Z</time></trkpt><trkpt lat="39.4479167" lon="8.5355467"><ele>398.3333333333333</ele><time>2026-04-21T14:31:51.291Z</time></trkpt><trkpt lat="39.44781" lon="8.53555"><ele>397.66666666666663</ele><time>2026-04-21T14:31:53.292Z</time></trkpt><trkpt lat="39.4477217" lon="8.5355617"><ele>397.0</ele><time>2026-04-21T14:31:55.291Z</time></trkpt><trkpt lat="39.4476133" lon="8.5355867"><ele>396.3333333333333</ele><time>2026-04-21T14:31:57.292Z</time></trkpt><trkpt lat="39.4475433" lon="8.5355983"><ele>395.66666666666663</ele><time>2026-04-21T14:31:58.291Z</time></trkpt><trkpt lat="39.4474783" lon="8.5356117"><ele>395.0</ele><time>2026-04-21T14:31:59.292Z</time></trkpt><trkpt lat="39.4474133" lon="8.5356317"><ele>394.99999999999994</ele><time>2026-04-21T14:32:00.291Z</time></trkpt><trkpt lat="39.4473433" lon="8.5356767"><ele>395.0</ele><time>2026-04-21T14:32:01.291Z</time></trkpt><trkpt lat="39.4472733" lon="8.535735"><ele>395.0</ele><time>2026-04-21T14:32:02.291Z</time></trkpt><trkpt lat="39.4472167" lon="8.53578"><ele>395.0</ele><time>2026-04-21T14:32:03.292Z</time></trkpt><trkpt lat="39.4471017" lon="8.5358533"><ele>394.99999999999994</ele><time>2026-04-21T14:32:05.292Z</time></trkpt><trkpt lat="39.4470333" lon="8.5358717"><ele>395.0</ele><time>2026-04-21T14:32:06.291Z</time></trkpt><trkpt lat="39.4469567" lon="8.5358783"><ele>393.16666666666663</ele><time>2026-04-21T14:32:07.291Z</time></trkpt><trkpt lat="39.4468667" lon="8.5358933"><ele>391.3333333333333</ele><time>2026-04-21T14:32:08.291Z</time></trkpt><trkpt lat="39.4467867" lon="8.5359183"><ele>389.5</ele><time>2026-04-21T14:32:09.292Z</time></trkpt><trkpt lat="39.446705" lon="8.5359233"><ele>387.66666666666663</ele><time>2026-04-21T14:32:10.291Z</time></trkpt><trkpt lat="39.44664" lon="8.5359033"><ele>385.8333333333333</ele><time>2026-04-21T14:32:11.292Z</time></trkpt><trkpt lat="39.44658" lon="8.5358733"><ele>384.0</ele><time>2026-04-21T14:32:12.291Z</time></trkpt><trkpt lat="39.4464767" lon="8.535855"><ele>384.0</ele><time>2026-04-21T14:32:14.291Z</time></trkpt><trkpt lat="39.4463667" lon="8.5358483"><ele>384.0</ele><time>2026-04-21T14:32:16.292Z</time></trkpt><trkpt lat="39.4462617" lon="8.5358717"><ele>384.0</ele><time>2026-04-21T14:32:18.291Z</time></trkpt><trkpt lat="39.4461583" lon="8.5359117"><ele>384.0</ele><time>2026-04-21T14:32:20.291Z</time></trkpt><trkpt lat="39.4460467" lon="8.5359733"><ele>384.0</ele><time>2026-04-21T14:32:22.292Z</time></trkpt><trkpt lat="39.445975" lon="8.536015"><ele>381.5</ele><time>2026-04-21T14:32:23.291Z</time></trkpt><trkpt lat="39.44591" lon="8.536045"><ele>379.0</ele><time>2026-04-21T14:32:24.291Z</time></trkpt><trkpt lat="39.4458483" lon="8.5360917"><ele>376.5</ele><time>2026-04-21T14:32:25.292Z</time></trkpt><trkpt lat="39.4457783" lon="8.5361083"><ele>374.0</ele><time>2026-04-21T14:32:26.292Z</time></trkpt><trkpt lat="39.445715" lon="8.5361083"><ele>371.5</ele><time>2026-04-21T14:32:27.291Z</time></trkpt><trkpt lat="39.4456067" lon="8.5360883"><ele>369.0</ele><time>2026-04-21T14:32:29.292Z</time></trkpt><trkpt lat="39.4455067" lon="8.5359983"><ele>367.6666666666667</ele><time>2026-04-21T14:32:31.292Z</time></trkpt><trkpt lat="39.4454533" lon="8.5359283"><ele>366.3333333333333</ele><time>2026-04-21T14:32:32.291Z</time></trkpt><trkpt lat="39.4454083" lon="8.53586"><ele>365.0</ele><time>2026-04-21T14:32:33.292Z</time></trkpt><trkpt lat="39.4453583" lon="8.5358067"><ele>363.66666666666663</ele><time>2026-04-21T14:32:34.292Z</time></trkpt><trkpt lat="39.44525" lon="8.5357467"><ele>362.3333333333333</ele><time>2026-04-21T14:32:36.291Z</time></trkpt><trkpt lat="39.44519" lon="8.53572"><ele>361.0</ele><time>2026-04-21T14:32:37.291Z</time></trkpt><trkpt lat="39.4450967" lon="8.5356167"><ele>361.0</ele><time>2026-04-21T14:32:39.291Z</time></trkpt><trkpt lat="39.445055" lon="8.5355317"><ele>361.0</ele><time>2026-04-21T14:32:40.292Z</time></trkpt><trkpt lat="39.44502" lon="8.5354483"><ele>361.0</ele><time>2026-04-21T14:32:41.292Z</time></trkpt><trkpt lat="39.4449933" lon="8.535355"><ele>361.0</ele><time>2026-04-21T14:32:42.292Z</time></trkpt><trkpt lat="39.4449717" lon="8.5352617"><ele>361.0</ele><time>2026-04-21T14:32:43.292Z</time></trkpt><trkpt lat="39.444945" lon="8.535175"><ele>361.0</ele><time>2026-04-21T14:32:44.292Z</time></trkpt><trkpt lat="39.4449217" lon="8.5350917"><ele>361.0</ele><time>2026-04-21T14:32:45.292Z</time></trkpt><trkpt lat="39.4448883" lon="8.535005"><ele>360.0</ele><time>2026-04-21T14:32:46.291Z</time></trkpt><trkpt lat="39.4448483" lon="8.5349133"><ele>359.0</ele><time>2026-04-21T14:32:47.291Z</time></trkpt><trkpt lat="39.4448" lon="8.5348317"><ele>358.0</ele><time>2026-04-21T14:32:48.291Z</time></trkpt><trkpt lat="39.4447467" lon="8.5347367"><ele>357.0</ele><time>2026-04-21T14:32:49.292Z</time></trkpt><trkpt lat="39.444705" lon="8.5346567"><ele>356.0</ele><time>2026-04-21T14:32:50.292Z</time></trkpt><trkpt lat="39.4446683" lon="8.5345717"><ele>355.0</ele><time>2026-04-21T14:32:51.292Z</time></trkpt><trkpt lat="39.4446283" lon="8.5345"><ele>355.0</ele><time>2026-04-21T14:32:52.291Z</time></trkpt><trkpt lat="39.4445817" lon="8.5344367"><ele>355.0</ele><time>2026-04-21T14:32:53.291Z</time></trkpt><trkpt lat="39.4445267" lon="8.5343733"><ele>355.0</ele><time>2026-04-21T14:32:54.292Z</time></trkpt><trkpt lat="39.4444667" lon="8.5343033"><ele>355.0</ele><time>2026-04-21T14:32:55.292Z</time></trkpt><trkpt lat="39.4444" lon="8.5342267"><ele>355.0</ele><time>2026-04-21T14:32:56.291Z</time></trkpt><trkpt lat="39.4443383" lon="8.5341417"><ele>355.0</ele><time>2026-04-21T14:32:57.291Z</time></trkpt><trkpt lat="39.444275" lon="8.534055"><ele>355.0</ele><time>2026-04-21T14:32:58.292Z</time></trkpt><trkpt lat="39.44421" lon="8.5339667"><ele>355.0</ele><time>2026-04-21T14:32:59.291Z</time></trkpt><trkpt lat="39.4441483" lon="8.53388"><ele>355.0</ele><time>2026-04-21T14:33:00.292Z</time></trkpt><trkpt lat="39.4440883" lon="8.5337967"><ele>355.0</ele><time>2026-04-21T14:33:01.292Z</time></trkpt><trkpt lat="39.44404" lon="8.5337267"><ele>355.0</ele><time>2026-04-21T14:33:02.291Z</time></trkpt><trkpt lat="39.4439867" lon="8.53368"><ele>355.0</ele><time>2026-04-21T14:33:03.292Z</time></trkpt><trkpt lat="39.4439233" lon="8.5336283"><ele>352.16666666666663</ele><time>2026-04-21T14:33:04.292Z</time></trkpt><trkpt lat="39.4438667" lon="8.5335883"><ele>349.3333333333333</ele><time>2026-04-21T14:33:05.291Z</time></trkpt><trkpt lat="39.4437617" lon="8.5335283"><ele>346.5</ele><time>2026-04-21T14:33:07.291Z</time></trkpt><trkpt lat="39.4437117" lon="8.5334783"><ele>343.6666666666667</ele><time>2026-04-21T14:33:08.292Z</time></trkpt><trkpt lat="39.44365" lon="8.5334067"><ele>340.83333333333337</ele><time>2026-04-21T14:33:09.292Z</time></trkpt><trkpt lat="39.4435833" lon="8.5333217"><ele>338.0</ele><time>2026-04-21T14:33:10.292Z</time></trkpt><trkpt lat="39.443515" lon="8.533245"><ele>338.0</ele><time>2026-04-21T14:33:11.291Z</time></trkpt><trkpt lat="39.44345" lon="8.533165"><ele>338.0</ele><time>2026-04-21T14:33:12.292Z</time></trkpt><trkpt lat="39.4433883" lon="8.5331033"><ele>338.0</ele><time>2026-04-21T14:33:13.292Z</time></trkpt><trkpt lat="39.4433367" lon="8.5330467"><ele>338.0</ele><time>2026-04-21T14:33:14.292Z</time></trkpt><trkpt lat="39.44327" lon="8.5329367"><ele>338.0</ele><time>2026-04-21T14:33:16.292Z</time></trkpt><trkpt lat="39.4432533" lon="8.532795"><ele>336.5</ele><time>2026-04-21T14:33:18.291Z</time></trkpt><trkpt lat="39.4432367" lon="8.532715"><ele>335.0</ele><time>2026-04-21T14:33:19.292Z</time></trkpt><trkpt lat="39.4432017" lon="8.5326367"><ele>333.5</ele><time>2026-04-21T14:33:20.291Z</time></trkpt><trkpt lat="39.4431583" lon="8.5325533"><ele>332.0</ele><time>2026-04-21T14:33:21.291Z</time></trkpt><trkpt lat="39.443105" lon="8.532475"><ele>330.5</ele><time>2026-04-21T14:33:22.291Z</time></trkpt><trkpt lat="39.4430467" lon="8.5324017"><ele>329.0</ele><time>2026-04-21T14:33:23.292Z</time></trkpt><trkpt lat="39.44298" lon="8.5323433"><ele>328.6666666666667</ele><time>2026-04-21T14:33:24.291Z</time></trkpt><trkpt lat="39.4429183" lon="8.532275"><ele>328.33333333333337</ele><time>2026-04-21T14:33:25.291Z</time></trkpt><trkpt lat="39.4428567" lon="8.5322117"><ele>328.0</ele><time>2026-04-21T14:33:26.291Z</time></trkpt><trkpt lat="39.4427933" lon="8.5321467"><ele>327.6666666666667</ele><time>2026-04-21T14:33:27.292Z</time></trkpt><trkpt lat="39.4427317" lon="8.5320733"><ele>327.3333333333333</ele><time>2026-04-21T14:33:28.292Z</time></trkpt><trkpt lat="39.4426683" lon="8.532005"><ele>327.0</ele><time>2026-04-21T14:33:29.292Z</time></trkpt><trkpt lat="39.442605" lon="8.5319583"><ele>324.0</ele><time>2026-04-21T14:33:30.292Z</time></trkpt><trkpt lat="39.4425333" lon="8.5319267"><ele>321.0</ele><time>2026-04-21T14:33:31.292Z</time></trkpt><trkpt lat="39.44246" lon="8.5319083"><ele>318.0</ele><time>2026-04-21T14:33:32.291Z</time></trkpt><trkpt lat="39.4423883" lon="8.531905"><ele>315.0</ele><time>2026-04-21T14:33:33.292Z</time></trkpt><trkpt lat="39.4423033" lon="8.5319183"><ele>312.0</ele><time>2026-04-21T14:33:34.291Z</time></trkpt><trkpt lat="39.442215" lon="8.53193"><ele>309.0</ele><time>2026-04-21T14:33:35.292Z</time></trkpt><trkpt lat="39.4421317" lon="8.5319417"><ele>308.1666666666667</ele><time>2026-04-21T14:33:36.292Z</time></trkpt><trkpt lat="39.44205" lon="8.531955"><ele>307.3333333333333</ele><time>2026-04-21T14:33:37.291Z</time></trkpt><trkpt lat="39.4419733" lon="8.531965"><ele>306.5</ele><time>2026-04-21T14:33:38.291Z</time></trkpt><trkpt lat="39.441895" lon="8.53198"><ele>305.66666666666663</ele><time>2026-04-21T14:33:39.291Z</time></trkpt><trkpt lat="39.4418217" lon="8.5319817"><ele>304.8333333333333</ele><time>2026-04-21T14:33:40.291Z</time></trkpt><trkpt lat="39.4417467" lon="8.53198"><ele>304.0</ele><time>2026-04-21T14:33:41.291Z</time></trkpt><trkpt lat="39.4416717" lon="8.5319783"><ele>304.0</ele><time>2026-04-21T14:33:42.292Z</time></trkpt><trkpt lat="39.4416033" lon="8.5319767"><ele>304.0</ele><time>2026-04-21T14:33:43.292Z</time></trkpt><trkpt lat="39.441535" lon="8.531975"><ele>304.0</ele><time>2026-04-21T14:33:44.291Z</time></trkpt><trkpt lat="39.441465" lon="8.53197"><ele>304.0</ele><time>2026-04-21T14:33:45.292Z</time></trkpt><trkpt lat="39.4413983" lon="8.5319617"><ele>304.0</ele><time>2026-04-21T14:33:46.292Z</time></trkpt><trkpt lat="39.4413333" lon="8.5319633"><ele>304.0</ele><time>2026-04-21T14:33:47.292Z</time></trkpt><trkpt lat="39.44127" lon="8.5319733"><ele>304.0</ele><time>2026-04-21T14:33:48.292Z</time></trkpt><trkpt lat="39.4411617" lon="8.53199"><ele>301.8333333333333</ele><time>2026-04-21T14:33:50.292Z</time></trkpt><trkpt lat="39.4410933" lon="8.5319183"><ele>299.66666666666663</ele><time>2026-04-21T14:33:52.292Z</time></trkpt><trkpt lat="39.441095" lon="8.5317933"><ele>297.5</ele><time>2026-04-21T14:33:54.291Z</time></trkpt><trkpt lat="39.4411317" lon="8.5316417"><ele>295.3333333333333</ele><time>2026-04-21T14:33:56.291Z</time></trkpt><trkpt lat="39.4411633" lon="8.5315683"><ele>293.1666666666667</ele><time>2026-04-21T14:33:57.292Z</time></trkpt><trkpt lat="39.4412067" lon="8.5314967"><ele>291.0</ele><time>2026-04-21T14:33:58.291Z</time></trkpt><trkpt lat="39.44126" lon="8.5314167"><ele>290.6666666666667</ele><time>2026-04-21T14:33:59.291Z</time></trkpt><trkpt lat="39.441305" lon="8.53131"><ele>290.3333333333333</ele><time>2026-04-21T14:34:00.292Z</time></trkpt><trkpt lat="39.4413367" lon="8.5312067"><ele>290.0</ele><time>2026-04-21T14:34:01.291Z</time></trkpt><trkpt lat="39.44136" lon="8.5311017"><ele>289.66666666666663</ele><time>2026-04-21T14:34:02.291Z</time></trkpt><trkpt lat="39.4413717" lon="8.5310017"><ele>289.3333333333333</ele><time>2026-04-21T14:34:03.292Z</time></trkpt><trkpt lat="39.4413717" lon="8.5309033"><ele>289.0</ele><time>2026-04-21T14:34:04.291Z</time></trkpt><trkpt lat="39.441355" lon="8.5308067"><ele>289.0</ele><time>2026-04-21T14:34:05.291Z</time></trkpt><trkpt lat="39.4413233" lon="8.530725"><ele>289.0</ele><time>2026-04-21T14:34:06.292Z</time></trkpt><trkpt lat="39.4412733" lon="8.5306533"><ele>289.0</ele><time>2026-04-21T14:34:07.292Z</time></trkpt><trkpt lat="39.44122" lon="8.5305833"><ele>289.0</ele><time>2026-04-21T14:34:08.292Z</time></trkpt><trkpt lat="39.44117" lon="8.5305067"><ele>289.0</ele><time>2026-04-21T14:34:09.291Z</time></trkpt><trkpt lat="39.4411383" lon="8.5304267"><ele>289.0</ele><time>2026-04-21T14:34:10.291Z</time></trkpt><trkpt lat="39.44112" lon="8.53033"><ele>289.0</ele><time>2026-04-21T14:34:11.291Z</time></trkpt><trkpt lat="39.4411117" lon="8.5302233"><ele>287.8</ele><time>2026-04-21T14:34:12.291Z</time></trkpt><trkpt lat="39.441115" lon="8.5301183"><ele>286.59999999999997</ele><time>2026-04-21T14:34:13.291Z</time></trkpt><trkpt lat="39.44112" lon="8.5300033"><ele>285.4</ele><time>2026-04-21T14:34:14.291Z</time></trkpt><trkpt lat="39.4411183" lon="8.5298533"><ele>284.2</ele><time>2026-04-21T14:34:15.291Z</time></trkpt><trkpt lat="39.44112" lon="8.5297083"><ele>283.0</ele><time>2026-04-21T14:34:16.291Z</time></trkpt><trkpt lat="39.4411217" lon="8.5295833"><ele>284.0</ele><time>2026-04-21T14:34:17.292Z</time></trkpt><trkpt lat="39.4411267" lon="8.5294667"><ele>285.0</ele><time>2026-04-21T14:34:18.291Z</time></trkpt><trkpt lat="39.4411283" lon="8.5293617"><ele>286.0</ele><time>2026-04-21T14:34:19.292Z</time></trkpt><trkpt lat="39.4411333" lon="8.5292733"><ele>287.0</ele><time>2026-04-21T14:34:20.291Z</time></trkpt><trkpt lat="39.44115" lon="8.5291883"><ele>288.0</ele><time>2026-04-21T14:34:21.291Z</time></trkpt><trkpt lat="39.4411683" lon="8.5291083"><ele>289.0</ele><time>2026-04-21T14:34:22.292Z</time></trkpt><trkpt lat="39.44118" lon="8.52902"><ele>290.0</ele><time>2026-04-21T14:34:23.292Z</time></trkpt><trkpt lat="39.441175" lon="8.528925"><ele>290.0</ele><time>2026-04-21T14:34:24.292Z</time></trkpt><trkpt lat="39.4411583" lon="8.52882"><ele>290.0</ele><time>2026-04-21T14:34:25.292Z</time></trkpt><trkpt lat="39.44114" lon="8.5287183"><ele>290.0</ele><time>2026-04-21T14:34:26.291Z</time></trkpt><trkpt lat="39.441115" lon="8.5286233"><ele>290.0</ele><time>2026-04-21T14:34:27.291Z</time></trkpt><trkpt lat="39.441095" lon="8.5285417"><ele>290.0</ele><time>2026-04-21T14:34:28.292Z</time></trkpt><trkpt lat="39.4410617" lon="8.5284517"><ele>290.0</ele><time>2026-04-21T14:34:29.292Z</time></trkpt><trkpt lat="39.4410317" lon="8.5283667"><ele>289.83333333333337</ele><time>2026-04-21T14:34:30.292Z</time></trkpt><trkpt lat="39.4410017" lon="8.528275"><ele>289.6666666666667</ele><time>2026-04-21T14:34:31.292Z</time></trkpt><trkpt lat="39.4409733" lon="8.5281833"><ele>289.5</ele><time>2026-04-21T14:34:32.292Z</time></trkpt><trkpt lat="39.44095" lon="8.528085"><ele>289.3333333333333</ele><time>2026-04-21T14:34:33.291Z</time></trkpt><trkpt lat="39.44093" lon="8.5279933"><ele>289.16666666666663</ele><time>2026-04-21T14:34:34.291Z</time></trkpt><trkpt lat="39.4409133" lon="8.5279017"><ele>289.0</ele><time>2026-04-21T14:34:35.291Z</time></trkpt><trkpt lat="39.4408983" lon="8.5278083"><ele>286.42857142857144</ele><time>2026-04-21T14:34:36.292Z</time></trkpt><trkpt lat="39.4408867" lon="8.52772"><ele>283.85714285714283</ele><time>2026-04-21T14:34:37.292Z</time></trkpt><trkpt lat="39.4408783" lon="8.5276333"><ele>281.2857142857143</ele><time>2026-04-21T14:34:38.291Z</time></trkpt><trkpt lat="39.4408767" lon="8.5275467"><ele>278.7142857142857</ele><time>2026-04-21T14:34:39.291Z</time></trkpt><trkpt lat="39.4408817" lon="8.5274633"><ele>276.14285714285717</ele><time>2026-04-21T14:34:40.291Z</time></trkpt><trkpt lat="39.4408833" lon="8.5273817"><ele>273.57142857142856</ele><time>2026-04-21T14:34:41.291Z</time></trkpt><trkpt lat="39.4408767" lon="8.5273"><ele>271.0</ele><time>2026-04-21T14:34:42.291Z</time></trkpt><trkpt lat="39.4408167" lon="8.52716"><ele>271.0</ele><time>2026-04-21T14:34:44.292Z</time></trkpt><trkpt lat="39.4407667" lon="8.527105"><ele>271.0</ele><time>2026-04-21T14:34:45.292Z</time></trkpt><trkpt lat="39.44066" lon="8.5270317"><ele>271.0</ele><time>2026-04-21T14:34:47.292Z</time></trkpt><trkpt lat="39.44056" lon="8.5270167"><ele>271.0</ele><time>2026-04-21T14:34:49.291Z</time></trkpt><trkpt lat="39.4404633" lon="8.5271017"><ele>271.0</ele><time>2026-04-21T14:34:51.292Z</time></trkpt><trkpt lat="39.4404083" lon="8.5271583"><ele>269.57142857142856</ele><time>2026-04-21T14:34:52.292Z</time></trkpt><trkpt lat="39.44034" lon="8.5272017"><ele>268.14285714285717</ele><time>2026-04-21T14:34:53.291Z</time></trkpt><trkpt lat="39.440265" lon="8.52723"><ele>266.7142857142857</ele><time>2026-04-21T14:34:54.292Z</time></trkpt><trkpt lat="39.4401933" lon="8.527245"><ele>265.2857142857143</ele><time>2026-04-21T14:34:55.292Z</time></trkpt><trkpt lat="39.440125" lon="8.5272283"><ele>263.85714285714283</ele><time>2026-04-21T14:34:56.292Z</time></trkpt><trkpt lat="39.440065" lon="8.5272033"><ele>262.42857142857144</ele><time>2026-04-21T14:34:57.291Z</time></trkpt><trkpt lat="39.4400017" lon="8.5271833"><ele>261.0</ele><time>2026-04-21T14:34:58.292Z</time></trkpt><trkpt lat="39.439875" lon="8.527155"><ele>261.0</ele><time>2026-04-21T14:35:00.292Z</time></trkpt><trkpt lat="39.4397933" lon="8.52716"><ele>261.0</ele><time>2026-04-21T14:35:01.291Z</time></trkpt><trkpt lat="39.4397133" lon="8.5271583"><ele>261.0</ele><time>2026-04-21T14:35:02.291Z</time></trkpt><trkpt lat="39.43964" lon="8.5271333"><ele>261.0</ele><time>2026-04-21T14:35:03.292Z</time></trkpt><trkpt lat="39.4395667" lon="8.5271"><ele>261.0</ele><time>2026-04-21T14:35:04.291Z</time></trkpt><trkpt lat="39.4394933" lon="8.52707"><ele>261.0</ele><time>2026-04-21T14:35:05.291Z</time></trkpt><trkpt lat="39.4394267" lon="8.5270417"><ele>255.33333333333334</ele><time>2026-04-21T14:35:06.291Z</time></trkpt><trkpt lat="39.4393533" lon="8.527015"><ele>249.66666666666669</ele><time>2026-04-21T14:35:07.292Z</time></trkpt><trkpt lat="39.43929" lon="8.5270017"><ele>244.0</ele><time>2026-04-21T14:35:08.291Z</time></trkpt><trkpt lat="39.4391767" lon="8.5269617"><ele>238.33333333333334</ele><time>2026-04-21T14:35:10.292Z</time></trkpt><trkpt lat="39.43912" lon="8.5269117"><ele>232.66666666666669</ele><time>2026-04-21T14:35:11.292Z</time></trkpt><trkpt lat="39.4390733" lon="8.52683"><ele>227.0</ele><time>2026-04-21T14:35:12.292Z</time></trkpt><trkpt lat="39.439035" lon="8.5267317"><ele>227.00000000000003</ele><time>2026-04-21T14:35:13.291Z</time></trkpt><trkpt lat="39.438995" lon="8.526625"><ele>227.0</ele><time>2026-04-21T14:35:14.291Z</time></trkpt><trkpt lat="39.438955" lon="8.52652"><ele>227.0</ele><time>2026-04-21T14:35:15.291Z</time></trkpt><trkpt lat="39.4389283" lon="8.5264233"><ele>227.0</ele><time>2026-04-21T14:35:16.292Z</time></trkpt><trkpt lat="39.43892" lon="8.5263317"><ele>227.00000000000003</ele><time>2026-04-21T14:35:17.292Z</time></trkpt><trkpt lat="39.4389217" lon="8.5262267"><ele>227.0</ele><time>2026-04-21T14:35:18.291Z</time></trkpt><trkpt lat="39.4389333" lon="8.5261317"><ele>225.71428571428572</ele><time>2026-04-21T14:35:19.292Z</time></trkpt><trkpt lat="39.4389467" lon="8.5260483"><ele>224.42857142857144</ele><time>2026-04-21T14:35:20.291Z</time></trkpt><trkpt lat="39.4389583" lon="8.5259567"><ele>223.14285714285717</ele><time>2026-04-21T14:35:21.292Z</time></trkpt><trkpt lat="39.43898" lon="8.5258633"><ele>221.85714285714286</ele><time>2026-04-21T14:35:22.291Z</time></trkpt><trkpt lat="39.439005" lon="8.52577"><ele>220.57142857142858</ele><time>2026-04-21T14:35:23.291Z</time></trkpt><trkpt lat="39.43902" lon="8.5256733"><ele>219.28571428571428</ele><time>2026-04-21T14:35:24.291Z</time></trkpt><trkpt lat="39.4390233" lon="8.5255817"><ele>218.0</ele><time>2026-04-21T14:35:25.291Z</time></trkpt><trkpt lat="39.4390133" lon="8.52549"><ele>218.00000000000003</ele><time>2026-04-21T14:35:26.292Z</time></trkpt><trkpt lat="39.4389967" lon="8.5253967"><ele>218.0</ele><time>2026-04-21T14:35:27.291Z</time></trkpt><trkpt lat="39.43898" lon="8.5253083"><ele>218.0</ele><time>2026-04-21T14:35:28.292Z</time></trkpt><trkpt lat="39.4389717" lon="8.52522"><ele>218.0</ele><time>2026-04-21T14:35:29.292Z</time></trkpt><trkpt lat="39.4389817" lon="8.5251383"><ele>218.00000000000003</ele><time>2026-04-21T14:35:30.291Z</time></trkpt><trkpt lat="39.4390117" lon="8.5250033"><ele>218.0</ele><time>2026-04-21T14:35:32.291Z</time></trkpt><trkpt lat="39.4390717" lon="8.52494"><ele>218.0</ele><time>2026-04-21T14:35:34.292Z</time></trkpt><trkpt lat="39.4391267" lon="8.5249983"><ele>218.0</ele><time>2026-04-21T14:35:36.291Z</time></trkpt><trkpt lat="39.439145" lon="8.5251267"><ele>218.0</ele><time>2026-04-21T14:35:38.291Z</time></trkpt><trkpt lat="39.43916" lon="8.5252067"><ele>218.0</ele><time>2026-04-21T14:35:39.291Z</time></trkpt><trkpt lat="39.4391833" lon="8.5252867"><ele>218.0</ele><time>2026-04-21T14:35:40.292Z</time></trkpt><trkpt lat="39.4392133" lon="8.525365"><ele>218.0</ele><time>2026-04-21T14:35:41.291Z</time></trkpt><trkpt lat="39.4392467" lon="8.52544"><ele>218.0</ele><time>2026-04-21T14:35:42.292Z</time></trkpt><trkpt lat="39.4392833" lon="8.52551"><ele>218.0</ele><time>2026-04-21T14:35:43.292Z</time></trkpt><trkpt lat="39.4393483" lon="8.5256317"><ele>218.0</ele><time>2026-04-21T14:35:45.291Z</time></trkpt><trkpt lat="39.43942" lon="8.5257633"><ele>218.0</ele><time>2026-04-21T14:35:47.292Z</time></trkpt><trkpt lat="39.4395017" lon="8.5258683"><ele>218.0</ele><time>2026-04-21T14:35:49.291Z</time></trkpt><trkpt lat="39.4396117" lon="8.5258383"><ele>218.33333333333334</ele><time>2026-04-21T14:35:51.292Z</time></trkpt><trkpt lat="39.4396967" lon="8.525725"><ele>218.66666666666669</ele><time>2026-04-21T14:35:53.291Z</time></trkpt><trkpt lat="39.4397233" lon="8.5256367"><ele>219.0</ele><time>2026-04-21T14:35:54.292Z</time></trkpt><trkpt lat="39.4397283" lon="8.5255417"><ele>219.33333333333331</ele><time>2026-04-21T14:35:55.291Z</time></trkpt><trkpt lat="39.439735" lon="8.52545"><ele>219.66666666666666</ele><time>2026-04-21T14:35:56.292Z</time></trkpt><trkpt lat="39.4397467" lon="8.5253633"><ele>220.0</ele><time>2026-04-21T14:35:57.291Z</time></trkpt><trkpt lat="39.4397583" lon="8.525265"><ele>216.66666666666666</ele><time>2026-04-21T14:35:58.291Z</time></trkpt><trkpt lat="39.439775" lon="8.525175"><ele>213.33333333333331</ele><time>2026-04-21T14:35:59.292Z</time></trkpt><trkpt lat="39.4398033" lon="8.5250917"><ele>210.0</ele><time>2026-04-21T14:36:00.292Z</time></trkpt><trkpt lat="39.439875" lon="8.5249467"><ele>206.66666666666669</ele><time>2026-04-21T14:36:02.291Z</time></trkpt><trkpt lat="39.4399217" lon="8.52487"><ele>203.33333333333334</ele><time>2026-04-21T14:36:03.292Z</time></trkpt><trkpt lat="39.4399733" lon="8.5248033"><ele>200.0</ele><time>2026-04-21T14:36:04.292Z</time></trkpt><trkpt lat="39.4400167" lon="8.5247267"><ele>200.00000000000003</ele><time>2026-04-21T14:36:05.292Z</time></trkpt><trkpt lat="39.440055" lon="8.52464"><ele>200.0</ele><time>2026-04-21T14:36:06.291Z</time></trkpt><trkpt lat="39.44008" lon="8.5245467"><ele>200.0</ele><time>2026-04-21T14:36:07.291Z</time></trkpt><trkpt lat="39.44009" lon="8.5244467"><ele>200.0</ele><time>2026-04-21T14:36:08.292Z</time></trkpt><trkpt lat="39.4400817" lon="8.52435"><ele>200.00000000000003</ele><time>2026-04-21T14:36:09.291Z</time></trkpt><trkpt lat="39.440065" lon="8.52426"><ele>200.0</ele><time>2026-04-21T14:36:10.292Z</time></trkpt><trkpt lat="39.4400383" lon="8.5241633"><ele>198.00000000000003</ele><time>2026-04-21T14:36:11.291Z</time></trkpt><trkpt lat="39.4400217" lon="8.5240767"><ele>196.0</ele><time>2026-04-21T14:36:12.292Z</time></trkpt><trkpt lat="39.4400167" lon="8.52399"><ele>194.0</ele><time>2026-04-21T14:36:13.291Z</time></trkpt><trkpt lat="39.4400133" lon="8.5239033"><ele>192.0</ele><time>2026-04-21T14:36:14.291Z</time></trkpt><trkpt lat="39.4400067" lon="8.52381"><ele>190.0</ele><time>2026-04-21T14:36:15.292Z</time></trkpt><trkpt lat="39.4400067" lon="8.52372"><ele>188.00000000000003</ele><time>2026-04-21T14:36:16.292Z</time></trkpt><trkpt lat="39.4400117" lon="8.5236283"><ele>186.0</ele><time>2026-04-21T14:36:17.292Z</time></trkpt><trkpt lat="39.4400183" lon="8.5235383"><ele>184.00000000000003</ele><time>2026-04-21T14:36:18.292Z</time></trkpt><trkpt lat="39.44002" lon="8.5234517"><ele>182.0</ele><time>2026-04-21T14:36:19.291Z</time></trkpt><trkpt lat="39.4400317" lon="8.5233633"><ele>180.0</ele><time>2026-04-21T14:36:20.291Z</time></trkpt><trkpt lat="39.4400433" lon="8.523275"><ele>178.0</ele><time>2026-04-21T14:36:21.292Z</time></trkpt><trkpt lat="39.4400667" lon="8.5231783"><ele>176.0</ele><time>2026-04-21T14:36:22.292Z</time></trkpt><trkpt lat="39.440095" lon="8.5230967"><ele>174.00000000000003</ele><time>2026-04-21T14:36:23.291Z</time></trkpt><trkpt lat="39.44012" lon="8.5230067"><ele>172.0</ele><time>2026-04-21T14:36:24.291Z</time></trkpt><trkpt lat="39.4401417" lon="8.5229133"><ele>168.66666666666669</ele><time>2026-04-21T14:36:25.292Z</time></trkpt><trkpt lat="39.44017" lon="8.5228167"><ele>165.33333333333334</ele><time>2026-04-21T14:36:26.292Z</time></trkpt><trkpt lat="39.440195" lon="8.5227183"><ele>162.0</ele><time>2026-04-21T14:36:27.291Z</time></trkpt><trkpt lat="39.44022" lon="8.52262"><ele>158.66666666666666</ele><time>2026-04-21T14:36:28.292Z</time></trkpt><trkpt lat="39.4402483" lon="8.522525"><ele>155.33333333333331</ele><time>2026-04-21T14:36:29.292Z</time></trkpt><trkpt lat="39.4402783" lon="8.5224417"><ele>152.0</ele><time>2026-04-21T14:36:30.291Z</time></trkpt><trkpt lat="39.4403067" lon="8.52236"><ele>152.0</ele><time>2026-04-21T14:36:31.291Z</time></trkpt><trkpt lat="39.44033" lon="8.5222767"><ele>152.0</ele><time>2026-04-21T14:36:32.292Z</time></trkpt><trkpt lat="39.4403483" lon="8.52213"><ele>152.0</ele><time>2026-04-21T14:36:34.291Z</time></trkpt><trkpt lat="39.44034" lon="8.5220033"><ele>152.0</ele><time>2026-04-21T14:36:36.292Z</time></trkpt><trkpt lat="39.4403067" lon="8.52193"><ele>152.0</ele><time>2026-04-21T14:36:38.292Z</time></trkpt><trkpt lat="39.44022" lon="8.5219383"><ele>152.0</ele><time>2026-04-21T14:36:40.292Z</time></trkpt><trkpt lat="39.4401533" lon="8.5219483"><ele>150.4</ele><time>2026-04-21T14:36:41.292Z</time></trkpt><trkpt lat="39.4400367" lon="8.5219217"><ele>148.79999999999998</ele><time>2026-04-21T14:36:43.292Z</time></trkpt><trkpt lat="39.4399767" lon="8.52189"><ele>147.2</ele><time>2026-04-21T14:36:44.292Z</time></trkpt><trkpt lat="39.4398733" lon="8.5218233"><ele>145.6</ele><time>2026-04-21T14:36:46.292Z</time></trkpt><trkpt lat="39.4398167" lon="8.521705"><ele>144.0</ele><time>2026-04-21T14:36:48.292Z</time></trkpt><trkpt lat="39.4397867" lon="8.521585"><ele>144.00000000000003</ele><time>2026-04-21T14:36:50.292Z</time></trkpt><trkpt lat="39.4397667" lon="8.5214917"><ele>144.0</ele><time>2026-04-21T14:36:52.292Z</time></trkpt><trkpt lat="39.4397583" lon="8.5214083"><ele>144.0</ele><time>2026-04-21T14:36:54.292Z</time></trkpt><trkpt lat="39.4397417" lon="8.5212867"><ele>144.0</ele><time>2026-04-21T14:36:56.291Z</time></trkpt><trkpt lat="39.4397367" lon="8.5212017"><ele>144.0</ele><time>2026-04-21T14:36:57.292Z</time></trkpt><trkpt lat="39.439735" lon="8.5211167"><ele>144.00000000000003</ele><time>2026-04-21T14:36:58.291Z</time></trkpt><trkpt lat="39.43974" lon="8.5210333"><ele>144.0</ele><time>2026-04-21T14:36:59.292Z</time></trkpt><trkpt lat="39.4397483" lon="8.52095"><ele>143.57142857142858</ele><time>2026-04-21T14:37:00.291Z</time></trkpt><trkpt lat="39.4397517" lon="8.520865"><ele>143.14285714285714</ele><time>2026-04-21T14:37:01.292Z</time></trkpt><trkpt lat="39.4397433" lon="8.5207767"><ele>142.71428571428572</ele><time>2026-04-21T14:37:02.291Z</time></trkpt><trkpt lat="39.4397217" lon="8.5206867"><ele>142.28571428571428</ele><time>2026-04-21T14:37:03.291Z</time></trkpt><trkpt lat="39.4396917" lon="8.5206"><ele>141.85714285714286</ele><time>2026-04-21T14:37:04.291Z</time></trkpt><trkpt lat="39.439655" lon="8.5205217"><ele>141.42857142857144</ele><time>2026-04-21T14:37:05.292Z</time></trkpt><trkpt lat="39.4396117" lon="8.520455"><ele>141.0</ele><time>2026-04-21T14:37:06.292Z</time></trkpt><trkpt lat="39.4395567" lon="8.5204017"><ele>139.71428571428572</ele><time>2026-04-21T14:37:07.292Z</time></trkpt><trkpt lat="39.4394917" lon="8.5203617"><ele>138.42857142857142</ele><time>2026-04-21T14:37:08.292Z</time></trkpt><trkpt lat="39.4394183" lon="8.52034"><ele>137.14285714285714</ele><time>2026-04-21T14:37:09.292Z</time></trkpt><trkpt lat="39.4393533" lon="8.5203383"><ele>135.85714285714286</ele><time>2026-04-21T14:37:10.291Z</time></trkpt><trkpt lat="39.4392833" lon="8.520355"><ele>134.57142857142858</ele><time>2026-04-21T14:37:11.291Z</time></trkpt><trkpt lat="39.43921" lon="8.5203883"><ele>133.28571428571428</ele><time>2026-04-21T14:37:12.292Z</time></trkpt><trkpt lat="39.439135" lon="8.5204133"><ele>132.0</ele><time>2026-04-21T14:37:13.291Z</time></trkpt><trkpt lat="39.439065" lon="8.5204367"><ele>132.0</ele><time>2026-04-21T14:37:14.291Z</time></trkpt><trkpt lat="39.4389883" lon="8.5204533"><ele>132.0</ele><time>2026-04-21T14:37:15.291Z</time></trkpt><trkpt lat="39.438915" lon="8.5204633"><ele>132.0</ele><time>2026-04-21T14:37:16.291Z</time></trkpt><trkpt lat="39.4388367" lon="8.5204683"><ele>132.0</ele><time>2026-04-21T14:37:17.292Z</time></trkpt><trkpt lat="39.4387583" lon="8.5204733"><ele>132.0</ele><time>2026-04-21T14:37:18.291Z</time></trkpt><trkpt lat="39.438685" lon="8.5204717"><ele>132.0</ele><time>2026-04-21T14:37:19.291Z</time></trkpt><trkpt lat="39.4386083" lon="8.5204633"><ele>131.14285714285714</ele><time>2026-04-21T14:37:20.292Z</time></trkpt><trkpt lat="39.43854" lon="8.5204483"><ele>130.28571428571428</ele><time>2026-04-21T14:37:21.292Z</time></trkpt><trkpt lat="39.4384683" lon="8.52043"><ele>129.42857142857144</ele><time>2026-04-21T14:37:22.292Z</time></trkpt><trkpt lat="39.43839" lon="8.52043"><ele>128.57142857142856</ele><time>2026-04-21T14:37:23.291Z</time></trkpt><trkpt lat="39.43832" lon="8.5204383"><ele>127.71428571428572</ele><time>2026-04-21T14:37:24.291Z</time></trkpt><trkpt lat="39.4382533" lon="8.52047"><ele>126.85714285714286</ele><time>2026-04-21T14:37:25.292Z</time></trkpt><trkpt lat="39.4381867" lon="8.5205033"><ele>126.0</ele><time>2026-04-21T14:37:26.292Z</time></trkpt><trkpt lat="39.4380667" lon="8.5205517"><ele>125.66666666666667</ele><time>2026-04-21T14:37:28.291Z</time></trkpt><trkpt lat="39.4379467" lon="8.5205217"><ele>125.33333333333334</ele><time>2026-04-21T14:37:30.292Z</time></trkpt><trkpt lat="39.43789" lon="8.52048"><ele>125.0</ele><time>2026-04-21T14:37:31.291Z</time></trkpt><trkpt lat="39.4378433" lon="8.5204183"><ele>124.66666666666667</ele><time>2026-04-21T14:37:32.291Z</time></trkpt><trkpt lat="39.4378" lon="8.5203383"><ele>124.33333333333334</ele><time>2026-04-21T14:37:33.292Z</time></trkpt><trkpt lat="39.4377683" lon="8.5202483"><ele>124.0</ele><time>2026-04-21T14:37:34.291Z</time></trkpt><trkpt lat="39.437745" lon="8.52015"><ele>122.00000000000001</ele><time>2026-04-21T14:37:35.292Z</time></trkpt><trkpt lat="39.4377233" lon="8.5200567"><ele>120.0</ele><time>2026-04-21T14:37:36.292Z</time></trkpt><trkpt lat="39.4376917" lon="8.5199733"><ele>118.0</ele><time>2026-04-21T14:37:37.292Z</time></trkpt><trkpt lat="39.4376633" lon="8.519895"><ele>116.0</ele><time>2026-04-21T14:37:38.291Z</time></trkpt><trkpt lat="39.43759" lon="8.5197883"><ele>114.00000000000001</ele><time>2026-04-21T14:37:40.291Z</time></trkpt><trkpt lat="39.4375133" lon="8.5197417"><ele>112.0</ele><time>2026-04-21T14:37:42.292Z</time></trkpt><trkpt lat="39.4374267" lon="8.51975"><ele>112.0</ele><time>2026-04-21T14:37:44.292Z</time></trkpt><trkpt lat="39.43736" lon="8.5196817"><ele>111.99999999999999</ele><time>2026-04-21T14:37:47.292Z</time></trkpt><trkpt lat="39.43737" lon="8.5195617"><ele>111.99999999999999</ele><time>2026-04-21T14:37:49.291Z</time></trkpt><trkpt lat="39.4373767" lon="8.5194383"><ele>112.0</ele><time>2026-04-21T14:37:51.292Z</time></trkpt><trkpt lat="39.4373817" lon="8.5193183"><ele>112.0</ele><time>2026-04-21T14:37:53.291Z</time></trkpt><trkpt lat="39.4374" lon="8.519185"><ele>111.57142857142857</ele><time>2026-04-21T14:37:55.292Z</time></trkpt><trkpt lat="39.43742" lon="8.5191067"><ele>111.14285714285714</ele><time>2026-04-21T14:37:56.292Z</time></trkpt><trkpt lat="39.4374383" lon="8.51902"><ele>110.71428571428572</ele><time>2026-04-21T14:37:57.292Z</time></trkpt><trkpt lat="39.4374567" lon="8.5189383"><ele>110.28571428571428</ele><time>2026-04-21T14:37:58.291Z</time></trkpt><trkpt lat="39.4374733" lon="8.5188467"><ele>109.85714285714286</ele><time>2026-04-21T14:37:59.292Z</time></trkpt><trkpt lat="39.4375" lon="8.5187533"><ele>109.42857142857143</ele><time>2026-04-21T14:38:00.291Z</time></trkpt><trkpt lat="39.4375267" lon="8.5186683"><ele>109.0</ele><time>2026-04-21T14:38:01.292Z</time></trkpt><trkpt lat="39.43755" lon="8.5185867"><ele>108.57142857142857</ele><time>2026-04-21T14:38:02.291Z</time></trkpt><trkpt lat="39.43757" lon="8.5185"><ele>108.14285714285714</ele><time>2026-04-21T14:38:03.291Z</time></trkpt><trkpt lat="39.43758" lon="8.5184133"><ele>107.71428571428572</ele><time>2026-04-21T14:38:04.291Z</time></trkpt><trkpt lat="39.4375817" lon="8.5183283"><ele>107.28571428571428</ele><time>2026-04-21T14:38:05.292Z</time></trkpt><trkpt lat="39.4375783" lon="8.5182417"><ele>106.85714285714285</ele><time>2026-04-21T14:38:06.292Z</time></trkpt><trkpt lat="39.4375617" lon="8.51816"><ele>106.42857142857143</ele><time>2026-04-21T14:38:07.292Z</time></trkpt><trkpt lat="39.437525" lon="8.5180817"><ele>106.0</ele><time>2026-04-21T14:38:08.291Z</time></trkpt><trkpt lat="39.4375" lon="8.5179933"><ele>106.0</ele><time>2026-04-21T14:38:09.292Z</time></trkpt><trkpt lat="39.4374817" lon="8.5179117"><ele>106.0</ele><time>2026-04-21T14:38:10.291Z</time></trkpt><trkpt lat="39.4374617" lon="8.5178317"><ele>106.0</ele><time>2026-04-21T14:38:11.291Z</time></trkpt><trkpt lat="39.43739" lon="8.5177083"><ele>106.0</ele><time>2026-04-21T14:38:13.292Z</time></trkpt><trkpt lat="39.437305" lon="8.5176233"><ele>106.0</ele><time>2026-04-21T14:38:15.292Z</time></trkpt><trkpt lat="39.437205" lon="8.51753"><ele>106.14285714285715</ele><time>2026-04-21T14:38:17.291Z</time></trkpt><trkpt lat="39.4371467" lon="8.51748"><ele>106.28571428571428</ele><time>2026-04-21T14:38:18.292Z</time></trkpt><trkpt lat="39.4370917" lon="8.51742"><ele>106.42857142857143</ele><time>2026-04-21T14:38:19.292Z</time></trkpt><trkpt lat="39.4370333" lon="8.5173617"><ele>106.57142857142858</ele><time>2026-04-21T14:38:20.292Z</time></trkpt><trkpt lat="39.4369733" lon="8.517305"><ele>106.71428571428572</ele><time>2026-04-21T14:38:21.292Z</time></trkpt><trkpt lat="39.43693" lon="8.51724"><ele>106.85714285714286</ele><time>2026-04-21T14:38:22.292Z</time></trkpt><trkpt lat="39.43688" lon="8.517165"><ele>107.0</ele><time>2026-04-21T14:38:23.292Z</time></trkpt><trkpt lat="39.43684" lon="8.5171"><ele>105.0</ele><time>2026-04-21T14:38:24.291Z</time></trkpt><trkpt lat="39.436785" lon="8.5169817"><ele>102.99999999999999</ele><time>2026-04-21T14:38:26.291Z</time></trkpt><trkpt lat="39.436745" lon="8.5168583"><ele>101.0</ele><time>2026-04-21T14:38:28.292Z</time></trkpt><trkpt lat="39.43672" lon="8.5167167"><ele>99.0</ele><time>2026-04-21T14:38:30.291Z</time></trkpt><trkpt lat="39.436715" lon="8.51657"><ele>97.0</ele><time>2026-04-21T14:38:32.292Z</time></trkpt><trkpt lat="39.4367117" lon="8.5164067"><ele>97.00000000000001</ele><time>2026-04-21T14:38:34.292Z</time></trkpt><trkpt lat="39.436695" lon="8.5162467"><ele>97.0</ele><time>2026-04-21T14:38:36.292Z</time></trkpt><trkpt lat="39.436695" lon="8.5161617"><ele>97.0</ele><time>2026-04-21T14:38:37.291Z</time></trkpt><trkpt lat="39.436705" lon="8.516065"><ele>97.0</ele><time>2026-04-21T14:38:38.292Z</time></trkpt><trkpt lat="39.43673" lon="8.515975"><ele>97.00000000000001</ele><time>2026-04-21T14:38:39.291Z</time></trkpt><trkpt lat="39.4367617" lon="8.51588"><ele>97.0</ele><time>2026-04-21T14:38:40.292Z</time></trkpt><trkpt lat="39.4367917" lon="8.5157783"><ele>96.66666666666667</ele><time>2026-04-21T14:38:41.291Z</time></trkpt><trkpt lat="39.4368267" lon="8.51566"><ele>96.33333333333334</ele><time>2026-04-21T14:38:42.292Z</time></trkpt><trkpt lat="39.4368567" lon="8.5155583"><ele>96.0</ele><time>2026-04-21T14:38:43.292Z</time></trkpt><trkpt lat="39.4368867" lon="8.5154633"><ele>95.66666666666667</ele><time>2026-04-21T14:38:44.291Z</time></trkpt><trkpt lat="39.436915" lon="8.5153683"><ele>95.33333333333334</ele><time>2026-04-21T14:38:45.292Z</time></trkpt><trkpt lat="39.436935" lon="8.5152733"><ele>95.0</ele><time>2026-04-21T14:38:46.292Z</time></trkpt><trkpt lat="39.4369533" lon="8.5151817"><ele>94.66666666666667</ele><time>2026-04-21T14:38:47.292Z</time></trkpt><trkpt lat="39.4369733" lon="8.515085"><ele>94.33333333333334</ele><time>2026-04-21T14:38:48.292Z</time></trkpt><trkpt lat="39.43699" lon="8.5149867"><ele>94.0</ele><time>2026-04-21T14:38:49.291Z</time></trkpt><trkpt lat="39.4369967" lon="8.514885"><ele>93.66666666666667</ele><time>2026-04-21T14:38:50.292Z</time></trkpt><trkpt lat="39.437005" lon="8.5147883"><ele>93.33333333333333</ele><time>2026-04-21T14:38:51.291Z</time></trkpt><trkpt lat="39.4370167" lon="8.5146883"><ele>93.0</ele><time>2026-04-21T14:38:52.292Z</time></trkpt><trkpt lat="39.43703" lon="8.51458"><ele>92.4</ele><time>2026-04-21T14:38:53.291Z</time></trkpt><trkpt lat="39.4370483" lon="8.5144683"><ele>91.80000000000001</ele><time>2026-04-21T14:38:54.291Z</time></trkpt><trkpt lat="39.43707" lon="8.5143567"><ele>91.2</ele><time>2026-04-21T14:38:55.291Z</time></trkpt><trkpt lat="39.4370833" lon="8.5142417"><ele>90.6</ele><time>2026-04-21T14:38:56.291Z</time></trkpt><trkpt lat="39.4370983" lon="8.5141217"><ele>90.0</ele><time>2026-04-21T14:38:57.291Z</time></trkpt><trkpt lat="39.4371133" lon="8.5139983"><ele>90.0</ele><time>2026-04-21T14:38:58.292Z</time></trkpt><trkpt lat="39.4371233" lon="8.5138883"><ele>90.0</ele><time>2026-04-21T14:38:59.292Z</time></trkpt><trkpt lat="39.437135" lon="8.5137883"><ele>90.0</ele><time>2026-04-21T14:39:00.292Z</time></trkpt><trkpt lat="39.4371467" lon="8.51369"><ele>90.0</ele><time>2026-04-21T14:39:01.291Z</time></trkpt><trkpt lat="39.4371517" lon="8.5136"><ele>90.0</ele><time>2026-04-21T14:39:02.291Z</time></trkpt><trkpt lat="39.4371433" lon="8.5135067"><ele>90.0</ele><time>2026-04-21T14:39:03.291Z</time></trkpt><trkpt lat="39.437135" lon="8.51342"><ele>89.66666666666667</ele><time>2026-04-21T14:39:04.292Z</time></trkpt><trkpt lat="39.437115" lon="8.5133267"><ele>89.33333333333333</ele><time>2026-04-21T14:39:05.292Z</time></trkpt><trkpt lat="39.437095" lon="8.51323"><ele>89.0</ele><time>2026-04-21T14:39:06.292Z</time></trkpt><trkpt lat="39.4370583" lon="8.5131283"><ele>88.66666666666666</ele><time>2026-04-21T14:39:07.292Z</time></trkpt><trkpt lat="39.4370217" lon="8.5130333"><ele>88.33333333333333</ele><time>2026-04-21T14:39:08.292Z</time></trkpt><trkpt lat="39.43698" lon="8.5129417"><ele>88.0</ele><time>2026-04-21T14:39:09.291Z</time></trkpt><trkpt lat="39.43693" lon="8.5128533"><ele>87.80000000000001</ele><time>2026-04-21T14:39:10.292Z</time></trkpt><trkpt lat="39.43688" lon="8.512765"><ele>87.6</ele><time>2026-04-21T14:39:11.292Z</time></trkpt><trkpt lat="39.436825" lon="8.5126767"><ele>87.4</ele><time>2026-04-21T14:39:12.291Z</time></trkpt><trkpt lat="39.436775" lon="8.5125917"><ele>87.19999999999999</ele><time>2026-04-21T14:39:13.292Z</time></trkpt><trkpt lat="39.4367317" lon="8.512515"><ele>87.0</ele><time>2026-04-21T14:39:14.292Z</time></trkpt><trkpt lat="39.4366833" lon="8.5123583"><ele>87.0</ele><time>2026-04-21T14:39:16.292Z</time></trkpt><trkpt lat="39.436675" lon="8.512265"><ele>87.0</ele><time>2026-04-21T14:39:17.291Z</time></trkpt><trkpt lat="39.43667" lon="8.5121667"><ele>87.0</ele><time>2026-04-21T14:39:18.291Z</time></trkpt><trkpt lat="39.436665" lon="8.5120633"><ele>87.0</ele><time>2026-04-21T14:39:19.291Z</time></trkpt><trkpt lat="39.4366683" lon="8.5119483"><ele>87.0</ele><time>2026-04-21T14:39:20.292Z</time></trkpt><trkpt lat="39.43668" lon="8.511825"><ele>87.0</ele><time>2026-04-21T14:39:21.292Z</time></trkpt><trkpt lat="39.4366783" lon="8.511705"><ele>86.6</ele><time>2026-04-21T14:39:22.292Z</time></trkpt><trkpt lat="39.4366767" lon="8.5115867"><ele>86.19999999999999</ele><time>2026-04-21T14:39:23.292Z</time></trkpt><trkpt lat="39.436665" lon="8.5114683"><ele>85.8</ele><time>2026-04-21T14:39:24.292Z</time></trkpt><trkpt lat="39.436645" lon="8.5113517"><ele>85.4</ele><time>2026-04-21T14:39:25.292Z</time></trkpt><trkpt lat="39.4366183" lon="8.5112317"><ele>85.0</ele><time>2026-04-21T14:39:26.292Z</time></trkpt><trkpt lat="39.4365917" lon="8.5111133"><ele>84.8</ele><time>2026-04-21T14:39:27.292Z</time></trkpt><trkpt lat="39.4365733" lon="8.5109967"><ele>84.6</ele><time>2026-04-21T14:39:28.291Z</time></trkpt><trkpt lat="39.4365517" lon="8.51088"><ele>84.4</ele><time>2026-04-21T14:39:29.291Z</time></trkpt><trkpt lat="39.4365267" lon="8.5107633"><ele>84.2</ele><time>2026-04-21T14:39:30.292Z</time></trkpt><trkpt lat="39.436505" lon="8.5106483"><ele>84.0</ele><time>2026-04-21T14:39:31.291Z</time></trkpt><trkpt lat="39.43648" lon="8.5105383"><ele>84.0</ele><time>2026-04-21T14:39:32.292Z</time></trkpt><trkpt lat="39.43646" lon="8.5104333"><ele>84.0</ele><time>2026-04-21T14:39:33.291Z</time></trkpt><trkpt lat="39.4364417" lon="8.5103367"><ele>84.0</ele><time>2026-04-21T14:39:34.292Z</time></trkpt><trkpt lat="39.4364283" lon="8.5102483"><ele>84.0</ele><time>2026-04-21T14:39:35.292Z</time></trkpt><trkpt lat="39.4364183" lon="8.5101617"><ele>84.0</ele><time>2026-04-21T14:39:36.291Z</time></trkpt><trkpt lat="39.4364183" lon="8.510065"><ele>84.0</ele><time>2026-04-21T14:39:37.291Z</time></trkpt><trkpt lat="39.4364267" lon="8.50996"><ele>83.66666666666667</ele><time>2026-04-21T14:39:38.291Z</time></trkpt><trkpt lat="39.43644" lon="8.509855"><ele>83.33333333333333</ele><time>2026-04-21T14:39:39.292Z</time></trkpt><trkpt lat="39.436465" lon="8.50974"><ele>83.0</ele><time>2026-04-21T14:39:40.291Z</time></trkpt><trkpt lat="39.4364967" lon="8.5096233"><ele>82.66666666666666</ele><time>2026-04-21T14:39:41.291Z</time></trkpt><trkpt lat="39.4365183" lon="8.5095117"><ele>82.33333333333333</ele><time>2026-04-21T14:39:42.292Z</time></trkpt><trkpt lat="39.43654" lon="8.5093983"><ele>82.0</ele><time>2026-04-21T14:39:43.292Z</time></trkpt><trkpt lat="39.436555" lon="8.5093033"><ele>82.0</ele><time>2026-04-21T14:39:44.292Z</time></trkpt><trkpt lat="39.43658" lon="8.5092"><ele>82.0</ele><time>2026-04-21T14:39:45.292Z</time></trkpt><trkpt lat="39.4366167" lon="8.509105"><ele>82.0</ele><time>2026-04-21T14:39:46.292Z</time></trkpt><trkpt lat="39.436665" lon="8.5089983"><ele>82.0</ele><time>2026-04-21T14:39:47.291Z</time></trkpt><trkpt lat="39.4367217" lon="8.50889"><ele>82.0</ele><time>2026-04-21T14:39:48.292Z</time></trkpt><trkpt lat="39.4367867" lon="8.5087783"><ele>81.39999999999999</ele><time>2026-04-21T14:39:49.292Z</time></trkpt><trkpt lat="39.4368583" lon="8.5086717"><ele>80.8</ele><time>2026-04-21T14:39:50.292Z</time></trkpt><trkpt lat="39.436925" lon="8.5085617"><ele>80.2</ele><time>2026-04-21T14:39:51.292Z</time></trkpt><trkpt lat="39.43699" lon="8.5084617"><ele>79.6</ele><time>2026-04-21T14:39:52.292Z</time></trkpt><trkpt lat="39.43705" lon="8.5083717"><ele>79.0</ele><time>2026-04-21T14:39:53.291Z</time></trkpt><trkpt lat="39.4371067" lon="8.5082933"><ele>78.4</ele><time>2026-04-21T14:39:54.291Z</time></trkpt><trkpt lat="39.4371483" lon="8.508225"><ele>77.80000000000001</ele><time>2026-04-21T14:39:55.292Z</time></trkpt><trkpt lat="39.4371867" lon="8.5081067"><ele>77.19999999999999</ele><time>2026-04-21T14:39:57.292Z</time></trkpt><trkpt lat="39.4371683" lon="8.5079533"><ele>76.6</ele><time>2026-04-21T14:39:59.291Z</time></trkpt><trkpt lat="39.437155" lon="8.5078717"><ele>76.0</ele><time>2026-04-21T14:40:00.291Z</time></trkpt><trkpt lat="39.4371333" lon="8.507715"><ele>76.0</ele><time>2026-04-21T14:40:02.291Z</time></trkpt><trkpt lat="39.4371067" lon="8.5075533"><ele>76.0</ele><time>2026-04-21T14:40:04.292Z</time></trkpt><trkpt lat="39.437095" lon="8.5074683"><ele>76.0</ele><time>2026-04-21T14:40:05.292Z</time></trkpt><trkpt lat="39.4370717" lon="8.50738"><ele>76.0</ele><time>2026-04-21T14:40:06.291Z</time></trkpt><trkpt lat="39.437035" lon="8.507285"><ele>76.0</ele><time>2026-04-21T14:40:07.292Z</time></trkpt><trkpt lat="39.4369867" lon="8.5072033"><ele>76.0</ele><time>2026-04-21T14:40:08.292Z</time></trkpt><trkpt lat="39.43694" lon="8.5071283"><ele>76.39999999999999</ele><time>2026-04-21T14:40:09.291Z</time></trkpt><trkpt lat="39.4368933" lon="8.50706"><ele>76.8</ele><time>2026-04-21T14:40:10.291Z</time></trkpt><trkpt lat="39.4368333" lon="8.506955"><ele>77.19999999999999</ele><time>2026-04-21T14:40:12.292Z</time></trkpt><trkpt lat="39.4367883" lon="8.50687"><ele>77.6</ele><time>2026-04-21T14:40:14.292Z</time></trkpt><trkpt lat="39.43673" lon="8.5067667"><ele>78.0</ele><time>2026-04-21T14:40:16.291Z</time></trkpt><trkpt lat="39.4366783" lon="8.5066367"><ele>78.0</ele><time>2026-04-21T14:40:18.291Z</time></trkpt><trkpt lat="39.4366483" lon="8.5065633"><ele>78.0</ele><time>2026-04-21T14:40:19.292Z</time></trkpt><trkpt lat="39.4366133" lon="8.506485"><ele>78.0</ele><time>2026-04-21T14:40:20.292Z</time></trkpt><trkpt lat="39.4365833" lon="8.5063983"><ele>78.0</ele><time>2026-04-21T14:40:21.292Z</time></trkpt><trkpt lat="39.4365533" lon="8.50631"><ele>78.0</ele><time>2026-04-21T14:40:22.291Z</time></trkpt><trkpt lat="39.4365217" lon="8.5062183"><ele>78.0</ele><time>2026-04-21T14:40:23.292Z</time></trkpt><trkpt lat="39.43649" lon="8.5061383"><ele>78.0</ele><time>2026-04-21T14:40:24.291Z</time></trkpt><trkpt lat="39.436445" lon="8.5059767"><ele>78.0</ele><time>2026-04-21T14:40:26.292Z</time></trkpt><trkpt lat="39.43643" lon="8.505885"><ele>78.0</ele><time>2026-04-21T14:40:27.292Z</time></trkpt><trkpt lat="39.436415" lon="8.505795"><ele>78.0</ele><time>2026-04-21T14:40:28.291Z</time></trkpt><trkpt lat="39.4363933" lon="8.50571"><ele>78.0</ele><time>2026-04-21T14:40:29.292Z</time></trkpt><trkpt lat="39.4363733" lon="8.5056267"><ele>78.0</ele><time>2026-04-21T14:40:30.291Z</time></trkpt><trkpt lat="39.4363533" lon="8.50553"><ele>78.0</ele><time>2026-04-21T14:40:31.292Z</time></trkpt><trkpt lat="39.4363333" lon="8.505435"><ele>78.0</ele><time>2026-04-21T14:40:32.292Z</time></trkpt><trkpt lat="39.43633" lon="8.5053383"><ele>78.0</ele><time>2026-04-21T14:40:33.291Z</time></trkpt><trkpt lat="39.4363333" lon="8.5052383"><ele>78.0</ele><time>2026-04-21T14:40:34.292Z</time></trkpt><trkpt lat="39.4363333" lon="8.5051483"><ele>78.0</ele><time>2026-04-21T14:40:35.291Z</time></trkpt><trkpt lat="39.436345" lon="8.505015"><ele>78.0</ele><time>2026-04-21T14:40:37.292Z</time></trkpt><trkpt lat="39.4363567" lon="8.5049033"><ele>78.0</ele><time>2026-04-21T14:40:39.292Z</time></trkpt><trkpt lat="39.4363867" lon="8.5047983"><ele>78.0</ele><time>2026-04-21T14:41:17.292Z</time></trkpt><trkpt lat="39.436375" lon="8.5046567"><ele>77.4</ele><time>2026-04-21T14:41:19.291Z</time></trkpt><trkpt lat="39.4363717" lon="8.5045417"><ele>76.8</ele><time>2026-04-21T14:41:21.292Z</time></trkpt><trkpt lat="39.4364267" lon="8.5045017"><ele>76.2</ele><time>2026-04-21T14:42:55.29Z</time></trkpt><trkpt lat="39.4364467" lon="8.504365"><ele>75.6</ele><time>2026-04-21T14:42:57.291Z</time></trkpt><trkpt lat="39.43645" lon="8.5041967"><ele>75.0</ele><time>2026-04-21T14:42:59.29Z</time></trkpt><trkpt lat="39.43646" lon="8.5041"><ele>75.0</ele><time>2026-04-21T14:43:00.29Z</time></trkpt><trkpt lat="39.4364683" lon="8.5039967"><ele>75.0</ele><time>2026-04-21T14:43:01.291Z</time></trkpt><trkpt lat="39.43648" lon="8.5038867"><ele>75.0</ele><time>2026-04-21T14:43:02.29Z</time></trkpt><trkpt lat="39.4364867" lon="8.50377"><ele>75.0</ele><time>2026-04-21T14:43:03.291Z</time></trkpt><trkpt lat="39.4364867" lon="8.5036517"><ele>75.0</ele><time>2026-04-21T14:43:04.29Z</time></trkpt><trkpt lat="39.4364817" lon="8.5035217"><ele>75.0</ele><time>2026-04-21T14:43:05.291Z</time></trkpt><trkpt lat="39.4364767" lon="8.5033933"><ele>74.8</ele><time>2026-04-21T14:43:06.291Z</time></trkpt><trkpt lat="39.4364733" lon="8.503265"><ele>74.6</ele><time>2026-04-21T14:43:07.29Z</time></trkpt><trkpt lat="39.436475" lon="8.50313"><ele>74.4</ele><time>2026-04-21T14:43:08.291Z</time></trkpt><trkpt lat="39.4364783" lon="8.50301"><ele>74.2</ele><time>2026-04-21T14:43:09.291Z</time></trkpt><trkpt lat="39.4364883" lon="8.502895"><ele>74.0</ele><time>2026-04-21T14:43:10.29Z</time></trkpt><trkpt lat="39.4364967" lon="8.502785"><ele>73.83333333333334</ele><time>2026-04-21T14:43:11.291Z</time></trkpt><trkpt lat="39.4364917" lon="8.50268"><ele>73.66666666666667</ele><time>2026-04-21T14:43:12.291Z</time></trkpt><trkpt lat="39.4364867" lon="8.5025617"><ele>73.5</ele><time>2026-04-21T14:43:13.29Z</time></trkpt><trkpt lat="39.4364733" lon="8.502455"><ele>73.33333333333333</ele><time>2026-04-21T14:43:14.29Z</time></trkpt><trkpt lat="39.4364583" lon="8.50236"><ele>73.16666666666666</ele><time>2026-04-21T14:43:15.291Z</time></trkpt><trkpt lat="39.436455" lon="8.50227"><ele>73.0</ele><time>2026-04-21T14:43:16.29Z</time></trkpt><trkpt lat="39.4364567" lon="8.50212"><ele>73.33333333333333</ele><time>2026-04-21T14:43:18.291Z</time></trkpt><trkpt lat="39.436505" lon="8.5020333"><ele>73.66666666666666</ele><time>2026-04-21T14:43:20.291Z</time></trkpt><trkpt lat="39.43659" lon="8.5019983"><ele>74.0</ele><time>2026-04-21T14:43:22.291Z</time></trkpt><trkpt lat="39.4367067" lon="8.5019633"><ele>74.33333333333333</ele><time>2026-04-21T14:43:24.291Z</time></trkpt><trkpt lat="39.43677" lon="8.5019417"><ele>74.66666666666667</ele><time>2026-04-21T14:43:25.291Z</time></trkpt><trkpt lat="39.4368333" lon="8.5019033"><ele>75.0</ele><time>2026-04-21T14:43:26.291Z</time></trkpt><trkpt lat="39.43691" lon="8.5018517"><ele>75.0</ele><time>2026-04-21T14:43:27.291Z</time></trkpt><trkpt lat="39.4370417" lon="8.50174"><ele>75.0</ele><time>2026-04-21T14:43:29.29Z</time></trkpt><trkpt lat="39.4371033" lon="8.5016983"><ele>75.0</ele><time>2026-04-21T14:43:30.291Z</time></trkpt><trkpt lat="39.43717" lon="8.5016683"><ele>75.0</ele><time>2026-04-21T14:43:31.29Z</time></trkpt><trkpt lat="39.437235" lon="8.50165"><ele>75.0</ele><time>2026-04-21T14:43:32.291Z</time></trkpt><trkpt lat="39.4372983" lon="8.501625"><ele>75.0</ele><time>2026-04-21T14:43:33.29Z</time></trkpt><trkpt lat="39.4373633" lon="8.5016167"><ele>77.2</ele><time>2026-04-21T14:43:34.291Z</time></trkpt><trkpt lat="39.4374833" lon="8.5015833"><ele>79.4</ele><time>2026-04-21T14:43:36.29Z</time></trkpt><trkpt lat="39.4376" lon="8.5015417"><ele>81.6</ele><time>2026-04-21T14:43:38.29Z</time></trkpt><trkpt lat="39.4377233" lon="8.5015"><ele>83.8</ele><time>2026-04-21T14:43:40.29Z</time></trkpt><trkpt lat="39.4377883" lon="8.501475"><ele>86.0</ele><time>2026-04-21T14:43:41.291Z</time></trkpt><trkpt lat="39.43786" lon="8.5014567"><ele>90.0</ele><time>2026-04-21T14:43:42.291Z</time></trkpt><trkpt lat="39.4379933" lon="8.50141"><ele>94.0</ele><time>2026-04-21T14:43:44.29Z</time></trkpt><trkpt lat="39.43807" lon="8.5013733"><ele>98.0</ele><time>2026-04-21T14:43:45.291Z</time></trkpt><trkpt lat="39.4382867" lon="8.5012483"><ele>97.99999999999999</ele><time>2026-04-21T14:43:48.291Z</time></trkpt><trkpt lat="39.4383667" lon="8.5012033"><ele>98.0</ele><time>2026-04-21T14:43:49.29Z</time></trkpt><trkpt lat="39.4384383" lon="8.5011533"><ele>98.0</ele><time>2026-04-21T14:43:50.291Z</time></trkpt><trkpt lat="39.4385" lon="8.5011017"><ele>98.0</ele><time>2026-04-21T14:43:51.291Z</time></trkpt><trkpt lat="39.438565" lon="8.501025"><ele>97.99999999999999</ele><time>2026-04-21T14:43:53.291Z</time></trkpt><trkpt lat="39.4386317" lon="8.50094"><ele>98.0</ele><time>2026-04-21T14:43:55.29Z</time></trkpt><trkpt lat="39.4387733" lon="8.5007933"><ele>97.80000000000001</ele><time>2026-04-21T14:43:58.291Z</time></trkpt><trkpt lat="39.4388217" lon="8.50073"><ele>97.6</ele><time>2026-04-21T14:43:59.29Z</time></trkpt><trkpt lat="39.4389083" lon="8.500625"><ele>97.4</ele><time>2026-04-21T14:44:01.29Z</time></trkpt><trkpt lat="39.4389533" lon="8.5005617"><ele>97.19999999999999</ele><time>2026-04-21T14:44:02.291Z</time></trkpt><trkpt lat="39.438995" lon="8.50048"><ele>97.0</ele><time>2026-04-21T14:44:03.291Z</time></trkpt><trkpt lat="39.439055" lon="8.50027"><ele>97.0</ele><time>2026-04-21T14:44:05.29Z</time></trkpt><trkpt lat="39.4390683" lon="8.500165"><ele>97.0</ele><time>2026-04-21T14:44:06.29Z</time></trkpt><trkpt lat="39.4391" lon="8.499835"><ele>97.0</ele><time>2026-04-21T14:44:09.29Z</time></trkpt><trkpt lat="39.4391067" lon="8.4997217"><ele>97.0</ele><time>2026-04-21T14:44:10.291Z</time></trkpt><trkpt lat="39.439115" lon="8.499625"><ele>96.6</ele><time>2026-04-21T14:44:11.291Z</time></trkpt><trkpt lat="39.439135" lon="8.499525"><ele>96.19999999999999</ele><time>2026-04-21T14:44:12.29Z</time></trkpt><trkpt lat="39.4391933" lon="8.4993283"><ele>95.8</ele><time>2026-04-21T14:44:14.29Z</time></trkpt><trkpt lat="39.439235" lon="8.4992333"><ele>95.4</ele><time>2026-04-21T14:44:15.291Z</time></trkpt><trkpt lat="39.4392833" lon="8.4991383"><ele>95.0</ele><time>2026-04-21T14:44:16.291Z</time></trkpt><trkpt lat="39.439405" lon="8.4989633"><ele>95.0</ele><time>2026-04-21T14:44:18.291Z</time></trkpt><trkpt lat="39.4394617" lon="8.4988733"><ele>95.0</ele><time>2026-04-21T14:44:19.291Z</time></trkpt><trkpt lat="39.4395867" lon="8.4987017"><ele>95.0</ele><time>2026-04-21T14:44:21.29Z</time></trkpt><trkpt lat="39.4397067" lon="8.4985383"><ele>95.0</ele><time>2026-04-21T14:44:23.29Z</time></trkpt><trkpt lat="39.4397583" lon="8.49846"><ele>93.25</ele><time>2026-04-21T14:44:24.291Z</time></trkpt><trkpt lat="39.439805" lon="8.4983883"><ele>91.5</ele><time>2026-04-21T14:44:25.291Z</time></trkpt><trkpt lat="39.4398517" lon="8.4983267"><ele>89.75</ele><time>2026-04-21T14:44:26.291Z</time></trkpt><trkpt lat="39.4399867" lon="8.4981033"><ele>88.0</ele><time>2026-04-21T14:44:30.291Z</time></trkpt><trkpt lat="39.4400267" lon="8.49798"><ele>86.60000000000001</ele><time>2026-04-21T14:44:32.291Z</time></trkpt><trkpt lat="39.440015" lon="8.4978183"><ele>85.2</ele><time>2026-04-21T14:44:34.291Z</time></trkpt><trkpt lat="39.44" lon="8.4977167"><ele>83.8</ele><time>2026-04-21T14:44:35.291Z</time></trkpt><trkpt lat="39.439995" lon="8.4976083"><ele>82.4</ele><time>2026-04-21T14:44:36.29Z</time></trkpt><trkpt lat="39.4399883" lon="8.4974033"><ele>81.0</ele><time>2026-04-21T14:44:38.291Z</time></trkpt><trkpt lat="39.43995" lon="8.4971033"><ele>79.6</ele><time>2026-04-21T14:44:41.291Z</time></trkpt><trkpt lat="39.439935" lon="8.4970233"><ele>78.19999999999999</ele><time>2026-04-21T14:44:42.291Z</time></trkpt><trkpt lat="39.43991" lon="8.4968667"><ele>76.80000000000001</ele><time>2026-04-21T14:44:44.291Z</time></trkpt><trkpt lat="39.4398917" lon="8.4966283"><ele>75.4</ele><time>2026-04-21T14:44:47.291Z</time></trkpt><trkpt lat="39.4398917" lon="8.496545"><ele>74.0</ele><time>2026-04-21T14:44:48.29Z</time></trkpt><trkpt lat="39.4398767" lon="8.4963483"><ele>72.8</ele><time>2026-04-21T14:44:51.29Z</time></trkpt><trkpt lat="39.4398633" lon="8.4962333"><ele>71.60000000000001</ele><time>2026-04-21T14:44:53.291Z</time></trkpt><trkpt lat="39.43983" lon="8.4961633"><ele>70.4</ele><time>2026-04-21T14:44:54.29Z</time></trkpt><trkpt lat="39.4397883" lon="8.4960917"><ele>69.2</ele><time>2026-04-21T14:44:55.291Z</time></trkpt><trkpt lat="39.4397533" lon="8.4960233"><ele>68.0</ele><time>2026-04-21T14:44:56.29Z</time></trkpt><trkpt lat="39.43966" lon="8.4958417"><ele>68.5</ele><time>2026-04-21T14:44:59.291Z</time></trkpt><trkpt lat="39.4395183" lon="8.4956433"><ele>69.0</ele><time>2026-04-21T14:45:02.291Z</time></trkpt><trkpt lat="39.4394617" lon="8.4955883"><ele>69.5</ele><time>2026-04-21T14:45:03.291Z</time></trkpt><trkpt lat="39.43941" lon="8.4955317"><ele>70.0</ele><time>2026-04-21T14:45:04.291Z</time></trkpt><trkpt lat="39.4393333" lon="8.4954133"><ele>67.0</ele><time>2026-04-21T14:45:06.291Z</time></trkpt><trkpt lat="39.4392783" lon="8.4952433"><ele>64.0</ele><time>2026-04-21T14:45:08.291Z</time></trkpt><trkpt lat="39.43926" lon="8.49513"><ele>61.0</ele><time>2026-04-21T14:45:09.29Z</time></trkpt><trkpt lat="39.4392" lon="8.4948183"><ele>61.0</ele><time>2026-04-21T14:45:12.291Z</time></trkpt><trkpt lat="39.439135" lon="8.4946683"><ele>60.99999999999999</ele><time>2026-04-21T14:45:14.291Z</time></trkpt><trkpt lat="39.4390767" lon="8.4946133"><ele>60.99999999999999</ele><time>2026-04-21T14:45:15.291Z</time></trkpt><trkpt lat="39.4390217" lon="8.494565"><ele>61.0</ele><time>2026-04-21T14:45:16.29Z</time></trkpt><trkpt lat="39.4389517" lon="8.4944783"><ele>61.0</ele><time>2026-04-21T14:45:18.291Z</time></trkpt><trkpt lat="39.4389867" lon="8.4943017"><ele>60.199999999999996</ele><time>2026-04-21T14:45:23.291Z</time></trkpt><trkpt lat="39.439035" lon="8.494235"><ele>59.39999999999999</ele><time>2026-04-21T14:45:24.291Z</time></trkpt><trkpt lat="39.4391367" lon="8.4940933"><ele>58.6</ele><time>2026-04-21T14:45:26.291Z</time></trkpt><trkpt lat="39.4391867" lon="8.494015"><ele>57.8</ele><time>2026-04-21T14:45:27.29Z</time></trkpt><trkpt lat="39.4392317" lon="8.4939317"><ele>57.0</ele><time>2026-04-21T14:45:28.29Z</time></trkpt><trkpt lat="39.4393217" lon="8.4937817"><ele>57.0</ele><time>2026-04-21T14:45:30.291Z</time></trkpt><trkpt lat="39.4393533" lon="8.4937083"><ele>57.0</ele><time>2026-04-21T14:45:31.291Z</time></trkpt><trkpt lat="39.439425" lon="8.4935767"><ele>57.0</ele><time>2026-04-21T14:45:33.291Z</time></trkpt><trkpt lat="39.43949" lon="8.4934617"><ele>57.0</ele><time>2026-04-21T14:45:35.291Z</time></trkpt><trkpt lat="39.4395467" lon="8.493395"><ele>57.0</ele><time>2026-04-21T14:45:37.29Z</time></trkpt><trkpt lat="39.4396233" lon="8.4932917"><ele>57.2</ele><time>2026-04-21T14:45:48.291Z</time></trkpt><trkpt lat="39.4396917" lon="8.493225"><ele>57.400000000000006</ele><time>2026-04-21T14:45:50.29Z</time></trkpt><trkpt lat="39.4397883" lon="8.493085"><ele>57.599999999999994</ele><time>2026-04-21T14:45:53.291Z</time></trkpt><trkpt lat="39.4398383" lon="8.4929867"><ele>57.8</ele><time>2026-04-21T14:45:55.291Z</time></trkpt><trkpt lat="39.439885" lon="8.492905"><ele>58.0</ele><time>2026-04-21T14:45:57.291Z</time></trkpt><trkpt lat="39.4398117" lon="8.4928933"><ele>57.99999999999999</ele><time>2026-04-21T14:46:02.29Z</time></trkpt><trkpt lat="39.43977" lon="8.4929583"><ele>58.0</ele><time>2026-04-21T14:47:18.29Z</time></trkpt><trkpt lat="39.439715" lon="8.4930383"><ele>58.0</ele><time>2026-04-21T14:47:20.291Z</time></trkpt><trkpt lat="39.4396433" lon="8.493165"><ele>58.0</ele><time>2026-04-21T14:47:22.291Z</time></trkpt><trkpt lat="39.439605" lon="8.4932367"><ele>57.99999999999999</ele><time>2026-04-21T14:47:23.29Z</time></trkpt><trkpt lat="39.4395633" lon="8.493305"><ele>58.0</ele><time>2026-04-21T14:47:24.291Z</time></trkpt><trkpt lat="39.4395133" lon="8.4933783"><ele>57.83333333333333</ele><time>2026-04-21T14:47:25.291Z</time></trkpt><trkpt lat="39.4394633" lon="8.49345"><ele>57.666666666666664</ele><time>2026-04-21T14:47:26.29Z</time></trkpt><trkpt lat="39.439415" lon="8.493525"><ele>57.5</ele><time>2026-04-21T14:47:27.29Z</time></trkpt><trkpt lat="39.4393617" lon="8.493595"><ele>57.33333333333333</ele><time>2026-04-21T14:47:28.291Z</time></trkpt><trkpt lat="39.4393117" lon="8.4936667"><ele>57.166666666666664</ele><time>2026-04-21T14:47:29.291Z</time></trkpt><trkpt lat="39.4392617" lon="8.493755"><ele>57.0</ele><time>2026-04-21T14:47:30.29Z</time></trkpt><trkpt lat="39.4392083" lon="8.4938367"><ele>57.0</ele><time>2026-04-21T14:47:31.291Z</time></trkpt><trkpt lat="39.4391517" lon="8.493915"><ele>57.0</ele><time>2026-04-21T14:47:32.291Z</time></trkpt><trkpt lat="39.4391117" lon="8.4939933"><ele>57.0</ele><time>2026-04-21T14:47:33.291Z</time></trkpt><trkpt lat="39.4390483" lon="8.4941117"><ele>57.0</ele><time>2026-04-21T14:47:35.291Z</time></trkpt><trkpt lat="39.438985" lon="8.4941483"><ele>57.0</ele><time>2026-04-21T14:47:37.29Z</time></trkpt><trkpt lat="39.438895" lon="8.4940867"><ele>57.0</ele><time>2026-04-21T14:47:39.291Z</time></trkpt><trkpt lat="39.438845" lon="8.4940217"><ele>56.8</ele><time>2026-04-21T14:47:40.29Z</time></trkpt><trkpt lat="39.438795" lon="8.49395"><ele>56.6</ele><time>2026-04-21T14:47:41.29Z</time></trkpt><trkpt lat="39.4387483" lon="8.4938717"><ele>56.39999999999999</ele><time>2026-04-21T14:47:42.29Z</time></trkpt><trkpt lat="39.4386967" lon="8.4938033"><ele>56.199999999999996</ele><time>2026-04-21T14:47:43.291Z</time></trkpt><trkpt lat="39.438565" lon="8.49361"><ele>56.0</ele><time>2026-04-21T14:47:46.291Z</time></trkpt><trkpt lat="39.4384683" lon="8.4935233"><ele>56.0</ele><time>2026-04-21T14:47:48.291Z</time></trkpt><trkpt lat="39.438395" lon="8.493525"><ele>55.99999999999999</ele><time>2026-04-21T14:47:49.29Z</time></trkpt><trkpt lat="39.438315" lon="8.49354"><ele>55.99999999999999</ele><time>2026-04-21T14:47:50.291Z</time></trkpt><trkpt lat="39.4381517" lon="8.4936367"><ele>56.0</ele><time>2026-04-21T14:47:52.291Z</time></trkpt><trkpt lat="39.4380783" lon="8.49371"><ele>56.0</ele><time>2026-04-21T14:47:53.29Z</time></trkpt><trkpt lat="39.4378717" lon="8.4940233"><ele>58.0</ele><time>2026-04-21T14:47:56.29Z</time></trkpt><trkpt lat="39.4378017" lon="8.4941483"><ele>60.0</ele><time>2026-04-21T14:47:57.291Z</time></trkpt><trkpt lat="39.437725" lon="8.49428"><ele>62.0</ele><time>2026-04-21T14:47:58.29Z</time></trkpt><trkpt lat="39.4376567" lon="8.4944017"><ele>64.0</ele><time>2026-04-21T14:47:59.291Z</time></trkpt><trkpt lat="39.43758" lon="8.4945117"><ele>62.800000000000004</ele><time>2026-04-21T14:48:00.29Z</time></trkpt><trkpt lat="39.437505" lon="8.4946083"><ele>61.60000000000001</ele><time>2026-04-21T14:48:01.29Z</time></trkpt><trkpt lat="39.437435" lon="8.4946917"><ele>60.4</ele><time>2026-04-21T14:48:02.291Z</time></trkpt><trkpt lat="39.4373867" lon="8.49478"><ele>59.2</ele><time>2026-04-21T14:48:03.291Z</time></trkpt><trkpt lat="39.43735" lon="8.4948783"><ele>58.0</ele><time>2026-04-21T14:48:04.291Z</time></trkpt><trkpt lat="39.4373317" lon="8.49499"><ele>58.0</ele><time>2026-04-21T14:48:05.291Z</time></trkpt><trkpt lat="39.4373333" lon="8.4951117"><ele>58.0</ele><time>2026-04-21T14:48:06.291Z</time></trkpt><trkpt lat="39.437345" lon="8.4952317"><ele>58.0</ele><time>2026-04-21T14:48:07.291Z</time></trkpt><trkpt lat="39.437355" lon="8.4953467"><ele>58.0</ele><time>2026-04-21T14:48:08.291Z</time></trkpt><trkpt lat="39.4373583" lon="8.4954633"><ele>58.0</ele><time>2026-04-21T14:48:09.291Z</time></trkpt><trkpt lat="39.4373433" lon="8.49558"><ele>58.33333333333333</ele><time>2026-04-21T14:48:10.291Z</time></trkpt><trkpt lat="39.4373267" lon="8.4956833"><ele>58.666666666666664</ele><time>2026-04-21T14:48:11.29Z</time></trkpt><trkpt lat="39.437305" lon="8.4957917"><ele>59.0</ele><time>2026-04-21T14:48:12.291Z</time></trkpt><trkpt lat="39.4372767" lon="8.4959033"><ele>59.33333333333333</ele><time>2026-04-21T14:48:13.29Z</time></trkpt><trkpt lat="39.4372483" lon="8.496015"><ele>59.666666666666664</ele><time>2026-04-21T14:48:14.29Z</time></trkpt><trkpt lat="39.43722" lon="8.49612"><ele>60.0</ele><time>2026-04-21T14:48:15.291Z</time></trkpt><trkpt lat="39.4371817" lon="8.4962117"><ele>60.0</ele><time>2026-04-21T14:48:16.29Z</time></trkpt><trkpt lat="39.4371283" lon="8.4962983"><ele>60.0</ele><time>2026-04-21T14:48:17.291Z</time></trkpt><trkpt lat="39.4370667" lon="8.4963833"><ele>60.0</ele><time>2026-04-21T14:48:18.29Z</time></trkpt><trkpt lat="39.4369917" lon="8.4964583"><ele>60.0</ele><time>2026-04-21T14:48:19.291Z</time></trkpt><trkpt lat="39.436915" lon="8.496525"><ele>60.0</ele><time>2026-04-21T14:48:20.29Z</time></trkpt><trkpt lat="39.4368467" lon="8.4965783"><ele>60.0</ele><time>2026-04-21T14:48:21.29Z</time></trkpt><trkpt lat="39.4367817" lon="8.4966233"><ele>60.0</ele><time>2026-04-21T14:48:22.29Z</time></trkpt><trkpt lat="39.4367217" lon="8.4966717"><ele>60.0</ele><time>2026-04-21T14:48:23.291Z</time></trkpt><trkpt lat="39.4366167" lon="8.496755"><ele>60.0</ele><time>2026-04-21T14:48:25.29Z</time></trkpt><trkpt lat="39.4365617" lon="8.4967967"><ele>60.0</ele><time>2026-04-21T14:48:26.29Z</time></trkpt><trkpt lat="39.4365067" lon="8.4968467"><ele>60.0</ele><time>2026-04-21T14:48:27.29Z</time></trkpt><trkpt lat="39.4364133" lon="8.4969417"><ele>60.0</ele><time>2026-04-21T14:48:29.29Z</time></trkpt><trkpt lat="39.4363533" lon="8.4970417"><ele>60.42857142857143</ele><time>2026-04-21T14:48:31.291Z</time></trkpt><trkpt lat="39.4362783" lon="8.4971533"><ele>60.857142857142854</ele><time>2026-04-21T14:48:33.291Z</time></trkpt><trkpt lat="39.436235" lon="8.4972217"><ele>61.285714285714285</ele><time>2026-04-21T14:48:34.29Z</time></trkpt><trkpt lat="39.4361867" lon="8.4972967"><ele>61.714285714285715</ele><time>2026-04-21T14:48:35.29Z</time></trkpt><trkpt lat="39.43615" lon="8.4973633"><ele>62.14285714285714</ele><time>2026-04-21T14:48:36.291Z</time></trkpt><trkpt lat="39.43611" lon="8.4974283"><ele>62.57142857142857</ele><time>2026-04-21T14:48:37.291Z</time></trkpt><trkpt lat="39.4360733" lon="8.497495"><ele>63.0</ele><time>2026-04-21T14:48:38.29Z</time></trkpt><trkpt lat="39.4359983" lon="8.49762"><ele>63.0</ele><time>2026-04-21T14:48:40.291Z</time></trkpt><trkpt lat="39.4359517" lon="8.49768"><ele>63.0</ele><time>2026-04-21T14:48:41.291Z</time></trkpt><trkpt lat="39.4359083" lon="8.4977417"><ele>63.0</ele><time>2026-04-21T14:48:42.29Z</time></trkpt><trkpt lat="39.435865" lon="8.497815"><ele>63.0</ele><time>2026-04-21T14:48:43.291Z</time></trkpt><trkpt lat="39.4358183" lon="8.4978967"><ele>63.0</ele><time>2026-04-21T14:48:44.29Z</time></trkpt><trkpt lat="39.4357717" lon="8.49798"><ele>63.0</ele><time>2026-04-21T14:48:45.291Z</time></trkpt><trkpt lat="39.435715" lon="8.4980633"><ele>63.0</ele><time>2026-04-21T14:48:46.29Z</time></trkpt><trkpt lat="39.43565" lon="8.4981417"><ele>62.666666666666664</ele><time>2026-04-21T14:48:47.291Z</time></trkpt><trkpt lat="39.4355967" lon="8.4982183"><ele>62.33333333333333</ele><time>2026-04-21T14:48:48.291Z</time></trkpt><trkpt lat="39.43555" lon="8.4982867"><ele>62.0</ele><time>2026-04-21T14:48:49.29Z</time></trkpt><trkpt lat="39.4354983" lon="8.498355"><ele>61.666666666666664</ele><time>2026-04-21T14:48:50.29Z</time></trkpt><trkpt lat="39.4354483" lon="8.4984217"><ele>61.33333333333333</ele><time>2026-04-21T14:48:51.291Z</time></trkpt><trkpt lat="39.4353567" lon="8.4985133"><ele>61.0</ele><time>2026-04-21T14:48:53.289Z</time></trkpt><trkpt lat="39.4353217" lon="8.4986333"><ele>61.4</ele><time>2026-04-21T14:48:55.29Z</time></trkpt><trkpt lat="39.4353767" lon="8.4987583"><ele>61.8</ele><time>2026-04-21T14:48:57.289Z</time></trkpt><trkpt lat="39.4354833" lon="8.498855"><ele>62.199999999999996</ele><time>2026-04-21T14:48:59.29Z</time></trkpt><trkpt lat="39.43553" lon="8.4989233"><ele>62.599999999999994</ele><time>2026-04-21T14:49:00.29Z</time></trkpt><trkpt lat="39.435595" lon="8.4990483"><ele>63.0</ele><time>2026-04-21T14:49:02.289Z</time></trkpt><trkpt lat="39.4356283" lon="8.4991433"><ele>67.0</ele><time>2026-04-21T14:49:04.289Z</time></trkpt><trkpt lat="39.43571" lon="8.4991367"><ele>67.0</ele><time>2026-04-21T14:49:11.289Z</time></trkpt><trkpt lat="39.43577" lon="8.4990533"><ele>67.0</ele><time>2026-04-21T14:49:14.29Z</time></trkpt></trkseg></trk></gpx>